<?xml version="1.0" encoding="UTF-8" standalone="no" ?>
<gpx xmlns="http://www.topografix.com/GPX/1/1" xmlns:xsi="http://www.w3.org/2001/XMLSchema-instance" xsi:schemaLocation="http://www.topografix.com/GPX/1/1 http://www.topografix.com/GPX/1/1/gpx.xsd" version="1.1" creator="VisuGPX - https://www.visugpx.com">
  <metadata>
    <name>GR 54 complet</name>
  </metadata>
  <trk>
    <name><![CDATA[11737451-GR 54 complet]]></name>
    <trkseg>
      <trkpt lat="45.05851" lon="6.02854">
        <ele>721</ele>
        <time>2020-07-13T22:56:02Z</time>
      </trkpt>
      <trkpt lat="45.05828" lon="6.02871">
        <ele>722</ele>
        <time>2020-07-13T22:56:37Z</time>
      </trkpt>
      <trkpt lat="45.05827" lon="6.02876">
        <ele>722</ele>
        <time>2020-07-13T22:56:42Z</time>
      </trkpt>
      <trkpt lat="45.05824" lon="6.02878">
        <ele>722</ele>
        <time>2020-07-13T22:56:46Z</time>
      </trkpt>
      <trkpt lat="45.05812" lon="6.02886">
        <ele>722</ele>
        <time>2020-07-13T22:57:04Z</time>
      </trkpt>
      <trkpt lat="45.0581" lon="6.02881">
        <ele>722</ele>
        <time>2020-07-13T22:57:09Z</time>
      </trkpt>
      <trkpt lat="45.05808" lon="6.02881">
        <ele>722</ele>
        <time>2020-07-13T22:57:12Z</time>
      </trkpt>
      <trkpt lat="45.05803" lon="6.02886">
        <ele>722</ele>
        <time>2020-07-13T22:57:20Z</time>
      </trkpt>
      <trkpt lat="45.05801" lon="6.02881">
        <ele>722</ele>
        <time>2020-07-13T22:57:25Z</time>
      </trkpt>
      <trkpt lat="45.05752" lon="6.02919">
        <ele>721</ele>
        <time>2020-07-13T22:58:40Z</time>
      </trkpt>
      <trkpt lat="45.05736" lon="6.02926">
        <ele>721</ele>
        <time>2020-07-13T22:59:02Z</time>
      </trkpt>
      <trkpt lat="45.05723" lon="6.02926">
        <ele>722</ele>
        <time>2020-07-13T22:59:20Z</time>
      </trkpt>
      <trkpt lat="45.05683" lon="6.02945">
        <ele>722</ele>
        <time>2020-07-13T23:00:16Z</time>
      </trkpt>
      <trkpt lat="45.05626" lon="6.02958">
        <ele>722</ele>
        <time>2020-07-13T23:01:33Z</time>
      </trkpt>
      <trkpt lat="45.05595" lon="6.02963">
        <ele>722</ele>
        <time>2020-07-13T23:02:15Z</time>
      </trkpt>
      <trkpt lat="45.05517" lon="6.02979">
        <ele>725</ele>
        <time>2020-07-13T23:04:00Z</time>
      </trkpt>
      <trkpt lat="45.05511" lon="6.02983">
        <ele>726</ele>
        <time>2020-07-13T23:04:09Z</time>
      </trkpt>
      <trkpt lat="45.05505" lon="6.02991">
        <ele>726</ele>
        <time>2020-07-13T23:04:20Z</time>
      </trkpt>
      <trkpt lat="45.05487" lon="6.02985">
        <ele>727</ele>
        <time>2020-07-13T23:04:44Z</time>
      </trkpt>
      <trkpt lat="45.0547" lon="6.02988">
        <ele>728</ele>
        <time>2020-07-13T23:05:07Z</time>
      </trkpt>
      <trkpt lat="45.05421" lon="6.03004">
        <ele>730</ele>
        <time>2020-07-13T23:06:14Z</time>
      </trkpt>
      <trkpt lat="45.05418" lon="6.03006">
        <ele>730</ele>
        <time>2020-07-13T23:06:19Z</time>
      </trkpt>
      <trkpt lat="45.05421" lon="6.03004">
        <ele>730</ele>
        <time>2020-07-13T23:06:23Z</time>
      </trkpt>
      <trkpt lat="45.05446" lon="6.03102">
        <ele>725</ele>
        <time>2020-07-13T23:08:01Z</time>
      </trkpt>
      <trkpt lat="45.05474" lon="6.03191">
        <ele>721</ele>
        <time>2020-07-13T23:09:33Z</time>
      </trkpt>
      <trkpt lat="45.05482" lon="6.03146">
        <ele>722</ele>
        <time>2020-07-13T23:10:17Z</time>
      </trkpt>
      <trkpt lat="45.05491" lon="6.0308">
        <ele>724</ele>
        <time>2020-07-13T23:11:20Z</time>
      </trkpt>
      <trkpt lat="45.05482" lon="6.03146">
        <ele>722</ele>
        <time>2020-07-13T23:12:24Z</time>
      </trkpt>
      <trkpt lat="45.05476" lon="6.03177">
        <ele>721</ele>
        <time>2020-07-13T23:12:54Z</time>
      </trkpt>
      <trkpt lat="45.0548" lon="6.03179">
        <ele>721</ele>
        <time>2020-07-13T23:13:00Z</time>
      </trkpt>
      <trkpt lat="45.05517" lon="6.03163">
        <ele>720</ele>
        <time>2020-07-13T23:13:51Z</time>
      </trkpt>
      <trkpt lat="45.0548" lon="6.03179">
        <ele>721</ele>
        <time>2020-07-13T23:14:43Z</time>
      </trkpt>
      <trkpt lat="45.05476" lon="6.03177">
        <ele>721</ele>
        <time>2020-07-13T23:14:49Z</time>
      </trkpt>
      <trkpt lat="45.05474" lon="6.03191">
        <ele>721</ele>
        <time>2020-07-13T23:15:02Z</time>
      </trkpt>
      <trkpt lat="45.05475" lon="6.03199">
        <ele>721</ele>
        <time>2020-07-13T23:15:10Z</time>
      </trkpt>
      <trkpt lat="45.05489" lon="6.0324">
        <ele>720</ele>
        <time>2020-07-13T23:15:53Z</time>
      </trkpt>
      <trkpt lat="45.05511" lon="6.03276">
        <ele>720</ele>
        <time>2020-07-13T23:16:37Z</time>
      </trkpt>
      <trkpt lat="45.0559" lon="6.03368">
        <ele>718</ele>
        <time>2020-07-13T23:18:54Z</time>
      </trkpt>
      <trkpt lat="45.05599" lon="6.03379">
        <ele>718</ele>
        <time>2020-07-13T23:19:10Z</time>
      </trkpt>
      <trkpt lat="45.05604" lon="6.03384">
        <ele>718</ele>
        <time>2020-07-13T23:19:18Z</time>
      </trkpt>
      <trkpt lat="45.05618" lon="6.03398">
        <ele>718</ele>
        <time>2020-07-13T23:19:41Z</time>
      </trkpt>
      <trkpt lat="45.05624" lon="6.03405">
        <ele>718</ele>
        <time>2020-07-13T23:19:51Z</time>
      </trkpt>
      <trkpt lat="45.05802" lon="6.03607">
        <ele>721</ele>
        <time>2020-07-13T23:24:56Z</time>
      </trkpt>
      <trkpt lat="45.05843" lon="6.03666">
        <ele>721</ele>
        <time>2020-07-13T23:26:14Z</time>
      </trkpt>
      <trkpt lat="45.05868" lon="6.03705">
        <ele>723</ele>
        <time>2020-07-13T23:27:03Z</time>
      </trkpt>
      <trkpt lat="45.05872" lon="6.03712">
        <ele>723</ele>
        <time>2020-07-13T23:27:12Z</time>
      </trkpt>
      <trkpt lat="45.05876" lon="6.03718">
        <ele>723</ele>
        <time>2020-07-13T23:27:20Z</time>
      </trkpt>
      <trkpt lat="45.05884" lon="6.03697">
        <ele>723</ele>
        <time>2020-07-13T23:27:42Z</time>
      </trkpt>
      <trkpt lat="45.05892" lon="6.037">
        <ele>723</ele>
        <time>2020-07-13T23:27:53Z</time>
      </trkpt>
      <trkpt lat="45.05906" lon="6.03723">
        <ele>724</ele>
        <time>2020-07-13T23:28:22Z</time>
      </trkpt>
      <trkpt lat="45.05916" lon="6.03728">
        <ele>724</ele>
        <time>2020-07-13T23:28:36Z</time>
      </trkpt>
      <trkpt lat="45.05925" lon="6.0371">
        <ele>723</ele>
        <time>2020-07-13T23:28:57Z</time>
      </trkpt>
      <trkpt lat="45.0593" lon="6.03688">
        <ele>723</ele>
        <time>2020-07-13T23:29:18Z</time>
      </trkpt>
      <trkpt lat="45.0593" lon="6.03678">
        <ele>723</ele>
        <time>2020-07-13T23:29:28Z</time>
      </trkpt>
      <trkpt lat="45.05927" lon="6.03667">
        <ele>723</ele>
        <time>2020-07-13T23:29:39Z</time>
      </trkpt>
      <trkpt lat="45.05929" lon="6.0365">
        <ele>723</ele>
        <time>2020-07-13T23:29:55Z</time>
      </trkpt>
      <trkpt lat="45.05935" lon="6.03644">
        <ele>722</ele>
        <time>2020-07-13T23:30:05Z</time>
      </trkpt>
      <trkpt lat="45.05946" lon="6.03646">
        <ele>722</ele>
        <time>2020-07-13T23:30:20Z</time>
      </trkpt>
      <trkpt lat="45.05953" lon="6.03652">
        <ele>722</ele>
        <time>2020-07-13T23:30:31Z</time>
      </trkpt>
      <trkpt lat="45.05965" lon="6.0366">
        <ele>722</ele>
        <time>2020-07-13T23:30:48Z</time>
      </trkpt>
      <trkpt lat="45.05975" lon="6.03667">
        <ele>722</ele>
        <time>2020-07-13T23:31:03Z</time>
      </trkpt>
      <trkpt lat="45.0598" lon="6.03676">
        <ele>722</ele>
        <time>2020-07-13T23:31:14Z</time>
      </trkpt>
      <trkpt lat="45.06005" lon="6.03716">
        <ele>721</ele>
        <time>2020-07-13T23:32:05Z</time>
      </trkpt>
      <trkpt lat="45.06031" lon="6.03758">
        <ele>721</ele>
        <time>2020-07-13T23:32:57Z</time>
      </trkpt>
      <trkpt lat="45.06031" lon="6.03768">
        <ele>721</ele>
        <time>2020-07-13T23:33:07Z</time>
      </trkpt>
      <trkpt lat="45.06159" lon="6.03735">
        <ele>717</ele>
        <time>2020-07-13T23:36:00Z</time>
      </trkpt>
      <trkpt lat="45.06222" lon="6.03701">
        <ele>719</ele>
        <time>2020-07-13T23:37:30Z</time>
      </trkpt>
      <trkpt lat="45.06239" lon="6.03696">
        <ele>719</ele>
        <time>2020-07-13T23:37:53Z</time>
      </trkpt>
      <trkpt lat="45.06255" lon="6.03696">
        <ele>720</ele>
        <time>2020-07-13T23:38:15Z</time>
      </trkpt>
      <trkpt lat="45.06279" lon="6.03704">
        <ele>719</ele>
        <time>2020-07-13T23:38:48Z</time>
      </trkpt>
      <trkpt lat="45.06292" lon="6.03714">
        <ele>719</ele>
        <time>2020-07-13T23:39:07Z</time>
      </trkpt>
      <trkpt lat="45.06301" lon="6.03724">
        <ele>719</ele>
        <time>2020-07-13T23:39:23Z</time>
      </trkpt>
      <trkpt lat="45.06418" lon="6.03891">
        <ele>724</ele>
        <time>2020-07-13T23:43:04Z</time>
      </trkpt>
      <trkpt lat="45.06423" lon="6.03899">
        <ele>724</ele>
        <time>2020-07-13T23:43:14Z</time>
      </trkpt>
      <trkpt lat="45.06436" lon="6.03916">
        <ele>725</ele>
        <time>2020-07-13T23:43:38Z</time>
      </trkpt>
      <trkpt lat="45.06458" lon="6.03946">
        <ele>725</ele>
        <time>2020-07-13T23:44:19Z</time>
      </trkpt>
      <trkpt lat="45.06497" lon="6.03999">
        <ele>729</ele>
        <time>2020-07-13T23:45:31Z</time>
      </trkpt>
      <trkpt lat="45.06498" lon="6.04001">
        <ele>729</ele>
        <time>2020-07-13T23:45:33Z</time>
      </trkpt>
      <trkpt lat="45.06501" lon="6.04003">
        <ele>730</ele>
        <time>2020-07-13T23:45:38Z</time>
      </trkpt>
      <trkpt lat="45.06507" lon="6.04008">
        <ele>732</ele>
        <time>2020-07-13T23:45:47Z</time>
      </trkpt>
      <trkpt lat="45.06517" lon="6.04011">
        <ele>735</ele>
        <time>2020-07-13T23:46:01Z</time>
      </trkpt>
      <trkpt lat="45.06525" lon="6.0401">
        <ele>736</ele>
        <time>2020-07-13T23:46:11Z</time>
      </trkpt>
      <trkpt lat="45.06561" lon="6.03998">
        <ele>736</ele>
        <time>2020-07-13T23:47:01Z</time>
      </trkpt>
      <trkpt lat="45.06649" lon="6.03962">
        <ele>743</ele>
        <time>2020-07-13T23:49:03Z</time>
      </trkpt>
      <trkpt lat="45.06665" lon="6.03958">
        <ele>744</ele>
        <time>2020-07-13T23:49:25Z</time>
      </trkpt>
      <trkpt lat="45.06775" lon="6.03942">
        <ele>760</ele>
        <time>2020-07-13T23:51:52Z</time>
      </trkpt>
      <trkpt lat="45.06787" lon="6.03938">
        <ele>760</ele>
        <time>2020-07-13T23:52:09Z</time>
      </trkpt>
      <trkpt lat="45.06816" lon="6.03924">
        <ele>760</ele>
        <time>2020-07-13T23:52:49Z</time>
      </trkpt>
      <trkpt lat="45.06831" lon="6.03923">
        <ele>762</ele>
        <time>2020-07-13T23:53:10Z</time>
      </trkpt>
      <trkpt lat="45.06862" lon="6.0393">
        <ele>772</ele>
        <time>2020-07-13T23:53:51Z</time>
      </trkpt>
      <trkpt lat="45.06871" lon="6.03929">
        <ele>774</ele>
        <time>2020-07-13T23:54:03Z</time>
      </trkpt>
      <trkpt lat="45.06872" lon="6.03929">
        <ele>774</ele>
        <time>2020-07-13T23:54:05Z</time>
      </trkpt>
      <trkpt lat="45.06891" lon="6.03925">
        <ele>777</ele>
        <time>2020-07-13T23:54:30Z</time>
      </trkpt>
      <trkpt lat="45.06927" lon="6.03914">
        <ele>782</ele>
        <time>2020-07-13T23:55:20Z</time>
      </trkpt>
      <trkpt lat="45.06976" lon="6.03886">
        <ele>784</ele>
        <time>2020-07-13T23:56:30Z</time>
      </trkpt>
      <trkpt lat="45.07012" lon="6.03872">
        <ele>787</ele>
        <time>2020-07-13T23:57:20Z</time>
      </trkpt>
      <trkpt lat="45.07024" lon="6.03869">
        <ele>788</ele>
        <time>2020-07-13T23:57:36Z</time>
      </trkpt>
      <trkpt lat="45.07052" lon="6.0387">
        <ele>794</ele>
        <time>2020-07-13T23:58:14Z</time>
      </trkpt>
      <trkpt lat="45.07091" lon="6.03879">
        <ele>805</ele>
        <time>2020-07-13T23:59:06Z</time>
      </trkpt>
      <trkpt lat="45.07135" lon="6.03893">
        <ele>814</ele>
        <time>2020-07-13T00:00:06Z</time>
      </trkpt>
      <trkpt lat="45.07153" lon="6.03897">
        <ele>817</ele>
        <time>2020-07-13T00:00:31Z</time>
      </trkpt>
      <trkpt lat="45.07173" lon="6.03898">
        <ele>818</ele>
        <time>2020-07-13T00:00:57Z</time>
      </trkpt>
      <trkpt lat="45.07181" lon="6.03901">
        <ele>820</ele>
        <time>2020-07-13T00:01:09Z</time>
      </trkpt>
      <trkpt lat="45.07184" lon="6.03905">
        <ele>821</ele>
        <time>2020-07-13T00:01:14Z</time>
      </trkpt>
      <trkpt lat="45.07187" lon="6.03915">
        <ele>826</ele>
        <time>2020-07-13T00:01:24Z</time>
      </trkpt>
      <trkpt lat="45.07186" lon="6.0392">
        <ele>829</ele>
        <time>2020-07-13T00:01:29Z</time>
      </trkpt>
      <trkpt lat="45.07184" lon="6.03925">
        <ele>832</ele>
        <time>2020-07-13T00:01:35Z</time>
      </trkpt>
      <trkpt lat="45.07178" lon="6.03929">
        <ele>834</ele>
        <time>2020-07-13T00:01:43Z</time>
      </trkpt>
      <trkpt lat="45.07105" lon="6.03912">
        <ele>822</ele>
        <time>2020-07-13T00:03:22Z</time>
      </trkpt>
      <trkpt lat="45.07093" lon="6.03913">
        <ele>823</ele>
        <time>2020-07-13T00:03:38Z</time>
      </trkpt>
      <trkpt lat="45.07061" lon="6.03926">
        <ele>823</ele>
        <time>2020-07-13T00:04:23Z</time>
      </trkpt>
      <trkpt lat="45.07036" lon="6.03941">
        <ele>825</ele>
        <time>2020-07-13T00:04:59Z</time>
      </trkpt>
      <trkpt lat="45.07013" lon="6.03963">
        <ele>830</ele>
        <time>2020-07-13T00:05:36Z</time>
      </trkpt>
      <trkpt lat="45.06985" lon="6.04">
        <ele>840</ele>
        <time>2020-07-13T00:06:27Z</time>
      </trkpt>
      <trkpt lat="45.06962" lon="6.04024">
        <ele>844</ele>
        <time>2020-07-13T00:07:05Z</time>
      </trkpt>
      <trkpt lat="45.0695" lon="6.0404">
        <ele>847</ele>
        <time>2020-07-13T00:07:27Z</time>
      </trkpt>
      <trkpt lat="45.0693" lon="6.04074">
        <ele>856</ele>
        <time>2020-07-13T00:08:09Z</time>
      </trkpt>
      <trkpt lat="45.06922" lon="6.04082">
        <ele>857</ele>
        <time>2020-07-13T00:08:22Z</time>
      </trkpt>
      <trkpt lat="45.06909" lon="6.04088">
        <ele>857</ele>
        <time>2020-07-13T00:08:40Z</time>
      </trkpt>
      <trkpt lat="45.06831" lon="6.04105">
        <ele>856</ele>
        <time>2020-07-13T00:10:25Z</time>
      </trkpt>
      <trkpt lat="45.06806" lon="6.04113">
        <ele>856</ele>
        <time>2020-07-13T00:11:00Z</time>
      </trkpt>
      <trkpt lat="45.06746" lon="6.04145">
        <ele>864</ele>
        <time>2020-07-13T00:12:25Z</time>
      </trkpt>
      <trkpt lat="45.06684" lon="6.04184">
        <ele>874</ele>
        <time>2020-07-13T00:13:56Z</time>
      </trkpt>
      <trkpt lat="45.06644" lon="6.04205">
        <ele>873</ele>
        <time>2020-07-13T00:14:53Z</time>
      </trkpt>
      <trkpt lat="45.0664" lon="6.04211">
        <ele>875</ele>
        <time>2020-07-13T00:15:00Z</time>
      </trkpt>
      <trkpt lat="45.0664" lon="6.0422">
        <ele>879</ele>
        <time>2020-07-13T00:15:09Z</time>
      </trkpt>
      <trkpt lat="45.06645" lon="6.04225">
        <ele>883</ele>
        <time>2020-07-13T00:15:17Z</time>
      </trkpt>
      <trkpt lat="45.06648" lon="6.04226">
        <ele>885</ele>
        <time>2020-07-13T00:15:21Z</time>
      </trkpt>
      <trkpt lat="45.0673" lon="6.04184">
        <ele>882</ele>
        <time>2020-07-13T00:17:18Z</time>
      </trkpt>
      <trkpt lat="45.06757" lon="6.04174">
        <ele>881</ele>
        <time>2020-07-13T00:17:55Z</time>
      </trkpt>
      <trkpt lat="45.06764" lon="6.04175">
        <ele>883</ele>
        <time>2020-07-13T00:18:04Z</time>
      </trkpt>
      <trkpt lat="45.06794" lon="6.04185">
        <ele>894</ele>
        <time>2020-07-13T00:18:45Z</time>
      </trkpt>
      <trkpt lat="45.06798" lon="6.04188">
        <ele>897</ele>
        <time>2020-07-13T00:18:51Z</time>
      </trkpt>
      <trkpt lat="45.068" lon="6.04192">
        <ele>900</ele>
        <time>2020-07-13T00:18:56Z</time>
      </trkpt>
      <trkpt lat="45.068" lon="6.04201">
        <ele>906</ele>
        <time>2020-07-13T00:19:04Z</time>
      </trkpt>
      <trkpt lat="45.06795" lon="6.04208">
        <ele>910</ele>
        <time>2020-07-13T00:19:14Z</time>
      </trkpt>
      <trkpt lat="45.06789" lon="6.04208">
        <ele>908</ele>
        <time>2020-07-13T00:19:22Z</time>
      </trkpt>
      <trkpt lat="45.06771" lon="6.04194">
        <ele>895</ele>
        <time>2020-07-13T00:19:49Z</time>
      </trkpt>
      <trkpt lat="45.06759" lon="6.04191">
        <ele>891</ele>
        <time>2020-07-13T00:20:06Z</time>
      </trkpt>
      <trkpt lat="45.06753" lon="6.04191">
        <ele>890</ele>
        <time>2020-07-13T00:20:14Z</time>
      </trkpt>
      <trkpt lat="45.06738" lon="6.042">
        <ele>892</ele>
        <time>2020-07-13T00:20:35Z</time>
      </trkpt>
      <trkpt lat="45.0673" lon="6.04207">
        <ele>895</ele>
        <time>2020-07-13T00:20:48Z</time>
      </trkpt>
      <trkpt lat="45.06694" lon="6.04251">
        <ele>911</ele>
        <time>2020-07-13T00:21:51Z</time>
      </trkpt>
      <trkpt lat="45.06678" lon="6.04265">
        <ele>913</ele>
        <time>2020-07-13T00:22:16Z</time>
      </trkpt>
      <trkpt lat="45.06598" lon="6.04309">
        <ele>885</ele>
        <time>2020-07-13T00:24:11Z</time>
      </trkpt>
      <trkpt lat="45.06593" lon="6.04316">
        <ele>883</ele>
        <time>2020-07-13T00:24:20Z</time>
      </trkpt>
      <trkpt lat="45.06592" lon="6.04324">
        <ele>884</ele>
        <time>2020-07-13T00:24:28Z</time>
      </trkpt>
      <trkpt lat="45.06593" lon="6.04328">
        <ele>886</ele>
        <time>2020-07-13T00:24:32Z</time>
      </trkpt>
      <trkpt lat="45.06598" lon="6.04333">
        <ele>890</ele>
        <time>2020-07-13T00:24:40Z</time>
      </trkpt>
      <trkpt lat="45.06605" lon="6.04333">
        <ele>895</ele>
        <time>2020-07-13T00:24:49Z</time>
      </trkpt>
      <trkpt lat="45.06629" lon="6.04321">
        <ele>908</ele>
        <time>2020-07-13T00:25:23Z</time>
      </trkpt>
      <trkpt lat="45.0666" lon="6.04315">
        <ele>926</ele>
        <time>2020-07-13T00:26:05Z</time>
      </trkpt>
      <trkpt lat="45.06679" lon="6.04309">
        <ele>932</ele>
        <time>2020-07-13T00:26:31Z</time>
      </trkpt>
      <trkpt lat="45.06707" lon="6.04287">
        <ele>930</ele>
        <time>2020-07-13T00:27:14Z</time>
      </trkpt>
      <trkpt lat="45.06717" lon="6.04282">
        <ele>931</ele>
        <time>2020-07-13T00:27:28Z</time>
      </trkpt>
      <trkpt lat="45.06758" lon="6.04281">
        <ele>941</ele>
        <time>2020-07-13T00:28:23Z</time>
      </trkpt>
      <trkpt lat="45.06794" lon="6.04266">
        <ele>945</ele>
        <time>2020-07-13T00:29:13Z</time>
      </trkpt>
      <trkpt lat="45.0681" lon="6.04261">
        <ele>948</ele>
        <time>2020-07-13T00:29:35Z</time>
      </trkpt>
      <trkpt lat="45.06832" lon="6.04261">
        <ele>956</ele>
        <time>2020-07-13T00:30:04Z</time>
      </trkpt>
      <trkpt lat="45.06855" lon="6.04263">
        <ele>962</ele>
        <time>2020-07-13T00:30:35Z</time>
      </trkpt>
      <trkpt lat="45.06879" lon="6.04265">
        <ele>969</ele>
        <time>2020-07-13T00:31:07Z</time>
      </trkpt>
      <trkpt lat="45.06886" lon="6.04267">
        <ele>972</ele>
        <time>2020-07-13T00:31:16Z</time>
      </trkpt>
      <trkpt lat="45.06889" lon="6.04272">
        <ele>975</ele>
        <time>2020-07-13T00:31:23Z</time>
      </trkpt>
      <trkpt lat="45.0689" lon="6.04279">
        <ele>979</ele>
        <time>2020-07-13T00:31:29Z</time>
      </trkpt>
      <trkpt lat="45.06885" lon="6.04288">
        <ele>983</ele>
        <time>2020-07-13T00:31:40Z</time>
      </trkpt>
      <trkpt lat="45.06873" lon="6.04288">
        <ele>980</ele>
        <time>2020-07-13T00:31:56Z</time>
      </trkpt>
      <trkpt lat="45.06854" lon="6.04281">
        <ele>971</ele>
        <time>2020-07-13T00:32:22Z</time>
      </trkpt>
      <trkpt lat="45.0684" lon="6.04279">
        <ele>967</ele>
        <time>2020-07-13T00:32:41Z</time>
      </trkpt>
      <trkpt lat="45.06826" lon="6.04282">
        <ele>964</ele>
        <time>2020-07-13T00:33:00Z</time>
      </trkpt>
      <trkpt lat="45.06814" lon="6.0429">
        <ele>964</ele>
        <time>2020-07-13T00:33:18Z</time>
      </trkpt>
      <trkpt lat="45.06722" lon="6.04368">
        <ele>963</ele>
        <time>2020-07-13T00:35:41Z</time>
      </trkpt>
      <trkpt lat="45.06718" lon="6.04377">
        <ele>963</ele>
        <time>2020-07-13T00:35:51Z</time>
      </trkpt>
      <trkpt lat="45.06717" lon="6.04383">
        <ele>964</ele>
        <time>2020-07-13T00:35:57Z</time>
      </trkpt>
      <trkpt lat="45.06719" lon="6.04392">
        <ele>966</ele>
        <time>2020-07-13T00:36:06Z</time>
      </trkpt>
      <trkpt lat="45.06725" lon="6.04402">
        <ele>970</ele>
        <time>2020-07-13T00:36:18Z</time>
      </trkpt>
      <trkpt lat="45.06732" lon="6.0441">
        <ele>973</ele>
        <time>2020-07-13T00:36:30Z</time>
      </trkpt>
      <trkpt lat="45.06731" lon="6.04426">
        <ele>973</ele>
        <time>2020-07-13T00:36:45Z</time>
      </trkpt>
      <trkpt lat="45.06749" lon="6.04467">
        <ele>972</ele>
        <time>2020-07-13T00:37:31Z</time>
      </trkpt>
      <trkpt lat="45.06761" lon="6.0448">
        <ele>973</ele>
        <time>2020-07-13T00:37:51Z</time>
      </trkpt>
      <trkpt lat="45.06793" lon="6.04492">
        <ele>976</ele>
        <time>2020-07-13T00:38:35Z</time>
      </trkpt>
      <trkpt lat="45.06807" lon="6.04496">
        <ele>977</ele>
        <time>2020-07-13T00:38:54Z</time>
      </trkpt>
      <trkpt lat="45.06821" lon="6.04512">
        <ele>976</ele>
        <time>2020-07-13T00:39:18Z</time>
      </trkpt>
      <trkpt lat="45.06845" lon="6.04558">
        <ele>971</ele>
        <time>2020-07-13T00:40:12Z</time>
      </trkpt>
      <trkpt lat="45.06854" lon="6.04574">
        <ele>970</ele>
        <time>2020-07-13T00:40:31Z</time>
      </trkpt>
      <trkpt lat="45.0686" lon="6.0458">
        <ele>970</ele>
        <time>2020-07-13T00:40:41Z</time>
      </trkpt>
      <trkpt lat="45.06867" lon="6.04588">
        <ele>969</ele>
        <time>2020-07-13T00:40:53Z</time>
      </trkpt>
      <trkpt lat="45.06887" lon="6.04602">
        <ele>970</ele>
        <time>2020-07-13T00:41:23Z</time>
      </trkpt>
      <trkpt lat="45.06916" lon="6.04618">
        <ele>971</ele>
        <time>2020-07-13T00:42:04Z</time>
      </trkpt>
      <trkpt lat="45.06939" lon="6.04636">
        <ele>973</ele>
        <time>2020-07-13T00:42:39Z</time>
      </trkpt>
      <trkpt lat="45.06953" lon="6.04648">
        <ele>974</ele>
        <time>2020-07-13T00:43:01Z</time>
      </trkpt>
      <trkpt lat="45.06971" lon="6.0467">
        <ele>974</ele>
        <time>2020-07-13T00:43:33Z</time>
      </trkpt>
      <trkpt lat="45.07001" lon="6.04749">
        <ele>970</ele>
        <time>2020-07-13T00:44:57Z</time>
      </trkpt>
      <trkpt lat="45.07011" lon="6.04771">
        <ele>971</ele>
        <time>2020-07-13T00:45:22Z</time>
      </trkpt>
      <trkpt lat="45.07019" lon="6.04821">
        <ele>967</ele>
        <time>2020-07-13T00:46:10Z</time>
      </trkpt>
      <trkpt lat="45.07023" lon="6.04832">
        <ele>967</ele>
        <time>2020-07-13T00:46:22Z</time>
      </trkpt>
      <trkpt lat="45.07027" lon="6.04839">
        <ele>967</ele>
        <time>2020-07-13T00:46:31Z</time>
      </trkpt>
      <trkpt lat="45.07035" lon="6.04842">
        <ele>970</ele>
        <time>2020-07-13T00:46:42Z</time>
      </trkpt>
      <trkpt lat="45.07046" lon="6.04841">
        <ele>974</ele>
        <time>2020-07-13T00:46:56Z</time>
      </trkpt>
      <trkpt lat="45.0706" lon="6.04844">
        <ele>978</ele>
        <time>2020-07-13T00:47:15Z</time>
      </trkpt>
      <trkpt lat="45.07068" lon="6.04849">
        <ele>981</ele>
        <time>2020-07-13T00:47:27Z</time>
      </trkpt>
      <trkpt lat="45.07071" lon="6.04856">
        <ele>982</ele>
        <time>2020-07-13T00:47:35Z</time>
      </trkpt>
      <trkpt lat="45.0707" lon="6.04868">
        <ele>981</ele>
        <time>2020-07-13T00:47:46Z</time>
      </trkpt>
      <trkpt lat="45.07067" lon="6.04877">
        <ele>980</ele>
        <time>2020-07-13T00:47:55Z</time>
      </trkpt>
      <trkpt lat="45.07061" lon="6.04886">
        <ele>977</ele>
        <time>2020-07-13T00:48:07Z</time>
      </trkpt>
      <trkpt lat="45.07052" lon="6.0489">
        <ele>974</ele>
        <time>2020-07-13T00:48:20Z</time>
      </trkpt>
      <trkpt lat="45.0704" lon="6.04907">
        <ele>968</ele>
        <time>2020-07-13T00:48:42Z</time>
      </trkpt>
      <trkpt lat="45.07039" lon="6.04937">
        <ele>968</ele>
        <time>2020-07-13T00:49:11Z</time>
      </trkpt>
      <trkpt lat="45.07041" lon="6.04954">
        <ele>970</ele>
        <time>2020-07-13T00:49:27Z</time>
      </trkpt>
      <trkpt lat="45.07057" lon="6.05007">
        <ele>979</ele>
        <time>2020-07-13T00:50:21Z</time>
      </trkpt>
      <trkpt lat="45.07051" lon="6.05062">
        <ele>980</ele>
        <time>2020-07-13T00:51:14Z</time>
      </trkpt>
      <trkpt lat="45.07045" lon="6.05091">
        <ele>979</ele>
        <time>2020-07-13T00:51:42Z</time>
      </trkpt>
      <trkpt lat="45.07013" lon="6.05134">
        <ele>970</ele>
        <time>2020-07-13T00:52:41Z</time>
      </trkpt>
      <trkpt lat="45.0701" lon="6.05143">
        <ele>970</ele>
        <time>2020-07-13T00:52:50Z</time>
      </trkpt>
      <trkpt lat="45.07007" lon="6.05142">
        <ele>968</ele>
        <time>2020-07-13T00:52:54Z</time>
      </trkpt>
      <trkpt lat="45.07007" lon="6.05135">
        <ele>967</ele>
        <time>2020-07-13T00:53:01Z</time>
      </trkpt>
      <trkpt lat="45.07003" lon="6.05123">
        <ele>964</ele>
        <time>2020-07-13T00:53:14Z</time>
      </trkpt>
      <trkpt lat="45.06995" lon="6.05122">
        <ele>964</ele>
        <time>2020-07-13T00:53:24Z</time>
      </trkpt>
      <trkpt lat="45.06988" lon="6.05139">
        <ele>968</ele>
        <time>2020-07-13T00:53:43Z</time>
      </trkpt>
      <trkpt lat="45.06983" lon="6.05145">
        <ele>971</ele>
        <time>2020-07-13T00:53:52Z</time>
      </trkpt>
      <trkpt lat="45.0697" lon="6.05113">
        <ele>969</ele>
        <time>2020-07-13T00:54:26Z</time>
      </trkpt>
      <trkpt lat="45.06949" lon="6.05069">
        <ele>968</ele>
        <time>2020-07-13T00:55:16Z</time>
      </trkpt>
      <trkpt lat="45.06913" lon="6.05017">
        <ele>966</ele>
        <time>2020-07-13T00:56:25Z</time>
      </trkpt>
      <trkpt lat="45.06854" lon="6.04965">
        <ele>975</ele>
        <time>2020-07-13T00:57:58Z</time>
      </trkpt>
      <trkpt lat="45.06817" lon="6.04928">
        <ele>982</ele>
        <time>2020-07-13T00:58:58Z</time>
      </trkpt>
      <trkpt lat="45.06791" lon="6.04923">
        <ele>991</ele>
        <time>2020-07-13T00:59:33Z</time>
      </trkpt>
      <trkpt lat="45.06767" lon="6.04898">
        <ele>996</ele>
        <time>2020-07-13T01:00:13Z</time>
      </trkpt>
      <trkpt lat="45.06732" lon="6.04855">
        <ele>997</ele>
        <time>2020-07-13T01:01:15Z</time>
      </trkpt>
      <trkpt lat="45.06717" lon="6.0484">
        <ele>998</ele>
        <time>2020-07-13T01:01:39Z</time>
      </trkpt>
      <trkpt lat="45.06694" lon="6.04838">
        <ele>1004</ele>
        <time>2020-07-13T01:02:10Z</time>
      </trkpt>
      <trkpt lat="45.06684" lon="6.04842">
        <ele>1008</ele>
        <time>2020-07-13T01:02:24Z</time>
      </trkpt>
      <trkpt lat="45.06685" lon="6.04848">
        <ele>1009</ele>
        <time>2020-07-13T01:02:30Z</time>
      </trkpt>
      <trkpt lat="45.06684" lon="6.04842">
        <ele>1008</ele>
        <time>2020-07-13T01:02:36Z</time>
      </trkpt>
      <trkpt lat="45.06678" lon="6.04829">
        <ele>1007</ele>
        <time>2020-07-13T01:02:50Z</time>
      </trkpt>
      <trkpt lat="45.0665" lon="6.04892">
        <ele>1031</ele>
        <time>2020-07-13T01:04:00Z</time>
      </trkpt>
      <trkpt lat="45.06666" lon="6.0495">
        <ele>1041</ele>
        <time>2020-07-13T01:04:59Z</time>
      </trkpt>
      <trkpt lat="45.06681" lon="6.05033">
        <ele>1059</ele>
        <time>2020-07-13T01:06:20Z</time>
      </trkpt>
      <trkpt lat="45.06708" lon="6.05089">
        <ele>1063</ele>
        <time>2020-07-13T01:07:24Z</time>
      </trkpt>
      <trkpt lat="45.06717" lon="6.05165">
        <ele>1076</ele>
        <time>2020-07-13T01:08:36Z</time>
      </trkpt>
      <trkpt lat="45.06701" lon="6.05183">
        <ele>1088</ele>
        <time>2020-07-13T01:09:04Z</time>
      </trkpt>
      <trkpt lat="45.06698" lon="6.05241">
        <ele>1100</ele>
        <time>2020-07-13T01:09:58Z</time>
      </trkpt>
      <trkpt lat="45.06692" lon="6.05306">
        <ele>1116</ele>
        <time>2020-07-13T01:11:00Z</time>
      </trkpt>
      <trkpt lat="45.06675" lon="6.05267">
        <ele>1118</ele>
        <time>2020-07-13T01:11:43Z</time>
      </trkpt>
      <trkpt lat="45.06608" lon="6.05185">
        <ele>1142</ele>
        <time>2020-07-13T01:13:42Z</time>
      </trkpt>
      <trkpt lat="45.06591" lon="6.05152">
        <ele>1141</ele>
        <time>2020-07-13T01:14:20Z</time>
      </trkpt>
      <trkpt lat="45.06565" lon="6.05132">
        <ele>1152</ele>
        <time>2020-07-13T01:15:00Z</time>
      </trkpt>
      <trkpt lat="45.06544" lon="6.05107">
        <ele>1158</ele>
        <time>2020-07-13T01:15:36Z</time>
      </trkpt>
      <trkpt lat="45.06524" lon="6.05065">
        <ele>1154</ele>
        <time>2020-07-13T01:16:24Z</time>
      </trkpt>
      <trkpt lat="45.06493" lon="6.05041">
        <ele>1161</ele>
        <time>2020-07-13T01:17:11Z</time>
      </trkpt>
      <trkpt lat="45.06458" lon="6.05031">
        <ele>1173</ele>
        <time>2020-07-13T01:17:59Z</time>
      </trkpt>
      <trkpt lat="45.06425" lon="6.05047">
        <ele>1195</ele>
        <time>2020-07-13T01:18:45Z</time>
      </trkpt>
      <trkpt lat="45.06341" lon="6.05">
        <ele>1214</ele>
        <time>2020-07-13T01:20:46Z</time>
      </trkpt>
      <trkpt lat="45.06283" lon="6.04977">
        <ele>1197</ele>
        <time>2020-07-13T01:22:06Z</time>
      </trkpt>
      <trkpt lat="45.06267" lon="6.04989">
        <ele>1201</ele>
        <time>2020-07-13T01:22:30Z</time>
      </trkpt>
      <trkpt lat="45.06264" lon="6.05008">
        <ele>1209</ele>
        <time>2020-07-13T01:22:49Z</time>
      </trkpt>
      <trkpt lat="45.06285" lon="6.05008">
        <ele>1212</ele>
        <time>2020-07-13T01:23:17Z</time>
      </trkpt>
      <trkpt lat="45.0629" lon="6.0502">
        <ele>1216</ele>
        <time>2020-07-13T01:23:30Z</time>
      </trkpt>
      <trkpt lat="45.06278" lon="6.05033">
        <ele>1218</ele>
        <time>2020-07-13T01:23:50Z</time>
      </trkpt>
      <trkpt lat="45.06272" lon="6.05048">
        <ele>1222</ele>
        <time>2020-07-13T01:24:06Z</time>
      </trkpt>
      <trkpt lat="45.06309" lon="6.05051">
        <ele>1226</ele>
        <time>2020-07-13T01:24:56Z</time>
      </trkpt>
      <trkpt lat="45.06289" lon="6.05069">
        <ele>1229</ele>
        <time>2020-07-13T01:25:27Z</time>
      </trkpt>
      <trkpt lat="45.06311" lon="6.051">
        <ele>1240</ele>
        <time>2020-07-13T01:26:09Z</time>
      </trkpt>
      <trkpt lat="45.06305" lon="6.05102">
        <ele>1240</ele>
        <time>2020-07-13T01:26:17Z</time>
      </trkpt>
      <trkpt lat="45.06305" lon="6.05118">
        <ele>1247</ele>
        <time>2020-07-13T01:26:32Z</time>
      </trkpt>
      <trkpt lat="45.06309" lon="6.05134">
        <ele>1253</ele>
        <time>2020-07-13T01:26:48Z</time>
      </trkpt>
      <trkpt lat="45.06311" lon="6.05157">
        <ele>1262</ele>
        <time>2020-07-13T01:27:10Z</time>
      </trkpt>
      <trkpt lat="45.06335" lon="6.05215">
        <ele>1292</ele>
        <time>2020-07-13T01:28:13Z</time>
      </trkpt>
      <trkpt lat="45.06363" lon="6.05261">
        <ele>1308</ele>
        <time>2020-07-13T01:29:10Z</time>
      </trkpt>
      <trkpt lat="45.064" lon="6.05284">
        <ele>1307</ele>
        <time>2020-07-13T01:30:04Z</time>
      </trkpt>
      <trkpt lat="45.0643" lon="6.05319">
        <ele>1306</ele>
        <time>2020-07-13T01:30:56Z</time>
      </trkpt>
      <trkpt lat="45.06417" lon="6.05396">
        <ele>1329</ele>
        <time>2020-07-13T01:32:11Z</time>
      </trkpt>
      <trkpt lat="45.06402" lon="6.05443">
        <ele>1350</ele>
        <time>2020-07-13T01:33:00Z</time>
      </trkpt>
      <trkpt lat="45.06401" lon="6.05482">
        <ele>1363</ele>
        <time>2020-07-13T01:33:36Z</time>
      </trkpt>
      <trkpt lat="45.06428" lon="6.05548">
        <ele>1357</ele>
        <time>2020-07-13T01:34:48Z</time>
      </trkpt>
      <trkpt lat="45.06428" lon="6.05588">
        <ele>1365</ele>
        <time>2020-07-13T01:35:26Z</time>
      </trkpt>
      <trkpt lat="45.06416" lon="6.05622">
        <ele>1381</ele>
        <time>2020-07-13T01:36:02Z</time>
      </trkpt>
      <trkpt lat="45.06412" lon="6.05645">
        <ele>1388</ele>
        <time>2020-07-13T01:36:24Z</time>
      </trkpt>
      <trkpt lat="45.06412" lon="6.05657">
        <ele>1390</ele>
        <time>2020-07-13T01:36:35Z</time>
      </trkpt>
      <trkpt lat="45.06415" lon="6.05665">
        <ele>1389</ele>
        <time>2020-07-13T01:36:44Z</time>
      </trkpt>
      <trkpt lat="45.06423" lon="6.05674">
        <ele>1385</ele>
        <time>2020-07-13T01:36:58Z</time>
      </trkpt>
      <trkpt lat="45.06446" lon="6.05688">
        <ele>1371</ele>
        <time>2020-07-13T01:37:31Z</time>
      </trkpt>
      <trkpt lat="45.06452" lon="6.05699">
        <ele>1370</ele>
        <time>2020-07-13T01:37:44Z</time>
      </trkpt>
      <trkpt lat="45.06454" lon="6.05722">
        <ele>1374</ele>
        <time>2020-07-13T01:38:06Z</time>
      </trkpt>
      <trkpt lat="45.06453" lon="6.05763">
        <ele>1385</ele>
        <time>2020-07-13T01:38:45Z</time>
      </trkpt>
      <trkpt lat="45.06446" lon="6.05816">
        <ele>1403</ele>
        <time>2020-07-13T01:39:35Z</time>
      </trkpt>
      <trkpt lat="45.06446" lon="6.05834">
        <ele>1408</ele>
        <time>2020-07-13T01:39:52Z</time>
      </trkpt>
      <trkpt lat="45.06451" lon="6.05872">
        <ele>1409</ele>
        <time>2020-07-13T01:40:29Z</time>
      </trkpt>
      <trkpt lat="45.06456" lon="6.05894">
        <ele>1410</ele>
        <time>2020-07-13T01:40:51Z</time>
      </trkpt>
      <trkpt lat="45.06474" lon="6.05938">
        <ele>1405</ele>
        <time>2020-07-13T01:41:38Z</time>
      </trkpt>
      <trkpt lat="45.06478" lon="6.05965">
        <ele>1406</ele>
        <time>2020-07-13T01:42:04Z</time>
      </trkpt>
      <trkpt lat="45.06495" lon="6.06019">
        <ele>1402</ele>
        <time>2020-07-13T01:43:00Z</time>
      </trkpt>
      <trkpt lat="45.06492" lon="6.06024">
        <ele>1404</ele>
        <time>2020-07-13T01:43:06Z</time>
      </trkpt>
      <trkpt lat="45.06489" lon="6.06025">
        <ele>1405</ele>
        <time>2020-07-13T01:43:10Z</time>
      </trkpt>
      <trkpt lat="45.06483" lon="6.0602">
        <ele>1408</ele>
        <time>2020-07-13T01:43:20Z</time>
      </trkpt>
      <trkpt lat="45.06467" lon="6.0598">
        <ele>1413</ele>
        <time>2020-07-13T01:44:03Z</time>
      </trkpt>
      <trkpt lat="45.06458" lon="6.0598">
        <ele>1418</ele>
        <time>2020-07-13T01:44:15Z</time>
      </trkpt>
      <trkpt lat="45.06455" lon="6.05985">
        <ele>1420</ele>
        <time>2020-07-13T01:44:21Z</time>
      </trkpt>
      <trkpt lat="45.06456" lon="6.05995">
        <ele>1421</ele>
        <time>2020-07-13T01:44:31Z</time>
      </trkpt>
      <trkpt lat="45.06469" lon="6.0602">
        <ele>1416</ele>
        <time>2020-07-13T01:45:00Z</time>
      </trkpt>
      <trkpt lat="45.06476" lon="6.06037">
        <ele>1413</ele>
        <time>2020-07-13T01:45:19Z</time>
      </trkpt>
      <trkpt lat="45.06478" lon="6.06058">
        <ele>1414</ele>
        <time>2020-07-13T01:45:39Z</time>
      </trkpt>
      <trkpt lat="45.06462" lon="6.0611">
        <ele>1428</ele>
        <time>2020-07-13T01:46:32Z</time>
      </trkpt>
      <trkpt lat="45.06465" lon="6.06125">
        <ele>1429</ele>
        <time>2020-07-13T01:46:47Z</time>
      </trkpt>
      <trkpt lat="45.06478" lon="6.06127">
        <ele>1424</ele>
        <time>2020-07-13T01:47:04Z</time>
      </trkpt>
      <trkpt lat="45.06485" lon="6.06125">
        <ele>1421</ele>
        <time>2020-07-13T01:47:14Z</time>
      </trkpt>
      <trkpt lat="45.06488" lon="6.06123">
        <ele>1419</ele>
        <time>2020-07-13T01:47:18Z</time>
      </trkpt>
      <trkpt lat="45.065" lon="6.06124">
        <ele>1414</ele>
        <time>2020-07-13T01:47:34Z</time>
      </trkpt>
      <trkpt lat="45.06552" lon="6.06138">
        <ele>1414</ele>
        <time>2020-07-13T01:48:45Z</time>
      </trkpt>
      <trkpt lat="45.06569" lon="6.06139">
        <ele>1414</ele>
        <time>2020-07-13T01:49:08Z</time>
      </trkpt>
      <trkpt lat="45.06616" lon="6.06133">
        <ele>1415</ele>
        <time>2020-07-13T01:50:11Z</time>
      </trkpt>
      <trkpt lat="45.06628" lon="6.06129">
        <ele>1416</ele>
        <time>2020-07-13T01:50:27Z</time>
      </trkpt>
      <trkpt lat="45.06636" lon="6.06123">
        <ele>1416</ele>
        <time>2020-07-13T01:50:39Z</time>
      </trkpt>
      <trkpt lat="45.06654" lon="6.06098">
        <ele>1413</ele>
        <time>2020-07-13T01:51:13Z</time>
      </trkpt>
      <trkpt lat="45.0671" lon="6.06051">
        <ele>1417</ele>
        <time>2020-07-13T01:52:40Z</time>
      </trkpt>
      <trkpt lat="45.06767" lon="6.06016">
        <ele>1425</ele>
        <time>2020-07-13T01:54:02Z</time>
      </trkpt>
      <trkpt lat="45.0679" lon="6.0601">
        <ele>1428</ele>
        <time>2020-07-13T01:54:34Z</time>
      </trkpt>
      <trkpt lat="45.068" lon="6.0602">
        <ele>1429</ele>
        <time>2020-07-13T01:54:50Z</time>
      </trkpt>
      <trkpt lat="45.0682" lon="6.06058">
        <ele>1430</ele>
        <time>2020-07-13T01:55:35Z</time>
      </trkpt>
      <trkpt lat="45.06823" lon="6.06073">
        <ele>1429</ele>
        <time>2020-07-13T01:55:49Z</time>
      </trkpt>
      <trkpt lat="45.06819" lon="6.06083">
        <ele>1429</ele>
        <time>2020-07-13T01:56:00Z</time>
      </trkpt>
      <trkpt lat="45.06807" lon="6.061">
        <ele>1430</ele>
        <time>2020-07-13T01:56:23Z</time>
      </trkpt>
      <trkpt lat="45.06775" lon="6.06161">
        <ele>1435</ele>
        <time>2020-07-13T01:57:34Z</time>
      </trkpt>
      <trkpt lat="45.06768" lon="6.06199">
        <ele>1439</ele>
        <time>2020-07-13T01:58:12Z</time>
      </trkpt>
      <trkpt lat="45.06768" lon="6.06215">
        <ele>1441</ele>
        <time>2020-07-13T01:58:27Z</time>
      </trkpt>
      <trkpt lat="45.06779" lon="6.06249">
        <ele>1442</ele>
        <time>2020-07-13T01:59:02Z</time>
      </trkpt>
      <trkpt lat="45.06772" lon="6.06354">
        <ele>1462</ele>
        <time>2020-07-13T02:00:41Z</time>
      </trkpt>
      <trkpt lat="45.06772" lon="6.06381">
        <ele>1467</ele>
        <time>2020-07-13T02:01:07Z</time>
      </trkpt>
      <trkpt lat="45.06774" lon="6.06386">
        <ele>1468</ele>
        <time>2020-07-13T02:01:12Z</time>
      </trkpt>
      <trkpt lat="45.06781" lon="6.06388">
        <ele>1468</ele>
        <time>2020-07-13T02:01:22Z</time>
      </trkpt>
      <trkpt lat="45.06801" lon="6.06389">
        <ele>1467</ele>
        <time>2020-07-13T02:01:48Z</time>
      </trkpt>
      <trkpt lat="45.0684" lon="6.06384">
        <ele>1464</ele>
        <time>2020-07-13T02:02:41Z</time>
      </trkpt>
      <trkpt lat="45.06857" lon="6.06368">
        <ele>1462</ele>
        <time>2020-07-13T02:03:08Z</time>
      </trkpt>
      <trkpt lat="45.06886" lon="6.06362">
        <ele>1461</ele>
        <time>2020-07-13T02:03:47Z</time>
      </trkpt>
      <trkpt lat="45.06902" lon="6.06361">
        <ele>1460</ele>
        <time>2020-07-13T02:04:08Z</time>
      </trkpt>
      <trkpt lat="45.06925" lon="6.06376">
        <ele>1462</ele>
        <time>2020-07-13T02:04:42Z</time>
      </trkpt>
      <trkpt lat="45.0695" lon="6.06401">
        <ele>1465</ele>
        <time>2020-07-13T02:05:23Z</time>
      </trkpt>
      <trkpt lat="45.06964" lon="6.0641">
        <ele>1467</ele>
        <time>2020-07-13T02:05:43Z</time>
      </trkpt>
      <trkpt lat="45.07038" lon="6.06423">
        <ele>1472</ele>
        <time>2020-07-13T02:07:23Z</time>
      </trkpt>
      <trkpt lat="45.07069" lon="6.06434">
        <ele>1477</ele>
        <time>2020-07-13T02:08:06Z</time>
      </trkpt>
      <trkpt lat="45.07134" lon="6.0644">
        <ele>1482</ele>
        <time>2020-07-13T02:09:33Z</time>
      </trkpt>
      <trkpt lat="45.07145" lon="6.06439">
        <ele>1482</ele>
        <time>2020-07-13T02:09:47Z</time>
      </trkpt>
      <trkpt lat="45.07161" lon="6.06433">
        <ele>1481</ele>
        <time>2020-07-13T02:10:09Z</time>
      </trkpt>
      <trkpt lat="45.07181" lon="6.06428">
        <ele>1480</ele>
        <time>2020-07-13T02:10:36Z</time>
      </trkpt>
      <trkpt lat="45.07219" lon="6.06429">
        <ele>1482</ele>
        <time>2020-07-13T02:11:27Z</time>
      </trkpt>
      <trkpt lat="45.0724" lon="6.06424">
        <ele>1481</ele>
        <time>2020-07-13T02:11:56Z</time>
      </trkpt>
      <trkpt lat="45.0726" lon="6.0643">
        <ele>1485</ele>
        <time>2020-07-13T02:12:23Z</time>
      </trkpt>
      <trkpt lat="45.0728" lon="6.06441">
        <ele>1491</ele>
        <time>2020-07-13T02:12:51Z</time>
      </trkpt>
      <trkpt lat="45.07288" lon="6.06442">
        <ele>1492</ele>
        <time>2020-07-13T02:13:02Z</time>
      </trkpt>
      <trkpt lat="45.07296" lon="6.06441">
        <ele>1493</ele>
        <time>2020-07-13T02:13:13Z</time>
      </trkpt>
      <trkpt lat="45.07318" lon="6.06431">
        <ele>1491</ele>
        <time>2020-07-13T02:13:44Z</time>
      </trkpt>
      <trkpt lat="45.07365" lon="6.06402">
        <ele>1488</ele>
        <time>2020-07-13T02:14:52Z</time>
      </trkpt>
      <trkpt lat="45.07375" lon="6.064">
        <ele>1488</ele>
        <time>2020-07-13T02:15:06Z</time>
      </trkpt>
      <trkpt lat="45.07418" lon="6.06426">
        <ele>1500</ele>
        <time>2020-07-13T02:16:08Z</time>
      </trkpt>
      <trkpt lat="45.07429" lon="6.0643">
        <ele>1504</ele>
        <time>2020-07-13T02:16:23Z</time>
      </trkpt>
      <trkpt lat="45.07433" lon="6.06428">
        <ele>1504</ele>
        <time>2020-07-13T02:16:29Z</time>
      </trkpt>
      <trkpt lat="45.07452" lon="6.06409">
        <ele>1503</ele>
        <time>2020-07-13T02:17:00Z</time>
      </trkpt>
      <trkpt lat="45.07461" lon="6.06393">
        <ele>1501</ele>
        <time>2020-07-13T02:17:19Z</time>
      </trkpt>
      <trkpt lat="45.07471" lon="6.06367">
        <ele>1498</ele>
        <time>2020-07-13T02:17:47Z</time>
      </trkpt>
      <trkpt lat="45.07477" lon="6.0636">
        <ele>1498</ele>
        <time>2020-07-13T02:17:57Z</time>
      </trkpt>
      <trkpt lat="45.07504" lon="6.06345">
        <ele>1501</ele>
        <time>2020-07-13T02:18:36Z</time>
      </trkpt>
      <trkpt lat="45.07518" lon="6.06341">
        <ele>1502</ele>
        <time>2020-07-13T02:18:55Z</time>
      </trkpt>
      <trkpt lat="45.07523" lon="6.06328">
        <ele>1500</ele>
        <time>2020-07-13T02:19:09Z</time>
      </trkpt>
      <trkpt lat="45.07533" lon="6.06316">
        <ele>1500</ele>
        <time>2020-07-13T02:19:27Z</time>
      </trkpt>
      <trkpt lat="45.07563" lon="6.06295">
        <ele>1501</ele>
        <time>2020-07-13T02:20:11Z</time>
      </trkpt>
      <trkpt lat="45.07579" lon="6.06284">
        <ele>1502</ele>
        <time>2020-07-13T02:20:35Z</time>
      </trkpt>
      <trkpt lat="45.07605" lon="6.06284">
        <ele>1504</ele>
        <time>2020-07-13T02:21:10Z</time>
      </trkpt>
      <trkpt lat="45.07646" lon="6.0629">
        <ele>1508</ele>
        <time>2020-07-13T02:22:05Z</time>
      </trkpt>
      <trkpt lat="45.07732" lon="6.0632">
        <ele>1513</ele>
        <time>2020-07-13T02:24:03Z</time>
      </trkpt>
      <trkpt lat="45.07781" lon="6.06351">
        <ele>1518</ele>
        <time>2020-07-13T02:25:15Z</time>
      </trkpt>
      <trkpt lat="45.07833" lon="6.06397">
        <ele>1528</ele>
        <time>2020-07-13T02:26:36Z</time>
      </trkpt>
      <trkpt lat="45.07862" lon="6.06415">
        <ele>1523</ele>
        <time>2020-07-13T02:27:19Z</time>
      </trkpt>
      <trkpt lat="45.07897" lon="6.064">
        <ele>1508</ele>
        <time>2020-07-13T02:28:07Z</time>
      </trkpt>
      <trkpt lat="45.07916" lon="6.06414">
        <ele>1505</ele>
        <time>2020-07-13T02:28:36Z</time>
      </trkpt>
      <trkpt lat="45.0792" lon="6.0647">
        <ele>1513</ele>
        <time>2020-07-13T02:29:29Z</time>
      </trkpt>
      <trkpt lat="45.07931" lon="6.06516">
        <ele>1513</ele>
        <time>2020-07-13T02:30:15Z</time>
      </trkpt>
      <trkpt lat="45.0795" lon="6.06552">
        <ele>1502</ele>
        <time>2020-07-13T02:30:57Z</time>
      </trkpt>
      <trkpt lat="45.0796" lon="6.06605">
        <ele>1505</ele>
        <time>2020-07-13T02:31:49Z</time>
      </trkpt>
      <trkpt lat="45.07994" lon="6.06668">
        <ele>1479</ele>
        <time>2020-07-13T02:33:04Z</time>
      </trkpt>
      <trkpt lat="45.08014" lon="6.06676">
        <ele>1463</ele>
        <time>2020-07-13T02:33:31Z</time>
      </trkpt>
      <trkpt lat="45.08019" lon="6.06738">
        <ele>1467</ele>
        <time>2020-07-13T02:34:30Z</time>
      </trkpt>
      <trkpt lat="45.0804" lon="6.06786">
        <ele>1463</ele>
        <time>2020-07-13T02:35:23Z</time>
      </trkpt>
      <trkpt lat="45.08045" lon="6.06796">
        <ele>1462</ele>
        <time>2020-07-13T02:35:35Z</time>
      </trkpt>
      <trkpt lat="45.08082" lon="6.06863">
        <ele>1438</ele>
        <time>2020-07-13T02:36:55Z</time>
      </trkpt>
      <trkpt lat="45.08099" lon="6.06908">
        <ele>1443</ele>
        <time>2020-07-13T02:37:43Z</time>
      </trkpt>
      <trkpt lat="45.08113" lon="6.06908">
        <ele>1445</ele>
        <time>2020-07-13T02:38:02Z</time>
      </trkpt>
      <trkpt lat="45.08137" lon="6.06894">
        <ele>1449</ele>
        <time>2020-07-13T02:38:36Z</time>
      </trkpt>
      <trkpt lat="45.08125" lon="6.06999">
        <ele>1452</ele>
        <time>2020-07-13T02:40:17Z</time>
      </trkpt>
      <trkpt lat="45.08126" lon="6.07057">
        <ele>1455</ele>
        <time>2020-07-13T02:41:11Z</time>
      </trkpt>
      <trkpt lat="45.08133" lon="6.07069">
        <ele>1456</ele>
        <time>2020-07-13T02:41:26Z</time>
      </trkpt>
      <trkpt lat="45.08155" lon="6.07169">
        <ele>1461</ele>
        <time>2020-07-13T02:43:05Z</time>
      </trkpt>
      <trkpt lat="45.08156" lon="6.07198">
        <ele>1464</ele>
        <time>2020-07-13T02:43:32Z</time>
      </trkpt>
      <trkpt lat="45.08161" lon="6.07219">
        <ele>1464</ele>
        <time>2020-07-13T02:43:53Z</time>
      </trkpt>
      <trkpt lat="45.08177" lon="6.07251">
        <ele>1468</ele>
        <time>2020-07-13T02:44:30Z</time>
      </trkpt>
      <trkpt lat="45.08187" lon="6.07336">
        <ele>1479</ele>
        <time>2020-07-13T02:45:51Z</time>
      </trkpt>
      <trkpt lat="45.08191" lon="6.07356">
        <ele>1481</ele>
        <time>2020-07-13T02:46:11Z</time>
      </trkpt>
      <trkpt lat="45.08203" lon="6.07369">
        <ele>1483</ele>
        <time>2020-07-13T02:46:31Z</time>
      </trkpt>
      <trkpt lat="45.08214" lon="6.07373">
        <ele>1485</ele>
        <time>2020-07-13T02:46:46Z</time>
      </trkpt>
      <trkpt lat="45.08222" lon="6.07405">
        <ele>1487</ele>
        <time>2020-07-13T02:47:18Z</time>
      </trkpt>
      <trkpt lat="45.08222" lon="6.07419">
        <ele>1487</ele>
        <time>2020-07-13T02:47:31Z</time>
      </trkpt>
      <trkpt lat="45.08196" lon="6.07515">
        <ele>1489</ele>
        <time>2020-07-13T02:49:08Z</time>
      </trkpt>
      <trkpt lat="45.08182" lon="6.07607">
        <ele>1495</ele>
        <time>2020-07-13T02:50:37Z</time>
      </trkpt>
      <trkpt lat="45.08177" lon="6.07688">
        <ele>1499</ele>
        <time>2020-07-13T02:51:53Z</time>
      </trkpt>
      <trkpt lat="45.08187" lon="6.07868">
        <ele>1515</ele>
        <time>2020-07-13T02:54:43Z</time>
      </trkpt>
      <trkpt lat="45.08184" lon="6.07964">
        <ele>1523</ele>
        <time>2020-07-13T02:56:14Z</time>
      </trkpt>
      <trkpt lat="45.08173" lon="6.08055">
        <ele>1525</ele>
        <time>2020-07-13T02:57:41Z</time>
      </trkpt>
      <trkpt lat="45.08155" lon="6.08134">
        <ele>1532</ele>
        <time>2020-07-13T02:58:59Z</time>
      </trkpt>
      <trkpt lat="45.08156" lon="6.08279">
        <ele>1540</ele>
        <time>2020-07-13T03:01:16Z</time>
      </trkpt>
      <trkpt lat="45.0815" lon="6.08289">
        <ele>1541</ele>
        <time>2020-07-13T03:01:28Z</time>
      </trkpt>
      <trkpt lat="45.08143" lon="6.0837">
        <ele>1545</ele>
        <time>2020-07-13T03:02:45Z</time>
      </trkpt>
      <trkpt lat="45.08156" lon="6.08472">
        <ele>1553</ele>
        <time>2020-07-13T03:04:23Z</time>
      </trkpt>
      <trkpt lat="45.08146" lon="6.08528">
        <ele>1557</ele>
        <time>2020-07-13T03:05:17Z</time>
      </trkpt>
      <trkpt lat="45.0814" lon="6.08551">
        <ele>1558</ele>
        <time>2020-07-13T03:05:40Z</time>
      </trkpt>
      <trkpt lat="45.08135" lon="6.08563">
        <ele>1558</ele>
        <time>2020-07-13T03:05:53Z</time>
      </trkpt>
      <trkpt lat="45.08135" lon="6.08574">
        <ele>1559</ele>
        <time>2020-07-13T03:06:04Z</time>
      </trkpt>
      <trkpt lat="45.08131" lon="6.086">
        <ele>1561</ele>
        <time>2020-07-13T03:06:29Z</time>
      </trkpt>
      <trkpt lat="45.08129" lon="6.08624">
        <ele>1564</ele>
        <time>2020-07-13T03:06:52Z</time>
      </trkpt>
      <trkpt lat="45.08136" lon="6.0867">
        <ele>1569</ele>
        <time>2020-07-13T03:07:36Z</time>
      </trkpt>
      <trkpt lat="45.08133" lon="6.08687">
        <ele>1570</ele>
        <time>2020-07-13T03:07:52Z</time>
      </trkpt>
      <trkpt lat="45.08117" lon="6.08705">
        <ele>1570</ele>
        <time>2020-07-13T03:08:20Z</time>
      </trkpt>
      <trkpt lat="45.08085" lon="6.08778">
        <ele>1567</ele>
        <time>2020-07-13T03:09:41Z</time>
      </trkpt>
      <trkpt lat="45.08077" lon="6.08843">
        <ele>1571</ele>
        <time>2020-07-13T03:10:43Z</time>
      </trkpt>
      <trkpt lat="45.0807" lon="6.08863">
        <ele>1574</ele>
        <time>2020-07-13T03:11:04Z</time>
      </trkpt>
      <trkpt lat="45.08064" lon="6.08889">
        <ele>1577</ele>
        <time>2020-07-13T03:11:30Z</time>
      </trkpt>
      <trkpt lat="45.08061" lon="6.08915">
        <ele>1578</ele>
        <time>2020-07-13T03:11:55Z</time>
      </trkpt>
      <trkpt lat="45.08065" lon="6.08935">
        <ele>1578</ele>
        <time>2020-07-13T03:12:14Z</time>
      </trkpt>
      <trkpt lat="45.08066" lon="6.08957">
        <ele>1580</ele>
        <time>2020-07-13T03:12:35Z</time>
      </trkpt>
      <trkpt lat="45.0806" lon="6.08968">
        <ele>1582</ele>
        <time>2020-07-13T03:12:48Z</time>
      </trkpt>
      <trkpt lat="45.08058" lon="6.08996">
        <ele>1585</ele>
        <time>2020-07-13T03:13:15Z</time>
      </trkpt>
      <trkpt lat="45.08065" lon="6.09038">
        <ele>1582</ele>
        <time>2020-07-13T03:13:55Z</time>
      </trkpt>
      <trkpt lat="45.08062" lon="6.09057">
        <ele>1582</ele>
        <time>2020-07-13T03:14:14Z</time>
      </trkpt>
      <trkpt lat="45.08062" lon="6.09077">
        <ele>1581</ele>
        <time>2020-07-13T03:14:32Z</time>
      </trkpt>
      <trkpt lat="45.08065" lon="6.09088">
        <ele>1581</ele>
        <time>2020-07-13T03:14:43Z</time>
      </trkpt>
      <trkpt lat="45.08072" lon="6.09104">
        <ele>1580</ele>
        <time>2020-07-13T03:15:01Z</time>
      </trkpt>
      <trkpt lat="45.08079" lon="6.09132">
        <ele>1581</ele>
        <time>2020-07-13T03:15:29Z</time>
      </trkpt>
      <trkpt lat="45.0808" lon="6.09164">
        <ele>1582</ele>
        <time>2020-07-13T03:15:59Z</time>
      </trkpt>
      <trkpt lat="45.0808" lon="6.09202">
        <ele>1585</ele>
        <time>2020-07-13T03:16:35Z</time>
      </trkpt>
      <trkpt lat="45.08091" lon="6.09229">
        <ele>1589</ele>
        <time>2020-07-13T03:17:05Z</time>
      </trkpt>
      <trkpt lat="45.08096" lon="6.0926">
        <ele>1592</ele>
        <time>2020-07-13T03:17:35Z</time>
      </trkpt>
      <trkpt lat="45.08093" lon="6.09297">
        <ele>1593</ele>
        <time>2020-07-13T03:18:10Z</time>
      </trkpt>
      <trkpt lat="45.08094" lon="6.09325">
        <ele>1595</ele>
        <time>2020-07-13T03:18:36Z</time>
      </trkpt>
      <trkpt lat="45.08116" lon="6.09369">
        <ele>1604</ele>
        <time>2020-07-13T03:19:27Z</time>
      </trkpt>
      <trkpt lat="45.08119" lon="6.09379">
        <ele>1605</ele>
        <time>2020-07-13T03:19:37Z</time>
      </trkpt>
      <trkpt lat="45.08124" lon="6.0942">
        <ele>1607</ele>
        <time>2020-07-13T03:20:16Z</time>
      </trkpt>
      <trkpt lat="45.08141" lon="6.09499">
        <ele>1604</ele>
        <time>2020-07-13T03:21:34Z</time>
      </trkpt>
      <trkpt lat="45.08144" lon="6.09543">
        <ele>1604</ele>
        <time>2020-07-13T03:22:16Z</time>
      </trkpt>
      <trkpt lat="45.08142" lon="6.09565">
        <ele>1603</ele>
        <time>2020-07-13T03:22:37Z</time>
      </trkpt>
      <trkpt lat="45.08128" lon="6.09585">
        <ele>1602</ele>
        <time>2020-07-13T03:23:03Z</time>
      </trkpt>
      <trkpt lat="45.08129" lon="6.09601">
        <ele>1604</ele>
        <time>2020-07-13T03:23:18Z</time>
      </trkpt>
      <trkpt lat="45.08135" lon="6.09625">
        <ele>1606</ele>
        <time>2020-07-13T03:23:42Z</time>
      </trkpt>
      <trkpt lat="45.08137" lon="6.09645">
        <ele>1608</ele>
        <time>2020-07-13T03:24:01Z</time>
      </trkpt>
      <trkpt lat="45.08145" lon="6.09668">
        <ele>1609</ele>
        <time>2020-07-13T03:24:26Z</time>
      </trkpt>
      <trkpt lat="45.08153" lon="6.09724">
        <ele>1608</ele>
        <time>2020-07-13T03:25:19Z</time>
      </trkpt>
      <trkpt lat="45.08151" lon="6.09735">
        <ele>1609</ele>
        <time>2020-07-13T03:25:30Z</time>
      </trkpt>
      <trkpt lat="45.08149" lon="6.09756">
        <ele>1610</ele>
        <time>2020-07-13T03:25:50Z</time>
      </trkpt>
      <trkpt lat="45.08139" lon="6.09812">
        <ele>1614</ele>
        <time>2020-07-13T03:26:44Z</time>
      </trkpt>
      <trkpt lat="45.08137" lon="6.09847">
        <ele>1618</ele>
        <time>2020-07-13T03:27:18Z</time>
      </trkpt>
      <trkpt lat="45.08117" lon="6.09911">
        <ele>1625</ele>
        <time>2020-07-13T03:28:23Z</time>
      </trkpt>
      <trkpt lat="45.08122" lon="6.09964">
        <ele>1635</ele>
        <time>2020-07-13T03:29:14Z</time>
      </trkpt>
      <trkpt lat="45.08115" lon="6.09986">
        <ele>1636</ele>
        <time>2020-07-13T03:29:37Z</time>
      </trkpt>
      <trkpt lat="45.08112" lon="6.10008">
        <ele>1638</ele>
        <time>2020-07-13T03:29:58Z</time>
      </trkpt>
      <trkpt lat="45.08112" lon="6.10015">
        <ele>1639</ele>
        <time>2020-07-13T03:30:04Z</time>
      </trkpt>
      <trkpt lat="45.081" lon="6.10079">
        <ele>1642</ele>
        <time>2020-07-13T03:31:07Z</time>
      </trkpt>
      <trkpt lat="45.08077" lon="6.10129">
        <ele>1638</ele>
        <time>2020-07-13T03:32:03Z</time>
      </trkpt>
      <trkpt lat="45.08068" lon="6.10157">
        <ele>1642</ele>
        <time>2020-07-13T03:32:32Z</time>
      </trkpt>
      <trkpt lat="45.08066" lon="6.10181">
        <ele>1644</ele>
        <time>2020-07-13T03:32:55Z</time>
      </trkpt>
      <trkpt lat="45.08059" lon="6.10211">
        <ele>1645</ele>
        <time>2020-07-13T03:33:24Z</time>
      </trkpt>
      <trkpt lat="45.08049" lon="6.10239">
        <ele>1646</ele>
        <time>2020-07-13T03:33:54Z</time>
      </trkpt>
      <trkpt lat="45.08044" lon="6.10258">
        <ele>1647</ele>
        <time>2020-07-13T03:34:13Z</time>
      </trkpt>
      <trkpt lat="45.08041" lon="6.10265">
        <ele>1647</ele>
        <time>2020-07-13T03:34:21Z</time>
      </trkpt>
      <trkpt lat="45.0803" lon="6.10275">
        <ele>1648</ele>
        <time>2020-07-13T03:34:38Z</time>
      </trkpt>
      <trkpt lat="45.08015" lon="6.10285">
        <ele>1647</ele>
        <time>2020-07-13T03:35:00Z</time>
      </trkpt>
      <trkpt lat="45.07995" lon="6.10303">
        <ele>1647</ele>
        <time>2020-07-13T03:35:32Z</time>
      </trkpt>
      <trkpt lat="45.07984" lon="6.10326">
        <ele>1648</ele>
        <time>2020-07-13T03:35:58Z</time>
      </trkpt>
      <trkpt lat="45.07965" lon="6.10381">
        <ele>1650</ele>
        <time>2020-07-13T03:36:56Z</time>
      </trkpt>
      <trkpt lat="45.07952" lon="6.10404">
        <ele>1650</ele>
        <time>2020-07-13T03:37:24Z</time>
      </trkpt>
      <trkpt lat="45.07924" lon="6.10437">
        <ele>1649</ele>
        <time>2020-07-13T03:38:12Z</time>
      </trkpt>
      <trkpt lat="45.07909" lon="6.10456">
        <ele>1649</ele>
        <time>2020-07-13T03:38:39Z</time>
      </trkpt>
      <trkpt lat="45.07895" lon="6.10477">
        <ele>1651</ele>
        <time>2020-07-13T03:39:06Z</time>
      </trkpt>
      <trkpt lat="45.07886" lon="6.10501">
        <ele>1652</ele>
        <time>2020-07-13T03:39:32Z</time>
      </trkpt>
      <trkpt lat="45.07858" lon="6.10584">
        <ele>1659</ele>
        <time>2020-07-13T03:40:59Z</time>
      </trkpt>
      <trkpt lat="45.07841" lon="6.10616">
        <ele>1663</ele>
        <time>2020-07-13T03:41:36Z</time>
      </trkpt>
      <trkpt lat="45.07831" lon="6.1065">
        <ele>1667</ele>
        <time>2020-07-13T03:42:11Z</time>
      </trkpt>
      <trkpt lat="45.07823" lon="6.10716">
        <ele>1675</ele>
        <time>2020-07-13T03:43:14Z</time>
      </trkpt>
      <trkpt lat="45.07828" lon="6.10754">
        <ele>1679</ele>
        <time>2020-07-13T03:43:51Z</time>
      </trkpt>
      <trkpt lat="45.07839" lon="6.10775">
        <ele>1683</ele>
        <time>2020-07-13T03:44:15Z</time>
      </trkpt>
      <trkpt lat="45.07853" lon="6.10791">
        <ele>1689</ele>
        <time>2020-07-13T03:44:39Z</time>
      </trkpt>
      <trkpt lat="45.07862" lon="6.10805">
        <ele>1692</ele>
        <time>2020-07-13T03:44:57Z</time>
      </trkpt>
      <trkpt lat="45.07882" lon="6.10837">
        <ele>1699</ele>
        <time>2020-07-13T03:45:37Z</time>
      </trkpt>
      <trkpt lat="45.07898" lon="6.10875">
        <ele>1703</ele>
        <time>2020-07-13T03:46:19Z</time>
      </trkpt>
      <trkpt lat="45.07914" lon="6.10939">
        <ele>1705</ele>
        <time>2020-07-13T03:47:23Z</time>
      </trkpt>
      <trkpt lat="45.07907" lon="6.11003">
        <ele>1711</ele>
        <time>2020-07-13T03:48:24Z</time>
      </trkpt>
      <trkpt lat="45.07908" lon="6.11053">
        <ele>1709</ele>
        <time>2020-07-13T03:49:11Z</time>
      </trkpt>
      <trkpt lat="45.07901" lon="6.11121">
        <ele>1708</ele>
        <time>2020-07-13T03:50:16Z</time>
      </trkpt>
      <trkpt lat="45.07876" lon="6.11251">
        <ele>1707</ele>
        <time>2020-07-13T03:52:23Z</time>
      </trkpt>
      <trkpt lat="45.0787" lon="6.11335">
        <ele>1708</ele>
        <time>2020-07-13T03:53:42Z</time>
      </trkpt>
      <trkpt lat="45.07856" lon="6.11408">
        <ele>1714</ele>
        <time>2020-07-13T03:54:54Z</time>
      </trkpt>
      <trkpt lat="45.07849" lon="6.11455">
        <ele>1715</ele>
        <time>2020-07-13T03:55:39Z</time>
      </trkpt>
      <trkpt lat="45.07852" lon="6.11509">
        <ele>1720</ele>
        <time>2020-07-13T03:56:30Z</time>
      </trkpt>
      <trkpt lat="45.07853" lon="6.11531">
        <ele>1723</ele>
        <time>2020-07-13T03:56:51Z</time>
      </trkpt>
      <trkpt lat="45.07852" lon="6.11593">
        <ele>1729</ele>
        <time>2020-07-13T03:57:49Z</time>
      </trkpt>
      <trkpt lat="45.07838" lon="6.11664">
        <ele>1728</ele>
        <time>2020-07-13T03:58:59Z</time>
      </trkpt>
      <trkpt lat="45.0782" lon="6.11715">
        <ele>1733</ele>
        <time>2020-07-13T03:59:52Z</time>
      </trkpt>
      <trkpt lat="45.07816" lon="6.11745">
        <ele>1735</ele>
        <time>2020-07-13T04:00:21Z</time>
      </trkpt>
      <trkpt lat="45.07818" lon="6.11767">
        <ele>1736</ele>
        <time>2020-07-13T04:00:42Z</time>
      </trkpt>
      <trkpt lat="45.07814" lon="6.11771">
        <ele>1737</ele>
        <time>2020-07-13T04:00:49Z</time>
      </trkpt>
      <trkpt lat="45.07808" lon="6.11778">
        <ele>1738</ele>
        <time>2020-07-13T04:00:59Z</time>
      </trkpt>
      <trkpt lat="45.07808" lon="6.11784">
        <ele>1739</ele>
        <time>2020-07-13T04:01:05Z</time>
      </trkpt>
      <trkpt lat="45.07809" lon="6.11797">
        <ele>1739</ele>
        <time>2020-07-13T04:01:17Z</time>
      </trkpt>
      <trkpt lat="45.07803" lon="6.11883">
        <ele>1747</ele>
        <time>2020-07-13T04:02:38Z</time>
      </trkpt>
      <trkpt lat="45.07808" lon="6.11923">
        <ele>1749</ele>
        <time>2020-07-13T04:03:17Z</time>
      </trkpt>
      <trkpt lat="45.07812" lon="6.12014">
        <ele>1751</ele>
        <time>2020-07-13T04:04:43Z</time>
      </trkpt>
      <trkpt lat="45.07811" lon="6.12038">
        <ele>1755</ele>
        <time>2020-07-13T04:05:05Z</time>
      </trkpt>
      <trkpt lat="45.07833" lon="6.12088">
        <ele>1749</ele>
        <time>2020-07-13T04:06:01Z</time>
      </trkpt>
      <trkpt lat="45.07852" lon="6.12249">
        <ele>1765</ele>
        <time>2020-07-13T04:08:35Z</time>
      </trkpt>
      <trkpt lat="45.0787" lon="6.12334">
        <ele>1775</ele>
        <time>2020-07-13T04:09:58Z</time>
      </trkpt>
      <trkpt lat="45.07896" lon="6.12383">
        <ele>1767</ele>
        <time>2020-07-13T04:10:56Z</time>
      </trkpt>
      <trkpt lat="45.07908" lon="6.12416">
        <ele>1763</ele>
        <time>2020-07-13T04:11:31Z</time>
      </trkpt>
      <trkpt lat="45.07914" lon="6.12466">
        <ele>1768</ele>
        <time>2020-07-13T04:12:19Z</time>
      </trkpt>
      <trkpt lat="45.07942" lon="6.12534">
        <ele>1779</ele>
        <time>2020-07-13T04:13:33Z</time>
      </trkpt>
      <trkpt lat="45.07979" lon="6.12579">
        <ele>1777</ele>
        <time>2020-07-13T04:14:38Z</time>
      </trkpt>
      <trkpt lat="45.08028" lon="6.12682">
        <ele>1792</ele>
        <time>2020-07-13T04:16:35Z</time>
      </trkpt>
      <trkpt lat="45.08058" lon="6.12715">
        <ele>1792</ele>
        <time>2020-07-13T04:17:26Z</time>
      </trkpt>
      <trkpt lat="45.08107" lon="6.12802">
        <ele>1799</ele>
        <time>2020-07-13T04:19:11Z</time>
      </trkpt>
      <trkpt lat="45.08128" lon="6.12886">
        <ele>1811</ele>
        <time>2020-07-13T04:20:35Z</time>
      </trkpt>
      <trkpt lat="45.08131" lon="6.12934">
        <ele>1817</ele>
        <time>2020-07-13T04:21:20Z</time>
      </trkpt>
      <trkpt lat="45.08124" lon="6.12991">
        <ele>1823</ele>
        <time>2020-07-13T04:22:15Z</time>
      </trkpt>
      <trkpt lat="45.08087" lon="6.13061">
        <ele>1824</ele>
        <time>2020-07-13T04:23:37Z</time>
      </trkpt>
      <trkpt lat="45.0808" lon="6.13087">
        <ele>1824</ele>
        <time>2020-07-13T04:24:03Z</time>
      </trkpt>
      <trkpt lat="45.08082" lon="6.13103">
        <ele>1825</ele>
        <time>2020-07-13T04:24:18Z</time>
      </trkpt>
      <trkpt lat="45.08095" lon="6.13135">
        <ele>1827</ele>
        <time>2020-07-13T04:24:53Z</time>
      </trkpt>
      <trkpt lat="45.08104" lon="6.1315">
        <ele>1829</ele>
        <time>2020-07-13T04:25:12Z</time>
      </trkpt>
      <trkpt lat="45.08114" lon="6.13161">
        <ele>1830</ele>
        <time>2020-07-13T04:25:29Z</time>
      </trkpt>
      <trkpt lat="45.08139" lon="6.1318">
        <ele>1833</ele>
        <time>2020-07-13T04:26:07Z</time>
      </trkpt>
      <trkpt lat="45.08115" lon="6.132">
        <ele>1835</ele>
        <time>2020-07-13T04:26:44Z</time>
      </trkpt>
      <trkpt lat="45.08095" lon="6.13213">
        <ele>1836</ele>
        <time>2020-07-13T04:27:13Z</time>
      </trkpt>
      <trkpt lat="45.08082" lon="6.13216">
        <ele>1836</ele>
        <time>2020-07-13T04:27:31Z</time>
      </trkpt>
      <trkpt lat="45.08066" lon="6.13215">
        <ele>1838</ele>
        <time>2020-07-13T04:27:52Z</time>
      </trkpt>
      <trkpt lat="45.08053" lon="6.13206">
        <ele>1840</ele>
        <time>2020-07-13T04:28:11Z</time>
      </trkpt>
      <trkpt lat="45.08038" lon="6.13187">
        <ele>1841</ele>
        <time>2020-07-13T04:28:38Z</time>
      </trkpt>
      <trkpt lat="45.08019" lon="6.13149">
        <ele>1842</ele>
        <time>2020-07-13T04:29:22Z</time>
      </trkpt>
      <trkpt lat="45.08013" lon="6.13133">
        <ele>1843</ele>
        <time>2020-07-13T04:29:39Z</time>
      </trkpt>
      <trkpt lat="45.0801" lon="6.13117">
        <ele>1844</ele>
        <time>2020-07-13T04:29:55Z</time>
      </trkpt>
      <trkpt lat="45.08009" lon="6.13095">
        <ele>1844</ele>
        <time>2020-07-13T04:30:15Z</time>
      </trkpt>
      <trkpt lat="45.08005" lon="6.13088">
        <ele>1845</ele>
        <time>2020-07-13T04:30:24Z</time>
      </trkpt>
      <trkpt lat="45.08" lon="6.13087">
        <ele>1846</ele>
        <time>2020-07-13T04:30:31Z</time>
      </trkpt>
      <trkpt lat="45.07996" lon="6.13089">
        <ele>1847</ele>
        <time>2020-07-13T04:30:36Z</time>
      </trkpt>
      <trkpt lat="45.07994" lon="6.13093">
        <ele>1848</ele>
        <time>2020-07-13T04:30:41Z</time>
      </trkpt>
      <trkpt lat="45.07979" lon="6.13138">
        <ele>1853</ele>
        <time>2020-07-13T04:31:28Z</time>
      </trkpt>
      <trkpt lat="45.0797" lon="6.13179">
        <ele>1856</ele>
        <time>2020-07-13T04:32:08Z</time>
      </trkpt>
      <trkpt lat="45.07966" lon="6.1322">
        <ele>1860</ele>
        <time>2020-07-13T04:32:47Z</time>
      </trkpt>
      <trkpt lat="45.07967" lon="6.13244">
        <ele>1861</ele>
        <time>2020-07-13T04:33:10Z</time>
      </trkpt>
      <trkpt lat="45.07974" lon="6.13271">
        <ele>1863</ele>
        <time>2020-07-13T04:33:37Z</time>
      </trkpt>
      <trkpt lat="45.07999" lon="6.1333">
        <ele>1865</ele>
        <time>2020-07-13T04:34:42Z</time>
      </trkpt>
      <trkpt lat="45.0803" lon="6.13441">
        <ele>1876</ele>
        <time>2020-07-13T04:36:34Z</time>
      </trkpt>
      <trkpt lat="45.08065" lon="6.1356">
        <ele>1888</ele>
        <time>2020-07-13T04:38:36Z</time>
      </trkpt>
      <trkpt lat="45.08068" lon="6.13584">
        <ele>1890</ele>
        <time>2020-07-13T04:38:59Z</time>
      </trkpt>
      <trkpt lat="45.08073" lon="6.13706">
        <ele>1896</ele>
        <time>2020-07-13T04:40:54Z</time>
      </trkpt>
      <trkpt lat="45.08091" lon="6.13853">
        <ele>1911</ele>
        <time>2020-07-13T04:43:15Z</time>
      </trkpt>
      <trkpt lat="45.081" lon="6.1389">
        <ele>1914</ele>
        <time>2020-07-13T04:43:51Z</time>
      </trkpt>
      <trkpt lat="45.08146" lon="6.14041">
        <ele>1922</ele>
        <time>2020-07-13T04:46:26Z</time>
      </trkpt>
      <trkpt lat="45.08153" lon="6.14052">
        <ele>1920</ele>
        <time>2020-07-13T04:46:40Z</time>
      </trkpt>
      <trkpt lat="45.0816" lon="6.14068">
        <ele>1918</ele>
        <time>2020-07-13T04:46:58Z</time>
      </trkpt>
      <trkpt lat="45.08173" lon="6.14118">
        <ele>1923</ele>
        <time>2020-07-13T04:47:48Z</time>
      </trkpt>
      <trkpt lat="45.08184" lon="6.14174">
        <ele>1934</ele>
        <time>2020-07-13T04:48:43Z</time>
      </trkpt>
      <trkpt lat="45.08174" lon="6.14189">
        <ele>1940</ele>
        <time>2020-07-13T04:49:03Z</time>
      </trkpt>
      <trkpt lat="45.08196" lon="6.14308">
        <ele>1964</ele>
        <time>2020-07-13T04:50:58Z</time>
      </trkpt>
      <trkpt lat="45.08253" lon="6.14417">
        <ele>1970</ele>
        <time>2020-07-13T04:53:06Z</time>
      </trkpt>
      <trkpt lat="45.08299" lon="6.14537">
        <ele>1988</ele>
        <time>2020-07-13T04:55:15Z</time>
      </trkpt>
      <trkpt lat="45.0832" lon="6.14551">
        <ele>1983</ele>
        <time>2020-07-13T04:55:46Z</time>
      </trkpt>
      <trkpt lat="45.08336" lon="6.14609">
        <ele>1992</ele>
        <time>2020-07-13T04:56:45Z</time>
      </trkpt>
      <trkpt lat="45.08351" lon="6.14627">
        <ele>1993</ele>
        <time>2020-07-13T04:57:11Z</time>
      </trkpt>
      <trkpt lat="45.08368" lon="6.14636">
        <ele>1991</ele>
        <time>2020-07-13T04:57:35Z</time>
      </trkpt>
      <trkpt lat="45.08383" lon="6.14651">
        <ele>1991</ele>
        <time>2020-07-13T04:57:59Z</time>
      </trkpt>
      <trkpt lat="45.08396" lon="6.14659">
        <ele>1989</ele>
        <time>2020-07-13T04:58:18Z</time>
      </trkpt>
      <trkpt lat="45.08407" lon="6.14671">
        <ele>1988</ele>
        <time>2020-07-13T04:58:37Z</time>
      </trkpt>
      <trkpt lat="45.08441" lon="6.14701">
        <ele>1989</ele>
        <time>2020-07-13T04:59:30Z</time>
      </trkpt>
      <trkpt lat="45.08525" lon="6.148">
        <ele>1995</ele>
        <time>2020-07-13T05:01:56Z</time>
      </trkpt>
      <trkpt lat="45.08531" lon="6.14806">
        <ele>1995</ele>
        <time>2020-07-13T05:02:06Z</time>
      </trkpt>
      <trkpt lat="45.08536" lon="6.14812">
        <ele>1996</ele>
        <time>2020-07-13T05:02:15Z</time>
      </trkpt>
      <trkpt lat="45.08569" lon="6.14813">
        <ele>1991</ele>
        <time>2020-07-13T05:02:59Z</time>
      </trkpt>
      <trkpt lat="45.08596" lon="6.14805">
        <ele>1988</ele>
        <time>2020-07-13T05:03:36Z</time>
      </trkpt>
      <trkpt lat="45.08628" lon="6.14846">
        <ele>1991</ele>
        <time>2020-07-13T05:04:33Z</time>
      </trkpt>
      <trkpt lat="45.08665" lon="6.14878">
        <ele>1989</ele>
        <time>2020-07-13T05:05:31Z</time>
      </trkpt>
      <trkpt lat="45.08686" lon="6.14889">
        <ele>1989</ele>
        <time>2020-07-13T05:06:01Z</time>
      </trkpt>
      <trkpt lat="45.08729" lon="6.14901">
        <ele>1988</ele>
        <time>2020-07-13T05:06:59Z</time>
      </trkpt>
      <trkpt lat="45.08735" lon="6.14906">
        <ele>1988</ele>
        <time>2020-07-13T05:07:09Z</time>
      </trkpt>
      <trkpt lat="45.08763" lon="6.14849">
        <ele>1997</ele>
        <time>2020-07-13T05:08:14Z</time>
      </trkpt>
      <trkpt lat="45.08768" lon="6.14827">
        <ele>1999</ele>
        <time>2020-07-13T05:08:36Z</time>
      </trkpt>
      <trkpt lat="45.08768" lon="6.14826">
        <ele>1999</ele>
        <time>2020-07-14T22:55:32Z</time>
      </trkpt>
      <trkpt lat="45.08763" lon="6.14849">
        <ele>1997</ele>
        <time>2020-07-14T22:55:55Z</time>
      </trkpt>
      <trkpt lat="45.08735" lon="6.14906">
        <ele>1988</ele>
        <time>2020-07-14T22:57:00Z</time>
      </trkpt>
      <trkpt lat="45.08752" lon="6.14907">
        <ele>1988</ele>
        <time>2020-07-14T22:57:23Z</time>
      </trkpt>
      <trkpt lat="45.08765" lon="6.14907">
        <ele>1989</ele>
        <time>2020-07-14T22:57:40Z</time>
      </trkpt>
      <trkpt lat="45.08803" lon="6.14917">
        <ele>1991</ele>
        <time>2020-07-14T22:58:32Z</time>
      </trkpt>
      <trkpt lat="45.08824" lon="6.14928">
        <ele>1989</ele>
        <time>2020-07-14T22:59:02Z</time>
      </trkpt>
      <trkpt lat="45.08848" lon="6.14938">
        <ele>1986</ele>
        <time>2020-07-14T22:59:35Z</time>
      </trkpt>
      <trkpt lat="45.08866" lon="6.14941">
        <ele>1983</ele>
        <time>2020-07-14T22:59:59Z</time>
      </trkpt>
      <trkpt lat="45.08879" lon="6.1494">
        <ele>1982</ele>
        <time>2020-07-14T23:00:17Z</time>
      </trkpt>
      <trkpt lat="45.0889" lon="6.14926">
        <ele>1985</ele>
        <time>2020-07-14T23:00:36Z</time>
      </trkpt>
      <trkpt lat="45.08901" lon="6.14917">
        <ele>1985</ele>
        <time>2020-07-14T23:00:53Z</time>
      </trkpt>
      <trkpt lat="45.08922" lon="6.14917">
        <ele>1982</ele>
        <time>2020-07-14T23:01:21Z</time>
      </trkpt>
      <trkpt lat="45.08948" lon="6.14926">
        <ele>1975</ele>
        <time>2020-07-14T23:01:57Z</time>
      </trkpt>
      <trkpt lat="45.08962" lon="6.14921">
        <ele>1974</ele>
        <time>2020-07-14T23:02:16Z</time>
      </trkpt>
      <trkpt lat="45.08982" lon="6.14901">
        <ele>1976</ele>
        <time>2020-07-14T23:02:49Z</time>
      </trkpt>
      <trkpt lat="45.09002" lon="6.14888">
        <ele>1978</ele>
        <time>2020-07-14T23:03:18Z</time>
      </trkpt>
      <trkpt lat="45.09031" lon="6.14865">
        <ele>1983</ele>
        <time>2020-07-14T23:04:03Z</time>
      </trkpt>
      <trkpt lat="45.09036" lon="6.14864">
        <ele>1982</ele>
        <time>2020-07-14T23:04:09Z</time>
      </trkpt>
      <trkpt lat="45.0904" lon="6.14867">
        <ele>1981</ele>
        <time>2020-07-14T23:04:15Z</time>
      </trkpt>
      <trkpt lat="45.0904" lon="6.14874">
        <ele>1978</ele>
        <time>2020-07-14T23:04:22Z</time>
      </trkpt>
      <trkpt lat="45.09036" lon="6.14881">
        <ele>1976</ele>
        <time>2020-07-14T23:04:30Z</time>
      </trkpt>
      <trkpt lat="45.09006" lon="6.14909">
        <ele>1969</ele>
        <time>2020-07-14T23:05:18Z</time>
      </trkpt>
      <trkpt lat="45.08997" lon="6.14923">
        <ele>1967</ele>
        <time>2020-07-14T23:05:36Z</time>
      </trkpt>
      <trkpt lat="45.08993" lon="6.14937">
        <ele>1965</ele>
        <time>2020-07-14T23:05:51Z</time>
      </trkpt>
      <trkpt lat="45.08996" lon="6.1495">
        <ele>1962</ele>
        <time>2020-07-14T23:06:03Z</time>
      </trkpt>
      <trkpt lat="45.09002" lon="6.14954">
        <ele>1960</ele>
        <time>2020-07-14T23:06:12Z</time>
      </trkpt>
      <trkpt lat="45.09008" lon="6.14948">
        <ele>1959</ele>
        <time>2020-07-14T23:06:22Z</time>
      </trkpt>
      <trkpt lat="45.09019" lon="6.14928">
        <ele>1962</ele>
        <time>2020-07-14T23:06:46Z</time>
      </trkpt>
      <trkpt lat="45.09025" lon="6.14918">
        <ele>1963</ele>
        <time>2020-07-14T23:06:58Z</time>
      </trkpt>
      <trkpt lat="45.09039" lon="6.14911">
        <ele>1964</ele>
        <time>2020-07-14T23:07:18Z</time>
      </trkpt>
      <trkpt lat="45.09066" lon="6.14907">
        <ele>1962</ele>
        <time>2020-07-14T23:07:54Z</time>
      </trkpt>
      <trkpt lat="45.09086" lon="6.14895">
        <ele>1965</ele>
        <time>2020-07-14T23:08:23Z</time>
      </trkpt>
      <trkpt lat="45.09104" lon="6.149">
        <ele>1967</ele>
        <time>2020-07-14T23:08:48Z</time>
      </trkpt>
      <trkpt lat="45.09121" lon="6.14914">
        <ele>1964</ele>
        <time>2020-07-14T23:09:14Z</time>
      </trkpt>
      <trkpt lat="45.09136" lon="6.14932">
        <ele>1958</ele>
        <time>2020-07-14T23:09:40Z</time>
      </trkpt>
      <trkpt lat="45.09145" lon="6.14948">
        <ele>1951</ele>
        <time>2020-07-14T23:10:00Z</time>
      </trkpt>
      <trkpt lat="45.09161" lon="6.14958">
        <ele>1949</ele>
        <time>2020-07-14T23:10:23Z</time>
      </trkpt>
      <trkpt lat="45.09171" lon="6.14973">
        <ele>1945</ele>
        <time>2020-07-14T23:10:42Z</time>
      </trkpt>
      <trkpt lat="45.09179" lon="6.14992">
        <ele>1938</ele>
        <time>2020-07-14T23:11:03Z</time>
      </trkpt>
      <trkpt lat="45.09148" lon="6.14986">
        <ele>1932</ele>
        <time>2020-07-14T23:11:45Z</time>
      </trkpt>
      <trkpt lat="45.09122" lon="6.14998">
        <ele>1920</ele>
        <time>2020-07-14T23:12:21Z</time>
      </trkpt>
      <trkpt lat="45.09159" lon="6.15104">
        <ele>1883</ele>
        <time>2020-07-14T23:14:13Z</time>
      </trkpt>
      <trkpt lat="45.09175" lon="6.15116">
        <ele>1881</ele>
        <time>2020-07-14T23:14:37Z</time>
      </trkpt>
      <trkpt lat="45.09206" lon="6.15125">
        <ele>1882</ele>
        <time>2020-07-14T23:15:19Z</time>
      </trkpt>
      <trkpt lat="45.09204" lon="6.15129">
        <ele>1879</ele>
        <time>2020-07-14T23:15:24Z</time>
      </trkpt>
      <trkpt lat="45.09199" lon="6.15131">
        <ele>1877</ele>
        <time>2020-07-14T23:15:31Z</time>
      </trkpt>
      <trkpt lat="45.09185" lon="6.15151">
        <ele>1865</ele>
        <time>2020-07-14T23:15:57Z</time>
      </trkpt>
      <trkpt lat="45.09193" lon="6.1515">
        <ele>1867</ele>
        <time>2020-07-14T23:16:08Z</time>
      </trkpt>
      <trkpt lat="45.09185" lon="6.15161">
        <ele>1860</ele>
        <time>2020-07-14T23:16:23Z</time>
      </trkpt>
      <trkpt lat="45.09195" lon="6.15159">
        <ele>1863</ele>
        <time>2020-07-14T23:16:36Z</time>
      </trkpt>
      <trkpt lat="45.0918" lon="6.15179">
        <ele>1851</ele>
        <time>2020-07-14T23:17:04Z</time>
      </trkpt>
      <trkpt lat="45.09198" lon="6.15181">
        <ele>1852</ele>
        <time>2020-07-14T23:17:28Z</time>
      </trkpt>
      <trkpt lat="45.09219" lon="6.15189">
        <ele>1850</ele>
        <time>2020-07-14T23:17:57Z</time>
      </trkpt>
      <trkpt lat="45.09222" lon="6.15209">
        <ele>1840</ele>
        <time>2020-07-14T23:18:16Z</time>
      </trkpt>
      <trkpt lat="45.09248" lon="6.15217">
        <ele>1839</ele>
        <time>2020-07-14T23:18:52Z</time>
      </trkpt>
      <trkpt lat="45.09272" lon="6.15243">
        <ele>1827</ele>
        <time>2020-07-14T23:19:32Z</time>
      </trkpt>
      <trkpt lat="45.09283" lon="6.1525">
        <ele>1825</ele>
        <time>2020-07-14T23:19:48Z</time>
      </trkpt>
      <trkpt lat="45.09289" lon="6.15271">
        <ele>1817</ele>
        <time>2020-07-14T23:20:09Z</time>
      </trkpt>
      <trkpt lat="45.0928" lon="6.15272">
        <ele>1815</ele>
        <time>2020-07-14T23:20:22Z</time>
      </trkpt>
      <trkpt lat="45.09248" lon="6.15294">
        <ele>1801</ele>
        <time>2020-07-14T23:21:09Z</time>
      </trkpt>
      <trkpt lat="45.09233" lon="6.15295">
        <ele>1798</ele>
        <time>2020-07-14T23:21:29Z</time>
      </trkpt>
      <trkpt lat="45.09203" lon="6.15292">
        <ele>1796</ele>
        <time>2020-07-14T23:22:09Z</time>
      </trkpt>
      <trkpt lat="45.09207" lon="6.15299">
        <ele>1793</ele>
        <time>2020-07-14T23:22:18Z</time>
      </trkpt>
      <trkpt lat="45.09234" lon="6.15325">
        <ele>1784</ele>
        <time>2020-07-14T23:23:01Z</time>
      </trkpt>
      <trkpt lat="45.09218" lon="6.15331">
        <ele>1778</ele>
        <time>2020-07-14T23:23:23Z</time>
      </trkpt>
      <trkpt lat="45.09232" lon="6.15348">
        <ele>1773</ele>
        <time>2020-07-14T23:23:48Z</time>
      </trkpt>
      <trkpt lat="45.09214" lon="6.15361">
        <ele>1764</ele>
        <time>2020-07-14T23:24:15Z</time>
      </trkpt>
      <trkpt lat="45.09181" lon="6.15373">
        <ele>1753</ele>
        <time>2020-07-14T23:25:00Z</time>
      </trkpt>
      <trkpt lat="45.09155" lon="6.15374">
        <ele>1747</ele>
        <time>2020-07-14T23:25:35Z</time>
      </trkpt>
      <trkpt lat="45.09143" lon="6.15373">
        <ele>1744</ele>
        <time>2020-07-14T23:25:51Z</time>
      </trkpt>
      <trkpt lat="45.09148" lon="6.15385">
        <ele>1740</ele>
        <time>2020-07-14T23:26:04Z</time>
      </trkpt>
      <trkpt lat="45.09188" lon="6.15437">
        <ele>1727</ele>
        <time>2020-07-14T23:27:17Z</time>
      </trkpt>
      <trkpt lat="45.09242" lon="6.15487">
        <ele>1718</ele>
        <time>2020-07-14T23:28:43Z</time>
      </trkpt>
      <trkpt lat="45.09185" lon="6.15485">
        <ele>1707</ele>
        <time>2020-07-14T23:29:59Z</time>
      </trkpt>
      <trkpt lat="45.09222" lon="6.15531">
        <ele>1696</ele>
        <time>2020-07-14T23:31:05Z</time>
      </trkpt>
      <trkpt lat="45.09243" lon="6.15561">
        <ele>1689</ele>
        <time>2020-07-14T23:31:44Z</time>
      </trkpt>
      <trkpt lat="45.09235" lon="6.15597">
        <ele>1676</ele>
        <time>2020-07-14T23:32:20Z</time>
      </trkpt>
      <trkpt lat="45.09227" lon="6.15611">
        <ele>1671</ele>
        <time>2020-07-14T23:32:37Z</time>
      </trkpt>
      <trkpt lat="45.09228" lon="6.15622">
        <ele>1668</ele>
        <time>2020-07-14T23:32:47Z</time>
      </trkpt>
      <trkpt lat="45.09206" lon="6.15649">
        <ele>1657</ele>
        <time>2020-07-14T23:33:26Z</time>
      </trkpt>
      <trkpt lat="45.09187" lon="6.15692">
        <ele>1643</ele>
        <time>2020-07-14T23:34:14Z</time>
      </trkpt>
      <trkpt lat="45.09186" lon="6.15711">
        <ele>1638</ele>
        <time>2020-07-14T23:34:32Z</time>
      </trkpt>
      <trkpt lat="45.09169" lon="6.15728">
        <ele>1631</ele>
        <time>2020-07-14T23:35:00Z</time>
      </trkpt>
      <trkpt lat="45.09157" lon="6.15744">
        <ele>1625</ele>
        <time>2020-07-14T23:35:22Z</time>
      </trkpt>
      <trkpt lat="45.09163" lon="6.15758">
        <ele>1624</ele>
        <time>2020-07-14T23:35:37Z</time>
      </trkpt>
      <trkpt lat="45.09159" lon="6.15772">
        <ele>1621</ele>
        <time>2020-07-14T23:35:51Z</time>
      </trkpt>
      <trkpt lat="45.09173" lon="6.15776">
        <ele>1623</ele>
        <time>2020-07-14T23:36:10Z</time>
      </trkpt>
      <trkpt lat="45.09161" lon="6.15809">
        <ele>1616</ele>
        <time>2020-07-14T23:36:45Z</time>
      </trkpt>
      <trkpt lat="45.09162" lon="6.15834">
        <ele>1613</ele>
        <time>2020-07-14T23:37:09Z</time>
      </trkpt>
      <trkpt lat="45.09166" lon="6.15851">
        <ele>1610</ele>
        <time>2020-07-14T23:37:26Z</time>
      </trkpt>
      <trkpt lat="45.09144" lon="6.15891">
        <ele>1603</ele>
        <time>2020-07-14T23:38:14Z</time>
      </trkpt>
      <trkpt lat="45.09137" lon="6.15946">
        <ele>1593</ele>
        <time>2020-07-14T23:39:06Z</time>
      </trkpt>
      <trkpt lat="45.09123" lon="6.16">
        <ele>1580</ele>
        <time>2020-07-14T23:40:00Z</time>
      </trkpt>
      <trkpt lat="45.09096" lon="6.16073">
        <ele>1557</ele>
        <time>2020-07-14T23:41:18Z</time>
      </trkpt>
      <trkpt lat="45.09078" lon="6.16167">
        <ele>1534</ele>
        <time>2020-07-14T23:42:50Z</time>
      </trkpt>
      <trkpt lat="45.09069" lon="6.16189">
        <ele>1529</ele>
        <time>2020-07-14T23:43:14Z</time>
      </trkpt>
      <trkpt lat="45.09051" lon="6.16269">
        <ele>1512</ele>
        <time>2020-07-14T23:44:33Z</time>
      </trkpt>
      <trkpt lat="45.09047" lon="6.1631">
        <ele>1503</ele>
        <time>2020-07-14T23:45:12Z</time>
      </trkpt>
      <trkpt lat="45.09025" lon="6.16367">
        <ele>1488</ele>
        <time>2020-07-14T23:46:13Z</time>
      </trkpt>
      <trkpt lat="45.09018" lon="6.1637">
        <ele>1487</ele>
        <time>2020-07-14T23:46:23Z</time>
      </trkpt>
      <trkpt lat="45.09015" lon="6.16392">
        <ele>1482</ele>
        <time>2020-07-14T23:46:44Z</time>
      </trkpt>
      <trkpt lat="45.08998" lon="6.16409">
        <ele>1476</ele>
        <time>2020-07-14T23:47:12Z</time>
      </trkpt>
      <trkpt lat="45.08972" lon="6.16431">
        <ele>1462</ele>
        <time>2020-07-14T23:47:52Z</time>
      </trkpt>
      <trkpt lat="45.08957" lon="6.16435">
        <ele>1457</ele>
        <time>2020-07-14T23:48:13Z</time>
      </trkpt>
      <trkpt lat="45.08943" lon="6.16429">
        <ele>1456</ele>
        <time>2020-07-14T23:48:32Z</time>
      </trkpt>
      <trkpt lat="45.08909" lon="6.164">
        <ele>1455</ele>
        <time>2020-07-14T23:49:25Z</time>
      </trkpt>
      <trkpt lat="45.08888" lon="6.16374">
        <ele>1458</ele>
        <time>2020-07-14T23:50:02Z</time>
      </trkpt>
      <trkpt lat="45.08862" lon="6.16352">
        <ele>1459</ele>
        <time>2020-07-14T23:50:43Z</time>
      </trkpt>
      <trkpt lat="45.08823" lon="6.16343">
        <ele>1453</ele>
        <time>2020-07-14T23:51:35Z</time>
      </trkpt>
      <trkpt lat="45.08805" lon="6.16336">
        <ele>1452</ele>
        <time>2020-07-14T23:52:00Z</time>
      </trkpt>
      <trkpt lat="45.08744" lon="6.16289">
        <ele>1446</ele>
        <time>2020-07-14T23:53:33Z</time>
      </trkpt>
      <trkpt lat="45.08729" lon="6.16285">
        <ele>1445</ele>
        <time>2020-07-14T23:53:53Z</time>
      </trkpt>
      <trkpt lat="45.08715" lon="6.16287">
        <ele>1443</ele>
        <time>2020-07-14T23:54:12Z</time>
      </trkpt>
      <trkpt lat="45.08708" lon="6.16293">
        <ele>1441</ele>
        <time>2020-07-14T23:54:23Z</time>
      </trkpt>
      <trkpt lat="45.08679" lon="6.16342">
        <ele>1433</ele>
        <time>2020-07-14T23:55:23Z</time>
      </trkpt>
      <trkpt lat="45.08671" lon="6.16346">
        <ele>1431</ele>
        <time>2020-07-14T23:55:35Z</time>
      </trkpt>
      <trkpt lat="45.08656" lon="6.16345">
        <ele>1428</ele>
        <time>2020-07-14T23:55:55Z</time>
      </trkpt>
      <trkpt lat="45.08642" lon="6.16341">
        <ele>1425</ele>
        <time>2020-07-14T23:56:14Z</time>
      </trkpt>
      <trkpt lat="45.08611" lon="6.16311">
        <ele>1421</ele>
        <time>2020-07-14T23:57:04Z</time>
      </trkpt>
      <trkpt lat="45.08594" lon="6.16306">
        <ele>1418</ele>
        <time>2020-07-14T23:57:27Z</time>
      </trkpt>
      <trkpt lat="45.08583" lon="6.16294">
        <ele>1417</ele>
        <time>2020-07-14T23:57:45Z</time>
      </trkpt>
      <trkpt lat="45.08578" lon="6.16293">
        <ele>1417</ele>
        <time>2020-07-14T23:57:52Z</time>
      </trkpt>
      <trkpt lat="45.08566" lon="6.16298">
        <ele>1415</ele>
        <time>2020-07-14T23:58:09Z</time>
      </trkpt>
      <trkpt lat="45.08556" lon="6.16296">
        <ele>1414</ele>
        <time>2020-07-14T23:58:22Z</time>
      </trkpt>
      <trkpt lat="45.08551" lon="6.16297">
        <ele>1413</ele>
        <time>2020-07-14T23:58:29Z</time>
      </trkpt>
      <trkpt lat="45.08497" lon="6.16295">
        <ele>1408</ele>
        <time>2020-07-14T23:59:41Z</time>
      </trkpt>
      <trkpt lat="45.08453" lon="6.16291">
        <ele>1407</ele>
        <time>2020-07-14T00:00:40Z</time>
      </trkpt>
      <trkpt lat="45.08433" lon="6.16287">
        <ele>1406</ele>
        <time>2020-07-14T00:01:07Z</time>
      </trkpt>
      <trkpt lat="45.08424" lon="6.16304">
        <ele>1404</ele>
        <time>2020-07-14T00:01:27Z</time>
      </trkpt>
      <trkpt lat="45.08419" lon="6.16307">
        <ele>1403</ele>
        <time>2020-07-14T00:01:34Z</time>
      </trkpt>
      <trkpt lat="45.08393" lon="6.16299">
        <ele>1401</ele>
        <time>2020-07-14T00:02:10Z</time>
      </trkpt>
      <trkpt lat="45.08382" lon="6.16292">
        <ele>1401</ele>
        <time>2020-07-14T00:02:26Z</time>
      </trkpt>
      <trkpt lat="45.08375" lon="6.16285">
        <ele>1401</ele>
        <time>2020-07-14T00:02:37Z</time>
      </trkpt>
      <trkpt lat="45.08346" lon="6.16267">
        <ele>1399</ele>
        <time>2020-07-14T00:03:20Z</time>
      </trkpt>
      <trkpt lat="45.08314" lon="6.16229">
        <ele>1400</ele>
        <time>2020-07-14T00:04:15Z</time>
      </trkpt>
      <trkpt lat="45.08289" lon="6.16193">
        <ele>1401</ele>
        <time>2020-07-14T00:05:03Z</time>
      </trkpt>
      <trkpt lat="45.0825" lon="6.16155">
        <ele>1399</ele>
        <time>2020-07-14T00:06:06Z</time>
      </trkpt>
      <trkpt lat="45.08239" lon="6.16141">
        <ele>1399</ele>
        <time>2020-07-14T00:06:26Z</time>
      </trkpt>
      <trkpt lat="45.0824" lon="6.16134">
        <ele>1400</ele>
        <time>2020-07-14T00:06:32Z</time>
      </trkpt>
      <trkpt lat="45.08237" lon="6.16129">
        <ele>1400</ele>
        <time>2020-07-14T00:06:39Z</time>
      </trkpt>
      <trkpt lat="45.08202" lon="6.16102">
        <ele>1398</ele>
        <time>2020-07-14T00:07:32Z</time>
      </trkpt>
      <trkpt lat="45.08183" lon="6.16077">
        <ele>1398</ele>
        <time>2020-07-14T00:08:06Z</time>
      </trkpt>
      <trkpt lat="45.08165" lon="6.16046">
        <ele>1400</ele>
        <time>2020-07-14T00:08:44Z</time>
      </trkpt>
      <trkpt lat="45.08147" lon="6.15993">
        <ele>1406</ele>
        <time>2020-07-14T00:09:40Z</time>
      </trkpt>
      <trkpt lat="45.08138" lon="6.15973">
        <ele>1409</ele>
        <time>2020-07-14T00:10:02Z</time>
      </trkpt>
      <trkpt lat="45.08124" lon="6.1595">
        <ele>1412</ele>
        <time>2020-07-14T00:10:31Z</time>
      </trkpt>
      <trkpt lat="45.08082" lon="6.15926">
        <ele>1412</ele>
        <time>2020-07-14T00:11:31Z</time>
      </trkpt>
      <trkpt lat="45.07997" lon="6.15866">
        <ele>1411</ele>
        <time>2020-07-14T00:13:38Z</time>
      </trkpt>
      <trkpt lat="45.07941" lon="6.15835">
        <ele>1407</ele>
        <time>2020-07-14T00:14:58Z</time>
      </trkpt>
      <trkpt lat="45.0792" lon="6.15813">
        <ele>1410</ele>
        <time>2020-07-14T00:15:33Z</time>
      </trkpt>
      <trkpt lat="45.07882" lon="6.15797">
        <ele>1409</ele>
        <time>2020-07-14T00:16:26Z</time>
      </trkpt>
      <trkpt lat="45.07847" lon="6.15777">
        <ele>1409</ele>
        <time>2020-07-14T00:17:16Z</time>
      </trkpt>
      <trkpt lat="45.07794" lon="6.1575">
        <ele>1411</ele>
        <time>2020-07-14T00:18:31Z</time>
      </trkpt>
      <trkpt lat="45.07758" lon="6.15755">
        <ele>1404</ele>
        <time>2020-07-14T00:19:20Z</time>
      </trkpt>
      <trkpt lat="45.07719" lon="6.15753">
        <ele>1403</ele>
        <time>2020-07-14T00:20:12Z</time>
      </trkpt>
      <trkpt lat="45.07668" lon="6.15758">
        <ele>1400</ele>
        <time>2020-07-14T00:21:20Z</time>
      </trkpt>
      <trkpt lat="45.07588" lon="6.15725">
        <ele>1408</ele>
        <time>2020-07-14T00:23:11Z</time>
      </trkpt>
      <trkpt lat="45.07537" lon="6.15717">
        <ele>1408</ele>
        <time>2020-07-14T00:24:20Z</time>
      </trkpt>
      <trkpt lat="45.07492" lon="6.15754">
        <ele>1395</ele>
        <time>2020-07-14T00:25:29Z</time>
      </trkpt>
      <trkpt lat="45.07445" lon="6.15742">
        <ele>1388</ele>
        <time>2020-07-14T00:26:33Z</time>
      </trkpt>
      <trkpt lat="45.07435" lon="6.15725">
        <ele>1390</ele>
        <time>2020-07-14T00:26:54Z</time>
      </trkpt>
      <trkpt lat="45.07405" lon="6.157">
        <ele>1390</ele>
        <time>2020-07-14T00:27:40Z</time>
      </trkpt>
      <trkpt lat="45.07381" lon="6.15687">
        <ele>1388</ele>
        <time>2020-07-14T00:28:14Z</time>
      </trkpt>
      <trkpt lat="45.07332" lon="6.15673">
        <ele>1381</ele>
        <time>2020-07-14T00:29:21Z</time>
      </trkpt>
      <trkpt lat="45.07294" lon="6.15669">
        <ele>1372</ele>
        <time>2020-07-14T00:30:12Z</time>
      </trkpt>
      <trkpt lat="45.0727" lon="6.15651">
        <ele>1371</ele>
        <time>2020-07-14T00:30:48Z</time>
      </trkpt>
      <trkpt lat="45.07178" lon="6.15568">
        <ele>1368</ele>
        <time>2020-07-14T00:33:14Z</time>
      </trkpt>
      <trkpt lat="45.0716" lon="6.15546">
        <ele>1366</ele>
        <time>2020-07-14T00:33:45Z</time>
      </trkpt>
      <trkpt lat="45.07149" lon="6.15525">
        <ele>1366</ele>
        <time>2020-07-14T00:34:10Z</time>
      </trkpt>
      <trkpt lat="45.07144" lon="6.15498">
        <ele>1369</ele>
        <time>2020-07-14T00:34:36Z</time>
      </trkpt>
      <trkpt lat="45.07135" lon="6.15479">
        <ele>1369</ele>
        <time>2020-07-14T00:34:58Z</time>
      </trkpt>
      <trkpt lat="45.07132" lon="6.15465">
        <ele>1370</ele>
        <time>2020-07-14T00:35:12Z</time>
      </trkpt>
      <trkpt lat="45.07108" lon="6.15504">
        <ele>1362</ele>
        <time>2020-07-14T00:36:01Z</time>
      </trkpt>
      <trkpt lat="45.07092" lon="6.1554">
        <ele>1353</ele>
        <time>2020-07-14T00:36:41Z</time>
      </trkpt>
      <trkpt lat="45.07102" lon="6.1557">
        <ele>1350</ele>
        <time>2020-07-14T00:37:12Z</time>
      </trkpt>
      <trkpt lat="45.071" lon="6.15577">
        <ele>1349</ele>
        <time>2020-07-14T00:37:19Z</time>
      </trkpt>
      <trkpt lat="45.07078" lon="6.15557">
        <ele>1348</ele>
        <time>2020-07-14T00:37:54Z</time>
      </trkpt>
      <trkpt lat="45.07075" lon="6.1556">
        <ele>1347</ele>
        <time>2020-07-14T00:37:59Z</time>
      </trkpt>
      <trkpt lat="45.07084" lon="6.15596">
        <ele>1341</ele>
        <time>2020-07-14T00:38:35Z</time>
      </trkpt>
      <trkpt lat="45.07056" lon="6.15616">
        <ele>1331</ele>
        <time>2020-07-14T00:39:17Z</time>
      </trkpt>
      <trkpt lat="45.07073" lon="6.15652">
        <ele>1326</ele>
        <time>2020-07-14T00:39:57Z</time>
      </trkpt>
      <trkpt lat="45.0705" lon="6.15663">
        <ele>1319</ele>
        <time>2020-07-14T00:40:30Z</time>
      </trkpt>
      <trkpt lat="45.07025" lon="6.15662">
        <ele>1314</ele>
        <time>2020-07-14T00:41:03Z</time>
      </trkpt>
      <trkpt lat="45.07006" lon="6.15675">
        <ele>1307</ele>
        <time>2020-07-14T00:41:31Z</time>
      </trkpt>
      <trkpt lat="45.06978" lon="6.15678">
        <ele>1300</ele>
        <time>2020-07-14T00:42:09Z</time>
      </trkpt>
      <trkpt lat="45.06929" lon="6.15646">
        <ele>1292</ele>
        <time>2020-07-14T00:43:21Z</time>
      </trkpt>
      <trkpt lat="45.06908" lon="6.15645">
        <ele>1288</ele>
        <time>2020-07-14T00:43:49Z</time>
      </trkpt>
      <trkpt lat="45.06891" lon="6.15654">
        <ele>1287</ele>
        <time>2020-07-14T00:44:13Z</time>
      </trkpt>
      <trkpt lat="45.069" lon="6.15658">
        <ele>1286</ele>
        <time>2020-07-14T00:44:26Z</time>
      </trkpt>
      <trkpt lat="45.06908" lon="6.15668">
        <ele>1285</ele>
        <time>2020-07-14T00:44:40Z</time>
      </trkpt>
      <trkpt lat="45.0691" lon="6.15676">
        <ele>1285</ele>
        <time>2020-07-14T00:44:48Z</time>
      </trkpt>
      <trkpt lat="45.06906" lon="6.15704">
        <ele>1288</ele>
        <time>2020-07-14T00:45:15Z</time>
      </trkpt>
      <trkpt lat="45.06899" lon="6.15733">
        <ele>1293</ele>
        <time>2020-07-14T00:45:44Z</time>
      </trkpt>
      <trkpt lat="45.06897" lon="6.15752">
        <ele>1297</ele>
        <time>2020-07-14T00:46:02Z</time>
      </trkpt>
      <trkpt lat="45.06903" lon="6.15749">
        <ele>1294</ele>
        <time>2020-07-14T00:46:10Z</time>
      </trkpt>
      <trkpt lat="45.06909" lon="6.15724">
        <ele>1290</ele>
        <time>2020-07-14T00:46:35Z</time>
      </trkpt>
      <trkpt lat="45.06913" lon="6.15719">
        <ele>1288</ele>
        <time>2020-07-14T00:46:42Z</time>
      </trkpt>
      <trkpt lat="45.06926" lon="6.15724">
        <ele>1289</ele>
        <time>2020-07-14T00:47:00Z</time>
      </trkpt>
      <trkpt lat="45.06928" lon="6.15727">
        <ele>1289</ele>
        <time>2020-07-14T00:47:04Z</time>
      </trkpt>
      <trkpt lat="45.0692" lon="6.1573">
        <ele>1288</ele>
        <time>2020-07-14T00:47:15Z</time>
      </trkpt>
      <trkpt lat="45.06919" lon="6.15733">
        <ele>1288</ele>
        <time>2020-07-14T00:47:18Z</time>
      </trkpt>
      <trkpt lat="45.06935" lon="6.15736">
        <ele>1291</ele>
        <time>2020-07-14T00:47:40Z</time>
      </trkpt>
      <trkpt lat="45.06936" lon="6.15744">
        <ele>1291</ele>
        <time>2020-07-14T00:47:48Z</time>
      </trkpt>
      <trkpt lat="45.06931" lon="6.15744">
        <ele>1291</ele>
        <time>2020-07-14T00:47:54Z</time>
      </trkpt>
      <trkpt lat="45.06929" lon="6.15745">
        <ele>1290</ele>
        <time>2020-07-14T00:47:57Z</time>
      </trkpt>
      <trkpt lat="45.0693" lon="6.15747">
        <ele>1290</ele>
        <time>2020-07-14T00:47:59Z</time>
      </trkpt>
      <trkpt lat="45.06943" lon="6.15752">
        <ele>1293</ele>
        <time>2020-07-14T00:48:17Z</time>
      </trkpt>
      <trkpt lat="45.06944" lon="6.15754">
        <ele>1294</ele>
        <time>2020-07-14T00:48:20Z</time>
      </trkpt>
      <trkpt lat="45.06942" lon="6.15759">
        <ele>1295</ele>
        <time>2020-07-14T00:48:25Z</time>
      </trkpt>
      <trkpt lat="45.0694" lon="6.15762">
        <ele>1296</ele>
        <time>2020-07-14T00:48:29Z</time>
      </trkpt>
      <trkpt lat="45.06941" lon="6.15764">
        <ele>1296</ele>
        <time>2020-07-14T00:48:31Z</time>
      </trkpt>
      <trkpt lat="45.06963" lon="6.15782">
        <ele>1305</ele>
        <time>2020-07-14T00:49:05Z</time>
      </trkpt>
      <trkpt lat="45.06968" lon="6.1578">
        <ele>1304</ele>
        <time>2020-07-14T00:49:12Z</time>
      </trkpt>
      <trkpt lat="45.0697" lon="6.15783">
        <ele>1306</ele>
        <time>2020-07-14T00:49:16Z</time>
      </trkpt>
      <trkpt lat="45.06972" lon="6.1579">
        <ele>1308</ele>
        <time>2020-07-14T00:49:23Z</time>
      </trkpt>
      <trkpt lat="45.06978" lon="6.15792">
        <ele>1309</ele>
        <time>2020-07-14T00:49:31Z</time>
      </trkpt>
      <trkpt lat="45.0699" lon="6.15791">
        <ele>1310</ele>
        <time>2020-07-14T00:49:47Z</time>
      </trkpt>
      <trkpt lat="45.06998" lon="6.15797">
        <ele>1313</ele>
        <time>2020-07-14T00:49:59Z</time>
      </trkpt>
      <trkpt lat="45.07" lon="6.15809">
        <ele>1317</ele>
        <time>2020-07-14T00:50:11Z</time>
      </trkpt>
      <trkpt lat="45.07009" lon="6.15811">
        <ele>1317</ele>
        <time>2020-07-14T00:50:23Z</time>
      </trkpt>
      <trkpt lat="45.07008" lon="6.15824">
        <ele>1321</ele>
        <time>2020-07-14T00:50:36Z</time>
      </trkpt>
      <trkpt lat="45.07014" lon="6.15835">
        <ele>1324</ele>
        <time>2020-07-14T00:50:49Z</time>
      </trkpt>
      <trkpt lat="45.07027" lon="6.15842">
        <ele>1326</ele>
        <time>2020-07-14T00:51:07Z</time>
      </trkpt>
      <trkpt lat="45.07029" lon="6.15847">
        <ele>1329</ele>
        <time>2020-07-14T00:51:13Z</time>
      </trkpt>
      <trkpt lat="45.07024" lon="6.1585">
        <ele>1331</ele>
        <time>2020-07-14T00:51:20Z</time>
      </trkpt>
      <trkpt lat="45.07025" lon="6.15854">
        <ele>1333</ele>
        <time>2020-07-14T00:51:24Z</time>
      </trkpt>
      <trkpt lat="45.07051" lon="6.15881">
        <ele>1350</ele>
        <time>2020-07-14T00:52:07Z</time>
      </trkpt>
      <trkpt lat="45.07065" lon="6.15891">
        <ele>1358</ele>
        <time>2020-07-14T00:52:28Z</time>
      </trkpt>
      <trkpt lat="45.07079" lon="6.15899">
        <ele>1366</ele>
        <time>2020-07-14T00:52:48Z</time>
      </trkpt>
      <trkpt lat="45.07081" lon="6.15904">
        <ele>1370</ele>
        <time>2020-07-14T00:52:53Z</time>
      </trkpt>
      <trkpt lat="45.0707" lon="6.15912">
        <ele>1374</ele>
        <time>2020-07-14T00:53:10Z</time>
      </trkpt>
      <trkpt lat="45.07082" lon="6.15922">
        <ele>1382</ele>
        <time>2020-07-14T00:53:28Z</time>
      </trkpt>
      <trkpt lat="45.07084" lon="6.15934">
        <ele>1386</ele>
        <time>2020-07-14T00:53:40Z</time>
      </trkpt>
      <trkpt lat="45.07076" lon="6.15947">
        <ele>1389</ele>
        <time>2020-07-14T00:53:56Z</time>
      </trkpt>
      <trkpt lat="45.0706" lon="6.15949">
        <ele>1385</ele>
        <time>2020-07-14T00:54:18Z</time>
      </trkpt>
      <trkpt lat="45.07061" lon="6.15958">
        <ele>1389</ele>
        <time>2020-07-14T00:54:26Z</time>
      </trkpt>
      <trkpt lat="45.07067" lon="6.15973">
        <ele>1395</ele>
        <time>2020-07-14T00:54:43Z</time>
      </trkpt>
      <trkpt lat="45.07078" lon="6.1599">
        <ele>1405</ele>
        <time>2020-07-14T00:55:04Z</time>
      </trkpt>
      <trkpt lat="45.07083" lon="6.16003">
        <ele>1411</ele>
        <time>2020-07-14T00:55:18Z</time>
      </trkpt>
      <trkpt lat="45.07082" lon="6.16009">
        <ele>1412</ele>
        <time>2020-07-14T00:55:24Z</time>
      </trkpt>
      <trkpt lat="45.07085" lon="6.16016">
        <ele>1414</ele>
        <time>2020-07-14T00:55:32Z</time>
      </trkpt>
      <trkpt lat="45.07085" lon="6.16023">
        <ele>1415</ele>
        <time>2020-07-14T00:55:38Z</time>
      </trkpt>
      <trkpt lat="45.0708" lon="6.16022">
        <ele>1414</ele>
        <time>2020-07-14T00:55:45Z</time>
      </trkpt>
      <trkpt lat="45.07077" lon="6.16016">
        <ele>1412</ele>
        <time>2020-07-14T00:55:52Z</time>
      </trkpt>
      <trkpt lat="45.07075" lon="6.16015">
        <ele>1411</ele>
        <time>2020-07-14T00:55:55Z</time>
      </trkpt>
      <trkpt lat="45.07079" lon="6.16038">
        <ele>1418</ele>
        <time>2020-07-14T00:56:17Z</time>
      </trkpt>
      <trkpt lat="45.07078" lon="6.16063">
        <ele>1423</ele>
        <time>2020-07-14T00:56:41Z</time>
      </trkpt>
      <trkpt lat="45.07086" lon="6.16118">
        <ele>1435</ele>
        <time>2020-07-14T00:57:34Z</time>
      </trkpt>
      <trkpt lat="45.07096" lon="6.16141">
        <ele>1441</ele>
        <time>2020-07-14T00:57:59Z</time>
      </trkpt>
      <trkpt lat="45.07099" lon="6.16171">
        <ele>1445</ele>
        <time>2020-07-14T00:58:28Z</time>
      </trkpt>
      <trkpt lat="45.07109" lon="6.16193">
        <ele>1452</ele>
        <time>2020-07-14T00:58:52Z</time>
      </trkpt>
      <trkpt lat="45.07103" lon="6.16284">
        <ele>1460</ele>
        <time>2020-07-14T01:00:19Z</time>
      </trkpt>
      <trkpt lat="45.07107" lon="6.16302">
        <ele>1462</ele>
        <time>2020-07-14T01:00:36Z</time>
      </trkpt>
      <trkpt lat="45.07112" lon="6.16338">
        <ele>1467</ele>
        <time>2020-07-14T01:01:11Z</time>
      </trkpt>
      <trkpt lat="45.07112" lon="6.16365">
        <ele>1469</ele>
        <time>2020-07-14T01:01:36Z</time>
      </trkpt>
      <trkpt lat="45.07109" lon="6.16396">
        <ele>1469</ele>
        <time>2020-07-14T01:02:06Z</time>
      </trkpt>
      <trkpt lat="45.07103" lon="6.16422">
        <ele>1469</ele>
        <time>2020-07-14T01:02:32Z</time>
      </trkpt>
      <trkpt lat="45.07105" lon="6.16455">
        <ele>1471</ele>
        <time>2020-07-14T01:03:03Z</time>
      </trkpt>
      <trkpt lat="45.07133" lon="6.16498">
        <ele>1482</ele>
        <time>2020-07-14T01:03:58Z</time>
      </trkpt>
      <trkpt lat="45.07143" lon="6.16519">
        <ele>1486</ele>
        <time>2020-07-14T01:04:22Z</time>
      </trkpt>
      <trkpt lat="45.07147" lon="6.16534">
        <ele>1488</ele>
        <time>2020-07-14T01:04:37Z</time>
      </trkpt>
      <trkpt lat="45.07147" lon="6.16552">
        <ele>1489</ele>
        <time>2020-07-14T01:04:54Z</time>
      </trkpt>
      <trkpt lat="45.07137" lon="6.16586">
        <ele>1489</ele>
        <time>2020-07-14T01:05:29Z</time>
      </trkpt>
      <trkpt lat="45.07131" lon="6.16623">
        <ele>1494</ele>
        <time>2020-07-14T01:06:04Z</time>
      </trkpt>
      <trkpt lat="45.07129" lon="6.16657">
        <ele>1499</ele>
        <time>2020-07-14T01:06:37Z</time>
      </trkpt>
      <trkpt lat="45.0713" lon="6.16762">
        <ele>1519</ele>
        <time>2020-07-14T01:08:16Z</time>
      </trkpt>
      <trkpt lat="45.07112" lon="6.16817">
        <ele>1525</ele>
        <time>2020-07-14T01:09:13Z</time>
      </trkpt>
      <trkpt lat="45.07108" lon="6.16833">
        <ele>1527</ele>
        <time>2020-07-14T01:09:29Z</time>
      </trkpt>
      <trkpt lat="45.071" lon="6.16877">
        <ele>1532</ele>
        <time>2020-07-14T01:10:11Z</time>
      </trkpt>
      <trkpt lat="45.07096" lon="6.16885">
        <ele>1532</ele>
        <time>2020-07-14T01:10:21Z</time>
      </trkpt>
      <trkpt lat="45.071" lon="6.16896">
        <ele>1535</ele>
        <time>2020-07-14T01:10:32Z</time>
      </trkpt>
      <trkpt lat="45.07115" lon="6.16927">
        <ele>1542</ele>
        <time>2020-07-14T01:11:08Z</time>
      </trkpt>
      <trkpt lat="45.07123" lon="6.16948">
        <ele>1545</ele>
        <time>2020-07-14T01:11:30Z</time>
      </trkpt>
      <trkpt lat="45.07137" lon="6.16971">
        <ele>1549</ele>
        <time>2020-07-14T01:11:59Z</time>
      </trkpt>
      <trkpt lat="45.07136" lon="6.16972">
        <ele>1549</ele>
        <time>2020-07-14T01:12:01Z</time>
      </trkpt>
      <trkpt lat="45.07149" lon="6.1701">
        <ele>1552</ele>
        <time>2020-07-14T01:12:40Z</time>
      </trkpt>
      <trkpt lat="45.07151" lon="6.17009">
        <ele>1553</ele>
        <time>2020-07-14T01:12:43Z</time>
      </trkpt>
      <trkpt lat="45.07164" lon="6.17054">
        <ele>1553</ele>
        <time>2020-07-14T01:13:29Z</time>
      </trkpt>
      <trkpt lat="45.07167" lon="6.17068">
        <ele>1553</ele>
        <time>2020-07-14T01:13:43Z</time>
      </trkpt>
      <trkpt lat="45.07189" lon="6.17164">
        <ele>1554</ele>
        <time>2020-07-14T01:15:18Z</time>
      </trkpt>
      <trkpt lat="45.07191" lon="6.17183">
        <ele>1553</ele>
        <time>2020-07-14T01:15:36Z</time>
      </trkpt>
      <trkpt lat="45.07198" lon="6.17216">
        <ele>1553</ele>
        <time>2020-07-14T01:16:08Z</time>
      </trkpt>
      <trkpt lat="45.07215" lon="6.17255">
        <ele>1554</ele>
        <time>2020-07-14T01:16:52Z</time>
      </trkpt>
      <trkpt lat="45.07238" lon="6.17294">
        <ele>1556</ele>
        <time>2020-07-14T01:17:40Z</time>
      </trkpt>
      <trkpt lat="45.07248" lon="6.17328">
        <ele>1556</ele>
        <time>2020-07-14T01:18:14Z</time>
      </trkpt>
      <trkpt lat="45.07257" lon="6.17349">
        <ele>1557</ele>
        <time>2020-07-14T01:18:37Z</time>
      </trkpt>
      <trkpt lat="45.07267" lon="6.17368">
        <ele>1558</ele>
        <time>2020-07-14T01:19:00Z</time>
      </trkpt>
      <trkpt lat="45.07281" lon="6.1739">
        <ele>1561</ele>
        <time>2020-07-14T01:19:28Z</time>
      </trkpt>
      <trkpt lat="45.07293" lon="6.17415">
        <ele>1562</ele>
        <time>2020-07-14T01:19:56Z</time>
      </trkpt>
      <trkpt lat="45.07304" lon="6.17445">
        <ele>1561</ele>
        <time>2020-07-14T01:20:28Z</time>
      </trkpt>
      <trkpt lat="45.07324" lon="6.17479">
        <ele>1563</ele>
        <time>2020-07-14T01:21:10Z</time>
      </trkpt>
      <trkpt lat="45.07337" lon="6.17503">
        <ele>1563</ele>
        <time>2020-07-14T01:21:38Z</time>
      </trkpt>
      <trkpt lat="45.07351" lon="6.17525">
        <ele>1563</ele>
        <time>2020-07-14T01:22:06Z</time>
      </trkpt>
      <trkpt lat="45.07372" lon="6.17556">
        <ele>1563</ele>
        <time>2020-07-14T01:22:47Z</time>
      </trkpt>
      <trkpt lat="45.0742" lon="6.17617">
        <ele>1564</ele>
        <time>2020-07-14T01:24:13Z</time>
      </trkpt>
      <trkpt lat="45.07477" lon="6.17673">
        <ele>1564</ele>
        <time>2020-07-14T01:25:45Z</time>
      </trkpt>
      <trkpt lat="45.07498" lon="6.17701">
        <ele>1564</ele>
        <time>2020-07-14T01:26:24Z</time>
      </trkpt>
      <trkpt lat="45.0752" lon="6.17735">
        <ele>1563</ele>
        <time>2020-07-14T01:27:07Z</time>
      </trkpt>
      <trkpt lat="45.07527" lon="6.17741">
        <ele>1564</ele>
        <time>2020-07-14T01:27:18Z</time>
      </trkpt>
      <trkpt lat="45.07581" lon="6.17819">
        <ele>1558</ele>
        <time>2020-07-14T01:29:01Z</time>
      </trkpt>
      <trkpt lat="45.07596" lon="6.17834">
        <ele>1558</ele>
        <time>2020-07-14T01:29:26Z</time>
      </trkpt>
      <trkpt lat="45.07648" lon="6.17878">
        <ele>1564</ele>
        <time>2020-07-14T01:30:46Z</time>
      </trkpt>
      <trkpt lat="45.07656" lon="6.17886">
        <ele>1564</ele>
        <time>2020-07-14T01:30:59Z</time>
      </trkpt>
      <trkpt lat="45.07667" lon="6.17894">
        <ele>1563</ele>
        <time>2020-07-14T01:31:16Z</time>
      </trkpt>
      <trkpt lat="45.07692" lon="6.17912">
        <ele>1563</ele>
        <time>2020-07-14T01:31:53Z</time>
      </trkpt>
      <trkpt lat="45.07743" lon="6.17959">
        <ele>1565</ele>
        <time>2020-07-14T01:33:15Z</time>
      </trkpt>
      <trkpt lat="45.07766" lon="6.17976">
        <ele>1564</ele>
        <time>2020-07-14T01:33:49Z</time>
      </trkpt>
      <trkpt lat="45.0778" lon="6.17979">
        <ele>1564</ele>
        <time>2020-07-14T01:34:08Z</time>
      </trkpt>
      <trkpt lat="45.07813" lon="6.17978">
        <ele>1566</ele>
        <time>2020-07-14T01:34:52Z</time>
      </trkpt>
      <trkpt lat="45.07829" lon="6.1798">
        <ele>1567</ele>
        <time>2020-07-14T01:35:14Z</time>
      </trkpt>
      <trkpt lat="45.07837" lon="6.17984">
        <ele>1566</ele>
        <time>2020-07-14T01:35:25Z</time>
      </trkpt>
      <trkpt lat="45.07841" lon="6.17989">
        <ele>1566</ele>
        <time>2020-07-14T01:35:32Z</time>
      </trkpt>
      <trkpt lat="45.07843" lon="6.17992">
        <ele>1565</ele>
        <time>2020-07-14T01:35:36Z</time>
      </trkpt>
      <trkpt lat="45.07846" lon="6.18">
        <ele>1564</ele>
        <time>2020-07-14T01:35:44Z</time>
      </trkpt>
      <trkpt lat="45.07847" lon="6.18005">
        <ele>1564</ele>
        <time>2020-07-14T01:35:49Z</time>
      </trkpt>
      <trkpt lat="45.07847" lon="6.18007">
        <ele>1564</ele>
        <time>2020-07-14T01:35:51Z</time>
      </trkpt>
      <trkpt lat="45.07842" lon="6.18014">
        <ele>1564</ele>
        <time>2020-07-14T01:36:01Z</time>
      </trkpt>
      <trkpt lat="45.07842" lon="6.18015">
        <ele>1564</ele>
        <time>2020-07-14T01:36:02Z</time>
      </trkpt>
      <trkpt lat="45.07841" lon="6.18018">
        <ele>1564</ele>
        <time>2020-07-14T01:36:05Z</time>
      </trkpt>
      <trkpt lat="45.0786" lon="6.18095">
        <ele>1571</ele>
        <time>2020-07-14T01:37:22Z</time>
      </trkpt>
      <trkpt lat="45.07866" lon="6.1811">
        <ele>1573</ele>
        <time>2020-07-14T01:37:38Z</time>
      </trkpt>
      <trkpt lat="45.07883" lon="6.18135">
        <ele>1575</ele>
        <time>2020-07-14T01:38:10Z</time>
      </trkpt>
      <trkpt lat="45.07884" lon="6.1814">
        <ele>1576</ele>
        <time>2020-07-14T01:38:15Z</time>
      </trkpt>
      <trkpt lat="45.0791" lon="6.18171">
        <ele>1575</ele>
        <time>2020-07-14T01:39:01Z</time>
      </trkpt>
      <trkpt lat="45.07926" lon="6.18197">
        <ele>1580</ele>
        <time>2020-07-14T01:39:33Z</time>
      </trkpt>
      <trkpt lat="45.07931" lon="6.18216">
        <ele>1584</ele>
        <time>2020-07-14T01:39:52Z</time>
      </trkpt>
      <trkpt lat="45.07942" lon="6.18242">
        <ele>1587</ele>
        <time>2020-07-14T01:40:21Z</time>
      </trkpt>
      <trkpt lat="45.07953" lon="6.18277">
        <ele>1591</ele>
        <time>2020-07-14T01:40:57Z</time>
      </trkpt>
      <trkpt lat="45.07956" lon="6.18299">
        <ele>1594</ele>
        <time>2020-07-14T01:41:18Z</time>
      </trkpt>
      <trkpt lat="45.07954" lon="6.18308">
        <ele>1595</ele>
        <time>2020-07-14T01:41:27Z</time>
      </trkpt>
      <trkpt lat="45.07955" lon="6.18327">
        <ele>1598</ele>
        <time>2020-07-14T01:41:45Z</time>
      </trkpt>
      <trkpt lat="45.07972" lon="6.18349">
        <ele>1597</ele>
        <time>2020-07-14T01:42:16Z</time>
      </trkpt>
      <trkpt lat="45.07956" lon="6.18352">
        <ele>1604</ele>
        <time>2020-07-14T01:42:37Z</time>
      </trkpt>
      <trkpt lat="45.07953" lon="6.18361">
        <ele>1607</ele>
        <time>2020-07-14T01:42:47Z</time>
      </trkpt>
      <trkpt lat="45.0794" lon="6.18354">
        <ele>1610</ele>
        <time>2020-07-14T01:43:05Z</time>
      </trkpt>
      <trkpt lat="45.07939" lon="6.18361">
        <ele>1612</ele>
        <time>2020-07-14T01:43:12Z</time>
      </trkpt>
      <trkpt lat="45.0795" lon="6.18427">
        <ele>1627</ele>
        <time>2020-07-14T01:44:16Z</time>
      </trkpt>
      <trkpt lat="45.07949" lon="6.18444">
        <ele>1633</ele>
        <time>2020-07-14T01:44:32Z</time>
      </trkpt>
      <trkpt lat="45.07961" lon="6.18491">
        <ele>1640</ele>
        <time>2020-07-14T01:45:19Z</time>
      </trkpt>
      <trkpt lat="45.07967" lon="6.18542">
        <ele>1648</ele>
        <time>2020-07-14T01:46:08Z</time>
      </trkpt>
      <trkpt lat="45.07969" lon="6.18576">
        <ele>1653</ele>
        <time>2020-07-14T01:46:40Z</time>
      </trkpt>
      <trkpt lat="45.07968" lon="6.18638">
        <ele>1663</ele>
        <time>2020-07-14T01:47:38Z</time>
      </trkpt>
      <trkpt lat="45.07961" lon="6.18688">
        <ele>1673</ele>
        <time>2020-07-14T01:48:26Z</time>
      </trkpt>
      <trkpt lat="45.07949" lon="6.18678">
        <ele>1680</ele>
        <time>2020-07-14T01:48:45Z</time>
      </trkpt>
      <trkpt lat="45.0795" lon="6.18699">
        <ele>1681</ele>
        <time>2020-07-14T01:49:05Z</time>
      </trkpt>
      <trkpt lat="45.07943" lon="6.18754">
        <ele>1687</ele>
        <time>2020-07-14T01:49:57Z</time>
      </trkpt>
      <trkpt lat="45.07945" lon="6.18865">
        <ele>1690</ele>
        <time>2020-07-14T01:51:42Z</time>
      </trkpt>
      <trkpt lat="45.07944" lon="6.18917">
        <ele>1693</ele>
        <time>2020-07-14T01:52:31Z</time>
      </trkpt>
      <trkpt lat="45.07934" lon="6.1907">
        <ele>1715</ele>
        <time>2020-07-14T01:54:56Z</time>
      </trkpt>
      <trkpt lat="45.07924" lon="6.19144">
        <ele>1728</ele>
        <time>2020-07-14T01:56:07Z</time>
      </trkpt>
      <trkpt lat="45.07905" lon="6.19233">
        <ele>1744</ele>
        <time>2020-07-14T01:57:34Z</time>
      </trkpt>
      <trkpt lat="45.07905" lon="6.19318">
        <ele>1756</ele>
        <time>2020-07-14T01:58:55Z</time>
      </trkpt>
      <trkpt lat="45.07896" lon="6.19439">
        <ele>1774</ele>
        <time>2020-07-14T02:00:49Z</time>
      </trkpt>
      <trkpt lat="45.07887" lon="6.19518">
        <ele>1789</ele>
        <time>2020-07-14T02:02:05Z</time>
      </trkpt>
      <trkpt lat="45.07877" lon="6.19545">
        <ele>1800</ele>
        <time>2020-07-14T02:02:33Z</time>
      </trkpt>
      <trkpt lat="45.07887" lon="6.19567">
        <ele>1796</ele>
        <time>2020-07-14T02:02:58Z</time>
      </trkpt>
      <trkpt lat="45.0789" lon="6.19599">
        <ele>1800</ele>
        <time>2020-07-14T02:03:28Z</time>
      </trkpt>
      <trkpt lat="45.07878" lon="6.196">
        <ele>1808</ele>
        <time>2020-07-14T02:03:44Z</time>
      </trkpt>
      <trkpt lat="45.07887" lon="6.19654">
        <ele>1815</ele>
        <time>2020-07-14T02:04:37Z</time>
      </trkpt>
      <trkpt lat="45.0784" lon="6.196">
        <ele>1832</ele>
        <time>2020-07-14T02:05:57Z</time>
      </trkpt>
      <trkpt lat="45.07838" lon="6.19585">
        <ele>1830</ele>
        <time>2020-07-14T02:06:12Z</time>
      </trkpt>
      <trkpt lat="45.07829" lon="6.19583">
        <ele>1836</ele>
        <time>2020-07-14T02:06:24Z</time>
      </trkpt>
      <trkpt lat="45.07804" lon="6.19513">
        <ele>1848</ele>
        <time>2020-07-14T02:07:38Z</time>
      </trkpt>
      <trkpt lat="45.0779" lon="6.19532">
        <ele>1859</ele>
        <time>2020-07-14T02:08:04Z</time>
      </trkpt>
      <trkpt lat="45.07792" lon="6.19516">
        <ele>1856</ele>
        <time>2020-07-14T02:08:19Z</time>
      </trkpt>
      <trkpt lat="45.0778" lon="6.19473">
        <ele>1862</ele>
        <time>2020-07-14T02:09:03Z</time>
      </trkpt>
      <trkpt lat="45.07776" lon="6.1951">
        <ele>1867</ele>
        <time>2020-07-14T02:09:38Z</time>
      </trkpt>
      <trkpt lat="45.07772" lon="6.19494">
        <ele>1868</ele>
        <time>2020-07-14T02:09:54Z</time>
      </trkpt>
      <trkpt lat="45.07766" lon="6.19512">
        <ele>1874</ele>
        <time>2020-07-14T02:10:13Z</time>
      </trkpt>
      <trkpt lat="45.07761" lon="6.19482">
        <ele>1876</ele>
        <time>2020-07-14T02:10:42Z</time>
      </trkpt>
      <trkpt lat="45.07753" lon="6.1951">
        <ele>1883</ele>
        <time>2020-07-14T02:11:10Z</time>
      </trkpt>
      <trkpt lat="45.07744" lon="6.19465">
        <ele>1884</ele>
        <time>2020-07-14T02:11:54Z</time>
      </trkpt>
      <trkpt lat="45.07738" lon="6.19468">
        <ele>1885</ele>
        <time>2020-07-14T02:12:03Z</time>
      </trkpt>
      <trkpt lat="45.07734" lon="6.1949">
        <ele>1887</ele>
        <time>2020-07-14T02:12:24Z</time>
      </trkpt>
      <trkpt lat="45.07729" lon="6.19486">
        <ele>1888</ele>
        <time>2020-07-14T02:12:32Z</time>
      </trkpt>
      <trkpt lat="45.07691" lon="6.19514">
        <ele>1899</ele>
        <time>2020-07-14T02:13:29Z</time>
      </trkpt>
      <trkpt lat="45.07653" lon="6.19559">
        <ele>1916</ele>
        <time>2020-07-14T02:14:35Z</time>
      </trkpt>
      <trkpt lat="45.07641" lon="6.19556">
        <ele>1916</ele>
        <time>2020-07-14T02:14:51Z</time>
      </trkpt>
      <trkpt lat="45.07635" lon="6.19562">
        <ele>1918</ele>
        <time>2020-07-14T02:15:01Z</time>
      </trkpt>
      <trkpt lat="45.07636" lon="6.19576">
        <ele>1922</ele>
        <time>2020-07-14T02:15:14Z</time>
      </trkpt>
      <trkpt lat="45.07613" lon="6.19591">
        <ele>1930</ele>
        <time>2020-07-14T02:15:48Z</time>
      </trkpt>
      <trkpt lat="45.07623" lon="6.19608">
        <ele>1934</ele>
        <time>2020-07-14T02:16:09Z</time>
      </trkpt>
      <trkpt lat="45.07619" lon="6.19623">
        <ele>1939</ele>
        <time>2020-07-14T02:16:24Z</time>
      </trkpt>
      <trkpt lat="45.07628" lon="6.1963">
        <ele>1940</ele>
        <time>2020-07-14T02:16:38Z</time>
      </trkpt>
      <trkpt lat="45.07641" lon="6.19677">
        <ele>1952</ele>
        <time>2020-07-14T02:17:25Z</time>
      </trkpt>
      <trkpt lat="45.07657" lon="6.19713">
        <ele>1960</ele>
        <time>2020-07-14T02:18:06Z</time>
      </trkpt>
      <trkpt lat="45.07658" lon="6.19738">
        <ele>1968</ele>
        <time>2020-07-14T02:18:29Z</time>
      </trkpt>
      <trkpt lat="45.07624" lon="6.19727">
        <ele>1973</ele>
        <time>2020-07-14T02:19:16Z</time>
      </trkpt>
      <trkpt lat="45.0761" lon="6.19733">
        <ele>1979</ele>
        <time>2020-07-14T02:19:35Z</time>
      </trkpt>
      <trkpt lat="45.0756" lon="6.19723">
        <ele>1982</ele>
        <time>2020-07-14T02:20:43Z</time>
      </trkpt>
      <trkpt lat="45.07555" lon="6.19724">
        <ele>1982</ele>
        <time>2020-07-14T02:20:49Z</time>
      </trkpt>
      <trkpt lat="45.07562" lon="6.1973">
        <ele>1985</ele>
        <time>2020-07-14T02:21:00Z</time>
      </trkpt>
      <trkpt lat="45.07529" lon="6.19747">
        <ele>1991</ele>
        <time>2020-07-14T02:21:47Z</time>
      </trkpt>
      <trkpt lat="45.07535" lon="6.19758">
        <ele>1996</ele>
        <time>2020-07-14T02:22:00Z</time>
      </trkpt>
      <trkpt lat="45.07526" lon="6.19772">
        <ele>2001</ele>
        <time>2020-07-14T02:22:18Z</time>
      </trkpt>
      <trkpt lat="45.07536" lon="6.19781">
        <ele>2004</ele>
        <time>2020-07-14T02:22:34Z</time>
      </trkpt>
      <trkpt lat="45.07532" lon="6.19792">
        <ele>2009</ele>
        <time>2020-07-14T02:22:46Z</time>
      </trkpt>
      <trkpt lat="45.07539" lon="6.19805">
        <ele>2014</ele>
        <time>2020-07-14T02:23:01Z</time>
      </trkpt>
      <trkpt lat="45.07531" lon="6.19821">
        <ele>2020</ele>
        <time>2020-07-14T02:23:19Z</time>
      </trkpt>
      <trkpt lat="45.07536" lon="6.19845">
        <ele>2029</ele>
        <time>2020-07-14T02:23:43Z</time>
      </trkpt>
      <trkpt lat="45.07532" lon="6.19853">
        <ele>2032</ele>
        <time>2020-07-14T02:23:52Z</time>
      </trkpt>
      <trkpt lat="45.07551" lon="6.19869">
        <ele>2037</ele>
        <time>2020-07-14T02:24:22Z</time>
      </trkpt>
      <trkpt lat="45.07543" lon="6.1989">
        <ele>2045</ele>
        <time>2020-07-14T02:24:44Z</time>
      </trkpt>
      <trkpt lat="45.07569" lon="6.19944">
        <ele>2063</ele>
        <time>2020-07-14T02:25:46Z</time>
      </trkpt>
      <trkpt lat="45.07591" lon="6.19976">
        <ele>2070</ele>
        <time>2020-07-14T02:26:28Z</time>
      </trkpt>
      <trkpt lat="45.07625" lon="6.20067">
        <ele>2082</ele>
        <time>2020-07-14T02:28:05Z</time>
      </trkpt>
      <trkpt lat="45.07632" lon="6.20067">
        <ele>2079</ele>
        <time>2020-07-14T02:28:14Z</time>
      </trkpt>
      <trkpt lat="45.07637" lon="6.20093">
        <ele>2083</ele>
        <time>2020-07-14T02:28:40Z</time>
      </trkpt>
      <trkpt lat="45.07624" lon="6.2008">
        <ele>2086</ele>
        <time>2020-07-14T02:29:01Z</time>
      </trkpt>
      <trkpt lat="45.07624" lon="6.20106">
        <ele>2093</ele>
        <time>2020-07-14T02:29:25Z</time>
      </trkpt>
      <trkpt lat="45.07602" lon="6.20087">
        <ele>2099</ele>
        <time>2020-07-14T02:30:00Z</time>
      </trkpt>
      <trkpt lat="45.07603" lon="6.20106">
        <ele>2104</ele>
        <time>2020-07-14T02:30:18Z</time>
      </trkpt>
      <trkpt lat="45.0757" lon="6.20075">
        <ele>2108</ele>
        <time>2020-07-14T02:31:11Z</time>
      </trkpt>
      <trkpt lat="45.07573" lon="6.20101">
        <ele>2115</ele>
        <time>2020-07-14T02:31:35Z</time>
      </trkpt>
      <trkpt lat="45.07558" lon="6.2009">
        <ele>2115</ele>
        <time>2020-07-14T02:31:58Z</time>
      </trkpt>
      <trkpt lat="45.07552" lon="6.20093">
        <ele>2118</ele>
        <time>2020-07-14T02:32:06Z</time>
      </trkpt>
      <trkpt lat="45.07516" lon="6.20081">
        <ele>2123</ele>
        <time>2020-07-14T02:32:56Z</time>
      </trkpt>
      <trkpt lat="45.07513" lon="6.20096">
        <ele>2129</ele>
        <time>2020-07-14T02:33:10Z</time>
      </trkpt>
      <trkpt lat="45.07496" lon="6.20092">
        <ele>2131</ele>
        <time>2020-07-14T02:33:33Z</time>
      </trkpt>
      <trkpt lat="45.07478" lon="6.20098">
        <ele>2136</ele>
        <time>2020-07-14T02:33:58Z</time>
      </trkpt>
      <trkpt lat="45.07481" lon="6.20114">
        <ele>2141</ele>
        <time>2020-07-14T02:34:14Z</time>
      </trkpt>
      <trkpt lat="45.07522" lon="6.20165">
        <ele>2150</ele>
        <time>2020-07-14T02:35:27Z</time>
      </trkpt>
      <trkpt lat="45.07556" lon="6.20221">
        <ele>2158</ele>
        <time>2020-07-14T02:36:36Z</time>
      </trkpt>
      <trkpt lat="45.07561" lon="6.20244">
        <ele>2164</ele>
        <time>2020-07-14T02:36:59Z</time>
      </trkpt>
      <trkpt lat="45.07556" lon="6.20246">
        <ele>2166</ele>
        <time>2020-07-14T02:37:06Z</time>
      </trkpt>
      <trkpt lat="45.07569" lon="6.20263">
        <ele>2166</ele>
        <time>2020-07-14T02:37:29Z</time>
      </trkpt>
      <trkpt lat="45.07556" lon="6.20262">
        <ele>2171</ele>
        <time>2020-07-14T02:37:47Z</time>
      </trkpt>
      <trkpt lat="45.07523" lon="6.20243">
        <ele>2178</ele>
        <time>2020-07-14T02:38:34Z</time>
      </trkpt>
      <trkpt lat="45.07489" lon="6.20233">
        <ele>2185</ele>
        <time>2020-07-14T02:39:21Z</time>
      </trkpt>
      <trkpt lat="45.07466" lon="6.20229">
        <ele>2188</ele>
        <time>2020-07-14T02:39:52Z</time>
      </trkpt>
      <trkpt lat="45.07478" lon="6.20252">
        <ele>2195</ele>
        <time>2020-07-14T02:40:19Z</time>
      </trkpt>
      <trkpt lat="45.07452" lon="6.20251">
        <ele>2200</ele>
        <time>2020-07-14T02:40:53Z</time>
      </trkpt>
      <trkpt lat="45.07429" lon="6.20242">
        <ele>2202</ele>
        <time>2020-07-14T02:41:25Z</time>
      </trkpt>
      <trkpt lat="45.074" lon="6.20256">
        <ele>2210</ele>
        <time>2020-07-14T02:42:06Z</time>
      </trkpt>
      <trkpt lat="45.07356" lon="6.20307">
        <ele>2225</ele>
        <time>2020-07-14T02:43:22Z</time>
      </trkpt>
      <trkpt lat="45.07343" lon="6.20333">
        <ele>2233</ele>
        <time>2020-07-14T02:43:52Z</time>
      </trkpt>
      <trkpt lat="45.07335" lon="6.20357">
        <ele>2235</ele>
        <time>2020-07-14T02:44:17Z</time>
      </trkpt>
      <trkpt lat="45.07333" lon="6.2038">
        <ele>2237</ele>
        <time>2020-07-14T02:44:39Z</time>
      </trkpt>
      <trkpt lat="45.07334" lon="6.20395">
        <ele>2239</ele>
        <time>2020-07-14T02:44:53Z</time>
      </trkpt>
      <trkpt lat="45.07346" lon="6.20451">
        <ele>2247</ele>
        <time>2020-07-14T02:45:48Z</time>
      </trkpt>
      <trkpt lat="45.07361" lon="6.20513">
        <ele>2253</ele>
        <time>2020-07-14T02:46:50Z</time>
      </trkpt>
      <trkpt lat="45.07368" lon="6.20532">
        <ele>2251</ele>
        <time>2020-07-14T02:47:10Z</time>
      </trkpt>
      <trkpt lat="45.07412" lon="6.20585">
        <ele>2250</ele>
        <time>2020-07-14T02:48:27Z</time>
      </trkpt>
      <trkpt lat="45.07419" lon="6.20597">
        <ele>2250</ele>
        <time>2020-07-14T02:48:42Z</time>
      </trkpt>
      <trkpt lat="45.07422" lon="6.20606">
        <ele>2249</ele>
        <time>2020-07-14T02:48:51Z</time>
      </trkpt>
      <trkpt lat="45.07422" lon="6.20632">
        <ele>2247</ele>
        <time>2020-07-14T02:49:16Z</time>
      </trkpt>
      <trkpt lat="45.0742" lon="6.20645">
        <ele>2245</ele>
        <time>2020-07-14T02:49:28Z</time>
      </trkpt>
      <trkpt lat="45.07423" lon="6.20667">
        <ele>2243</ele>
        <time>2020-07-14T02:49:49Z</time>
      </trkpt>
      <trkpt lat="45.07445" lon="6.20719">
        <ele>2245</ele>
        <time>2020-07-14T02:50:46Z</time>
      </trkpt>
      <trkpt lat="45.07451" lon="6.20742">
        <ele>2245</ele>
        <time>2020-07-14T02:51:10Z</time>
      </trkpt>
      <trkpt lat="45.07458" lon="6.20776">
        <ele>2243</ele>
        <time>2020-07-14T02:51:43Z</time>
      </trkpt>
      <trkpt lat="45.07463" lon="6.2079">
        <ele>2242</ele>
        <time>2020-07-14T02:51:58Z</time>
      </trkpt>
      <trkpt lat="45.07475" lon="6.20812">
        <ele>2242</ele>
        <time>2020-07-14T02:52:24Z</time>
      </trkpt>
      <trkpt lat="45.07515" lon="6.20849">
        <ele>2243</ele>
        <time>2020-07-14T02:53:28Z</time>
      </trkpt>
      <trkpt lat="45.07528" lon="6.20859">
        <ele>2243</ele>
        <time>2020-07-14T02:53:47Z</time>
      </trkpt>
      <trkpt lat="45.07574" lon="6.20888">
        <ele>2244</ele>
        <time>2020-07-14T02:54:55Z</time>
      </trkpt>
      <trkpt lat="45.07599" lon="6.20898">
        <ele>2246</ele>
        <time>2020-07-14T02:55:29Z</time>
      </trkpt>
      <trkpt lat="45.07627" lon="6.20921">
        <ele>2247</ele>
        <time>2020-07-14T02:56:12Z</time>
      </trkpt>
      <trkpt lat="45.0764" lon="6.20935">
        <ele>2249</ele>
        <time>2020-07-14T02:56:34Z</time>
      </trkpt>
      <trkpt lat="45.07627" lon="6.20921">
        <ele>2247</ele>
        <time>2020-07-14T02:56:56Z</time>
      </trkpt>
      <trkpt lat="45.07599" lon="6.20898">
        <ele>2246</ele>
        <time>2020-07-14T02:57:39Z</time>
      </trkpt>
      <trkpt lat="45.07574" lon="6.20888">
        <ele>2244</ele>
        <time>2020-07-14T02:58:14Z</time>
      </trkpt>
      <trkpt lat="45.07528" lon="6.20859">
        <ele>2243</ele>
        <time>2020-07-14T02:59:21Z</time>
      </trkpt>
      <trkpt lat="45.07515" lon="6.20849">
        <ele>2243</ele>
        <time>2020-07-14T02:59:41Z</time>
      </trkpt>
      <trkpt lat="45.07475" lon="6.20812">
        <ele>2242</ele>
        <time>2020-07-14T03:00:45Z</time>
      </trkpt>
      <trkpt lat="45.07463" lon="6.2079">
        <ele>2242</ele>
        <time>2020-07-14T03:01:11Z</time>
      </trkpt>
      <trkpt lat="45.07458" lon="6.20776">
        <ele>2243</ele>
        <time>2020-07-14T03:01:26Z</time>
      </trkpt>
      <trkpt lat="45.07451" lon="6.20742">
        <ele>2245</ele>
        <time>2020-07-14T03:01:59Z</time>
      </trkpt>
      <trkpt lat="45.07445" lon="6.20719">
        <ele>2245</ele>
        <time>2020-07-14T03:02:22Z</time>
      </trkpt>
      <trkpt lat="45.07423" lon="6.20667">
        <ele>2243</ele>
        <time>2020-07-14T03:03:19Z</time>
      </trkpt>
      <trkpt lat="45.0742" lon="6.20645">
        <ele>2245</ele>
        <time>2020-07-14T03:03:40Z</time>
      </trkpt>
      <trkpt lat="45.07422" lon="6.20632">
        <ele>2247</ele>
        <time>2020-07-14T03:03:53Z</time>
      </trkpt>
      <trkpt lat="45.07422" lon="6.20606">
        <ele>2249</ele>
        <time>2020-07-14T03:04:17Z</time>
      </trkpt>
      <trkpt lat="45.07419" lon="6.20597">
        <ele>2250</ele>
        <time>2020-07-14T03:04:27Z</time>
      </trkpt>
      <trkpt lat="45.07412" lon="6.20585">
        <ele>2250</ele>
        <time>2020-07-14T03:04:41Z</time>
      </trkpt>
      <trkpt lat="45.07368" lon="6.20532">
        <ele>2251</ele>
        <time>2020-07-14T03:05:58Z</time>
      </trkpt>
      <trkpt lat="45.07364" lon="6.20521">
        <ele>2252</ele>
        <time>2020-07-14T03:06:10Z</time>
      </trkpt>
      <trkpt lat="45.07344" lon="6.20536">
        <ele>2248</ele>
        <time>2020-07-14T03:06:40Z</time>
      </trkpt>
      <trkpt lat="45.07314" lon="6.2055">
        <ele>2243</ele>
        <time>2020-07-14T03:07:22Z</time>
      </trkpt>
      <trkpt lat="45.07223" lon="6.20574">
        <ele>2238</ele>
        <time>2020-07-14T03:09:26Z</time>
      </trkpt>
      <trkpt lat="45.07205" lon="6.20581">
        <ele>2237</ele>
        <time>2020-07-14T03:09:51Z</time>
      </trkpt>
      <trkpt lat="45.07176" lon="6.20581">
        <ele>2238</ele>
        <time>2020-07-14T03:10:30Z</time>
      </trkpt>
      <trkpt lat="45.07147" lon="6.20596">
        <ele>2237</ele>
        <time>2020-07-14T03:11:11Z</time>
      </trkpt>
      <trkpt lat="45.07108" lon="6.2063">
        <ele>2233</ele>
        <time>2020-07-14T03:12:12Z</time>
      </trkpt>
      <trkpt lat="45.07104" lon="6.20634">
        <ele>2233</ele>
        <time>2020-07-14T03:12:18Z</time>
      </trkpt>
      <trkpt lat="45.07087" lon="6.20666">
        <ele>2227</ele>
        <time>2020-07-14T03:12:56Z</time>
      </trkpt>
      <trkpt lat="45.07081" lon="6.20687">
        <ele>2225</ele>
        <time>2020-07-14T03:13:18Z</time>
      </trkpt>
      <trkpt lat="45.07078" lon="6.2074">
        <ele>2217</ele>
        <time>2020-07-14T03:14:08Z</time>
      </trkpt>
      <trkpt lat="45.07071" lon="6.20803">
        <ele>2216</ele>
        <time>2020-07-14T03:15:08Z</time>
      </trkpt>
      <trkpt lat="45.07064" lon="6.20834">
        <ele>2216</ele>
        <time>2020-07-14T03:15:38Z</time>
      </trkpt>
      <trkpt lat="45.07056" lon="6.20858">
        <ele>2216</ele>
        <time>2020-07-14T03:16:03Z</time>
      </trkpt>
      <trkpt lat="45.07045" lon="6.20879">
        <ele>2216</ele>
        <time>2020-07-14T03:16:28Z</time>
      </trkpt>
      <trkpt lat="45.0704" lon="6.209">
        <ele>2215</ele>
        <time>2020-07-14T03:16:49Z</time>
      </trkpt>
      <trkpt lat="45.07038" lon="6.20917">
        <ele>2214</ele>
        <time>2020-07-14T03:17:05Z</time>
      </trkpt>
      <trkpt lat="45.07031" lon="6.20933">
        <ele>2214</ele>
        <time>2020-07-14T03:17:23Z</time>
      </trkpt>
      <trkpt lat="45.07022" lon="6.2097">
        <ele>2213</ele>
        <time>2020-07-14T03:18:00Z</time>
      </trkpt>
      <trkpt lat="45.07017" lon="6.20984">
        <ele>2213</ele>
        <time>2020-07-14T03:18:15Z</time>
      </trkpt>
      <trkpt lat="45.07003" lon="6.21011">
        <ele>2212</ele>
        <time>2020-07-14T03:18:46Z</time>
      </trkpt>
      <trkpt lat="45.06995" lon="6.21019">
        <ele>2212</ele>
        <time>2020-07-14T03:18:59Z</time>
      </trkpt>
      <trkpt lat="45.06967" lon="6.21065">
        <ele>2211</ele>
        <time>2020-07-14T03:19:56Z</time>
      </trkpt>
      <trkpt lat="45.06953" lon="6.21102">
        <ele>2209</ele>
        <time>2020-07-14T03:20:36Z</time>
      </trkpt>
      <trkpt lat="45.06946" lon="6.21108">
        <ele>2209</ele>
        <time>2020-07-14T03:20:47Z</time>
      </trkpt>
      <trkpt lat="45.06937" lon="6.21126">
        <ele>2208</ele>
        <time>2020-07-14T03:21:08Z</time>
      </trkpt>
      <trkpt lat="45.06908" lon="6.21195">
        <ele>2207</ele>
        <time>2020-07-14T03:22:23Z</time>
      </trkpt>
      <trkpt lat="45.06892" lon="6.21259">
        <ele>2207</ele>
        <time>2020-07-14T03:23:27Z</time>
      </trkpt>
      <trkpt lat="45.06883" lon="6.21287">
        <ele>2207</ele>
        <time>2020-07-14T03:23:56Z</time>
      </trkpt>
      <trkpt lat="45.06881" lon="6.21301">
        <ele>2206</ele>
        <time>2020-07-14T03:24:10Z</time>
      </trkpt>
      <trkpt lat="45.06874" lon="6.21319">
        <ele>2206</ele>
        <time>2020-07-14T03:24:29Z</time>
      </trkpt>
      <trkpt lat="45.06859" lon="6.21343">
        <ele>2207</ele>
        <time>2020-07-14T03:24:59Z</time>
      </trkpt>
      <trkpt lat="45.06852" lon="6.2135">
        <ele>2208</ele>
        <time>2020-07-14T03:25:11Z</time>
      </trkpt>
      <trkpt lat="45.06846" lon="6.21364">
        <ele>2208</ele>
        <time>2020-07-14T03:25:26Z</time>
      </trkpt>
      <trkpt lat="45.06839" lon="6.21376">
        <ele>2209</ele>
        <time>2020-07-14T03:25:41Z</time>
      </trkpt>
      <trkpt lat="45.06821" lon="6.21401">
        <ele>2209</ele>
        <time>2020-07-14T03:26:15Z</time>
      </trkpt>
      <trkpt lat="45.06806" lon="6.21416">
        <ele>2209</ele>
        <time>2020-07-14T03:26:39Z</time>
      </trkpt>
      <trkpt lat="45.0679" lon="6.21448">
        <ele>2210</ele>
        <time>2020-07-14T03:27:16Z</time>
      </trkpt>
      <trkpt lat="45.06779" lon="6.2146">
        <ele>2210</ele>
        <time>2020-07-14T03:27:35Z</time>
      </trkpt>
      <trkpt lat="45.06771" lon="6.21472">
        <ele>2210</ele>
        <time>2020-07-14T03:27:50Z</time>
      </trkpt>
      <trkpt lat="45.06744" lon="6.21528">
        <ele>2209</ele>
        <time>2020-07-14T03:28:54Z</time>
      </trkpt>
      <trkpt lat="45.06726" lon="6.21557">
        <ele>2208</ele>
        <time>2020-07-14T03:29:30Z</time>
      </trkpt>
      <trkpt lat="45.0671" lon="6.21574">
        <ele>2208</ele>
        <time>2020-07-14T03:29:57Z</time>
      </trkpt>
      <trkpt lat="45.06699" lon="6.21601">
        <ele>2207</ele>
        <time>2020-07-14T03:30:27Z</time>
      </trkpt>
      <trkpt lat="45.06685" lon="6.21626">
        <ele>2206</ele>
        <time>2020-07-14T03:30:57Z</time>
      </trkpt>
      <trkpt lat="45.06595" lon="6.21766">
        <ele>2205</ele>
        <time>2020-07-14T03:33:55Z</time>
      </trkpt>
      <trkpt lat="45.06589" lon="6.21784">
        <ele>2205</ele>
        <time>2020-07-14T03:34:14Z</time>
      </trkpt>
      <trkpt lat="45.06585" lon="6.21809">
        <ele>2204</ele>
        <time>2020-07-14T03:34:38Z</time>
      </trkpt>
      <trkpt lat="45.06591" lon="6.21822">
        <ele>2203</ele>
        <time>2020-07-14T03:34:53Z</time>
      </trkpt>
      <trkpt lat="45.06594" lon="6.21841">
        <ele>2202</ele>
        <time>2020-07-14T03:35:11Z</time>
      </trkpt>
      <trkpt lat="45.06613" lon="6.21887">
        <ele>2199</ele>
        <time>2020-07-14T03:36:01Z</time>
      </trkpt>
      <trkpt lat="45.06614" lon="6.219">
        <ele>2198</ele>
        <time>2020-07-14T03:36:13Z</time>
      </trkpt>
      <trkpt lat="45.06613" lon="6.2191">
        <ele>2197</ele>
        <time>2020-07-14T03:36:23Z</time>
      </trkpt>
      <trkpt lat="45.06586" lon="6.2193">
        <ele>2196</ele>
        <time>2020-07-14T03:37:04Z</time>
      </trkpt>
      <trkpt lat="45.06583" lon="6.21936">
        <ele>2196</ele>
        <time>2020-07-14T03:37:11Z</time>
      </trkpt>
      <trkpt lat="45.06587" lon="6.21948">
        <ele>2195</ele>
        <time>2020-07-14T03:37:23Z</time>
      </trkpt>
      <trkpt lat="45.06608" lon="6.21968">
        <ele>2196</ele>
        <time>2020-07-14T03:37:57Z</time>
      </trkpt>
      <trkpt lat="45.06612" lon="6.21974">
        <ele>2196</ele>
        <time>2020-07-14T03:38:05Z</time>
      </trkpt>
      <trkpt lat="45.06612" lon="6.21983">
        <ele>2195</ele>
        <time>2020-07-14T03:38:13Z</time>
      </trkpt>
      <trkpt lat="45.06609" lon="6.21988">
        <ele>2195</ele>
        <time>2020-07-14T03:38:19Z</time>
      </trkpt>
      <trkpt lat="45.06583" lon="6.21993">
        <ele>2194</ele>
        <time>2020-07-14T03:38:54Z</time>
      </trkpt>
      <trkpt lat="45.06576" lon="6.22">
        <ele>2194</ele>
        <time>2020-07-14T03:39:06Z</time>
      </trkpt>
      <trkpt lat="45.06569" lon="6.22013">
        <ele>2194</ele>
        <time>2020-07-14T03:39:21Z</time>
      </trkpt>
      <trkpt lat="45.06562" lon="6.22036">
        <ele>2195</ele>
        <time>2020-07-14T03:39:45Z</time>
      </trkpt>
      <trkpt lat="45.06519" lon="6.22053">
        <ele>2197</ele>
        <time>2020-07-14T03:40:44Z</time>
      </trkpt>
      <trkpt lat="45.06461" lon="6.22085">
        <ele>2203</ele>
        <time>2020-07-14T03:42:07Z</time>
      </trkpt>
      <trkpt lat="45.0645" lon="6.22087">
        <ele>2204</ele>
        <time>2020-07-14T03:42:22Z</time>
      </trkpt>
      <trkpt lat="45.06432" lon="6.22104">
        <ele>2208</ele>
        <time>2020-07-14T03:42:51Z</time>
      </trkpt>
      <trkpt lat="45.06398" lon="6.22115">
        <ele>2214</ele>
        <time>2020-07-14T03:43:38Z</time>
      </trkpt>
      <trkpt lat="45.06376" lon="6.22125">
        <ele>2218</ele>
        <time>2020-07-14T03:44:08Z</time>
      </trkpt>
      <trkpt lat="45.06348" lon="6.22131">
        <ele>2222</ele>
        <time>2020-07-14T03:44:46Z</time>
      </trkpt>
      <trkpt lat="45.0633" lon="6.22144">
        <ele>2226</ele>
        <time>2020-07-14T03:45:13Z</time>
      </trkpt>
      <trkpt lat="45.06288" lon="6.22167">
        <ele>2234</ele>
        <time>2020-07-14T03:46:13Z</time>
      </trkpt>
      <trkpt lat="45.06247" lon="6.22177">
        <ele>2238</ele>
        <time>2020-07-14T03:47:09Z</time>
      </trkpt>
      <trkpt lat="45.06198" lon="6.2217">
        <ele>2239</ele>
        <time>2020-07-14T03:48:15Z</time>
      </trkpt>
      <trkpt lat="45.06176" lon="6.22173">
        <ele>2240</ele>
        <time>2020-07-14T03:48:44Z</time>
      </trkpt>
      <trkpt lat="45.06166" lon="6.22179">
        <ele>2242</ele>
        <time>2020-07-14T03:48:59Z</time>
      </trkpt>
      <trkpt lat="45.06149" lon="6.22186">
        <ele>2244</ele>
        <time>2020-07-14T03:49:22Z</time>
      </trkpt>
      <trkpt lat="45.06139" lon="6.22194">
        <ele>2247</ele>
        <time>2020-07-14T03:49:38Z</time>
      </trkpt>
      <trkpt lat="45.06085" lon="6.22261">
        <ele>2262</ele>
        <time>2020-07-14T03:51:13Z</time>
      </trkpt>
      <trkpt lat="45.0608" lon="6.22282">
        <ele>2266</ele>
        <time>2020-07-14T03:51:34Z</time>
      </trkpt>
      <trkpt lat="45.06072" lon="6.22299">
        <ele>2271</ele>
        <time>2020-07-14T03:51:53Z</time>
      </trkpt>
      <trkpt lat="45.06067" lon="6.22305">
        <ele>2273</ele>
        <time>2020-07-14T03:52:02Z</time>
      </trkpt>
      <trkpt lat="45.06059" lon="6.22307">
        <ele>2276</ele>
        <time>2020-07-14T03:52:13Z</time>
      </trkpt>
      <trkpt lat="45.06055" lon="6.22316">
        <ele>2278</ele>
        <time>2020-07-14T03:52:23Z</time>
      </trkpt>
      <trkpt lat="45.06052" lon="6.22317">
        <ele>2279</ele>
        <time>2020-07-14T03:52:27Z</time>
      </trkpt>
      <trkpt lat="45.06043" lon="6.22312">
        <ele>2281</ele>
        <time>2020-07-14T03:52:40Z</time>
      </trkpt>
      <trkpt lat="45.06039" lon="6.22315">
        <ele>2283</ele>
        <time>2020-07-14T03:52:46Z</time>
      </trkpt>
      <trkpt lat="45.06033" lon="6.22324">
        <ele>2286</ele>
        <time>2020-07-14T03:52:58Z</time>
      </trkpt>
      <trkpt lat="45.0602" lon="6.22337">
        <ele>2291</ele>
        <time>2020-07-14T03:53:19Z</time>
      </trkpt>
      <trkpt lat="45.06011" lon="6.22351">
        <ele>2295</ele>
        <time>2020-07-14T03:53:37Z</time>
      </trkpt>
      <trkpt lat="45.06006" lon="6.22351">
        <ele>2297</ele>
        <time>2020-07-14T03:53:44Z</time>
      </trkpt>
      <trkpt lat="45.06001" lon="6.22354">
        <ele>2298</ele>
        <time>2020-07-14T03:53:51Z</time>
      </trkpt>
      <trkpt lat="45.05998" lon="6.22352">
        <ele>2299</ele>
        <time>2020-07-14T03:53:55Z</time>
      </trkpt>
      <trkpt lat="45.05993" lon="6.22353">
        <ele>2302</ele>
        <time>2020-07-14T03:54:02Z</time>
      </trkpt>
      <trkpt lat="45.05985" lon="6.22371">
        <ele>2308</ele>
        <time>2020-07-14T03:54:22Z</time>
      </trkpt>
      <trkpt lat="45.05975" lon="6.2236">
        <ele>2312</ele>
        <time>2020-07-14T03:54:39Z</time>
      </trkpt>
      <trkpt lat="45.0597" lon="6.22373">
        <ele>2316</ele>
        <time>2020-07-14T03:54:53Z</time>
      </trkpt>
      <trkpt lat="45.05967" lon="6.2237">
        <ele>2317</ele>
        <time>2020-07-14T03:54:58Z</time>
      </trkpt>
      <trkpt lat="45.05963" lon="6.22373">
        <ele>2319</ele>
        <time>2020-07-14T03:55:04Z</time>
      </trkpt>
      <trkpt lat="45.05956" lon="6.22383">
        <ele>2323</ele>
        <time>2020-07-14T03:55:17Z</time>
      </trkpt>
      <trkpt lat="45.05948" lon="6.22379">
        <ele>2327</ele>
        <time>2020-07-14T03:55:28Z</time>
      </trkpt>
      <trkpt lat="45.05944" lon="6.22385">
        <ele>2329</ele>
        <time>2020-07-14T03:55:36Z</time>
      </trkpt>
      <trkpt lat="45.05941" lon="6.22386">
        <ele>2330</ele>
        <time>2020-07-14T03:55:40Z</time>
      </trkpt>
      <trkpt lat="45.05939" lon="6.22391">
        <ele>2331</ele>
        <time>2020-07-14T03:55:46Z</time>
      </trkpt>
      <trkpt lat="45.05936" lon="6.22392">
        <ele>2333</ele>
        <time>2020-07-14T03:55:50Z</time>
      </trkpt>
      <trkpt lat="45.05933" lon="6.2239">
        <ele>2334</ele>
        <time>2020-07-14T03:55:54Z</time>
      </trkpt>
      <trkpt lat="45.05929" lon="6.22397">
        <ele>2336</ele>
        <time>2020-07-14T03:56:03Z</time>
      </trkpt>
      <trkpt lat="45.05922" lon="6.22388">
        <ele>2339</ele>
        <time>2020-07-14T03:56:15Z</time>
      </trkpt>
      <trkpt lat="45.05916" lon="6.22398">
        <ele>2342</ele>
        <time>2020-07-14T03:56:28Z</time>
      </trkpt>
      <trkpt lat="45.05911" lon="6.22398">
        <ele>2343</ele>
        <time>2020-07-14T03:56:34Z</time>
      </trkpt>
      <trkpt lat="45.05907" lon="6.22402">
        <ele>2343</ele>
        <time>2020-07-14T03:56:41Z</time>
      </trkpt>
      <trkpt lat="45.05902" lon="6.22404">
        <ele>2344</ele>
        <time>2020-07-14T03:56:48Z</time>
      </trkpt>
      <trkpt lat="45.05897" lon="6.22401">
        <ele>2345</ele>
        <time>2020-07-14T03:56:55Z</time>
      </trkpt>
      <trkpt lat="45.05888" lon="6.22405">
        <ele>2347</ele>
        <time>2020-07-14T03:57:08Z</time>
      </trkpt>
      <trkpt lat="45.05865" lon="6.22418">
        <ele>2350</ele>
        <time>2020-07-14T03:57:41Z</time>
      </trkpt>
      <trkpt lat="45.0586" lon="6.22418">
        <ele>2351</ele>
        <time>2020-07-14T03:57:47Z</time>
      </trkpt>
      <trkpt lat="45.05852" lon="6.22424">
        <ele>2353</ele>
        <time>2020-07-14T03:57:59Z</time>
      </trkpt>
      <trkpt lat="45.0583" lon="6.22436">
        <ele>2357</ele>
        <time>2020-07-14T03:58:31Z</time>
      </trkpt>
      <trkpt lat="45.05817" lon="6.22436">
        <ele>2358</ele>
        <time>2020-07-14T03:58:48Z</time>
      </trkpt>
      <trkpt lat="45.05792" lon="6.22446">
        <ele>2361</ele>
        <time>2020-07-14T03:59:23Z</time>
      </trkpt>
      <trkpt lat="45.05775" lon="6.22449">
        <ele>2363</ele>
        <time>2020-07-14T03:59:46Z</time>
      </trkpt>
      <trkpt lat="45.05753" lon="6.22443">
        <ele>2364</ele>
        <time>2020-07-14T04:00:16Z</time>
      </trkpt>
      <trkpt lat="45.05744" lon="6.22435">
        <ele>2365</ele>
        <time>2020-07-14T04:00:30Z</time>
      </trkpt>
      <trkpt lat="45.05724" lon="6.22426">
        <ele>2368</ele>
        <time>2020-07-14T04:00:58Z</time>
      </trkpt>
      <trkpt lat="45.05718" lon="6.22417">
        <ele>2368</ele>
        <time>2020-07-14T04:01:10Z</time>
      </trkpt>
      <trkpt lat="45.05712" lon="6.22417">
        <ele>2369</ele>
        <time>2020-07-14T04:01:18Z</time>
      </trkpt>
      <trkpt lat="45.05711" lon="6.22419">
        <ele>2370</ele>
        <time>2020-07-14T04:01:20Z</time>
      </trkpt>
      <trkpt lat="45.057" lon="6.22396">
        <ele>2369</ele>
        <time>2020-07-14T04:01:46Z</time>
      </trkpt>
      <trkpt lat="45.05697" lon="6.22397">
        <ele>2370</ele>
        <time>2020-07-14T04:01:50Z</time>
      </trkpt>
      <trkpt lat="45.05694" lon="6.22406">
        <ele>2372</ele>
        <time>2020-07-14T04:02:00Z</time>
      </trkpt>
      <trkpt lat="45.05692" lon="6.22421">
        <ele>2374</ele>
        <time>2020-07-14T04:02:14Z</time>
      </trkpt>
      <trkpt lat="45.05689" lon="6.22424">
        <ele>2376</ele>
        <time>2020-07-14T04:02:19Z</time>
      </trkpt>
      <trkpt lat="45.05686" lon="6.22423">
        <ele>2376</ele>
        <time>2020-07-14T04:02:23Z</time>
      </trkpt>
      <trkpt lat="45.05681" lon="6.22418">
        <ele>2376</ele>
        <time>2020-07-14T04:02:31Z</time>
      </trkpt>
      <trkpt lat="45.05655" lon="6.22418">
        <ele>2383</ele>
        <time>2020-07-14T04:03:06Z</time>
      </trkpt>
      <trkpt lat="45.05651" lon="6.22426">
        <ele>2385</ele>
        <time>2020-07-14T04:03:15Z</time>
      </trkpt>
      <trkpt lat="45.05644" lon="6.22421">
        <ele>2386</ele>
        <time>2020-07-14T04:03:26Z</time>
      </trkpt>
      <trkpt lat="45.05615" lon="6.22429">
        <ele>2396</ele>
        <time>2020-07-14T04:04:05Z</time>
      </trkpt>
      <trkpt lat="45.05612" lon="6.22436">
        <ele>2398</ele>
        <time>2020-07-14T04:04:13Z</time>
      </trkpt>
      <trkpt lat="45.05599" lon="6.22442">
        <ele>2403</ele>
        <time>2020-07-14T04:04:31Z</time>
      </trkpt>
      <trkpt lat="45.05594" lon="6.22443">
        <ele>2404</ele>
        <time>2020-07-14T04:04:38Z</time>
      </trkpt>
      <trkpt lat="45.05589" lon="6.22437">
        <ele>2405</ele>
        <time>2020-07-14T04:04:46Z</time>
      </trkpt>
      <trkpt lat="45.05584" lon="6.22436">
        <ele>2406</ele>
        <time>2020-07-14T04:04:53Z</time>
      </trkpt>
      <trkpt lat="45.05582" lon="6.2244">
        <ele>2407</ele>
        <time>2020-07-14T04:04:58Z</time>
      </trkpt>
      <trkpt lat="45.05578" lon="6.22447">
        <ele>2410</ele>
        <time>2020-07-14T04:05:06Z</time>
      </trkpt>
      <trkpt lat="45.05564" lon="6.22451">
        <ele>2416</ele>
        <time>2020-07-14T04:05:25Z</time>
      </trkpt>
      <trkpt lat="45.05554" lon="6.22442">
        <ele>2418</ele>
        <time>2020-07-14T04:05:41Z</time>
      </trkpt>
      <trkpt lat="45.05552" lon="6.22443">
        <ele>2419</ele>
        <time>2020-07-14T04:05:44Z</time>
      </trkpt>
      <trkpt lat="45.05549" lon="6.22451">
        <ele>2421</ele>
        <time>2020-07-14T04:05:53Z</time>
      </trkpt>
      <trkpt lat="45.05535" lon="6.22467">
        <ele>2427</ele>
        <time>2020-07-14T04:06:17Z</time>
      </trkpt>
      <trkpt lat="45.05516" lon="6.22478">
        <ele>2435</ele>
        <time>2020-07-14T04:06:44Z</time>
      </trkpt>
      <trkpt lat="45.05486" lon="6.22475">
        <ele>2441</ele>
        <time>2020-07-14T04:07:24Z</time>
      </trkpt>
      <trkpt lat="45.05477" lon="6.22482">
        <ele>2442</ele>
        <time>2020-07-14T04:07:38Z</time>
      </trkpt>
      <trkpt lat="45.05459" lon="6.22491">
        <ele>2445</ele>
        <time>2020-07-14T04:08:03Z</time>
      </trkpt>
      <trkpt lat="45.05453" lon="6.22499">
        <ele>2445</ele>
        <time>2020-07-14T04:08:14Z</time>
      </trkpt>
      <trkpt lat="45.05448" lon="6.2251">
        <ele>2446</ele>
        <time>2020-07-14T04:08:27Z</time>
      </trkpt>
      <trkpt lat="45.05443" lon="6.22509">
        <ele>2447</ele>
        <time>2020-07-14T04:08:33Z</time>
      </trkpt>
      <trkpt lat="45.05434" lon="6.22515">
        <ele>2448</ele>
        <time>2020-07-14T04:08:47Z</time>
      </trkpt>
      <trkpt lat="45.05409" lon="6.22512">
        <ele>2449</ele>
        <time>2020-07-14T04:09:20Z</time>
      </trkpt>
      <trkpt lat="45.05395" lon="6.22513">
        <ele>2450</ele>
        <time>2020-07-14T04:09:39Z</time>
      </trkpt>
      <trkpt lat="45.05353" lon="6.22539">
        <ele>2450</ele>
        <time>2020-07-14T04:10:40Z</time>
      </trkpt>
      <trkpt lat="45.05314" lon="6.22556">
        <ele>2449</ele>
        <time>2020-07-14T04:11:34Z</time>
      </trkpt>
      <trkpt lat="45.0531" lon="6.22554">
        <ele>2449</ele>
        <time>2020-07-14T04:11:40Z</time>
      </trkpt>
      <trkpt lat="45.05303" lon="6.22559">
        <ele>2449</ele>
        <time>2020-07-14T04:11:51Z</time>
      </trkpt>
      <trkpt lat="45.05291" lon="6.22561">
        <ele>2448</ele>
        <time>2020-07-14T04:12:07Z</time>
      </trkpt>
      <trkpt lat="45.05251" lon="6.22576">
        <ele>2446</ele>
        <time>2020-07-14T04:13:02Z</time>
      </trkpt>
      <trkpt lat="45.05227" lon="6.22589">
        <ele>2445</ele>
        <time>2020-07-14T04:13:36Z</time>
      </trkpt>
      <trkpt lat="45.05214" lon="6.22604">
        <ele>2446</ele>
        <time>2020-07-14T04:13:59Z</time>
      </trkpt>
      <trkpt lat="45.05176" lon="6.22618">
        <ele>2445</ele>
        <time>2020-07-14T04:14:51Z</time>
      </trkpt>
      <trkpt lat="45.05165" lon="6.22627">
        <ele>2446</ele>
        <time>2020-07-14T04:15:08Z</time>
      </trkpt>
      <trkpt lat="45.05151" lon="6.22628">
        <ele>2445</ele>
        <time>2020-07-14T04:15:27Z</time>
      </trkpt>
      <trkpt lat="45.05144" lon="6.22627">
        <ele>2445</ele>
        <time>2020-07-14T04:15:36Z</time>
      </trkpt>
      <trkpt lat="45.0512" lon="6.22638">
        <ele>2445</ele>
        <time>2020-07-14T04:16:10Z</time>
      </trkpt>
      <trkpt lat="45.05109" lon="6.22634">
        <ele>2444</ele>
        <time>2020-07-14T04:16:25Z</time>
      </trkpt>
      <trkpt lat="45.05085" lon="6.22644">
        <ele>2443</ele>
        <time>2020-07-14T04:16:58Z</time>
      </trkpt>
      <trkpt lat="45.05074" lon="6.22655">
        <ele>2443</ele>
        <time>2020-07-14T04:17:16Z</time>
      </trkpt>
      <trkpt lat="45.05062" lon="6.22658">
        <ele>2443</ele>
        <time>2020-07-14T04:17:32Z</time>
      </trkpt>
      <trkpt lat="45.05039" lon="6.22673">
        <ele>2442</ele>
        <time>2020-07-14T04:18:06Z</time>
      </trkpt>
      <trkpt lat="45.04991" lon="6.22699">
        <ele>2441</ele>
        <time>2020-07-14T04:19:15Z</time>
      </trkpt>
      <trkpt lat="45.04971" lon="6.22705">
        <ele>2440</ele>
        <time>2020-07-14T04:19:42Z</time>
      </trkpt>
      <trkpt lat="45.04951" lon="6.22715">
        <ele>2438</ele>
        <time>2020-07-14T04:20:10Z</time>
      </trkpt>
      <trkpt lat="45.04917" lon="6.22705">
        <ele>2437</ele>
        <time>2020-07-14T04:20:57Z</time>
      </trkpt>
      <trkpt lat="45.04897" lon="6.22702">
        <ele>2435</ele>
        <time>2020-07-14T04:21:24Z</time>
      </trkpt>
      <trkpt lat="45.04851" lon="6.22728">
        <ele>2427</ele>
        <time>2020-07-14T04:22:30Z</time>
      </trkpt>
      <trkpt lat="45.04845" lon="6.2273">
        <ele>2427</ele>
        <time>2020-07-14T04:22:38Z</time>
      </trkpt>
      <trkpt lat="45.0484" lon="6.22734">
        <ele>2426</ele>
        <time>2020-07-14T04:22:46Z</time>
      </trkpt>
      <trkpt lat="45.04845" lon="6.2273">
        <ele>2427</ele>
        <time>2020-07-14T04:22:53Z</time>
      </trkpt>
      <trkpt lat="45.04851" lon="6.22728">
        <ele>2427</ele>
        <time>2020-07-14T04:23:01Z</time>
      </trkpt>
      <trkpt lat="45.04847" lon="6.22742">
        <ele>2426</ele>
        <time>2020-07-14T04:23:16Z</time>
      </trkpt>
      <trkpt lat="45.04851" lon="6.22769">
        <ele>2423</ele>
        <time>2020-07-14T04:23:42Z</time>
      </trkpt>
      <trkpt lat="45.04856" lon="6.22782">
        <ele>2422</ele>
        <time>2020-07-14T04:23:56Z</time>
      </trkpt>
      <trkpt lat="45.04861" lon="6.2279">
        <ele>2422</ele>
        <time>2020-07-14T04:24:06Z</time>
      </trkpt>
      <trkpt lat="45.04861" lon="6.22796">
        <ele>2421</ele>
        <time>2020-07-14T04:24:11Z</time>
      </trkpt>
      <trkpt lat="45.04866" lon="6.22812">
        <ele>2421</ele>
        <time>2020-07-14T04:24:28Z</time>
      </trkpt>
      <trkpt lat="45.04867" lon="6.2283">
        <ele>2419</ele>
        <time>2020-07-14T04:24:45Z</time>
      </trkpt>
      <trkpt lat="45.04878" lon="6.22854">
        <ele>2420</ele>
        <time>2020-07-14T04:25:12Z</time>
      </trkpt>
      <trkpt lat="45.0489" lon="6.22864">
        <ele>2422</ele>
        <time>2020-07-14T04:25:30Z</time>
      </trkpt>
      <trkpt lat="45.04928" lon="6.22879">
        <ele>2429</ele>
        <time>2020-07-14T04:26:23Z</time>
      </trkpt>
      <trkpt lat="45.04962" lon="6.22872">
        <ele>2435</ele>
        <time>2020-07-14T04:27:09Z</time>
      </trkpt>
      <trkpt lat="45.04972" lon="6.22857">
        <ele>2438</ele>
        <time>2020-07-14T04:27:28Z</time>
      </trkpt>
      <trkpt lat="45.04977" lon="6.22836">
        <ele>2439</ele>
        <time>2020-07-14T04:27:49Z</time>
      </trkpt>
      <trkpt lat="45.04987" lon="6.22817">
        <ele>2440</ele>
        <time>2020-07-14T04:28:12Z</time>
      </trkpt>
      <trkpt lat="45.05013" lon="6.22801">
        <ele>2443</ele>
        <time>2020-07-14T04:28:49Z</time>
      </trkpt>
      <trkpt lat="45.05012" lon="6.22781">
        <ele>2443</ele>
        <time>2020-07-14T04:29:08Z</time>
      </trkpt>
      <trkpt lat="45.04999" lon="6.22747">
        <ele>2441</ele>
        <time>2020-07-14T04:29:45Z</time>
      </trkpt>
      <trkpt lat="45.04996" lon="6.22732">
        <ele>2441</ele>
        <time>2020-07-14T04:30:00Z</time>
      </trkpt>
      <trkpt lat="45.04996" lon="6.22724">
        <ele>2441</ele>
        <time>2020-07-14T04:30:07Z</time>
      </trkpt>
      <trkpt lat="45.05001" lon="6.22693">
        <ele>2441</ele>
        <time>2020-07-14T04:30:37Z</time>
      </trkpt>
      <trkpt lat="45.04962" lon="6.2271">
        <ele>2439</ele>
        <time>2020-07-14T04:31:31Z</time>
      </trkpt>
      <trkpt lat="45.05001" lon="6.22693">
        <ele>2441</ele>
        <time>2020-07-14T04:32:26Z</time>
      </trkpt>
      <trkpt lat="45.04996" lon="6.22724">
        <ele>2441</ele>
        <time>2020-07-14T04:32:56Z</time>
      </trkpt>
      <trkpt lat="45.04996" lon="6.22732">
        <ele>2441</ele>
        <time>2020-07-14T04:33:03Z</time>
      </trkpt>
      <trkpt lat="45.04999" lon="6.22747">
        <ele>2441</ele>
        <time>2020-07-14T04:33:18Z</time>
      </trkpt>
      <trkpt lat="45.05012" lon="6.22781">
        <ele>2443</ele>
        <time>2020-07-14T04:33:55Z</time>
      </trkpt>
      <trkpt lat="45.05013" lon="6.22801">
        <ele>2443</ele>
        <time>2020-07-14T04:34:14Z</time>
      </trkpt>
      <trkpt lat="45.04987" lon="6.22817">
        <ele>2440</ele>
        <time>2020-07-14T04:34:51Z</time>
      </trkpt>
      <trkpt lat="45.04977" lon="6.22836">
        <ele>2439</ele>
        <time>2020-07-14T04:35:14Z</time>
      </trkpt>
      <trkpt lat="45.04972" lon="6.22857">
        <ele>2438</ele>
        <time>2020-07-14T04:35:35Z</time>
      </trkpt>
      <trkpt lat="45.04962" lon="6.22872">
        <ele>2435</ele>
        <time>2020-07-14T04:35:54Z</time>
      </trkpt>
      <trkpt lat="45.04928" lon="6.22879">
        <ele>2429</ele>
        <time>2020-07-14T04:36:40Z</time>
      </trkpt>
      <trkpt lat="45.04907" lon="6.22871">
        <ele>2425</ele>
        <time>2020-07-14T04:37:09Z</time>
      </trkpt>
      <trkpt lat="45.049" lon="6.22868">
        <ele>2424</ele>
        <time>2020-07-15T22:55:20Z</time>
      </trkpt>
      <trkpt lat="45.04928" lon="6.22879">
        <ele>2429</ele>
        <time>2020-07-15T22:55:59Z</time>
      </trkpt>
      <trkpt lat="45.04962" lon="6.22872">
        <ele>2435</ele>
        <time>2020-07-15T22:56:45Z</time>
      </trkpt>
      <trkpt lat="45.04972" lon="6.22857">
        <ele>2438</ele>
        <time>2020-07-15T22:57:04Z</time>
      </trkpt>
      <trkpt lat="45.04977" lon="6.22836">
        <ele>2439</ele>
        <time>2020-07-15T22:57:25Z</time>
      </trkpt>
      <trkpt lat="45.04987" lon="6.22817">
        <ele>2440</ele>
        <time>2020-07-15T22:57:47Z</time>
      </trkpt>
      <trkpt lat="45.05013" lon="6.22801">
        <ele>2443</ele>
        <time>2020-07-15T22:58:25Z</time>
      </trkpt>
      <trkpt lat="45.05012" lon="6.22781">
        <ele>2443</ele>
        <time>2020-07-15T22:58:44Z</time>
      </trkpt>
      <trkpt lat="45.04999" lon="6.22747">
        <ele>2441</ele>
        <time>2020-07-15T22:59:20Z</time>
      </trkpt>
      <trkpt lat="45.04996" lon="6.22732">
        <ele>2441</ele>
        <time>2020-07-15T22:59:35Z</time>
      </trkpt>
      <trkpt lat="45.04996" lon="6.22724">
        <ele>2441</ele>
        <time>2020-07-15T22:59:43Z</time>
      </trkpt>
      <trkpt lat="45.05001" lon="6.22693">
        <ele>2441</ele>
        <time>2020-07-15T23:00:13Z</time>
      </trkpt>
      <trkpt lat="45.0501" lon="6.22689">
        <ele>2441</ele>
        <time>2020-07-15T23:00:25Z</time>
      </trkpt>
      <trkpt lat="45.05001" lon="6.22693">
        <ele>2441</ele>
        <time>2020-07-15T23:00:38Z</time>
      </trkpt>
      <trkpt lat="45.04996" lon="6.22724">
        <ele>2441</ele>
        <time>2020-07-15T23:01:08Z</time>
      </trkpt>
      <trkpt lat="45.04996" lon="6.22732">
        <ele>2441</ele>
        <time>2020-07-15T23:01:15Z</time>
      </trkpt>
      <trkpt lat="45.04999" lon="6.22747">
        <ele>2441</ele>
        <time>2020-07-15T23:01:30Z</time>
      </trkpt>
      <trkpt lat="45.05012" lon="6.22781">
        <ele>2443</ele>
        <time>2020-07-15T23:02:07Z</time>
      </trkpt>
      <trkpt lat="45.05013" lon="6.22801">
        <ele>2443</ele>
        <time>2020-07-15T23:02:25Z</time>
      </trkpt>
      <trkpt lat="45.04987" lon="6.22817">
        <ele>2440</ele>
        <time>2020-07-15T23:03:03Z</time>
      </trkpt>
      <trkpt lat="45.04977" lon="6.22836">
        <ele>2439</ele>
        <time>2020-07-15T23:03:26Z</time>
      </trkpt>
      <trkpt lat="45.04972" lon="6.22857">
        <ele>2438</ele>
        <time>2020-07-15T23:03:47Z</time>
      </trkpt>
      <trkpt lat="45.04962" lon="6.22872">
        <ele>2435</ele>
        <time>2020-07-15T23:04:06Z</time>
      </trkpt>
      <trkpt lat="45.04954" lon="6.22891">
        <ele>2433</ele>
        <time>2020-07-15T23:04:27Z</time>
      </trkpt>
      <trkpt lat="45.0495" lon="6.22913">
        <ele>2431</ele>
        <time>2020-07-15T23:04:48Z</time>
      </trkpt>
      <trkpt lat="45.04945" lon="6.22945">
        <ele>2431</ele>
        <time>2020-07-15T23:05:19Z</time>
      </trkpt>
      <trkpt lat="45.04935" lon="6.22972">
        <ele>2430</ele>
        <time>2020-07-15T23:05:48Z</time>
      </trkpt>
      <trkpt lat="45.04926" lon="6.23002">
        <ele>2431</ele>
        <time>2020-07-15T23:06:19Z</time>
      </trkpt>
      <trkpt lat="45.04921" lon="6.23015">
        <ele>2431</ele>
        <time>2020-07-15T23:06:33Z</time>
      </trkpt>
      <trkpt lat="45.04919" lon="6.23028">
        <ele>2431</ele>
        <time>2020-07-15T23:06:45Z</time>
      </trkpt>
      <trkpt lat="45.04919" lon="6.23055">
        <ele>2433</ele>
        <time>2020-07-15T23:07:11Z</time>
      </trkpt>
      <trkpt lat="45.04926" lon="6.23077">
        <ele>2434</ele>
        <time>2020-07-15T23:07:33Z</time>
      </trkpt>
      <trkpt lat="45.04927" lon="6.23088">
        <ele>2434</ele>
        <time>2020-07-15T23:07:44Z</time>
      </trkpt>
      <trkpt lat="45.0493" lon="6.23097">
        <ele>2433</ele>
        <time>2020-07-15T23:07:53Z</time>
      </trkpt>
      <trkpt lat="45.04926" lon="6.23107">
        <ele>2431</ele>
        <time>2020-07-15T23:08:04Z</time>
      </trkpt>
      <trkpt lat="45.0493" lon="6.23119">
        <ele>2429</ele>
        <time>2020-07-15T23:08:16Z</time>
      </trkpt>
      <trkpt lat="45.0494" lon="6.23123">
        <ele>2429</ele>
        <time>2020-07-15T23:08:30Z</time>
      </trkpt>
      <trkpt lat="45.04937" lon="6.2313">
        <ele>2428</ele>
        <time>2020-07-15T23:08:38Z</time>
      </trkpt>
      <trkpt lat="45.0494" lon="6.23147">
        <ele>2425</ele>
        <time>2020-07-15T23:08:55Z</time>
      </trkpt>
      <trkpt lat="45.04953" lon="6.23194">
        <ele>2419</ele>
        <time>2020-07-15T23:09:42Z</time>
      </trkpt>
      <trkpt lat="45.04964" lon="6.23212">
        <ele>2418</ele>
        <time>2020-07-15T23:10:05Z</time>
      </trkpt>
      <trkpt lat="45.04968" lon="6.23225">
        <ele>2416</ele>
        <time>2020-07-15T23:10:18Z</time>
      </trkpt>
      <trkpt lat="45.04969" lon="6.23229">
        <ele>2416</ele>
        <time>2020-07-15T23:10:22Z</time>
      </trkpt>
      <trkpt lat="45.0496" lon="6.23258">
        <ele>2410</ele>
        <time>2020-07-15T23:10:52Z</time>
      </trkpt>
      <trkpt lat="45.04956" lon="6.23286">
        <ele>2408</ele>
        <time>2020-07-15T23:11:19Z</time>
      </trkpt>
      <trkpt lat="45.04961" lon="6.2334">
        <ele>2404</ele>
        <time>2020-07-15T23:12:10Z</time>
      </trkpt>
      <trkpt lat="45.04978" lon="6.23375">
        <ele>2401</ele>
        <time>2020-07-15T23:12:50Z</time>
      </trkpt>
      <trkpt lat="45.04987" lon="6.23407">
        <ele>2398</ele>
        <time>2020-07-15T23:13:23Z</time>
      </trkpt>
      <trkpt lat="45.05003" lon="6.2343">
        <ele>2396</ele>
        <time>2020-07-15T23:13:53Z</time>
      </trkpt>
      <trkpt lat="45.05017" lon="6.23469">
        <ele>2391</ele>
        <time>2020-07-15T23:14:34Z</time>
      </trkpt>
      <trkpt lat="45.05022" lon="6.23485">
        <ele>2389</ele>
        <time>2020-07-15T23:14:51Z</time>
      </trkpt>
      <trkpt lat="45.05028" lon="6.23531">
        <ele>2385</ele>
        <time>2020-07-15T23:15:35Z</time>
      </trkpt>
      <trkpt lat="45.05039" lon="6.2357">
        <ele>2383</ele>
        <time>2020-07-15T23:16:14Z</time>
      </trkpt>
      <trkpt lat="45.051" lon="6.23608">
        <ele>2379</ele>
        <time>2020-07-15T23:17:43Z</time>
      </trkpt>
      <trkpt lat="45.05115" lon="6.2362">
        <ele>2378</ele>
        <time>2020-07-15T23:18:06Z</time>
      </trkpt>
      <trkpt lat="45.05201" lon="6.23647">
        <ele>2372</ele>
        <time>2020-07-15T23:20:04Z</time>
      </trkpt>
      <trkpt lat="45.05266" lon="6.23634">
        <ele>2371</ele>
        <time>2020-07-15T23:21:32Z</time>
      </trkpt>
      <trkpt lat="45.05321" lon="6.23632">
        <ele>2371</ele>
        <time>2020-07-15T23:22:45Z</time>
      </trkpt>
      <trkpt lat="45.0534" lon="6.23625">
        <ele>2372</ele>
        <time>2020-07-15T23:23:11Z</time>
      </trkpt>
      <trkpt lat="45.05361" lon="6.23625">
        <ele>2372</ele>
        <time>2020-07-15T23:23:39Z</time>
      </trkpt>
      <trkpt lat="45.0544" lon="6.23679">
        <ele>2364</ele>
        <time>2020-07-15T23:25:36Z</time>
      </trkpt>
      <trkpt lat="45.0546" lon="6.2369">
        <ele>2362</ele>
        <time>2020-07-15T23:26:05Z</time>
      </trkpt>
      <trkpt lat="45.05475" lon="6.2369">
        <ele>2362</ele>
        <time>2020-07-15T23:26:25Z</time>
      </trkpt>
      <trkpt lat="45.05508" lon="6.23682">
        <ele>2363</ele>
        <time>2020-07-15T23:27:10Z</time>
      </trkpt>
      <trkpt lat="45.05522" lon="6.23683">
        <ele>2363</ele>
        <time>2020-07-15T23:27:28Z</time>
      </trkpt>
      <trkpt lat="45.05537" lon="6.23688">
        <ele>2362</ele>
        <time>2020-07-15T23:27:49Z</time>
      </trkpt>
      <trkpt lat="45.05566" lon="6.23711">
        <ele>2358</ele>
        <time>2020-07-15T23:28:33Z</time>
      </trkpt>
      <trkpt lat="45.05583" lon="6.23729">
        <ele>2355</ele>
        <time>2020-07-15T23:29:02Z</time>
      </trkpt>
      <trkpt lat="45.05622" lon="6.23757">
        <ele>2351</ele>
        <time>2020-07-15T23:30:00Z</time>
      </trkpt>
      <trkpt lat="45.05647" lon="6.23762">
        <ele>2351</ele>
        <time>2020-07-15T23:30:34Z</time>
      </trkpt>
      <trkpt lat="45.05659" lon="6.23751">
        <ele>2354</ele>
        <time>2020-07-15T23:30:53Z</time>
      </trkpt>
      <trkpt lat="45.05671" lon="6.23745">
        <ele>2356</ele>
        <time>2020-07-15T23:31:10Z</time>
      </trkpt>
      <trkpt lat="45.05695" lon="6.2374">
        <ele>2357</ele>
        <time>2020-07-15T23:31:42Z</time>
      </trkpt>
      <trkpt lat="45.05717" lon="6.2374">
        <ele>2358</ele>
        <time>2020-07-15T23:32:11Z</time>
      </trkpt>
      <trkpt lat="45.05739" lon="6.2376">
        <ele>2353</ele>
        <time>2020-07-15T23:32:46Z</time>
      </trkpt>
      <trkpt lat="45.05755" lon="6.23783">
        <ele>2348</ele>
        <time>2020-07-15T23:33:17Z</time>
      </trkpt>
      <trkpt lat="45.05768" lon="6.2379">
        <ele>2347</ele>
        <time>2020-07-15T23:33:35Z</time>
      </trkpt>
      <trkpt lat="45.05775" lon="6.23784">
        <ele>2348</ele>
        <time>2020-07-15T23:33:46Z</time>
      </trkpt>
      <trkpt lat="45.05786" lon="6.23789">
        <ele>2348</ele>
        <time>2020-07-15T23:34:02Z</time>
      </trkpt>
      <trkpt lat="45.05795" lon="6.2379">
        <ele>2348</ele>
        <time>2020-07-15T23:34:14Z</time>
      </trkpt>
      <trkpt lat="45.05806" lon="6.23786">
        <ele>2349</ele>
        <time>2020-07-15T23:34:29Z</time>
      </trkpt>
      <trkpt lat="45.05833" lon="6.23795">
        <ele>2347</ele>
        <time>2020-07-15T23:35:06Z</time>
      </trkpt>
      <trkpt lat="45.05874" lon="6.23813">
        <ele>2351</ele>
        <time>2020-07-15T23:36:03Z</time>
      </trkpt>
      <trkpt lat="45.05914" lon="6.23839">
        <ele>2354</ele>
        <time>2020-07-15T23:37:02Z</time>
      </trkpt>
      <trkpt lat="45.05921" lon="6.23856">
        <ele>2354</ele>
        <time>2020-07-15T23:37:20Z</time>
      </trkpt>
      <trkpt lat="45.05928" lon="6.23868">
        <ele>2355</ele>
        <time>2020-07-15T23:37:35Z</time>
      </trkpt>
      <trkpt lat="45.05922" lon="6.23873">
        <ele>2354</ele>
        <time>2020-07-15T23:37:44Z</time>
      </trkpt>
      <trkpt lat="45.05878" lon="6.23878">
        <ele>2347</ele>
        <time>2020-07-15T23:38:43Z</time>
      </trkpt>
      <trkpt lat="45.05808" lon="6.23909">
        <ele>2333</ele>
        <time>2020-07-15T23:40:21Z</time>
      </trkpt>
      <trkpt lat="45.05779" lon="6.23937">
        <ele>2326</ele>
        <time>2020-07-15T23:41:08Z</time>
      </trkpt>
      <trkpt lat="45.05761" lon="6.23965">
        <ele>2320</ele>
        <time>2020-07-15T23:41:44Z</time>
      </trkpt>
      <trkpt lat="45.05762" lon="6.23972">
        <ele>2320</ele>
        <time>2020-07-15T23:41:50Z</time>
      </trkpt>
      <trkpt lat="45.05757" lon="6.2399">
        <ele>2317</ele>
        <time>2020-07-15T23:42:09Z</time>
      </trkpt>
      <trkpt lat="45.05757" lon="6.23997">
        <ele>2316</ele>
        <time>2020-07-15T23:42:15Z</time>
      </trkpt>
      <trkpt lat="45.05748" lon="6.24017">
        <ele>2312</ele>
        <time>2020-07-15T23:42:38Z</time>
      </trkpt>
      <trkpt lat="45.05747" lon="6.2403">
        <ele>2311</ele>
        <time>2020-07-15T23:42:50Z</time>
      </trkpt>
      <trkpt lat="45.05735" lon="6.24064">
        <ele>2308</ele>
        <time>2020-07-15T23:43:26Z</time>
      </trkpt>
      <trkpt lat="45.05726" lon="6.24083">
        <ele>2306</ele>
        <time>2020-07-15T23:43:47Z</time>
      </trkpt>
      <trkpt lat="45.05729" lon="6.24133">
        <ele>2302</ele>
        <time>2020-07-15T23:44:35Z</time>
      </trkpt>
      <trkpt lat="45.05727" lon="6.24146">
        <ele>2301</ele>
        <time>2020-07-15T23:44:47Z</time>
      </trkpt>
      <trkpt lat="45.0572" lon="6.24154">
        <ele>2301</ele>
        <time>2020-07-15T23:44:59Z</time>
      </trkpt>
      <trkpt lat="45.05712" lon="6.24179">
        <ele>2298</ele>
        <time>2020-07-15T23:45:25Z</time>
      </trkpt>
      <trkpt lat="45.05709" lon="6.24193">
        <ele>2296</ele>
        <time>2020-07-15T23:45:39Z</time>
      </trkpt>
      <trkpt lat="45.05708" lon="6.24215">
        <ele>2293</ele>
        <time>2020-07-15T23:46:00Z</time>
      </trkpt>
      <trkpt lat="45.05712" lon="6.24284">
        <ele>2285</ele>
        <time>2020-07-15T23:47:05Z</time>
      </trkpt>
      <trkpt lat="45.0571" lon="6.24307">
        <ele>2282</ele>
        <time>2020-07-15T23:47:27Z</time>
      </trkpt>
      <trkpt lat="45.05727" lon="6.24403">
        <ele>2271</ele>
        <time>2020-07-15T23:49:00Z</time>
      </trkpt>
      <trkpt lat="45.05727" lon="6.24444">
        <ele>2266</ele>
        <time>2020-07-15T23:49:39Z</time>
      </trkpt>
      <trkpt lat="45.05733" lon="6.24495">
        <ele>2264</ele>
        <time>2020-07-15T23:50:27Z</time>
      </trkpt>
      <trkpt lat="45.05726" lon="6.24518">
        <ele>2260</ele>
        <time>2020-07-15T23:50:51Z</time>
      </trkpt>
      <trkpt lat="45.05721" lon="6.24548">
        <ele>2256</ele>
        <time>2020-07-15T23:51:20Z</time>
      </trkpt>
      <trkpt lat="45.05721" lon="6.24564">
        <ele>2255</ele>
        <time>2020-07-15T23:51:35Z</time>
      </trkpt>
      <trkpt lat="45.05713" lon="6.24597">
        <ele>2251</ele>
        <time>2020-07-15T23:52:08Z</time>
      </trkpt>
      <trkpt lat="45.05709" lon="6.24623">
        <ele>2248</ele>
        <time>2020-07-15T23:52:33Z</time>
      </trkpt>
      <trkpt lat="45.05705" lon="6.24705">
        <ele>2243</ele>
        <time>2020-07-15T23:53:51Z</time>
      </trkpt>
      <trkpt lat="45.05689" lon="6.24788">
        <ele>2236</ele>
        <time>2020-07-15T23:55:12Z</time>
      </trkpt>
      <trkpt lat="45.05687" lon="6.2481">
        <ele>2234</ele>
        <time>2020-07-15T23:55:33Z</time>
      </trkpt>
      <trkpt lat="45.0568" lon="6.24863">
        <ele>2229</ele>
        <time>2020-07-15T23:56:23Z</time>
      </trkpt>
      <trkpt lat="45.05681" lon="6.24893">
        <ele>2226</ele>
        <time>2020-07-15T23:56:52Z</time>
      </trkpt>
      <trkpt lat="45.05696" lon="6.24936">
        <ele>2224</ele>
        <time>2020-07-15T23:57:37Z</time>
      </trkpt>
      <trkpt lat="45.05694" lon="6.24975">
        <ele>2220</ele>
        <time>2020-07-15T23:58:14Z</time>
      </trkpt>
      <trkpt lat="45.05688" lon="6.25001">
        <ele>2217</ele>
        <time>2020-07-15T23:58:40Z</time>
      </trkpt>
      <trkpt lat="45.05694" lon="6.25047">
        <ele>2215</ele>
        <time>2020-07-15T23:59:24Z</time>
      </trkpt>
      <trkpt lat="45.05702" lon="6.2507">
        <ele>2214</ele>
        <time>2020-07-15T23:59:48Z</time>
      </trkpt>
      <trkpt lat="45.05704" lon="6.25097">
        <ele>2212</ele>
        <time>2020-07-15T00:00:13Z</time>
      </trkpt>
      <trkpt lat="45.0571" lon="6.25127">
        <ele>2208</ele>
        <time>2020-07-15T00:00:43Z</time>
      </trkpt>
      <trkpt lat="45.05712" lon="6.25164">
        <ele>2204</ele>
        <time>2020-07-15T00:01:18Z</time>
      </trkpt>
      <trkpt lat="45.05724" lon="6.25162">
        <ele>2206</ele>
        <time>2020-07-15T00:01:34Z</time>
      </trkpt>
      <trkpt lat="45.05728" lon="6.25196">
        <ele>2205</ele>
        <time>2020-07-15T00:02:06Z</time>
      </trkpt>
      <trkpt lat="45.05738" lon="6.2521">
        <ele>2207</ele>
        <time>2020-07-15T00:02:25Z</time>
      </trkpt>
      <trkpt lat="45.0574" lon="6.25239">
        <ele>2206</ele>
        <time>2020-07-15T00:02:53Z</time>
      </trkpt>
      <trkpt lat="45.05717" lon="6.25244">
        <ele>2203</ele>
        <time>2020-07-15T00:03:24Z</time>
      </trkpt>
      <trkpt lat="45.05705" lon="6.25247">
        <ele>2202</ele>
        <time>2020-07-15T00:03:40Z</time>
      </trkpt>
      <trkpt lat="45.05598" lon="6.25326">
        <ele>2205</ele>
        <time>2020-07-15T00:06:21Z</time>
      </trkpt>
      <trkpt lat="45.05544" lon="6.25377">
        <ele>2209</ele>
        <time>2020-07-15T00:07:48Z</time>
      </trkpt>
      <trkpt lat="45.05398" lon="6.25436">
        <ele>2210</ele>
        <time>2020-07-15T00:11:10Z</time>
      </trkpt>
      <trkpt lat="45.05361" lon="6.25463">
        <ele>2215</ele>
        <time>2020-07-15T00:12:06Z</time>
      </trkpt>
      <trkpt lat="45.05278" lon="6.25541">
        <ele>2220</ele>
        <time>2020-07-15T00:14:19Z</time>
      </trkpt>
      <trkpt lat="45.05202" lon="6.25684">
        <ele>2220</ele>
        <time>2020-07-15T00:17:08Z</time>
      </trkpt>
      <trkpt lat="45.05186" lon="6.25738">
        <ele>2217</ele>
        <time>2020-07-15T00:18:03Z</time>
      </trkpt>
      <trkpt lat="45.05184" lon="6.25762">
        <ele>2216</ele>
        <time>2020-07-15T00:18:25Z</time>
      </trkpt>
      <trkpt lat="45.05201" lon="6.25891">
        <ele>2205</ele>
        <time>2020-07-15T00:20:29Z</time>
      </trkpt>
      <trkpt lat="45.05216" lon="6.25934">
        <ele>2203</ele>
        <time>2020-07-15T00:21:14Z</time>
      </trkpt>
      <trkpt lat="45.05217" lon="6.25962">
        <ele>2198</ele>
        <time>2020-07-15T00:21:41Z</time>
      </trkpt>
      <trkpt lat="45.05223" lon="6.2602">
        <ele>2191</ele>
        <time>2020-07-15T00:22:36Z</time>
      </trkpt>
      <trkpt lat="45.05234" lon="6.26056">
        <ele>2190</ele>
        <time>2020-07-15T00:23:13Z</time>
      </trkpt>
      <trkpt lat="45.05247" lon="6.26118">
        <ele>2186</ele>
        <time>2020-07-15T00:24:14Z</time>
      </trkpt>
      <trkpt lat="45.05263" lon="6.26167">
        <ele>2185</ele>
        <time>2020-07-15T00:25:05Z</time>
      </trkpt>
      <trkpt lat="45.05257" lon="6.26184">
        <ele>2182</ele>
        <time>2020-07-15T00:25:23Z</time>
      </trkpt>
      <trkpt lat="45.05255" lon="6.26197">
        <ele>2180</ele>
        <time>2020-07-15T00:25:35Z</time>
      </trkpt>
      <trkpt lat="45.05266" lon="6.26286">
        <ele>2174</ele>
        <time>2020-07-15T00:27:01Z</time>
      </trkpt>
      <trkpt lat="45.05266" lon="6.26313">
        <ele>2170</ele>
        <time>2020-07-15T00:27:26Z</time>
      </trkpt>
      <trkpt lat="45.05269" lon="6.26328">
        <ele>2169</ele>
        <time>2020-07-15T00:27:41Z</time>
      </trkpt>
      <trkpt lat="45.05299" lon="6.26364">
        <ele>2174</ele>
        <time>2020-07-15T00:28:33Z</time>
      </trkpt>
      <trkpt lat="45.05299" lon="6.26399">
        <ele>2170</ele>
        <time>2020-07-15T00:29:06Z</time>
      </trkpt>
      <trkpt lat="45.05335" lon="6.26572">
        <ele>2166</ele>
        <time>2020-07-15T00:31:56Z</time>
      </trkpt>
      <trkpt lat="45.05324" lon="6.26606">
        <ele>2162</ele>
        <time>2020-07-15T00:32:31Z</time>
      </trkpt>
      <trkpt lat="45.05324" lon="6.26614">
        <ele>2162</ele>
        <time>2020-07-15T00:32:39Z</time>
      </trkpt>
      <trkpt lat="45.05323" lon="6.26627">
        <ele>2161</ele>
        <time>2020-07-15T00:32:51Z</time>
      </trkpt>
      <trkpt lat="45.05323" lon="6.26641">
        <ele>2161</ele>
        <time>2020-07-15T00:33:05Z</time>
      </trkpt>
      <trkpt lat="45.05323" lon="6.26655">
        <ele>2161</ele>
        <time>2020-07-15T00:33:18Z</time>
      </trkpt>
      <trkpt lat="45.05315" lon="6.26677">
        <ele>2158</ele>
        <time>2020-07-15T00:33:41Z</time>
      </trkpt>
      <trkpt lat="45.05312" lon="6.26694">
        <ele>2154</ele>
        <time>2020-07-15T00:33:58Z</time>
      </trkpt>
      <trkpt lat="45.05311" lon="6.26717">
        <ele>2149</ele>
        <time>2020-07-15T00:34:19Z</time>
      </trkpt>
      <trkpt lat="45.05307" lon="6.26735">
        <ele>2146</ele>
        <time>2020-07-15T00:34:37Z</time>
      </trkpt>
      <trkpt lat="45.05309" lon="6.26749">
        <ele>2142</ele>
        <time>2020-07-15T00:34:51Z</time>
      </trkpt>
      <trkpt lat="45.05313" lon="6.26759">
        <ele>2139</ele>
        <time>2020-07-15T00:35:01Z</time>
      </trkpt>
      <trkpt lat="45.05291" lon="6.26808">
        <ele>2132</ele>
        <time>2020-07-15T00:35:56Z</time>
      </trkpt>
      <trkpt lat="45.05288" lon="6.26825">
        <ele>2129</ele>
        <time>2020-07-15T00:36:13Z</time>
      </trkpt>
      <trkpt lat="45.05287" lon="6.26872">
        <ele>2118</ele>
        <time>2020-07-15T00:36:57Z</time>
      </trkpt>
      <trkpt lat="45.05279" lon="6.26891">
        <ele>2115</ele>
        <time>2020-07-15T00:37:18Z</time>
      </trkpt>
      <trkpt lat="45.05275" lon="6.26907">
        <ele>2112</ele>
        <time>2020-07-15T00:37:34Z</time>
      </trkpt>
      <trkpt lat="45.05274" lon="6.26933">
        <ele>2106</ele>
        <time>2020-07-15T00:37:58Z</time>
      </trkpt>
      <trkpt lat="45.05252" lon="6.26965">
        <ele>2106</ele>
        <time>2020-07-15T00:38:40Z</time>
      </trkpt>
      <trkpt lat="45.05246" lon="6.26978">
        <ele>2106</ele>
        <time>2020-07-15T00:38:55Z</time>
      </trkpt>
      <trkpt lat="45.05229" lon="6.27002">
        <ele>2105</ele>
        <time>2020-07-15T00:39:27Z</time>
      </trkpt>
      <trkpt lat="45.05218" lon="6.27024">
        <ele>2103</ele>
        <time>2020-07-15T00:39:53Z</time>
      </trkpt>
      <trkpt lat="45.05209" lon="6.27057">
        <ele>2099</ele>
        <time>2020-07-15T00:40:26Z</time>
      </trkpt>
      <trkpt lat="45.05209" lon="6.27068">
        <ele>2097</ele>
        <time>2020-07-15T00:40:36Z</time>
      </trkpt>
      <trkpt lat="45.05207" lon="6.27076">
        <ele>2096</ele>
        <time>2020-07-15T00:40:44Z</time>
      </trkpt>
      <trkpt lat="45.05195" lon="6.27097">
        <ele>2096</ele>
        <time>2020-07-15T00:41:10Z</time>
      </trkpt>
      <trkpt lat="45.05192" lon="6.27118">
        <ele>2093</ele>
        <time>2020-07-15T00:41:30Z</time>
      </trkpt>
      <trkpt lat="45.0518" lon="6.27156">
        <ele>2090</ele>
        <time>2020-07-15T00:42:09Z</time>
      </trkpt>
      <trkpt lat="45.05177" lon="6.27162">
        <ele>2090</ele>
        <time>2020-07-15T00:42:16Z</time>
      </trkpt>
      <trkpt lat="45.05178" lon="6.27199">
        <ele>2082</ele>
        <time>2020-07-15T00:42:51Z</time>
      </trkpt>
      <trkpt lat="45.05176" lon="6.27211">
        <ele>2080</ele>
        <time>2020-07-15T00:43:03Z</time>
      </trkpt>
      <trkpt lat="45.05175" lon="6.27214">
        <ele>2079</ele>
        <time>2020-07-15T00:43:06Z</time>
      </trkpt>
      <trkpt lat="45.05163" lon="6.27225">
        <ele>2081</ele>
        <time>2020-07-15T00:43:25Z</time>
      </trkpt>
      <trkpt lat="45.0515" lon="6.27259">
        <ele>2075</ele>
        <time>2020-07-15T00:44:01Z</time>
      </trkpt>
      <trkpt lat="45.05143" lon="6.27288">
        <ele>2069</ele>
        <time>2020-07-15T00:44:30Z</time>
      </trkpt>
      <trkpt lat="45.05137" lon="6.27304">
        <ele>2066</ele>
        <time>2020-07-15T00:44:47Z</time>
      </trkpt>
      <trkpt lat="45.05124" lon="6.27322">
        <ele>2063</ele>
        <time>2020-07-15T00:45:12Z</time>
      </trkpt>
      <trkpt lat="45.05111" lon="6.27328">
        <ele>2062</ele>
        <time>2020-07-15T00:45:30Z</time>
      </trkpt>
      <trkpt lat="45.05101" lon="6.27336">
        <ele>2061</ele>
        <time>2020-07-15T00:45:45Z</time>
      </trkpt>
      <trkpt lat="45.05096" lon="6.27346">
        <ele>2059</ele>
        <time>2020-07-15T00:45:57Z</time>
      </trkpt>
      <trkpt lat="45.05089" lon="6.27353">
        <ele>2058</ele>
        <time>2020-07-15T00:46:08Z</time>
      </trkpt>
      <trkpt lat="45.05085" lon="6.27359">
        <ele>2057</ele>
        <time>2020-07-15T00:46:16Z</time>
      </trkpt>
      <trkpt lat="45.05088" lon="6.27364">
        <ele>2055</ele>
        <time>2020-07-15T00:46:22Z</time>
      </trkpt>
      <trkpt lat="45.05092" lon="6.27367">
        <ele>2054</ele>
        <time>2020-07-15T00:46:28Z</time>
      </trkpt>
      <trkpt lat="45.05084" lon="6.27377">
        <ele>2052</ele>
        <time>2020-07-15T00:46:42Z</time>
      </trkpt>
      <trkpt lat="45.05086" lon="6.27386">
        <ele>2049</ele>
        <time>2020-07-15T00:46:51Z</time>
      </trkpt>
      <trkpt lat="45.05089" lon="6.27387">
        <ele>2049</ele>
        <time>2020-07-15T00:46:55Z</time>
      </trkpt>
      <trkpt lat="45.0509" lon="6.27391">
        <ele>2047</ele>
        <time>2020-07-15T00:46:59Z</time>
      </trkpt>
      <trkpt lat="45.05055" lon="6.27421">
        <ele>2036</ele>
        <time>2020-07-15T00:47:54Z</time>
      </trkpt>
      <trkpt lat="45.05041" lon="6.27436">
        <ele>2031</ele>
        <time>2020-07-15T00:48:17Z</time>
      </trkpt>
      <trkpt lat="45.0503" lon="6.27441">
        <ele>2028</ele>
        <time>2020-07-15T00:48:33Z</time>
      </trkpt>
      <trkpt lat="45.05029" lon="6.27447">
        <ele>2026</ele>
        <time>2020-07-15T00:48:39Z</time>
      </trkpt>
      <trkpt lat="45.05034" lon="6.2745">
        <ele>2026</ele>
        <time>2020-07-15T00:48:46Z</time>
      </trkpt>
      <trkpt lat="45.05036" lon="6.27458">
        <ele>2024</ele>
        <time>2020-07-15T00:48:54Z</time>
      </trkpt>
      <trkpt lat="45.05052" lon="6.2746">
        <ele>2026</ele>
        <time>2020-07-15T00:49:15Z</time>
      </trkpt>
      <trkpt lat="45.05041" lon="6.27472">
        <ele>2021</ele>
        <time>2020-07-15T00:49:34Z</time>
      </trkpt>
      <trkpt lat="45.05046" lon="6.27482">
        <ele>2019</ele>
        <time>2020-07-15T00:49:45Z</time>
      </trkpt>
      <trkpt lat="45.05044" lon="6.27488">
        <ele>2017</ele>
        <time>2020-07-15T00:49:52Z</time>
      </trkpt>
      <trkpt lat="45.05041" lon="6.27488">
        <ele>2017</ele>
        <time>2020-07-15T00:49:56Z</time>
      </trkpt>
      <trkpt lat="45.05039" lon="6.27492">
        <ele>2016</ele>
        <time>2020-07-15T00:50:00Z</time>
      </trkpt>
      <trkpt lat="45.05044" lon="6.27504">
        <ele>2014</ele>
        <time>2020-07-15T00:50:13Z</time>
      </trkpt>
      <trkpt lat="45.05051" lon="6.2751">
        <ele>2014</ele>
        <time>2020-07-15T00:50:24Z</time>
      </trkpt>
      <trkpt lat="45.05068" lon="6.27508">
        <ele>2016</ele>
        <time>2020-07-15T00:50:47Z</time>
      </trkpt>
      <trkpt lat="45.0508" lon="6.27516">
        <ele>2016</ele>
        <time>2020-07-15T00:51:05Z</time>
      </trkpt>
      <trkpt lat="45.05084" lon="6.27524">
        <ele>2015</ele>
        <time>2020-07-15T00:51:14Z</time>
      </trkpt>
      <trkpt lat="45.05084" lon="6.27538">
        <ele>2013</ele>
        <time>2020-07-15T00:51:27Z</time>
      </trkpt>
      <trkpt lat="45.05091" lon="6.27548">
        <ele>2010</ele>
        <time>2020-07-15T00:51:41Z</time>
      </trkpt>
      <trkpt lat="45.05101" lon="6.27546">
        <ele>2009</ele>
        <time>2020-07-15T00:51:54Z</time>
      </trkpt>
      <trkpt lat="45.05105" lon="6.27549">
        <ele>2008</ele>
        <time>2020-07-15T00:52:00Z</time>
      </trkpt>
      <trkpt lat="45.05105" lon="6.27555">
        <ele>2007</ele>
        <time>2020-07-15T00:52:06Z</time>
      </trkpt>
      <trkpt lat="45.05098" lon="6.2757">
        <ele>2005</ele>
        <time>2020-07-15T00:52:23Z</time>
      </trkpt>
      <trkpt lat="45.05098" lon="6.27575">
        <ele>2004</ele>
        <time>2020-07-15T00:52:27Z</time>
      </trkpt>
      <trkpt lat="45.051" lon="6.27578">
        <ele>2003</ele>
        <time>2020-07-15T00:52:31Z</time>
      </trkpt>
      <trkpt lat="45.05113" lon="6.2758">
        <ele>2001</ele>
        <time>2020-07-15T00:52:49Z</time>
      </trkpt>
      <trkpt lat="45.05113" lon="6.27584">
        <ele>2000</ele>
        <time>2020-07-15T00:52:52Z</time>
      </trkpt>
      <trkpt lat="45.05099" lon="6.27601">
        <ele>1997</ele>
        <time>2020-07-15T00:53:17Z</time>
      </trkpt>
      <trkpt lat="45.051" lon="6.27605">
        <ele>1996</ele>
        <time>2020-07-15T00:53:21Z</time>
      </trkpt>
      <trkpt lat="45.05117" lon="6.27616">
        <ele>1991</ele>
        <time>2020-07-15T00:53:46Z</time>
      </trkpt>
      <trkpt lat="45.05129" lon="6.27614">
        <ele>1990</ele>
        <time>2020-07-15T00:54:02Z</time>
      </trkpt>
      <trkpt lat="45.05131" lon="6.27617">
        <ele>1989</ele>
        <time>2020-07-15T00:54:06Z</time>
      </trkpt>
      <trkpt lat="45.05131" lon="6.27624">
        <ele>1988</ele>
        <time>2020-07-15T00:54:13Z</time>
      </trkpt>
      <trkpt lat="45.05127" lon="6.27638">
        <ele>1985</ele>
        <time>2020-07-15T00:54:27Z</time>
      </trkpt>
      <trkpt lat="45.05126" lon="6.2765">
        <ele>1982</ele>
        <time>2020-07-15T00:54:38Z</time>
      </trkpt>
      <trkpt lat="45.05128" lon="6.27668">
        <ele>1977</ele>
        <time>2020-07-15T00:54:55Z</time>
      </trkpt>
      <trkpt lat="45.05124" lon="6.27676">
        <ele>1975</ele>
        <time>2020-07-15T00:55:05Z</time>
      </trkpt>
      <trkpt lat="45.05119" lon="6.27683">
        <ele>1974</ele>
        <time>2020-07-15T00:55:14Z</time>
      </trkpt>
      <trkpt lat="45.0512" lon="6.27688">
        <ele>1972</ele>
        <time>2020-07-15T00:55:19Z</time>
      </trkpt>
      <trkpt lat="45.05131" lon="6.27693">
        <ele>1970</ele>
        <time>2020-07-15T00:55:34Z</time>
      </trkpt>
      <trkpt lat="45.05147" lon="6.27694">
        <ele>1969</ele>
        <time>2020-07-15T00:55:56Z</time>
      </trkpt>
      <trkpt lat="45.05145" lon="6.2771">
        <ele>1965</ele>
        <time>2020-07-15T00:56:11Z</time>
      </trkpt>
      <trkpt lat="45.0514" lon="6.27718">
        <ele>1963</ele>
        <time>2020-07-15T00:56:21Z</time>
      </trkpt>
      <trkpt lat="45.05142" lon="6.2772">
        <ele>1963</ele>
        <time>2020-07-15T00:56:24Z</time>
      </trkpt>
      <trkpt lat="45.05164" lon="6.27708">
        <ele>1965</ele>
        <time>2020-07-15T00:56:56Z</time>
      </trkpt>
      <trkpt lat="45.05196" lon="6.27674">
        <ele>1963</ele>
        <time>2020-07-15T00:57:49Z</time>
      </trkpt>
      <trkpt lat="45.0522" lon="6.27666">
        <ele>1957</ele>
        <time>2020-07-15T00:58:22Z</time>
      </trkpt>
      <trkpt lat="45.05231" lon="6.27668">
        <ele>1953</ele>
        <time>2020-07-15T00:58:37Z</time>
      </trkpt>
      <trkpt lat="45.05234" lon="6.27664">
        <ele>1953</ele>
        <time>2020-07-15T00:58:42Z</time>
      </trkpt>
      <trkpt lat="45.05246" lon="6.27664">
        <ele>1949</ele>
        <time>2020-07-15T00:58:58Z</time>
      </trkpt>
      <trkpt lat="45.05249" lon="6.27673">
        <ele>1946</ele>
        <time>2020-07-15T00:59:08Z</time>
      </trkpt>
      <trkpt lat="45.05249" lon="6.2768">
        <ele>1944</ele>
        <time>2020-07-15T00:59:14Z</time>
      </trkpt>
      <trkpt lat="45.05236" lon="6.27703">
        <ele>1944</ele>
        <time>2020-07-15T00:59:42Z</time>
      </trkpt>
      <trkpt lat="45.05229" lon="6.2771">
        <ele>1944</ele>
        <time>2020-07-15T00:59:54Z</time>
      </trkpt>
      <trkpt lat="45.05224" lon="6.27723">
        <ele>1943</ele>
        <time>2020-07-15T01:00:08Z</time>
      </trkpt>
      <trkpt lat="45.05222" lon="6.27735">
        <ele>1941</ele>
        <time>2020-07-15T01:00:19Z</time>
      </trkpt>
      <trkpt lat="45.05225" lon="6.27747">
        <ele>1937</ele>
        <time>2020-07-15T01:00:31Z</time>
      </trkpt>
      <trkpt lat="45.05231" lon="6.27762">
        <ele>1931</ele>
        <time>2020-07-15T01:00:47Z</time>
      </trkpt>
      <trkpt lat="45.0523" lon="6.27766">
        <ele>1931</ele>
        <time>2020-07-15T01:00:51Z</time>
      </trkpt>
      <trkpt lat="45.05224" lon="6.27773">
        <ele>1930</ele>
        <time>2020-07-15T01:01:02Z</time>
      </trkpt>
      <trkpt lat="45.05236" lon="6.27778">
        <ele>1926</ele>
        <time>2020-07-15T01:01:19Z</time>
      </trkpt>
      <trkpt lat="45.05248" lon="6.27781">
        <ele>1922</ele>
        <time>2020-07-15T01:01:35Z</time>
      </trkpt>
      <trkpt lat="45.05269" lon="6.27771">
        <ele>1919</ele>
        <time>2020-07-15T01:02:04Z</time>
      </trkpt>
      <trkpt lat="45.05297" lon="6.27755">
        <ele>1916</ele>
        <time>2020-07-15T01:02:45Z</time>
      </trkpt>
      <trkpt lat="45.05303" lon="6.27747">
        <ele>1917</ele>
        <time>2020-07-15T01:02:56Z</time>
      </trkpt>
      <trkpt lat="45.05306" lon="6.27736">
        <ele>1918</ele>
        <time>2020-07-15T01:03:07Z</time>
      </trkpt>
      <trkpt lat="45.0531" lon="6.27748">
        <ele>1915</ele>
        <time>2020-07-15T01:03:19Z</time>
      </trkpt>
      <trkpt lat="45.05304" lon="6.27776">
        <ele>1909</ele>
        <time>2020-07-15T01:03:47Z</time>
      </trkpt>
      <trkpt lat="45.05306" lon="6.27778">
        <ele>1909</ele>
        <time>2020-07-15T01:03:50Z</time>
      </trkpt>
      <trkpt lat="45.05319" lon="6.27764">
        <ele>1909</ele>
        <time>2020-07-15T01:04:12Z</time>
      </trkpt>
      <trkpt lat="45.05325" lon="6.2776">
        <ele>1908</ele>
        <time>2020-07-15T01:04:21Z</time>
      </trkpt>
      <trkpt lat="45.05325" lon="6.27763">
        <ele>1908</ele>
        <time>2020-07-15T01:04:24Z</time>
      </trkpt>
      <trkpt lat="45.05313" lon="6.27843">
        <ele>1890</ele>
        <time>2020-07-15T01:05:41Z</time>
      </trkpt>
      <trkpt lat="45.05309" lon="6.27856">
        <ele>1888</ele>
        <time>2020-07-15T01:05:54Z</time>
      </trkpt>
      <trkpt lat="45.05311" lon="6.27858">
        <ele>1887</ele>
        <time>2020-07-15T01:05:57Z</time>
      </trkpt>
      <trkpt lat="45.05324" lon="6.27847">
        <ele>1887</ele>
        <time>2020-07-15T01:06:18Z</time>
      </trkpt>
      <trkpt lat="45.05361" lon="6.27793">
        <ele>1883</ele>
        <time>2020-07-15T01:07:29Z</time>
      </trkpt>
      <trkpt lat="45.05361" lon="6.27807">
        <ele>1880</ele>
        <time>2020-07-15T01:07:42Z</time>
      </trkpt>
      <trkpt lat="45.05354" lon="6.27851">
        <ele>1874</ele>
        <time>2020-07-15T01:08:24Z</time>
      </trkpt>
      <trkpt lat="45.05353" lon="6.27878">
        <ele>1868</ele>
        <time>2020-07-15T01:08:50Z</time>
      </trkpt>
      <trkpt lat="45.05349" lon="6.2792">
        <ele>1860</ele>
        <time>2020-07-15T01:09:30Z</time>
      </trkpt>
      <trkpt lat="45.05359" lon="6.27915">
        <ele>1857</ele>
        <time>2020-07-15T01:09:44Z</time>
      </trkpt>
      <trkpt lat="45.05407" lon="6.27828">
        <ele>1854</ele>
        <time>2020-07-15T01:11:28Z</time>
      </trkpt>
      <trkpt lat="45.0541" lon="6.27854">
        <ele>1848</ele>
        <time>2020-07-15T01:11:53Z</time>
      </trkpt>
      <trkpt lat="45.05409" lon="6.27895">
        <ele>1840</ele>
        <time>2020-07-15T01:12:31Z</time>
      </trkpt>
      <trkpt lat="45.05411" lon="6.27941">
        <ele>1829</ele>
        <time>2020-07-15T01:13:15Z</time>
      </trkpt>
      <trkpt lat="45.05415" lon="6.27938">
        <ele>1828</ele>
        <time>2020-07-15T01:13:21Z</time>
      </trkpt>
      <trkpt lat="45.0542" lon="6.27926">
        <ele>1830</ele>
        <time>2020-07-15T01:13:34Z</time>
      </trkpt>
      <trkpt lat="45.05426" lon="6.27923">
        <ele>1829</ele>
        <time>2020-07-15T01:13:43Z</time>
      </trkpt>
      <trkpt lat="45.05429" lon="6.27933">
        <ele>1825</ele>
        <time>2020-07-15T01:13:53Z</time>
      </trkpt>
      <trkpt lat="45.0543" lon="6.27955">
        <ele>1819</ele>
        <time>2020-07-15T01:14:14Z</time>
      </trkpt>
      <trkpt lat="45.05399" lon="6.28006">
        <ele>1816</ele>
        <time>2020-07-15T01:15:17Z</time>
      </trkpt>
      <trkpt lat="45.05389" lon="6.28036">
        <ele>1811</ele>
        <time>2020-07-15T01:15:48Z</time>
      </trkpt>
      <trkpt lat="45.05388" lon="6.2805">
        <ele>1807</ele>
        <time>2020-07-15T01:16:01Z</time>
      </trkpt>
      <trkpt lat="45.05428" lon="6.28037">
        <ele>1798</ele>
        <time>2020-07-15T01:16:56Z</time>
      </trkpt>
      <trkpt lat="45.0544" lon="6.28028">
        <ele>1797</ele>
        <time>2020-07-15T01:17:14Z</time>
      </trkpt>
      <trkpt lat="45.05482" lon="6.28009">
        <ele>1790</ele>
        <time>2020-07-15T01:18:13Z</time>
      </trkpt>
      <trkpt lat="45.05512" lon="6.28019">
        <ele>1778</ele>
        <time>2020-07-15T01:18:54Z</time>
      </trkpt>
      <trkpt lat="45.0551" lon="6.28029">
        <ele>1777</ele>
        <time>2020-07-15T01:19:04Z</time>
      </trkpt>
      <trkpt lat="45.0552" lon="6.2803">
        <ele>1773</ele>
        <time>2020-07-15T01:19:18Z</time>
      </trkpt>
      <trkpt lat="45.05528" lon="6.28023">
        <ele>1772</ele>
        <time>2020-07-15T01:19:30Z</time>
      </trkpt>
      <trkpt lat="45.0553" lon="6.28024">
        <ele>1772</ele>
        <time>2020-07-15T01:19:33Z</time>
      </trkpt>
      <trkpt lat="45.05529" lon="6.28039">
        <ele>1769</ele>
        <time>2020-07-15T01:19:47Z</time>
      </trkpt>
      <trkpt lat="45.05527" lon="6.28044">
        <ele>1768</ele>
        <time>2020-07-15T01:19:53Z</time>
      </trkpt>
      <trkpt lat="45.05532" lon="6.28045">
        <ele>1766</ele>
        <time>2020-07-15T01:19:59Z</time>
      </trkpt>
      <trkpt lat="45.05541" lon="6.28037">
        <ele>1765</ele>
        <time>2020-07-15T01:20:13Z</time>
      </trkpt>
      <trkpt lat="45.05546" lon="6.28028">
        <ele>1766</ele>
        <time>2020-07-15T01:20:24Z</time>
      </trkpt>
      <trkpt lat="45.05569" lon="6.28016">
        <ele>1761</ele>
        <time>2020-07-15T01:20:57Z</time>
      </trkpt>
      <trkpt lat="45.05578" lon="6.28002">
        <ele>1760</ele>
        <time>2020-07-15T01:21:15Z</time>
      </trkpt>
      <trkpt lat="45.05585" lon="6.27986">
        <ele>1762</ele>
        <time>2020-07-15T01:21:33Z</time>
      </trkpt>
      <trkpt lat="45.05598" lon="6.2798">
        <ele>1761</ele>
        <time>2020-07-15T01:21:51Z</time>
      </trkpt>
      <trkpt lat="45.05617" lon="6.27981">
        <ele>1757</ele>
        <time>2020-07-15T01:22:16Z</time>
      </trkpt>
      <trkpt lat="45.05634" lon="6.27986">
        <ele>1752</ele>
        <time>2020-07-15T01:22:39Z</time>
      </trkpt>
      <trkpt lat="45.05674" lon="6.28008">
        <ele>1743</ele>
        <time>2020-07-15T01:23:37Z</time>
      </trkpt>
      <trkpt lat="45.05691" lon="6.28003">
        <ele>1743</ele>
        <time>2020-07-15T01:24:00Z</time>
      </trkpt>
      <trkpt lat="45.05699" lon="6.28001">
        <ele>1743</ele>
        <time>2020-07-15T01:24:11Z</time>
      </trkpt>
      <trkpt lat="45.057" lon="6.28006">
        <ele>1743</ele>
        <time>2020-07-15T01:24:16Z</time>
      </trkpt>
      <trkpt lat="45.05703" lon="6.28016">
        <ele>1744</ele>
        <time>2020-07-15T01:24:26Z</time>
      </trkpt>
      <trkpt lat="45.05705" lon="6.2803">
        <ele>1745</ele>
        <time>2020-07-15T01:24:39Z</time>
      </trkpt>
      <trkpt lat="45.05703" lon="6.28042">
        <ele>1746</ele>
        <time>2020-07-15T01:24:51Z</time>
      </trkpt>
      <trkpt lat="45.05699" lon="6.28051">
        <ele>1746</ele>
        <time>2020-07-15T01:25:01Z</time>
      </trkpt>
      <trkpt lat="45.05697" lon="6.28053">
        <ele>1746</ele>
        <time>2020-07-15T01:25:04Z</time>
      </trkpt>
      <trkpt lat="45.05682" lon="6.28069">
        <ele>1744</ele>
        <time>2020-07-15T01:25:29Z</time>
      </trkpt>
      <trkpt lat="45.05674" lon="6.28089">
        <ele>1744</ele>
        <time>2020-07-15T01:25:51Z</time>
      </trkpt>
      <trkpt lat="45.05662" lon="6.28115">
        <ele>1747</ele>
        <time>2020-07-15T01:26:20Z</time>
      </trkpt>
      <trkpt lat="45.05634" lon="6.28165">
        <ele>1752</ele>
        <time>2020-07-15T01:27:20Z</time>
      </trkpt>
      <trkpt lat="45.05624" lon="6.28185">
        <ele>1753</ele>
        <time>2020-07-15T01:27:43Z</time>
      </trkpt>
      <trkpt lat="45.05598" lon="6.28227">
        <ele>1754</ele>
        <time>2020-07-15T01:28:36Z</time>
      </trkpt>
      <trkpt lat="45.05576" lon="6.2826">
        <ele>1754</ele>
        <time>2020-07-15T01:29:19Z</time>
      </trkpt>
      <trkpt lat="45.05497" lon="6.28368">
        <ele>1771</ele>
        <time>2020-07-15T01:31:45Z</time>
      </trkpt>
      <trkpt lat="45.05483" lon="6.2839">
        <ele>1775</ele>
        <time>2020-07-15T01:32:13Z</time>
      </trkpt>
      <trkpt lat="45.05459" lon="6.28412">
        <ele>1779</ele>
        <time>2020-07-15T01:32:51Z</time>
      </trkpt>
      <trkpt lat="45.05438" lon="6.28428">
        <ele>1782</ele>
        <time>2020-07-15T01:33:23Z</time>
      </trkpt>
      <trkpt lat="45.05421" lon="6.28449">
        <ele>1785</ele>
        <time>2020-07-15T01:33:53Z</time>
      </trkpt>
      <trkpt lat="45.05419" lon="6.28457">
        <ele>1786</ele>
        <time>2020-07-15T01:34:01Z</time>
      </trkpt>
      <trkpt lat="45.05413" lon="6.28491">
        <ele>1791</ele>
        <time>2020-07-15T01:34:34Z</time>
      </trkpt>
      <trkpt lat="45.05407" lon="6.28552">
        <ele>1793</ele>
        <time>2020-07-15T01:35:32Z</time>
      </trkpt>
      <trkpt lat="45.05397" lon="6.28613">
        <ele>1796</ele>
        <time>2020-07-15T01:36:31Z</time>
      </trkpt>
      <trkpt lat="45.05387" lon="6.28613">
        <ele>1794</ele>
        <time>2020-07-15T01:36:45Z</time>
      </trkpt>
      <trkpt lat="45.05386" lon="6.28626">
        <ele>1795</ele>
        <time>2020-07-15T01:36:57Z</time>
      </trkpt>
      <trkpt lat="45.0536" lon="6.28675">
        <ele>1794</ele>
        <time>2020-07-15T01:37:55Z</time>
      </trkpt>
      <trkpt lat="45.05354" lon="6.28681">
        <ele>1794</ele>
        <time>2020-07-15T01:38:05Z</time>
      </trkpt>
      <trkpt lat="45.05354" lon="6.28691">
        <ele>1797</ele>
        <time>2020-07-15T01:38:14Z</time>
      </trkpt>
      <trkpt lat="45.05342" lon="6.287">
        <ele>1796</ele>
        <time>2020-07-15T01:38:32Z</time>
      </trkpt>
      <trkpt lat="45.05313" lon="6.2873">
        <ele>1795</ele>
        <time>2020-07-15T01:39:20Z</time>
      </trkpt>
      <trkpt lat="45.05287" lon="6.28763">
        <ele>1795</ele>
        <time>2020-07-15T01:40:07Z</time>
      </trkpt>
      <trkpt lat="45.05277" lon="6.28782">
        <ele>1797</ele>
        <time>2020-07-15T01:40:29Z</time>
      </trkpt>
      <trkpt lat="45.05258" lon="6.28823">
        <ele>1801</ele>
        <time>2020-07-15T01:41:15Z</time>
      </trkpt>
      <trkpt lat="45.05249" lon="6.28839">
        <ele>1803</ele>
        <time>2020-07-15T01:41:35Z</time>
      </trkpt>
      <trkpt lat="45.05235" lon="6.28854">
        <ele>1805</ele>
        <time>2020-07-15T01:41:58Z</time>
      </trkpt>
      <trkpt lat="45.05212" lon="6.28866">
        <ele>1805</ele>
        <time>2020-07-15T01:42:31Z</time>
      </trkpt>
      <trkpt lat="45.05135" lon="6.28882">
        <ele>1802</ele>
        <time>2020-07-15T01:44:15Z</time>
      </trkpt>
      <trkpt lat="45.05114" lon="6.28892">
        <ele>1805</ele>
        <time>2020-07-15T01:44:44Z</time>
      </trkpt>
      <trkpt lat="45.05088" lon="6.28909">
        <ele>1811</ele>
        <time>2020-07-15T01:45:22Z</time>
      </trkpt>
      <trkpt lat="45.05053" lon="6.2891">
        <ele>1811</ele>
        <time>2020-07-15T01:46:09Z</time>
      </trkpt>
      <trkpt lat="45.04978" lon="6.28933">
        <ele>1815</ele>
        <time>2020-07-15T01:47:52Z</time>
      </trkpt>
      <trkpt lat="45.04901" lon="6.28962">
        <ele>1790</ele>
        <time>2020-07-15T01:49:38Z</time>
      </trkpt>
      <trkpt lat="45.04891" lon="6.28968">
        <ele>1784</ele>
        <time>2020-07-15T01:49:52Z</time>
      </trkpt>
      <trkpt lat="45.04879" lon="6.28979">
        <ele>1779</ele>
        <time>2020-07-15T01:50:11Z</time>
      </trkpt>
      <trkpt lat="45.04871" lon="6.28991">
        <ele>1778</ele>
        <time>2020-07-15T01:50:27Z</time>
      </trkpt>
      <trkpt lat="45.04857" lon="6.29023">
        <ele>1777</ele>
        <time>2020-07-15T01:51:03Z</time>
      </trkpt>
      <trkpt lat="45.0485" lon="6.29046">
        <ele>1780</ele>
        <time>2020-07-15T01:51:26Z</time>
      </trkpt>
      <trkpt lat="45.04845" lon="6.2907">
        <ele>1785</ele>
        <time>2020-07-15T01:51:50Z</time>
      </trkpt>
      <trkpt lat="45.04839" lon="6.29074">
        <ele>1782</ele>
        <time>2020-07-15T01:51:59Z</time>
      </trkpt>
      <trkpt lat="45.04831" lon="6.29089">
        <ele>1779</ele>
        <time>2020-07-15T01:52:16Z</time>
      </trkpt>
      <trkpt lat="45.04826" lon="6.29107">
        <ele>1775</ele>
        <time>2020-07-15T01:52:35Z</time>
      </trkpt>
      <trkpt lat="45.04836" lon="6.29163">
        <ele>1797</ele>
        <time>2020-07-15T01:53:29Z</time>
      </trkpt>
      <trkpt lat="45.04845" lon="6.29192">
        <ele>1800</ele>
        <time>2020-07-15T01:53:59Z</time>
      </trkpt>
      <trkpt lat="45.04872" lon="6.29246">
        <ele>1804</ele>
        <time>2020-07-15T01:55:01Z</time>
      </trkpt>
      <trkpt lat="45.04903" lon="6.29332">
        <ele>1792</ele>
        <time>2020-07-15T01:56:32Z</time>
      </trkpt>
      <trkpt lat="45.04905" lon="6.2935">
        <ele>1789</ele>
        <time>2020-07-15T01:56:49Z</time>
      </trkpt>
      <trkpt lat="45.04912" lon="6.29382">
        <ele>1784</ele>
        <time>2020-07-15T01:57:21Z</time>
      </trkpt>
      <trkpt lat="45.04909" lon="6.29387">
        <ele>1782</ele>
        <time>2020-07-15T01:57:27Z</time>
      </trkpt>
      <trkpt lat="45.04935" lon="6.29426">
        <ele>1781</ele>
        <time>2020-07-15T01:58:18Z</time>
      </trkpt>
      <trkpt lat="45.04937" lon="6.29432">
        <ele>1781</ele>
        <time>2020-07-15T01:58:24Z</time>
      </trkpt>
      <trkpt lat="45.04945" lon="6.29438">
        <ele>1782</ele>
        <time>2020-07-15T01:58:36Z</time>
      </trkpt>
      <trkpt lat="45.04937" lon="6.29432">
        <ele>1781</ele>
        <time>2020-07-15T01:58:48Z</time>
      </trkpt>
      <trkpt lat="45.04935" lon="6.29439">
        <ele>1779</ele>
        <time>2020-07-15T01:58:55Z</time>
      </trkpt>
      <trkpt lat="45.04954" lon="6.29468">
        <ele>1780</ele>
        <time>2020-07-15T01:59:33Z</time>
      </trkpt>
      <trkpt lat="45.04962" lon="6.29505">
        <ele>1777</ele>
        <time>2020-07-15T02:00:09Z</time>
      </trkpt>
      <trkpt lat="45.04956" lon="6.29525">
        <ele>1773</ele>
        <time>2020-07-15T02:00:30Z</time>
      </trkpt>
      <trkpt lat="45.04952" lon="6.29529">
        <ele>1771</ele>
        <time>2020-07-15T02:00:36Z</time>
      </trkpt>
      <trkpt lat="45.04947" lon="6.2953">
        <ele>1770</ele>
        <time>2020-07-15T02:00:43Z</time>
      </trkpt>
      <trkpt lat="45.04944" lon="6.29529">
        <ele>1769</ele>
        <time>2020-07-15T02:00:47Z</time>
      </trkpt>
      <trkpt lat="45.04933" lon="6.29538">
        <ele>1765</ele>
        <time>2020-07-15T02:01:04Z</time>
      </trkpt>
      <trkpt lat="45.04926" lon="6.29536">
        <ele>1763</ele>
        <time>2020-07-15T02:01:13Z</time>
      </trkpt>
      <trkpt lat="45.04925" lon="6.29529">
        <ele>1764</ele>
        <time>2020-07-15T02:01:20Z</time>
      </trkpt>
      <trkpt lat="45.04921" lon="6.29526">
        <ele>1763</ele>
        <time>2020-07-15T02:01:26Z</time>
      </trkpt>
      <trkpt lat="45.04917" lon="6.29526">
        <ele>1762</ele>
        <time>2020-07-15T02:01:32Z</time>
      </trkpt>
      <trkpt lat="45.04913" lon="6.29524">
        <ele>1761</ele>
        <time>2020-07-15T02:01:37Z</time>
      </trkpt>
      <trkpt lat="45.04894" lon="6.295">
        <ele>1757</ele>
        <time>2020-07-15T02:02:11Z</time>
      </trkpt>
      <trkpt lat="45.04887" lon="6.29515">
        <ele>1753</ele>
        <time>2020-07-15T02:02:28Z</time>
      </trkpt>
      <trkpt lat="45.04883" lon="6.29531">
        <ele>1749</ele>
        <time>2020-07-15T02:02:44Z</time>
      </trkpt>
      <trkpt lat="45.04861" lon="6.29533">
        <ele>1741</ele>
        <time>2020-07-15T02:03:14Z</time>
      </trkpt>
      <trkpt lat="45.0485" lon="6.29541">
        <ele>1736</ele>
        <time>2020-07-15T02:03:30Z</time>
      </trkpt>
      <trkpt lat="45.04847" lon="6.29542">
        <ele>1735</ele>
        <time>2020-07-15T02:03:34Z</time>
      </trkpt>
      <trkpt lat="45.04838" lon="6.29598">
        <ele>1722</ele>
        <time>2020-07-15T02:04:28Z</time>
      </trkpt>
      <trkpt lat="45.04836" lon="6.29645">
        <ele>1713</ele>
        <time>2020-07-15T02:05:13Z</time>
      </trkpt>
      <trkpt lat="45.04829" lon="6.29682">
        <ele>1704</ele>
        <time>2020-07-15T02:05:49Z</time>
      </trkpt>
      <trkpt lat="45.04822" lon="6.29726">
        <ele>1693</ele>
        <time>2020-07-15T02:06:31Z</time>
      </trkpt>
      <trkpt lat="45.04822" lon="6.29758">
        <ele>1688</ele>
        <time>2020-07-15T02:07:01Z</time>
      </trkpt>
      <trkpt lat="45.0483" lon="6.29825">
        <ele>1682</ele>
        <time>2020-07-15T02:08:06Z</time>
      </trkpt>
      <trkpt lat="45.04836" lon="6.29902">
        <ele>1668</ele>
        <time>2020-07-15T02:09:19Z</time>
      </trkpt>
      <trkpt lat="45.04842" lon="6.29932">
        <ele>1663</ele>
        <time>2020-07-15T02:09:48Z</time>
      </trkpt>
      <trkpt lat="45.04847" lon="6.29979">
        <ele>1653</ele>
        <time>2020-07-15T02:10:33Z</time>
      </trkpt>
      <trkpt lat="45.04866" lon="6.30033">
        <ele>1642</ele>
        <time>2020-07-15T02:11:30Z</time>
      </trkpt>
      <trkpt lat="45.04867" lon="6.30052">
        <ele>1638</ele>
        <time>2020-07-15T02:11:48Z</time>
      </trkpt>
      <trkpt lat="45.04855" lon="6.30083">
        <ele>1631</ele>
        <time>2020-07-15T02:12:21Z</time>
      </trkpt>
      <trkpt lat="45.04852" lon="6.30122">
        <ele>1621</ele>
        <time>2020-07-15T02:12:58Z</time>
      </trkpt>
      <trkpt lat="45.04834" lon="6.30159">
        <ele>1610</ele>
        <time>2020-07-15T02:13:40Z</time>
      </trkpt>
      <trkpt lat="45.04812" lon="6.3018">
        <ele>1602</ele>
        <time>2020-07-15T02:14:16Z</time>
      </trkpt>
      <trkpt lat="45.04766" lon="6.30184">
        <ele>1596</ele>
        <time>2020-07-15T02:15:17Z</time>
      </trkpt>
      <trkpt lat="45.04739" lon="6.3021">
        <ele>1585</ele>
        <time>2020-07-15T02:16:01Z</time>
      </trkpt>
      <trkpt lat="45.04724" lon="6.30219">
        <ele>1578</ele>
        <time>2020-07-15T02:16:23Z</time>
      </trkpt>
      <trkpt lat="45.04694" lon="6.30231">
        <ele>1566</ele>
        <time>2020-07-15T02:17:04Z</time>
      </trkpt>
      <trkpt lat="45.04687" lon="6.30245">
        <ele>1562</ele>
        <time>2020-07-15T02:17:20Z</time>
      </trkpt>
      <trkpt lat="45.04705" lon="6.3029">
        <ele>1557</ele>
        <time>2020-07-15T02:18:09Z</time>
      </trkpt>
      <trkpt lat="45.04722" lon="6.30305">
        <ele>1558</ele>
        <time>2020-07-15T02:18:36Z</time>
      </trkpt>
      <trkpt lat="45.04743" lon="6.30309">
        <ele>1563</ele>
        <time>2020-07-15T02:19:04Z</time>
      </trkpt>
      <trkpt lat="45.04805" lon="6.30291">
        <ele>1580</ele>
        <time>2020-07-15T02:20:29Z</time>
      </trkpt>
      <trkpt lat="45.04807" lon="6.30294">
        <ele>1581</ele>
        <time>2020-07-15T02:20:32Z</time>
      </trkpt>
      <trkpt lat="45.04806" lon="6.30299">
        <ele>1580</ele>
        <time>2020-07-15T02:20:37Z</time>
      </trkpt>
      <trkpt lat="45.04793" lon="6.30304">
        <ele>1576</ele>
        <time>2020-07-15T02:20:55Z</time>
      </trkpt>
      <trkpt lat="45.04772" lon="6.30319">
        <ele>1568</ele>
        <time>2020-07-15T02:21:27Z</time>
      </trkpt>
      <trkpt lat="45.04734" lon="6.3035">
        <ele>1551</ele>
        <time>2020-07-15T02:22:25Z</time>
      </trkpt>
      <trkpt lat="45.04694" lon="6.3035">
        <ele>1540</ele>
        <time>2020-07-15T02:23:19Z</time>
      </trkpt>
      <trkpt lat="45.04692" lon="6.30357">
        <ele>1538</ele>
        <time>2020-07-15T02:23:26Z</time>
      </trkpt>
      <trkpt lat="45.04695" lon="6.30362">
        <ele>1538</ele>
        <time>2020-07-15T02:23:32Z</time>
      </trkpt>
      <trkpt lat="45.04716" lon="6.30363">
        <ele>1544</ele>
        <time>2020-07-15T02:24:00Z</time>
      </trkpt>
      <trkpt lat="45.04731" lon="6.3037">
        <ele>1547</ele>
        <time>2020-07-15T02:24:21Z</time>
      </trkpt>
      <trkpt lat="45.04751" lon="6.30364">
        <ele>1554</ele>
        <time>2020-07-15T02:24:48Z</time>
      </trkpt>
      <trkpt lat="45.04756" lon="6.30366">
        <ele>1555</ele>
        <time>2020-07-15T02:24:55Z</time>
      </trkpt>
      <trkpt lat="45.04759" lon="6.30376">
        <ele>1555</ele>
        <time>2020-07-15T02:25:05Z</time>
      </trkpt>
      <trkpt lat="45.04756" lon="6.30383">
        <ele>1553</ele>
        <time>2020-07-15T02:25:13Z</time>
      </trkpt>
      <trkpt lat="45.04744" lon="6.30397">
        <ele>1546</ele>
        <time>2020-07-15T02:25:34Z</time>
      </trkpt>
      <trkpt lat="45.0472" lon="6.30439">
        <ele>1533</ele>
        <time>2020-07-15T02:26:25Z</time>
      </trkpt>
      <trkpt lat="45.04708" lon="6.30489">
        <ele>1527</ele>
        <time>2020-07-15T02:27:15Z</time>
      </trkpt>
      <trkpt lat="45.04696" lon="6.30518">
        <ele>1524</ele>
        <time>2020-07-15T02:27:46Z</time>
      </trkpt>
      <trkpt lat="45.04681" lon="6.30535">
        <ele>1520</ele>
        <time>2020-07-15T02:28:12Z</time>
      </trkpt>
      <trkpt lat="45.04634" lon="6.30544">
        <ele>1513</ele>
        <time>2020-07-15T02:29:15Z</time>
      </trkpt>
      <trkpt lat="45.04622" lon="6.30528">
        <ele>1512</ele>
        <time>2020-07-15T02:29:37Z</time>
      </trkpt>
      <trkpt lat="45.046" lon="6.30523">
        <ele>1509</ele>
        <time>2020-07-15T02:30:07Z</time>
      </trkpt>
      <trkpt lat="45.04593" lon="6.30527">
        <ele>1508</ele>
        <time>2020-07-15T02:30:17Z</time>
      </trkpt>
      <trkpt lat="45.04583" lon="6.3052">
        <ele>1508</ele>
        <time>2020-07-15T02:30:32Z</time>
      </trkpt>
      <trkpt lat="45.0458" lon="6.3052">
        <ele>1507</ele>
        <time>2020-07-15T02:30:36Z</time>
      </trkpt>
      <trkpt lat="45.0457" lon="6.30527">
        <ele>1503</ele>
        <time>2020-07-15T02:30:51Z</time>
      </trkpt>
      <trkpt lat="45.04561" lon="6.3053">
        <ele>1499</ele>
        <time>2020-07-15T02:31:03Z</time>
      </trkpt>
      <trkpt lat="45.04546" lon="6.30529">
        <ele>1494</ele>
        <time>2020-07-15T02:31:23Z</time>
      </trkpt>
      <trkpt lat="45.04543" lon="6.30532">
        <ele>1493</ele>
        <time>2020-07-15T02:31:28Z</time>
      </trkpt>
      <trkpt lat="45.04543" lon="6.3054">
        <ele>1493</ele>
        <time>2020-07-15T02:31:36Z</time>
      </trkpt>
      <trkpt lat="45.0454" lon="6.30543">
        <ele>1492</ele>
        <time>2020-07-15T02:31:41Z</time>
      </trkpt>
      <trkpt lat="45.04542" lon="6.30548">
        <ele>1492</ele>
        <time>2020-07-15T02:31:46Z</time>
      </trkpt>
      <trkpt lat="45.0452" lon="6.30597">
        <ele>1484</ele>
        <time>2020-07-15T02:32:41Z</time>
      </trkpt>
      <trkpt lat="45.04511" lon="6.30614">
        <ele>1480</ele>
        <time>2020-07-15T02:33:01Z</time>
      </trkpt>
      <trkpt lat="45.04503" lon="6.30624">
        <ele>1477</ele>
        <time>2020-07-15T02:33:15Z</time>
      </trkpt>
      <trkpt lat="45.04502" lon="6.30616">
        <ele>1477</ele>
        <time>2020-07-15T02:33:23Z</time>
      </trkpt>
      <trkpt lat="45.04507" lon="6.30577">
        <ele>1482</ele>
        <time>2020-07-15T02:34:00Z</time>
      </trkpt>
      <trkpt lat="45.04509" lon="6.30551">
        <ele>1481</ele>
        <time>2020-07-15T02:34:25Z</time>
      </trkpt>
      <trkpt lat="45.04509" lon="6.30525">
        <ele>1480</ele>
        <time>2020-07-15T02:34:49Z</time>
      </trkpt>
      <trkpt lat="45.04504" lon="6.30471">
        <ele>1476</ele>
        <time>2020-07-15T02:35:41Z</time>
      </trkpt>
      <trkpt lat="45.04505" lon="6.30448">
        <ele>1474</ele>
        <time>2020-07-15T02:36:02Z</time>
      </trkpt>
      <trkpt lat="45.04504" lon="6.30471">
        <ele>1476</ele>
        <time>2020-07-15T02:36:24Z</time>
      </trkpt>
      <trkpt lat="45.04509" lon="6.30525">
        <ele>1480</ele>
        <time>2020-07-15T02:37:15Z</time>
      </trkpt>
      <trkpt lat="45.04509" lon="6.30551">
        <ele>1481</ele>
        <time>2020-07-15T02:37:40Z</time>
      </trkpt>
      <trkpt lat="45.04507" lon="6.30577">
        <ele>1482</ele>
        <time>2020-07-15T02:38:05Z</time>
      </trkpt>
      <trkpt lat="45.04502" lon="6.30616">
        <ele>1477</ele>
        <time>2020-07-15T02:38:42Z</time>
      </trkpt>
      <trkpt lat="45.04504" lon="6.3063">
        <ele>1477</ele>
        <time>2020-07-15T02:38:55Z</time>
      </trkpt>
      <trkpt lat="45.04508" lon="6.3064">
        <ele>1477</ele>
        <time>2020-07-15T02:39:06Z</time>
      </trkpt>
      <trkpt lat="45.04526" lon="6.30658">
        <ele>1479</ele>
        <time>2020-07-15T02:39:36Z</time>
      </trkpt>
      <trkpt lat="45.04584" lon="6.30707">
        <ele>1484</ele>
        <time>2020-07-15T02:41:06Z</time>
      </trkpt>
      <trkpt lat="45.04613" lon="6.3073">
        <ele>1487</ele>
        <time>2020-07-15T02:41:50Z</time>
      </trkpt>
      <trkpt lat="45.04627" lon="6.30743">
        <ele>1488</ele>
        <time>2020-07-15T02:42:12Z</time>
      </trkpt>
      <trkpt lat="45.04632" lon="6.30751">
        <ele>1488</ele>
        <time>2020-07-15T02:42:23Z</time>
      </trkpt>
      <trkpt lat="45.04637" lon="6.30765">
        <ele>1487</ele>
        <time>2020-07-15T02:42:37Z</time>
      </trkpt>
      <trkpt lat="45.04647" lon="6.30818">
        <ele>1483</ele>
        <time>2020-07-15T02:43:29Z</time>
      </trkpt>
      <trkpt lat="45.04641" lon="6.30825">
        <ele>1480</ele>
        <time>2020-07-15T02:43:39Z</time>
      </trkpt>
      <trkpt lat="45.04647" lon="6.30896">
        <ele>1480</ele>
        <time>2020-07-15T02:44:47Z</time>
      </trkpt>
      <trkpt lat="45.04649" lon="6.3103">
        <ele>1478</ele>
        <time>2020-07-15T02:46:53Z</time>
      </trkpt>
      <trkpt lat="45.04646" lon="6.31056">
        <ele>1479</ele>
        <time>2020-07-15T02:47:18Z</time>
      </trkpt>
      <trkpt lat="45.04639" lon="6.31092">
        <ele>1480</ele>
        <time>2020-07-15T02:47:53Z</time>
      </trkpt>
      <trkpt lat="45.04629" lon="6.31125">
        <ele>1481</ele>
        <time>2020-07-15T02:48:27Z</time>
      </trkpt>
      <trkpt lat="45.04619" lon="6.31142">
        <ele>1478</ele>
        <time>2020-07-15T02:48:48Z</time>
      </trkpt>
      <trkpt lat="45.04611" lon="6.3116">
        <ele>1476</ele>
        <time>2020-07-15T02:49:08Z</time>
      </trkpt>
      <trkpt lat="45.04567" lon="6.31228">
        <ele>1469</ele>
        <time>2020-07-15T02:50:35Z</time>
      </trkpt>
      <trkpt lat="45.04552" lon="6.31252">
        <ele>1469</ele>
        <time>2020-07-15T02:51:05Z</time>
      </trkpt>
      <trkpt lat="45.0453" lon="6.31291">
        <ele>1467</ele>
        <time>2020-07-15T02:51:52Z</time>
      </trkpt>
      <trkpt lat="45.04525" lon="6.31305">
        <ele>1467</ele>
        <time>2020-07-15T02:52:07Z</time>
      </trkpt>
      <trkpt lat="45.04522" lon="6.31313">
        <ele>1467</ele>
        <time>2020-07-15T02:52:16Z</time>
      </trkpt>
      <trkpt lat="45.0452" lon="6.31323">
        <ele>1467</ele>
        <time>2020-07-15T02:52:25Z</time>
      </trkpt>
      <trkpt lat="45.04512" lon="6.31336">
        <ele>1466</ele>
        <time>2020-07-15T02:52:42Z</time>
      </trkpt>
      <trkpt lat="45.04507" lon="6.31343">
        <ele>1465</ele>
        <time>2020-07-15T02:52:51Z</time>
      </trkpt>
      <trkpt lat="45.04522" lon="6.31366">
        <ele>1470</ele>
        <time>2020-07-15T02:53:21Z</time>
      </trkpt>
      <trkpt lat="45.04524" lon="6.31379">
        <ele>1471</ele>
        <time>2020-07-15T02:53:33Z</time>
      </trkpt>
      <trkpt lat="45.04525" lon="6.31394">
        <ele>1471</ele>
        <time>2020-07-15T02:53:47Z</time>
      </trkpt>
      <trkpt lat="45.04524" lon="6.3141">
        <ele>1471</ele>
        <time>2020-07-15T02:54:02Z</time>
      </trkpt>
      <trkpt lat="45.04527" lon="6.31452">
        <ele>1474</ele>
        <time>2020-07-15T02:54:42Z</time>
      </trkpt>
      <trkpt lat="45.04533" lon="6.31466">
        <ele>1474</ele>
        <time>2020-07-15T02:54:58Z</time>
      </trkpt>
      <trkpt lat="45.04534" lon="6.3148">
        <ele>1475</ele>
        <time>2020-07-15T02:55:11Z</time>
      </trkpt>
      <trkpt lat="45.04528" lon="6.31504">
        <ele>1476</ele>
        <time>2020-07-15T02:55:35Z</time>
      </trkpt>
      <trkpt lat="45.04531" lon="6.31521">
        <ele>1479</ele>
        <time>2020-07-15T02:55:51Z</time>
      </trkpt>
      <trkpt lat="45.04541" lon="6.31535">
        <ele>1480</ele>
        <time>2020-07-15T02:56:10Z</time>
      </trkpt>
      <trkpt lat="45.04548" lon="6.31549">
        <ele>1481</ele>
        <time>2020-07-15T02:56:26Z</time>
      </trkpt>
      <trkpt lat="45.04544" lon="6.31553">
        <ele>1482</ele>
        <time>2020-07-15T02:56:33Z</time>
      </trkpt>
      <trkpt lat="45.04544" lon="6.31566">
        <ele>1484</ele>
        <time>2020-07-15T02:56:45Z</time>
      </trkpt>
      <trkpt lat="45.04547" lon="6.3159">
        <ele>1487</ele>
        <time>2020-07-15T02:57:08Z</time>
      </trkpt>
      <trkpt lat="45.04552" lon="6.31595">
        <ele>1487</ele>
        <time>2020-07-15T02:57:16Z</time>
      </trkpt>
      <trkpt lat="45.04562" lon="6.31619">
        <ele>1489</ele>
        <time>2020-07-15T02:57:43Z</time>
      </trkpt>
      <trkpt lat="45.04561" lon="6.31648">
        <ele>1495</ele>
        <time>2020-07-15T02:58:10Z</time>
      </trkpt>
      <trkpt lat="45.04566" lon="6.3169">
        <ele>1500</ele>
        <time>2020-07-15T02:58:50Z</time>
      </trkpt>
      <trkpt lat="45.04566" lon="6.31704">
        <ele>1501</ele>
        <time>2020-07-15T02:59:03Z</time>
      </trkpt>
      <trkpt lat="45.04561" lon="6.31716">
        <ele>1503</ele>
        <time>2020-07-15T02:59:16Z</time>
      </trkpt>
      <trkpt lat="45.04556" lon="6.31723">
        <ele>1505</ele>
        <time>2020-07-15T02:59:26Z</time>
      </trkpt>
      <trkpt lat="45.04554" lon="6.31732">
        <ele>1506</ele>
        <time>2020-07-15T02:59:35Z</time>
      </trkpt>
      <trkpt lat="45.04556" lon="6.31739">
        <ele>1506</ele>
        <time>2020-07-15T02:59:42Z</time>
      </trkpt>
      <trkpt lat="45.04555" lon="6.31745">
        <ele>1507</ele>
        <time>2020-07-15T02:59:48Z</time>
      </trkpt>
      <trkpt lat="45.0454" lon="6.31794">
        <ele>1518</ele>
        <time>2020-07-15T03:00:38Z</time>
      </trkpt>
      <trkpt lat="45.04539" lon="6.31801">
        <ele>1520</ele>
        <time>2020-07-15T03:00:45Z</time>
      </trkpt>
      <trkpt lat="45.04535" lon="6.31805">
        <ele>1521</ele>
        <time>2020-07-15T03:00:51Z</time>
      </trkpt>
      <trkpt lat="45.04537" lon="6.31812">
        <ele>1522</ele>
        <time>2020-07-15T03:00:58Z</time>
      </trkpt>
      <trkpt lat="45.04542" lon="6.31815">
        <ele>1521</ele>
        <time>2020-07-15T03:01:06Z</time>
      </trkpt>
      <trkpt lat="45.04538" lon="6.31826">
        <ele>1524</ele>
        <time>2020-07-15T03:01:17Z</time>
      </trkpt>
      <trkpt lat="45.04539" lon="6.31828">
        <ele>1524</ele>
        <time>2020-07-15T03:01:20Z</time>
      </trkpt>
      <trkpt lat="45.04542" lon="6.31832">
        <ele>1523</ele>
        <time>2020-07-15T03:01:25Z</time>
      </trkpt>
      <trkpt lat="45.04545" lon="6.31839">
        <ele>1523</ele>
        <time>2020-07-15T03:01:33Z</time>
      </trkpt>
      <trkpt lat="45.04545" lon="6.31852">
        <ele>1525</ele>
        <time>2020-07-15T03:01:45Z</time>
      </trkpt>
      <trkpt lat="45.04534" lon="6.31917">
        <ele>1535</ele>
        <time>2020-07-15T03:02:48Z</time>
      </trkpt>
      <trkpt lat="45.04531" lon="6.31929">
        <ele>1537</ele>
        <time>2020-07-15T03:03:00Z</time>
      </trkpt>
      <trkpt lat="45.04528" lon="6.31931">
        <ele>1538</ele>
        <time>2020-07-15T03:03:05Z</time>
      </trkpt>
      <trkpt lat="45.04525" lon="6.31931">
        <ele>1539</ele>
        <time>2020-07-15T03:03:09Z</time>
      </trkpt>
      <trkpt lat="45.04529" lon="6.31936">
        <ele>1538</ele>
        <time>2020-07-15T03:03:16Z</time>
      </trkpt>
      <trkpt lat="45.04532" lon="6.31946">
        <ele>1538</ele>
        <time>2020-07-15T03:03:26Z</time>
      </trkpt>
      <trkpt lat="45.04531" lon="6.31953">
        <ele>1539</ele>
        <time>2020-07-15T03:03:33Z</time>
      </trkpt>
      <trkpt lat="45.04517" lon="6.31982">
        <ele>1546</ele>
        <time>2020-07-15T03:04:06Z</time>
      </trkpt>
      <trkpt lat="45.04518" lon="6.32004">
        <ele>1548</ele>
        <time>2020-07-15T03:04:27Z</time>
      </trkpt>
      <trkpt lat="45.04514" lon="6.32017">
        <ele>1551</ele>
        <time>2020-07-15T03:04:40Z</time>
      </trkpt>
      <trkpt lat="45.04509" lon="6.32027">
        <ele>1554</ele>
        <time>2020-07-15T03:04:51Z</time>
      </trkpt>
      <trkpt lat="45.04509" lon="6.32037">
        <ele>1555</ele>
        <time>2020-07-15T03:05:01Z</time>
      </trkpt>
      <trkpt lat="45.04507" lon="6.32044">
        <ele>1556</ele>
        <time>2020-07-15T03:05:08Z</time>
      </trkpt>
      <trkpt lat="45.04503" lon="6.32045">
        <ele>1558</ele>
        <time>2020-07-15T03:05:13Z</time>
      </trkpt>
      <trkpt lat="45.04507" lon="6.32071">
        <ele>1560</ele>
        <time>2020-07-15T03:05:39Z</time>
      </trkpt>
      <trkpt lat="45.04507" lon="6.32106">
        <ele>1561</ele>
        <time>2020-07-15T03:06:12Z</time>
      </trkpt>
      <trkpt lat="45.04504" lon="6.32131">
        <ele>1562</ele>
        <time>2020-07-15T03:06:35Z</time>
      </trkpt>
      <trkpt lat="45.04494" lon="6.32169">
        <ele>1565</ele>
        <time>2020-07-15T03:07:14Z</time>
      </trkpt>
      <trkpt lat="45.04466" lon="6.32223">
        <ele>1574</ele>
        <time>2020-07-15T03:08:17Z</time>
      </trkpt>
      <trkpt lat="45.04457" lon="6.32234">
        <ele>1577</ele>
        <time>2020-07-15T03:08:33Z</time>
      </trkpt>
      <trkpt lat="45.04456" lon="6.32239">
        <ele>1577</ele>
        <time>2020-07-15T03:08:38Z</time>
      </trkpt>
      <trkpt lat="45.04465" lon="6.32256">
        <ele>1575</ele>
        <time>2020-07-15T03:08:58Z</time>
      </trkpt>
      <trkpt lat="45.04465" lon="6.32288">
        <ele>1574</ele>
        <time>2020-07-15T03:09:28Z</time>
      </trkpt>
      <trkpt lat="45.04463" lon="6.32296">
        <ele>1574</ele>
        <time>2020-07-15T03:09:36Z</time>
      </trkpt>
      <trkpt lat="45.04453" lon="6.32306">
        <ele>1577</ele>
        <time>2020-07-15T03:09:52Z</time>
      </trkpt>
      <trkpt lat="45.04447" lon="6.32308">
        <ele>1579</ele>
        <time>2020-07-15T03:10:00Z</time>
      </trkpt>
      <trkpt lat="45.04422" lon="6.32322">
        <ele>1586</ele>
        <time>2020-07-15T03:10:36Z</time>
      </trkpt>
      <trkpt lat="45.04409" lon="6.32324">
        <ele>1591</ele>
        <time>2020-07-15T03:10:54Z</time>
      </trkpt>
      <trkpt lat="45.04385" lon="6.32323">
        <ele>1600</ele>
        <time>2020-07-15T03:11:26Z</time>
      </trkpt>
      <trkpt lat="45.04357" lon="6.32331">
        <ele>1610</ele>
        <time>2020-07-15T03:12:04Z</time>
      </trkpt>
      <trkpt lat="45.04329" lon="6.32345">
        <ele>1621</ele>
        <time>2020-07-15T03:12:43Z</time>
      </trkpt>
      <trkpt lat="45.04307" lon="6.32349">
        <ele>1628</ele>
        <time>2020-07-15T03:13:13Z</time>
      </trkpt>
      <trkpt lat="45.04275" lon="6.32332">
        <ele>1639</ele>
        <time>2020-07-15T03:13:59Z</time>
      </trkpt>
      <trkpt lat="45.04264" lon="6.32319">
        <ele>1645</ele>
        <time>2020-07-15T03:14:18Z</time>
      </trkpt>
      <trkpt lat="45.04257" lon="6.32315">
        <ele>1648</ele>
        <time>2020-07-15T03:14:28Z</time>
      </trkpt>
      <trkpt lat="45.04232" lon="6.32321">
        <ele>1659</ele>
        <time>2020-07-15T03:15:02Z</time>
      </trkpt>
      <trkpt lat="45.04204" lon="6.32317">
        <ele>1674</ele>
        <time>2020-07-15T03:15:39Z</time>
      </trkpt>
      <trkpt lat="45.04195" lon="6.32302">
        <ele>1680</ele>
        <time>2020-07-15T03:15:58Z</time>
      </trkpt>
      <trkpt lat="45.04201" lon="6.32286">
        <ele>1678</ele>
        <time>2020-07-15T03:16:15Z</time>
      </trkpt>
      <trkpt lat="45.04212" lon="6.32272">
        <ele>1674</ele>
        <time>2020-07-15T03:16:35Z</time>
      </trkpt>
      <trkpt lat="45.04191" lon="6.32265">
        <ele>1684</ele>
        <time>2020-07-15T03:17:03Z</time>
      </trkpt>
      <trkpt lat="45.04161" lon="6.32267">
        <ele>1698</ele>
        <time>2020-07-15T03:17:44Z</time>
      </trkpt>
      <trkpt lat="45.04158" lon="6.32277">
        <ele>1699</ele>
        <time>2020-07-15T03:17:54Z</time>
      </trkpt>
      <trkpt lat="45.04133" lon="6.32299">
        <ele>1708</ele>
        <time>2020-07-15T03:18:33Z</time>
      </trkpt>
      <trkpt lat="45.0409" lon="6.32356">
        <ele>1730</ele>
        <time>2020-07-15T03:19:52Z</time>
      </trkpt>
      <trkpt lat="45.04068" lon="6.32376">
        <ele>1741</ele>
        <time>2020-07-15T03:20:27Z</time>
      </trkpt>
      <trkpt lat="45.04062" lon="6.32396">
        <ele>1744</ele>
        <time>2020-07-15T03:20:47Z</time>
      </trkpt>
      <trkpt lat="45.04088" lon="6.32415">
        <ele>1738</ele>
        <time>2020-07-15T03:21:26Z</time>
      </trkpt>
      <trkpt lat="45.04105" lon="6.32425">
        <ele>1729</ele>
        <time>2020-07-15T03:21:51Z</time>
      </trkpt>
      <trkpt lat="45.0411" lon="6.32439">
        <ele>1726</ele>
        <time>2020-07-15T03:22:05Z</time>
      </trkpt>
      <trkpt lat="45.04109" lon="6.32472">
        <ele>1726</ele>
        <time>2020-07-15T03:22:37Z</time>
      </trkpt>
      <trkpt lat="45.04115" lon="6.32486">
        <ele>1724</ele>
        <time>2020-07-15T03:22:52Z</time>
      </trkpt>
      <trkpt lat="45.041" lon="6.32515">
        <ele>1726</ele>
        <time>2020-07-15T03:23:26Z</time>
      </trkpt>
      <trkpt lat="45.0406" lon="6.32582">
        <ele>1722</ele>
        <time>2020-07-15T03:24:49Z</time>
      </trkpt>
      <trkpt lat="45.04066" lon="6.32594">
        <ele>1720</ele>
        <time>2020-07-15T03:25:03Z</time>
      </trkpt>
      <trkpt lat="45.04107" lon="6.32653">
        <ele>1712</ele>
        <time>2020-07-15T03:26:21Z</time>
      </trkpt>
      <trkpt lat="45.04141" lon="6.3271">
        <ele>1704</ele>
        <time>2020-07-15T03:27:31Z</time>
      </trkpt>
      <trkpt lat="45.0414" lon="6.32733">
        <ele>1702</ele>
        <time>2020-07-15T03:27:53Z</time>
      </trkpt>
      <trkpt lat="45.0415" lon="6.32754">
        <ele>1698</ele>
        <time>2020-07-15T03:28:17Z</time>
      </trkpt>
      <trkpt lat="45.04154" lon="6.32794">
        <ele>1695</ele>
        <time>2020-07-15T03:28:55Z</time>
      </trkpt>
      <trkpt lat="45.04173" lon="6.32852">
        <ele>1687</ele>
        <time>2020-07-15T03:29:55Z</time>
      </trkpt>
      <trkpt lat="45.04174" lon="6.32899">
        <ele>1682</ele>
        <time>2020-07-15T03:30:39Z</time>
      </trkpt>
      <trkpt lat="45.04183" lon="6.32951">
        <ele>1671</ele>
        <time>2020-07-15T03:31:30Z</time>
      </trkpt>
      <trkpt lat="45.04167" lon="6.32997">
        <ele>1670</ele>
        <time>2020-07-15T03:32:18Z</time>
      </trkpt>
      <trkpt lat="45.04138" lon="6.33038">
        <ele>1674</ele>
        <time>2020-07-15T03:33:13Z</time>
      </trkpt>
      <trkpt lat="45.04141" lon="6.33056">
        <ele>1669</ele>
        <time>2020-07-15T03:33:30Z</time>
      </trkpt>
      <trkpt lat="45.04152" lon="6.33078">
        <ele>1659</ele>
        <time>2020-07-15T03:33:56Z</time>
      </trkpt>
      <trkpt lat="45.04155" lon="6.33125">
        <ele>1651</ele>
        <time>2020-07-15T03:34:40Z</time>
      </trkpt>
      <trkpt lat="45.04155" lon="6.33178">
        <ele>1644</ele>
        <time>2020-07-15T03:35:30Z</time>
      </trkpt>
      <trkpt lat="45.04157" lon="6.33222">
        <ele>1640</ele>
        <time>2020-07-15T03:36:12Z</time>
      </trkpt>
      <trkpt lat="45.04161" lon="6.33283">
        <ele>1635</ele>
        <time>2020-07-15T03:37:09Z</time>
      </trkpt>
      <trkpt lat="45.04167" lon="6.3332">
        <ele>1630</ele>
        <time>2020-07-15T03:37:45Z</time>
      </trkpt>
      <trkpt lat="45.04164" lon="6.33372">
        <ele>1629</ele>
        <time>2020-07-15T03:38:34Z</time>
      </trkpt>
      <trkpt lat="45.04151" lon="6.33436">
        <ele>1634</ele>
        <time>2020-07-15T03:39:37Z</time>
      </trkpt>
      <trkpt lat="45.0413" lon="6.33516">
        <ele>1645</ele>
        <time>2020-07-15T03:40:58Z</time>
      </trkpt>
      <trkpt lat="45.04127" lon="6.33542">
        <ele>1645</ele>
        <time>2020-07-15T03:41:22Z</time>
      </trkpt>
      <trkpt lat="45.04122" lon="6.33555">
        <ele>1646</ele>
        <time>2020-07-15T03:41:36Z</time>
      </trkpt>
      <trkpt lat="45.04082" lon="6.33588">
        <ele>1654</ele>
        <time>2020-07-15T03:42:38Z</time>
      </trkpt>
      <trkpt lat="45.04062" lon="6.33597">
        <ele>1663</ele>
        <time>2020-07-15T03:43:06Z</time>
      </trkpt>
      <trkpt lat="45.04041" lon="6.3362">
        <ele>1670</ele>
        <time>2020-07-15T03:43:42Z</time>
      </trkpt>
      <trkpt lat="45.04017" lon="6.33657">
        <ele>1676</ele>
        <time>2020-07-15T03:44:29Z</time>
      </trkpt>
      <trkpt lat="45.03987" lon="6.33875">
        <ele>1662</ele>
        <time>2020-07-15T03:47:58Z</time>
      </trkpt>
      <trkpt lat="45.03973" lon="6.33922">
        <ele>1662</ele>
        <time>2020-07-15T03:48:47Z</time>
      </trkpt>
      <trkpt lat="45.03955" lon="6.33973">
        <ele>1664</ele>
        <time>2020-07-15T03:49:40Z</time>
      </trkpt>
      <trkpt lat="45.03937" lon="6.3404">
        <ele>1661</ele>
        <time>2020-07-15T03:50:48Z</time>
      </trkpt>
      <trkpt lat="45.0393" lon="6.34111">
        <ele>1654</ele>
        <time>2020-07-15T03:51:56Z</time>
      </trkpt>
      <trkpt lat="45.03916" lon="6.34165">
        <ele>1648</ele>
        <time>2020-07-15T03:52:50Z</time>
      </trkpt>
      <trkpt lat="45.03904" lon="6.34225">
        <ele>1656</ele>
        <time>2020-07-15T03:53:49Z</time>
      </trkpt>
      <trkpt lat="45.03884" lon="6.34267">
        <ele>1665</ele>
        <time>2020-07-15T03:54:36Z</time>
      </trkpt>
      <trkpt lat="45.03843" lon="6.34341">
        <ele>1666</ele>
        <time>2020-07-15T03:56:05Z</time>
      </trkpt>
      <trkpt lat="45.03832" lon="6.34415">
        <ele>1657</ele>
        <time>2020-07-15T03:57:16Z</time>
      </trkpt>
      <trkpt lat="45.03824" lon="6.34532">
        <ele>1660</ele>
        <time>2020-07-15T03:59:07Z</time>
      </trkpt>
      <trkpt lat="45.03808" lon="6.34609">
        <ele>1659</ele>
        <time>2020-07-15T04:00:23Z</time>
      </trkpt>
      <trkpt lat="45.03798" lon="6.34652">
        <ele>1656</ele>
        <time>2020-07-15T04:01:06Z</time>
      </trkpt>
      <trkpt lat="45.03793" lon="6.34735">
        <ele>1650</ele>
        <time>2020-07-15T04:02:24Z</time>
      </trkpt>
      <trkpt lat="45.03781" lon="6.34786">
        <ele>1648</ele>
        <time>2020-07-15T04:03:15Z</time>
      </trkpt>
      <trkpt lat="45.03762" lon="6.34814">
        <ele>1647</ele>
        <time>2020-07-15T04:03:51Z</time>
      </trkpt>
      <trkpt lat="45.03707" lon="6.34852">
        <ele>1659</ele>
        <time>2020-07-15T04:05:13Z</time>
      </trkpt>
      <trkpt lat="45.03705" lon="6.34878">
        <ele>1658</ele>
        <time>2020-07-15T04:05:38Z</time>
      </trkpt>
      <trkpt lat="45.03699" lon="6.34908">
        <ele>1657</ele>
        <time>2020-07-15T04:06:07Z</time>
      </trkpt>
      <trkpt lat="45.03653" lon="6.34968">
        <ele>1667</ele>
        <time>2020-07-15T04:07:31Z</time>
      </trkpt>
      <trkpt lat="45.03617" lon="6.35043">
        <ele>1669</ele>
        <time>2020-07-15T04:08:56Z</time>
      </trkpt>
      <trkpt lat="45.03575" lon="6.3508">
        <ele>1670</ele>
        <time>2020-07-15T04:10:02Z</time>
      </trkpt>
      <trkpt lat="45.03538" lon="6.35169">
        <ele>1662</ele>
        <time>2020-07-15T04:11:39Z</time>
      </trkpt>
      <trkpt lat="45.03516" lon="6.35217">
        <ele>1660</ele>
        <time>2020-07-15T04:12:33Z</time>
      </trkpt>
      <trkpt lat="45.0347" lon="6.35288">
        <ele>1662</ele>
        <time>2020-07-15T04:14:04Z</time>
      </trkpt>
      <trkpt lat="45.03433" lon="6.35385">
        <ele>1662</ele>
        <time>2020-07-15T04:15:48Z</time>
      </trkpt>
      <trkpt lat="45.034" lon="6.35423">
        <ele>1667</ele>
        <time>2020-07-15T04:16:45Z</time>
      </trkpt>
      <trkpt lat="45.03367" lon="6.35467">
        <ele>1670</ele>
        <time>2020-07-15T04:17:45Z</time>
      </trkpt>
      <trkpt lat="45.03328" lon="6.35508">
        <ele>1670</ele>
        <time>2020-07-15T04:18:50Z</time>
      </trkpt>
      <trkpt lat="45.0329" lon="6.3556">
        <ele>1671</ele>
        <time>2020-07-15T04:20:01Z</time>
      </trkpt>
      <trkpt lat="45.03255" lon="6.35633">
        <ele>1668</ele>
        <time>2020-07-15T04:21:24Z</time>
      </trkpt>
      <trkpt lat="45.0324" lon="6.35675">
        <ele>1668</ele>
        <time>2020-07-15T04:22:08Z</time>
      </trkpt>
      <trkpt lat="45.03235" lon="6.3571">
        <ele>1668</ele>
        <time>2020-07-15T04:22:42Z</time>
      </trkpt>
      <trkpt lat="45.03219" lon="6.35738">
        <ele>1670</ele>
        <time>2020-07-15T04:23:16Z</time>
      </trkpt>
      <trkpt lat="45.03199" lon="6.35781">
        <ele>1669</ele>
        <time>2020-07-15T04:24:05Z</time>
      </trkpt>
      <trkpt lat="45.0319" lon="6.35825">
        <ele>1666</ele>
        <time>2020-07-15T04:24:48Z</time>
      </trkpt>
      <trkpt lat="45.03196" lon="6.35826">
        <ele>1666</ele>
        <time>2020-07-15T04:24:56Z</time>
      </trkpt>
      <trkpt lat="45.03202" lon="6.35828">
        <ele>1666</ele>
        <time>2020-07-15T04:25:04Z</time>
      </trkpt>
      <trkpt lat="45.03218" lon="6.35839">
        <ele>1665</ele>
        <time>2020-07-15T04:25:28Z</time>
      </trkpt>
      <trkpt lat="45.03237" lon="6.35856">
        <ele>1664</ele>
        <time>2020-07-15T04:25:58Z</time>
      </trkpt>
      <trkpt lat="45.03228" lon="6.35875">
        <ele>1665</ele>
        <time>2020-07-15T04:26:19Z</time>
      </trkpt>
      <trkpt lat="45.03221" lon="6.35898">
        <ele>1664</ele>
        <time>2020-07-15T04:26:43Z</time>
      </trkpt>
      <trkpt lat="45.03217" lon="6.35946">
        <ele>1665</ele>
        <time>2020-07-15T04:27:29Z</time>
      </trkpt>
      <trkpt lat="45.03211" lon="6.35981">
        <ele>1665</ele>
        <time>2020-07-15T04:28:03Z</time>
      </trkpt>
      <trkpt lat="45.03174" lon="6.36071">
        <ele>1665</ele>
        <time>2020-07-15T04:29:41Z</time>
      </trkpt>
      <trkpt lat="45.03136" lon="6.36185">
        <ele>1670</ele>
        <time>2020-07-15T04:31:40Z</time>
      </trkpt>
      <trkpt lat="45.03101" lon="6.36255">
        <ele>1669</ele>
        <time>2020-07-15T04:33:01Z</time>
      </trkpt>
      <trkpt lat="45.03071" lon="6.36324">
        <ele>1669</ele>
        <time>2020-07-15T04:34:17Z</time>
      </trkpt>
      <trkpt lat="45.03067" lon="6.36331">
        <ele>1669</ele>
        <time>2020-07-15T04:34:25Z</time>
      </trkpt>
      <trkpt lat="45.03013" lon="6.36381">
        <ele>1672</ele>
        <time>2020-07-15T04:35:52Z</time>
      </trkpt>
      <trkpt lat="45.02984" lon="6.36406">
        <ele>1671</ele>
        <time>2020-07-15T04:36:37Z</time>
      </trkpt>
      <trkpt lat="45.02974" lon="6.36423">
        <ele>1672</ele>
        <time>2020-07-15T04:36:58Z</time>
      </trkpt>
      <trkpt lat="45.02963" lon="6.36436">
        <ele>1673</ele>
        <time>2020-07-15T04:37:17Z</time>
      </trkpt>
      <trkpt lat="45.02953" lon="6.36462">
        <ele>1675</ele>
        <time>2020-07-15T04:37:45Z</time>
      </trkpt>
      <trkpt lat="45.02948" lon="6.36487">
        <ele>1677</ele>
        <time>2020-07-15T04:38:09Z</time>
      </trkpt>
      <trkpt lat="45.02913" lon="6.36525">
        <ele>1682</ele>
        <time>2020-07-15T04:39:08Z</time>
      </trkpt>
      <trkpt lat="45.02901" lon="6.36536">
        <ele>1684</ele>
        <time>2020-07-15T04:39:27Z</time>
      </trkpt>
      <trkpt lat="45.02868" lon="6.36553">
        <ele>1682</ele>
        <time>2020-07-15T04:40:14Z</time>
      </trkpt>
      <trkpt lat="45.02851" lon="6.36577">
        <ele>1683</ele>
        <time>2020-07-15T04:40:46Z</time>
      </trkpt>
      <trkpt lat="45.02845" lon="6.3658">
        <ele>1681</ele>
        <time>2020-07-15T04:40:55Z</time>
      </trkpt>
      <trkpt lat="45.02836" lon="6.36588">
        <ele>1682</ele>
        <time>2020-07-15T04:41:09Z</time>
      </trkpt>
      <trkpt lat="45.02829" lon="6.3659">
        <ele>1681</ele>
        <time>2020-07-15T04:41:18Z</time>
      </trkpt>
      <trkpt lat="45.0281" lon="6.36606">
        <ele>1686</ele>
        <time>2020-07-15T04:41:48Z</time>
      </trkpt>
      <trkpt lat="45.02787" lon="6.36629">
        <ele>1690</ele>
        <time>2020-07-15T04:42:25Z</time>
      </trkpt>
      <trkpt lat="45.02768" lon="6.36639">
        <ele>1690</ele>
        <time>2020-07-15T04:42:52Z</time>
      </trkpt>
      <trkpt lat="45.02753" lon="6.36643">
        <ele>1687</ele>
        <time>2020-07-15T04:43:13Z</time>
      </trkpt>
      <trkpt lat="45.0274" lon="6.36657">
        <ele>1689</ele>
        <time>2020-07-15T04:43:35Z</time>
      </trkpt>
      <trkpt lat="45.02727" lon="6.36664">
        <ele>1689</ele>
        <time>2020-07-15T04:43:53Z</time>
      </trkpt>
      <trkpt lat="45.0272" lon="6.36664">
        <ele>1689</ele>
        <time>2020-07-15T04:44:03Z</time>
      </trkpt>
      <trkpt lat="45.02706" lon="6.3667">
        <ele>1689</ele>
        <time>2020-07-15T04:44:22Z</time>
      </trkpt>
      <trkpt lat="45.02702" lon="6.3667">
        <ele>1688</ele>
        <time>2020-07-15T04:44:27Z</time>
      </trkpt>
      <trkpt lat="45.02692" lon="6.36677">
        <ele>1690</ele>
        <time>2020-07-15T04:44:42Z</time>
      </trkpt>
      <trkpt lat="45.02686" lon="6.36678">
        <ele>1690</ele>
        <time>2020-07-15T04:44:50Z</time>
      </trkpt>
      <trkpt lat="45.02679" lon="6.36684">
        <ele>1692</ele>
        <time>2020-07-15T04:45:01Z</time>
      </trkpt>
      <trkpt lat="45.02668" lon="6.36683">
        <ele>1690</ele>
        <time>2020-07-15T04:45:16Z</time>
      </trkpt>
      <trkpt lat="45.02658" lon="6.3669">
        <ele>1693</ele>
        <time>2020-07-15T04:45:31Z</time>
      </trkpt>
      <trkpt lat="45.02648" lon="6.36693">
        <ele>1694</ele>
        <time>2020-07-15T04:45:44Z</time>
      </trkpt>
      <trkpt lat="45.02619" lon="6.3669">
        <ele>1692</ele>
        <time>2020-07-15T04:46:23Z</time>
      </trkpt>
      <trkpt lat="45.0259" lon="6.36693">
        <ele>1693</ele>
        <time>2020-07-15T04:47:02Z</time>
      </trkpt>
      <trkpt lat="45.02558" lon="6.36707">
        <ele>1696</ele>
        <time>2020-07-15T04:47:47Z</time>
      </trkpt>
      <trkpt lat="45.02539" lon="6.36719">
        <ele>1698</ele>
        <time>2020-07-15T04:48:15Z</time>
      </trkpt>
      <trkpt lat="45.02526" lon="6.36739">
        <ele>1702</ele>
        <time>2020-07-15T04:48:40Z</time>
      </trkpt>
      <trkpt lat="45.025" lon="6.36755">
        <ele>1703</ele>
        <time>2020-07-15T04:49:18Z</time>
      </trkpt>
      <trkpt lat="45.02482" lon="6.36771">
        <ele>1708</ele>
        <time>2020-07-15T04:49:46Z</time>
      </trkpt>
      <trkpt lat="45.0248" lon="6.36772">
        <ele>1708</ele>
        <time>2020-07-15T04:49:49Z</time>
      </trkpt>
      <trkpt lat="45.02449" lon="6.3679">
        <ele>1706</ele>
        <time>2020-07-15T04:50:34Z</time>
      </trkpt>
      <trkpt lat="45.02439" lon="6.36799">
        <ele>1706</ele>
        <time>2020-07-15T04:50:50Z</time>
      </trkpt>
      <trkpt lat="45.02429" lon="6.3681">
        <ele>1705</ele>
        <time>2020-07-15T04:51:07Z</time>
      </trkpt>
      <trkpt lat="45.02407" lon="6.3684">
        <ele>1706</ele>
        <time>2020-07-15T04:51:47Z</time>
      </trkpt>
      <trkpt lat="45.02402" lon="6.36851">
        <ele>1711</ele>
        <time>2020-07-15T04:52:00Z</time>
      </trkpt>
      <trkpt lat="45.02395" lon="6.36858">
        <ele>1713</ele>
        <time>2020-07-15T04:52:11Z</time>
      </trkpt>
      <trkpt lat="45.0238" lon="6.36869">
        <ele>1714</ele>
        <time>2020-07-15T04:52:34Z</time>
      </trkpt>
      <trkpt lat="45.02357" lon="6.36881">
        <ele>1711</ele>
        <time>2020-07-15T04:53:06Z</time>
      </trkpt>
      <trkpt lat="45.02347" lon="6.36891">
        <ele>1711</ele>
        <time>2020-07-15T04:53:23Z</time>
      </trkpt>
      <trkpt lat="45.02344" lon="6.36896">
        <ele>1711</ele>
        <time>2020-07-15T04:53:29Z</time>
      </trkpt>
      <trkpt lat="45.02334" lon="6.36901">
        <ele>1708</ele>
        <time>2020-07-15T04:53:43Z</time>
      </trkpt>
      <trkpt lat="45.02326" lon="6.36908">
        <ele>1708</ele>
        <time>2020-07-15T04:53:56Z</time>
      </trkpt>
      <trkpt lat="45.02305" lon="6.3693">
        <ele>1712</ele>
        <time>2020-07-15T04:54:31Z</time>
      </trkpt>
      <trkpt lat="45.02298" lon="6.36939">
        <ele>1714</ele>
        <time>2020-07-15T04:54:43Z</time>
      </trkpt>
      <trkpt lat="45.02288" lon="6.36949">
        <ele>1715</ele>
        <time>2020-07-15T04:55:00Z</time>
      </trkpt>
      <trkpt lat="45.02262" lon="6.36981">
        <ele>1717</ele>
        <time>2020-07-15T04:55:46Z</time>
      </trkpt>
      <trkpt lat="45.02248" lon="6.36998">
        <ele>1716</ele>
        <time>2020-07-15T04:56:10Z</time>
      </trkpt>
      <trkpt lat="45.02225" lon="6.37">
        <ele>1713</ele>
        <time>2020-07-15T04:56:41Z</time>
      </trkpt>
      <trkpt lat="45.02219" lon="6.37002">
        <ele>1713</ele>
        <time>2020-07-15T04:56:49Z</time>
      </trkpt>
      <trkpt lat="45.02213" lon="6.37008">
        <ele>1714</ele>
        <time>2020-07-15T04:56:59Z</time>
      </trkpt>
      <trkpt lat="45.02198" lon="6.37005">
        <ele>1711</ele>
        <time>2020-07-15T04:57:19Z</time>
      </trkpt>
      <trkpt lat="45.02187" lon="6.3701">
        <ele>1711</ele>
        <time>2020-07-15T04:57:35Z</time>
      </trkpt>
      <trkpt lat="45.02177" lon="6.37019">
        <ele>1711</ele>
        <time>2020-07-15T04:57:50Z</time>
      </trkpt>
      <trkpt lat="45.02171" lon="6.3703">
        <ele>1713</ele>
        <time>2020-07-15T04:58:03Z</time>
      </trkpt>
      <trkpt lat="45.02162" lon="6.37037">
        <ele>1714</ele>
        <time>2020-07-15T04:58:17Z</time>
      </trkpt>
      <trkpt lat="45.02157" lon="6.37037">
        <ele>1713</ele>
        <time>2020-07-15T04:58:24Z</time>
      </trkpt>
      <trkpt lat="45.0215" lon="6.37045">
        <ele>1714</ele>
        <time>2020-07-15T04:58:36Z</time>
      </trkpt>
      <trkpt lat="45.02148" lon="6.37051">
        <ele>1715</ele>
        <time>2020-07-15T04:58:42Z</time>
      </trkpt>
      <trkpt lat="45.02142" lon="6.37058">
        <ele>1716</ele>
        <time>2020-07-15T04:58:53Z</time>
      </trkpt>
      <trkpt lat="45.02138" lon="6.37065">
        <ele>1717</ele>
        <time>2020-07-15T04:59:01Z</time>
      </trkpt>
      <trkpt lat="45.02133" lon="6.3708">
        <ele>1719</ele>
        <time>2020-07-15T04:59:17Z</time>
      </trkpt>
      <trkpt lat="45.0212" lon="6.37097">
        <ele>1723</ele>
        <time>2020-07-15T04:59:40Z</time>
      </trkpt>
      <trkpt lat="45.02112" lon="6.37104">
        <ele>1724</ele>
        <time>2020-07-15T04:59:53Z</time>
      </trkpt>
      <trkpt lat="45.02108" lon="6.37105">
        <ele>1723</ele>
        <time>2020-07-15T04:59:58Z</time>
      </trkpt>
      <trkpt lat="45.02094" lon="6.37101">
        <ele>1720</ele>
        <time>2020-07-15T05:00:17Z</time>
      </trkpt>
      <trkpt lat="45.02091" lon="6.37099">
        <ele>1718</ele>
        <time>2020-07-15T05:00:22Z</time>
      </trkpt>
      <trkpt lat="45.02082" lon="6.371">
        <ele>1717</ele>
        <time>2020-07-15T05:00:34Z</time>
      </trkpt>
      <trkpt lat="45.02075" lon="6.37109">
        <ele>1720</ele>
        <time>2020-07-15T05:00:46Z</time>
      </trkpt>
      <trkpt lat="45.0206" lon="6.37119">
        <ele>1721</ele>
        <time>2020-07-15T05:01:09Z</time>
      </trkpt>
      <trkpt lat="45.02047" lon="6.37137">
        <ele>1725</ele>
        <time>2020-07-15T05:01:33Z</time>
      </trkpt>
      <trkpt lat="45.02026" lon="6.3715">
        <ele>1725</ele>
        <time>2020-07-15T05:02:03Z</time>
      </trkpt>
      <trkpt lat="45.01999" lon="6.3715">
        <ele>1720</ele>
        <time>2020-07-15T05:02:39Z</time>
      </trkpt>
      <trkpt lat="45.01983" lon="6.37155">
        <ele>1721</ele>
        <time>2020-07-15T05:03:01Z</time>
      </trkpt>
      <trkpt lat="45.01973" lon="6.37149">
        <ele>1720</ele>
        <time>2020-07-15T05:03:16Z</time>
      </trkpt>
      <trkpt lat="45.01962" lon="6.37143">
        <ele>1719</ele>
        <time>2020-07-15T05:03:32Z</time>
      </trkpt>
      <trkpt lat="45.01926" lon="6.37151">
        <ele>1720</ele>
        <time>2020-07-15T05:04:20Z</time>
      </trkpt>
      <trkpt lat="45.01832" lon="6.37183">
        <ele>1725</ele>
        <time>2020-07-15T05:06:29Z</time>
      </trkpt>
      <trkpt lat="45.0181" lon="6.37187">
        <ele>1726</ele>
        <time>2020-07-15T05:06:59Z</time>
      </trkpt>
      <trkpt lat="45.01734" lon="6.37197">
        <ele>1732</ele>
        <time>2020-07-15T05:08:41Z</time>
      </trkpt>
      <trkpt lat="45.01725" lon="6.37204">
        <ele>1735</ele>
        <time>2020-07-15T05:08:54Z</time>
      </trkpt>
      <trkpt lat="45.01713" lon="6.37207">
        <ele>1738</ele>
        <time>2020-07-15T05:09:11Z</time>
      </trkpt>
      <trkpt lat="45.01708" lon="6.3721">
        <ele>1739</ele>
        <time>2020-07-15T05:09:18Z</time>
      </trkpt>
      <trkpt lat="45.01698" lon="6.37209">
        <ele>1741</ele>
        <time>2020-07-15T05:09:31Z</time>
      </trkpt>
      <trkpt lat="45.0169" lon="6.37215">
        <ele>1744</ele>
        <time>2020-07-15T05:09:43Z</time>
      </trkpt>
      <trkpt lat="45.01685" lon="6.37215">
        <ele>1744</ele>
        <time>2020-07-15T05:09:50Z</time>
      </trkpt>
      <trkpt lat="45.01669" lon="6.37205">
        <ele>1743</ele>
        <time>2020-07-15T05:10:13Z</time>
      </trkpt>
      <trkpt lat="45.01664" lon="6.37195">
        <ele>1741</ele>
        <time>2020-07-15T05:10:25Z</time>
      </trkpt>
      <trkpt lat="45.01657" lon="6.3719">
        <ele>1742</ele>
        <time>2020-07-15T05:10:35Z</time>
      </trkpt>
      <trkpt lat="45.01631" lon="6.37162">
        <ele>1742</ele>
        <time>2020-07-15T05:11:19Z</time>
      </trkpt>
      <trkpt lat="45.01614" lon="6.37148">
        <ele>1747</ele>
        <time>2020-07-15T05:11:45Z</time>
      </trkpt>
      <trkpt lat="45.01584" lon="6.37141">
        <ele>1755</ele>
        <time>2020-07-15T05:12:26Z</time>
      </trkpt>
      <trkpt lat="45.01567" lon="6.37135">
        <ele>1755</ele>
        <time>2020-07-15T05:12:49Z</time>
      </trkpt>
      <trkpt lat="45.01558" lon="6.37125">
        <ele>1754</ele>
        <time>2020-07-15T05:13:04Z</time>
      </trkpt>
      <trkpt lat="45.01545" lon="6.37118">
        <ele>1753</ele>
        <time>2020-07-15T05:13:23Z</time>
      </trkpt>
      <trkpt lat="45.01541" lon="6.37113">
        <ele>1753</ele>
        <time>2020-07-15T05:13:30Z</time>
      </trkpt>
      <trkpt lat="45.01535" lon="6.37108">
        <ele>1752</ele>
        <time>2020-07-15T05:13:39Z</time>
      </trkpt>
      <trkpt lat="45.01528" lon="6.37108">
        <ele>1753</ele>
        <time>2020-07-15T05:13:49Z</time>
      </trkpt>
      <trkpt lat="45.01524" lon="6.37112">
        <ele>1754</ele>
        <time>2020-07-15T05:13:55Z</time>
      </trkpt>
      <trkpt lat="45.01517" lon="6.3713">
        <ele>1757</ele>
        <time>2020-07-15T05:14:15Z</time>
      </trkpt>
      <trkpt lat="45.01499" lon="6.3714">
        <ele>1760</ele>
        <time>2020-07-15T05:14:40Z</time>
      </trkpt>
      <trkpt lat="45.01492" lon="6.37154">
        <ele>1763</ele>
        <time>2020-07-15T05:14:57Z</time>
      </trkpt>
      <trkpt lat="45.01482" lon="6.37161">
        <ele>1765</ele>
        <time>2020-07-15T05:15:12Z</time>
      </trkpt>
      <trkpt lat="45.01461" lon="6.37193">
        <ele>1770</ele>
        <time>2020-07-15T05:15:53Z</time>
      </trkpt>
      <trkpt lat="45.01447" lon="6.37224">
        <ele>1771</ele>
        <time>2020-07-15T05:16:27Z</time>
      </trkpt>
      <trkpt lat="45.0143" lon="6.37286">
        <ele>1777</ele>
        <time>2020-07-15T05:17:30Z</time>
      </trkpt>
      <trkpt lat="45.01425" lon="6.37297">
        <ele>1778</ele>
        <time>2020-07-15T05:17:42Z</time>
      </trkpt>
      <trkpt lat="45.01418" lon="6.37309">
        <ele>1778</ele>
        <time>2020-07-15T05:17:57Z</time>
      </trkpt>
      <trkpt lat="45.01403" lon="6.37322">
        <ele>1784</ele>
        <time>2020-07-15T05:18:21Z</time>
      </trkpt>
      <trkpt lat="45.01398" lon="6.37328">
        <ele>1786</ele>
        <time>2020-07-15T05:18:29Z</time>
      </trkpt>
      <trkpt lat="45.01385" lon="6.37363">
        <ele>1796</ele>
        <time>2020-07-15T05:19:07Z</time>
      </trkpt>
      <trkpt lat="45.01382" lon="6.37364">
        <ele>1797</ele>
        <time>2020-07-15T05:19:11Z</time>
      </trkpt>
      <trkpt lat="45.01377" lon="6.37364">
        <ele>1798</ele>
        <time>2020-07-15T05:19:17Z</time>
      </trkpt>
      <trkpt lat="45.01371" lon="6.37362">
        <ele>1799</ele>
        <time>2020-07-15T05:19:26Z</time>
      </trkpt>
      <trkpt lat="45.01367" lon="6.37367">
        <ele>1800</ele>
        <time>2020-07-15T05:19:33Z</time>
      </trkpt>
      <trkpt lat="45.01366" lon="6.37373">
        <ele>1801</ele>
        <time>2020-07-15T05:19:39Z</time>
      </trkpt>
      <trkpt lat="45.01365" lon="6.37387">
        <ele>1803</ele>
        <time>2020-07-15T05:19:52Z</time>
      </trkpt>
      <trkpt lat="45.01367" lon="6.37403">
        <ele>1805</ele>
        <time>2020-07-15T05:20:07Z</time>
      </trkpt>
      <trkpt lat="45.01351" lon="6.37392">
        <ele>1805</ele>
        <time>2020-07-15T05:20:31Z</time>
      </trkpt>
      <trkpt lat="45.01353" lon="6.37409">
        <ele>1807</ele>
        <time>2020-07-15T05:20:47Z</time>
      </trkpt>
      <trkpt lat="45.01359" lon="6.37419">
        <ele>1808</ele>
        <time>2020-07-15T05:21:00Z</time>
      </trkpt>
      <trkpt lat="45.01362" lon="6.37433">
        <ele>1814</ele>
        <time>2020-07-15T05:21:13Z</time>
      </trkpt>
      <trkpt lat="45.01358" lon="6.37432">
        <ele>1814</ele>
        <time>2020-07-15T05:21:19Z</time>
      </trkpt>
      <trkpt lat="45.01347" lon="6.37422">
        <ele>1810</ele>
        <time>2020-07-15T05:21:36Z</time>
      </trkpt>
      <trkpt lat="45.01343" lon="6.37416">
        <ele>1808</ele>
        <time>2020-07-15T05:21:44Z</time>
      </trkpt>
      <trkpt lat="45.01342" lon="6.37418">
        <ele>1808</ele>
        <time>2020-07-15T05:21:46Z</time>
      </trkpt>
      <trkpt lat="45.01344" lon="6.37437">
        <ele>1815</ele>
        <time>2020-07-15T05:22:04Z</time>
      </trkpt>
      <trkpt lat="45.01347" lon="6.37444">
        <ele>1818</ele>
        <time>2020-07-15T05:22:12Z</time>
      </trkpt>
      <trkpt lat="45.01346" lon="6.37446">
        <ele>1819</ele>
        <time>2020-07-15T05:22:15Z</time>
      </trkpt>
      <trkpt lat="45.01334" lon="6.37443">
        <ele>1817</ele>
        <time>2020-07-15T05:22:31Z</time>
      </trkpt>
      <trkpt lat="45.01326" lon="6.3743">
        <ele>1816</ele>
        <time>2020-07-15T05:22:47Z</time>
      </trkpt>
      <trkpt lat="45.0132" lon="6.37431">
        <ele>1819</ele>
        <time>2020-07-15T05:22:55Z</time>
      </trkpt>
      <trkpt lat="45.01318" lon="6.37407">
        <ele>1815</ele>
        <time>2020-07-15T05:23:18Z</time>
      </trkpt>
      <trkpt lat="45.0132" lon="6.37394">
        <ele>1813</ele>
        <time>2020-07-15T05:23:30Z</time>
      </trkpt>
      <trkpt lat="45.01317" lon="6.37378">
        <ele>1814</ele>
        <time>2020-07-15T05:23:46Z</time>
      </trkpt>
      <trkpt lat="45.01301" lon="6.37375">
        <ele>1822</ele>
        <time>2020-07-15T05:24:08Z</time>
      </trkpt>
      <trkpt lat="45.01294" lon="6.37377">
        <ele>1826</ele>
        <time>2020-07-15T05:24:17Z</time>
      </trkpt>
      <trkpt lat="45.01293" lon="6.37381">
        <ele>1826</ele>
        <time>2020-07-15T05:24:21Z</time>
      </trkpt>
      <trkpt lat="45.01293" lon="6.37387">
        <ele>1827</ele>
        <time>2020-07-15T05:24:27Z</time>
      </trkpt>
      <trkpt lat="45.01302" lon="6.37394">
        <ele>1822</ele>
        <time>2020-07-15T05:24:41Z</time>
      </trkpt>
      <trkpt lat="45.01303" lon="6.37397">
        <ele>1822</ele>
        <time>2020-07-15T05:24:44Z</time>
      </trkpt>
      <trkpt lat="45.01301" lon="6.37402">
        <ele>1823</ele>
        <time>2020-07-15T05:24:49Z</time>
      </trkpt>
      <trkpt lat="45.01293" lon="6.37403">
        <ele>1827</ele>
        <time>2020-07-15T05:25:00Z</time>
      </trkpt>
      <trkpt lat="45.01286" lon="6.37412">
        <ele>1831</ele>
        <time>2020-07-15T05:25:12Z</time>
      </trkpt>
      <trkpt lat="45.01292" lon="6.37418">
        <ele>1828</ele>
        <time>2020-07-15T05:25:22Z</time>
      </trkpt>
      <trkpt lat="45.01292" lon="6.37429">
        <ele>1831</ele>
        <time>2020-07-15T05:25:33Z</time>
      </trkpt>
      <trkpt lat="45.01277" lon="6.37437">
        <ele>1839</ele>
        <time>2020-07-15T05:25:54Z</time>
      </trkpt>
      <trkpt lat="45.01275" lon="6.37441">
        <ele>1841</ele>
        <time>2020-07-15T05:25:59Z</time>
      </trkpt>
      <trkpt lat="45.01275" lon="6.37448">
        <ele>1842</ele>
        <time>2020-07-15T05:26:05Z</time>
      </trkpt>
      <trkpt lat="45.01279" lon="6.37454">
        <ele>1842</ele>
        <time>2020-07-15T05:26:13Z</time>
      </trkpt>
      <trkpt lat="45.0128" lon="6.37458">
        <ele>1843</ele>
        <time>2020-07-15T05:26:17Z</time>
      </trkpt>
      <trkpt lat="45.01278" lon="6.37466">
        <ele>1845</ele>
        <time>2020-07-15T05:26:25Z</time>
      </trkpt>
      <trkpt lat="45.01281" lon="6.37473">
        <ele>1846</ele>
        <time>2020-07-15T05:26:33Z</time>
      </trkpt>
      <trkpt lat="45.0128" lon="6.37481">
        <ele>1848</ele>
        <time>2020-07-15T05:26:40Z</time>
      </trkpt>
      <trkpt lat="45.01273" lon="6.3749">
        <ele>1852</ele>
        <time>2020-07-15T05:26:53Z</time>
      </trkpt>
      <trkpt lat="45.01269" lon="6.37498">
        <ele>1854</ele>
        <time>2020-07-15T05:27:02Z</time>
      </trkpt>
      <trkpt lat="45.0127" lon="6.37501">
        <ele>1855</ele>
        <time>2020-07-15T05:27:05Z</time>
      </trkpt>
      <trkpt lat="45.0128" lon="6.37501">
        <ele>1852</ele>
        <time>2020-07-15T05:27:19Z</time>
      </trkpt>
      <trkpt lat="45.01287" lon="6.37509">
        <ele>1854</ele>
        <time>2020-07-15T05:27:31Z</time>
      </trkpt>
      <trkpt lat="45.01285" lon="6.37514">
        <ele>1857</ele>
        <time>2020-07-15T05:27:36Z</time>
      </trkpt>
      <trkpt lat="45.0128" lon="6.37514">
        <ele>1858</ele>
        <time>2020-07-15T05:27:43Z</time>
      </trkpt>
      <trkpt lat="45.01278" lon="6.37517">
        <ele>1860</ele>
        <time>2020-07-15T05:27:47Z</time>
      </trkpt>
      <trkpt lat="45.01278" lon="6.3752">
        <ele>1861</ele>
        <time>2020-07-15T05:27:50Z</time>
      </trkpt>
      <trkpt lat="45.01281" lon="6.37526">
        <ele>1863</ele>
        <time>2020-07-15T05:27:56Z</time>
      </trkpt>
      <trkpt lat="45.01272" lon="6.37535">
        <ele>1869</ele>
        <time>2020-07-15T05:28:11Z</time>
      </trkpt>
      <trkpt lat="45.0127" lon="6.37539">
        <ele>1871</ele>
        <time>2020-07-15T05:28:16Z</time>
      </trkpt>
      <trkpt lat="45.01271" lon="6.37544">
        <ele>1873</ele>
        <time>2020-07-15T05:28:21Z</time>
      </trkpt>
      <trkpt lat="45.01304" lon="6.37546">
        <ele>1868</ele>
        <time>2020-07-15T05:29:05Z</time>
      </trkpt>
      <trkpt lat="45.01306" lon="6.37546">
        <ele>1868</ele>
        <time>2020-07-15T05:29:07Z</time>
      </trkpt>
      <trkpt lat="45.01307" lon="6.37549">
        <ele>1869</ele>
        <time>2020-07-15T05:29:11Z</time>
      </trkpt>
      <trkpt lat="45.01292" lon="6.3756">
        <ele>1877</ele>
        <time>2020-07-15T05:29:33Z</time>
      </trkpt>
      <trkpt lat="45.01285" lon="6.37574">
        <ele>1884</ele>
        <time>2020-07-15T05:29:49Z</time>
      </trkpt>
      <trkpt lat="45.01273" lon="6.37577">
        <ele>1887</ele>
        <time>2020-07-15T05:30:06Z</time>
      </trkpt>
      <trkpt lat="45.01255" lon="6.37589">
        <ele>1894</ele>
        <time>2020-07-15T05:30:32Z</time>
      </trkpt>
      <trkpt lat="45.0125" lon="6.37596">
        <ele>1898</ele>
        <time>2020-07-15T05:30:42Z</time>
      </trkpt>
      <trkpt lat="45.01265" lon="6.37602">
        <ele>1900</ele>
        <time>2020-07-15T05:31:02Z</time>
      </trkpt>
      <trkpt lat="45.01282" lon="6.37606">
        <ele>1900</ele>
        <time>2020-07-15T05:31:25Z</time>
      </trkpt>
      <trkpt lat="45.01282" lon="6.37609">
        <ele>1902</ele>
        <time>2020-07-15T05:31:28Z</time>
      </trkpt>
      <trkpt lat="45.01255" lon="6.3762">
        <ele>1910</ele>
        <time>2020-07-15T05:32:06Z</time>
      </trkpt>
      <trkpt lat="45.01272" lon="6.37627">
        <ele>1912</ele>
        <time>2020-07-15T05:32:29Z</time>
      </trkpt>
      <trkpt lat="45.0127" lon="6.37629">
        <ele>1913</ele>
        <time>2020-07-15T05:32:33Z</time>
      </trkpt>
      <trkpt lat="45.0125" lon="6.37637">
        <ele>1919</ele>
        <time>2020-07-15T05:33:00Z</time>
      </trkpt>
      <trkpt lat="45.01246" lon="6.37641">
        <ele>1922</ele>
        <time>2020-07-15T05:33:07Z</time>
      </trkpt>
      <trkpt lat="45.01237" lon="6.37642">
        <ele>1924</ele>
        <time>2020-07-15T05:33:19Z</time>
      </trkpt>
      <trkpt lat="45.01221" lon="6.37652">
        <ele>1932</ele>
        <time>2020-07-15T05:33:42Z</time>
      </trkpt>
      <trkpt lat="45.01213" lon="6.37648">
        <ele>1931</ele>
        <time>2020-07-15T05:33:54Z</time>
      </trkpt>
      <trkpt lat="45.01185" lon="6.37661">
        <ele>1941</ele>
        <time>2020-07-15T05:34:33Z</time>
      </trkpt>
      <trkpt lat="45.01168" lon="6.37665">
        <ele>1945</ele>
        <time>2020-07-15T05:34:56Z</time>
      </trkpt>
      <trkpt lat="45.01162" lon="6.37666">
        <ele>1947</ele>
        <time>2020-07-15T05:35:04Z</time>
      </trkpt>
      <trkpt lat="45.01159" lon="6.37659">
        <ele>1945</ele>
        <time>2020-07-15T05:35:12Z</time>
      </trkpt>
      <trkpt lat="45.01156" lon="6.37659">
        <ele>1946</ele>
        <time>2020-07-15T05:35:16Z</time>
      </trkpt>
      <trkpt lat="45.01154" lon="6.37654">
        <ele>1944</ele>
        <time>2020-07-15T05:35:21Z</time>
      </trkpt>
      <trkpt lat="45.01138" lon="6.37653">
        <ele>1948</ele>
        <time>2020-07-15T05:35:42Z</time>
      </trkpt>
      <trkpt lat="45.01132" lon="6.3765">
        <ele>1948</ele>
        <time>2020-07-15T05:35:51Z</time>
      </trkpt>
      <trkpt lat="45.01129" lon="6.3765">
        <ele>1949</ele>
        <time>2020-07-15T05:35:55Z</time>
      </trkpt>
      <trkpt lat="45.01127" lon="6.37651">
        <ele>1950</ele>
        <time>2020-07-15T05:35:58Z</time>
      </trkpt>
      <trkpt lat="45.01128" lon="6.37654">
        <ele>1950</ele>
        <time>2020-07-15T05:36:01Z</time>
      </trkpt>
      <trkpt lat="45.01139" lon="6.37667">
        <ele>1952</ele>
        <time>2020-07-15T05:36:20Z</time>
      </trkpt>
      <trkpt lat="45.01138" lon="6.37678">
        <ele>1957</ele>
        <time>2020-07-15T05:36:30Z</time>
      </trkpt>
      <trkpt lat="45.01135" lon="6.37683">
        <ele>1960</ele>
        <time>2020-07-15T05:36:37Z</time>
      </trkpt>
      <trkpt lat="45.01134" lon="6.37694">
        <ele>1964</ele>
        <time>2020-07-15T05:36:47Z</time>
      </trkpt>
      <trkpt lat="45.01132" lon="6.37695">
        <ele>1965</ele>
        <time>2020-07-15T05:36:50Z</time>
      </trkpt>
      <trkpt lat="45.01127" lon="6.3768">
        <ele>1960</ele>
        <time>2020-07-15T05:37:06Z</time>
      </trkpt>
      <trkpt lat="45.01123" lon="6.37686">
        <ele>1963</ele>
        <time>2020-07-15T05:37:13Z</time>
      </trkpt>
      <trkpt lat="45.01122" lon="6.37683">
        <ele>1962</ele>
        <time>2020-07-15T05:37:17Z</time>
      </trkpt>
      <trkpt lat="45.01116" lon="6.3768">
        <ele>1962</ele>
        <time>2020-07-15T05:37:25Z</time>
      </trkpt>
      <trkpt lat="45.01108" lon="6.37681">
        <ele>1964</ele>
        <time>2020-07-15T05:37:36Z</time>
      </trkpt>
      <trkpt lat="45.01102" lon="6.37686">
        <ele>1967</ele>
        <time>2020-07-15T05:37:45Z</time>
      </trkpt>
      <trkpt lat="45.01105" lon="6.377">
        <ele>1971</ele>
        <time>2020-07-15T05:37:59Z</time>
      </trkpt>
      <trkpt lat="45.01103" lon="6.37707">
        <ele>1974</ele>
        <time>2020-07-15T05:38:06Z</time>
      </trkpt>
      <trkpt lat="45.01104" lon="6.37716">
        <ele>1977</ele>
        <time>2020-07-15T05:38:15Z</time>
      </trkpt>
      <trkpt lat="45.01101" lon="6.37723">
        <ele>1980</ele>
        <time>2020-07-15T05:38:22Z</time>
      </trkpt>
      <trkpt lat="45.01098" lon="6.37736">
        <ele>1984</ele>
        <time>2020-07-15T05:38:35Z</time>
      </trkpt>
      <trkpt lat="45.011" lon="6.37741">
        <ele>1986</ele>
        <time>2020-07-15T05:38:41Z</time>
      </trkpt>
      <trkpt lat="45.01101" lon="6.37753">
        <ele>1990</ele>
        <time>2020-07-15T05:38:52Z</time>
      </trkpt>
      <trkpt lat="45.01093" lon="6.37752">
        <ele>1990</ele>
        <time>2020-07-15T05:39:03Z</time>
      </trkpt>
      <trkpt lat="45.01083" lon="6.37757">
        <ele>1993</ele>
        <time>2020-07-15T05:39:17Z</time>
      </trkpt>
      <trkpt lat="45.0107" lon="6.37757">
        <ele>1994</ele>
        <time>2020-07-15T05:39:34Z</time>
      </trkpt>
      <trkpt lat="45.01057" lon="6.37763">
        <ele>1996</ele>
        <time>2020-07-15T05:39:52Z</time>
      </trkpt>
      <trkpt lat="45.01046" lon="6.37765">
        <ele>1998</ele>
        <time>2020-07-15T05:40:07Z</time>
      </trkpt>
      <trkpt lat="45.0104" lon="6.37768">
        <ele>1999</ele>
        <time>2020-07-15T05:40:16Z</time>
      </trkpt>
      <trkpt lat="45.01025" lon="6.37786">
        <ele>2005</ele>
        <time>2020-07-15T05:40:42Z</time>
      </trkpt>
      <trkpt lat="45.01006" lon="6.37798">
        <ele>2007</ele>
        <time>2020-07-15T05:41:10Z</time>
      </trkpt>
      <trkpt lat="45.00997" lon="6.37798">
        <ele>2007</ele>
        <time>2020-07-15T05:41:22Z</time>
      </trkpt>
      <trkpt lat="45.00972" lon="6.37808">
        <ele>2011</ele>
        <time>2020-07-15T05:41:56Z</time>
      </trkpt>
      <trkpt lat="45.00967" lon="6.37804">
        <ele>2010</ele>
        <time>2020-07-15T05:42:04Z</time>
      </trkpt>
      <trkpt lat="45.00941" lon="6.3781">
        <ele>2012</ele>
        <time>2020-07-15T05:42:39Z</time>
      </trkpt>
      <trkpt lat="45.00924" lon="6.37807">
        <ele>2012</ele>
        <time>2020-07-15T05:43:02Z</time>
      </trkpt>
      <trkpt lat="45.00916" lon="6.3781">
        <ele>2013</ele>
        <time>2020-07-15T05:43:13Z</time>
      </trkpt>
      <trkpt lat="45.00889" lon="6.37832">
        <ele>2021</ele>
        <time>2020-07-15T05:43:55Z</time>
      </trkpt>
      <trkpt lat="45.00864" lon="6.37847">
        <ele>2027</ele>
        <time>2020-07-15T05:44:31Z</time>
      </trkpt>
      <trkpt lat="45.00848" lon="6.37861">
        <ele>2031</ele>
        <time>2020-07-15T05:44:56Z</time>
      </trkpt>
      <trkpt lat="45.00835" lon="6.37867">
        <ele>2032</ele>
        <time>2020-07-15T05:45:14Z</time>
      </trkpt>
      <trkpt lat="45.00786" lon="6.37902">
        <ele>2037</ele>
        <time>2020-07-15T05:46:28Z</time>
      </trkpt>
      <trkpt lat="45.00761" lon="6.37925">
        <ele>2041</ele>
        <time>2020-07-15T05:47:07Z</time>
      </trkpt>
      <trkpt lat="45.00722" lon="6.37955">
        <ele>2046</ele>
        <time>2020-07-15T05:48:07Z</time>
      </trkpt>
      <trkpt lat="45.00712" lon="6.37957">
        <ele>2047</ele>
        <time>2020-07-15T05:48:20Z</time>
      </trkpt>
      <trkpt lat="45.00707" lon="6.37962">
        <ele>2048</ele>
        <time>2020-07-15T05:48:28Z</time>
      </trkpt>
      <trkpt lat="45.00704" lon="6.37967">
        <ele>2049</ele>
        <time>2020-07-15T05:48:34Z</time>
      </trkpt>
      <trkpt lat="45.00694" lon="6.37971">
        <ele>2050</ele>
        <time>2020-07-15T05:48:48Z</time>
      </trkpt>
      <trkpt lat="45.00671" lon="6.37992">
        <ele>2055</ele>
        <time>2020-07-15T05:49:25Z</time>
      </trkpt>
      <trkpt lat="45.00596" lon="6.38035">
        <ele>2056</ele>
        <time>2020-07-15T05:51:13Z</time>
      </trkpt>
      <trkpt lat="45.00549" lon="6.38085">
        <ele>2056</ele>
        <time>2020-07-15T05:52:31Z</time>
      </trkpt>
      <trkpt lat="45.00544" lon="6.3809">
        <ele>2056</ele>
        <time>2020-07-15T05:52:40Z</time>
      </trkpt>
      <trkpt lat="45.00526" lon="6.38112">
        <ele>2056</ele>
        <time>2020-07-15T05:53:11Z</time>
      </trkpt>
      <trkpt lat="45.00507" lon="6.38133">
        <ele>2055</ele>
        <time>2020-07-15T05:53:43Z</time>
      </trkpt>
      <trkpt lat="45.00484" lon="6.38172">
        <ele>2057</ele>
        <time>2020-07-15T05:54:31Z</time>
      </trkpt>
      <trkpt lat="45.00474" lon="6.3818">
        <ele>2059</ele>
        <time>2020-07-15T05:54:47Z</time>
      </trkpt>
      <trkpt lat="45.00462" lon="6.38184">
        <ele>2059</ele>
        <time>2020-07-15T05:55:03Z</time>
      </trkpt>
      <trkpt lat="45.00435" lon="6.382">
        <ele>2060</ele>
        <time>2020-07-15T05:55:42Z</time>
      </trkpt>
      <trkpt lat="45.0041" lon="6.38207">
        <ele>2060</ele>
        <time>2020-07-15T05:56:16Z</time>
      </trkpt>
      <trkpt lat="45.00405" lon="6.38205">
        <ele>2059</ele>
        <time>2020-07-15T05:56:23Z</time>
      </trkpt>
      <trkpt lat="45.004" lon="6.38209">
        <ele>2059</ele>
        <time>2020-07-15T05:56:31Z</time>
      </trkpt>
      <trkpt lat="45.00396" lon="6.38205">
        <ele>2058</ele>
        <time>2020-07-15T05:56:37Z</time>
      </trkpt>
      <trkpt lat="45.0039" lon="6.38204">
        <ele>2057</ele>
        <time>2020-07-15T05:56:45Z</time>
      </trkpt>
      <trkpt lat="45.0038" lon="6.38206">
        <ele>2057</ele>
        <time>2020-07-15T05:56:59Z</time>
      </trkpt>
      <trkpt lat="45.00373" lon="6.38211">
        <ele>2058</ele>
        <time>2020-07-15T05:57:09Z</time>
      </trkpt>
      <trkpt lat="45.00365" lon="6.38208">
        <ele>2057</ele>
        <time>2020-07-15T05:57:20Z</time>
      </trkpt>
      <trkpt lat="45.00357" lon="6.38209">
        <ele>2056</ele>
        <time>2020-07-15T05:57:31Z</time>
      </trkpt>
      <trkpt lat="45.00352" lon="6.38207">
        <ele>2055</ele>
        <time>2020-07-15T05:57:38Z</time>
      </trkpt>
      <trkpt lat="45.00308" lon="6.38225">
        <ele>2056</ele>
        <time>2020-07-15T05:58:39Z</time>
      </trkpt>
      <trkpt lat="45.00283" lon="6.38223">
        <ele>2054</ele>
        <time>2020-07-15T05:59:13Z</time>
      </trkpt>
      <trkpt lat="45.00275" lon="6.38229">
        <ele>2055</ele>
        <time>2020-07-15T05:59:25Z</time>
      </trkpt>
      <trkpt lat="45.0027" lon="6.38235">
        <ele>2056</ele>
        <time>2020-07-15T05:59:33Z</time>
      </trkpt>
      <trkpt lat="45.00269" lon="6.38241">
        <ele>2058</ele>
        <time>2020-07-15T05:59:39Z</time>
      </trkpt>
      <trkpt lat="45.00266" lon="6.38243">
        <ele>2059</ele>
        <time>2020-07-15T05:59:44Z</time>
      </trkpt>
      <trkpt lat="45.00212" lon="6.38233">
        <ele>2048</ele>
        <time>2020-07-15T06:00:56Z</time>
      </trkpt>
      <trkpt lat="45.00166" lon="6.3825">
        <ele>2048</ele>
        <time>2020-07-15T06:02:00Z</time>
      </trkpt>
      <trkpt lat="45.0016" lon="6.38249">
        <ele>2048</ele>
        <time>2020-07-15T06:02:08Z</time>
      </trkpt>
      <trkpt lat="45.00108" lon="6.38275">
        <ele>2055</ele>
        <time>2020-07-15T06:03:21Z</time>
      </trkpt>
      <trkpt lat="45.0008" lon="6.38282">
        <ele>2056</ele>
        <time>2020-07-15T06:03:59Z</time>
      </trkpt>
      <trkpt lat="45.00059" lon="6.38284">
        <ele>2055</ele>
        <time>2020-07-15T06:04:27Z</time>
      </trkpt>
      <trkpt lat="45.00052" lon="6.38289">
        <ele>2056</ele>
        <time>2020-07-15T06:04:38Z</time>
      </trkpt>
      <trkpt lat="45.00044" lon="6.383">
        <ele>2058</ele>
        <time>2020-07-15T06:04:53Z</time>
      </trkpt>
      <trkpt lat="45.00039" lon="6.38298">
        <ele>2057</ele>
        <time>2020-07-15T06:05:00Z</time>
      </trkpt>
      <trkpt lat="45.00034" lon="6.38292">
        <ele>2056</ele>
        <time>2020-07-15T06:05:09Z</time>
      </trkpt>
      <trkpt lat="45.00021" lon="6.38306">
        <ele>2057</ele>
        <time>2020-07-15T06:05:30Z</time>
      </trkpt>
      <trkpt lat="45.00019" lon="6.38314">
        <ele>2059</ele>
        <time>2020-07-15T06:05:38Z</time>
      </trkpt>
      <trkpt lat="45.00016" lon="6.38315">
        <ele>2059</ele>
        <time>2020-07-15T06:05:42Z</time>
      </trkpt>
      <trkpt lat="45.00014" lon="6.38312">
        <ele>2058</ele>
        <time>2020-07-15T06:05:46Z</time>
      </trkpt>
      <trkpt lat="45.00008" lon="6.38316">
        <ele>2058</ele>
        <time>2020-07-15T06:05:55Z</time>
      </trkpt>
      <trkpt lat="45.00002" lon="6.38317">
        <ele>2058</ele>
        <time>2020-07-15T06:06:03Z</time>
      </trkpt>
      <trkpt lat="44.99992" lon="6.38311">
        <ele>2057</ele>
        <time>2020-07-15T06:06:18Z</time>
      </trkpt>
      <trkpt lat="44.99884" lon="6.38338">
        <ele>2064</ele>
        <time>2020-07-15T06:08:44Z</time>
      </trkpt>
      <trkpt lat="44.99819" lon="6.38387">
        <ele>2066</ele>
        <time>2020-07-15T06:10:22Z</time>
      </trkpt>
      <trkpt lat="44.998" lon="6.38388">
        <ele>2066</ele>
        <time>2020-07-15T06:10:48Z</time>
      </trkpt>
      <trkpt lat="44.99745" lon="6.38412">
        <ele>2069</ele>
        <time>2020-07-15T06:12:05Z</time>
      </trkpt>
      <trkpt lat="44.99734" lon="6.38437">
        <ele>2070</ele>
        <time>2020-07-15T06:12:32Z</time>
      </trkpt>
      <trkpt lat="44.99716" lon="6.38437">
        <ele>2071</ele>
        <time>2020-07-15T06:12:56Z</time>
      </trkpt>
      <trkpt lat="44.99708" lon="6.3843">
        <ele>2070</ele>
        <time>2020-07-15T06:13:09Z</time>
      </trkpt>
      <trkpt lat="44.99687" lon="6.38417">
        <ele>2070</ele>
        <time>2020-07-15T06:13:40Z</time>
      </trkpt>
      <trkpt lat="44.99678" lon="6.38414">
        <ele>2069</ele>
        <time>2020-07-15T06:13:52Z</time>
      </trkpt>
      <trkpt lat="44.99665" lon="6.38414">
        <ele>2069</ele>
        <time>2020-07-15T06:14:09Z</time>
      </trkpt>
      <trkpt lat="44.99658" lon="6.38411">
        <ele>2068</ele>
        <time>2020-07-15T06:14:19Z</time>
      </trkpt>
      <trkpt lat="44.99646" lon="6.38417">
        <ele>2070</ele>
        <time>2020-07-15T06:14:36Z</time>
      </trkpt>
      <trkpt lat="44.99644" lon="6.38419">
        <ele>2070</ele>
        <time>2020-07-15T06:14:39Z</time>
      </trkpt>
      <trkpt lat="44.99635" lon="6.38434">
        <ele>2071</ele>
        <time>2020-07-15T06:14:58Z</time>
      </trkpt>
      <trkpt lat="44.99626" lon="6.38437">
        <ele>2072</ele>
        <time>2020-07-15T06:15:10Z</time>
      </trkpt>
      <trkpt lat="44.99623" lon="6.38435">
        <ele>2072</ele>
        <time>2020-07-15T06:15:15Z</time>
      </trkpt>
      <trkpt lat="44.99609" lon="6.38436">
        <ele>2072</ele>
        <time>2020-07-15T06:15:33Z</time>
      </trkpt>
      <trkpt lat="44.9961" lon="6.38467">
        <ele>2076</ele>
        <time>2020-07-15T06:16:03Z</time>
      </trkpt>
      <trkpt lat="44.99613" lon="6.38477">
        <ele>2077</ele>
        <time>2020-07-15T06:16:13Z</time>
      </trkpt>
      <trkpt lat="44.99614" lon="6.38487">
        <ele>2078</ele>
        <time>2020-07-15T06:16:22Z</time>
      </trkpt>
      <trkpt lat="44.99597" lon="6.3852">
        <ele>2084</ele>
        <time>2020-07-15T06:17:01Z</time>
      </trkpt>
      <trkpt lat="44.99593" lon="6.38532">
        <ele>2085</ele>
        <time>2020-07-15T06:17:13Z</time>
      </trkpt>
      <trkpt lat="44.99585" lon="6.38538">
        <ele>2087</ele>
        <time>2020-07-15T06:17:25Z</time>
      </trkpt>
      <trkpt lat="44.99579" lon="6.38545">
        <ele>2089</ele>
        <time>2020-07-15T06:17:36Z</time>
      </trkpt>
      <trkpt lat="44.99555" lon="6.38558">
        <ele>2096</ele>
        <time>2020-07-15T06:18:10Z</time>
      </trkpt>
      <trkpt lat="44.99551" lon="6.38557">
        <ele>2097</ele>
        <time>2020-07-15T06:18:16Z</time>
      </trkpt>
      <trkpt lat="44.99544" lon="6.38561">
        <ele>2099</ele>
        <time>2020-07-15T06:18:26Z</time>
      </trkpt>
      <trkpt lat="44.99541" lon="6.38564">
        <ele>2100</ele>
        <time>2020-07-15T06:18:31Z</time>
      </trkpt>
      <trkpt lat="44.99541" lon="6.38567">
        <ele>2101</ele>
        <time>2020-07-15T06:18:33Z</time>
      </trkpt>
      <trkpt lat="44.99538" lon="6.38572">
        <ele>2102</ele>
        <time>2020-07-15T06:18:40Z</time>
      </trkpt>
      <trkpt lat="44.99537" lon="6.38578">
        <ele>2104</ele>
        <time>2020-07-15T06:18:45Z</time>
      </trkpt>
      <trkpt lat="44.99536" lon="6.38594">
        <ele>2106</ele>
        <time>2020-07-15T06:19:01Z</time>
      </trkpt>
      <trkpt lat="44.99535" lon="6.386">
        <ele>2106</ele>
        <time>2020-07-15T06:19:06Z</time>
      </trkpt>
      <trkpt lat="44.99529" lon="6.38608">
        <ele>2108</ele>
        <time>2020-07-15T06:19:17Z</time>
      </trkpt>
      <trkpt lat="44.99523" lon="6.38613">
        <ele>2110</ele>
        <time>2020-07-15T06:19:27Z</time>
      </trkpt>
      <trkpt lat="44.99519" lon="6.38622">
        <ele>2112</ele>
        <time>2020-07-15T06:19:37Z</time>
      </trkpt>
      <trkpt lat="44.99513" lon="6.38623">
        <ele>2113</ele>
        <time>2020-07-15T06:19:45Z</time>
      </trkpt>
      <trkpt lat="44.99485" lon="6.38622">
        <ele>2119</ele>
        <time>2020-07-15T06:20:22Z</time>
      </trkpt>
      <trkpt lat="44.99451" lon="6.38632">
        <ele>2125</ele>
        <time>2020-07-15T06:21:08Z</time>
      </trkpt>
      <trkpt lat="44.99411" lon="6.3865">
        <ele>2132</ele>
        <time>2020-07-15T06:22:04Z</time>
      </trkpt>
      <trkpt lat="44.99409" lon="6.38653">
        <ele>2132</ele>
        <time>2020-07-15T06:22:08Z</time>
      </trkpt>
      <trkpt lat="44.9939" lon="6.38663">
        <ele>2133</ele>
        <time>2020-07-15T06:22:35Z</time>
      </trkpt>
      <trkpt lat="44.9938" lon="6.38671">
        <ele>2133</ele>
        <time>2020-07-15T06:22:51Z</time>
      </trkpt>
      <trkpt lat="44.99358" lon="6.38683">
        <ele>2135</ele>
        <time>2020-07-15T06:23:22Z</time>
      </trkpt>
      <trkpt lat="44.99338" lon="6.38689">
        <ele>2136</ele>
        <time>2020-07-15T06:23:50Z</time>
      </trkpt>
      <trkpt lat="44.99318" lon="6.38701">
        <ele>2138</ele>
        <time>2020-07-15T06:24:19Z</time>
      </trkpt>
      <trkpt lat="44.99287" lon="6.38729">
        <ele>2140</ele>
        <time>2020-07-15T06:25:08Z</time>
      </trkpt>
      <trkpt lat="44.9927" lon="6.38748">
        <ele>2142</ele>
        <time>2020-07-15T06:25:37Z</time>
      </trkpt>
      <trkpt lat="44.99228" lon="6.3881">
        <ele>2148</ele>
        <time>2020-07-15T06:26:58Z</time>
      </trkpt>
      <trkpt lat="44.99214" lon="6.38826">
        <ele>2150</ele>
        <time>2020-07-15T06:27:22Z</time>
      </trkpt>
      <trkpt lat="44.99197" lon="6.3884">
        <ele>2152</ele>
        <time>2020-07-15T06:27:48Z</time>
      </trkpt>
      <trkpt lat="44.99184" lon="6.38856">
        <ele>2153</ele>
        <time>2020-07-15T06:28:11Z</time>
      </trkpt>
      <trkpt lat="44.99167" lon="6.38869">
        <ele>2156</ele>
        <time>2020-07-15T06:28:37Z</time>
      </trkpt>
      <trkpt lat="44.99159" lon="6.38871">
        <ele>2156</ele>
        <time>2020-07-15T06:28:47Z</time>
      </trkpt>
      <trkpt lat="44.99136" lon="6.38881">
        <ele>2157</ele>
        <time>2020-07-15T06:29:20Z</time>
      </trkpt>
      <trkpt lat="44.99133" lon="6.38885">
        <ele>2157</ele>
        <time>2020-07-15T06:29:25Z</time>
      </trkpt>
      <trkpt lat="44.99129" lon="6.38885">
        <ele>2157</ele>
        <time>2020-07-15T06:29:30Z</time>
      </trkpt>
      <trkpt lat="44.99127" lon="6.3889">
        <ele>2157</ele>
        <time>2020-07-15T06:29:36Z</time>
      </trkpt>
      <trkpt lat="44.99113" lon="6.38898">
        <ele>2157</ele>
        <time>2020-07-15T06:29:56Z</time>
      </trkpt>
      <trkpt lat="44.99104" lon="6.38919">
        <ele>2158</ele>
        <time>2020-07-15T06:30:19Z</time>
      </trkpt>
      <trkpt lat="44.99083" lon="6.38982">
        <ele>2162</ele>
        <time>2020-07-15T06:31:25Z</time>
      </trkpt>
      <trkpt lat="44.99079" lon="6.39005">
        <ele>2163</ele>
        <time>2020-07-15T06:31:47Z</time>
      </trkpt>
      <trkpt lat="44.99081" lon="6.39016">
        <ele>2164</ele>
        <time>2020-07-15T06:31:58Z</time>
      </trkpt>
      <trkpt lat="44.9908" lon="6.3903">
        <ele>2165</ele>
        <time>2020-07-15T06:32:11Z</time>
      </trkpt>
      <trkpt lat="44.99077" lon="6.39033">
        <ele>2165</ele>
        <time>2020-07-15T06:32:16Z</time>
      </trkpt>
      <trkpt lat="44.99069" lon="6.39052">
        <ele>2166</ele>
        <time>2020-07-15T06:32:37Z</time>
      </trkpt>
      <trkpt lat="44.99058" lon="6.3907">
        <ele>2168</ele>
        <time>2020-07-15T06:32:59Z</time>
      </trkpt>
      <trkpt lat="44.99054" lon="6.39079">
        <ele>2168</ele>
        <time>2020-07-15T06:33:09Z</time>
      </trkpt>
      <trkpt lat="44.99042" lon="6.39091">
        <ele>2170</ele>
        <time>2020-07-15T06:33:29Z</time>
      </trkpt>
      <trkpt lat="44.99028" lon="6.39116">
        <ele>2172</ele>
        <time>2020-07-15T06:33:59Z</time>
      </trkpt>
      <trkpt lat="44.99022" lon="6.39121">
        <ele>2173</ele>
        <time>2020-07-15T06:34:08Z</time>
      </trkpt>
      <trkpt lat="44.99005" lon="6.39146">
        <ele>2175</ele>
        <time>2020-07-15T06:34:41Z</time>
      </trkpt>
      <trkpt lat="44.99" lon="6.39156">
        <ele>2175</ele>
        <time>2020-07-15T06:34:53Z</time>
      </trkpt>
      <trkpt lat="44.99" lon="6.39162">
        <ele>2176</ele>
        <time>2020-07-15T06:34:58Z</time>
      </trkpt>
      <trkpt lat="44.98996" lon="6.39169">
        <ele>2176</ele>
        <time>2020-07-15T06:35:07Z</time>
      </trkpt>
      <trkpt lat="44.98996" lon="6.39178">
        <ele>2176</ele>
        <time>2020-07-15T06:35:15Z</time>
      </trkpt>
      <trkpt lat="44.98993" lon="6.39188">
        <ele>2176</ele>
        <time>2020-07-15T06:35:26Z</time>
      </trkpt>
      <trkpt lat="44.98992" lon="6.39192">
        <ele>2177</ele>
        <time>2020-07-15T06:35:30Z</time>
      </trkpt>
      <trkpt lat="44.98988" lon="6.39197">
        <ele>2177</ele>
        <time>2020-07-15T06:35:37Z</time>
      </trkpt>
      <trkpt lat="44.98958" lon="6.39198">
        <ele>2178</ele>
        <time>2020-07-15T06:36:17Z</time>
      </trkpt>
      <trkpt lat="44.98937" lon="6.39217">
        <ele>2178</ele>
        <time>2020-07-15T06:36:50Z</time>
      </trkpt>
      <trkpt lat="44.98923" lon="6.39216">
        <ele>2179</ele>
        <time>2020-07-15T06:37:09Z</time>
      </trkpt>
      <trkpt lat="44.9892" lon="6.39217">
        <ele>2179</ele>
        <time>2020-07-15T06:37:13Z</time>
      </trkpt>
      <trkpt lat="44.98915" lon="6.39228">
        <ele>2179</ele>
        <time>2020-07-15T06:37:25Z</time>
      </trkpt>
      <trkpt lat="44.98906" lon="6.39241">
        <ele>2180</ele>
        <time>2020-07-15T06:37:42Z</time>
      </trkpt>
      <trkpt lat="44.9889" lon="6.39261">
        <ele>2181</ele>
        <time>2020-07-15T06:38:11Z</time>
      </trkpt>
      <trkpt lat="44.98876" lon="6.39267">
        <ele>2182</ele>
        <time>2020-07-15T06:38:30Z</time>
      </trkpt>
      <trkpt lat="44.98863" lon="6.39283">
        <ele>2183</ele>
        <time>2020-07-15T06:38:53Z</time>
      </trkpt>
      <trkpt lat="44.9884" lon="6.393">
        <ele>2185</ele>
        <time>2020-07-15T06:39:28Z</time>
      </trkpt>
      <trkpt lat="44.98821" lon="6.39327">
        <ele>2187</ele>
        <time>2020-07-15T06:40:04Z</time>
      </trkpt>
      <trkpt lat="44.98813" lon="6.39344">
        <ele>2188</ele>
        <time>2020-07-15T06:40:23Z</time>
      </trkpt>
      <trkpt lat="44.98802" lon="6.39354">
        <ele>2188</ele>
        <time>2020-07-15T06:40:41Z</time>
      </trkpt>
      <trkpt lat="44.98796" lon="6.39374">
        <ele>2189</ele>
        <time>2020-07-15T06:41:01Z</time>
      </trkpt>
      <trkpt lat="44.98769" lon="6.39408">
        <ele>2189</ele>
        <time>2020-07-15T06:41:50Z</time>
      </trkpt>
      <trkpt lat="44.98761" lon="6.39412">
        <ele>2189</ele>
        <time>2020-07-15T06:42:01Z</time>
      </trkpt>
      <trkpt lat="44.98753" lon="6.39425">
        <ele>2189</ele>
        <time>2020-07-15T06:42:17Z</time>
      </trkpt>
      <trkpt lat="44.98746" lon="6.39429">
        <ele>2190</ele>
        <time>2020-07-15T06:42:27Z</time>
      </trkpt>
      <trkpt lat="44.98739" lon="6.3944">
        <ele>2191</ele>
        <time>2020-07-15T06:42:41Z</time>
      </trkpt>
      <trkpt lat="44.98736" lon="6.39451">
        <ele>2192</ele>
        <time>2020-07-15T06:42:52Z</time>
      </trkpt>
      <trkpt lat="44.98727" lon="6.39456">
        <ele>2193</ele>
        <time>2020-07-15T06:43:05Z</time>
      </trkpt>
      <trkpt lat="44.98725" lon="6.39461">
        <ele>2193</ele>
        <time>2020-07-15T06:43:11Z</time>
      </trkpt>
      <trkpt lat="44.98716" lon="6.39468">
        <ele>2194</ele>
        <time>2020-07-15T06:43:24Z</time>
      </trkpt>
      <trkpt lat="44.98704" lon="6.39469">
        <ele>2195</ele>
        <time>2020-07-15T06:43:40Z</time>
      </trkpt>
      <trkpt lat="44.98701" lon="6.39482">
        <ele>2196</ele>
        <time>2020-07-15T06:43:53Z</time>
      </trkpt>
      <trkpt lat="44.98697" lon="6.39488">
        <ele>2196</ele>
        <time>2020-07-15T06:44:01Z</time>
      </trkpt>
      <trkpt lat="44.98694" lon="6.39496">
        <ele>2196</ele>
        <time>2020-07-15T06:44:10Z</time>
      </trkpt>
      <trkpt lat="44.98679" lon="6.39511">
        <ele>2197</ele>
        <time>2020-07-15T06:44:34Z</time>
      </trkpt>
      <trkpt lat="44.98669" lon="6.39529">
        <ele>2197</ele>
        <time>2020-07-15T06:44:56Z</time>
      </trkpt>
      <trkpt lat="44.98668" lon="6.39536">
        <ele>2197</ele>
        <time>2020-07-15T06:45:02Z</time>
      </trkpt>
      <trkpt lat="44.98657" lon="6.39555">
        <ele>2198</ele>
        <time>2020-07-15T06:45:26Z</time>
      </trkpt>
      <trkpt lat="44.98653" lon="6.39569">
        <ele>2198</ele>
        <time>2020-07-15T06:45:40Z</time>
      </trkpt>
      <trkpt lat="44.9865" lon="6.39575">
        <ele>2198</ele>
        <time>2020-07-15T06:45:47Z</time>
      </trkpt>
      <trkpt lat="44.98648" lon="6.39582">
        <ele>2198</ele>
        <time>2020-07-15T06:45:54Z</time>
      </trkpt>
      <trkpt lat="44.98637" lon="6.39607">
        <ele>2202</ele>
        <time>2020-07-15T06:46:22Z</time>
      </trkpt>
      <trkpt lat="44.98637" lon="6.39626">
        <ele>2204</ele>
        <time>2020-07-15T06:46:40Z</time>
      </trkpt>
      <trkpt lat="44.98634" lon="6.39641">
        <ele>2205</ele>
        <time>2020-07-15T06:46:54Z</time>
      </trkpt>
      <trkpt lat="44.98634" lon="6.39648">
        <ele>2206</ele>
        <time>2020-07-15T06:47:01Z</time>
      </trkpt>
      <trkpt lat="44.98635" lon="6.39649">
        <ele>2206</ele>
        <time>2020-07-15T06:47:03Z</time>
      </trkpt>
      <trkpt lat="44.98609" lon="6.39691">
        <ele>2210</ele>
        <time>2020-07-15T06:47:55Z</time>
      </trkpt>
      <trkpt lat="44.98585" lon="6.3972">
        <ele>2212</ele>
        <time>2020-07-15T06:48:37Z</time>
      </trkpt>
      <trkpt lat="44.98567" lon="6.39751">
        <ele>2215</ele>
        <time>2020-07-15T06:49:15Z</time>
      </trkpt>
      <trkpt lat="44.98541" lon="6.39772">
        <ele>2217</ele>
        <time>2020-07-15T06:49:55Z</time>
      </trkpt>
      <trkpt lat="44.98532" lon="6.39782">
        <ele>2218</ele>
        <time>2020-07-15T06:50:11Z</time>
      </trkpt>
      <trkpt lat="44.98514" lon="6.39807">
        <ele>2219</ele>
        <time>2020-07-15T06:50:44Z</time>
      </trkpt>
      <trkpt lat="44.98475" lon="6.39888">
        <ele>2224</ele>
        <time>2020-07-15T06:52:17Z</time>
      </trkpt>
      <trkpt lat="44.98471" lon="6.3989">
        <ele>2224</ele>
        <time>2020-07-15T06:52:22Z</time>
      </trkpt>
      <trkpt lat="44.98466" lon="6.39906">
        <ele>2225</ele>
        <time>2020-07-15T06:52:39Z</time>
      </trkpt>
      <trkpt lat="44.98455" lon="6.39919">
        <ele>2226</ele>
        <time>2020-07-15T06:52:58Z</time>
      </trkpt>
      <trkpt lat="44.9845" lon="6.39923">
        <ele>2226</ele>
        <time>2020-07-15T06:53:06Z</time>
      </trkpt>
      <trkpt lat="44.98446" lon="6.39931">
        <ele>2226</ele>
        <time>2020-07-15T06:53:15Z</time>
      </trkpt>
      <trkpt lat="44.98445" lon="6.39938">
        <ele>2226</ele>
        <time>2020-07-15T06:53:22Z</time>
      </trkpt>
      <trkpt lat="44.98442" lon="6.39942">
        <ele>2226</ele>
        <time>2020-07-15T06:53:27Z</time>
      </trkpt>
      <trkpt lat="44.98442" lon="6.39947">
        <ele>2226</ele>
        <time>2020-07-15T06:53:32Z</time>
      </trkpt>
      <trkpt lat="44.9843" lon="6.39986">
        <ele>2228</ele>
        <time>2020-07-15T06:54:12Z</time>
      </trkpt>
      <trkpt lat="44.98421" lon="6.39993">
        <ele>2227</ele>
        <time>2020-07-15T06:54:26Z</time>
      </trkpt>
      <trkpt lat="44.98419" lon="6.40006">
        <ele>2228</ele>
        <time>2020-07-15T06:54:38Z</time>
      </trkpt>
      <trkpt lat="44.98413" lon="6.40015">
        <ele>2228</ele>
        <time>2020-07-15T06:54:50Z</time>
      </trkpt>
      <trkpt lat="44.9841" lon="6.40026">
        <ele>2229</ele>
        <time>2020-07-15T06:55:01Z</time>
      </trkpt>
      <trkpt lat="44.9839" lon="6.40053">
        <ele>2230</ele>
        <time>2020-07-15T06:55:38Z</time>
      </trkpt>
      <trkpt lat="44.98388" lon="6.40056">
        <ele>2230</ele>
        <time>2020-07-16T22:55:11Z</time>
      </trkpt>
      <trkpt lat="44.98366" lon="6.40085">
        <ele>2232</ele>
        <time>2020-07-16T22:55:51Z</time>
      </trkpt>
      <trkpt lat="44.9835" lon="6.40115">
        <ele>2233</ele>
        <time>2020-07-16T22:56:27Z</time>
      </trkpt>
      <trkpt lat="44.98314" lon="6.40145">
        <ele>2234</ele>
        <time>2020-07-16T22:57:22Z</time>
      </trkpt>
      <trkpt lat="44.98297" lon="6.40154">
        <ele>2235</ele>
        <time>2020-07-16T22:57:47Z</time>
      </trkpt>
      <trkpt lat="44.9825" lon="6.402">
        <ele>2239</ele>
        <time>2020-07-16T22:59:03Z</time>
      </trkpt>
      <trkpt lat="44.98239" lon="6.40207">
        <ele>2240</ele>
        <time>2020-07-16T22:59:19Z</time>
      </trkpt>
      <trkpt lat="44.98223" lon="6.40212">
        <ele>2240</ele>
        <time>2020-07-16T22:59:41Z</time>
      </trkpt>
      <trkpt lat="44.98203" lon="6.4023">
        <ele>2241</ele>
        <time>2020-07-16T23:00:12Z</time>
      </trkpt>
      <trkpt lat="44.98196" lon="6.40234">
        <ele>2241</ele>
        <time>2020-07-16T23:00:23Z</time>
      </trkpt>
      <trkpt lat="44.9819" lon="6.40243">
        <ele>2241</ele>
        <time>2020-07-16T23:00:34Z</time>
      </trkpt>
      <trkpt lat="44.9816" lon="6.40276">
        <ele>2242</ele>
        <time>2020-07-16T23:01:25Z</time>
      </trkpt>
      <trkpt lat="44.98157" lon="6.40284">
        <ele>2243</ele>
        <time>2020-07-16T23:01:33Z</time>
      </trkpt>
      <trkpt lat="44.98155" lon="6.40283">
        <ele>2243</ele>
        <time>2020-07-16T23:01:36Z</time>
      </trkpt>
      <trkpt lat="44.98142" lon="6.40294">
        <ele>2244</ele>
        <time>2020-07-16T23:01:57Z</time>
      </trkpt>
      <trkpt lat="44.98136" lon="6.40303">
        <ele>2244</ele>
        <time>2020-07-16T23:02:08Z</time>
      </trkpt>
      <trkpt lat="44.98135" lon="6.40306">
        <ele>2244</ele>
        <time>2020-07-16T23:02:11Z</time>
      </trkpt>
      <trkpt lat="44.98136" lon="6.4031">
        <ele>2244</ele>
        <time>2020-07-16T23:02:15Z</time>
      </trkpt>
      <trkpt lat="44.98125" lon="6.40325">
        <ele>2245</ele>
        <time>2020-07-16T23:02:36Z</time>
      </trkpt>
      <trkpt lat="44.98123" lon="6.40338">
        <ele>2245</ele>
        <time>2020-07-16T23:02:48Z</time>
      </trkpt>
      <trkpt lat="44.9811" lon="6.40361">
        <ele>2248</ele>
        <time>2020-07-16T23:03:16Z</time>
      </trkpt>
      <trkpt lat="44.98104" lon="6.40387">
        <ele>2250</ele>
        <time>2020-07-16T23:03:42Z</time>
      </trkpt>
      <trkpt lat="44.98099" lon="6.40396">
        <ele>2251</ele>
        <time>2020-07-16T23:03:53Z</time>
      </trkpt>
      <trkpt lat="44.98086" lon="6.40412">
        <ele>2252</ele>
        <time>2020-07-16T23:04:16Z</time>
      </trkpt>
      <trkpt lat="44.98059" lon="6.40432">
        <ele>2256</ele>
        <time>2020-07-16T23:04:56Z</time>
      </trkpt>
      <trkpt lat="44.9805" lon="6.4045">
        <ele>2259</ele>
        <time>2020-07-16T23:05:17Z</time>
      </trkpt>
      <trkpt lat="44.98049" lon="6.40455">
        <ele>2259</ele>
        <time>2020-07-16T23:05:22Z</time>
      </trkpt>
      <trkpt lat="44.98045" lon="6.4046">
        <ele>2260</ele>
        <time>2020-07-16T23:05:29Z</time>
      </trkpt>
      <trkpt lat="44.98029" lon="6.40486">
        <ele>2263</ele>
        <time>2020-07-16T23:06:02Z</time>
      </trkpt>
      <trkpt lat="44.98022" lon="6.40488">
        <ele>2263</ele>
        <time>2020-07-16T23:06:11Z</time>
      </trkpt>
      <trkpt lat="44.98019" lon="6.40491">
        <ele>2263</ele>
        <time>2020-07-16T23:06:16Z</time>
      </trkpt>
      <trkpt lat="44.98011" lon="6.40491">
        <ele>2264</ele>
        <time>2020-07-16T23:06:27Z</time>
      </trkpt>
      <trkpt lat="44.97998" lon="6.40499">
        <ele>2264</ele>
        <time>2020-07-16T23:06:46Z</time>
      </trkpt>
      <trkpt lat="44.97992" lon="6.405">
        <ele>2265</ele>
        <time>2020-07-16T23:06:54Z</time>
      </trkpt>
      <trkpt lat="44.97988" lon="6.40503">
        <ele>2266</ele>
        <time>2020-07-16T23:07:00Z</time>
      </trkpt>
      <trkpt lat="44.97981" lon="6.40514">
        <ele>2268</ele>
        <time>2020-07-16T23:07:14Z</time>
      </trkpt>
      <trkpt lat="44.97971" lon="6.40515">
        <ele>2270</ele>
        <time>2020-07-16T23:07:27Z</time>
      </trkpt>
      <trkpt lat="44.97952" lon="6.40524">
        <ele>2273</ele>
        <time>2020-07-16T23:07:54Z</time>
      </trkpt>
      <trkpt lat="44.97945" lon="6.40536">
        <ele>2276</ele>
        <time>2020-07-16T23:08:09Z</time>
      </trkpt>
      <trkpt lat="44.97935" lon="6.40535">
        <ele>2277</ele>
        <time>2020-07-16T23:08:22Z</time>
      </trkpt>
      <trkpt lat="44.97906" lon="6.40551">
        <ele>2282</ele>
        <time>2020-07-16T23:09:04Z</time>
      </trkpt>
      <trkpt lat="44.97899" lon="6.40562">
        <ele>2285</ele>
        <time>2020-07-16T23:09:18Z</time>
      </trkpt>
      <trkpt lat="44.97889" lon="6.40566">
        <ele>2287</ele>
        <time>2020-07-16T23:09:31Z</time>
      </trkpt>
      <trkpt lat="44.97888" lon="6.40575">
        <ele>2288</ele>
        <time>2020-07-16T23:09:40Z</time>
      </trkpt>
      <trkpt lat="44.97885" lon="6.4058">
        <ele>2289</ele>
        <time>2020-07-16T23:09:46Z</time>
      </trkpt>
      <trkpt lat="44.97879" lon="6.40585">
        <ele>2291</ele>
        <time>2020-07-16T23:09:56Z</time>
      </trkpt>
      <trkpt lat="44.97868" lon="6.40591">
        <ele>2294</ele>
        <time>2020-07-16T23:10:11Z</time>
      </trkpt>
      <trkpt lat="44.97839" lon="6.40594">
        <ele>2298</ele>
        <time>2020-07-16T23:10:50Z</time>
      </trkpt>
      <trkpt lat="44.97835" lon="6.40597">
        <ele>2300</ele>
        <time>2020-07-16T23:10:56Z</time>
      </trkpt>
      <trkpt lat="44.97829" lon="6.40608">
        <ele>2303</ele>
        <time>2020-07-16T23:11:09Z</time>
      </trkpt>
      <trkpt lat="44.97829" lon="6.40618">
        <ele>2306</ele>
        <time>2020-07-16T23:11:19Z</time>
      </trkpt>
      <trkpt lat="44.97826" lon="6.40627">
        <ele>2308</ele>
        <time>2020-07-16T23:11:28Z</time>
      </trkpt>
      <trkpt lat="44.97815" lon="6.40638">
        <ele>2312</ele>
        <time>2020-07-16T23:11:46Z</time>
      </trkpt>
      <trkpt lat="44.978" lon="6.40647">
        <ele>2314</ele>
        <time>2020-07-16T23:12:08Z</time>
      </trkpt>
      <trkpt lat="44.97797" lon="6.4065">
        <ele>2315</ele>
        <time>2020-07-16T23:12:13Z</time>
      </trkpt>
      <trkpt lat="44.97788" lon="6.40654">
        <ele>2316</ele>
        <time>2020-07-16T23:12:25Z</time>
      </trkpt>
      <trkpt lat="44.97778" lon="6.40661">
        <ele>2318</ele>
        <time>2020-07-16T23:12:40Z</time>
      </trkpt>
      <trkpt lat="44.97771" lon="6.40663">
        <ele>2318</ele>
        <time>2020-07-16T23:12:50Z</time>
      </trkpt>
      <trkpt lat="44.9777" lon="6.40665">
        <ele>2319</ele>
        <time>2020-07-16T23:12:52Z</time>
      </trkpt>
      <trkpt lat="44.97772" lon="6.40669">
        <ele>2320</ele>
        <time>2020-07-16T23:12:57Z</time>
      </trkpt>
      <trkpt lat="44.97775" lon="6.4067">
        <ele>2320</ele>
        <time>2020-07-16T23:13:01Z</time>
      </trkpt>
      <trkpt lat="44.97777" lon="6.40675">
        <ele>2321</ele>
        <time>2020-07-16T23:13:06Z</time>
      </trkpt>
      <trkpt lat="44.97769" lon="6.40681">
        <ele>2322</ele>
        <time>2020-07-16T23:13:18Z</time>
      </trkpt>
      <trkpt lat="44.97769" lon="6.40697">
        <ele>2326</ele>
        <time>2020-07-16T23:13:33Z</time>
      </trkpt>
      <trkpt lat="44.97766" lon="6.40706">
        <ele>2327</ele>
        <time>2020-07-16T23:13:43Z</time>
      </trkpt>
      <trkpt lat="44.97768" lon="6.40709">
        <ele>2328</ele>
        <time>2020-07-16T23:13:47Z</time>
      </trkpt>
      <trkpt lat="44.9777" lon="6.40716">
        <ele>2330</ele>
        <time>2020-07-16T23:13:54Z</time>
      </trkpt>
      <trkpt lat="44.97773" lon="6.40723">
        <ele>2331</ele>
        <time>2020-07-16T23:14:01Z</time>
      </trkpt>
      <trkpt lat="44.97777" lon="6.40739">
        <ele>2335</ele>
        <time>2020-07-16T23:14:17Z</time>
      </trkpt>
      <trkpt lat="44.97772" lon="6.40763">
        <ele>2339</ele>
        <time>2020-07-16T23:14:41Z</time>
      </trkpt>
      <trkpt lat="44.97772" lon="6.40771">
        <ele>2340</ele>
        <time>2020-07-16T23:14:49Z</time>
      </trkpt>
      <trkpt lat="44.97771" lon="6.40777">
        <ele>2340</ele>
        <time>2020-07-16T23:14:54Z</time>
      </trkpt>
      <trkpt lat="44.97767" lon="6.40783">
        <ele>2341</ele>
        <time>2020-07-16T23:15:02Z</time>
      </trkpt>
      <trkpt lat="44.97767" lon="6.40788">
        <ele>2341</ele>
        <time>2020-07-16T23:15:07Z</time>
      </trkpt>
      <trkpt lat="44.9777" lon="6.4079">
        <ele>2342</ele>
        <time>2020-07-16T23:15:11Z</time>
      </trkpt>
      <trkpt lat="44.97773" lon="6.40809">
        <ele>2344</ele>
        <time>2020-07-16T23:15:30Z</time>
      </trkpt>
      <trkpt lat="44.97774" lon="6.40814">
        <ele>2345</ele>
        <time>2020-07-16T23:15:35Z</time>
      </trkpt>
      <trkpt lat="44.97774" lon="6.4082">
        <ele>2346</ele>
        <time>2020-07-16T23:15:40Z</time>
      </trkpt>
      <trkpt lat="44.97776" lon="6.40825">
        <ele>2347</ele>
        <time>2020-07-16T23:15:46Z</time>
      </trkpt>
      <trkpt lat="44.97776" lon="6.40838">
        <ele>2348</ele>
        <time>2020-07-16T23:15:58Z</time>
      </trkpt>
      <trkpt lat="44.97782" lon="6.40872">
        <ele>2351</ele>
        <time>2020-07-16T23:16:31Z</time>
      </trkpt>
      <trkpt lat="44.97784" lon="6.40893">
        <ele>2352</ele>
        <time>2020-07-16T23:16:51Z</time>
      </trkpt>
      <trkpt lat="44.97784" lon="6.40914">
        <ele>2354</ele>
        <time>2020-07-16T23:17:11Z</time>
      </trkpt>
      <trkpt lat="44.97778" lon="6.40924">
        <ele>2353</ele>
        <time>2020-07-16T23:17:23Z</time>
      </trkpt>
      <trkpt lat="44.9777" lon="6.40922">
        <ele>2352</ele>
        <time>2020-07-16T23:17:34Z</time>
      </trkpt>
      <trkpt lat="44.97764" lon="6.40927">
        <ele>2351</ele>
        <time>2020-07-16T23:17:43Z</time>
      </trkpt>
      <trkpt lat="44.97751" lon="6.4093">
        <ele>2349</ele>
        <time>2020-07-16T23:18:01Z</time>
      </trkpt>
      <trkpt lat="44.97745" lon="6.4093">
        <ele>2349</ele>
        <time>2020-07-16T23:18:09Z</time>
      </trkpt>
      <trkpt lat="44.97741" lon="6.40926">
        <ele>2349</ele>
        <time>2020-07-16T23:18:16Z</time>
      </trkpt>
      <trkpt lat="44.97726" lon="6.40924">
        <ele>2348</ele>
        <time>2020-07-16T23:18:36Z</time>
      </trkpt>
      <trkpt lat="44.9772" lon="6.40919">
        <ele>2348</ele>
        <time>2020-07-16T23:18:45Z</time>
      </trkpt>
      <trkpt lat="44.97713" lon="6.40923">
        <ele>2347</ele>
        <time>2020-07-16T23:18:55Z</time>
      </trkpt>
      <trkpt lat="44.97696" lon="6.40915">
        <ele>2346</ele>
        <time>2020-07-16T23:19:19Z</time>
      </trkpt>
      <trkpt lat="44.97694" lon="6.40917">
        <ele>2346</ele>
        <time>2020-07-16T23:19:22Z</time>
      </trkpt>
      <trkpt lat="44.97675" lon="6.40913">
        <ele>2345</ele>
        <time>2020-07-16T23:19:48Z</time>
      </trkpt>
      <trkpt lat="44.97669" lon="6.40915">
        <ele>2345</ele>
        <time>2020-07-16T23:19:56Z</time>
      </trkpt>
      <trkpt lat="44.97648" lon="6.40905">
        <ele>2345</ele>
        <time>2020-07-16T23:20:26Z</time>
      </trkpt>
      <trkpt lat="44.97616" lon="6.40909">
        <ele>2347</ele>
        <time>2020-07-16T23:21:09Z</time>
      </trkpt>
      <trkpt lat="44.9761" lon="6.40908">
        <ele>2347</ele>
        <time>2020-07-16T23:21:17Z</time>
      </trkpt>
      <trkpt lat="44.97601" lon="6.40911">
        <ele>2348</ele>
        <time>2020-07-16T23:21:29Z</time>
      </trkpt>
      <trkpt lat="44.97595" lon="6.40906">
        <ele>2348</ele>
        <time>2020-07-16T23:21:38Z</time>
      </trkpt>
      <trkpt lat="44.97566" lon="6.40934">
        <ele>2353</ele>
        <time>2020-07-16T23:22:25Z</time>
      </trkpt>
      <trkpt lat="44.97561" lon="6.40933">
        <ele>2354</ele>
        <time>2020-07-16T23:22:32Z</time>
      </trkpt>
      <trkpt lat="44.97558" lon="6.40937">
        <ele>2355</ele>
        <time>2020-07-16T23:22:37Z</time>
      </trkpt>
      <trkpt lat="44.97552" lon="6.4094">
        <ele>2357</ele>
        <time>2020-07-16T23:22:46Z</time>
      </trkpt>
      <trkpt lat="44.97544" lon="6.40951">
        <ele>2359</ele>
        <time>2020-07-16T23:23:01Z</time>
      </trkpt>
      <trkpt lat="44.97538" lon="6.40949">
        <ele>2360</ele>
        <time>2020-07-16T23:23:09Z</time>
      </trkpt>
      <trkpt lat="44.97527" lon="6.40953">
        <ele>2363</ele>
        <time>2020-07-16T23:23:24Z</time>
      </trkpt>
      <trkpt lat="44.97527" lon="6.40957">
        <ele>2363</ele>
        <time>2020-07-16T23:23:28Z</time>
      </trkpt>
      <trkpt lat="44.97519" lon="6.40965">
        <ele>2366</ele>
        <time>2020-07-16T23:23:41Z</time>
      </trkpt>
      <trkpt lat="44.97518" lon="6.4097">
        <ele>2366</ele>
        <time>2020-07-16T23:23:46Z</time>
      </trkpt>
      <trkpt lat="44.97507" lon="6.4097">
        <ele>2369</ele>
        <time>2020-07-16T23:24:01Z</time>
      </trkpt>
      <trkpt lat="44.97504" lon="6.40976">
        <ele>2370</ele>
        <time>2020-07-16T23:24:07Z</time>
      </trkpt>
      <trkpt lat="44.97504" lon="6.40981">
        <ele>2370</ele>
        <time>2020-07-16T23:24:12Z</time>
      </trkpt>
      <trkpt lat="44.97492" lon="6.41006">
        <ele>2377</ele>
        <time>2020-07-16T23:24:41Z</time>
      </trkpt>
      <trkpt lat="44.97494" lon="6.41013">
        <ele>2377</ele>
        <time>2020-07-16T23:24:48Z</time>
      </trkpt>
      <trkpt lat="44.97495" lon="6.41022">
        <ele>2377</ele>
        <time>2020-07-16T23:24:56Z</time>
      </trkpt>
      <trkpt lat="44.97499" lon="6.41028">
        <ele>2376</ele>
        <time>2020-07-16T23:25:04Z</time>
      </trkpt>
      <trkpt lat="44.97502" lon="6.41048">
        <ele>2377</ele>
        <time>2020-07-16T23:25:24Z</time>
      </trkpt>
      <trkpt lat="44.97495" lon="6.41068">
        <ele>2381</ele>
        <time>2020-07-16T23:25:45Z</time>
      </trkpt>
      <trkpt lat="44.97481" lon="6.41097">
        <ele>2388</ele>
        <time>2020-07-16T23:26:18Z</time>
      </trkpt>
      <trkpt lat="44.9748" lon="6.41106">
        <ele>2389</ele>
        <time>2020-07-16T23:26:26Z</time>
      </trkpt>
      <trkpt lat="44.97479" lon="6.41115">
        <ele>2389</ele>
        <time>2020-07-16T23:26:35Z</time>
      </trkpt>
      <trkpt lat="44.97483" lon="6.4114">
        <ele>2388</ele>
        <time>2020-07-16T23:26:59Z</time>
      </trkpt>
      <trkpt lat="44.97476" lon="6.41164">
        <ele>2391</ele>
        <time>2020-07-16T23:27:24Z</time>
      </trkpt>
      <trkpt lat="44.97476" lon="6.41175">
        <ele>2391</ele>
        <time>2020-07-16T23:27:34Z</time>
      </trkpt>
      <trkpt lat="44.97475" lon="6.41189">
        <ele>2392</ele>
        <time>2020-07-16T23:27:47Z</time>
      </trkpt>
      <trkpt lat="44.97464" lon="6.41228">
        <ele>2397</ele>
        <time>2020-07-16T23:28:27Z</time>
      </trkpt>
      <trkpt lat="44.97462" lon="6.41261">
        <ele>2400</ele>
        <time>2020-07-16T23:28:58Z</time>
      </trkpt>
      <trkpt lat="44.97463" lon="6.41279">
        <ele>2401</ele>
        <time>2020-07-16T23:29:15Z</time>
      </trkpt>
      <trkpt lat="44.97462" lon="6.41285">
        <ele>2402</ele>
        <time>2020-07-16T23:29:21Z</time>
      </trkpt>
      <trkpt lat="44.97464" lon="6.41287">
        <ele>2401</ele>
        <time>2020-07-16T23:29:24Z</time>
      </trkpt>
      <trkpt lat="44.97461" lon="6.41298">
        <ele>2404</ele>
        <time>2020-07-16T23:29:35Z</time>
      </trkpt>
      <trkpt lat="44.97459" lon="6.4131">
        <ele>2405</ele>
        <time>2020-07-16T23:29:47Z</time>
      </trkpt>
      <trkpt lat="44.9746" lon="6.41344">
        <ele>2408</ele>
        <time>2020-07-16T23:30:19Z</time>
      </trkpt>
      <trkpt lat="44.97458" lon="6.41382">
        <ele>2410</ele>
        <time>2020-07-16T23:30:55Z</time>
      </trkpt>
      <trkpt lat="44.97452" lon="6.41408">
        <ele>2414</ele>
        <time>2020-07-16T23:31:21Z</time>
      </trkpt>
      <trkpt lat="44.97453" lon="6.41414">
        <ele>2414</ele>
        <time>2020-07-16T23:31:27Z</time>
      </trkpt>
      <trkpt lat="44.97447" lon="6.41441">
        <ele>2418</ele>
        <time>2020-07-16T23:31:54Z</time>
      </trkpt>
      <trkpt lat="44.97441" lon="6.41455">
        <ele>2421</ele>
        <time>2020-07-16T23:32:09Z</time>
      </trkpt>
      <trkpt lat="44.97438" lon="6.41467">
        <ele>2423</ele>
        <time>2020-07-16T23:32:21Z</time>
      </trkpt>
      <trkpt lat="44.97422" lon="6.41503">
        <ele>2430</ele>
        <time>2020-07-16T23:33:01Z</time>
      </trkpt>
      <trkpt lat="44.97416" lon="6.41521">
        <ele>2431</ele>
        <time>2020-07-16T23:33:20Z</time>
      </trkpt>
      <trkpt lat="44.97398" lon="6.41551">
        <ele>2435</ele>
        <time>2020-07-16T23:33:57Z</time>
      </trkpt>
      <trkpt lat="44.97392" lon="6.41559">
        <ele>2437</ele>
        <time>2020-07-16T23:34:08Z</time>
      </trkpt>
      <trkpt lat="44.97383" lon="6.41567">
        <ele>2439</ele>
        <time>2020-07-16T23:34:22Z</time>
      </trkpt>
      <trkpt lat="44.9738" lon="6.41574">
        <ele>2440</ele>
        <time>2020-07-16T23:34:30Z</time>
      </trkpt>
      <trkpt lat="44.97381" lon="6.41584">
        <ele>2439</ele>
        <time>2020-07-16T23:34:40Z</time>
      </trkpt>
      <trkpt lat="44.97379" lon="6.41596">
        <ele>2438</ele>
        <time>2020-07-16T23:34:51Z</time>
      </trkpt>
      <trkpt lat="44.97365" lon="6.41616">
        <ele>2440</ele>
        <time>2020-07-16T23:35:18Z</time>
      </trkpt>
      <trkpt lat="44.97361" lon="6.4162">
        <ele>2441</ele>
        <time>2020-07-16T23:35:24Z</time>
      </trkpt>
      <trkpt lat="44.9736" lon="6.41624">
        <ele>2441</ele>
        <time>2020-07-16T23:35:28Z</time>
      </trkpt>
      <trkpt lat="44.97356" lon="6.41627">
        <ele>2442</ele>
        <time>2020-07-16T23:35:34Z</time>
      </trkpt>
      <trkpt lat="44.9735" lon="6.41627">
        <ele>2444</ele>
        <time>2020-07-16T23:35:42Z</time>
      </trkpt>
      <trkpt lat="44.97349" lon="6.4163">
        <ele>2444</ele>
        <time>2020-07-16T23:35:45Z</time>
      </trkpt>
      <trkpt lat="44.97342" lon="6.41627">
        <ele>2447</ele>
        <time>2020-07-16T23:35:55Z</time>
      </trkpt>
      <trkpt lat="44.97338" lon="6.41618">
        <ele>2450</ele>
        <time>2020-07-16T23:36:05Z</time>
      </trkpt>
      <trkpt lat="44.97338" lon="6.41589">
        <ele>2454</ele>
        <time>2020-07-16T23:36:33Z</time>
      </trkpt>
      <trkpt lat="44.97334" lon="6.41579">
        <ele>2456</ele>
        <time>2020-07-16T23:36:43Z</time>
      </trkpt>
      <trkpt lat="44.9733" lon="6.41552">
        <ele>2457</ele>
        <time>2020-07-16T23:37:10Z</time>
      </trkpt>
      <trkpt lat="44.97324" lon="6.41541">
        <ele>2458</ele>
        <time>2020-07-16T23:37:23Z</time>
      </trkpt>
      <trkpt lat="44.97323" lon="6.41534">
        <ele>2458</ele>
        <time>2020-07-16T23:37:29Z</time>
      </trkpt>
      <trkpt lat="44.97308" lon="6.4151">
        <ele>2459</ele>
        <time>2020-07-16T23:38:00Z</time>
      </trkpt>
      <trkpt lat="44.97299" lon="6.41485">
        <ele>2459</ele>
        <time>2020-07-16T23:38:26Z</time>
      </trkpt>
      <trkpt lat="44.97294" lon="6.41481">
        <ele>2459</ele>
        <time>2020-07-16T23:38:34Z</time>
      </trkpt>
      <trkpt lat="44.97287" lon="6.41483">
        <ele>2459</ele>
        <time>2020-07-16T23:38:43Z</time>
      </trkpt>
      <trkpt lat="44.97255" lon="6.41473">
        <ele>2459</ele>
        <time>2020-07-16T23:39:27Z</time>
      </trkpt>
      <trkpt lat="44.97247" lon="6.41467">
        <ele>2459</ele>
        <time>2020-07-16T23:39:39Z</time>
      </trkpt>
      <trkpt lat="44.97237" lon="6.41466">
        <ele>2458</ele>
        <time>2020-07-16T23:39:52Z</time>
      </trkpt>
      <trkpt lat="44.97234" lon="6.41458">
        <ele>2458</ele>
        <time>2020-07-16T23:40:01Z</time>
      </trkpt>
      <trkpt lat="44.97233" lon="6.41454">
        <ele>2458</ele>
        <time>2020-07-16T23:40:05Z</time>
      </trkpt>
      <trkpt lat="44.97231" lon="6.4145">
        <ele>2458</ele>
        <time>2020-07-16T23:40:10Z</time>
      </trkpt>
      <trkpt lat="44.9722" lon="6.4144">
        <ele>2457</ele>
        <time>2020-07-16T23:40:27Z</time>
      </trkpt>
      <trkpt lat="44.97204" lon="6.41437">
        <ele>2456</ele>
        <time>2020-07-16T23:40:49Z</time>
      </trkpt>
      <trkpt lat="44.97197" lon="6.41433">
        <ele>2456</ele>
        <time>2020-07-16T23:40:59Z</time>
      </trkpt>
      <trkpt lat="44.97186" lon="6.41431">
        <ele>2456</ele>
        <time>2020-07-16T23:41:14Z</time>
      </trkpt>
      <trkpt lat="44.9718" lon="6.41433">
        <ele>2456</ele>
        <time>2020-07-16T23:41:22Z</time>
      </trkpt>
      <trkpt lat="44.97176" lon="6.41437">
        <ele>2456</ele>
        <time>2020-07-16T23:41:28Z</time>
      </trkpt>
      <trkpt lat="44.97174" lon="6.41442">
        <ele>2456</ele>
        <time>2020-07-16T23:41:34Z</time>
      </trkpt>
      <trkpt lat="44.97168" lon="6.41436">
        <ele>2455</ele>
        <time>2020-07-16T23:41:44Z</time>
      </trkpt>
      <trkpt lat="44.97167" lon="6.41446">
        <ele>2455</ele>
        <time>2020-07-16T23:41:53Z</time>
      </trkpt>
      <trkpt lat="44.97168" lon="6.41436">
        <ele>2455</ele>
        <time>2020-07-16T23:42:03Z</time>
      </trkpt>
      <trkpt lat="44.97174" lon="6.41442">
        <ele>2456</ele>
        <time>2020-07-16T23:42:12Z</time>
      </trkpt>
      <trkpt lat="44.97176" lon="6.41437">
        <ele>2456</ele>
        <time>2020-07-16T23:42:18Z</time>
      </trkpt>
      <trkpt lat="44.9718" lon="6.41433">
        <ele>2456</ele>
        <time>2020-07-16T23:42:24Z</time>
      </trkpt>
      <trkpt lat="44.97186" lon="6.41431">
        <ele>2456</ele>
        <time>2020-07-16T23:42:33Z</time>
      </trkpt>
      <trkpt lat="44.97197" lon="6.41433">
        <ele>2456</ele>
        <time>2020-07-16T23:42:47Z</time>
      </trkpt>
      <trkpt lat="44.97204" lon="6.41437">
        <ele>2456</ele>
        <time>2020-07-16T23:42:57Z</time>
      </trkpt>
      <trkpt lat="44.9722" lon="6.4144">
        <ele>2457</ele>
        <time>2020-07-16T23:43:19Z</time>
      </trkpt>
      <trkpt lat="44.97231" lon="6.4145">
        <ele>2458</ele>
        <time>2020-07-16T23:43:36Z</time>
      </trkpt>
      <trkpt lat="44.97233" lon="6.41454">
        <ele>2458</ele>
        <time>2020-07-16T23:43:41Z</time>
      </trkpt>
      <trkpt lat="44.97234" lon="6.41458">
        <ele>2458</ele>
        <time>2020-07-16T23:43:45Z</time>
      </trkpt>
      <trkpt lat="44.97237" lon="6.41466">
        <ele>2458</ele>
        <time>2020-07-16T23:43:54Z</time>
      </trkpt>
      <trkpt lat="44.97247" lon="6.41467">
        <ele>2459</ele>
        <time>2020-07-16T23:44:07Z</time>
      </trkpt>
      <trkpt lat="44.97255" lon="6.41473">
        <ele>2459</ele>
        <time>2020-07-16T23:44:19Z</time>
      </trkpt>
      <trkpt lat="44.97287" lon="6.41483">
        <ele>2459</ele>
        <time>2020-07-16T23:45:03Z</time>
      </trkpt>
      <trkpt lat="44.97294" lon="6.41481">
        <ele>2459</ele>
        <time>2020-07-16T23:45:12Z</time>
      </trkpt>
      <trkpt lat="44.97299" lon="6.41485">
        <ele>2459</ele>
        <time>2020-07-16T23:45:20Z</time>
      </trkpt>
      <trkpt lat="44.97308" lon="6.4151">
        <ele>2459</ele>
        <time>2020-07-16T23:45:47Z</time>
      </trkpt>
      <trkpt lat="44.97323" lon="6.41534">
        <ele>2458</ele>
        <time>2020-07-16T23:46:17Z</time>
      </trkpt>
      <trkpt lat="44.97324" lon="6.41541">
        <ele>2458</ele>
        <time>2020-07-16T23:46:24Z</time>
      </trkpt>
      <trkpt lat="44.9733" lon="6.41552">
        <ele>2457</ele>
        <time>2020-07-16T23:46:37Z</time>
      </trkpt>
      <trkpt lat="44.97334" lon="6.41579">
        <ele>2456</ele>
        <time>2020-07-16T23:47:03Z</time>
      </trkpt>
      <trkpt lat="44.97338" lon="6.41589">
        <ele>2454</ele>
        <time>2020-07-16T23:47:14Z</time>
      </trkpt>
      <trkpt lat="44.97338" lon="6.41618">
        <ele>2450</ele>
        <time>2020-07-16T23:47:41Z</time>
      </trkpt>
      <trkpt lat="44.97342" lon="6.41627">
        <ele>2447</ele>
        <time>2020-07-16T23:47:51Z</time>
      </trkpt>
      <trkpt lat="44.97349" lon="6.4163">
        <ele>2444</ele>
        <time>2020-07-16T23:48:01Z</time>
      </trkpt>
      <trkpt lat="44.9735" lon="6.41627">
        <ele>2444</ele>
        <time>2020-07-16T23:48:04Z</time>
      </trkpt>
      <trkpt lat="44.97356" lon="6.41627">
        <ele>2442</ele>
        <time>2020-07-16T23:48:12Z</time>
      </trkpt>
      <trkpt lat="44.9736" lon="6.41624">
        <ele>2441</ele>
        <time>2020-07-16T23:48:18Z</time>
      </trkpt>
      <trkpt lat="44.97361" lon="6.4162">
        <ele>2441</ele>
        <time>2020-07-16T23:48:22Z</time>
      </trkpt>
      <trkpt lat="44.97365" lon="6.41616">
        <ele>2440</ele>
        <time>2020-07-16T23:48:28Z</time>
      </trkpt>
      <trkpt lat="44.97379" lon="6.41596">
        <ele>2438</ele>
        <time>2020-07-16T23:48:55Z</time>
      </trkpt>
      <trkpt lat="44.97381" lon="6.41584">
        <ele>2439</ele>
        <time>2020-07-16T23:49:07Z</time>
      </trkpt>
      <trkpt lat="44.9738" lon="6.41574">
        <ele>2440</ele>
        <time>2020-07-16T23:49:16Z</time>
      </trkpt>
      <trkpt lat="44.97383" lon="6.41567">
        <ele>2439</ele>
        <time>2020-07-16T23:49:24Z</time>
      </trkpt>
      <trkpt lat="44.97392" lon="6.41559">
        <ele>2437</ele>
        <time>2020-07-16T23:49:38Z</time>
      </trkpt>
      <trkpt lat="44.97398" lon="6.41551">
        <ele>2435</ele>
        <time>2020-07-16T23:49:49Z</time>
      </trkpt>
      <trkpt lat="44.97416" lon="6.41521">
        <ele>2431</ele>
        <time>2020-07-16T23:50:26Z</time>
      </trkpt>
      <trkpt lat="44.97422" lon="6.41503">
        <ele>2430</ele>
        <time>2020-07-16T23:50:45Z</time>
      </trkpt>
      <trkpt lat="44.97438" lon="6.41467">
        <ele>2423</ele>
        <time>2020-07-16T23:51:25Z</time>
      </trkpt>
      <trkpt lat="44.97441" lon="6.41455">
        <ele>2421</ele>
        <time>2020-07-16T23:51:37Z</time>
      </trkpt>
      <trkpt lat="44.97447" lon="6.41441">
        <ele>2418</ele>
        <time>2020-07-16T23:51:53Z</time>
      </trkpt>
      <trkpt lat="44.97453" lon="6.41414">
        <ele>2414</ele>
        <time>2020-07-16T23:52:19Z</time>
      </trkpt>
      <trkpt lat="44.97452" lon="6.41408">
        <ele>2414</ele>
        <time>2020-07-16T23:52:25Z</time>
      </trkpt>
      <trkpt lat="44.97458" lon="6.41382">
        <ele>2410</ele>
        <time>2020-07-16T23:52:51Z</time>
      </trkpt>
      <trkpt lat="44.9746" lon="6.41344">
        <ele>2408</ele>
        <time>2020-07-16T23:53:27Z</time>
      </trkpt>
      <trkpt lat="44.97459" lon="6.4131">
        <ele>2405</ele>
        <time>2020-07-16T23:53:59Z</time>
      </trkpt>
      <trkpt lat="44.97461" lon="6.41298">
        <ele>2404</ele>
        <time>2020-07-16T23:54:11Z</time>
      </trkpt>
      <trkpt lat="44.97464" lon="6.41287">
        <ele>2401</ele>
        <time>2020-07-16T23:54:22Z</time>
      </trkpt>
      <trkpt lat="44.97462" lon="6.41285">
        <ele>2402</ele>
        <time>2020-07-16T23:54:25Z</time>
      </trkpt>
      <trkpt lat="44.97463" lon="6.41279">
        <ele>2401</ele>
        <time>2020-07-16T23:54:31Z</time>
      </trkpt>
      <trkpt lat="44.97462" lon="6.41261">
        <ele>2400</ele>
        <time>2020-07-16T23:54:48Z</time>
      </trkpt>
      <trkpt lat="44.97464" lon="6.41228">
        <ele>2397</ele>
        <time>2020-07-16T23:55:19Z</time>
      </trkpt>
      <trkpt lat="44.97475" lon="6.41189">
        <ele>2392</ele>
        <time>2020-07-16T23:55:59Z</time>
      </trkpt>
      <trkpt lat="44.97476" lon="6.41175">
        <ele>2391</ele>
        <time>2020-07-16T23:56:12Z</time>
      </trkpt>
      <trkpt lat="44.97476" lon="6.41164">
        <ele>2391</ele>
        <time>2020-07-16T23:56:23Z</time>
      </trkpt>
      <trkpt lat="44.97483" lon="6.4114">
        <ele>2388</ele>
        <time>2020-07-16T23:56:47Z</time>
      </trkpt>
      <trkpt lat="44.97479" lon="6.41115">
        <ele>2389</ele>
        <time>2020-07-16T23:57:11Z</time>
      </trkpt>
      <trkpt lat="44.9748" lon="6.41106">
        <ele>2389</ele>
        <time>2020-07-16T23:57:20Z</time>
      </trkpt>
      <trkpt lat="44.97481" lon="6.41097">
        <ele>2388</ele>
        <time>2020-07-16T23:57:28Z</time>
      </trkpt>
      <trkpt lat="44.97495" lon="6.41068">
        <ele>2381</ele>
        <time>2020-07-16T23:58:02Z</time>
      </trkpt>
      <trkpt lat="44.97502" lon="6.41048">
        <ele>2377</ele>
        <time>2020-07-16T23:58:23Z</time>
      </trkpt>
      <trkpt lat="44.97499" lon="6.41028">
        <ele>2376</ele>
        <time>2020-07-16T23:58:42Z</time>
      </trkpt>
      <trkpt lat="44.97495" lon="6.41022">
        <ele>2377</ele>
        <time>2020-07-16T23:58:50Z</time>
      </trkpt>
      <trkpt lat="44.97494" lon="6.41013">
        <ele>2377</ele>
        <time>2020-07-16T23:58:58Z</time>
      </trkpt>
      <trkpt lat="44.97492" lon="6.41006">
        <ele>2377</ele>
        <time>2020-07-16T23:59:05Z</time>
      </trkpt>
      <trkpt lat="44.97504" lon="6.40981">
        <ele>2370</ele>
        <time>2020-07-16T23:59:34Z</time>
      </trkpt>
      <trkpt lat="44.97504" lon="6.40976">
        <ele>2370</ele>
        <time>2020-07-16T23:59:39Z</time>
      </trkpt>
      <trkpt lat="44.97507" lon="6.4097">
        <ele>2369</ele>
        <time>2020-07-16T23:59:46Z</time>
      </trkpt>
      <trkpt lat="44.97518" lon="6.4097">
        <ele>2366</ele>
        <time>2020-07-16T00:00:00Z</time>
      </trkpt>
      <trkpt lat="44.97519" lon="6.40965">
        <ele>2366</ele>
        <time>2020-07-16T00:00:05Z</time>
      </trkpt>
      <trkpt lat="44.97527" lon="6.40957">
        <ele>2363</ele>
        <time>2020-07-16T00:00:18Z</time>
      </trkpt>
      <trkpt lat="44.97527" lon="6.40953">
        <ele>2363</ele>
        <time>2020-07-16T00:00:22Z</time>
      </trkpt>
      <trkpt lat="44.97538" lon="6.40949">
        <ele>2360</ele>
        <time>2020-07-16T00:00:37Z</time>
      </trkpt>
      <trkpt lat="44.97544" lon="6.40951">
        <ele>2359</ele>
        <time>2020-07-16T00:00:45Z</time>
      </trkpt>
      <trkpt lat="44.97552" lon="6.4094">
        <ele>2357</ele>
        <time>2020-07-16T00:01:00Z</time>
      </trkpt>
      <trkpt lat="44.97558" lon="6.40937">
        <ele>2355</ele>
        <time>2020-07-16T00:01:09Z</time>
      </trkpt>
      <trkpt lat="44.97561" lon="6.40933">
        <ele>2354</ele>
        <time>2020-07-16T00:01:14Z</time>
      </trkpt>
      <trkpt lat="44.97566" lon="6.40934">
        <ele>2353</ele>
        <time>2020-07-16T00:01:21Z</time>
      </trkpt>
      <trkpt lat="44.97595" lon="6.40906">
        <ele>2348</ele>
        <time>2020-07-16T00:02:08Z</time>
      </trkpt>
      <trkpt lat="44.97601" lon="6.40911">
        <ele>2348</ele>
        <time>2020-07-16T00:02:17Z</time>
      </trkpt>
      <trkpt lat="44.9761" lon="6.40908">
        <ele>2347</ele>
        <time>2020-07-16T00:02:30Z</time>
      </trkpt>
      <trkpt lat="44.97616" lon="6.40909">
        <ele>2347</ele>
        <time>2020-07-16T00:02:38Z</time>
      </trkpt>
      <trkpt lat="44.97648" lon="6.40905">
        <ele>2345</ele>
        <time>2020-07-16T00:03:20Z</time>
      </trkpt>
      <trkpt lat="44.97669" lon="6.40915">
        <ele>2345</ele>
        <time>2020-07-16T00:03:50Z</time>
      </trkpt>
      <trkpt lat="44.97675" lon="6.40913">
        <ele>2345</ele>
        <time>2020-07-16T00:03:58Z</time>
      </trkpt>
      <trkpt lat="44.97694" lon="6.40917">
        <ele>2346</ele>
        <time>2020-07-16T00:04:24Z</time>
      </trkpt>
      <trkpt lat="44.97696" lon="6.40915">
        <ele>2346</ele>
        <time>2020-07-16T00:04:27Z</time>
      </trkpt>
      <trkpt lat="44.97713" lon="6.40923">
        <ele>2347</ele>
        <time>2020-07-16T00:04:51Z</time>
      </trkpt>
      <trkpt lat="44.97718" lon="6.40919">
        <ele>2348</ele>
        <time>2020-07-16T00:04:59Z</time>
      </trkpt>
      <trkpt lat="44.9772" lon="6.40919">
        <ele>2348</ele>
        <time>2020-07-16T00:05:01Z</time>
      </trkpt>
      <trkpt lat="44.97726" lon="6.40924">
        <ele>2348</ele>
        <time>2020-07-16T00:05:11Z</time>
      </trkpt>
      <trkpt lat="44.97741" lon="6.40926">
        <ele>2349</ele>
        <time>2020-07-16T00:05:31Z</time>
      </trkpt>
      <trkpt lat="44.97745" lon="6.4093">
        <ele>2349</ele>
        <time>2020-07-16T00:05:37Z</time>
      </trkpt>
      <trkpt lat="44.97751" lon="6.4093">
        <ele>2349</ele>
        <time>2020-07-16T00:05:45Z</time>
      </trkpt>
      <trkpt lat="44.97764" lon="6.40927">
        <ele>2351</ele>
        <time>2020-07-16T00:06:03Z</time>
      </trkpt>
      <trkpt lat="44.9777" lon="6.40922">
        <ele>2352</ele>
        <time>2020-07-16T00:06:12Z</time>
      </trkpt>
      <trkpt lat="44.97778" lon="6.40924">
        <ele>2353</ele>
        <time>2020-07-16T00:06:23Z</time>
      </trkpt>
      <trkpt lat="44.97783" lon="6.4093">
        <ele>2354</ele>
        <time>2020-07-16T00:06:32Z</time>
      </trkpt>
      <trkpt lat="44.97787" lon="6.40942">
        <ele>2355</ele>
        <time>2020-07-16T00:06:44Z</time>
      </trkpt>
      <trkpt lat="44.97795" lon="6.40962">
        <ele>2357</ele>
        <time>2020-07-16T00:07:06Z</time>
      </trkpt>
      <trkpt lat="44.97789" lon="6.4101">
        <ele>2356</ele>
        <time>2020-07-16T00:07:52Z</time>
      </trkpt>
      <trkpt lat="44.97788" lon="6.41029">
        <ele>2355</ele>
        <time>2020-07-16T00:08:10Z</time>
      </trkpt>
      <trkpt lat="44.9779" lon="6.4104">
        <ele>2355</ele>
        <time>2020-07-16T00:08:21Z</time>
      </trkpt>
      <trkpt lat="44.97803" lon="6.41069">
        <ele>2356</ele>
        <time>2020-07-16T00:08:53Z</time>
      </trkpt>
      <trkpt lat="44.97813" lon="6.4108">
        <ele>2356</ele>
        <time>2020-07-16T00:09:10Z</time>
      </trkpt>
      <trkpt lat="44.97815" lon="6.41113">
        <ele>2356</ele>
        <time>2020-07-16T00:09:41Z</time>
      </trkpt>
      <trkpt lat="44.97827" lon="6.41141">
        <ele>2356</ele>
        <time>2020-07-16T00:10:12Z</time>
      </trkpt>
      <trkpt lat="44.97842" lon="6.41163">
        <ele>2357</ele>
        <time>2020-07-16T00:10:41Z</time>
      </trkpt>
      <trkpt lat="44.97846" lon="6.41177">
        <ele>2358</ele>
        <time>2020-07-16T00:10:55Z</time>
      </trkpt>
      <trkpt lat="44.9785" lon="6.41206">
        <ele>2357</ele>
        <time>2020-07-16T00:11:23Z</time>
      </trkpt>
      <trkpt lat="44.97853" lon="6.41234">
        <ele>2357</ele>
        <time>2020-07-16T00:11:50Z</time>
      </trkpt>
      <trkpt lat="44.97858" lon="6.41247">
        <ele>2358</ele>
        <time>2020-07-16T00:12:04Z</time>
      </trkpt>
      <trkpt lat="44.97867" lon="6.41277">
        <ele>2358</ele>
        <time>2020-07-16T00:12:35Z</time>
      </trkpt>
      <trkpt lat="44.9787" lon="6.41282">
        <ele>2358</ele>
        <time>2020-07-16T00:12:41Z</time>
      </trkpt>
      <trkpt lat="44.97871" lon="6.4129">
        <ele>2358</ele>
        <time>2020-07-16T00:12:49Z</time>
      </trkpt>
      <trkpt lat="44.97883" lon="6.41322">
        <ele>2357</ele>
        <time>2020-07-16T00:13:23Z</time>
      </trkpt>
      <trkpt lat="44.97889" lon="6.41352">
        <ele>2354</ele>
        <time>2020-07-16T00:13:52Z</time>
      </trkpt>
      <trkpt lat="44.9789" lon="6.41365">
        <ele>2353</ele>
        <time>2020-07-16T00:14:05Z</time>
      </trkpt>
      <trkpt lat="44.97892" lon="6.41375">
        <ele>2352</ele>
        <time>2020-07-16T00:14:14Z</time>
      </trkpt>
      <trkpt lat="44.97895" lon="6.41381">
        <ele>2351</ele>
        <time>2020-07-16T00:14:21Z</time>
      </trkpt>
      <trkpt lat="44.97895" lon="6.41387">
        <ele>2350</ele>
        <time>2020-07-16T00:14:27Z</time>
      </trkpt>
      <trkpt lat="44.97909" lon="6.41413">
        <ele>2348</ele>
        <time>2020-07-16T00:14:58Z</time>
      </trkpt>
      <trkpt lat="44.97918" lon="6.41446">
        <ele>2344</ele>
        <time>2020-07-16T00:15:31Z</time>
      </trkpt>
      <trkpt lat="44.97931" lon="6.41483">
        <ele>2343</ele>
        <time>2020-07-16T00:16:10Z</time>
      </trkpt>
      <trkpt lat="44.97934" lon="6.41506">
        <ele>2340</ele>
        <time>2020-07-16T00:16:32Z</time>
      </trkpt>
      <trkpt lat="44.9793" lon="6.4152">
        <ele>2337</ele>
        <time>2020-07-16T00:16:46Z</time>
      </trkpt>
      <trkpt lat="44.97934" lon="6.41542">
        <ele>2335</ele>
        <time>2020-07-16T00:17:08Z</time>
      </trkpt>
      <trkpt lat="44.97939" lon="6.41556">
        <ele>2334</ele>
        <time>2020-07-16T00:17:23Z</time>
      </trkpt>
      <trkpt lat="44.97942" lon="6.4156">
        <ele>2334</ele>
        <time>2020-07-16T00:17:28Z</time>
      </trkpt>
      <trkpt lat="44.97946" lon="6.41585">
        <ele>2331</ele>
        <time>2020-07-16T00:17:52Z</time>
      </trkpt>
      <trkpt lat="44.97952" lon="6.416">
        <ele>2330</ele>
        <time>2020-07-16T00:18:09Z</time>
      </trkpt>
      <trkpt lat="44.97952" lon="6.41608">
        <ele>2328</ele>
        <time>2020-07-16T00:18:16Z</time>
      </trkpt>
      <trkpt lat="44.97957" lon="6.41626">
        <ele>2326</ele>
        <time>2020-07-16T00:18:35Z</time>
      </trkpt>
      <trkpt lat="44.97969" lon="6.41649">
        <ele>2323</ele>
        <time>2020-07-16T00:19:01Z</time>
      </trkpt>
      <trkpt lat="44.97978" lon="6.41663">
        <ele>2321</ele>
        <time>2020-07-16T00:19:19Z</time>
      </trkpt>
      <trkpt lat="44.9798" lon="6.41674">
        <ele>2319</ele>
        <time>2020-07-16T00:19:30Z</time>
      </trkpt>
      <trkpt lat="44.97983" lon="6.41681">
        <ele>2318</ele>
        <time>2020-07-16T00:19:38Z</time>
      </trkpt>
      <trkpt lat="44.97986" lon="6.41709">
        <ele>2314</ele>
        <time>2020-07-16T00:20:05Z</time>
      </trkpt>
      <trkpt lat="44.97992" lon="6.41733">
        <ele>2309</ele>
        <time>2020-07-16T00:20:29Z</time>
      </trkpt>
      <trkpt lat="44.97997" lon="6.41742">
        <ele>2308</ele>
        <time>2020-07-16T00:20:39Z</time>
      </trkpt>
      <trkpt lat="44.98002" lon="6.41783">
        <ele>2302</ele>
        <time>2020-07-16T00:21:19Z</time>
      </trkpt>
      <trkpt lat="44.97998" lon="6.41807">
        <ele>2297</ele>
        <time>2020-07-16T00:21:42Z</time>
      </trkpt>
      <trkpt lat="44.98" lon="6.41817">
        <ele>2296</ele>
        <time>2020-07-16T00:21:52Z</time>
      </trkpt>
      <trkpt lat="44.98004" lon="6.41821">
        <ele>2296</ele>
        <time>2020-07-16T00:21:58Z</time>
      </trkpt>
      <trkpt lat="44.98003" lon="6.4183">
        <ele>2294</ele>
        <time>2020-07-16T00:22:07Z</time>
      </trkpt>
      <trkpt lat="44.98012" lon="6.41851">
        <ele>2292</ele>
        <time>2020-07-16T00:22:30Z</time>
      </trkpt>
      <trkpt lat="44.9802" lon="6.41864">
        <ele>2290</ele>
        <time>2020-07-16T00:22:46Z</time>
      </trkpt>
      <trkpt lat="44.98028" lon="6.4187">
        <ele>2290</ele>
        <time>2020-07-16T00:22:58Z</time>
      </trkpt>
      <trkpt lat="44.98034" lon="6.41879">
        <ele>2289</ele>
        <time>2020-07-16T00:23:10Z</time>
      </trkpt>
      <trkpt lat="44.98044" lon="6.41887">
        <ele>2289</ele>
        <time>2020-07-16T00:23:25Z</time>
      </trkpt>
      <trkpt lat="44.9805" lon="6.41898">
        <ele>2287</ele>
        <time>2020-07-16T00:23:38Z</time>
      </trkpt>
      <trkpt lat="44.98059" lon="6.41927">
        <ele>2282</ele>
        <time>2020-07-16T00:24:08Z</time>
      </trkpt>
      <trkpt lat="44.98065" lon="6.41965">
        <ele>2275</ele>
        <time>2020-07-16T00:24:45Z</time>
      </trkpt>
      <trkpt lat="44.98068" lon="6.41973">
        <ele>2273</ele>
        <time>2020-07-16T00:24:54Z</time>
      </trkpt>
      <trkpt lat="44.98069" lon="6.41984">
        <ele>2271</ele>
        <time>2020-07-16T00:25:04Z</time>
      </trkpt>
      <trkpt lat="44.98072" lon="6.41998">
        <ele>2268</ele>
        <time>2020-07-16T00:25:18Z</time>
      </trkpt>
      <trkpt lat="44.9808" lon="6.42011">
        <ele>2267</ele>
        <time>2020-07-16T00:25:34Z</time>
      </trkpt>
      <trkpt lat="44.98081" lon="6.42016">
        <ele>2266</ele>
        <time>2020-07-16T00:25:39Z</time>
      </trkpt>
      <trkpt lat="44.98092" lon="6.42032">
        <ele>2266</ele>
        <time>2020-07-16T00:26:00Z</time>
      </trkpt>
      <trkpt lat="44.98101" lon="6.42058">
        <ele>2264</ele>
        <time>2020-07-16T00:26:28Z</time>
      </trkpt>
      <trkpt lat="44.98106" lon="6.42066">
        <ele>2264</ele>
        <time>2020-07-16T00:26:38Z</time>
      </trkpt>
      <trkpt lat="44.9811" lon="6.42077">
        <ele>2263</ele>
        <time>2020-07-16T00:26:49Z</time>
      </trkpt>
      <trkpt lat="44.98117" lon="6.42086">
        <ele>2263</ele>
        <time>2020-07-16T00:27:02Z</time>
      </trkpt>
      <trkpt lat="44.98121" lon="6.421">
        <ele>2262</ele>
        <time>2020-07-16T00:27:16Z</time>
      </trkpt>
      <trkpt lat="44.9813" lon="6.42106">
        <ele>2262</ele>
        <time>2020-07-16T00:27:29Z</time>
      </trkpt>
      <trkpt lat="44.98138" lon="6.42104">
        <ele>2263</ele>
        <time>2020-07-16T00:27:40Z</time>
      </trkpt>
      <trkpt lat="44.98149" lon="6.4211">
        <ele>2263</ele>
        <time>2020-07-16T00:27:56Z</time>
      </trkpt>
      <trkpt lat="44.98155" lon="6.42116">
        <ele>2263</ele>
        <time>2020-07-16T00:28:06Z</time>
      </trkpt>
      <trkpt lat="44.98164" lon="6.4212">
        <ele>2263</ele>
        <time>2020-07-16T00:28:18Z</time>
      </trkpt>
      <trkpt lat="44.98174" lon="6.42131">
        <ele>2263</ele>
        <time>2020-07-16T00:28:35Z</time>
      </trkpt>
      <trkpt lat="44.98181" lon="6.42136">
        <ele>2263</ele>
        <time>2020-07-16T00:28:46Z</time>
      </trkpt>
      <trkpt lat="44.98185" lon="6.42154">
        <ele>2261</ele>
        <time>2020-07-16T00:29:04Z</time>
      </trkpt>
      <trkpt lat="44.98189" lon="6.42163">
        <ele>2260</ele>
        <time>2020-07-16T00:29:14Z</time>
      </trkpt>
      <trkpt lat="44.98198" lon="6.42176">
        <ele>2259</ele>
        <time>2020-07-16T00:29:31Z</time>
      </trkpt>
      <trkpt lat="44.98217" lon="6.42191">
        <ele>2261</ele>
        <time>2020-07-16T00:30:00Z</time>
      </trkpt>
      <trkpt lat="44.98221" lon="6.42219">
        <ele>2259</ele>
        <time>2020-07-16T00:30:27Z</time>
      </trkpt>
      <trkpt lat="44.98221" lon="6.42228">
        <ele>2258</ele>
        <time>2020-07-16T00:30:35Z</time>
      </trkpt>
      <trkpt lat="44.98206" lon="6.42243">
        <ele>2254</ele>
        <time>2020-07-16T00:31:00Z</time>
      </trkpt>
      <trkpt lat="44.98202" lon="6.42254">
        <ele>2253</ele>
        <time>2020-07-16T00:31:11Z</time>
      </trkpt>
      <trkpt lat="44.98202" lon="6.42258">
        <ele>2253</ele>
        <time>2020-07-16T00:31:15Z</time>
      </trkpt>
      <trkpt lat="44.98207" lon="6.42266">
        <ele>2253</ele>
        <time>2020-07-16T00:31:25Z</time>
      </trkpt>
      <trkpt lat="44.98208" lon="6.42275">
        <ele>2252</ele>
        <time>2020-07-16T00:31:34Z</time>
      </trkpt>
      <trkpt lat="44.98213" lon="6.42284">
        <ele>2252</ele>
        <time>2020-07-16T00:31:45Z</time>
      </trkpt>
      <trkpt lat="44.98217" lon="6.42301">
        <ele>2251</ele>
        <time>2020-07-16T00:32:02Z</time>
      </trkpt>
      <trkpt lat="44.98215" lon="6.42317">
        <ele>2250</ele>
        <time>2020-07-16T00:32:17Z</time>
      </trkpt>
      <trkpt lat="44.9822" lon="6.42328">
        <ele>2250</ele>
        <time>2020-07-16T00:32:29Z</time>
      </trkpt>
      <trkpt lat="44.9822" lon="6.42333">
        <ele>2249</ele>
        <time>2020-07-16T00:32:34Z</time>
      </trkpt>
      <trkpt lat="44.98222" lon="6.42336">
        <ele>2249</ele>
        <time>2020-07-16T00:32:38Z</time>
      </trkpt>
      <trkpt lat="44.98225" lon="6.42336">
        <ele>2249</ele>
        <time>2020-07-16T00:32:42Z</time>
      </trkpt>
      <trkpt lat="44.98231" lon="6.42355">
        <ele>2248</ele>
        <time>2020-07-16T00:33:02Z</time>
      </trkpt>
      <trkpt lat="44.98237" lon="6.42382">
        <ele>2246</ele>
        <time>2020-07-16T00:33:28Z</time>
      </trkpt>
      <trkpt lat="44.9824" lon="6.4239">
        <ele>2245</ele>
        <time>2020-07-16T00:33:37Z</time>
      </trkpt>
      <trkpt lat="44.98239" lon="6.42395">
        <ele>2245</ele>
        <time>2020-07-16T00:33:42Z</time>
      </trkpt>
      <trkpt lat="44.9824" lon="6.42405">
        <ele>2244</ele>
        <time>2020-07-16T00:33:51Z</time>
      </trkpt>
      <trkpt lat="44.98238" lon="6.4241">
        <ele>2243</ele>
        <time>2020-07-16T00:33:57Z</time>
      </trkpt>
      <trkpt lat="44.98237" lon="6.42417">
        <ele>2243</ele>
        <time>2020-07-16T00:34:03Z</time>
      </trkpt>
      <trkpt lat="44.98237" lon="6.42455">
        <ele>2241</ele>
        <time>2020-07-16T00:34:39Z</time>
      </trkpt>
      <trkpt lat="44.98234" lon="6.42466">
        <ele>2240</ele>
        <time>2020-07-16T00:34:50Z</time>
      </trkpt>
      <trkpt lat="44.98235" lon="6.42502">
        <ele>2239</ele>
        <time>2020-07-16T00:35:24Z</time>
      </trkpt>
      <trkpt lat="44.9824" lon="6.42524">
        <ele>2238</ele>
        <time>2020-07-16T00:35:46Z</time>
      </trkpt>
      <trkpt lat="44.98238" lon="6.42539">
        <ele>2238</ele>
        <time>2020-07-16T00:36:01Z</time>
      </trkpt>
      <trkpt lat="44.98241" lon="6.42585">
        <ele>2237</ele>
        <time>2020-07-16T00:36:44Z</time>
      </trkpt>
      <trkpt lat="44.98241" lon="6.42621">
        <ele>2237</ele>
        <time>2020-07-16T00:37:18Z</time>
      </trkpt>
      <trkpt lat="44.9824" lon="6.42643">
        <ele>2236</ele>
        <time>2020-07-16T00:37:39Z</time>
      </trkpt>
      <trkpt lat="44.98236" lon="6.42654">
        <ele>2236</ele>
        <time>2020-07-16T00:37:51Z</time>
      </trkpt>
      <trkpt lat="44.98235" lon="6.42671">
        <ele>2236</ele>
        <time>2020-07-16T00:38:07Z</time>
      </trkpt>
      <trkpt lat="44.98231" lon="6.42686">
        <ele>2235</ele>
        <time>2020-07-16T00:38:22Z</time>
      </trkpt>
      <trkpt lat="44.98229" lon="6.42706">
        <ele>2234</ele>
        <time>2020-07-16T00:38:41Z</time>
      </trkpt>
      <trkpt lat="44.98223" lon="6.42723">
        <ele>2232</ele>
        <time>2020-07-16T00:38:59Z</time>
      </trkpt>
      <trkpt lat="44.98222" lon="6.42732">
        <ele>2232</ele>
        <time>2020-07-16T00:39:08Z</time>
      </trkpt>
      <trkpt lat="44.9821" lon="6.42753">
        <ele>2229</ele>
        <time>2020-07-16T00:39:33Z</time>
      </trkpt>
      <trkpt lat="44.98207" lon="6.42769">
        <ele>2228</ele>
        <time>2020-07-16T00:39:49Z</time>
      </trkpt>
      <trkpt lat="44.98204" lon="6.42778">
        <ele>2227</ele>
        <time>2020-07-16T00:39:58Z</time>
      </trkpt>
      <trkpt lat="44.98201" lon="6.42782">
        <ele>2226</ele>
        <time>2020-07-16T00:40:04Z</time>
      </trkpt>
      <trkpt lat="44.98198" lon="6.42789">
        <ele>2225</ele>
        <time>2020-07-16T00:40:11Z</time>
      </trkpt>
      <trkpt lat="44.98195" lon="6.42806">
        <ele>2224</ele>
        <time>2020-07-16T00:40:28Z</time>
      </trkpt>
      <trkpt lat="44.98188" lon="6.42829">
        <ele>2221</ele>
        <time>2020-07-16T00:40:51Z</time>
      </trkpt>
      <trkpt lat="44.98185" lon="6.42853">
        <ele>2220</ele>
        <time>2020-07-16T00:41:14Z</time>
      </trkpt>
      <trkpt lat="44.9817" lon="6.42888">
        <ele>2215</ele>
        <time>2020-07-16T00:41:53Z</time>
      </trkpt>
      <trkpt lat="44.98169" lon="6.42896">
        <ele>2214</ele>
        <time>2020-07-16T00:42:01Z</time>
      </trkpt>
      <trkpt lat="44.98171" lon="6.42909">
        <ele>2214</ele>
        <time>2020-07-16T00:42:13Z</time>
      </trkpt>
      <trkpt lat="44.98167" lon="6.42915">
        <ele>2212</ele>
        <time>2020-07-16T00:42:21Z</time>
      </trkpt>
      <trkpt lat="44.98164" lon="6.42925">
        <ele>2212</ele>
        <time>2020-07-16T00:42:31Z</time>
      </trkpt>
      <trkpt lat="44.98157" lon="6.42935">
        <ele>2213</ele>
        <time>2020-07-16T00:42:45Z</time>
      </trkpt>
      <trkpt lat="44.98156" lon="6.42949">
        <ele>2211</ele>
        <time>2020-07-16T00:42:58Z</time>
      </trkpt>
      <trkpt lat="44.98146" lon="6.42965">
        <ele>2212</ele>
        <time>2020-07-16T00:43:18Z</time>
      </trkpt>
      <trkpt lat="44.98145" lon="6.42969">
        <ele>2211</ele>
        <time>2020-07-16T00:43:22Z</time>
      </trkpt>
      <trkpt lat="44.98147" lon="6.42986">
        <ele>2209</ele>
        <time>2020-07-16T00:43:38Z</time>
      </trkpt>
      <trkpt lat="44.98143" lon="6.42996">
        <ele>2209</ele>
        <time>2020-07-16T00:43:49Z</time>
      </trkpt>
      <trkpt lat="44.98146" lon="6.43013">
        <ele>2206</ele>
        <time>2020-07-16T00:44:06Z</time>
      </trkpt>
      <trkpt lat="44.98143" lon="6.43023">
        <ele>2206</ele>
        <time>2020-07-16T00:44:16Z</time>
      </trkpt>
      <trkpt lat="44.98142" lon="6.43045">
        <ele>2203</ele>
        <time>2020-07-16T00:44:37Z</time>
      </trkpt>
      <trkpt lat="44.98137" lon="6.43055">
        <ele>2203</ele>
        <time>2020-07-16T00:44:48Z</time>
      </trkpt>
      <trkpt lat="44.98139" lon="6.43062">
        <ele>2202</ele>
        <time>2020-07-16T00:44:55Z</time>
      </trkpt>
      <trkpt lat="44.98134" lon="6.4307">
        <ele>2201</ele>
        <time>2020-07-16T00:45:06Z</time>
      </trkpt>
      <trkpt lat="44.98135" lon="6.43081">
        <ele>2199</ele>
        <time>2020-07-16T00:45:16Z</time>
      </trkpt>
      <trkpt lat="44.98128" lon="6.43107">
        <ele>2197</ele>
        <time>2020-07-16T00:45:42Z</time>
      </trkpt>
      <trkpt lat="44.9813" lon="6.43144">
        <ele>2193</ele>
        <time>2020-07-16T00:46:17Z</time>
      </trkpt>
      <trkpt lat="44.98125" lon="6.43169">
        <ele>2191</ele>
        <time>2020-07-16T00:46:42Z</time>
      </trkpt>
      <trkpt lat="44.98122" lon="6.43177">
        <ele>2190</ele>
        <time>2020-07-16T00:46:50Z</time>
      </trkpt>
      <trkpt lat="44.98121" lon="6.43195">
        <ele>2188</ele>
        <time>2020-07-16T00:47:07Z</time>
      </trkpt>
      <trkpt lat="44.98119" lon="6.432">
        <ele>2187</ele>
        <time>2020-07-16T00:47:13Z</time>
      </trkpt>
      <trkpt lat="44.9812" lon="6.43208">
        <ele>2187</ele>
        <time>2020-07-16T00:47:20Z</time>
      </trkpt>
      <trkpt lat="44.98115" lon="6.43219">
        <ele>2185</ele>
        <time>2020-07-16T00:47:33Z</time>
      </trkpt>
      <trkpt lat="44.9811" lon="6.43246">
        <ele>2182</ele>
        <time>2020-07-16T00:47:59Z</time>
      </trkpt>
      <trkpt lat="44.98104" lon="6.4326">
        <ele>2179</ele>
        <time>2020-07-16T00:48:15Z</time>
      </trkpt>
      <trkpt lat="44.98102" lon="6.43281">
        <ele>2177</ele>
        <time>2020-07-16T00:48:35Z</time>
      </trkpt>
      <trkpt lat="44.98102" lon="6.43328">
        <ele>2174</ele>
        <time>2020-07-16T00:49:19Z</time>
      </trkpt>
      <trkpt lat="44.98093" lon="6.43347">
        <ele>2171</ele>
        <time>2020-07-16T00:49:41Z</time>
      </trkpt>
      <trkpt lat="44.98089" lon="6.43378">
        <ele>2170</ele>
        <time>2020-07-16T00:50:10Z</time>
      </trkpt>
      <trkpt lat="44.98089" lon="6.43393">
        <ele>2170</ele>
        <time>2020-07-16T00:50:24Z</time>
      </trkpt>
      <trkpt lat="44.98086" lon="6.43398">
        <ele>2169</ele>
        <time>2020-07-16T00:50:31Z</time>
      </trkpt>
      <trkpt lat="44.98086" lon="6.43412">
        <ele>2169</ele>
        <time>2020-07-16T00:50:44Z</time>
      </trkpt>
      <trkpt lat="44.98076" lon="6.43441">
        <ele>2169</ele>
        <time>2020-07-16T00:51:14Z</time>
      </trkpt>
      <trkpt lat="44.98076" lon="6.43454">
        <ele>2169</ele>
        <time>2020-07-16T00:51:27Z</time>
      </trkpt>
      <trkpt lat="44.98072" lon="6.43471">
        <ele>2169</ele>
        <time>2020-07-16T00:51:44Z</time>
      </trkpt>
      <trkpt lat="44.98075" lon="6.43502">
        <ele>2168</ele>
        <time>2020-07-16T00:52:13Z</time>
      </trkpt>
      <trkpt lat="44.9808" lon="6.43516">
        <ele>2167</ele>
        <time>2020-07-16T00:52:28Z</time>
      </trkpt>
      <trkpt lat="44.98078" lon="6.43522">
        <ele>2168</ele>
        <time>2020-07-16T00:52:34Z</time>
      </trkpt>
      <trkpt lat="44.98077" lon="6.43532">
        <ele>2168</ele>
        <time>2020-07-16T00:52:44Z</time>
      </trkpt>
      <trkpt lat="44.98074" lon="6.43541">
        <ele>2169</ele>
        <time>2020-07-16T00:52:53Z</time>
      </trkpt>
      <trkpt lat="44.98071" lon="6.43544">
        <ele>2170</ele>
        <time>2020-07-16T00:52:58Z</time>
      </trkpt>
      <trkpt lat="44.98068" lon="6.43565">
        <ele>2171</ele>
        <time>2020-07-16T00:53:18Z</time>
      </trkpt>
      <trkpt lat="44.98066" lon="6.4357">
        <ele>2171</ele>
        <time>2020-07-16T00:53:24Z</time>
      </trkpt>
      <trkpt lat="44.98065" lon="6.43575">
        <ele>2171</ele>
        <time>2020-07-16T00:53:29Z</time>
      </trkpt>
      <trkpt lat="44.98062" lon="6.43581">
        <ele>2172</ele>
        <time>2020-07-16T00:53:35Z</time>
      </trkpt>
      <trkpt lat="44.98065" lon="6.43595">
        <ele>2171</ele>
        <time>2020-07-16T00:53:49Z</time>
      </trkpt>
      <trkpt lat="44.98063" lon="6.436">
        <ele>2171</ele>
        <time>2020-07-16T00:53:55Z</time>
      </trkpt>
      <trkpt lat="44.98068" lon="6.43611">
        <ele>2171</ele>
        <time>2020-07-16T00:54:07Z</time>
      </trkpt>
      <trkpt lat="44.98067" lon="6.43619">
        <ele>2170</ele>
        <time>2020-07-16T00:54:15Z</time>
      </trkpt>
      <trkpt lat="44.98069" lon="6.43633">
        <ele>2170</ele>
        <time>2020-07-16T00:54:28Z</time>
      </trkpt>
      <trkpt lat="44.98065" lon="6.43662">
        <ele>2169</ele>
        <time>2020-07-16T00:54:56Z</time>
      </trkpt>
      <trkpt lat="44.98062" lon="6.43663">
        <ele>2169</ele>
        <time>2020-07-16T00:55:00Z</time>
      </trkpt>
      <trkpt lat="44.98061" lon="6.43666">
        <ele>2169</ele>
        <time>2020-07-16T00:55:03Z</time>
      </trkpt>
      <trkpt lat="44.98061" lon="6.43683">
        <ele>2168</ele>
        <time>2020-07-16T00:55:19Z</time>
      </trkpt>
      <trkpt lat="44.9806" lon="6.43688">
        <ele>2168</ele>
        <time>2020-07-16T00:55:24Z</time>
      </trkpt>
      <trkpt lat="44.98063" lon="6.43705">
        <ele>2166</ele>
        <time>2020-07-16T00:55:41Z</time>
      </trkpt>
      <trkpt lat="44.98064" lon="6.43718">
        <ele>2165</ele>
        <time>2020-07-16T00:55:53Z</time>
      </trkpt>
      <trkpt lat="44.98066" lon="6.43728">
        <ele>2165</ele>
        <time>2020-07-16T00:56:03Z</time>
      </trkpt>
      <trkpt lat="44.98066" lon="6.43735">
        <ele>2164</ele>
        <time>2020-07-16T00:56:10Z</time>
      </trkpt>
      <trkpt lat="44.98064" lon="6.43742">
        <ele>2164</ele>
        <time>2020-07-16T00:56:17Z</time>
      </trkpt>
      <trkpt lat="44.98065" lon="6.43761">
        <ele>2164</ele>
        <time>2020-07-16T00:56:35Z</time>
      </trkpt>
      <trkpt lat="44.98059" lon="6.43783">
        <ele>2164</ele>
        <time>2020-07-16T00:56:57Z</time>
      </trkpt>
      <trkpt lat="44.98058" lon="6.43793">
        <ele>2164</ele>
        <time>2020-07-16T00:57:06Z</time>
      </trkpt>
      <trkpt lat="44.98051" lon="6.43832">
        <ele>2163</ele>
        <time>2020-07-16T00:57:44Z</time>
      </trkpt>
      <trkpt lat="44.98045" lon="6.43847">
        <ele>2162</ele>
        <time>2020-07-16T00:58:01Z</time>
      </trkpt>
      <trkpt lat="44.98046" lon="6.43856">
        <ele>2163</ele>
        <time>2020-07-16T00:58:09Z</time>
      </trkpt>
      <trkpt lat="44.98045" lon="6.43859">
        <ele>2163</ele>
        <time>2020-07-16T00:58:12Z</time>
      </trkpt>
      <trkpt lat="44.98032" lon="6.43874">
        <ele>2158</ele>
        <time>2020-07-16T00:58:35Z</time>
      </trkpt>
      <trkpt lat="44.98027" lon="6.43884">
        <ele>2157</ele>
        <time>2020-07-16T00:58:46Z</time>
      </trkpt>
      <trkpt lat="44.9801" lon="6.43905">
        <ele>2149</ele>
        <time>2020-07-16T00:59:17Z</time>
      </trkpt>
      <trkpt lat="44.98007" lon="6.43911">
        <ele>2147</ele>
        <time>2020-07-16T00:59:23Z</time>
      </trkpt>
      <trkpt lat="44.98003" lon="6.43928">
        <ele>2145</ele>
        <time>2020-07-16T00:59:40Z</time>
      </trkpt>
      <trkpt lat="44.97998" lon="6.43935">
        <ele>2143</ele>
        <time>2020-07-16T00:59:50Z</time>
      </trkpt>
      <trkpt lat="44.97994" lon="6.4395">
        <ele>2142</ele>
        <time>2020-07-16T01:00:05Z</time>
      </trkpt>
      <trkpt lat="44.97988" lon="6.43963">
        <ele>2141</ele>
        <time>2020-07-16T01:00:20Z</time>
      </trkpt>
      <trkpt lat="44.97986" lon="6.43986">
        <ele>2140</ele>
        <time>2020-07-16T01:00:41Z</time>
      </trkpt>
      <trkpt lat="44.97978" lon="6.44004">
        <ele>2137</ele>
        <time>2020-07-16T01:01:01Z</time>
      </trkpt>
      <trkpt lat="44.97975" lon="6.44008">
        <ele>2136</ele>
        <time>2020-07-16T01:01:07Z</time>
      </trkpt>
      <trkpt lat="44.97973" lon="6.44018">
        <ele>2135</ele>
        <time>2020-07-16T01:01:17Z</time>
      </trkpt>
      <trkpt lat="44.97968" lon="6.44027">
        <ele>2133</ele>
        <time>2020-07-16T01:01:28Z</time>
      </trkpt>
      <trkpt lat="44.97966" lon="6.44042">
        <ele>2131</ele>
        <time>2020-07-16T01:01:42Z</time>
      </trkpt>
      <trkpt lat="44.97954" lon="6.44057">
        <ele>2125</ele>
        <time>2020-07-16T01:02:03Z</time>
      </trkpt>
      <trkpt lat="44.97947" lon="6.44077">
        <ele>2119</ele>
        <time>2020-07-16T01:02:24Z</time>
      </trkpt>
      <trkpt lat="44.97931" lon="6.4416">
        <ele>2102</ele>
        <time>2020-07-16T01:03:46Z</time>
      </trkpt>
      <trkpt lat="44.97928" lon="6.44168">
        <ele>2099</ele>
        <time>2020-07-16T01:03:54Z</time>
      </trkpt>
      <trkpt lat="44.97927" lon="6.4418">
        <ele>2098</ele>
        <time>2020-07-16T01:04:06Z</time>
      </trkpt>
      <trkpt lat="44.97921" lon="6.44197">
        <ele>2093</ele>
        <time>2020-07-16T01:04:24Z</time>
      </trkpt>
      <trkpt lat="44.97924" lon="6.44221">
        <ele>2095</ele>
        <time>2020-07-16T01:04:47Z</time>
      </trkpt>
      <trkpt lat="44.97919" lon="6.44238">
        <ele>2090</ele>
        <time>2020-07-16T01:05:04Z</time>
      </trkpt>
      <trkpt lat="44.97915" lon="6.44257">
        <ele>2087</ele>
        <time>2020-07-16T01:05:23Z</time>
      </trkpt>
      <trkpt lat="44.97912" lon="6.44256">
        <ele>2086</ele>
        <time>2020-07-16T01:05:27Z</time>
      </trkpt>
      <trkpt lat="44.97911" lon="6.44253">
        <ele>2086</ele>
        <time>2020-07-16T01:05:30Z</time>
      </trkpt>
      <trkpt lat="44.97909" lon="6.44239">
        <ele>2086</ele>
        <time>2020-07-16T01:05:43Z</time>
      </trkpt>
      <trkpt lat="44.97909" lon="6.44224">
        <ele>2086</ele>
        <time>2020-07-16T01:05:58Z</time>
      </trkpt>
      <trkpt lat="44.97906" lon="6.4422">
        <ele>2086</ele>
        <time>2020-07-16T01:06:03Z</time>
      </trkpt>
      <trkpt lat="44.97904" lon="6.44222">
        <ele>2085</ele>
        <time>2020-07-16T01:06:06Z</time>
      </trkpt>
      <trkpt lat="44.97902" lon="6.44228">
        <ele>2084</ele>
        <time>2020-07-16T01:06:13Z</time>
      </trkpt>
      <trkpt lat="44.97899" lon="6.44228">
        <ele>2083</ele>
        <time>2020-07-16T01:06:17Z</time>
      </trkpt>
      <trkpt lat="44.97898" lon="6.44234">
        <ele>2082</ele>
        <time>2020-07-16T01:06:22Z</time>
      </trkpt>
      <trkpt lat="44.97896" lon="6.44234">
        <ele>2081</ele>
        <time>2020-07-16T01:06:25Z</time>
      </trkpt>
      <trkpt lat="44.97895" lon="6.44241">
        <ele>2080</ele>
        <time>2020-07-16T01:06:32Z</time>
      </trkpt>
      <trkpt lat="44.97892" lon="6.44242">
        <ele>2079</ele>
        <time>2020-07-16T01:06:36Z</time>
      </trkpt>
      <trkpt lat="44.97886" lon="6.4425">
        <ele>2075</ele>
        <time>2020-07-16T01:06:47Z</time>
      </trkpt>
      <trkpt lat="44.97882" lon="6.44261">
        <ele>2073</ele>
        <time>2020-07-16T01:06:59Z</time>
      </trkpt>
      <trkpt lat="44.97878" lon="6.44266">
        <ele>2070</ele>
        <time>2020-07-16T01:07:06Z</time>
      </trkpt>
      <trkpt lat="44.97876" lon="6.44276">
        <ele>2068</ele>
        <time>2020-07-16T01:07:16Z</time>
      </trkpt>
      <trkpt lat="44.97878" lon="6.4431">
        <ele>2065</ele>
        <time>2020-07-16T01:07:48Z</time>
      </trkpt>
      <trkpt lat="44.97874" lon="6.4431">
        <ele>2063</ele>
        <time>2020-07-16T01:07:53Z</time>
      </trkpt>
      <trkpt lat="44.97873" lon="6.44313">
        <ele>2062</ele>
        <time>2020-07-16T01:07:56Z</time>
      </trkpt>
      <trkpt lat="44.97872" lon="6.44325">
        <ele>2060</ele>
        <time>2020-07-16T01:08:08Z</time>
      </trkpt>
      <trkpt lat="44.9787" lon="6.44329">
        <ele>2058</ele>
        <time>2020-07-16T01:08:12Z</time>
      </trkpt>
      <trkpt lat="44.97867" lon="6.44341">
        <ele>2054</ele>
        <time>2020-07-16T01:08:24Z</time>
      </trkpt>
      <trkpt lat="44.97865" lon="6.44338">
        <ele>2053</ele>
        <time>2020-07-16T01:08:28Z</time>
      </trkpt>
      <trkpt lat="44.97859" lon="6.44318">
        <ele>2052</ele>
        <time>2020-07-16T01:08:49Z</time>
      </trkpt>
      <trkpt lat="44.97856" lon="6.44313">
        <ele>2051</ele>
        <time>2020-07-16T01:08:55Z</time>
      </trkpt>
      <trkpt lat="44.97854" lon="6.44313">
        <ele>2050</ele>
        <time>2020-07-16T01:08:57Z</time>
      </trkpt>
      <trkpt lat="44.97853" lon="6.44316">
        <ele>2048</ele>
        <time>2020-07-16T01:09:01Z</time>
      </trkpt>
      <trkpt lat="44.97855" lon="6.44319">
        <ele>2049</ele>
        <time>2020-07-16T01:09:04Z</time>
      </trkpt>
      <trkpt lat="44.97854" lon="6.44331">
        <ele>2046</ele>
        <time>2020-07-16T01:09:16Z</time>
      </trkpt>
      <trkpt lat="44.97852" lon="6.44337">
        <ele>2044</ele>
        <time>2020-07-16T01:09:22Z</time>
      </trkpt>
      <trkpt lat="44.97849" lon="6.44364">
        <ele>2040</ele>
        <time>2020-07-16T01:09:48Z</time>
      </trkpt>
      <trkpt lat="44.97844" lon="6.44372">
        <ele>2035</ele>
        <time>2020-07-16T01:09:58Z</time>
      </trkpt>
      <trkpt lat="44.97844" lon="6.44382">
        <ele>2034</ele>
        <time>2020-07-16T01:10:07Z</time>
      </trkpt>
      <trkpt lat="44.97842" lon="6.44383">
        <ele>2032</ele>
        <time>2020-07-16T01:10:10Z</time>
      </trkpt>
      <trkpt lat="44.97839" lon="6.44381">
        <ele>2030</ele>
        <time>2020-07-16T01:10:15Z</time>
      </trkpt>
      <trkpt lat="44.97838" lon="6.44385">
        <ele>2029</ele>
        <time>2020-07-16T01:10:19Z</time>
      </trkpt>
      <trkpt lat="44.97837" lon="6.44386">
        <ele>2028</ele>
        <time>2020-07-16T01:10:20Z</time>
      </trkpt>
      <trkpt lat="44.97835" lon="6.44383">
        <ele>2027</ele>
        <time>2020-07-16T01:10:24Z</time>
      </trkpt>
      <trkpt lat="44.97835" lon="6.44377">
        <ele>2028</ele>
        <time>2020-07-16T01:10:30Z</time>
      </trkpt>
      <trkpt lat="44.97832" lon="6.44377">
        <ele>2026</ele>
        <time>2020-07-16T01:10:34Z</time>
      </trkpt>
      <trkpt lat="44.97829" lon="6.44393">
        <ele>2024</ele>
        <time>2020-07-16T01:10:50Z</time>
      </trkpt>
      <trkpt lat="44.97827" lon="6.44399">
        <ele>2023</ele>
        <time>2020-07-16T01:10:56Z</time>
      </trkpt>
      <trkpt lat="44.97823" lon="6.4439">
        <ele>2023</ele>
        <time>2020-07-16T01:11:06Z</time>
      </trkpt>
      <trkpt lat="44.97817" lon="6.44382">
        <ele>2023</ele>
        <time>2020-07-16T01:11:17Z</time>
      </trkpt>
      <trkpt lat="44.97816" lon="6.44387">
        <ele>2022</ele>
        <time>2020-07-16T01:11:22Z</time>
      </trkpt>
      <trkpt lat="44.97814" lon="6.44389">
        <ele>2022</ele>
        <time>2020-07-16T01:11:25Z</time>
      </trkpt>
      <trkpt lat="44.97815" lon="6.44396">
        <ele>2020</ele>
        <time>2020-07-16T01:11:32Z</time>
      </trkpt>
      <trkpt lat="44.9781" lon="6.44417">
        <ele>2016</ele>
        <time>2020-07-16T01:11:53Z</time>
      </trkpt>
      <trkpt lat="44.97805" lon="6.44418">
        <ele>2014</ele>
        <time>2020-07-16T01:11:59Z</time>
      </trkpt>
      <trkpt lat="44.97804" lon="6.44429">
        <ele>2013</ele>
        <time>2020-07-16T01:12:10Z</time>
      </trkpt>
      <trkpt lat="44.97799" lon="6.44427">
        <ele>2012</ele>
        <time>2020-07-16T01:12:17Z</time>
      </trkpt>
      <trkpt lat="44.97799" lon="6.44432">
        <ele>2011</ele>
        <time>2020-07-16T01:12:22Z</time>
      </trkpt>
      <trkpt lat="44.97796" lon="6.44434">
        <ele>2010</ele>
        <time>2020-07-16T01:12:26Z</time>
      </trkpt>
      <trkpt lat="44.97793" lon="6.44439">
        <ele>2008</ele>
        <time>2020-07-16T01:12:32Z</time>
      </trkpt>
      <trkpt lat="44.97793" lon="6.44446">
        <ele>2008</ele>
        <time>2020-07-16T01:12:39Z</time>
      </trkpt>
      <trkpt lat="44.9779" lon="6.44448">
        <ele>2006</ele>
        <time>2020-07-16T01:12:43Z</time>
      </trkpt>
      <trkpt lat="44.97785" lon="6.44458">
        <ele>2003</ele>
        <time>2020-07-16T01:12:55Z</time>
      </trkpt>
      <trkpt lat="44.97785" lon="6.44458">
        <ele>2003</ele>
        <time>2020-07-16T01:12:55Z</time>
      </trkpt>
      <trkpt lat="44.97785" lon="6.44469">
        <ele>2001</ele>
        <time>2020-07-16T01:13:05Z</time>
      </trkpt>
      <trkpt lat="44.97781" lon="6.44475">
        <ele>1998</ele>
        <time>2020-07-16T01:13:13Z</time>
      </trkpt>
      <trkpt lat="44.97779" lon="6.4447">
        <ele>1998</ele>
        <time>2020-07-16T01:13:18Z</time>
      </trkpt>
      <trkpt lat="44.97777" lon="6.44468">
        <ele>1997</ele>
        <time>2020-07-16T01:13:22Z</time>
      </trkpt>
      <trkpt lat="44.97776" lon="6.44469">
        <ele>1997</ele>
        <time>2020-07-16T01:13:23Z</time>
      </trkpt>
      <trkpt lat="44.97776" lon="6.44473">
        <ele>1996</ele>
        <time>2020-07-16T01:13:27Z</time>
      </trkpt>
      <trkpt lat="44.97772" lon="6.4448">
        <ele>1992</ele>
        <time>2020-07-16T01:13:36Z</time>
      </trkpt>
      <trkpt lat="44.97771" lon="6.44496">
        <ele>1988</ele>
        <time>2020-07-16T01:13:51Z</time>
      </trkpt>
      <trkpt lat="44.97771" lon="6.44497">
        <ele>1988</ele>
        <time>2020-07-16T01:13:52Z</time>
      </trkpt>
      <trkpt lat="44.97766" lon="6.44488">
        <ele>1987</ele>
        <time>2020-07-16T01:14:02Z</time>
      </trkpt>
      <trkpt lat="44.97764" lon="6.44489">
        <ele>1986</ele>
        <time>2020-07-16T01:14:05Z</time>
      </trkpt>
      <trkpt lat="44.97762" lon="6.44503">
        <ele>1982</ele>
        <time>2020-07-16T01:14:19Z</time>
      </trkpt>
      <trkpt lat="44.97763" lon="6.44511">
        <ele>1981</ele>
        <time>2020-07-16T01:14:26Z</time>
      </trkpt>
      <trkpt lat="44.97762" lon="6.44521">
        <ele>1980</ele>
        <time>2020-07-16T01:14:36Z</time>
      </trkpt>
      <trkpt lat="44.97759" lon="6.44522">
        <ele>1978</ele>
        <time>2020-07-16T01:14:40Z</time>
      </trkpt>
      <trkpt lat="44.97759" lon="6.44525">
        <ele>1977</ele>
        <time>2020-07-16T01:14:43Z</time>
      </trkpt>
      <trkpt lat="44.97757" lon="6.44525">
        <ele>1976</ele>
        <time>2020-07-16T01:14:46Z</time>
      </trkpt>
      <trkpt lat="44.97754" lon="6.4452">
        <ele>1974</ele>
        <time>2020-07-16T01:14:52Z</time>
      </trkpt>
      <trkpt lat="44.97751" lon="6.44516">
        <ele>1973</ele>
        <time>2020-07-16T01:14:57Z</time>
      </trkpt>
      <trkpt lat="44.97748" lon="6.44533">
        <ele>1970</ele>
        <time>2020-07-16T01:15:14Z</time>
      </trkpt>
      <trkpt lat="44.97749" lon="6.44542">
        <ele>1969</ele>
        <time>2020-07-16T01:15:22Z</time>
      </trkpt>
      <trkpt lat="44.97747" lon="6.44547">
        <ele>1968</ele>
        <time>2020-07-16T01:15:28Z</time>
      </trkpt>
      <trkpt lat="44.97745" lon="6.44562">
        <ele>1966</ele>
        <time>2020-07-16T01:15:42Z</time>
      </trkpt>
      <trkpt lat="44.97744" lon="6.44565">
        <ele>1965</ele>
        <time>2020-07-16T01:15:45Z</time>
      </trkpt>
      <trkpt lat="44.97744" lon="6.44588">
        <ele>1963</ele>
        <time>2020-07-16T01:16:07Z</time>
      </trkpt>
      <trkpt lat="44.9774" lon="6.44599">
        <ele>1961</ele>
        <time>2020-07-16T01:16:19Z</time>
      </trkpt>
      <trkpt lat="44.97739" lon="6.44599">
        <ele>1961</ele>
        <time>2020-07-16T01:16:20Z</time>
      </trkpt>
      <trkpt lat="44.97738" lon="6.44594">
        <ele>1961</ele>
        <time>2020-07-16T01:16:25Z</time>
      </trkpt>
      <trkpt lat="44.97733" lon="6.44584">
        <ele>1960</ele>
        <time>2020-07-16T01:16:37Z</time>
      </trkpt>
      <trkpt lat="44.97732" lon="6.44583">
        <ele>1960</ele>
        <time>2020-07-16T01:16:38Z</time>
      </trkpt>
      <trkpt lat="44.9773" lon="6.44599">
        <ele>1958</ele>
        <time>2020-07-16T01:16:54Z</time>
      </trkpt>
      <trkpt lat="44.97726" lon="6.44611">
        <ele>1956</ele>
        <time>2020-07-16T01:17:06Z</time>
      </trkpt>
      <trkpt lat="44.97726" lon="6.44617">
        <ele>1956</ele>
        <time>2020-07-16T01:17:12Z</time>
      </trkpt>
      <trkpt lat="44.97723" lon="6.44617">
        <ele>1955</ele>
        <time>2020-07-16T01:17:16Z</time>
      </trkpt>
      <trkpt lat="44.9772" lon="6.44612">
        <ele>1954</ele>
        <time>2020-07-16T01:17:22Z</time>
      </trkpt>
      <trkpt lat="44.97715" lon="6.4461">
        <ele>1952</ele>
        <time>2020-07-16T01:17:29Z</time>
      </trkpt>
      <trkpt lat="44.97715" lon="6.44637">
        <ele>1949</ele>
        <time>2020-07-16T01:17:54Z</time>
      </trkpt>
      <trkpt lat="44.97709" lon="6.44652">
        <ele>1944</ele>
        <time>2020-07-16T01:18:11Z</time>
      </trkpt>
      <trkpt lat="44.97707" lon="6.44665">
        <ele>1942</ele>
        <time>2020-07-16T01:18:23Z</time>
      </trkpt>
      <trkpt lat="44.97705" lon="6.44666">
        <ele>1940</ele>
        <time>2020-07-16T01:18:26Z</time>
      </trkpt>
      <trkpt lat="44.977" lon="6.44659">
        <ele>1939</ele>
        <time>2020-07-16T01:18:35Z</time>
      </trkpt>
      <trkpt lat="44.97692" lon="6.44704">
        <ele>1933</ele>
        <time>2020-07-16T01:19:19Z</time>
      </trkpt>
      <trkpt lat="44.9768" lon="6.44732">
        <ele>1925</ele>
        <time>2020-07-16T01:19:50Z</time>
      </trkpt>
      <trkpt lat="44.97677" lon="6.44736">
        <ele>1923</ele>
        <time>2020-07-16T01:19:56Z</time>
      </trkpt>
      <trkpt lat="44.9767" lon="6.44755">
        <ele>1919</ele>
        <time>2020-07-16T01:20:16Z</time>
      </trkpt>
      <trkpt lat="44.97664" lon="6.44762">
        <ele>1917</ele>
        <time>2020-07-16T01:20:26Z</time>
      </trkpt>
      <trkpt lat="44.97663" lon="6.44774">
        <ele>1918</ele>
        <time>2020-07-16T01:20:38Z</time>
      </trkpt>
      <trkpt lat="44.97661" lon="6.4478">
        <ele>1918</ele>
        <time>2020-07-16T01:20:44Z</time>
      </trkpt>
      <trkpt lat="44.9765" lon="6.44799">
        <ele>1918</ele>
        <time>2020-07-16T01:21:07Z</time>
      </trkpt>
      <trkpt lat="44.97649" lon="6.44807">
        <ele>1918</ele>
        <time>2020-07-16T01:21:15Z</time>
      </trkpt>
      <trkpt lat="44.97649" lon="6.44808">
        <ele>1918</ele>
        <time>2020-07-16T01:21:16Z</time>
      </trkpt>
      <trkpt lat="44.97645" lon="6.44813">
        <ele>1918</ele>
        <time>2020-07-16T01:21:23Z</time>
      </trkpt>
      <trkpt lat="44.97624" lon="6.44809">
        <ele>1916</ele>
        <time>2020-07-16T01:21:51Z</time>
      </trkpt>
      <trkpt lat="44.97612" lon="6.44809">
        <ele>1915</ele>
        <time>2020-07-16T01:22:07Z</time>
      </trkpt>
      <trkpt lat="44.97612" lon="6.44821">
        <ele>1915</ele>
        <time>2020-07-16T01:22:18Z</time>
      </trkpt>
      <trkpt lat="44.97609" lon="6.44832">
        <ele>1914</ele>
        <time>2020-07-16T01:22:30Z</time>
      </trkpt>
      <trkpt lat="44.9761" lon="6.44841">
        <ele>1913</ele>
        <time>2020-07-16T01:22:38Z</time>
      </trkpt>
      <trkpt lat="44.97599" lon="6.44856">
        <ele>1911</ele>
        <time>2020-07-16T01:22:59Z</time>
      </trkpt>
      <trkpt lat="44.97599" lon="6.44889">
        <ele>1909</ele>
        <time>2020-07-16T01:23:30Z</time>
      </trkpt>
      <trkpt lat="44.97601" lon="6.44901">
        <ele>1909</ele>
        <time>2020-07-16T01:23:41Z</time>
      </trkpt>
      <trkpt lat="44.97597" lon="6.4491">
        <ele>1908</ele>
        <time>2020-07-16T01:23:51Z</time>
      </trkpt>
      <trkpt lat="44.97595" lon="6.44922">
        <ele>1907</ele>
        <time>2020-07-16T01:24:03Z</time>
      </trkpt>
      <trkpt lat="44.97596" lon="6.44924">
        <ele>1907</ele>
        <time>2020-07-16T01:24:05Z</time>
      </trkpt>
      <trkpt lat="44.97595" lon="6.44943">
        <ele>1905</ele>
        <time>2020-07-16T01:24:23Z</time>
      </trkpt>
      <trkpt lat="44.97597" lon="6.44952">
        <ele>1905</ele>
        <time>2020-07-16T01:24:32Z</time>
      </trkpt>
      <trkpt lat="44.97595" lon="6.44961">
        <ele>1904</ele>
        <time>2020-07-16T01:24:41Z</time>
      </trkpt>
      <trkpt lat="44.97597" lon="6.44966">
        <ele>1904</ele>
        <time>2020-07-16T01:24:47Z</time>
      </trkpt>
      <trkpt lat="44.97597" lon="6.44975">
        <ele>1904</ele>
        <time>2020-07-16T01:24:55Z</time>
      </trkpt>
      <trkpt lat="44.97592" lon="6.44987">
        <ele>1902</ele>
        <time>2020-07-16T01:25:08Z</time>
      </trkpt>
      <trkpt lat="44.97587" lon="6.45005">
        <ele>1899</ele>
        <time>2020-07-16T01:25:26Z</time>
      </trkpt>
      <trkpt lat="44.97581" lon="6.45019">
        <ele>1898</ele>
        <time>2020-07-16T01:25:42Z</time>
      </trkpt>
      <trkpt lat="44.9758" lon="6.45041">
        <ele>1897</ele>
        <time>2020-07-16T01:26:03Z</time>
      </trkpt>
      <trkpt lat="44.97574" lon="6.45057">
        <ele>1897</ele>
        <time>2020-07-16T01:26:20Z</time>
      </trkpt>
      <trkpt lat="44.97579" lon="6.45078">
        <ele>1894</ele>
        <time>2020-07-16T01:26:41Z</time>
      </trkpt>
      <trkpt lat="44.97581" lon="6.45112">
        <ele>1890</ele>
        <time>2020-07-16T01:27:13Z</time>
      </trkpt>
      <trkpt lat="44.97581" lon="6.45158">
        <ele>1885</ele>
        <time>2020-07-16T01:27:56Z</time>
      </trkpt>
      <trkpt lat="44.97571" lon="6.4524">
        <ele>1871</ele>
        <time>2020-07-16T01:29:15Z</time>
      </trkpt>
      <trkpt lat="44.97573" lon="6.4526">
        <ele>1867</ele>
        <time>2020-07-16T01:29:34Z</time>
      </trkpt>
      <trkpt lat="44.9757" lon="6.45286">
        <ele>1864</ele>
        <time>2020-07-16T01:29:59Z</time>
      </trkpt>
      <trkpt lat="44.97553" lon="6.45299">
        <ele>1864</ele>
        <time>2020-07-16T01:30:25Z</time>
      </trkpt>
      <trkpt lat="44.97544" lon="6.4532">
        <ele>1862</ele>
        <time>2020-07-16T01:30:48Z</time>
      </trkpt>
      <trkpt lat="44.9755" lon="6.45339">
        <ele>1858</ele>
        <time>2020-07-16T01:31:07Z</time>
      </trkpt>
      <trkpt lat="44.97567" lon="6.454">
        <ele>1845</ele>
        <time>2020-07-16T01:32:09Z</time>
      </trkpt>
      <trkpt lat="44.9757" lon="6.45437">
        <ele>1836</ele>
        <time>2020-07-16T01:32:44Z</time>
      </trkpt>
      <trkpt lat="44.976" lon="6.45544">
        <ele>1815</ele>
        <time>2020-07-16T01:34:33Z</time>
      </trkpt>
      <trkpt lat="44.97617" lon="6.45567">
        <ele>1812</ele>
        <time>2020-07-16T01:35:05Z</time>
      </trkpt>
      <trkpt lat="44.97634" lon="6.45585">
        <ele>1809</ele>
        <time>2020-07-16T01:35:33Z</time>
      </trkpt>
      <trkpt lat="44.97637" lon="6.45594">
        <ele>1807</ele>
        <time>2020-07-16T01:35:42Z</time>
      </trkpt>
      <trkpt lat="44.97638" lon="6.45615">
        <ele>1803</ele>
        <time>2020-07-16T01:36:02Z</time>
      </trkpt>
      <trkpt lat="44.97643" lon="6.4563">
        <ele>1800</ele>
        <time>2020-07-16T01:36:18Z</time>
      </trkpt>
      <trkpt lat="44.97658" lon="6.45658">
        <ele>1794</ele>
        <time>2020-07-16T01:36:51Z</time>
      </trkpt>
      <trkpt lat="44.9767" lon="6.45697">
        <ele>1787</ele>
        <time>2020-07-16T01:37:31Z</time>
      </trkpt>
      <trkpt lat="44.97673" lon="6.4573">
        <ele>1781</ele>
        <time>2020-07-16T01:38:02Z</time>
      </trkpt>
      <trkpt lat="44.97677" lon="6.45756">
        <ele>1776</ele>
        <time>2020-07-16T01:38:28Z</time>
      </trkpt>
      <trkpt lat="44.97667" lon="6.45813">
        <ele>1765</ele>
        <time>2020-07-16T01:39:23Z</time>
      </trkpt>
      <trkpt lat="44.97666" lon="6.45841">
        <ele>1761</ele>
        <time>2020-07-16T01:39:50Z</time>
      </trkpt>
      <trkpt lat="44.9767" lon="6.45857">
        <ele>1758</ele>
        <time>2020-07-16T01:40:06Z</time>
      </trkpt>
      <trkpt lat="44.97683" lon="6.45884">
        <ele>1753</ele>
        <time>2020-07-16T01:40:36Z</time>
      </trkpt>
      <trkpt lat="44.97685" lon="6.45894">
        <ele>1751</ele>
        <time>2020-07-16T01:40:46Z</time>
      </trkpt>
      <trkpt lat="44.97685" lon="6.45904">
        <ele>1749</ele>
        <time>2020-07-16T01:40:56Z</time>
      </trkpt>
      <trkpt lat="44.97682" lon="6.45919">
        <ele>1746</ele>
        <time>2020-07-16T01:41:10Z</time>
      </trkpt>
      <trkpt lat="44.97681" lon="6.45944">
        <ele>1743</ele>
        <time>2020-07-16T01:41:34Z</time>
      </trkpt>
      <trkpt lat="44.97685" lon="6.45976">
        <ele>1739</ele>
        <time>2020-07-16T01:42:05Z</time>
      </trkpt>
      <trkpt lat="44.97695" lon="6.46008">
        <ele>1734</ele>
        <time>2020-07-16T01:42:38Z</time>
      </trkpt>
      <trkpt lat="44.97696" lon="6.46033">
        <ele>1732</ele>
        <time>2020-07-16T01:43:01Z</time>
      </trkpt>
      <trkpt lat="44.9771" lon="6.4609">
        <ele>1727</ele>
        <time>2020-07-16T01:43:58Z</time>
      </trkpt>
      <trkpt lat="44.97715" lon="6.46104">
        <ele>1725</ele>
        <time>2020-07-16T01:44:13Z</time>
      </trkpt>
      <trkpt lat="44.97725" lon="6.46115">
        <ele>1724</ele>
        <time>2020-07-16T01:44:30Z</time>
      </trkpt>
      <trkpt lat="44.97732" lon="6.46127">
        <ele>1722</ele>
        <time>2020-07-16T01:44:45Z</time>
      </trkpt>
      <trkpt lat="44.9775" lon="6.46195">
        <ele>1716</ele>
        <time>2020-07-16T01:45:53Z</time>
      </trkpt>
      <trkpt lat="44.97773" lon="6.46244">
        <ele>1712</ele>
        <time>2020-07-16T01:46:49Z</time>
      </trkpt>
      <trkpt lat="44.97781" lon="6.46258">
        <ele>1711</ele>
        <time>2020-07-16T01:47:06Z</time>
      </trkpt>
      <trkpt lat="44.97792" lon="6.46267">
        <ele>1710</ele>
        <time>2020-07-16T01:47:23Z</time>
      </trkpt>
      <trkpt lat="44.97841" lon="6.46296">
        <ele>1702</ele>
        <time>2020-07-16T01:48:34Z</time>
      </trkpt>
      <trkpt lat="44.97876" lon="6.46322">
        <ele>1696</ele>
        <time>2020-07-16T01:49:26Z</time>
      </trkpt>
      <trkpt lat="44.9787" lon="6.4633">
        <ele>1697</ele>
        <time>2020-07-16T01:49:37Z</time>
      </trkpt>
      <trkpt lat="44.97869" lon="6.46343">
        <ele>1697</ele>
        <time>2020-07-16T01:49:50Z</time>
      </trkpt>
      <trkpt lat="44.9787" lon="6.46354">
        <ele>1697</ele>
        <time>2020-07-16T01:50:00Z</time>
      </trkpt>
      <trkpt lat="44.97874" lon="6.4636">
        <ele>1697</ele>
        <time>2020-07-16T01:50:08Z</time>
      </trkpt>
      <trkpt lat="44.97893" lon="6.46365">
        <ele>1693</ele>
        <time>2020-07-16T01:50:34Z</time>
      </trkpt>
      <trkpt lat="44.97898" lon="6.46369">
        <ele>1692</ele>
        <time>2020-07-16T01:50:41Z</time>
      </trkpt>
      <trkpt lat="44.97906" lon="6.464">
        <ele>1689</ele>
        <time>2020-07-16T01:51:13Z</time>
      </trkpt>
      <trkpt lat="44.97919" lon="6.46435">
        <ele>1688</ele>
        <time>2020-07-16T01:51:50Z</time>
      </trkpt>
      <trkpt lat="44.97935" lon="6.46455">
        <ele>1687</ele>
        <time>2020-07-16T01:52:18Z</time>
      </trkpt>
      <trkpt lat="44.97947" lon="6.46476">
        <ele>1686</ele>
        <time>2020-07-16T01:52:44Z</time>
      </trkpt>
      <trkpt lat="44.97965" lon="6.46498">
        <ele>1683</ele>
        <time>2020-07-16T01:53:16Z</time>
      </trkpt>
      <trkpt lat="44.97985" lon="6.46516">
        <ele>1678</ele>
        <time>2020-07-16T01:53:47Z</time>
      </trkpt>
      <trkpt lat="44.97992" lon="6.46528">
        <ele>1677</ele>
        <time>2020-07-16T01:54:02Z</time>
      </trkpt>
      <trkpt lat="44.97995" lon="6.46539">
        <ele>1676</ele>
        <time>2020-07-16T01:54:13Z</time>
      </trkpt>
      <trkpt lat="44.97997" lon="6.46559">
        <ele>1677</ele>
        <time>2020-07-16T01:54:32Z</time>
      </trkpt>
      <trkpt lat="44.98012" lon="6.46622">
        <ele>1671</ele>
        <time>2020-07-16T01:55:35Z</time>
      </trkpt>
      <trkpt lat="44.98014" lon="6.46625">
        <ele>1670</ele>
        <time>2020-07-16T01:55:39Z</time>
      </trkpt>
      <trkpt lat="44.98017" lon="6.46623">
        <ele>1670</ele>
        <time>2020-07-16T01:55:43Z</time>
      </trkpt>
      <trkpt lat="44.98019" lon="6.46616">
        <ele>1670</ele>
        <time>2020-07-16T01:55:50Z</time>
      </trkpt>
      <trkpt lat="44.98027" lon="6.46546">
        <ele>1670</ele>
        <time>2020-07-16T01:56:57Z</time>
      </trkpt>
      <trkpt lat="44.98033" lon="6.46525">
        <ele>1669</ele>
        <time>2020-07-16T01:57:19Z</time>
      </trkpt>
      <trkpt lat="44.98039" lon="6.46521">
        <ele>1668</ele>
        <time>2020-07-16T01:57:27Z</time>
      </trkpt>
      <trkpt lat="44.98046" lon="6.46521">
        <ele>1667</ele>
        <time>2020-07-16T01:57:37Z</time>
      </trkpt>
      <trkpt lat="44.98052" lon="6.46527">
        <ele>1666</ele>
        <time>2020-07-16T01:57:47Z</time>
      </trkpt>
      <trkpt lat="44.98055" lon="6.46535">
        <ele>1665</ele>
        <time>2020-07-16T01:57:55Z</time>
      </trkpt>
      <trkpt lat="44.98054" lon="6.46553">
        <ele>1665</ele>
        <time>2020-07-16T01:58:12Z</time>
      </trkpt>
      <trkpt lat="44.98051" lon="6.4657">
        <ele>1665</ele>
        <time>2020-07-16T01:58:29Z</time>
      </trkpt>
      <trkpt lat="44.98055" lon="6.46589">
        <ele>1663</ele>
        <time>2020-07-16T01:58:47Z</time>
      </trkpt>
      <trkpt lat="44.98055" lon="6.46622">
        <ele>1659</ele>
        <time>2020-07-16T01:59:19Z</time>
      </trkpt>
      <trkpt lat="44.9807" lon="6.46661">
        <ele>1650</ele>
        <time>2020-07-16T02:00:00Z</time>
      </trkpt>
      <trkpt lat="44.98075" lon="6.46689">
        <ele>1648</ele>
        <time>2020-07-16T02:00:28Z</time>
      </trkpt>
      <trkpt lat="44.98086" lon="6.46712">
        <ele>1644</ele>
        <time>2020-07-16T02:00:54Z</time>
      </trkpt>
      <trkpt lat="44.98121" lon="6.4676">
        <ele>1637</ele>
        <time>2020-07-16T02:01:59Z</time>
      </trkpt>
      <trkpt lat="44.98135" lon="6.46767">
        <ele>1634</ele>
        <time>2020-07-16T02:02:19Z</time>
      </trkpt>
      <trkpt lat="44.98154" lon="6.46771">
        <ele>1629</ele>
        <time>2020-07-16T02:02:44Z</time>
      </trkpt>
      <trkpt lat="44.98164" lon="6.46789">
        <ele>1625</ele>
        <time>2020-07-16T02:03:06Z</time>
      </trkpt>
      <trkpt lat="44.98168" lon="6.46793">
        <ele>1624</ele>
        <time>2020-07-16T02:03:13Z</time>
      </trkpt>
      <trkpt lat="44.9817" lon="6.46799">
        <ele>1624</ele>
        <time>2020-07-16T02:03:19Z</time>
      </trkpt>
      <trkpt lat="44.98171" lon="6.4684">
        <ele>1621</ele>
        <time>2020-07-16T02:03:58Z</time>
      </trkpt>
      <trkpt lat="44.98228" lon="6.46894">
        <ele>1616</ele>
        <time>2020-07-16T02:05:29Z</time>
      </trkpt>
      <trkpt lat="44.98231" lon="6.46901">
        <ele>1614</ele>
        <time>2020-07-16T02:05:37Z</time>
      </trkpt>
      <trkpt lat="44.98236" lon="6.46906">
        <ele>1613</ele>
        <time>2020-07-16T02:05:45Z</time>
      </trkpt>
      <trkpt lat="44.98239" lon="6.46914">
        <ele>1612</ele>
        <time>2020-07-16T02:05:54Z</time>
      </trkpt>
      <trkpt lat="44.9824" lon="6.46924">
        <ele>1611</ele>
        <time>2020-07-16T02:06:03Z</time>
      </trkpt>
      <trkpt lat="44.98243" lon="6.46932">
        <ele>1611</ele>
        <time>2020-07-16T02:06:12Z</time>
      </trkpt>
      <trkpt lat="44.98293" lon="6.46989">
        <ele>1602</ele>
        <time>2020-07-16T02:07:37Z</time>
      </trkpt>
      <trkpt lat="44.9831" lon="6.47002">
        <ele>1598</ele>
        <time>2020-07-16T02:08:03Z</time>
      </trkpt>
      <trkpt lat="44.98341" lon="6.47018">
        <ele>1592</ele>
        <time>2020-07-16T02:08:47Z</time>
      </trkpt>
      <trkpt lat="44.98349" lon="6.47029">
        <ele>1591</ele>
        <time>2020-07-16T02:09:02Z</time>
      </trkpt>
      <trkpt lat="44.9835" lon="6.4704">
        <ele>1590</ele>
        <time>2020-07-16T02:09:13Z</time>
      </trkpt>
      <trkpt lat="44.98348" lon="6.47051">
        <ele>1588</ele>
        <time>2020-07-16T02:09:23Z</time>
      </trkpt>
      <trkpt lat="44.98345" lon="6.47058">
        <ele>1587</ele>
        <time>2020-07-16T02:09:31Z</time>
      </trkpt>
      <trkpt lat="44.98336" lon="6.47068">
        <ele>1586</ele>
        <time>2020-07-16T02:09:46Z</time>
      </trkpt>
      <trkpt lat="44.98333" lon="6.47078">
        <ele>1585</ele>
        <time>2020-07-16T02:09:57Z</time>
      </trkpt>
      <trkpt lat="44.98336" lon="6.47085">
        <ele>1584</ele>
        <time>2020-07-16T02:10:04Z</time>
      </trkpt>
      <trkpt lat="44.98341" lon="6.47079">
        <ele>1585</ele>
        <time>2020-07-16T02:10:13Z</time>
      </trkpt>
      <trkpt lat="44.98348" lon="6.47077">
        <ele>1585</ele>
        <time>2020-07-16T02:10:23Z</time>
      </trkpt>
      <trkpt lat="44.98352" lon="6.47081">
        <ele>1584</ele>
        <time>2020-07-16T02:10:29Z</time>
      </trkpt>
      <trkpt lat="44.98352" lon="6.47089">
        <ele>1584</ele>
        <time>2020-07-16T02:10:37Z</time>
      </trkpt>
      <trkpt lat="44.98348" lon="6.47097">
        <ele>1584</ele>
        <time>2020-07-16T02:10:46Z</time>
      </trkpt>
      <trkpt lat="44.98344" lon="6.47112">
        <ele>1584</ele>
        <time>2020-07-16T02:11:01Z</time>
      </trkpt>
      <trkpt lat="44.98352" lon="6.47119">
        <ele>1584</ele>
        <time>2020-07-16T02:11:14Z</time>
      </trkpt>
      <trkpt lat="44.98361" lon="6.47126">
        <ele>1583</ele>
        <time>2020-07-16T02:11:27Z</time>
      </trkpt>
      <trkpt lat="44.98374" lon="6.47146">
        <ele>1581</ele>
        <time>2020-07-16T02:11:53Z</time>
      </trkpt>
      <trkpt lat="44.98401" lon="6.47201">
        <ele>1575</ele>
        <time>2020-07-16T02:12:56Z</time>
      </trkpt>
      <trkpt lat="44.9841" lon="6.47232">
        <ele>1572</ele>
        <time>2020-07-16T02:13:28Z</time>
      </trkpt>
      <trkpt lat="44.98415" lon="6.47267">
        <ele>1570</ele>
        <time>2020-07-16T02:14:01Z</time>
      </trkpt>
      <trkpt lat="44.98422" lon="6.47289">
        <ele>1569</ele>
        <time>2020-07-16T02:14:24Z</time>
      </trkpt>
      <trkpt lat="44.98425" lon="6.47305">
        <ele>1569</ele>
        <time>2020-07-16T02:14:40Z</time>
      </trkpt>
      <trkpt lat="44.98445" lon="6.4737">
        <ele>1567</ele>
        <time>2020-07-16T02:15:47Z</time>
      </trkpt>
      <trkpt lat="44.98451" lon="6.47398">
        <ele>1566</ele>
        <time>2020-07-16T02:16:14Z</time>
      </trkpt>
      <trkpt lat="44.98456" lon="6.47452">
        <ele>1564</ele>
        <time>2020-07-16T02:17:06Z</time>
      </trkpt>
      <trkpt lat="44.98469" lon="6.47514">
        <ele>1560</ele>
        <time>2020-07-16T02:18:07Z</time>
      </trkpt>
      <trkpt lat="44.98484" lon="6.47538">
        <ele>1554</ele>
        <time>2020-07-16T02:18:37Z</time>
      </trkpt>
      <trkpt lat="44.98493" lon="6.47558">
        <ele>1551</ele>
        <time>2020-07-16T02:18:59Z</time>
      </trkpt>
      <trkpt lat="44.98504" lon="6.47577">
        <ele>1548</ele>
        <time>2020-07-16T02:19:23Z</time>
      </trkpt>
      <trkpt lat="44.98518" lon="6.47617">
        <ele>1546</ele>
        <time>2020-07-16T02:20:05Z</time>
      </trkpt>
      <trkpt lat="44.98535" lon="6.47679">
        <ele>1543</ele>
        <time>2020-07-16T02:21:07Z</time>
      </trkpt>
      <trkpt lat="44.9854" lon="6.47715">
        <ele>1542</ele>
        <time>2020-07-16T02:21:42Z</time>
      </trkpt>
      <trkpt lat="44.9856" lon="6.47797">
        <ele>1536</ele>
        <time>2020-07-16T02:23:04Z</time>
      </trkpt>
      <trkpt lat="44.98608" lon="6.47904">
        <ele>1530</ele>
        <time>2020-07-16T02:25:04Z</time>
      </trkpt>
      <trkpt lat="44.98622" lon="6.47961">
        <ele>1526</ele>
        <time>2020-07-16T02:26:01Z</time>
      </trkpt>
      <trkpt lat="44.98636" lon="6.48005">
        <ele>1523</ele>
        <time>2020-07-16T02:26:46Z</time>
      </trkpt>
      <trkpt lat="44.98657" lon="6.48053">
        <ele>1520</ele>
        <time>2020-07-16T02:27:39Z</time>
      </trkpt>
      <trkpt lat="44.98667" lon="6.48067">
        <ele>1520</ele>
        <time>2020-07-16T02:27:58Z</time>
      </trkpt>
      <trkpt lat="44.98701" lon="6.48074">
        <ele>1520</ele>
        <time>2020-07-16T02:28:44Z</time>
      </trkpt>
      <trkpt lat="44.98712" lon="6.48079">
        <ele>1521</ele>
        <time>2020-07-16T02:28:59Z</time>
      </trkpt>
      <trkpt lat="44.98732" lon="6.481">
        <ele>1522</ele>
        <time>2020-07-16T02:29:33Z</time>
      </trkpt>
      <trkpt lat="44.98739" lon="6.48106">
        <ele>1522</ele>
        <time>2020-07-16T02:29:44Z</time>
      </trkpt>
      <trkpt lat="44.98743" lon="6.48111">
        <ele>1523</ele>
        <time>2020-07-16T02:29:51Z</time>
      </trkpt>
      <trkpt lat="44.98741" lon="6.4812">
        <ele>1523</ele>
        <time>2020-07-16T02:30:00Z</time>
      </trkpt>
      <trkpt lat="44.98738" lon="6.48161">
        <ele>1524</ele>
        <time>2020-07-16T02:30:38Z</time>
      </trkpt>
      <trkpt lat="44.98727" lon="6.4819">
        <ele>1524</ele>
        <time>2020-07-16T02:31:10Z</time>
      </trkpt>
      <trkpt lat="44.98714" lon="6.48203">
        <ele>1523</ele>
        <time>2020-07-16T02:31:31Z</time>
      </trkpt>
      <trkpt lat="44.98692" lon="6.48214">
        <ele>1521</ele>
        <time>2020-07-16T02:32:02Z</time>
      </trkpt>
      <trkpt lat="44.98675" lon="6.48229">
        <ele>1520</ele>
        <time>2020-07-16T02:32:29Z</time>
      </trkpt>
      <trkpt lat="44.98656" lon="6.48264">
        <ele>1519</ele>
        <time>2020-07-16T02:33:10Z</time>
      </trkpt>
      <trkpt lat="44.9865" lon="6.4826">
        <ele>1519</ele>
        <time>2020-07-16T02:33:19Z</time>
      </trkpt>
      <trkpt lat="44.98642" lon="6.48254">
        <ele>1519</ele>
        <time>2020-07-16T02:33:31Z</time>
      </trkpt>
      <trkpt lat="44.98639" lon="6.48254">
        <ele>1519</ele>
        <time>2020-07-16T02:33:35Z</time>
      </trkpt>
      <trkpt lat="44.98634" lon="6.48259">
        <ele>1518</ele>
        <time>2020-07-16T02:33:43Z</time>
      </trkpt>
      <trkpt lat="44.98615" lon="6.48274">
        <ele>1517</ele>
        <time>2020-07-16T02:34:12Z</time>
      </trkpt>
      <trkpt lat="44.98598" lon="6.48283">
        <ele>1516</ele>
        <time>2020-07-16T02:34:37Z</time>
      </trkpt>
      <trkpt lat="44.98592" lon="6.48284">
        <ele>1515</ele>
        <time>2020-07-16T02:34:45Z</time>
      </trkpt>
      <trkpt lat="44.98574" lon="6.4828">
        <ele>1515</ele>
        <time>2020-07-16T02:35:09Z</time>
      </trkpt>
      <trkpt lat="44.98571" lon="6.48282">
        <ele>1515</ele>
        <time>2020-07-16T02:35:13Z</time>
      </trkpt>
      <trkpt lat="44.9856" lon="6.48287">
        <ele>1515</ele>
        <time>2020-07-16T02:35:29Z</time>
      </trkpt>
      <trkpt lat="44.98538" lon="6.483">
        <ele>1514</ele>
        <time>2020-07-16T02:36:01Z</time>
      </trkpt>
      <trkpt lat="44.98512" lon="6.48312">
        <ele>1513</ele>
        <time>2020-07-16T02:36:37Z</time>
      </trkpt>
      <trkpt lat="44.98488" lon="6.48333">
        <ele>1512</ele>
        <time>2020-07-16T02:37:15Z</time>
      </trkpt>
      <trkpt lat="44.98481" lon="6.48337">
        <ele>1512</ele>
        <time>2020-07-16T02:37:25Z</time>
      </trkpt>
      <trkpt lat="44.98468" lon="6.48339">
        <ele>1512</ele>
        <time>2020-07-16T02:37:42Z</time>
      </trkpt>
      <trkpt lat="44.98446" lon="6.48351">
        <ele>1512</ele>
        <time>2020-07-16T02:38:14Z</time>
      </trkpt>
      <trkpt lat="44.98436" lon="6.48354">
        <ele>1512</ele>
        <time>2020-07-16T02:38:28Z</time>
      </trkpt>
      <trkpt lat="44.98401" lon="6.48372">
        <ele>1511</ele>
        <time>2020-07-16T02:39:17Z</time>
      </trkpt>
      <trkpt lat="44.98393" lon="6.48379">
        <ele>1511</ele>
        <time>2020-07-16T02:39:30Z</time>
      </trkpt>
      <trkpt lat="44.98383" lon="6.48409">
        <ele>1509</ele>
        <time>2020-07-16T02:40:01Z</time>
      </trkpt>
      <trkpt lat="44.98358" lon="6.4843">
        <ele>1509</ele>
        <time>2020-07-16T02:40:40Z</time>
      </trkpt>
      <trkpt lat="44.98349" lon="6.48444">
        <ele>1509</ele>
        <time>2020-07-16T02:40:58Z</time>
      </trkpt>
      <trkpt lat="44.98337" lon="6.48478">
        <ele>1507</ele>
        <time>2020-07-16T02:41:34Z</time>
      </trkpt>
      <trkpt lat="44.98318" lon="6.48514">
        <ele>1509</ele>
        <time>2020-07-16T02:42:16Z</time>
      </trkpt>
      <trkpt lat="44.98285" lon="6.48548">
        <ele>1512</ele>
        <time>2020-07-16T02:43:11Z</time>
      </trkpt>
      <trkpt lat="44.98279" lon="6.48564">
        <ele>1511</ele>
        <time>2020-07-16T02:43:28Z</time>
      </trkpt>
      <trkpt lat="44.98281" lon="6.48625">
        <ele>1507</ele>
        <time>2020-07-16T02:44:25Z</time>
      </trkpt>
      <trkpt lat="44.98277" lon="6.48644">
        <ele>1506</ele>
        <time>2020-07-16T02:44:44Z</time>
      </trkpt>
      <trkpt lat="44.98276" lon="6.48661">
        <ele>1505</ele>
        <time>2020-07-16T02:45:00Z</time>
      </trkpt>
      <trkpt lat="44.98266" lon="6.48677">
        <ele>1505</ele>
        <time>2020-07-16T02:45:20Z</time>
      </trkpt>
      <trkpt lat="44.98259" lon="6.48694">
        <ele>1505</ele>
        <time>2020-07-16T02:45:39Z</time>
      </trkpt>
      <trkpt lat="44.98231" lon="6.48741">
        <ele>1506</ele>
        <time>2020-07-16T02:46:37Z</time>
      </trkpt>
      <trkpt lat="44.9821" lon="6.48801">
        <ele>1507</ele>
        <time>2020-07-16T02:47:40Z</time>
      </trkpt>
      <trkpt lat="44.98195" lon="6.48867">
        <ele>1505</ele>
        <time>2020-07-16T02:48:45Z</time>
      </trkpt>
      <trkpt lat="44.98183" lon="6.48898">
        <ele>1502</ele>
        <time>2020-07-16T02:49:19Z</time>
      </trkpt>
      <trkpt lat="44.9816" lon="6.48936">
        <ele>1500</ele>
        <time>2020-07-16T02:50:06Z</time>
      </trkpt>
      <trkpt lat="44.98142" lon="6.48949">
        <ele>1500</ele>
        <time>2020-07-16T02:50:33Z</time>
      </trkpt>
      <trkpt lat="44.98106" lon="6.4897">
        <ele>1500</ele>
        <time>2020-07-16T02:51:25Z</time>
      </trkpt>
      <trkpt lat="44.98079" lon="6.4899">
        <ele>1498</ele>
        <time>2020-07-16T02:52:06Z</time>
      </trkpt>
      <trkpt lat="44.98061" lon="6.49011">
        <ele>1497</ele>
        <time>2020-07-16T02:52:37Z</time>
      </trkpt>
      <trkpt lat="44.98045" lon="6.49038">
        <ele>1497</ele>
        <time>2020-07-16T02:53:10Z</time>
      </trkpt>
      <trkpt lat="44.9804" lon="6.49054">
        <ele>1496</ele>
        <time>2020-07-16T02:53:26Z</time>
      </trkpt>
      <trkpt lat="44.98026" lon="6.4909">
        <ele>1494</ele>
        <time>2020-07-16T02:54:05Z</time>
      </trkpt>
      <trkpt lat="44.98018" lon="6.49117">
        <ele>1493</ele>
        <time>2020-07-16T02:54:33Z</time>
      </trkpt>
      <trkpt lat="44.98009" lon="6.49139">
        <ele>1493</ele>
        <time>2020-07-16T02:54:57Z</time>
      </trkpt>
      <trkpt lat="44.9801" lon="6.49152">
        <ele>1492</ele>
        <time>2020-07-16T02:55:09Z</time>
      </trkpt>
      <trkpt lat="44.98004" lon="6.4918">
        <ele>1492</ele>
        <time>2020-07-16T02:55:37Z</time>
      </trkpt>
      <trkpt lat="44.98005" lon="6.49208">
        <ele>1491</ele>
        <time>2020-07-16T02:56:03Z</time>
      </trkpt>
      <trkpt lat="44.97988" lon="6.4924">
        <ele>1491</ele>
        <time>2020-07-16T02:56:41Z</time>
      </trkpt>
      <trkpt lat="44.97979" lon="6.49264">
        <ele>1490</ele>
        <time>2020-07-16T02:57:07Z</time>
      </trkpt>
      <trkpt lat="44.97963" lon="6.49311">
        <ele>1489</ele>
        <time>2020-07-16T02:57:56Z</time>
      </trkpt>
      <trkpt lat="44.97943" lon="6.49344">
        <ele>1488</ele>
        <time>2020-07-16T02:58:37Z</time>
      </trkpt>
      <trkpt lat="44.9793" lon="6.49375">
        <ele>1487</ele>
        <time>2020-07-16T02:59:11Z</time>
      </trkpt>
      <trkpt lat="44.97906" lon="6.49443">
        <ele>1485</ele>
        <time>2020-07-16T03:00:23Z</time>
      </trkpt>
      <trkpt lat="44.97885" lon="6.49525">
        <ele>1484</ele>
        <time>2020-07-16T03:01:45Z</time>
      </trkpt>
      <trkpt lat="44.97871" lon="6.49547">
        <ele>1484</ele>
        <time>2020-07-16T03:02:13Z</time>
      </trkpt>
      <trkpt lat="44.9786" lon="6.49573">
        <ele>1484</ele>
        <time>2020-07-16T03:02:42Z</time>
      </trkpt>
      <trkpt lat="44.97851" lon="6.49608">
        <ele>1484</ele>
        <time>2020-07-16T03:03:17Z</time>
      </trkpt>
      <trkpt lat="44.97847" lon="6.49617">
        <ele>1485</ele>
        <time>2020-07-16T03:03:27Z</time>
      </trkpt>
      <trkpt lat="44.97835" lon="6.49634">
        <ele>1485</ele>
        <time>2020-07-16T03:03:49Z</time>
      </trkpt>
      <trkpt lat="44.97831" lon="6.49636">
        <ele>1485</ele>
        <time>2020-07-16T03:03:55Z</time>
      </trkpt>
      <trkpt lat="44.97828" lon="6.49631">
        <ele>1485</ele>
        <time>2020-07-16T03:04:01Z</time>
      </trkpt>
      <trkpt lat="44.97792" lon="6.49629">
        <ele>1484</ele>
        <time>2020-07-16T03:04:49Z</time>
      </trkpt>
      <trkpt lat="44.97768" lon="6.49636">
        <ele>1484</ele>
        <time>2020-07-16T03:05:22Z</time>
      </trkpt>
      <trkpt lat="44.97733" lon="6.49663">
        <ele>1484</ele>
        <time>2020-07-16T03:06:15Z</time>
      </trkpt>
      <trkpt lat="44.97707" lon="6.49672">
        <ele>1484</ele>
        <time>2020-07-16T03:06:51Z</time>
      </trkpt>
      <trkpt lat="44.97688" lon="6.49694">
        <ele>1484</ele>
        <time>2020-07-16T03:07:24Z</time>
      </trkpt>
      <trkpt lat="44.97687" lon="6.49705">
        <ele>1483</ele>
        <time>2020-07-16T03:07:34Z</time>
      </trkpt>
      <trkpt lat="44.97672" lon="6.49737">
        <ele>1482</ele>
        <time>2020-07-16T03:08:10Z</time>
      </trkpt>
      <trkpt lat="44.97669" lon="6.49745">
        <ele>1482</ele>
        <time>2020-07-16T03:08:19Z</time>
      </trkpt>
      <trkpt lat="44.97659" lon="6.49774">
        <ele>1482</ele>
        <time>2020-07-16T03:08:49Z</time>
      </trkpt>
      <trkpt lat="44.97647" lon="6.49784">
        <ele>1482</ele>
        <time>2020-07-16T03:09:08Z</time>
      </trkpt>
      <trkpt lat="44.97641" lon="6.49788">
        <ele>1483</ele>
        <time>2020-07-16T03:09:17Z</time>
      </trkpt>
      <trkpt lat="44.97625" lon="6.49802">
        <ele>1483</ele>
        <time>2020-07-16T03:09:42Z</time>
      </trkpt>
      <trkpt lat="44.97594" lon="6.49808">
        <ele>1484</ele>
        <time>2020-07-16T03:10:24Z</time>
      </trkpt>
      <trkpt lat="44.97601" lon="6.49849">
        <ele>1482</ele>
        <time>2020-07-16T03:11:04Z</time>
      </trkpt>
      <trkpt lat="44.97591" lon="6.499">
        <ele>1481</ele>
        <time>2020-07-16T03:11:54Z</time>
      </trkpt>
      <trkpt lat="44.97585" lon="6.49975">
        <ele>1480</ele>
        <time>2020-07-16T03:13:05Z</time>
      </trkpt>
      <trkpt lat="44.97578" lon="6.50005">
        <ele>1480</ele>
        <time>2020-07-16T03:13:35Z</time>
      </trkpt>
      <trkpt lat="44.97534" lon="6.50048">
        <ele>1481</ele>
        <time>2020-07-16T03:14:46Z</time>
      </trkpt>
      <trkpt lat="44.9748" lon="6.50083">
        <ele>1482</ele>
        <time>2020-07-16T03:16:05Z</time>
      </trkpt>
      <trkpt lat="44.97473" lon="6.50094">
        <ele>1482</ele>
        <time>2020-07-16T03:16:19Z</time>
      </trkpt>
      <trkpt lat="44.9747" lon="6.50114">
        <ele>1481</ele>
        <time>2020-07-16T03:16:39Z</time>
      </trkpt>
      <trkpt lat="44.97464" lon="6.50133">
        <ele>1481</ele>
        <time>2020-07-16T03:16:58Z</time>
      </trkpt>
      <trkpt lat="44.97456" lon="6.50149">
        <ele>1481</ele>
        <time>2020-07-16T03:17:17Z</time>
      </trkpt>
      <trkpt lat="44.9744" lon="6.50175">
        <ele>1481</ele>
        <time>2020-07-16T03:17:49Z</time>
      </trkpt>
      <trkpt lat="44.97437" lon="6.5018">
        <ele>1481</ele>
        <time>2020-07-16T03:17:55Z</time>
      </trkpt>
      <trkpt lat="44.9744" lon="6.50201">
        <ele>1480</ele>
        <time>2020-07-16T03:18:16Z</time>
      </trkpt>
      <trkpt lat="44.97451" lon="6.50238">
        <ele>1477</ele>
        <time>2020-07-16T03:18:54Z</time>
      </trkpt>
      <trkpt lat="44.97453" lon="6.50257">
        <ele>1476</ele>
        <time>2020-07-16T03:19:12Z</time>
      </trkpt>
      <trkpt lat="44.97447" lon="6.5029">
        <ele>1476</ele>
        <time>2020-07-16T03:19:44Z</time>
      </trkpt>
      <trkpt lat="44.97425" lon="6.50351">
        <ele>1474</ele>
        <time>2020-07-16T03:20:48Z</time>
      </trkpt>
      <trkpt lat="44.97425" lon="6.50366">
        <ele>1473</ele>
        <time>2020-07-16T03:21:03Z</time>
      </trkpt>
      <trkpt lat="44.97417" lon="6.50358">
        <ele>1473</ele>
        <time>2020-07-16T03:21:16Z</time>
      </trkpt>
      <trkpt lat="44.97413" lon="6.50359">
        <ele>1474</ele>
        <time>2020-07-16T03:21:21Z</time>
      </trkpt>
      <trkpt lat="44.97417" lon="6.50358">
        <ele>1473</ele>
        <time>2020-07-16T03:21:27Z</time>
      </trkpt>
      <trkpt lat="44.97425" lon="6.50366">
        <ele>1473</ele>
        <time>2020-07-16T03:21:40Z</time>
      </trkpt>
      <trkpt lat="44.97429" lon="6.50365">
        <ele>1474</ele>
        <time>2020-07-16T03:21:45Z</time>
      </trkpt>
      <trkpt lat="44.97454" lon="6.50384">
        <ele>1474</ele>
        <time>2020-07-16T03:22:23Z</time>
      </trkpt>
      <trkpt lat="44.97466" lon="6.50392">
        <ele>1475</ele>
        <time>2020-07-16T03:22:41Z</time>
      </trkpt>
      <trkpt lat="44.97472" lon="6.50397">
        <ele>1475</ele>
        <time>2020-07-16T03:22:50Z</time>
      </trkpt>
      <trkpt lat="44.97486" lon="6.50408">
        <ele>1475</ele>
        <time>2020-07-16T03:23:11Z</time>
      </trkpt>
      <trkpt lat="44.97513" lon="6.50423">
        <ele>1477</ele>
        <time>2020-07-16T03:23:50Z</time>
      </trkpt>
      <trkpt lat="44.97523" lon="6.50426">
        <ele>1478</ele>
        <time>2020-07-16T03:24:04Z</time>
      </trkpt>
      <trkpt lat="44.97534" lon="6.50429">
        <ele>1478</ele>
        <time>2020-07-16T03:24:19Z</time>
      </trkpt>
      <trkpt lat="44.97537" lon="6.50428">
        <ele>1478</ele>
        <time>2020-07-16T03:24:23Z</time>
      </trkpt>
      <trkpt lat="44.97542" lon="6.50427">
        <ele>1479</ele>
        <time>2020-07-16T03:24:29Z</time>
      </trkpt>
      <trkpt lat="44.97554" lon="6.50425">
        <ele>1479</ele>
        <time>2020-07-16T03:24:46Z</time>
      </trkpt>
      <trkpt lat="44.97568" lon="6.50422">
        <ele>1480</ele>
        <time>2020-07-16T03:25:04Z</time>
      </trkpt>
      <trkpt lat="44.97573" lon="6.5042">
        <ele>1480</ele>
        <time>2020-07-16T03:25:11Z</time>
      </trkpt>
      <trkpt lat="44.97613" lon="6.50408">
        <ele>1483</ele>
        <time>2020-07-16T03:26:06Z</time>
      </trkpt>
      <trkpt lat="44.97627" lon="6.50407">
        <ele>1485</ele>
        <time>2020-07-16T03:26:25Z</time>
      </trkpt>
      <trkpt lat="44.97642" lon="6.50408">
        <ele>1486</ele>
        <time>2020-07-16T03:26:45Z</time>
      </trkpt>
      <trkpt lat="44.97655" lon="6.50413">
        <ele>1487</ele>
        <time>2020-07-16T03:27:03Z</time>
      </trkpt>
      <trkpt lat="44.97658" lon="6.50414">
        <ele>1487</ele>
        <time>2020-07-16T03:27:07Z</time>
      </trkpt>
      <trkpt lat="44.97663" lon="6.50417">
        <ele>1488</ele>
        <time>2020-07-16T03:27:14Z</time>
      </trkpt>
      <trkpt lat="44.97611" lon="6.50617">
        <ele>1489</ele>
        <time>2020-07-16T03:30:35Z</time>
      </trkpt>
      <trkpt lat="44.97594" lon="6.50697">
        <ele>1490</ele>
        <time>2020-07-16T03:31:54Z</time>
      </trkpt>
      <trkpt lat="44.97598" lon="6.50683">
        <ele>1490</ele>
        <time>2020-07-16T03:32:08Z</time>
      </trkpt>
      <trkpt lat="44.9763" lon="6.50709">
        <ele>1494</ele>
        <time>2020-07-16T03:32:58Z</time>
      </trkpt>
      <trkpt lat="44.97633" lon="6.50703">
        <ele>1494</ele>
        <time>2020-07-16T03:33:05Z</time>
      </trkpt>
      <trkpt lat="44.97634" lon="6.50704">
        <ele>1494</ele>
        <time>2020-07-16T03:33:06Z</time>
      </trkpt>
      <trkpt lat="44.97657" lon="6.50658">
        <ele>1496</ele>
        <time>2020-07-16T03:33:59Z</time>
      </trkpt>
      <trkpt lat="44.97654" lon="6.50654">
        <ele>1495</ele>
        <time>2020-07-16T03:34:05Z</time>
      </trkpt>
      <trkpt lat="44.97663" lon="6.50633">
        <ele>1496</ele>
        <time>2020-07-16T03:34:28Z</time>
      </trkpt>
      <trkpt lat="44.97669" lon="6.50639">
        <ele>1496</ele>
        <time>2020-07-16T03:34:38Z</time>
      </trkpt>
      <trkpt lat="44.97688" lon="6.50599">
        <ele>1496</ele>
        <time>2020-07-16T03:35:23Z</time>
      </trkpt>
      <trkpt lat="44.97669" lon="6.50639">
        <ele>1496</ele>
        <time>2020-07-16T03:36:09Z</time>
      </trkpt>
      <trkpt lat="44.97663" lon="6.50633">
        <ele>1496</ele>
        <time>2020-07-16T03:36:19Z</time>
      </trkpt>
      <trkpt lat="44.97654" lon="6.50654">
        <ele>1495</ele>
        <time>2020-07-16T03:36:42Z</time>
      </trkpt>
      <trkpt lat="44.97657" lon="6.50658">
        <ele>1496</ele>
        <time>2020-07-16T03:36:47Z</time>
      </trkpt>
      <trkpt lat="44.97634" lon="6.50704">
        <ele>1494</ele>
        <time>2020-07-16T03:37:40Z</time>
      </trkpt>
      <trkpt lat="44.97633" lon="6.50703">
        <ele>1494</ele>
        <time>2020-07-16T03:37:42Z</time>
      </trkpt>
      <trkpt lat="44.9763" lon="6.50709">
        <ele>1494</ele>
        <time>2020-07-16T03:37:49Z</time>
      </trkpt>
      <trkpt lat="44.97598" lon="6.50683">
        <ele>1490</ele>
        <time>2020-07-16T03:38:38Z</time>
      </trkpt>
      <trkpt lat="44.97596" lon="6.5069">
        <ele>1490</ele>
        <time>2020-07-16T03:38:45Z</time>
      </trkpt>
      <trkpt lat="44.97545" lon="6.50659">
        <ele>1484</ele>
        <time>2020-07-16T03:39:59Z</time>
      </trkpt>
      <trkpt lat="44.9754" lon="6.50655">
        <ele>1483</ele>
        <time>2020-07-16T03:40:07Z</time>
      </trkpt>
      <trkpt lat="44.97556" lon="6.5061">
        <ele>1483</ele>
        <time>2020-07-16T03:40:55Z</time>
      </trkpt>
      <trkpt lat="44.97569" lon="6.50556">
        <ele>1483</ele>
        <time>2020-07-16T03:41:49Z</time>
      </trkpt>
      <trkpt lat="44.97579" lon="6.50506">
        <ele>1484</ele>
        <time>2020-07-16T03:42:38Z</time>
      </trkpt>
      <trkpt lat="44.9758" lon="6.50493">
        <ele>1483</ele>
        <time>2020-07-16T03:42:50Z</time>
      </trkpt>
      <trkpt lat="44.97579" lon="6.50467">
        <ele>1482</ele>
        <time>2020-07-16T03:43:15Z</time>
      </trkpt>
      <trkpt lat="44.97573" lon="6.5042">
        <ele>1480</ele>
        <time>2020-07-16T03:44:00Z</time>
      </trkpt>
      <trkpt lat="44.97568" lon="6.50422">
        <ele>1480</ele>
        <time>2020-07-16T03:44:07Z</time>
      </trkpt>
      <trkpt lat="44.97554" lon="6.50425">
        <ele>1479</ele>
        <time>2020-07-16T03:44:25Z</time>
      </trkpt>
      <trkpt lat="44.97542" lon="6.50427">
        <ele>1479</ele>
        <time>2020-07-16T03:44:42Z</time>
      </trkpt>
      <trkpt lat="44.97537" lon="6.50428">
        <ele>1478</ele>
        <time>2020-07-16T03:44:48Z</time>
      </trkpt>
      <trkpt lat="44.97534" lon="6.50429">
        <ele>1478</ele>
        <time>2020-07-16T03:44:52Z</time>
      </trkpt>
      <trkpt lat="44.97523" lon="6.50426">
        <ele>1478</ele>
        <time>2020-07-16T03:45:07Z</time>
      </trkpt>
      <trkpt lat="44.97513" lon="6.50423">
        <ele>1477</ele>
        <time>2020-07-16T03:45:21Z</time>
      </trkpt>
      <trkpt lat="44.97486" lon="6.50408">
        <ele>1475</ele>
        <time>2020-07-16T03:46:00Z</time>
      </trkpt>
      <trkpt lat="44.97472" lon="6.50397">
        <ele>1475</ele>
        <time>2020-07-16T03:46:21Z</time>
      </trkpt>
      <trkpt lat="44.97466" lon="6.50392">
        <ele>1475</ele>
        <time>2020-07-16T03:46:30Z</time>
      </trkpt>
      <trkpt lat="44.97454" lon="6.50384">
        <ele>1474</ele>
        <time>2020-07-16T03:46:48Z</time>
      </trkpt>
      <trkpt lat="44.97429" lon="6.50365">
        <ele>1474</ele>
        <time>2020-07-16T03:47:26Z</time>
      </trkpt>
      <trkpt lat="44.97425" lon="6.50366">
        <ele>1473</ele>
        <time>2020-07-16T03:47:31Z</time>
      </trkpt>
      <trkpt lat="44.97422" lon="6.50367">
        <ele>1473</ele>
        <time>2020-07-16T03:47:36Z</time>
      </trkpt>
      <trkpt lat="44.97417" lon="6.50381">
        <ele>1473</ele>
        <time>2020-07-16T03:47:50Z</time>
      </trkpt>
      <trkpt lat="44.97392" lon="6.50454">
        <ele>1471</ele>
        <time>2020-07-16T03:49:07Z</time>
      </trkpt>
      <trkpt lat="44.97381" lon="6.50487">
        <ele>1470</ele>
        <time>2020-07-16T03:49:41Z</time>
      </trkpt>
      <trkpt lat="44.97378" lon="6.50504">
        <ele>1470</ele>
        <time>2020-07-16T03:49:58Z</time>
      </trkpt>
      <trkpt lat="44.97377" lon="6.50507">
        <ele>1470</ele>
        <time>2020-07-16T03:50:01Z</time>
      </trkpt>
      <trkpt lat="44.97374" lon="6.50525">
        <ele>1469</ele>
        <time>2020-07-16T03:50:18Z</time>
      </trkpt>
      <trkpt lat="44.97373" lon="6.50544">
        <ele>1469</ele>
        <time>2020-07-16T03:50:36Z</time>
      </trkpt>
      <trkpt lat="44.97371" lon="6.5056">
        <ele>1469</ele>
        <time>2020-07-16T03:50:52Z</time>
      </trkpt>
      <trkpt lat="44.97368" lon="6.50577">
        <ele>1468</ele>
        <time>2020-07-16T03:51:08Z</time>
      </trkpt>
      <trkpt lat="44.97365" lon="6.50595">
        <ele>1468</ele>
        <time>2020-07-16T03:51:26Z</time>
      </trkpt>
      <trkpt lat="44.97359" lon="6.50594">
        <ele>1468</ele>
        <time>2020-07-16T03:51:34Z</time>
      </trkpt>
      <trkpt lat="44.97357" lon="6.50597">
        <ele>1468</ele>
        <time>2020-07-16T03:51:38Z</time>
      </trkpt>
      <trkpt lat="44.97346" lon="6.50642">
        <ele>1466</ele>
        <time>2020-07-16T03:52:23Z</time>
      </trkpt>
      <trkpt lat="44.9735" lon="6.50644">
        <ele>1466</ele>
        <time>2020-07-16T03:52:28Z</time>
      </trkpt>
      <trkpt lat="44.97346" lon="6.50642">
        <ele>1466</ele>
        <time>2020-07-16T03:52:34Z</time>
      </trkpt>
      <trkpt lat="44.97332" lon="6.50624">
        <ele>1467</ele>
        <time>2020-07-16T03:52:59Z</time>
      </trkpt>
      <trkpt lat="44.97315" lon="6.50597">
        <ele>1468</ele>
        <time>2020-07-16T03:53:33Z</time>
      </trkpt>
      <trkpt lat="44.9727" lon="6.50541">
        <ele>1471</ele>
        <time>2020-07-16T03:54:53Z</time>
      </trkpt>
      <trkpt lat="44.97265" lon="6.50531">
        <ele>1471</ele>
        <time>2020-07-16T03:55:05Z</time>
      </trkpt>
      <trkpt lat="44.97252" lon="6.50483">
        <ele>1474</ele>
        <time>2020-07-16T03:55:53Z</time>
      </trkpt>
      <trkpt lat="44.97238" lon="6.50445">
        <ele>1476</ele>
        <time>2020-07-16T03:56:34Z</time>
      </trkpt>
      <trkpt lat="44.97225" lon="6.50427">
        <ele>1477</ele>
        <time>2020-07-16T03:56:58Z</time>
      </trkpt>
      <trkpt lat="44.97215" lon="6.50408">
        <ele>1477</ele>
        <time>2020-07-16T03:57:21Z</time>
      </trkpt>
      <trkpt lat="44.97201" lon="6.5036">
        <ele>1479</ele>
        <time>2020-07-16T03:58:10Z</time>
      </trkpt>
      <trkpt lat="44.97193" lon="6.50344">
        <ele>1479</ele>
        <time>2020-07-16T03:58:28Z</time>
      </trkpt>
      <trkpt lat="44.97182" lon="6.50327">
        <ele>1480</ele>
        <time>2020-07-16T03:58:50Z</time>
      </trkpt>
      <trkpt lat="44.97176" lon="6.50315">
        <ele>1481</ele>
        <time>2020-07-16T03:59:04Z</time>
      </trkpt>
      <trkpt lat="44.97168" lon="6.50292">
        <ele>1482</ele>
        <time>2020-07-16T03:59:28Z</time>
      </trkpt>
      <trkpt lat="44.9716" lon="6.50248">
        <ele>1485</ele>
        <time>2020-07-16T04:00:11Z</time>
      </trkpt>
      <trkpt lat="44.97155" lon="6.50237">
        <ele>1486</ele>
        <time>2020-07-16T04:00:23Z</time>
      </trkpt>
      <trkpt lat="44.97139" lon="6.50213">
        <ele>1488</ele>
        <time>2020-07-16T04:00:54Z</time>
      </trkpt>
      <trkpt lat="44.97134" lon="6.50203">
        <ele>1489</ele>
        <time>2020-07-16T04:01:06Z</time>
      </trkpt>
      <trkpt lat="44.97127" lon="6.50176">
        <ele>1491</ele>
        <time>2020-07-16T04:01:33Z</time>
      </trkpt>
      <trkpt lat="44.97124" lon="6.50143">
        <ele>1494</ele>
        <time>2020-07-16T04:02:04Z</time>
      </trkpt>
      <trkpt lat="44.97119" lon="6.5013">
        <ele>1495</ele>
        <time>2020-07-16T04:02:18Z</time>
      </trkpt>
      <trkpt lat="44.97109" lon="6.50117">
        <ele>1497</ele>
        <time>2020-07-16T04:02:36Z</time>
      </trkpt>
      <trkpt lat="44.97102" lon="6.50103">
        <ele>1499</ele>
        <time>2020-07-16T04:02:53Z</time>
      </trkpt>
      <trkpt lat="44.97095" lon="6.5007">
        <ele>1501</ele>
        <time>2020-07-16T04:03:25Z</time>
      </trkpt>
      <trkpt lat="44.97089" lon="6.50055">
        <ele>1502</ele>
        <time>2020-07-16T04:03:41Z</time>
      </trkpt>
      <trkpt lat="44.97084" lon="6.50045">
        <ele>1503</ele>
        <time>2020-07-16T04:03:53Z</time>
      </trkpt>
      <trkpt lat="44.97077" lon="6.50041">
        <ele>1506</ele>
        <time>2020-07-16T04:04:03Z</time>
      </trkpt>
      <trkpt lat="44.97072" lon="6.50029">
        <ele>1509</ele>
        <time>2020-07-16T04:04:16Z</time>
      </trkpt>
      <trkpt lat="44.97069" lon="6.50008">
        <ele>1512</ele>
        <time>2020-07-16T04:04:36Z</time>
      </trkpt>
      <trkpt lat="44.97069" lon="6.49984">
        <ele>1514</ele>
        <time>2020-07-16T04:04:59Z</time>
      </trkpt>
      <trkpt lat="44.97066" lon="6.4996">
        <ele>1518</ele>
        <time>2020-07-16T04:05:22Z</time>
      </trkpt>
      <trkpt lat="44.97062" lon="6.49945">
        <ele>1521</ele>
        <time>2020-07-16T04:05:37Z</time>
      </trkpt>
      <trkpt lat="44.9706" lon="6.49941">
        <ele>1522</ele>
        <time>2020-07-16T04:05:42Z</time>
      </trkpt>
      <trkpt lat="44.97059" lon="6.49931">
        <ele>1524</ele>
        <time>2020-07-16T04:05:51Z</time>
      </trkpt>
      <trkpt lat="44.9706" lon="6.4991">
        <ele>1525</ele>
        <time>2020-07-16T04:06:11Z</time>
      </trkpt>
      <trkpt lat="44.97061" lon="6.49895">
        <ele>1526</ele>
        <time>2020-07-16T04:06:26Z</time>
      </trkpt>
      <trkpt lat="44.97061" lon="6.49847">
        <ele>1530</ele>
        <time>2020-07-16T04:07:11Z</time>
      </trkpt>
      <trkpt lat="44.97069" lon="6.498">
        <ele>1529</ele>
        <time>2020-07-16T04:07:56Z</time>
      </trkpt>
      <trkpt lat="44.97062" lon="6.49766">
        <ele>1533</ele>
        <time>2020-07-16T04:08:30Z</time>
      </trkpt>
      <trkpt lat="44.97053" lon="6.49691">
        <ele>1539</ele>
        <time>2020-07-16T04:09:42Z</time>
      </trkpt>
      <trkpt lat="44.9705" lon="6.49657">
        <ele>1542</ele>
        <time>2020-07-16T04:10:14Z</time>
      </trkpt>
      <trkpt lat="44.97044" lon="6.49601">
        <ele>1550</ele>
        <time>2020-07-16T04:11:08Z</time>
      </trkpt>
      <trkpt lat="44.97044" lon="6.49575">
        <ele>1553</ele>
        <time>2020-07-16T04:11:32Z</time>
      </trkpt>
      <trkpt lat="44.97041" lon="6.49563">
        <ele>1555</ele>
        <time>2020-07-16T04:11:44Z</time>
      </trkpt>
      <trkpt lat="44.9704" lon="6.49553">
        <ele>1556</ele>
        <time>2020-07-16T04:11:54Z</time>
      </trkpt>
      <trkpt lat="44.97017" lon="6.49507">
        <ele>1565</ele>
        <time>2020-07-16T04:12:47Z</time>
      </trkpt>
      <trkpt lat="44.97012" lon="6.49481">
        <ele>1567</ele>
        <time>2020-07-16T04:13:12Z</time>
      </trkpt>
      <trkpt lat="44.97006" lon="6.49459">
        <ele>1569</ele>
        <time>2020-07-16T04:13:35Z</time>
      </trkpt>
      <trkpt lat="44.97002" lon="6.49446">
        <ele>1570</ele>
        <time>2020-07-16T04:13:48Z</time>
      </trkpt>
      <trkpt lat="44.96983" lon="6.49429">
        <ele>1576</ele>
        <time>2020-07-16T04:14:18Z</time>
      </trkpt>
      <trkpt lat="44.9698" lon="6.49415">
        <ele>1578</ele>
        <time>2020-07-16T04:14:32Z</time>
      </trkpt>
      <trkpt lat="44.96982" lon="6.49401">
        <ele>1577</ele>
        <time>2020-07-16T04:14:45Z</time>
      </trkpt>
      <trkpt lat="44.96983" lon="6.49393">
        <ele>1577</ele>
        <time>2020-07-16T04:14:53Z</time>
      </trkpt>
      <trkpt lat="44.96972" lon="6.49372">
        <ele>1580</ele>
        <time>2020-07-16T04:15:18Z</time>
      </trkpt>
      <trkpt lat="44.96946" lon="6.49351">
        <ele>1586</ele>
        <time>2020-07-16T04:15:57Z</time>
      </trkpt>
      <trkpt lat="44.96935" lon="6.49345">
        <ele>1587</ele>
        <time>2020-07-16T04:16:13Z</time>
      </trkpt>
      <trkpt lat="44.96932" lon="6.49343">
        <ele>1588</ele>
        <time>2020-07-16T04:16:18Z</time>
      </trkpt>
      <trkpt lat="44.96902" lon="6.49324">
        <ele>1593</ele>
        <time>2020-07-16T04:17:02Z</time>
      </trkpt>
      <trkpt lat="44.96876" lon="6.49305">
        <ele>1596</ele>
        <time>2020-07-16T04:17:41Z</time>
      </trkpt>
      <trkpt lat="44.96861" lon="6.49296">
        <ele>1598</ele>
        <time>2020-07-16T04:18:02Z</time>
      </trkpt>
      <trkpt lat="44.96859" lon="6.49268">
        <ele>1598</ele>
        <time>2020-07-16T04:18:29Z</time>
      </trkpt>
      <trkpt lat="44.96834" lon="6.49238">
        <ele>1602</ele>
        <time>2020-07-16T04:19:13Z</time>
      </trkpt>
      <trkpt lat="44.96818" lon="6.49224">
        <ele>1607</ele>
        <time>2020-07-16T04:19:38Z</time>
      </trkpt>
      <trkpt lat="44.96795" lon="6.49194">
        <ele>1615</ele>
        <time>2020-07-16T04:20:20Z</time>
      </trkpt>
      <trkpt lat="44.96799" lon="6.49181">
        <ele>1616</ele>
        <time>2020-07-16T04:20:33Z</time>
      </trkpt>
      <trkpt lat="44.96722" lon="6.49085">
        <ele>1642</ele>
        <time>2020-07-16T04:22:50Z</time>
      </trkpt>
      <trkpt lat="44.96705" lon="6.49058">
        <ele>1650</ele>
        <time>2020-07-16T04:23:24Z</time>
      </trkpt>
      <trkpt lat="44.96632" lon="6.49055">
        <ele>1657</ele>
        <time>2020-07-16T04:25:02Z</time>
      </trkpt>
      <trkpt lat="44.966" lon="6.49049">
        <ele>1663</ele>
        <time>2020-07-16T04:25:45Z</time>
      </trkpt>
      <trkpt lat="44.96549" lon="6.49015">
        <ele>1679</ele>
        <time>2020-07-16T04:27:00Z</time>
      </trkpt>
      <trkpt lat="44.96508" lon="6.48999">
        <ele>1689</ele>
        <time>2020-07-16T04:27:57Z</time>
      </trkpt>
      <trkpt lat="44.96467" lon="6.48994">
        <ele>1696</ele>
        <time>2020-07-16T04:28:52Z</time>
      </trkpt>
      <trkpt lat="44.96445" lon="6.48974">
        <ele>1706</ele>
        <time>2020-07-16T04:29:26Z</time>
      </trkpt>
      <trkpt lat="44.96432" lon="6.48967">
        <ele>1709</ele>
        <time>2020-07-16T04:29:45Z</time>
      </trkpt>
      <trkpt lat="44.96411" lon="6.4898">
        <ele>1707</ele>
        <time>2020-07-16T04:30:16Z</time>
      </trkpt>
      <trkpt lat="44.96384" lon="6.48985">
        <ele>1707</ele>
        <time>2020-07-16T04:30:52Z</time>
      </trkpt>
      <trkpt lat="44.96365" lon="6.48986">
        <ele>1708</ele>
        <time>2020-07-16T04:31:17Z</time>
      </trkpt>
      <trkpt lat="44.9631" lon="6.48963">
        <ele>1715</ele>
        <time>2020-07-16T04:32:34Z</time>
      </trkpt>
      <trkpt lat="44.96288" lon="6.48941">
        <ele>1719</ele>
        <time>2020-07-16T04:33:10Z</time>
      </trkpt>
      <trkpt lat="44.96271" lon="6.4894">
        <ele>1718</ele>
        <time>2020-07-16T04:33:33Z</time>
      </trkpt>
      <trkpt lat="44.96248" lon="6.48934">
        <ele>1718</ele>
        <time>2020-07-16T04:34:04Z</time>
      </trkpt>
      <trkpt lat="44.96228" lon="6.48922">
        <ele>1721</ele>
        <time>2020-07-16T04:34:33Z</time>
      </trkpt>
      <trkpt lat="44.96215" lon="6.48917">
        <ele>1722</ele>
        <time>2020-07-16T04:34:51Z</time>
      </trkpt>
      <trkpt lat="44.96188" lon="6.48918">
        <ele>1722</ele>
        <time>2020-07-16T04:35:27Z</time>
      </trkpt>
      <trkpt lat="44.9614" lon="6.489">
        <ele>1730</ele>
        <time>2020-07-16T04:36:33Z</time>
      </trkpt>
      <trkpt lat="44.96131" lon="6.48918">
        <ele>1731</ele>
        <time>2020-07-16T04:36:54Z</time>
      </trkpt>
      <trkpt lat="44.96126" lon="6.4893">
        <ele>1734</ele>
        <time>2020-07-16T04:37:07Z</time>
      </trkpt>
      <trkpt lat="44.96096" lon="6.48911">
        <ele>1739</ele>
        <time>2020-07-16T04:37:51Z</time>
      </trkpt>
      <trkpt lat="44.96067" lon="6.48889">
        <ele>1746</ele>
        <time>2020-07-16T04:38:35Z</time>
      </trkpt>
      <trkpt lat="44.96062" lon="6.48865">
        <ele>1745</ele>
        <time>2020-07-16T04:38:58Z</time>
      </trkpt>
      <trkpt lat="44.96" lon="6.48814">
        <ele>1757</ele>
        <time>2020-07-16T04:40:34Z</time>
      </trkpt>
      <trkpt lat="44.95876" lon="6.48576">
        <ele>1793</ele>
        <time>2020-07-16T04:45:13Z</time>
      </trkpt>
      <trkpt lat="44.95807" lon="6.48486">
        <ele>1804</ele>
        <time>2020-07-16T04:47:19Z</time>
      </trkpt>
      <trkpt lat="44.95767" lon="6.48459">
        <ele>1813</ele>
        <time>2020-07-16T04:48:18Z</time>
      </trkpt>
      <trkpt lat="44.95716" lon="6.48345">
        <ele>1834</ele>
        <time>2020-07-16T04:50:25Z</time>
      </trkpt>
      <trkpt lat="44.95683" lon="6.48235">
        <ele>1840</ele>
        <time>2020-07-16T04:52:18Z</time>
      </trkpt>
      <trkpt lat="44.95648" lon="6.48185">
        <ele>1847</ele>
        <time>2020-07-16T04:53:24Z</time>
      </trkpt>
      <trkpt lat="44.95627" lon="6.48154">
        <ele>1852</ele>
        <time>2020-07-16T04:54:05Z</time>
      </trkpt>
      <trkpt lat="44.95601" lon="6.48121">
        <ele>1859</ele>
        <time>2020-07-16T04:54:51Z</time>
      </trkpt>
      <trkpt lat="44.95542" lon="6.48083">
        <ele>1865</ele>
        <time>2020-07-16T04:56:18Z</time>
      </trkpt>
      <trkpt lat="44.95507" lon="6.48071">
        <ele>1870</ele>
        <time>2020-07-16T04:57:06Z</time>
      </trkpt>
      <trkpt lat="44.95491" lon="6.48054">
        <ele>1874</ele>
        <time>2020-07-16T04:57:33Z</time>
      </trkpt>
      <trkpt lat="44.95434" lon="6.48023">
        <ele>1883</ele>
        <time>2020-07-16T04:58:54Z</time>
      </trkpt>
      <trkpt lat="44.95392" lon="6.48007">
        <ele>1886</ele>
        <time>2020-07-16T04:59:52Z</time>
      </trkpt>
      <trkpt lat="44.9534" lon="6.47974">
        <ele>1892</ele>
        <time>2020-07-16T05:01:08Z</time>
      </trkpt>
      <trkpt lat="44.95261" lon="6.47932">
        <ele>1906</ele>
        <time>2020-07-16T05:03:01Z</time>
      </trkpt>
      <trkpt lat="44.95048" lon="6.47834">
        <ele>1945</ele>
        <time>2020-07-16T05:08:00Z</time>
      </trkpt>
      <trkpt lat="44.94811" lon="6.47781">
        <ele>1994</ele>
        <time>2020-07-16T05:13:20Z</time>
      </trkpt>
      <trkpt lat="44.94749" lon="6.47774">
        <ele>2008</ele>
        <time>2020-07-16T05:14:43Z</time>
      </trkpt>
      <trkpt lat="44.94728" lon="6.47758">
        <ele>2012</ele>
        <time>2020-07-16T05:15:15Z</time>
      </trkpt>
      <trkpt lat="44.94702" lon="6.47744">
        <ele>2019</ele>
        <time>2020-07-16T05:15:52Z</time>
      </trkpt>
      <trkpt lat="44.94641" lon="6.47732">
        <ele>2040</ele>
        <time>2020-07-16T05:17:14Z</time>
      </trkpt>
      <trkpt lat="44.94652" lon="6.47785">
        <ele>2045</ele>
        <time>2020-07-16T05:18:06Z</time>
      </trkpt>
      <trkpt lat="44.94667" lon="6.47835">
        <ele>2050</ele>
        <time>2020-07-16T05:18:58Z</time>
      </trkpt>
      <trkpt lat="44.94681" lon="6.47872">
        <ele>2061</ele>
        <time>2020-07-16T05:19:37Z</time>
      </trkpt>
      <trkpt lat="44.94719" lon="6.47935">
        <ele>2074</ele>
        <time>2020-07-16T05:20:56Z</time>
      </trkpt>
      <trkpt lat="44.94689" lon="6.47923">
        <ele>2080</ele>
        <time>2020-07-16T05:21:37Z</time>
      </trkpt>
      <trkpt lat="44.94656" lon="6.47917">
        <ele>2091</ele>
        <time>2020-07-16T05:22:22Z</time>
      </trkpt>
      <trkpt lat="44.94623" lon="6.47901">
        <ele>2098</ele>
        <time>2020-07-16T05:23:08Z</time>
      </trkpt>
      <trkpt lat="44.94563" lon="6.47885">
        <ele>2118</ele>
        <time>2020-07-16T05:24:30Z</time>
      </trkpt>
      <trkpt lat="44.94542" lon="6.47873">
        <ele>2123</ele>
        <time>2020-07-16T05:25:00Z</time>
      </trkpt>
      <trkpt lat="44.94529" lon="6.47874">
        <ele>2129</ele>
        <time>2020-07-16T05:25:17Z</time>
      </trkpt>
      <trkpt lat="44.94533" lon="6.47881">
        <ele>2130</ele>
        <time>2020-07-16T05:25:26Z</time>
      </trkpt>
      <trkpt lat="44.94495" lon="6.47868">
        <ele>2143</ele>
        <time>2020-07-16T05:26:18Z</time>
      </trkpt>
      <trkpt lat="44.94501" lon="6.47904">
        <ele>2152</ele>
        <time>2020-07-16T05:26:53Z</time>
      </trkpt>
      <trkpt lat="44.94493" lon="6.47903">
        <ele>2155</ele>
        <time>2020-07-16T05:27:04Z</time>
      </trkpt>
      <trkpt lat="44.94471" lon="6.4789">
        <ele>2162</ele>
        <time>2020-07-16T05:27:35Z</time>
      </trkpt>
      <trkpt lat="44.94472" lon="6.47914">
        <ele>2167</ele>
        <time>2020-07-16T05:27:58Z</time>
      </trkpt>
      <trkpt lat="44.94478" lon="6.47937">
        <ele>2172</ele>
        <time>2020-07-16T05:28:21Z</time>
      </trkpt>
      <trkpt lat="44.94466" lon="6.47936">
        <ele>2177</ele>
        <time>2020-07-16T05:28:37Z</time>
      </trkpt>
      <trkpt lat="44.94455" lon="6.4793">
        <ele>2180</ele>
        <time>2020-07-16T05:28:53Z</time>
      </trkpt>
      <trkpt lat="44.94454" lon="6.47952">
        <ele>2188</ele>
        <time>2020-07-16T05:29:14Z</time>
      </trkpt>
      <trkpt lat="44.94457" lon="6.47964">
        <ele>2191</ele>
        <time>2020-07-16T05:29:26Z</time>
      </trkpt>
      <trkpt lat="44.94443" lon="6.47961">
        <ele>2196</ele>
        <time>2020-07-16T05:29:45Z</time>
      </trkpt>
      <trkpt lat="44.94427" lon="6.47946">
        <ele>2198</ele>
        <time>2020-07-16T05:30:10Z</time>
      </trkpt>
      <trkpt lat="44.94425" lon="6.47964">
        <ele>2205</ele>
        <time>2020-07-16T05:30:28Z</time>
      </trkpt>
      <trkpt lat="44.94427" lon="6.47973">
        <ele>2207</ele>
        <time>2020-07-16T05:30:36Z</time>
      </trkpt>
      <trkpt lat="44.94404" lon="6.47961">
        <ele>2212</ele>
        <time>2020-07-16T05:31:09Z</time>
      </trkpt>
      <trkpt lat="44.94403" lon="6.47981">
        <ele>2219</ele>
        <time>2020-07-16T05:31:28Z</time>
      </trkpt>
      <trkpt lat="44.94378" lon="6.47973">
        <ele>2224</ele>
        <time>2020-07-16T05:32:02Z</time>
      </trkpt>
      <trkpt lat="44.94377" lon="6.47987">
        <ele>2229</ele>
        <time>2020-07-16T05:32:16Z</time>
      </trkpt>
      <trkpt lat="44.94363" lon="6.4798">
        <ele>2231</ele>
        <time>2020-07-16T05:32:35Z</time>
      </trkpt>
      <trkpt lat="44.94363" lon="6.48002">
        <ele>2238</ele>
        <time>2020-07-16T05:32:56Z</time>
      </trkpt>
      <trkpt lat="44.94369" lon="6.48009">
        <ele>2239</ele>
        <time>2020-07-16T05:33:07Z</time>
      </trkpt>
      <trkpt lat="44.9436" lon="6.48008">
        <ele>2241</ele>
        <time>2020-07-16T05:33:19Z</time>
      </trkpt>
      <trkpt lat="44.94371" lon="6.48024">
        <ele>2245</ele>
        <time>2020-07-16T05:33:40Z</time>
      </trkpt>
      <trkpt lat="44.94353" lon="6.48024">
        <ele>2250</ele>
        <time>2020-07-16T05:34:04Z</time>
      </trkpt>
      <trkpt lat="44.94339" lon="6.48018">
        <ele>2251</ele>
        <time>2020-07-16T05:34:23Z</time>
      </trkpt>
      <trkpt lat="44.94354" lon="6.4804">
        <ele>2257</ele>
        <time>2020-07-16T05:34:52Z</time>
      </trkpt>
      <trkpt lat="44.94328" lon="6.48038">
        <ele>2262</ele>
        <time>2020-07-16T05:35:27Z</time>
      </trkpt>
      <trkpt lat="44.94287" lon="6.48092">
        <ele>2287</ele>
        <time>2020-07-16T05:36:42Z</time>
      </trkpt>
      <trkpt lat="44.94281" lon="6.48092">
        <ele>2287</ele>
        <time>2020-07-16T05:36:50Z</time>
      </trkpt>
      <trkpt lat="44.9428" lon="6.481">
        <ele>2291</ele>
        <time>2020-07-16T05:36:57Z</time>
      </trkpt>
      <trkpt lat="44.9427" lon="6.48103">
        <ele>2293</ele>
        <time>2020-07-16T05:37:11Z</time>
      </trkpt>
      <trkpt lat="44.94269" lon="6.48111">
        <ele>2296</ele>
        <time>2020-07-16T05:37:19Z</time>
      </trkpt>
      <trkpt lat="44.94263" lon="6.48115">
        <ele>2297</ele>
        <time>2020-07-16T05:37:27Z</time>
      </trkpt>
      <trkpt lat="44.94255" lon="6.48114">
        <ele>2297</ele>
        <time>2020-07-16T05:37:38Z</time>
      </trkpt>
      <trkpt lat="44.94255" lon="6.48125">
        <ele>2301</ele>
        <time>2020-07-16T05:37:49Z</time>
      </trkpt>
      <trkpt lat="44.9422" lon="6.48168">
        <ele>2323</ele>
        <time>2020-07-16T05:38:50Z</time>
      </trkpt>
      <trkpt lat="44.94171" lon="6.48218">
        <ele>2344</ele>
        <time>2020-07-16T05:40:11Z</time>
      </trkpt>
      <trkpt lat="44.94167" lon="6.48223">
        <ele>2345</ele>
        <time>2020-07-16T05:40:18Z</time>
      </trkpt>
      <trkpt lat="44.94159" lon="6.48229">
        <ele>2348</ele>
        <time>2020-07-16T05:40:30Z</time>
      </trkpt>
      <trkpt lat="44.94152" lon="6.48248">
        <ele>2352</ele>
        <time>2020-07-16T05:40:51Z</time>
      </trkpt>
      <trkpt lat="44.94139" lon="6.48277">
        <ele>2359</ele>
        <time>2020-07-16T05:41:23Z</time>
      </trkpt>
      <trkpt lat="44.94139" lon="6.48282">
        <ele>2359</ele>
        <time>2020-07-16T05:41:28Z</time>
      </trkpt>
      <trkpt lat="44.9413" lon="6.48294">
        <ele>2362</ele>
        <time>2020-07-16T05:41:44Z</time>
      </trkpt>
      <trkpt lat="44.94123" lon="6.48287">
        <ele>2362</ele>
        <time>2020-07-16T05:41:56Z</time>
      </trkpt>
      <trkpt lat="44.94105" lon="6.4829">
        <ele>2365</ele>
        <time>2020-07-16T05:42:20Z</time>
      </trkpt>
      <trkpt lat="44.94073" lon="6.48262">
        <ele>2370</ele>
        <time>2020-07-16T05:43:10Z</time>
      </trkpt>
      <trkpt lat="44.94061" lon="6.48245">
        <ele>2375</ele>
        <time>2020-07-16T05:43:33Z</time>
      </trkpt>
      <trkpt lat="44.9405" lon="6.48215">
        <ele>2384</ele>
        <time>2020-07-16T05:44:05Z</time>
      </trkpt>
      <trkpt lat="44.94055" lon="6.4812">
        <ele>2389</ele>
        <time>2020-07-16T05:45:35Z</time>
      </trkpt>
      <trkpt lat="44.94052" lon="6.48097">
        <ele>2393</ele>
        <time>2020-07-16T05:45:57Z</time>
      </trkpt>
      <trkpt lat="44.94032" lon="6.48017">
        <ele>2409</ele>
        <time>2020-07-16T05:47:17Z</time>
      </trkpt>
      <trkpt lat="44.9401" lon="6.48077">
        <ele>2422</ele>
        <time>2020-07-16T05:48:21Z</time>
      </trkpt>
      <trkpt lat="44.94003" lon="6.48085">
        <ele>2426</ele>
        <time>2020-07-16T05:48:33Z</time>
      </trkpt>
      <trkpt lat="44.9399" lon="6.48074">
        <ele>2436</ele>
        <time>2020-07-16T05:48:53Z</time>
      </trkpt>
      <trkpt lat="44.93983" lon="6.4806">
        <ele>2442</ele>
        <time>2020-07-16T05:49:09Z</time>
      </trkpt>
      <trkpt lat="44.93973" lon="6.4803">
        <ele>2451</ele>
        <time>2020-07-16T05:49:41Z</time>
      </trkpt>
      <trkpt lat="44.93965" lon="6.48045">
        <ele>2456</ele>
        <time>2020-07-16T05:49:58Z</time>
      </trkpt>
      <trkpt lat="44.93965" lon="6.48058">
        <ele>2456</ele>
        <time>2020-07-16T05:50:11Z</time>
      </trkpt>
      <trkpt lat="44.93961" lon="6.48067">
        <ele>2458</ele>
        <time>2020-07-16T05:50:21Z</time>
      </trkpt>
      <trkpt lat="44.93951" lon="6.48059">
        <ele>2467</ele>
        <time>2020-07-16T05:50:36Z</time>
      </trkpt>
      <trkpt lat="44.93947" lon="6.48028">
        <ele>2472</ele>
        <time>2020-07-16T05:51:06Z</time>
      </trkpt>
      <trkpt lat="44.93931" lon="6.48015">
        <ele>2486</ele>
        <time>2020-07-16T05:51:30Z</time>
      </trkpt>
      <trkpt lat="44.93932" lon="6.47999">
        <ele>2486</ele>
        <time>2020-07-16T05:51:45Z</time>
      </trkpt>
      <trkpt lat="44.9393" lon="6.47993">
        <ele>2489</ele>
        <time>2020-07-16T05:51:52Z</time>
      </trkpt>
      <trkpt lat="44.93921" lon="6.47988">
        <ele>2497</ele>
        <time>2020-07-16T05:52:05Z</time>
      </trkpt>
      <trkpt lat="44.93915" lon="6.47977">
        <ele>2505</ele>
        <time>2020-07-16T05:52:18Z</time>
      </trkpt>
      <trkpt lat="44.93909" lon="6.47977">
        <ele>2511</ele>
        <time>2020-07-16T05:52:26Z</time>
      </trkpt>
      <trkpt lat="44.93897" lon="6.47971">
        <ele>2524</ele>
        <time>2020-07-16T05:52:43Z</time>
      </trkpt>
      <trkpt lat="44.93894" lon="6.47984">
        <ele>2526</ele>
        <time>2020-07-16T05:52:56Z</time>
      </trkpt>
      <trkpt lat="44.93884" lon="6.4798">
        <ele>2537</ele>
        <time>2020-07-16T05:53:10Z</time>
      </trkpt>
      <trkpt lat="44.93873" lon="6.47952">
        <ele>2550</ele>
        <time>2020-07-16T05:53:40Z</time>
      </trkpt>
      <trkpt lat="44.93867" lon="6.47921">
        <ele>2557</ele>
        <time>2020-07-16T05:54:10Z</time>
      </trkpt>
      <trkpt lat="44.93874" lon="6.47902">
        <ele>2556</ele>
        <time>2020-07-16T05:54:30Z</time>
      </trkpt>
      <trkpt lat="44.93849" lon="6.47922">
        <ele>2574</ele>
        <time>2020-07-16T05:55:09Z</time>
      </trkpt>
      <trkpt lat="44.93853" lon="6.47907">
        <ele>2573</ele>
        <time>2020-07-16T05:55:24Z</time>
      </trkpt>
      <trkpt lat="44.93847" lon="6.47902">
        <ele>2580</ele>
        <time>2020-07-16T05:55:33Z</time>
      </trkpt>
      <trkpt lat="44.93843" lon="6.47885">
        <ele>2589</ele>
        <time>2020-07-16T05:55:50Z</time>
      </trkpt>
      <trkpt lat="44.9383" lon="6.47894">
        <ele>2598</ele>
        <time>2020-07-16T05:56:09Z</time>
      </trkpt>
      <trkpt lat="44.93825" lon="6.47894">
        <ele>2604</ele>
        <time>2020-07-16T05:56:16Z</time>
      </trkpt>
      <trkpt lat="44.93827" lon="6.47877">
        <ele>2606</ele>
        <time>2020-07-16T05:56:32Z</time>
      </trkpt>
      <trkpt lat="44.93824" lon="6.47821">
        <ele>2622</ele>
        <time>2020-07-16T05:57:25Z</time>
      </trkpt>
      <trkpt lat="44.93818" lon="6.47823">
        <ele>2625</ele>
        <time>2020-07-16T05:57:34Z</time>
      </trkpt>
      <trkpt lat="44.9381" lon="6.47784">
        <ele>2637</ele>
        <time>2020-07-16T05:58:12Z</time>
      </trkpt>
      <trkpt lat="44.93816" lon="6.4777">
        <ele>2637</ele>
        <time>2020-07-16T05:58:27Z</time>
      </trkpt>
      <trkpt lat="44.93814" lon="6.47763">
        <ele>2639</ele>
        <time>2020-07-16T05:58:35Z</time>
      </trkpt>
      <trkpt lat="44.93807" lon="6.47775">
        <ele>2639</ele>
        <time>2020-07-16T05:58:49Z</time>
      </trkpt>
      <trkpt lat="44.93801" lon="6.47766">
        <ele>2642</ele>
        <time>2020-07-16T05:59:01Z</time>
      </trkpt>
      <trkpt lat="44.93798" lon="6.47755">
        <ele>2644</ele>
        <time>2020-07-16T05:59:12Z</time>
      </trkpt>
      <trkpt lat="44.93794" lon="6.47751">
        <ele>2645</ele>
        <time>2020-07-16T05:59:19Z</time>
      </trkpt>
      <trkpt lat="44.93783" lon="6.47764">
        <ele>2647</ele>
        <time>2020-07-16T05:59:38Z</time>
      </trkpt>
      <trkpt lat="44.93782" lon="6.47767">
        <ele>2648</ele>
        <time>2020-07-16T05:59:41Z</time>
      </trkpt>
      <trkpt lat="44.93778" lon="6.47767">
        <ele>2649</ele>
        <time>2020-07-16T05:59:46Z</time>
      </trkpt>
      <trkpt lat="44.93775" lon="6.47759">
        <ele>2649</ele>
        <time>2020-07-16T05:59:55Z</time>
      </trkpt>
      <trkpt lat="44.93773" lon="6.47761">
        <ele>2650</ele>
        <time>2020-07-16T05:59:58Z</time>
      </trkpt>
      <trkpt lat="44.93765" lon="6.47761">
        <ele>2652</ele>
        <time>2020-07-16T06:00:09Z</time>
      </trkpt>
      <trkpt lat="44.93755" lon="6.47769">
        <ele>2655</ele>
        <time>2020-07-16T06:00:24Z</time>
      </trkpt>
      <trkpt lat="44.93752" lon="6.47784">
        <ele>2659</ele>
        <time>2020-07-16T06:00:39Z</time>
      </trkpt>
      <trkpt lat="44.93724" lon="6.47814">
        <ele>2648</ele>
        <time>2020-07-16T06:01:26Z</time>
      </trkpt>
      <trkpt lat="44.93717" lon="6.47826">
        <ele>2646</ele>
        <time>2020-07-16T06:01:40Z</time>
      </trkpt>
      <trkpt lat="44.93697" lon="6.47836">
        <ele>2637</ele>
        <time>2020-07-16T06:02:09Z</time>
      </trkpt>
      <trkpt lat="44.93676" lon="6.4783">
        <ele>2623</ele>
        <time>2020-07-16T06:02:37Z</time>
      </trkpt>
      <trkpt lat="44.93658" lon="6.47838">
        <ele>2615</ele>
        <time>2020-07-16T06:03:02Z</time>
      </trkpt>
      <trkpt lat="44.93638" lon="6.47861">
        <ele>2612</ele>
        <time>2020-07-16T06:03:37Z</time>
      </trkpt>
      <trkpt lat="44.93632" lon="6.47856">
        <ele>2606</ele>
        <time>2020-07-16T06:03:46Z</time>
      </trkpt>
      <trkpt lat="44.93616" lon="6.47862">
        <ele>2598</ele>
        <time>2020-07-16T06:04:08Z</time>
      </trkpt>
      <trkpt lat="44.93619" lon="6.4789">
        <ele>2612</ele>
        <time>2020-07-16T06:04:35Z</time>
      </trkpt>
      <trkpt lat="44.9361" lon="6.47891">
        <ele>2606</ele>
        <time>2020-07-16T06:04:47Z</time>
      </trkpt>
      <trkpt lat="44.93616" lon="6.47902">
        <ele>2615</ele>
        <time>2020-07-16T06:05:00Z</time>
      </trkpt>
      <trkpt lat="44.93601" lon="6.47907">
        <ele>2607</ele>
        <time>2020-07-16T06:05:21Z</time>
      </trkpt>
      <trkpt lat="44.93586" lon="6.47907">
        <ele>2597</ele>
        <time>2020-07-16T06:05:41Z</time>
      </trkpt>
      <trkpt lat="44.9357" lon="6.47912">
        <ele>2590</ele>
        <time>2020-07-16T06:06:03Z</time>
      </trkpt>
      <trkpt lat="44.93559" lon="6.47912">
        <ele>2584</ele>
        <time>2020-07-16T06:06:17Z</time>
      </trkpt>
      <trkpt lat="44.93532" lon="6.47921">
        <ele>2573</ele>
        <time>2020-07-16T06:06:54Z</time>
      </trkpt>
      <trkpt lat="44.93521" lon="6.4793">
        <ele>2572</ele>
        <time>2020-07-16T06:07:11Z</time>
      </trkpt>
      <trkpt lat="44.93492" lon="6.47932">
        <ele>2557</ele>
        <time>2020-07-16T06:07:50Z</time>
      </trkpt>
      <trkpt lat="44.93474" lon="6.47946">
        <ele>2555</ele>
        <time>2020-07-16T06:08:17Z</time>
      </trkpt>
      <trkpt lat="44.93453" lon="6.47957">
        <ele>2549</ele>
        <time>2020-07-16T06:08:47Z</time>
      </trkpt>
      <trkpt lat="44.93435" lon="6.47964">
        <ele>2544</ele>
        <time>2020-07-16T06:09:12Z</time>
      </trkpt>
      <trkpt lat="44.93413" lon="6.47981">
        <ele>2540</ele>
        <time>2020-07-16T06:09:46Z</time>
      </trkpt>
      <trkpt lat="44.93398" lon="6.48001">
        <ele>2543</ele>
        <time>2020-07-16T06:10:13Z</time>
      </trkpt>
      <trkpt lat="44.93384" lon="6.48">
        <ele>2539</ele>
        <time>2020-07-16T06:10:32Z</time>
      </trkpt>
      <trkpt lat="44.93345" lon="6.48028">
        <ele>2541</ele>
        <time>2020-07-16T06:11:30Z</time>
      </trkpt>
      <trkpt lat="44.93299" lon="6.48035">
        <ele>2539</ele>
        <time>2020-07-16T06:12:32Z</time>
      </trkpt>
      <trkpt lat="44.93281" lon="6.48024">
        <ele>2533</ele>
        <time>2020-07-16T06:12:58Z</time>
      </trkpt>
      <trkpt lat="44.93275" lon="6.4804">
        <ele>2539</ele>
        <time>2020-07-16T06:13:15Z</time>
      </trkpt>
      <trkpt lat="44.93258" lon="6.4803">
        <ele>2534</ele>
        <time>2020-07-16T06:13:40Z</time>
      </trkpt>
      <trkpt lat="44.93193" lon="6.48073">
        <ele>2531</ele>
        <time>2020-07-16T06:15:16Z</time>
      </trkpt>
      <trkpt lat="44.93181" lon="6.48087">
        <ele>2529</ele>
        <time>2020-07-16T06:15:36Z</time>
      </trkpt>
      <trkpt lat="44.93173" lon="6.48091">
        <ele>2527</ele>
        <time>2020-07-16T06:15:48Z</time>
      </trkpt>
      <trkpt lat="44.93164" lon="6.48073">
        <ele>2523</ele>
        <time>2020-07-16T06:16:09Z</time>
      </trkpt>
      <trkpt lat="44.93139" lon="6.48041">
        <ele>2517</ele>
        <time>2020-07-16T06:16:54Z</time>
      </trkpt>
      <trkpt lat="44.93131" lon="6.48026">
        <ele>2516</ele>
        <time>2020-07-16T06:17:11Z</time>
      </trkpt>
      <trkpt lat="44.93128" lon="6.48013">
        <ele>2517</ele>
        <time>2020-07-16T06:17:24Z</time>
      </trkpt>
      <trkpt lat="44.93125" lon="6.48016">
        <ele>2517</ele>
        <time>2020-07-16T06:17:29Z</time>
      </trkpt>
      <trkpt lat="44.93133" lon="6.48044">
        <ele>2516</ele>
        <time>2020-07-16T06:17:58Z</time>
      </trkpt>
      <trkpt lat="44.93135" lon="6.48061">
        <ele>2516</ele>
        <time>2020-07-16T06:18:14Z</time>
      </trkpt>
      <trkpt lat="44.93133" lon="6.48076">
        <ele>2515</ele>
        <time>2020-07-16T06:18:28Z</time>
      </trkpt>
      <trkpt lat="44.93133" lon="6.48101">
        <ele>2514</ele>
        <time>2020-07-16T06:18:52Z</time>
      </trkpt>
      <trkpt lat="44.93127" lon="6.48121">
        <ele>2510</ele>
        <time>2020-07-16T06:19:13Z</time>
      </trkpt>
      <trkpt lat="44.93132" lon="6.48137">
        <ele>2510</ele>
        <time>2020-07-16T06:19:29Z</time>
      </trkpt>
      <trkpt lat="44.93134" lon="6.48146">
        <ele>2510</ele>
        <time>2020-07-17T22:54:58Z</time>
      </trkpt>
      <trkpt lat="44.93149" lon="6.48158">
        <ele>2514</ele>
        <time>2020-07-17T22:55:21Z</time>
      </trkpt>
      <trkpt lat="44.9315" lon="6.48208">
        <ele>2507</ele>
        <time>2020-07-17T22:56:08Z</time>
      </trkpt>
      <trkpt lat="44.93159" lon="6.48234">
        <ele>2507</ele>
        <time>2020-07-17T22:56:36Z</time>
      </trkpt>
      <trkpt lat="44.93158" lon="6.48268">
        <ele>2499</ele>
        <time>2020-07-17T22:57:08Z</time>
      </trkpt>
      <trkpt lat="44.93175" lon="6.48331">
        <ele>2491</ele>
        <time>2020-07-17T22:58:11Z</time>
      </trkpt>
      <trkpt lat="44.93177" lon="6.48393">
        <ele>2480</ele>
        <time>2020-07-17T22:59:10Z</time>
      </trkpt>
      <trkpt lat="44.93167" lon="6.48365">
        <ele>2480</ele>
        <time>2020-07-17T22:59:40Z</time>
      </trkpt>
      <trkpt lat="44.93159" lon="6.48467">
        <ele>2456</ele>
        <time>2020-07-17T23:01:17Z</time>
      </trkpt>
      <trkpt lat="44.93136" lon="6.48394">
        <ele>2453</ele>
        <time>2020-07-17T23:02:32Z</time>
      </trkpt>
      <trkpt lat="44.93134" lon="6.48443">
        <ele>2443</ele>
        <time>2020-07-17T23:03:19Z</time>
      </trkpt>
      <trkpt lat="44.93115" lon="6.48506">
        <ele>2424</ele>
        <time>2020-07-17T23:04:23Z</time>
      </trkpt>
      <trkpt lat="44.93103" lon="6.48457">
        <ele>2421</ele>
        <time>2020-07-17T23:05:12Z</time>
      </trkpt>
      <trkpt lat="44.93067" lon="6.48515">
        <ele>2395</ele>
        <time>2020-07-17T23:06:25Z</time>
      </trkpt>
      <trkpt lat="44.93071" lon="6.48473">
        <ele>2399</ele>
        <time>2020-07-17T23:07:05Z</time>
      </trkpt>
      <trkpt lat="44.93052" lon="6.48506">
        <ele>2385</ele>
        <time>2020-07-17T23:07:45Z</time>
      </trkpt>
      <trkpt lat="44.93032" lon="6.48533">
        <ele>2374</ele>
        <time>2020-07-17T23:08:22Z</time>
      </trkpt>
      <trkpt lat="44.93017" lon="6.48564">
        <ele>2366</ele>
        <time>2020-07-17T23:08:58Z</time>
      </trkpt>
      <trkpt lat="44.93022" lon="6.48621">
        <ele>2368</ele>
        <time>2020-07-17T23:09:52Z</time>
      </trkpt>
      <trkpt lat="44.93018" lon="6.48629">
        <ele>2365</ele>
        <time>2020-07-17T23:10:01Z</time>
      </trkpt>
      <trkpt lat="44.93014" lon="6.48617">
        <ele>2363</ele>
        <time>2020-07-17T23:10:14Z</time>
      </trkpt>
      <trkpt lat="44.92997" lon="6.486">
        <ele>2354</ele>
        <time>2020-07-17T23:10:42Z</time>
      </trkpt>
      <trkpt lat="44.92979" lon="6.48593">
        <ele>2343</ele>
        <time>2020-07-17T23:11:06Z</time>
      </trkpt>
      <trkpt lat="44.92979" lon="6.48553">
        <ele>2341</ele>
        <time>2020-07-17T23:11:44Z</time>
      </trkpt>
      <trkpt lat="44.9297" lon="6.48575">
        <ele>2337</ele>
        <time>2020-07-17T23:12:08Z</time>
      </trkpt>
      <trkpt lat="44.92927" lon="6.4863">
        <ele>2313</ele>
        <time>2020-07-17T23:13:26Z</time>
      </trkpt>
      <trkpt lat="44.92934" lon="6.486">
        <ele>2316</ele>
        <time>2020-07-17T23:13:55Z</time>
      </trkpt>
      <trkpt lat="44.92942" lon="6.48552">
        <ele>2316</ele>
        <time>2020-07-17T23:14:42Z</time>
      </trkpt>
      <trkpt lat="44.92889" lon="6.48603">
        <ele>2286</ele>
        <time>2020-07-17T23:16:08Z</time>
      </trkpt>
      <trkpt lat="44.92883" lon="6.48626">
        <ele>2284</ele>
        <time>2020-07-17T23:16:31Z</time>
      </trkpt>
      <trkpt lat="44.92847" lon="6.48711">
        <ele>2259</ele>
        <time>2020-07-17T23:18:04Z</time>
      </trkpt>
      <trkpt lat="44.92861" lon="6.48718">
        <ele>2267</ele>
        <time>2020-07-17T23:18:24Z</time>
      </trkpt>
      <trkpt lat="44.92866" lon="6.48742">
        <ele>2267</ele>
        <time>2020-07-17T23:18:48Z</time>
      </trkpt>
      <trkpt lat="44.92843" lon="6.48736">
        <ele>2254</ele>
        <time>2020-07-17T23:19:19Z</time>
      </trkpt>
      <trkpt lat="44.92826" lon="6.48742">
        <ele>2242</ele>
        <time>2020-07-17T23:19:42Z</time>
      </trkpt>
      <trkpt lat="44.92816" lon="6.4872">
        <ele>2237</ele>
        <time>2020-07-17T23:20:07Z</time>
      </trkpt>
      <trkpt lat="44.92805" lon="6.48687">
        <ele>2234</ele>
        <time>2020-07-17T23:20:42Z</time>
      </trkpt>
      <trkpt lat="44.928" lon="6.48628">
        <ele>2230</ele>
        <time>2020-07-17T23:21:38Z</time>
      </trkpt>
      <trkpt lat="44.92807" lon="6.48604">
        <ele>2233</ele>
        <time>2020-07-17T23:22:02Z</time>
      </trkpt>
      <trkpt lat="44.92807" lon="6.48535">
        <ele>2236</ele>
        <time>2020-07-17T23:23:07Z</time>
      </trkpt>
      <trkpt lat="44.92783" lon="6.48555">
        <ele>2224</ele>
        <time>2020-07-17T23:23:45Z</time>
      </trkpt>
      <trkpt lat="44.92771" lon="6.48568">
        <ele>2217</ele>
        <time>2020-07-17T23:24:05Z</time>
      </trkpt>
      <trkpt lat="44.92769" lon="6.48575">
        <ele>2215</ele>
        <time>2020-07-17T23:24:12Z</time>
      </trkpt>
      <trkpt lat="44.9277" lon="6.48599">
        <ele>2213</ele>
        <time>2020-07-17T23:24:35Z</time>
      </trkpt>
      <trkpt lat="44.92759" lon="6.48588">
        <ele>2208</ele>
        <time>2020-07-17T23:24:53Z</time>
      </trkpt>
      <trkpt lat="44.92748" lon="6.48566">
        <ele>2208</ele>
        <time>2020-07-17T23:25:18Z</time>
      </trkpt>
      <trkpt lat="44.92746" lon="6.48593">
        <ele>2202</ele>
        <time>2020-07-17T23:25:44Z</time>
      </trkpt>
      <trkpt lat="44.92743" lon="6.48615">
        <ele>2199</ele>
        <time>2020-07-17T23:26:05Z</time>
      </trkpt>
      <trkpt lat="44.9273" lon="6.48635">
        <ele>2191</ele>
        <time>2020-07-17T23:26:31Z</time>
      </trkpt>
      <trkpt lat="44.92727" lon="6.48586">
        <ele>2196</ele>
        <time>2020-07-17T23:27:17Z</time>
      </trkpt>
      <trkpt lat="44.92722" lon="6.48575">
        <ele>2198</ele>
        <time>2020-07-17T23:27:29Z</time>
      </trkpt>
      <trkpt lat="44.92709" lon="6.48582">
        <ele>2192</ele>
        <time>2020-07-17T23:27:48Z</time>
      </trkpt>
      <trkpt lat="44.92684" lon="6.48584">
        <ele>2183</ele>
        <time>2020-07-17T23:28:21Z</time>
      </trkpt>
      <trkpt lat="44.9265" lon="6.48607">
        <ele>2169</ele>
        <time>2020-07-17T23:29:12Z</time>
      </trkpt>
      <trkpt lat="44.92619" lon="6.48623">
        <ele>2159</ele>
        <time>2020-07-17T23:29:56Z</time>
      </trkpt>
      <trkpt lat="44.92564" lon="6.48634">
        <ele>2148</ele>
        <time>2020-07-17T23:31:10Z</time>
      </trkpt>
      <trkpt lat="44.92614" lon="6.48682">
        <ele>2134</ele>
        <time>2020-07-17T23:32:31Z</time>
      </trkpt>
      <trkpt lat="44.92643" lon="6.487">
        <ele>2137</ele>
        <time>2020-07-17T23:33:13Z</time>
      </trkpt>
      <trkpt lat="44.92651" lon="6.48719">
        <ele>2134</ele>
        <time>2020-07-17T23:33:34Z</time>
      </trkpt>
      <trkpt lat="44.9268" lon="6.4875">
        <ele>2141</ele>
        <time>2020-07-17T23:34:22Z</time>
      </trkpt>
      <trkpt lat="44.92678" lon="6.48783">
        <ele>2133</ele>
        <time>2020-07-17T23:34:54Z</time>
      </trkpt>
      <trkpt lat="44.92667" lon="6.48801">
        <ele>2122</ele>
        <time>2020-07-17T23:35:16Z</time>
      </trkpt>
      <trkpt lat="44.9264" lon="6.48826">
        <ele>2106</ele>
        <time>2020-07-17T23:35:59Z</time>
      </trkpt>
      <trkpt lat="44.92605" lon="6.48849">
        <ele>2090</ele>
        <time>2020-07-17T23:36:51Z</time>
      </trkpt>
      <trkpt lat="44.92526" lon="6.48891">
        <ele>2062</ele>
        <time>2020-07-17T23:38:43Z</time>
      </trkpt>
      <trkpt lat="44.92513" lon="6.48904">
        <ele>2055</ele>
        <time>2020-07-17T23:39:04Z</time>
      </trkpt>
      <trkpt lat="44.92499" lon="6.48925">
        <ele>2047</ele>
        <time>2020-07-17T23:39:32Z</time>
      </trkpt>
      <trkpt lat="44.92474" lon="6.48934">
        <ele>2042</ele>
        <time>2020-07-17T23:40:06Z</time>
      </trkpt>
      <trkpt lat="44.92449" lon="6.48961">
        <ele>2033</ele>
        <time>2020-07-17T23:40:48Z</time>
      </trkpt>
      <trkpt lat="44.92425" lon="6.49035">
        <ele>2018</ele>
        <time>2020-07-17T23:42:05Z</time>
      </trkpt>
      <trkpt lat="44.92418" lon="6.49048">
        <ele>2015</ele>
        <time>2020-07-17T23:42:20Z</time>
      </trkpt>
      <trkpt lat="44.92417" lon="6.49064">
        <ele>2013</ele>
        <time>2020-07-17T23:42:36Z</time>
      </trkpt>
      <trkpt lat="44.92382" lon="6.4917">
        <ele>2004</ele>
        <time>2020-07-17T23:44:26Z</time>
      </trkpt>
      <trkpt lat="44.9236" lon="6.49222">
        <ele>1998</ele>
        <time>2020-07-17T23:45:23Z</time>
      </trkpt>
      <trkpt lat="44.92343" lon="6.49247">
        <ele>1992</ele>
        <time>2020-07-17T23:45:56Z</time>
      </trkpt>
      <trkpt lat="44.92326" lon="6.49279">
        <ele>1989</ele>
        <time>2020-07-17T23:46:34Z</time>
      </trkpt>
      <trkpt lat="44.92298" lon="6.49303">
        <ele>1984</ele>
        <time>2020-07-17T23:47:18Z</time>
      </trkpt>
      <trkpt lat="44.92272" lon="6.49307">
        <ele>1979</ele>
        <time>2020-07-17T23:47:53Z</time>
      </trkpt>
      <trkpt lat="44.92215" lon="6.49358">
        <ele>1967</ele>
        <time>2020-07-17T23:49:23Z</time>
      </trkpt>
      <trkpt lat="44.92171" lon="6.49402">
        <ele>1955</ele>
        <time>2020-07-17T23:50:35Z</time>
      </trkpt>
      <trkpt lat="44.92159" lon="6.49432">
        <ele>1951</ele>
        <time>2020-07-17T23:51:07Z</time>
      </trkpt>
      <trkpt lat="44.92139" lon="6.49456">
        <ele>1948</ele>
        <time>2020-07-17T23:51:42Z</time>
      </trkpt>
      <trkpt lat="44.92108" lon="6.49467">
        <ele>1939</ele>
        <time>2020-07-17T23:52:25Z</time>
      </trkpt>
      <trkpt lat="44.92066" lon="6.49494">
        <ele>1926</ele>
        <time>2020-07-17T23:53:26Z</time>
      </trkpt>
      <trkpt lat="44.91993" lon="6.49526">
        <ele>1910</ele>
        <time>2020-07-17T23:55:08Z</time>
      </trkpt>
      <trkpt lat="44.91952" lon="6.49534">
        <ele>1900</ele>
        <time>2020-07-17T23:56:04Z</time>
      </trkpt>
      <trkpt lat="44.91932" lon="6.49549">
        <ele>1895</ele>
        <time>2020-07-17T23:56:34Z</time>
      </trkpt>
      <trkpt lat="44.9191" lon="6.49558">
        <ele>1889</ele>
        <time>2020-07-17T23:57:04Z</time>
      </trkpt>
      <trkpt lat="44.91898" lon="6.49571">
        <ele>1887</ele>
        <time>2020-07-17T23:57:25Z</time>
      </trkpt>
      <trkpt lat="44.91879" lon="6.49582">
        <ele>1883</ele>
        <time>2020-07-17T23:57:52Z</time>
      </trkpt>
      <trkpt lat="44.91829" lon="6.49595">
        <ele>1871</ele>
        <time>2020-07-17T23:59:00Z</time>
      </trkpt>
      <trkpt lat="44.91797" lon="6.49595">
        <ele>1863</ele>
        <time>2020-07-17T23:59:43Z</time>
      </trkpt>
      <trkpt lat="44.91789" lon="6.49576">
        <ele>1861</ele>
        <time>2020-07-17T00:00:03Z</time>
      </trkpt>
      <trkpt lat="44.91787" lon="6.49558">
        <ele>1861</ele>
        <time>2020-07-17T00:00:21Z</time>
      </trkpt>
      <trkpt lat="44.91783" lon="6.49557">
        <ele>1860</ele>
        <time>2020-07-17T00:00:26Z</time>
      </trkpt>
      <trkpt lat="44.91774" lon="6.49592">
        <ele>1857</ele>
        <time>2020-07-17T00:01:01Z</time>
      </trkpt>
      <trkpt lat="44.91762" lon="6.49618">
        <ele>1855</ele>
        <time>2020-07-17T00:01:31Z</time>
      </trkpt>
      <trkpt lat="44.91745" lon="6.4964">
        <ele>1851</ele>
        <time>2020-07-17T00:02:01Z</time>
      </trkpt>
      <trkpt lat="44.91739" lon="6.49657">
        <ele>1850</ele>
        <time>2020-07-17T00:02:19Z</time>
      </trkpt>
      <trkpt lat="44.91728" lon="6.49671">
        <ele>1847</ele>
        <time>2020-07-17T00:02:39Z</time>
      </trkpt>
      <trkpt lat="44.91724" lon="6.4967">
        <ele>1846</ele>
        <time>2020-07-17T00:02:44Z</time>
      </trkpt>
      <trkpt lat="44.91722" lon="6.49663">
        <ele>1845</ele>
        <time>2020-07-17T00:02:52Z</time>
      </trkpt>
      <trkpt lat="44.91722" lon="6.49644">
        <ele>1845</ele>
        <time>2020-07-17T00:03:10Z</time>
      </trkpt>
      <trkpt lat="44.9172" lon="6.49617">
        <ele>1843</ele>
        <time>2020-07-17T00:03:35Z</time>
      </trkpt>
      <trkpt lat="44.91714" lon="6.49599">
        <ele>1841</ele>
        <time>2020-07-17T00:03:54Z</time>
      </trkpt>
      <trkpt lat="44.91714" lon="6.49573">
        <ele>1841</ele>
        <time>2020-07-17T00:04:19Z</time>
      </trkpt>
      <trkpt lat="44.91713" lon="6.49562">
        <ele>1842</ele>
        <time>2020-07-17T00:04:29Z</time>
      </trkpt>
      <trkpt lat="44.91711" lon="6.49558">
        <ele>1842</ele>
        <time>2020-07-17T00:04:34Z</time>
      </trkpt>
      <trkpt lat="44.91707" lon="6.49556">
        <ele>1841</ele>
        <time>2020-07-17T00:04:39Z</time>
      </trkpt>
      <trkpt lat="44.91704" lon="6.49562">
        <ele>1839</ele>
        <time>2020-07-17T00:04:46Z</time>
      </trkpt>
      <trkpt lat="44.91655" lon="6.49687">
        <ele>1826</ele>
        <time>2020-07-17T00:07:01Z</time>
      </trkpt>
      <trkpt lat="44.91637" lon="6.49714">
        <ele>1822</ele>
        <time>2020-07-17T00:07:36Z</time>
      </trkpt>
      <trkpt lat="44.9162" lon="6.49734">
        <ele>1818</ele>
        <time>2020-07-17T00:08:06Z</time>
      </trkpt>
      <trkpt lat="44.91615" lon="6.49742">
        <ele>1817</ele>
        <time>2020-07-17T00:08:16Z</time>
      </trkpt>
      <trkpt lat="44.91612" lon="6.49751">
        <ele>1817</ele>
        <time>2020-07-17T00:08:25Z</time>
      </trkpt>
      <trkpt lat="44.91609" lon="6.49756">
        <ele>1818</ele>
        <time>2020-07-17T00:08:32Z</time>
      </trkpt>
      <trkpt lat="44.91602" lon="6.49761">
        <ele>1816</ele>
        <time>2020-07-17T00:08:42Z</time>
      </trkpt>
      <trkpt lat="44.91561" lon="6.49775">
        <ele>1809</ele>
        <time>2020-07-17T00:09:38Z</time>
      </trkpt>
      <trkpt lat="44.91529" lon="6.49793">
        <ele>1806</ele>
        <time>2020-07-17T00:10:24Z</time>
      </trkpt>
      <trkpt lat="44.91509" lon="6.498">
        <ele>1803</ele>
        <time>2020-07-17T00:10:52Z</time>
      </trkpt>
      <trkpt lat="44.91507" lon="6.49797">
        <ele>1802</ele>
        <time>2020-07-17T00:10:56Z</time>
      </trkpt>
      <trkpt lat="44.9152" lon="6.49751">
        <ele>1795</ele>
        <time>2020-07-17T00:11:42Z</time>
      </trkpt>
      <trkpt lat="44.91519" lon="6.49747">
        <ele>1794</ele>
        <time>2020-07-17T00:11:46Z</time>
      </trkpt>
      <trkpt lat="44.91516" lon="6.49745">
        <ele>1793</ele>
        <time>2020-07-17T00:11:51Z</time>
      </trkpt>
      <trkpt lat="44.91494" lon="6.49766">
        <ele>1793</ele>
        <time>2020-07-17T00:12:26Z</time>
      </trkpt>
      <trkpt lat="44.91478" lon="6.49778">
        <ele>1792</ele>
        <time>2020-07-17T00:12:51Z</time>
      </trkpt>
      <trkpt lat="44.91455" lon="6.49779">
        <ele>1788</ele>
        <time>2020-07-17T00:13:21Z</time>
      </trkpt>
      <trkpt lat="44.91443" lon="6.49784">
        <ele>1786</ele>
        <time>2020-07-17T00:13:38Z</time>
      </trkpt>
      <trkpt lat="44.91433" lon="6.4979">
        <ele>1785</ele>
        <time>2020-07-17T00:13:52Z</time>
      </trkpt>
      <trkpt lat="44.9143" lon="6.49791">
        <ele>1784</ele>
        <time>2020-07-17T00:13:57Z</time>
      </trkpt>
      <trkpt lat="44.91411" lon="6.49796">
        <ele>1781</ele>
        <time>2020-07-17T00:14:22Z</time>
      </trkpt>
      <trkpt lat="44.91378" lon="6.49799">
        <ele>1777</ele>
        <time>2020-07-17T00:15:06Z</time>
      </trkpt>
      <trkpt lat="44.91372" lon="6.49802">
        <ele>1777</ele>
        <time>2020-07-17T00:15:15Z</time>
      </trkpt>
      <trkpt lat="44.91361" lon="6.49811">
        <ele>1777</ele>
        <time>2020-07-17T00:15:32Z</time>
      </trkpt>
      <trkpt lat="44.91355" lon="6.49822">
        <ele>1777</ele>
        <time>2020-07-17T00:15:45Z</time>
      </trkpt>
      <trkpt lat="44.91342" lon="6.49829">
        <ele>1777</ele>
        <time>2020-07-17T00:16:04Z</time>
      </trkpt>
      <trkpt lat="44.9131" lon="6.49837">
        <ele>1773</ele>
        <time>2020-07-17T00:16:47Z</time>
      </trkpt>
      <trkpt lat="44.91269" lon="6.49832">
        <ele>1766</ele>
        <time>2020-07-17T00:17:42Z</time>
      </trkpt>
      <trkpt lat="44.91257" lon="6.49833">
        <ele>1764</ele>
        <time>2020-07-17T00:17:58Z</time>
      </trkpt>
      <trkpt lat="44.91237" lon="6.49831">
        <ele>1762</ele>
        <time>2020-07-17T00:18:25Z</time>
      </trkpt>
      <trkpt lat="44.91216" lon="6.49811">
        <ele>1758</ele>
        <time>2020-07-17T00:18:58Z</time>
      </trkpt>
      <trkpt lat="44.912" lon="6.49802">
        <ele>1756</ele>
        <time>2020-07-17T00:19:21Z</time>
      </trkpt>
      <trkpt lat="44.91188" lon="6.49799">
        <ele>1755</ele>
        <time>2020-07-17T00:19:38Z</time>
      </trkpt>
      <trkpt lat="44.91092" lon="6.4983">
        <ele>1753</ele>
        <time>2020-07-17T00:21:49Z</time>
      </trkpt>
      <trkpt lat="44.9108" lon="6.49829">
        <ele>1753</ele>
        <time>2020-07-17T00:22:05Z</time>
      </trkpt>
      <trkpt lat="44.91057" lon="6.49819">
        <ele>1755</ele>
        <time>2020-07-17T00:22:37Z</time>
      </trkpt>
      <trkpt lat="44.91029" lon="6.49798">
        <ele>1756</ele>
        <time>2020-07-17T00:23:20Z</time>
      </trkpt>
      <trkpt lat="44.91021" lon="6.49789">
        <ele>1756</ele>
        <time>2020-07-17T00:23:33Z</time>
      </trkpt>
      <trkpt lat="44.90998" lon="6.49769">
        <ele>1756</ele>
        <time>2020-07-17T00:24:09Z</time>
      </trkpt>
      <trkpt lat="44.90975" lon="6.49755">
        <ele>1756</ele>
        <time>2020-07-17T00:24:43Z</time>
      </trkpt>
      <trkpt lat="44.90961" lon="6.49739">
        <ele>1756</ele>
        <time>2020-07-17T00:25:07Z</time>
      </trkpt>
      <trkpt lat="44.90944" lon="6.49715">
        <ele>1754</ele>
        <time>2020-07-17T00:25:39Z</time>
      </trkpt>
      <trkpt lat="44.90928" lon="6.49697">
        <ele>1752</ele>
        <time>2020-07-17T00:26:06Z</time>
      </trkpt>
      <trkpt lat="44.90911" lon="6.49674">
        <ele>1749</ele>
        <time>2020-07-17T00:26:38Z</time>
      </trkpt>
      <trkpt lat="44.90885" lon="6.4965">
        <ele>1747</ele>
        <time>2020-07-17T00:27:19Z</time>
      </trkpt>
      <trkpt lat="44.90845" lon="6.49632">
        <ele>1746</ele>
        <time>2020-07-17T00:28:15Z</time>
      </trkpt>
      <trkpt lat="44.9082" lon="6.49612">
        <ele>1746</ele>
        <time>2020-07-17T00:28:53Z</time>
      </trkpt>
      <trkpt lat="44.90768" lon="6.49563">
        <ele>1744</ele>
        <time>2020-07-17T00:30:17Z</time>
      </trkpt>
      <trkpt lat="44.90731" lon="6.49555">
        <ele>1742</ele>
        <time>2020-07-17T00:31:07Z</time>
      </trkpt>
      <trkpt lat="44.90714" lon="6.49551">
        <ele>1741</ele>
        <time>2020-07-17T00:31:30Z</time>
      </trkpt>
      <trkpt lat="44.90676" lon="6.49535">
        <ele>1737</ele>
        <time>2020-07-17T00:32:23Z</time>
      </trkpt>
      <trkpt lat="44.90658" lon="6.49535">
        <ele>1736</ele>
        <time>2020-07-17T00:32:47Z</time>
      </trkpt>
      <trkpt lat="44.90635" lon="6.49527">
        <ele>1736</ele>
        <time>2020-07-17T00:33:18Z</time>
      </trkpt>
      <trkpt lat="44.90623" lon="6.49527">
        <ele>1736</ele>
        <time>2020-07-17T00:33:34Z</time>
      </trkpt>
      <trkpt lat="44.90609" lon="6.49534">
        <ele>1737</ele>
        <time>2020-07-17T00:33:54Z</time>
      </trkpt>
      <trkpt lat="44.90593" lon="6.49544">
        <ele>1738</ele>
        <time>2020-07-17T00:34:18Z</time>
      </trkpt>
      <trkpt lat="44.90572" lon="6.49544">
        <ele>1738</ele>
        <time>2020-07-17T00:34:46Z</time>
      </trkpt>
      <trkpt lat="44.90551" lon="6.4954">
        <ele>1738</ele>
        <time>2020-07-17T00:35:14Z</time>
      </trkpt>
      <trkpt lat="44.90527" lon="6.49538">
        <ele>1737</ele>
        <time>2020-07-17T00:35:46Z</time>
      </trkpt>
      <trkpt lat="44.90504" lon="6.49534">
        <ele>1737</ele>
        <time>2020-07-17T00:36:17Z</time>
      </trkpt>
      <trkpt lat="44.90452" lon="6.49529">
        <ele>1735</ele>
        <time>2020-07-17T00:37:26Z</time>
      </trkpt>
      <trkpt lat="44.90429" lon="6.49518">
        <ele>1732</ele>
        <time>2020-07-17T00:37:59Z</time>
      </trkpt>
      <trkpt lat="44.90376" lon="6.49467">
        <ele>1730</ele>
        <time>2020-07-17T00:39:24Z</time>
      </trkpt>
      <trkpt lat="44.90358" lon="6.49465">
        <ele>1732</ele>
        <time>2020-07-17T00:39:48Z</time>
      </trkpt>
      <trkpt lat="44.90348" lon="6.49459">
        <ele>1732</ele>
        <time>2020-07-17T00:40:03Z</time>
      </trkpt>
      <trkpt lat="44.90291" lon="6.49417">
        <ele>1731</ele>
        <time>2020-07-17T00:41:29Z</time>
      </trkpt>
      <trkpt lat="44.90256" lon="6.49374">
        <ele>1728</ele>
        <time>2020-07-17T00:42:31Z</time>
      </trkpt>
      <trkpt lat="44.90237" lon="6.49348">
        <ele>1724</ele>
        <time>2020-07-17T00:43:06Z</time>
      </trkpt>
      <trkpt lat="44.90211" lon="6.49327">
        <ele>1722</ele>
        <time>2020-07-17T00:43:46Z</time>
      </trkpt>
      <trkpt lat="44.90165" lon="6.49302">
        <ele>1721</ele>
        <time>2020-07-17T00:44:52Z</time>
      </trkpt>
      <trkpt lat="44.90151" lon="6.49298">
        <ele>1721</ele>
        <time>2020-07-17T00:45:11Z</time>
      </trkpt>
      <trkpt lat="44.90138" lon="6.49294">
        <ele>1721</ele>
        <time>2020-07-17T00:45:29Z</time>
      </trkpt>
      <trkpt lat="44.90106" lon="6.4929">
        <ele>1720</ele>
        <time>2020-07-17T00:46:11Z</time>
      </trkpt>
      <trkpt lat="44.89996" lon="6.49263">
        <ele>1721</ele>
        <time>2020-07-17T00:48:40Z</time>
      </trkpt>
      <trkpt lat="44.89958" lon="6.49237">
        <ele>1718</ele>
        <time>2020-07-17T00:49:37Z</time>
      </trkpt>
      <trkpt lat="44.89944" lon="6.49218">
        <ele>1716</ele>
        <time>2020-07-17T00:50:03Z</time>
      </trkpt>
      <trkpt lat="44.89893" lon="6.49213">
        <ele>1716</ele>
        <time>2020-07-17T00:51:11Z</time>
      </trkpt>
      <trkpt lat="44.898" lon="6.49195">
        <ele>1713</ele>
        <time>2020-07-17T00:53:16Z</time>
      </trkpt>
      <trkpt lat="44.89738" lon="6.49175">
        <ele>1711</ele>
        <time>2020-07-17T00:54:41Z</time>
      </trkpt>
      <trkpt lat="44.89707" lon="6.49167">
        <ele>1710</ele>
        <time>2020-07-17T00:55:23Z</time>
      </trkpt>
      <trkpt lat="44.89677" lon="6.49167">
        <ele>1711</ele>
        <time>2020-07-17T00:56:03Z</time>
      </trkpt>
      <trkpt lat="44.89627" lon="6.49155">
        <ele>1714</ele>
        <time>2020-07-17T00:57:11Z</time>
      </trkpt>
      <trkpt lat="44.89604" lon="6.49145">
        <ele>1714</ele>
        <time>2020-07-17T00:57:43Z</time>
      </trkpt>
      <trkpt lat="44.89593" lon="6.49138">
        <ele>1714</ele>
        <time>2020-07-17T00:57:59Z</time>
      </trkpt>
      <trkpt lat="44.89573" lon="6.49117">
        <ele>1713</ele>
        <time>2020-07-17T00:58:32Z</time>
      </trkpt>
      <trkpt lat="44.89562" lon="6.49111">
        <ele>1712</ele>
        <time>2020-07-17T00:58:48Z</time>
      </trkpt>
      <trkpt lat="44.89538" lon="6.49108">
        <ele>1712</ele>
        <time>2020-07-17T00:59:20Z</time>
      </trkpt>
      <trkpt lat="44.89508" lon="6.49095">
        <ele>1709</ele>
        <time>2020-07-17T01:00:02Z</time>
      </trkpt>
      <trkpt lat="44.89493" lon="6.49096">
        <ele>1709</ele>
        <time>2020-07-17T01:00:22Z</time>
      </trkpt>
      <trkpt lat="44.89461" lon="6.49104">
        <ele>1712</ele>
        <time>2020-07-17T01:01:05Z</time>
      </trkpt>
      <trkpt lat="44.89325" lon="6.49086">
        <ele>1707</ele>
        <time>2020-07-17T01:04:08Z</time>
      </trkpt>
      <trkpt lat="44.89286" lon="6.49069">
        <ele>1702</ele>
        <time>2020-07-17T01:05:02Z</time>
      </trkpt>
      <trkpt lat="44.89268" lon="6.4905">
        <ele>1698</ele>
        <time>2020-07-17T01:05:32Z</time>
      </trkpt>
      <trkpt lat="44.89256" lon="6.49043">
        <ele>1697</ele>
        <time>2020-07-17T01:05:50Z</time>
      </trkpt>
      <trkpt lat="44.89234" lon="6.49045">
        <ele>1693</ele>
        <time>2020-07-17T01:06:19Z</time>
      </trkpt>
      <trkpt lat="44.89221" lon="6.49049">
        <ele>1691</ele>
        <time>2020-07-17T01:06:37Z</time>
      </trkpt>
      <trkpt lat="44.89197" lon="6.49041">
        <ele>1686</ele>
        <time>2020-07-17T01:07:10Z</time>
      </trkpt>
      <trkpt lat="44.89175" lon="6.49048">
        <ele>1682</ele>
        <time>2020-07-17T01:07:40Z</time>
      </trkpt>
      <trkpt lat="44.89156" lon="6.4906">
        <ele>1681</ele>
        <time>2020-07-17T01:08:07Z</time>
      </trkpt>
      <trkpt lat="44.89135" lon="6.49083">
        <ele>1680</ele>
        <time>2020-07-17T01:08:43Z</time>
      </trkpt>
      <trkpt lat="44.89094" lon="6.49097">
        <ele>1678</ele>
        <time>2020-07-17T01:09:39Z</time>
      </trkpt>
      <trkpt lat="44.89055" lon="6.49094">
        <ele>1671</ele>
        <time>2020-07-17T01:10:31Z</time>
      </trkpt>
      <trkpt lat="44.89003" lon="6.49081">
        <ele>1661</ele>
        <time>2020-07-17T01:11:42Z</time>
      </trkpt>
      <trkpt lat="44.88977" lon="6.49077">
        <ele>1658</ele>
        <time>2020-07-17T01:12:17Z</time>
      </trkpt>
      <trkpt lat="44.88934" lon="6.49077">
        <ele>1654</ele>
        <time>2020-07-17T01:13:14Z</time>
      </trkpt>
      <trkpt lat="44.88853" lon="6.49056">
        <ele>1648</ele>
        <time>2020-07-17T01:15:04Z</time>
      </trkpt>
      <trkpt lat="44.88821" lon="6.49038">
        <ele>1642</ele>
        <time>2020-07-17T01:15:50Z</time>
      </trkpt>
      <trkpt lat="44.88716" lon="6.49001">
        <ele>1623</ele>
        <time>2020-07-17T01:18:14Z</time>
      </trkpt>
      <trkpt lat="44.88694" lon="6.48996">
        <ele>1620</ele>
        <time>2020-07-17T01:18:44Z</time>
      </trkpt>
      <trkpt lat="44.88661" lon="6.48981">
        <ele>1616</ele>
        <time>2020-07-17T01:19:30Z</time>
      </trkpt>
      <trkpt lat="44.88608" lon="6.48967">
        <ele>1612</ele>
        <time>2020-07-17T01:20:42Z</time>
      </trkpt>
      <trkpt lat="44.88592" lon="6.48969">
        <ele>1612</ele>
        <time>2020-07-17T01:21:04Z</time>
      </trkpt>
      <trkpt lat="44.88553" lon="6.48966">
        <ele>1613</ele>
        <time>2020-07-17T01:21:56Z</time>
      </trkpt>
      <trkpt lat="44.88492" lon="6.48933">
        <ele>1599</ele>
        <time>2020-07-17T01:23:23Z</time>
      </trkpt>
      <trkpt lat="44.88424" lon="6.48889">
        <ele>1584</ele>
        <time>2020-07-17T01:25:03Z</time>
      </trkpt>
      <trkpt lat="44.88392" lon="6.4888">
        <ele>1579</ele>
        <time>2020-07-17T01:25:46Z</time>
      </trkpt>
      <trkpt lat="44.88374" lon="6.48878">
        <ele>1576</ele>
        <time>2020-07-17T01:26:11Z</time>
      </trkpt>
      <trkpt lat="44.8834" lon="6.48889">
        <ele>1577</ele>
        <time>2020-07-17T01:26:57Z</time>
      </trkpt>
      <trkpt lat="44.88318" lon="6.48884">
        <ele>1573</ele>
        <time>2020-07-17T01:27:27Z</time>
      </trkpt>
      <trkpt lat="44.88277" lon="6.48881">
        <ele>1569</ele>
        <time>2020-07-17T01:28:22Z</time>
      </trkpt>
      <trkpt lat="44.88276" lon="6.48879">
        <ele>1568</ele>
        <time>2020-07-17T01:28:24Z</time>
      </trkpt>
      <trkpt lat="44.88272" lon="6.48878">
        <ele>1567</ele>
        <time>2020-07-17T01:28:29Z</time>
      </trkpt>
      <trkpt lat="44.88255" lon="6.4888">
        <ele>1566</ele>
        <time>2020-07-17T01:28:52Z</time>
      </trkpt>
      <trkpt lat="44.88227" lon="6.48879">
        <ele>1563</ele>
        <time>2020-07-17T01:29:30Z</time>
      </trkpt>
      <trkpt lat="44.88173" lon="6.4887">
        <ele>1554</ele>
        <time>2020-07-17T01:30:42Z</time>
      </trkpt>
      <trkpt lat="44.88098" lon="6.4888">
        <ele>1547</ele>
        <time>2020-07-17T01:32:23Z</time>
      </trkpt>
      <trkpt lat="44.88077" lon="6.48881">
        <ele>1544</ele>
        <time>2020-07-17T01:32:51Z</time>
      </trkpt>
      <trkpt lat="44.88054" lon="6.48887">
        <ele>1542</ele>
        <time>2020-07-17T01:33:22Z</time>
      </trkpt>
      <trkpt lat="44.88025" lon="6.48902">
        <ele>1541</ele>
        <time>2020-07-17T01:34:03Z</time>
      </trkpt>
      <trkpt lat="44.87996" lon="6.48909">
        <ele>1537</ele>
        <time>2020-07-17T01:34:42Z</time>
      </trkpt>
      <trkpt lat="44.87987" lon="6.48926">
        <ele>1539</ele>
        <time>2020-07-17T01:35:02Z</time>
      </trkpt>
      <trkpt lat="44.87981" lon="6.48931">
        <ele>1539</ele>
        <time>2020-07-17T01:35:12Z</time>
      </trkpt>
      <trkpt lat="44.87971" lon="6.48932">
        <ele>1535</ele>
        <time>2020-07-17T01:35:25Z</time>
      </trkpt>
      <trkpt lat="44.87966" lon="6.48926">
        <ele>1532</ele>
        <time>2020-07-17T01:35:34Z</time>
      </trkpt>
      <trkpt lat="44.87965" lon="6.48921">
        <ele>1530</ele>
        <time>2020-07-17T01:35:39Z</time>
      </trkpt>
      <trkpt lat="44.87933" lon="6.48943">
        <ele>1524</ele>
        <time>2020-07-17T01:36:26Z</time>
      </trkpt>
      <trkpt lat="44.87918" lon="6.48956">
        <ele>1522</ele>
        <time>2020-07-17T01:36:50Z</time>
      </trkpt>
      <trkpt lat="44.87897" lon="6.48982">
        <ele>1518</ele>
        <time>2020-07-17T01:37:27Z</time>
      </trkpt>
      <trkpt lat="44.8788" lon="6.49011">
        <ele>1518</ele>
        <time>2020-07-17T01:38:03Z</time>
      </trkpt>
      <trkpt lat="44.87861" lon="6.49061">
        <ele>1521</ele>
        <time>2020-07-17T01:38:56Z</time>
      </trkpt>
      <trkpt lat="44.87845" lon="6.49086">
        <ele>1521</ele>
        <time>2020-07-17T01:39:28Z</time>
      </trkpt>
      <trkpt lat="44.87838" lon="6.49106">
        <ele>1523</ele>
        <time>2020-07-17T01:39:49Z</time>
      </trkpt>
      <trkpt lat="44.87831" lon="6.49113">
        <ele>1522</ele>
        <time>2020-07-17T01:40:01Z</time>
      </trkpt>
      <trkpt lat="44.87825" lon="6.49115">
        <ele>1520</ele>
        <time>2020-07-17T01:40:09Z</time>
      </trkpt>
      <trkpt lat="44.87819" lon="6.49115">
        <ele>1518</ele>
        <time>2020-07-17T01:40:17Z</time>
      </trkpt>
      <trkpt lat="44.87805" lon="6.49125">
        <ele>1514</ele>
        <time>2020-07-17T01:40:38Z</time>
      </trkpt>
      <trkpt lat="44.87766" lon="6.49145">
        <ele>1504</ele>
        <time>2020-07-17T01:41:33Z</time>
      </trkpt>
      <trkpt lat="44.87731" lon="6.49172">
        <ele>1497</ele>
        <time>2020-07-17T01:42:26Z</time>
      </trkpt>
      <trkpt lat="44.87694" lon="6.49191">
        <ele>1484</ele>
        <time>2020-07-17T01:43:19Z</time>
      </trkpt>
      <trkpt lat="44.8769" lon="6.49198">
        <ele>1484</ele>
        <time>2020-07-17T01:43:27Z</time>
      </trkpt>
      <trkpt lat="44.87686" lon="6.49202">
        <ele>1483</ele>
        <time>2020-07-17T01:43:34Z</time>
      </trkpt>
      <trkpt lat="44.8767" lon="6.4921">
        <ele>1476</ele>
        <time>2020-07-17T01:43:57Z</time>
      </trkpt>
      <trkpt lat="44.87653" lon="6.49223">
        <ele>1470</ele>
        <time>2020-07-17T01:44:22Z</time>
      </trkpt>
      <trkpt lat="44.87646" lon="6.49229">
        <ele>1468</ele>
        <time>2020-07-17T01:44:33Z</time>
      </trkpt>
      <trkpt lat="44.87642" lon="6.49237">
        <ele>1467</ele>
        <time>2020-07-17T01:44:43Z</time>
      </trkpt>
      <trkpt lat="44.87633" lon="6.49265">
        <ele>1469</ele>
        <time>2020-07-17T01:45:12Z</time>
      </trkpt>
      <trkpt lat="44.87625" lon="6.49279">
        <ele>1467</ele>
        <time>2020-07-17T01:45:29Z</time>
      </trkpt>
      <trkpt lat="44.87615" lon="6.49292">
        <ele>1465</ele>
        <time>2020-07-17T01:45:47Z</time>
      </trkpt>
      <trkpt lat="44.87598" lon="6.49324">
        <ele>1464</ele>
        <time>2020-07-17T01:46:25Z</time>
      </trkpt>
      <trkpt lat="44.87571" lon="6.49359">
        <ele>1464</ele>
        <time>2020-07-17T01:47:14Z</time>
      </trkpt>
      <trkpt lat="44.87557" lon="6.49371">
        <ele>1466</ele>
        <time>2020-07-17T01:47:35Z</time>
      </trkpt>
      <trkpt lat="44.87537" lon="6.49366">
        <ele>1458</ele>
        <time>2020-07-17T01:48:03Z</time>
      </trkpt>
      <trkpt lat="44.87533" lon="6.49358">
        <ele>1454</ele>
        <time>2020-07-17T01:48:12Z</time>
      </trkpt>
      <trkpt lat="44.87515" lon="6.49352">
        <ele>1446</ele>
        <time>2020-07-17T01:48:37Z</time>
      </trkpt>
      <trkpt lat="44.87505" lon="6.4935">
        <ele>1443</ele>
        <time>2020-07-17T01:48:50Z</time>
      </trkpt>
      <trkpt lat="44.87478" lon="6.49333">
        <ele>1430</ele>
        <time>2020-07-17T01:49:29Z</time>
      </trkpt>
      <trkpt lat="44.87456" lon="6.49322">
        <ele>1423</ele>
        <time>2020-07-17T01:50:01Z</time>
      </trkpt>
      <trkpt lat="44.87444" lon="6.4932">
        <ele>1421</ele>
        <time>2020-07-17T01:50:17Z</time>
      </trkpt>
      <trkpt lat="44.87437" lon="6.49319">
        <ele>1419</ele>
        <time>2020-07-17T01:50:26Z</time>
      </trkpt>
      <trkpt lat="44.87432" lon="6.49322">
        <ele>1420</ele>
        <time>2020-07-17T01:50:33Z</time>
      </trkpt>
      <trkpt lat="44.87424" lon="6.49331">
        <ele>1421</ele>
        <time>2020-07-17T01:50:47Z</time>
      </trkpt>
      <trkpt lat="44.87401" lon="6.49377">
        <ele>1435</ele>
        <time>2020-07-17T01:51:40Z</time>
      </trkpt>
      <trkpt lat="44.87364" lon="6.49421">
        <ele>1445</ele>
        <time>2020-07-17T01:52:45Z</time>
      </trkpt>
      <trkpt lat="44.87362" lon="6.49423">
        <ele>1445</ele>
        <time>2020-07-17T01:52:48Z</time>
      </trkpt>
      <trkpt lat="44.87358" lon="6.49426">
        <ele>1445</ele>
        <time>2020-07-17T01:52:54Z</time>
      </trkpt>
      <trkpt lat="44.87345" lon="6.49424">
        <ele>1443</ele>
        <time>2020-07-17T01:53:12Z</time>
      </trkpt>
      <trkpt lat="44.87339" lon="6.49414">
        <ele>1438</ele>
        <time>2020-07-17T01:53:24Z</time>
      </trkpt>
      <trkpt lat="44.87335" lon="6.49406">
        <ele>1435</ele>
        <time>2020-07-17T01:53:33Z</time>
      </trkpt>
      <trkpt lat="44.87331" lon="6.49402">
        <ele>1433</ele>
        <time>2020-07-17T01:53:40Z</time>
      </trkpt>
      <trkpt lat="44.87304" lon="6.49386">
        <ele>1431</ele>
        <time>2020-07-17T01:54:19Z</time>
      </trkpt>
      <trkpt lat="44.87288" lon="6.49373">
        <ele>1429</ele>
        <time>2020-07-17T01:54:44Z</time>
      </trkpt>
      <trkpt lat="44.87255" lon="6.49358">
        <ele>1429</ele>
        <time>2020-07-17T01:55:30Z</time>
      </trkpt>
      <trkpt lat="44.87232" lon="6.49337">
        <ele>1423</ele>
        <time>2020-07-17T01:56:06Z</time>
      </trkpt>
      <trkpt lat="44.87209" lon="6.4932">
        <ele>1419</ele>
        <time>2020-07-17T01:56:41Z</time>
      </trkpt>
      <trkpt lat="44.87203" lon="6.49318">
        <ele>1418</ele>
        <time>2020-07-17T01:56:49Z</time>
      </trkpt>
      <trkpt lat="44.87136" lon="6.49331">
        <ele>1421</ele>
        <time>2020-07-17T01:58:19Z</time>
      </trkpt>
      <trkpt lat="44.87125" lon="6.4933">
        <ele>1420</ele>
        <time>2020-07-17T01:58:34Z</time>
      </trkpt>
      <trkpt lat="44.87095" lon="6.49318">
        <ele>1414</ele>
        <time>2020-07-17T01:59:16Z</time>
      </trkpt>
      <trkpt lat="44.87077" lon="6.49313">
        <ele>1412</ele>
        <time>2020-07-17T01:59:40Z</time>
      </trkpt>
      <trkpt lat="44.87068" lon="6.49312">
        <ele>1411</ele>
        <time>2020-07-17T01:59:52Z</time>
      </trkpt>
      <trkpt lat="44.87017" lon="6.4933">
        <ele>1416</ele>
        <time>2020-07-17T02:01:02Z</time>
      </trkpt>
      <trkpt lat="44.87004" lon="6.49329">
        <ele>1415</ele>
        <time>2020-07-17T02:01:20Z</time>
      </trkpt>
      <trkpt lat="44.86977" lon="6.49328">
        <ele>1414</ele>
        <time>2020-07-17T02:01:56Z</time>
      </trkpt>
      <trkpt lat="44.86918" lon="6.49326">
        <ele>1412</ele>
        <time>2020-07-17T02:03:15Z</time>
      </trkpt>
      <trkpt lat="44.86899" lon="6.49323">
        <ele>1410</ele>
        <time>2020-07-17T02:03:40Z</time>
      </trkpt>
      <trkpt lat="44.86874" lon="6.49316">
        <ele>1405</ele>
        <time>2020-07-17T02:04:14Z</time>
      </trkpt>
      <trkpt lat="44.86856" lon="6.49314">
        <ele>1403</ele>
        <time>2020-07-17T02:04:38Z</time>
      </trkpt>
      <trkpt lat="44.86846" lon="6.49314">
        <ele>1402</ele>
        <time>2020-07-17T02:04:52Z</time>
      </trkpt>
      <trkpt lat="44.86837" lon="6.4931">
        <ele>1400</ele>
        <time>2020-07-17T02:05:04Z</time>
      </trkpt>
      <trkpt lat="44.86803" lon="6.49347">
        <ele>1397</ele>
        <time>2020-07-17T02:06:02Z</time>
      </trkpt>
      <trkpt lat="44.8678" lon="6.49372">
        <ele>1394</ele>
        <time>2020-07-17T02:06:40Z</time>
      </trkpt>
      <trkpt lat="44.86755" lon="6.49404">
        <ele>1394</ele>
        <time>2020-07-17T02:07:25Z</time>
      </trkpt>
      <trkpt lat="44.86742" lon="6.49426">
        <ele>1394</ele>
        <time>2020-07-17T02:07:52Z</time>
      </trkpt>
      <trkpt lat="44.86707" lon="6.49451">
        <ele>1388</ele>
        <time>2020-07-17T02:08:45Z</time>
      </trkpt>
      <trkpt lat="44.86672" lon="6.49499">
        <ele>1388</ele>
        <time>2020-07-17T02:09:50Z</time>
      </trkpt>
      <trkpt lat="44.86663" lon="6.49509">
        <ele>1388</ele>
        <time>2020-07-17T02:10:05Z</time>
      </trkpt>
      <trkpt lat="44.86656" lon="6.49513">
        <ele>1389</ele>
        <time>2020-07-17T02:10:15Z</time>
      </trkpt>
      <trkpt lat="44.86646" lon="6.49514">
        <ele>1388</ele>
        <time>2020-07-17T02:10:29Z</time>
      </trkpt>
      <trkpt lat="44.86641" lon="6.49509">
        <ele>1387</ele>
        <time>2020-07-17T02:10:37Z</time>
      </trkpt>
      <trkpt lat="44.86642" lon="6.49499">
        <ele>1384</ele>
        <time>2020-07-17T02:10:46Z</time>
      </trkpt>
      <trkpt lat="44.86646" lon="6.49491">
        <ele>1382</ele>
        <time>2020-07-17T02:10:56Z</time>
      </trkpt>
      <trkpt lat="44.86655" lon="6.49485">
        <ele>1382</ele>
        <time>2020-07-17T02:11:09Z</time>
      </trkpt>
      <trkpt lat="44.86667" lon="6.49481">
        <ele>1382</ele>
        <time>2020-07-17T02:11:25Z</time>
      </trkpt>
      <trkpt lat="44.86674" lon="6.49473">
        <ele>1382</ele>
        <time>2020-07-17T02:11:37Z</time>
      </trkpt>
      <trkpt lat="44.86681" lon="6.49462">
        <ele>1382</ele>
        <time>2020-07-17T02:11:51Z</time>
      </trkpt>
      <trkpt lat="44.86678" lon="6.49451">
        <ele>1378</ele>
        <time>2020-07-17T02:12:02Z</time>
      </trkpt>
      <trkpt lat="44.86644" lon="6.49456">
        <ele>1374</ele>
        <time>2020-07-17T02:12:48Z</time>
      </trkpt>
      <trkpt lat="44.86616" lon="6.49456">
        <ele>1371</ele>
        <time>2020-07-17T02:13:25Z</time>
      </trkpt>
      <trkpt lat="44.86611" lon="6.49456">
        <ele>1371</ele>
        <time>2020-07-17T02:13:32Z</time>
      </trkpt>
      <trkpt lat="44.86593" lon="6.49448">
        <ele>1367</ele>
        <time>2020-07-17T02:13:57Z</time>
      </trkpt>
      <trkpt lat="44.8652" lon="6.49385">
        <ele>1352</ele>
        <time>2020-07-17T02:15:52Z</time>
      </trkpt>
      <trkpt lat="44.86503" lon="6.49379">
        <ele>1351</ele>
        <time>2020-07-17T02:16:15Z</time>
      </trkpt>
      <trkpt lat="44.86492" lon="6.49381">
        <ele>1351</ele>
        <time>2020-07-17T02:16:30Z</time>
      </trkpt>
      <trkpt lat="44.86488" lon="6.49376">
        <ele>1349</ele>
        <time>2020-07-17T02:16:37Z</time>
      </trkpt>
      <trkpt lat="44.8648" lon="6.49371">
        <ele>1347</ele>
        <time>2020-07-17T02:16:49Z</time>
      </trkpt>
      <trkpt lat="44.86471" lon="6.49356">
        <ele>1343</ele>
        <time>2020-07-17T02:17:07Z</time>
      </trkpt>
      <trkpt lat="44.86457" lon="6.49352">
        <ele>1341</ele>
        <time>2020-07-17T02:17:26Z</time>
      </trkpt>
      <trkpt lat="44.8642" lon="6.49333">
        <ele>1332</ele>
        <time>2020-07-17T02:18:19Z</time>
      </trkpt>
      <trkpt lat="44.86403" lon="6.49331">
        <ele>1329</ele>
        <time>2020-07-17T02:18:41Z</time>
      </trkpt>
      <trkpt lat="44.86363" lon="6.49352">
        <ele>1327</ele>
        <time>2020-07-17T02:19:38Z</time>
      </trkpt>
      <trkpt lat="44.86333" lon="6.49355">
        <ele>1323</ele>
        <time>2020-07-17T02:20:19Z</time>
      </trkpt>
      <trkpt lat="44.86235" lon="6.4934">
        <ele>1308</ele>
        <time>2020-07-17T02:22:30Z</time>
      </trkpt>
      <trkpt lat="44.86217" lon="6.49338">
        <ele>1306</ele>
        <time>2020-07-17T02:22:54Z</time>
      </trkpt>
      <trkpt lat="44.86212" lon="6.49337">
        <ele>1306</ele>
        <time>2020-07-17T02:23:01Z</time>
      </trkpt>
      <trkpt lat="44.86189" lon="6.49337">
        <ele>1303</ele>
        <time>2020-07-17T02:23:32Z</time>
      </trkpt>
      <trkpt lat="44.86151" lon="6.49358">
        <ele>1302</ele>
        <time>2020-07-17T02:24:26Z</time>
      </trkpt>
      <trkpt lat="44.86139" lon="6.49355">
        <ele>1299</ele>
        <time>2020-07-17T02:24:42Z</time>
      </trkpt>
      <trkpt lat="44.86101" lon="6.49359">
        <ele>1293</ele>
        <time>2020-07-17T02:25:33Z</time>
      </trkpt>
      <trkpt lat="44.86098" lon="6.49356">
        <ele>1292</ele>
        <time>2020-07-17T02:25:38Z</time>
      </trkpt>
      <trkpt lat="44.86083" lon="6.49373">
        <ele>1293</ele>
        <time>2020-07-17T02:26:04Z</time>
      </trkpt>
      <trkpt lat="44.86068" lon="6.49384">
        <ele>1293</ele>
        <time>2020-07-17T02:26:26Z</time>
      </trkpt>
      <trkpt lat="44.86062" lon="6.49387">
        <ele>1293</ele>
        <time>2020-07-17T02:26:35Z</time>
      </trkpt>
      <trkpt lat="44.86056" lon="6.49387">
        <ele>1292</ele>
        <time>2020-07-17T02:26:43Z</time>
      </trkpt>
      <trkpt lat="44.86052" lon="6.49385">
        <ele>1291</ele>
        <time>2020-07-17T02:26:49Z</time>
      </trkpt>
      <trkpt lat="44.86051" lon="6.49383">
        <ele>1291</ele>
        <time>2020-07-17T02:26:51Z</time>
      </trkpt>
      <trkpt lat="44.86048" lon="6.49379">
        <ele>1290</ele>
        <time>2020-07-17T02:26:56Z</time>
      </trkpt>
      <trkpt lat="44.86041" lon="6.49361">
        <ele>1286</ele>
        <time>2020-07-17T02:27:16Z</time>
      </trkpt>
      <trkpt lat="44.86034" lon="6.49348">
        <ele>1284</ele>
        <time>2020-07-17T02:27:31Z</time>
      </trkpt>
      <trkpt lat="44.86027" lon="6.49343">
        <ele>1283</ele>
        <time>2020-07-17T02:27:42Z</time>
      </trkpt>
      <trkpt lat="44.86022" lon="6.49342">
        <ele>1282</ele>
        <time>2020-07-17T02:27:48Z</time>
      </trkpt>
      <trkpt lat="44.86019" lon="6.49341">
        <ele>1282</ele>
        <time>2020-07-17T02:27:53Z</time>
      </trkpt>
      <trkpt lat="44.86012" lon="6.49333">
        <ele>1280</ele>
        <time>2020-07-17T02:28:05Z</time>
      </trkpt>
      <trkpt lat="44.85984" lon="6.49307">
        <ele>1277</ele>
        <time>2020-07-17T02:28:49Z</time>
      </trkpt>
      <trkpt lat="44.85979" lon="6.49297">
        <ele>1276</ele>
        <time>2020-07-17T02:29:01Z</time>
      </trkpt>
      <trkpt lat="44.85968" lon="6.49289">
        <ele>1275</ele>
        <time>2020-07-17T02:29:17Z</time>
      </trkpt>
      <trkpt lat="44.85966" lon="6.49287">
        <ele>1275</ele>
        <time>2020-07-17T02:29:21Z</time>
      </trkpt>
      <trkpt lat="44.85965" lon="6.49286">
        <ele>1275</ele>
        <time>2020-07-17T02:29:22Z</time>
      </trkpt>
      <trkpt lat="44.85959" lon="6.49278">
        <ele>1274</ele>
        <time>2020-07-17T02:29:33Z</time>
      </trkpt>
      <trkpt lat="44.8595" lon="6.49256">
        <ele>1272</ele>
        <time>2020-07-17T02:29:57Z</time>
      </trkpt>
      <trkpt lat="44.85944" lon="6.49233">
        <ele>1269</ele>
        <time>2020-07-17T02:30:21Z</time>
      </trkpt>
      <trkpt lat="44.85938" lon="6.49204">
        <ele>1266</ele>
        <time>2020-07-17T02:30:49Z</time>
      </trkpt>
      <trkpt lat="44.85935" lon="6.49185">
        <ele>1264</ele>
        <time>2020-07-17T02:31:07Z</time>
      </trkpt>
      <trkpt lat="44.85934" lon="6.49181">
        <ele>1263</ele>
        <time>2020-07-17T02:31:12Z</time>
      </trkpt>
      <trkpt lat="44.85932" lon="6.49175">
        <ele>1262</ele>
        <time>2020-07-17T02:31:18Z</time>
      </trkpt>
      <trkpt lat="44.85928" lon="6.49159">
        <ele>1260</ele>
        <time>2020-07-17T02:31:34Z</time>
      </trkpt>
      <trkpt lat="44.8592" lon="6.49162">
        <ele>1260</ele>
        <time>2020-07-17T02:31:45Z</time>
      </trkpt>
      <trkpt lat="44.85904" lon="6.49167">
        <ele>1260</ele>
        <time>2020-07-17T02:32:07Z</time>
      </trkpt>
      <trkpt lat="44.85878" lon="6.49175">
        <ele>1259</ele>
        <time>2020-07-17T02:32:42Z</time>
      </trkpt>
      <trkpt lat="44.8587" lon="6.49181">
        <ele>1259</ele>
        <time>2020-07-17T02:32:54Z</time>
      </trkpt>
      <trkpt lat="44.85857" lon="6.49189">
        <ele>1258</ele>
        <time>2020-07-17T02:33:13Z</time>
      </trkpt>
      <trkpt lat="44.85847" lon="6.49191">
        <ele>1258</ele>
        <time>2020-07-17T02:33:27Z</time>
      </trkpt>
      <trkpt lat="44.85836" lon="6.4919">
        <ele>1257</ele>
        <time>2020-07-17T02:33:41Z</time>
      </trkpt>
      <trkpt lat="44.85826" lon="6.49191">
        <ele>1256</ele>
        <time>2020-07-17T02:33:55Z</time>
      </trkpt>
      <trkpt lat="44.85817" lon="6.49192">
        <ele>1255</ele>
        <time>2020-07-17T02:34:07Z</time>
      </trkpt>
      <trkpt lat="44.85797" lon="6.49198">
        <ele>1253</ele>
        <time>2020-07-17T02:34:34Z</time>
      </trkpt>
      <trkpt lat="44.85789" lon="6.49201">
        <ele>1253</ele>
        <time>2020-07-17T02:34:45Z</time>
      </trkpt>
      <trkpt lat="44.85782" lon="6.49202">
        <ele>1252</ele>
        <time>2020-07-17T02:34:55Z</time>
      </trkpt>
      <trkpt lat="44.85773" lon="6.49203">
        <ele>1251</ele>
        <time>2020-07-17T02:35:07Z</time>
      </trkpt>
      <trkpt lat="44.85767" lon="6.49204">
        <ele>1251</ele>
        <time>2020-07-17T02:35:15Z</time>
      </trkpt>
      <trkpt lat="44.85757" lon="6.49206">
        <ele>1250</ele>
        <time>2020-07-17T02:35:28Z</time>
      </trkpt>
      <trkpt lat="44.8575" lon="6.49207">
        <ele>1249</ele>
        <time>2020-07-17T02:35:38Z</time>
      </trkpt>
      <trkpt lat="44.85734" lon="6.49209">
        <ele>1247</ele>
        <time>2020-07-17T02:35:59Z</time>
      </trkpt>
      <trkpt lat="44.85712" lon="6.49206">
        <ele>1244</ele>
        <time>2020-07-17T02:36:29Z</time>
      </trkpt>
      <trkpt lat="44.85696" lon="6.49206">
        <ele>1242</ele>
        <time>2020-07-17T02:36:50Z</time>
      </trkpt>
      <trkpt lat="44.85691" lon="6.49209">
        <ele>1242</ele>
        <time>2020-07-17T02:36:57Z</time>
      </trkpt>
      <trkpt lat="44.85682" lon="6.49216">
        <ele>1242</ele>
        <time>2020-07-17T02:37:11Z</time>
      </trkpt>
      <trkpt lat="44.85675" lon="6.4922">
        <ele>1241</ele>
        <time>2020-07-17T02:37:21Z</time>
      </trkpt>
      <trkpt lat="44.85668" lon="6.49219">
        <ele>1240</ele>
        <time>2020-07-17T02:37:30Z</time>
      </trkpt>
      <trkpt lat="44.85653" lon="6.49214">
        <ele>1239</ele>
        <time>2020-07-17T02:37:51Z</time>
      </trkpt>
      <trkpt lat="44.85643" lon="6.49212">
        <ele>1238</ele>
        <time>2020-07-17T02:38:04Z</time>
      </trkpt>
      <trkpt lat="44.85642" lon="6.49211">
        <ele>1238</ele>
        <time>2020-07-17T02:38:06Z</time>
      </trkpt>
      <trkpt lat="44.85616" lon="6.49205">
        <ele>1235</ele>
        <time>2020-07-17T02:38:41Z</time>
      </trkpt>
      <trkpt lat="44.85553" lon="6.49247">
        <ele>1234</ele>
        <time>2020-07-17T02:40:14Z</time>
      </trkpt>
      <trkpt lat="44.85481" lon="6.49268">
        <ele>1227</ele>
        <time>2020-07-17T02:41:52Z</time>
      </trkpt>
      <trkpt lat="44.85477" lon="6.49265">
        <ele>1227</ele>
        <time>2020-07-17T02:41:58Z</time>
      </trkpt>
      <trkpt lat="44.85463" lon="6.49262">
        <ele>1225</ele>
        <time>2020-07-17T02:42:17Z</time>
      </trkpt>
      <trkpt lat="44.85456" lon="6.49261">
        <ele>1224</ele>
        <time>2020-07-17T02:42:27Z</time>
      </trkpt>
      <trkpt lat="44.85437" lon="6.49266">
        <ele>1222</ele>
        <time>2020-07-17T02:42:52Z</time>
      </trkpt>
      <trkpt lat="44.85432" lon="6.49263">
        <ele>1222</ele>
        <time>2020-07-17T02:43:00Z</time>
      </trkpt>
      <trkpt lat="44.85403" lon="6.49281">
        <ele>1221</ele>
        <time>2020-07-17T02:43:42Z</time>
      </trkpt>
      <trkpt lat="44.85391" lon="6.49294">
        <ele>1222</ele>
        <time>2020-07-17T02:44:02Z</time>
      </trkpt>
      <trkpt lat="44.85383" lon="6.49298">
        <ele>1222</ele>
        <time>2020-07-17T02:44:13Z</time>
      </trkpt>
      <trkpt lat="44.8537" lon="6.49299">
        <ele>1222</ele>
        <time>2020-07-17T02:44:31Z</time>
      </trkpt>
      <trkpt lat="44.85368" lon="6.49298">
        <ele>1222</ele>
        <time>2020-07-17T02:44:34Z</time>
      </trkpt>
      <trkpt lat="44.8535" lon="6.49284">
        <ele>1220</ele>
        <time>2020-07-17T02:45:01Z</time>
      </trkpt>
      <trkpt lat="44.85345" lon="6.4928">
        <ele>1220</ele>
        <time>2020-07-17T02:45:09Z</time>
      </trkpt>
      <trkpt lat="44.85335" lon="6.49272">
        <ele>1218</ele>
        <time>2020-07-17T02:45:24Z</time>
      </trkpt>
      <trkpt lat="44.85304" lon="6.49246">
        <ele>1216</ele>
        <time>2020-07-17T02:46:12Z</time>
      </trkpt>
      <trkpt lat="44.85299" lon="6.49241">
        <ele>1215</ele>
        <time>2020-07-17T02:46:20Z</time>
      </trkpt>
      <trkpt lat="44.85284" lon="6.49229">
        <ele>1213</ele>
        <time>2020-07-17T02:46:43Z</time>
      </trkpt>
      <trkpt lat="44.85278" lon="6.49225">
        <ele>1213</ele>
        <time>2020-07-17T02:46:52Z</time>
      </trkpt>
      <trkpt lat="44.85257" lon="6.49209">
        <ele>1211</ele>
        <time>2020-07-17T02:47:24Z</time>
      </trkpt>
      <trkpt lat="44.85239" lon="6.49199">
        <ele>1209</ele>
        <time>2020-07-17T02:47:50Z</time>
      </trkpt>
      <trkpt lat="44.85237" lon="6.49198">
        <ele>1209</ele>
        <time>2020-07-17T02:47:53Z</time>
      </trkpt>
      <trkpt lat="44.85225" lon="6.49192">
        <ele>1208</ele>
        <time>2020-07-17T02:48:10Z</time>
      </trkpt>
      <trkpt lat="44.85216" lon="6.49188">
        <ele>1207</ele>
        <time>2020-07-17T02:48:22Z</time>
      </trkpt>
      <trkpt lat="44.8516" lon="6.49162">
        <ele>1202</ele>
        <time>2020-07-17T02:49:41Z</time>
      </trkpt>
      <trkpt lat="44.85157" lon="6.4916">
        <ele>1202</ele>
        <time>2020-07-17T02:49:45Z</time>
      </trkpt>
      <trkpt lat="44.85117" lon="6.49143">
        <ele>1199</ele>
        <time>2020-07-17T02:50:41Z</time>
      </trkpt>
      <trkpt lat="44.851" lon="6.49136">
        <ele>1199</ele>
        <time>2020-07-17T02:51:05Z</time>
      </trkpt>
      <trkpt lat="44.85083" lon="6.49129">
        <ele>1198</ele>
        <time>2020-07-17T02:51:28Z</time>
      </trkpt>
      <trkpt lat="44.85057" lon="6.49118">
        <ele>1196</ele>
        <time>2020-07-17T02:52:05Z</time>
      </trkpt>
      <trkpt lat="44.85034" lon="6.49108">
        <ele>1194</ele>
        <time>2020-07-17T02:52:37Z</time>
      </trkpt>
      <trkpt lat="44.85017" lon="6.49101">
        <ele>1192</ele>
        <time>2020-07-17T02:53:00Z</time>
      </trkpt>
      <trkpt lat="44.84999" lon="6.49094">
        <ele>1190</ele>
        <time>2020-07-17T02:53:25Z</time>
      </trkpt>
      <trkpt lat="44.84976" lon="6.49084">
        <ele>1190</ele>
        <time>2020-07-17T02:53:57Z</time>
      </trkpt>
      <trkpt lat="44.84965" lon="6.4908">
        <ele>1189</ele>
        <time>2020-07-17T02:54:13Z</time>
      </trkpt>
      <trkpt lat="44.84837" lon="6.49028">
        <ele>1183</ele>
        <time>2020-07-17T02:57:10Z</time>
      </trkpt>
      <trkpt lat="44.84815" lon="6.49019">
        <ele>1181</ele>
        <time>2020-07-17T02:57:41Z</time>
      </trkpt>
      <trkpt lat="44.84807" lon="6.49016">
        <ele>1180</ele>
        <time>2020-07-17T02:57:52Z</time>
      </trkpt>
      <trkpt lat="44.84767" lon="6.49002">
        <ele>1175</ele>
        <time>2020-07-17T02:58:47Z</time>
      </trkpt>
      <trkpt lat="44.84732" lon="6.48987">
        <ele>1172</ele>
        <time>2020-07-17T02:59:36Z</time>
      </trkpt>
      <trkpt lat="44.84715" lon="6.48981">
        <ele>1170</ele>
        <time>2020-07-17T02:59:59Z</time>
      </trkpt>
      <trkpt lat="44.84702" lon="6.48976">
        <ele>1169</ele>
        <time>2020-07-17T03:00:17Z</time>
      </trkpt>
      <trkpt lat="44.84629" lon="6.4897">
        <ele>1166</ele>
        <time>2020-07-17T03:01:55Z</time>
      </trkpt>
      <trkpt lat="44.84613" lon="6.48959">
        <ele>1165</ele>
        <time>2020-07-17T03:02:18Z</time>
      </trkpt>
      <trkpt lat="44.84603" lon="6.48951">
        <ele>1164</ele>
        <time>2020-07-17T03:02:34Z</time>
      </trkpt>
      <trkpt lat="44.84605" lon="6.48942">
        <ele>1164</ele>
        <time>2020-07-17T03:02:43Z</time>
      </trkpt>
      <trkpt lat="44.84605" lon="6.48936">
        <ele>1163</ele>
        <time>2020-07-17T03:02:48Z</time>
      </trkpt>
      <trkpt lat="44.8461" lon="6.48905">
        <ele>1162</ele>
        <time>2020-07-17T03:03:19Z</time>
      </trkpt>
      <trkpt lat="44.8461" lon="6.48899">
        <ele>1163</ele>
        <time>2020-07-17T03:03:24Z</time>
      </trkpt>
      <trkpt lat="44.84611" lon="6.48894">
        <ele>1163</ele>
        <time>2020-07-17T03:03:29Z</time>
      </trkpt>
      <trkpt lat="44.84618" lon="6.48847">
        <ele>1166</ele>
        <time>2020-07-17T03:04:15Z</time>
      </trkpt>
      <trkpt lat="44.8462" lon="6.48824">
        <ele>1168</ele>
        <time>2020-07-17T03:04:36Z</time>
      </trkpt>
      <trkpt lat="44.84623" lon="6.48798">
        <ele>1170</ele>
        <time>2020-07-17T03:05:01Z</time>
      </trkpt>
      <trkpt lat="44.84611" lon="6.48771">
        <ele>1171</ele>
        <time>2020-07-17T03:05:32Z</time>
      </trkpt>
      <trkpt lat="44.84623" lon="6.48798">
        <ele>1170</ele>
        <time>2020-07-17T03:06:02Z</time>
      </trkpt>
      <trkpt lat="44.8462" lon="6.48824">
        <ele>1168</ele>
        <time>2020-07-17T03:06:27Z</time>
      </trkpt>
      <trkpt lat="44.84632" lon="6.48832">
        <ele>1167</ele>
        <time>2020-07-17T03:06:44Z</time>
      </trkpt>
      <trkpt lat="44.84653" lon="6.48854">
        <ele>1166</ele>
        <time>2020-07-17T03:07:19Z</time>
      </trkpt>
      <trkpt lat="44.84643" lon="6.48883">
        <ele>1164</ele>
        <time>2020-07-17T03:07:50Z</time>
      </trkpt>
      <trkpt lat="44.84653" lon="6.48854">
        <ele>1166</ele>
        <time>2020-07-17T03:08:20Z</time>
      </trkpt>
      <trkpt lat="44.84632" lon="6.48832">
        <ele>1167</ele>
        <time>2020-07-17T03:08:55Z</time>
      </trkpt>
      <trkpt lat="44.8462" lon="6.48824">
        <ele>1168</ele>
        <time>2020-07-17T03:09:13Z</time>
      </trkpt>
      <trkpt lat="44.84623" lon="6.48798">
        <ele>1170</ele>
        <time>2020-07-17T03:09:38Z</time>
      </trkpt>
      <trkpt lat="44.84605" lon="6.48759">
        <ele>1171</ele>
        <time>2020-07-17T03:10:22Z</time>
      </trkpt>
      <trkpt lat="44.84584" lon="6.48726">
        <ele>1174</ele>
        <time>2020-07-17T03:11:04Z</time>
      </trkpt>
      <trkpt lat="44.84567" lon="6.4871">
        <ele>1174</ele>
        <time>2020-07-17T03:11:31Z</time>
      </trkpt>
      <trkpt lat="44.84552" lon="6.48703">
        <ele>1173</ele>
        <time>2020-07-17T03:11:52Z</time>
      </trkpt>
      <trkpt lat="44.84527" lon="6.48674">
        <ele>1171</ele>
        <time>2020-07-17T03:12:35Z</time>
      </trkpt>
      <trkpt lat="44.84506" lon="6.48636">
        <ele>1171</ele>
        <time>2020-07-17T03:13:21Z</time>
      </trkpt>
      <trkpt lat="44.84494" lon="6.48621">
        <ele>1171</ele>
        <time>2020-07-17T03:13:42Z</time>
      </trkpt>
      <trkpt lat="44.84467" lon="6.48578">
        <ele>1173</ele>
        <time>2020-07-17T03:14:37Z</time>
      </trkpt>
      <trkpt lat="44.84431" lon="6.48516">
        <ele>1175</ele>
        <time>2020-07-17T03:15:52Z</time>
      </trkpt>
      <trkpt lat="44.84424" lon="6.48517">
        <ele>1173</ele>
        <time>2020-07-17T03:16:02Z</time>
      </trkpt>
      <trkpt lat="44.84409" lon="6.48502">
        <ele>1172</ele>
        <time>2020-07-17T03:16:26Z</time>
      </trkpt>
      <trkpt lat="44.84398" lon="6.48495">
        <ele>1172</ele>
        <time>2020-07-17T03:16:43Z</time>
      </trkpt>
      <trkpt lat="44.84375" lon="6.48474">
        <ele>1171</ele>
        <time>2020-07-17T03:17:19Z</time>
      </trkpt>
      <trkpt lat="44.84371" lon="6.48473">
        <ele>1170</ele>
        <time>2020-07-17T03:17:24Z</time>
      </trkpt>
      <trkpt lat="44.84367" lon="6.48476">
        <ele>1170</ele>
        <time>2020-07-17T03:17:31Z</time>
      </trkpt>
      <trkpt lat="44.84357" lon="6.48487">
        <ele>1168</ele>
        <time>2020-07-17T03:17:47Z</time>
      </trkpt>
      <trkpt lat="44.84354" lon="6.48496">
        <ele>1167</ele>
        <time>2020-07-17T03:17:57Z</time>
      </trkpt>
      <trkpt lat="44.84334" lon="6.48498">
        <ele>1165</ele>
        <time>2020-07-17T03:18:24Z</time>
      </trkpt>
      <trkpt lat="44.84324" lon="6.48496">
        <ele>1165</ele>
        <time>2020-07-17T03:18:37Z</time>
      </trkpt>
      <trkpt lat="44.84311" lon="6.48493">
        <ele>1165</ele>
        <time>2020-07-17T03:18:55Z</time>
      </trkpt>
      <trkpt lat="44.84289" lon="6.48488">
        <ele>1164</ele>
        <time>2020-07-17T03:19:24Z</time>
      </trkpt>
      <trkpt lat="44.84283" lon="6.48485">
        <ele>1164</ele>
        <time>2020-07-17T03:19:33Z</time>
      </trkpt>
      <trkpt lat="44.84267" lon="6.48479">
        <ele>1164</ele>
        <time>2020-07-17T03:19:55Z</time>
      </trkpt>
      <trkpt lat="44.84237" lon="6.48454">
        <ele>1164</ele>
        <time>2020-07-17T03:20:42Z</time>
      </trkpt>
      <trkpt lat="44.84233" lon="6.48453">
        <ele>1164</ele>
        <time>2020-07-17T03:20:47Z</time>
      </trkpt>
      <trkpt lat="44.84228" lon="6.48454">
        <ele>1164</ele>
        <time>2020-07-17T03:20:54Z</time>
      </trkpt>
      <trkpt lat="44.84212" lon="6.48464">
        <ele>1164</ele>
        <time>2020-07-17T03:21:17Z</time>
      </trkpt>
      <trkpt lat="44.84187" lon="6.48486">
        <ele>1163</ele>
        <time>2020-07-17T03:21:56Z</time>
      </trkpt>
      <trkpt lat="44.84148" lon="6.48518">
        <ele>1162</ele>
        <time>2020-07-17T03:22:57Z</time>
      </trkpt>
      <trkpt lat="44.84144" lon="6.48521">
        <ele>1162</ele>
        <time>2020-07-17T03:23:03Z</time>
      </trkpt>
      <trkpt lat="44.84109" lon="6.4855">
        <ele>1162</ele>
        <time>2020-07-17T03:23:57Z</time>
      </trkpt>
      <trkpt lat="44.84083" lon="6.48569">
        <ele>1161</ele>
        <time>2020-07-17T03:24:36Z</time>
      </trkpt>
      <trkpt lat="44.8407" lon="6.48575">
        <ele>1161</ele>
        <time>2020-07-17T03:24:54Z</time>
      </trkpt>
      <trkpt lat="44.84056" lon="6.48579">
        <ele>1161</ele>
        <time>2020-07-17T03:25:13Z</time>
      </trkpt>
      <trkpt lat="44.84042" lon="6.4858">
        <ele>1161</ele>
        <time>2020-07-17T03:25:32Z</time>
      </trkpt>
      <trkpt lat="44.84015" lon="6.48565">
        <ele>1161</ele>
        <time>2020-07-17T03:26:11Z</time>
      </trkpt>
      <trkpt lat="44.83989" lon="6.48558">
        <ele>1163</ele>
        <time>2020-07-17T03:26:46Z</time>
      </trkpt>
      <trkpt lat="44.83984" lon="6.48557">
        <ele>1164</ele>
        <time>2020-07-17T03:26:53Z</time>
      </trkpt>
      <trkpt lat="44.83976" lon="6.48555">
        <ele>1165</ele>
        <time>2020-07-17T03:27:04Z</time>
      </trkpt>
      <trkpt lat="44.83954" lon="6.48555">
        <ele>1169</ele>
        <time>2020-07-17T03:27:33Z</time>
      </trkpt>
      <trkpt lat="44.83948" lon="6.48557">
        <ele>1170</ele>
        <time>2020-07-17T03:27:41Z</time>
      </trkpt>
      <trkpt lat="44.83948" lon="6.48557">
        <ele>1170</ele>
        <time>2020-07-17T03:27:41Z</time>
      </trkpt>
      <trkpt lat="44.83941" lon="6.48566">
        <ele>1170</ele>
        <time>2020-07-17T03:27:54Z</time>
      </trkpt>
      <trkpt lat="44.83926" lon="6.48596">
        <ele>1167</ele>
        <time>2020-07-17T03:28:28Z</time>
      </trkpt>
      <trkpt lat="44.83901" lon="6.48633">
        <ele>1167</ele>
        <time>2020-07-17T03:29:17Z</time>
      </trkpt>
      <trkpt lat="44.83877" lon="6.48665">
        <ele>1166</ele>
        <time>2020-07-17T03:30:01Z</time>
      </trkpt>
      <trkpt lat="44.83831" lon="6.48718">
        <ele>1163</ele>
        <time>2020-07-17T03:31:20Z</time>
      </trkpt>
      <trkpt lat="44.8381" lon="6.48749">
        <ele>1161</ele>
        <time>2020-07-17T03:32:01Z</time>
      </trkpt>
      <trkpt lat="44.83801" lon="6.4874">
        <ele>1164</ele>
        <time>2020-07-17T03:32:15Z</time>
      </trkpt>
      <trkpt lat="44.8379" lon="6.48738">
        <ele>1167</ele>
        <time>2020-07-17T03:32:30Z</time>
      </trkpt>
      <trkpt lat="44.8378" lon="6.48738">
        <ele>1169</ele>
        <time>2020-07-17T03:32:44Z</time>
      </trkpt>
      <trkpt lat="44.8376" lon="6.48747">
        <ele>1169</ele>
        <time>2020-07-17T03:33:12Z</time>
      </trkpt>
      <trkpt lat="44.83741" lon="6.48771">
        <ele>1170</ele>
        <time>2020-07-17T03:33:46Z</time>
      </trkpt>
      <trkpt lat="44.83736" lon="6.48775">
        <ele>1171</ele>
        <time>2020-07-17T03:33:53Z</time>
      </trkpt>
      <trkpt lat="44.8373" lon="6.48774">
        <ele>1174</ele>
        <time>2020-07-17T03:34:01Z</time>
      </trkpt>
      <trkpt lat="44.83726" lon="6.48769">
        <ele>1176</ele>
        <time>2020-07-17T03:34:09Z</time>
      </trkpt>
      <trkpt lat="44.83715" lon="6.4878">
        <ele>1178</ele>
        <time>2020-07-17T03:34:27Z</time>
      </trkpt>
      <trkpt lat="44.83709" lon="6.48798">
        <ele>1177</ele>
        <time>2020-07-17T03:34:45Z</time>
      </trkpt>
      <trkpt lat="44.83699" lon="6.48816">
        <ele>1178</ele>
        <time>2020-07-17T03:35:07Z</time>
      </trkpt>
      <trkpt lat="44.83694" lon="6.48833">
        <ele>1177</ele>
        <time>2020-07-17T03:35:24Z</time>
      </trkpt>
      <trkpt lat="44.83692" lon="6.4885">
        <ele>1178</ele>
        <time>2020-07-17T03:35:41Z</time>
      </trkpt>
      <trkpt lat="44.83695" lon="6.48876">
        <ele>1179</ele>
        <time>2020-07-17T03:36:06Z</time>
      </trkpt>
      <trkpt lat="44.83697" lon="6.48889">
        <ele>1179</ele>
        <time>2020-07-17T03:36:18Z</time>
      </trkpt>
      <trkpt lat="44.83719" lon="6.48936">
        <ele>1174</ele>
        <time>2020-07-17T03:37:12Z</time>
      </trkpt>
      <trkpt lat="44.8372" lon="6.48955">
        <ele>1175</ele>
        <time>2020-07-17T03:37:30Z</time>
      </trkpt>
      <trkpt lat="44.83717" lon="6.48976">
        <ele>1177</ele>
        <time>2020-07-17T03:37:50Z</time>
      </trkpt>
      <trkpt lat="44.83703" lon="6.49004">
        <ele>1184</ele>
        <time>2020-07-17T03:38:22Z</time>
      </trkpt>
      <trkpt lat="44.83699" lon="6.49027">
        <ele>1184</ele>
        <time>2020-07-17T03:38:45Z</time>
      </trkpt>
      <trkpt lat="44.83674" lon="6.49101">
        <ele>1190</ele>
        <time>2020-07-17T03:40:02Z</time>
      </trkpt>
      <trkpt lat="44.83653" lon="6.49115">
        <ele>1195</ele>
        <time>2020-07-17T03:40:33Z</time>
      </trkpt>
      <trkpt lat="44.83649" lon="6.49122">
        <ele>1195</ele>
        <time>2020-07-17T03:40:42Z</time>
      </trkpt>
      <trkpt lat="44.8364" lon="6.49129">
        <ele>1196</ele>
        <time>2020-07-17T03:40:55Z</time>
      </trkpt>
      <trkpt lat="44.83604" lon="6.49184">
        <ele>1197</ele>
        <time>2020-07-17T03:42:06Z</time>
      </trkpt>
      <trkpt lat="44.83559" lon="6.49216">
        <ele>1202</ele>
        <time>2020-07-17T03:43:14Z</time>
      </trkpt>
      <trkpt lat="44.83552" lon="6.49224">
        <ele>1202</ele>
        <time>2020-07-17T03:43:26Z</time>
      </trkpt>
      <trkpt lat="44.83538" lon="6.49231">
        <ele>1204</ele>
        <time>2020-07-17T03:43:45Z</time>
      </trkpt>
      <trkpt lat="44.83523" lon="6.49227">
        <ele>1208</ele>
        <time>2020-07-17T03:44:06Z</time>
      </trkpt>
      <trkpt lat="44.83519" lon="6.49232">
        <ele>1208</ele>
        <time>2020-07-17T03:44:13Z</time>
      </trkpt>
      <trkpt lat="44.83512" lon="6.49247">
        <ele>1208</ele>
        <time>2020-07-17T03:44:30Z</time>
      </trkpt>
      <trkpt lat="44.83499" lon="6.49292">
        <ele>1209</ele>
        <time>2020-07-17T03:45:16Z</time>
      </trkpt>
      <trkpt lat="44.83479" lon="6.49313">
        <ele>1214</ele>
        <time>2020-07-17T03:45:49Z</time>
      </trkpt>
      <trkpt lat="44.8346" lon="6.49354">
        <ele>1218</ele>
        <time>2020-07-17T03:46:35Z</time>
      </trkpt>
      <trkpt lat="44.83451" lon="6.49368">
        <ele>1221</ele>
        <time>2020-07-17T03:46:53Z</time>
      </trkpt>
      <trkpt lat="44.8344" lon="6.49375">
        <ele>1223</ele>
        <time>2020-07-17T03:47:09Z</time>
      </trkpt>
      <trkpt lat="44.83415" lon="6.4937">
        <ele>1230</ele>
        <time>2020-07-17T03:47:43Z</time>
      </trkpt>
      <trkpt lat="44.83407" lon="6.49375">
        <ele>1233</ele>
        <time>2020-07-17T03:47:55Z</time>
      </trkpt>
      <trkpt lat="44.83407" lon="6.49381">
        <ele>1232</ele>
        <time>2020-07-17T03:48:01Z</time>
      </trkpt>
      <trkpt lat="44.83411" lon="6.49394">
        <ele>1231</ele>
        <time>2020-07-17T03:48:14Z</time>
      </trkpt>
      <trkpt lat="44.8341" lon="6.49404">
        <ele>1231</ele>
        <time>2020-07-17T03:48:23Z</time>
      </trkpt>
      <trkpt lat="44.83408" lon="6.49434">
        <ele>1233</ele>
        <time>2020-07-17T03:48:52Z</time>
      </trkpt>
      <trkpt lat="44.83405" lon="6.49449">
        <ele>1235</ele>
        <time>2020-07-17T03:49:07Z</time>
      </trkpt>
      <trkpt lat="44.83386" lon="6.4948">
        <ele>1241</ele>
        <time>2020-07-17T03:49:46Z</time>
      </trkpt>
      <trkpt lat="44.83375" lon="6.49493">
        <ele>1244</ele>
        <time>2020-07-17T03:50:05Z</time>
      </trkpt>
      <trkpt lat="44.83366" lon="6.49523">
        <ele>1247</ele>
        <time>2020-07-17T03:50:35Z</time>
      </trkpt>
      <trkpt lat="44.83362" lon="6.49529">
        <ele>1248</ele>
        <time>2020-07-17T03:50:43Z</time>
      </trkpt>
      <trkpt lat="44.83359" lon="6.49535">
        <ele>1249</ele>
        <time>2020-07-17T03:50:50Z</time>
      </trkpt>
      <trkpt lat="44.83367" lon="6.49556">
        <ele>1248</ele>
        <time>2020-07-17T03:51:13Z</time>
      </trkpt>
      <trkpt lat="44.83368" lon="6.49567">
        <ele>1248</ele>
        <time>2020-07-17T03:51:23Z</time>
      </trkpt>
      <trkpt lat="44.83366" lon="6.49612">
        <ele>1250</ele>
        <time>2020-07-17T03:52:06Z</time>
      </trkpt>
      <trkpt lat="44.83375" lon="6.49644">
        <ele>1249</ele>
        <time>2020-07-17T03:52:39Z</time>
      </trkpt>
      <trkpt lat="44.83375" lon="6.4968">
        <ele>1249</ele>
        <time>2020-07-17T03:53:13Z</time>
      </trkpt>
      <trkpt lat="44.8337" lon="6.49694">
        <ele>1250</ele>
        <time>2020-07-17T03:53:27Z</time>
      </trkpt>
      <trkpt lat="44.83358" lon="6.49712">
        <ele>1252</ele>
        <time>2020-07-17T03:53:51Z</time>
      </trkpt>
      <trkpt lat="44.83334" lon="6.49738">
        <ele>1259</ele>
        <time>2020-07-17T03:54:31Z</time>
      </trkpt>
      <trkpt lat="44.83323" lon="6.49741">
        <ele>1261</ele>
        <time>2020-07-17T03:54:46Z</time>
      </trkpt>
      <trkpt lat="44.83319" lon="6.49739">
        <ele>1261</ele>
        <time>2020-07-17T03:54:52Z</time>
      </trkpt>
      <trkpt lat="44.83317" lon="6.49735">
        <ele>1262</ele>
        <time>2020-07-17T03:54:56Z</time>
      </trkpt>
      <trkpt lat="44.83313" lon="6.49713">
        <ele>1263</ele>
        <time>2020-07-17T03:55:18Z</time>
      </trkpt>
      <trkpt lat="44.83308" lon="6.49707">
        <ele>1263</ele>
        <time>2020-07-17T03:55:27Z</time>
      </trkpt>
      <trkpt lat="44.83277" lon="6.49702">
        <ele>1268</ele>
        <time>2020-07-17T03:56:08Z</time>
      </trkpt>
      <trkpt lat="44.83262" lon="6.49708">
        <ele>1269</ele>
        <time>2020-07-17T03:56:29Z</time>
      </trkpt>
      <trkpt lat="44.83255" lon="6.49713">
        <ele>1270</ele>
        <time>2020-07-17T03:56:40Z</time>
      </trkpt>
      <trkpt lat="44.83241" lon="6.49715">
        <ele>1272</ele>
        <time>2020-07-17T03:56:58Z</time>
      </trkpt>
      <trkpt lat="44.83238" lon="6.49712">
        <ele>1272</ele>
        <time>2020-07-17T03:57:03Z</time>
      </trkpt>
      <trkpt lat="44.83236" lon="6.49707">
        <ele>1273</ele>
        <time>2020-07-17T03:57:09Z</time>
      </trkpt>
      <trkpt lat="44.83231" lon="6.4971">
        <ele>1273</ele>
        <time>2020-07-17T03:57:16Z</time>
      </trkpt>
      <trkpt lat="44.83213" lon="6.49739">
        <ele>1274</ele>
        <time>2020-07-17T03:57:52Z</time>
      </trkpt>
      <trkpt lat="44.83202" lon="6.49746">
        <ele>1275</ele>
        <time>2020-07-17T03:58:09Z</time>
      </trkpt>
      <trkpt lat="44.8319" lon="6.4975">
        <ele>1276</ele>
        <time>2020-07-17T03:58:25Z</time>
      </trkpt>
      <trkpt lat="44.83175" lon="6.49749">
        <ele>1278</ele>
        <time>2020-07-17T03:58:45Z</time>
      </trkpt>
      <trkpt lat="44.83161" lon="6.49755">
        <ele>1280</ele>
        <time>2020-07-17T03:59:05Z</time>
      </trkpt>
      <trkpt lat="44.83144" lon="6.49757">
        <ele>1283</ele>
        <time>2020-07-17T03:59:27Z</time>
      </trkpt>
      <trkpt lat="44.83121" lon="6.49752">
        <ele>1289</ele>
        <time>2020-07-17T03:59:58Z</time>
      </trkpt>
      <trkpt lat="44.83101" lon="6.49738">
        <ele>1293</ele>
        <time>2020-07-17T04:00:28Z</time>
      </trkpt>
      <trkpt lat="44.83096" lon="6.49738">
        <ele>1294</ele>
        <time>2020-07-17T04:00:35Z</time>
      </trkpt>
      <trkpt lat="44.8309" lon="6.49742">
        <ele>1296</ele>
        <time>2020-07-17T04:00:44Z</time>
      </trkpt>
      <trkpt lat="44.83072" lon="6.49763">
        <ele>1300</ele>
        <time>2020-07-17T04:01:15Z</time>
      </trkpt>
      <trkpt lat="44.83067" lon="6.49767">
        <ele>1301</ele>
        <time>2020-07-17T04:01:23Z</time>
      </trkpt>
      <trkpt lat="44.83059" lon="6.49769">
        <ele>1303</ele>
        <time>2020-07-17T04:01:33Z</time>
      </trkpt>
      <trkpt lat="44.83039" lon="6.49765">
        <ele>1309</ele>
        <time>2020-07-17T04:02:00Z</time>
      </trkpt>
      <trkpt lat="44.8303" lon="6.4977">
        <ele>1312</ele>
        <time>2020-07-17T04:02:13Z</time>
      </trkpt>
      <trkpt lat="44.83023" lon="6.49771">
        <ele>1314</ele>
        <time>2020-07-17T04:02:23Z</time>
      </trkpt>
      <trkpt lat="44.82994" lon="6.4978">
        <ele>1321</ele>
        <time>2020-07-17T04:03:02Z</time>
      </trkpt>
      <trkpt lat="44.82985" lon="6.49779">
        <ele>1323</ele>
        <time>2020-07-17T04:03:14Z</time>
      </trkpt>
      <trkpt lat="44.82978" lon="6.49777">
        <ele>1325</ele>
        <time>2020-07-17T04:03:24Z</time>
      </trkpt>
      <trkpt lat="44.82963" lon="6.49764">
        <ele>1330</ele>
        <time>2020-07-17T04:03:47Z</time>
      </trkpt>
      <trkpt lat="44.82958" lon="6.49752">
        <ele>1331</ele>
        <time>2020-07-17T04:04:01Z</time>
      </trkpt>
      <trkpt lat="44.82955" lon="6.4974">
        <ele>1333</ele>
        <time>2020-07-17T04:04:13Z</time>
      </trkpt>
      <trkpt lat="44.82954" lon="6.49727">
        <ele>1335</ele>
        <time>2020-07-17T04:04:25Z</time>
      </trkpt>
      <trkpt lat="44.82954" lon="6.49718">
        <ele>1336</ele>
        <time>2020-07-17T04:04:33Z</time>
      </trkpt>
      <trkpt lat="44.82949" lon="6.49699">
        <ele>1339</ele>
        <time>2020-07-17T04:04:53Z</time>
      </trkpt>
      <trkpt lat="44.82943" lon="6.4969">
        <ele>1342</ele>
        <time>2020-07-17T04:05:04Z</time>
      </trkpt>
      <trkpt lat="44.8294" lon="6.49664">
        <ele>1345</ele>
        <time>2020-07-17T04:05:29Z</time>
      </trkpt>
      <trkpt lat="44.8293" lon="6.49633">
        <ele>1348</ele>
        <time>2020-07-17T04:06:02Z</time>
      </trkpt>
      <trkpt lat="44.82913" lon="6.49614">
        <ele>1351</ele>
        <time>2020-07-17T04:06:30Z</time>
      </trkpt>
      <trkpt lat="44.82905" lon="6.49609">
        <ele>1352</ele>
        <time>2020-07-17T04:06:42Z</time>
      </trkpt>
      <trkpt lat="44.82877" lon="6.49621">
        <ele>1357</ele>
        <time>2020-07-17T04:07:21Z</time>
      </trkpt>
      <trkpt lat="44.82864" lon="6.49624">
        <ele>1359</ele>
        <time>2020-07-17T04:07:39Z</time>
      </trkpt>
      <trkpt lat="44.82828" lon="6.49612">
        <ele>1367</ele>
        <time>2020-07-17T04:08:28Z</time>
      </trkpt>
      <trkpt lat="44.82803" lon="6.49612">
        <ele>1374</ele>
        <time>2020-07-17T04:09:02Z</time>
      </trkpt>
      <trkpt lat="44.82787" lon="6.49605">
        <ele>1379</ele>
        <time>2020-07-17T04:09:24Z</time>
      </trkpt>
      <trkpt lat="44.82783" lon="6.49573">
        <ele>1380</ele>
        <time>2020-07-17T04:09:55Z</time>
      </trkpt>
      <trkpt lat="44.82789" lon="6.49516">
        <ele>1381</ele>
        <time>2020-07-17T04:10:49Z</time>
      </trkpt>
      <trkpt lat="44.82783" lon="6.49509">
        <ele>1382</ele>
        <time>2020-07-17T04:11:00Z</time>
      </trkpt>
      <trkpt lat="44.82771" lon="6.49506">
        <ele>1385</ele>
        <time>2020-07-17T04:11:16Z</time>
      </trkpt>
      <trkpt lat="44.82765" lon="6.4951">
        <ele>1385</ele>
        <time>2020-07-17T04:11:25Z</time>
      </trkpt>
      <trkpt lat="44.82761" lon="6.49521">
        <ele>1386</ele>
        <time>2020-07-17T04:11:36Z</time>
      </trkpt>
      <trkpt lat="44.82759" lon="6.49536">
        <ele>1386</ele>
        <time>2020-07-17T04:11:51Z</time>
      </trkpt>
      <trkpt lat="44.82757" lon="6.49575">
        <ele>1386</ele>
        <time>2020-07-17T04:12:28Z</time>
      </trkpt>
      <trkpt lat="44.82754" lon="6.49599">
        <ele>1388</ele>
        <time>2020-07-17T04:12:51Z</time>
      </trkpt>
      <trkpt lat="44.82744" lon="6.4964">
        <ele>1393</ele>
        <time>2020-07-17T04:13:32Z</time>
      </trkpt>
      <trkpt lat="44.82743" lon="6.49656">
        <ele>1394</ele>
        <time>2020-07-17T04:13:47Z</time>
      </trkpt>
      <trkpt lat="44.82744" lon="6.49672">
        <ele>1394</ele>
        <time>2020-07-17T04:14:02Z</time>
      </trkpt>
      <trkpt lat="44.82758" lon="6.49735">
        <ele>1393</ele>
        <time>2020-07-17T04:15:05Z</time>
      </trkpt>
      <trkpt lat="44.82759" lon="6.49745">
        <ele>1393</ele>
        <time>2020-07-17T04:15:14Z</time>
      </trkpt>
      <trkpt lat="44.82755" lon="6.49756">
        <ele>1394</ele>
        <time>2020-07-17T04:15:26Z</time>
      </trkpt>
      <trkpt lat="44.82749" lon="6.49765">
        <ele>1396</ele>
        <time>2020-07-17T04:15:38Z</time>
      </trkpt>
      <trkpt lat="44.82707" lon="6.49804">
        <ele>1400</ele>
        <time>2020-07-17T04:16:45Z</time>
      </trkpt>
      <trkpt lat="44.82652" lon="6.49895">
        <ele>1403</ele>
        <time>2020-07-17T04:18:38Z</time>
      </trkpt>
      <trkpt lat="44.82641" lon="6.49909">
        <ele>1404</ele>
        <time>2020-07-17T04:18:58Z</time>
      </trkpt>
      <trkpt lat="44.82627" lon="6.4992">
        <ele>1405</ele>
        <time>2020-07-17T04:19:19Z</time>
      </trkpt>
      <trkpt lat="44.82613" lon="6.49925">
        <ele>1407</ele>
        <time>2020-07-17T04:19:38Z</time>
      </trkpt>
      <trkpt lat="44.82589" lon="6.49968">
        <ele>1409</ele>
        <time>2020-07-17T04:20:30Z</time>
      </trkpt>
      <trkpt lat="44.82573" lon="6.49985">
        <ele>1410</ele>
        <time>2020-07-17T04:20:57Z</time>
      </trkpt>
      <trkpt lat="44.82549" lon="6.50014">
        <ele>1410</ele>
        <time>2020-07-17T04:21:39Z</time>
      </trkpt>
      <trkpt lat="44.82527" lon="6.50049">
        <ele>1409</ele>
        <time>2020-07-17T04:22:23Z</time>
      </trkpt>
      <trkpt lat="44.82512" lon="6.5006">
        <ele>1410</ele>
        <time>2020-07-17T04:22:46Z</time>
      </trkpt>
      <trkpt lat="44.82498" lon="6.50067">
        <ele>1411</ele>
        <time>2020-07-17T04:23:06Z</time>
      </trkpt>
      <trkpt lat="44.82479" lon="6.50067">
        <ele>1412</ele>
        <time>2020-07-17T04:23:31Z</time>
      </trkpt>
      <trkpt lat="44.82474" lon="6.50116">
        <ele>1409</ele>
        <time>2020-07-17T04:24:18Z</time>
      </trkpt>
      <trkpt lat="44.8247" lon="6.50128">
        <ele>1409</ele>
        <time>2020-07-17T04:24:31Z</time>
      </trkpt>
      <trkpt lat="44.82462" lon="6.50126">
        <ele>1409</ele>
        <time>2020-07-17T04:24:41Z</time>
      </trkpt>
      <trkpt lat="44.82423" lon="6.5013">
        <ele>1410</ele>
        <time>2020-07-17T04:25:34Z</time>
      </trkpt>
      <trkpt lat="44.82406" lon="6.50129">
        <ele>1411</ele>
        <time>2020-07-17T04:25:56Z</time>
      </trkpt>
      <trkpt lat="44.82392" lon="6.50121">
        <ele>1413</ele>
        <time>2020-07-17T04:26:16Z</time>
      </trkpt>
      <trkpt lat="44.82382" lon="6.50117">
        <ele>1414</ele>
        <time>2020-07-17T04:26:30Z</time>
      </trkpt>
      <trkpt lat="44.82369" lon="6.50114">
        <ele>1416</ele>
        <time>2020-07-17T04:26:48Z</time>
      </trkpt>
      <trkpt lat="44.82347" lon="6.50118">
        <ele>1418</ele>
        <time>2020-07-17T04:27:18Z</time>
      </trkpt>
      <trkpt lat="44.82316" lon="6.50137">
        <ele>1421</ele>
        <time>2020-07-17T04:28:03Z</time>
      </trkpt>
      <trkpt lat="44.82291" lon="6.50141">
        <ele>1426</ele>
        <time>2020-07-17T04:28:36Z</time>
      </trkpt>
      <trkpt lat="44.82277" lon="6.50133">
        <ele>1430</ele>
        <time>2020-07-17T04:28:56Z</time>
      </trkpt>
      <trkpt lat="44.82266" lon="6.5012">
        <ele>1434</ele>
        <time>2020-07-17T04:29:16Z</time>
      </trkpt>
      <trkpt lat="44.82234" lon="6.50119">
        <ele>1440</ele>
        <time>2020-07-17T04:29:58Z</time>
      </trkpt>
      <trkpt lat="44.82226" lon="6.50122">
        <ele>1441</ele>
        <time>2020-07-17T04:30:09Z</time>
      </trkpt>
      <trkpt lat="44.82203" lon="6.50145">
        <ele>1444</ele>
        <time>2020-07-17T04:30:47Z</time>
      </trkpt>
      <trkpt lat="44.82191" lon="6.50154">
        <ele>1446</ele>
        <time>2020-07-17T04:31:05Z</time>
      </trkpt>
      <trkpt lat="44.8218" lon="6.50155">
        <ele>1448</ele>
        <time>2020-07-17T04:31:20Z</time>
      </trkpt>
      <trkpt lat="44.82166" lon="6.50149">
        <ele>1452</ele>
        <time>2020-07-17T04:31:39Z</time>
      </trkpt>
      <trkpt lat="44.82128" lon="6.50108">
        <ele>1460</ele>
        <time>2020-07-17T04:32:43Z</time>
      </trkpt>
      <trkpt lat="44.82112" lon="6.50101">
        <ele>1464</ele>
        <time>2020-07-17T04:33:05Z</time>
      </trkpt>
      <trkpt lat="44.82089" lon="6.50098">
        <ele>1469</ele>
        <time>2020-07-17T04:33:36Z</time>
      </trkpt>
      <trkpt lat="44.82077" lon="6.50101">
        <ele>1472</ele>
        <time>2020-07-17T04:33:53Z</time>
      </trkpt>
      <trkpt lat="44.82065" lon="6.50106">
        <ele>1476</ele>
        <time>2020-07-17T04:34:09Z</time>
      </trkpt>
      <trkpt lat="44.82055" lon="6.50114">
        <ele>1480</ele>
        <time>2020-07-17T04:34:25Z</time>
      </trkpt>
      <trkpt lat="44.82046" lon="6.50146">
        <ele>1482</ele>
        <time>2020-07-17T04:34:57Z</time>
      </trkpt>
      <trkpt lat="44.82032" lon="6.50164">
        <ele>1486</ele>
        <time>2020-07-17T04:35:22Z</time>
      </trkpt>
      <trkpt lat="44.82023" lon="6.50184">
        <ele>1488</ele>
        <time>2020-07-17T04:35:45Z</time>
      </trkpt>
      <trkpt lat="44.82" lon="6.50263">
        <ele>1494</ele>
        <time>2020-07-17T04:37:06Z</time>
      </trkpt>
      <trkpt lat="44.81974" lon="6.50314">
        <ele>1501</ele>
        <time>2020-07-17T04:38:05Z</time>
      </trkpt>
      <trkpt lat="44.81937" lon="6.50356">
        <ele>1509</ele>
        <time>2020-07-17T04:39:09Z</time>
      </trkpt>
      <trkpt lat="44.81906" lon="6.50395">
        <ele>1516</ele>
        <time>2020-07-17T04:40:04Z</time>
      </trkpt>
      <trkpt lat="44.81865" lon="6.50432">
        <ele>1523</ele>
        <time>2020-07-17T04:41:09Z</time>
      </trkpt>
      <trkpt lat="44.81847" lon="6.50452">
        <ele>1526</ele>
        <time>2020-07-17T04:41:40Z</time>
      </trkpt>
      <trkpt lat="44.81828" lon="6.50458">
        <ele>1529</ele>
        <time>2020-07-17T04:42:06Z</time>
      </trkpt>
      <trkpt lat="44.81815" lon="6.50458">
        <ele>1531</ele>
        <time>2020-07-17T04:42:23Z</time>
      </trkpt>
      <trkpt lat="44.81813" lon="6.50463">
        <ele>1531</ele>
        <time>2020-07-17T04:42:28Z</time>
      </trkpt>
      <trkpt lat="44.81796" lon="6.50484">
        <ele>1532</ele>
        <time>2020-07-17T04:42:58Z</time>
      </trkpt>
      <trkpt lat="44.81777" lon="6.50495">
        <ele>1534</ele>
        <time>2020-07-17T04:43:26Z</time>
      </trkpt>
      <trkpt lat="44.8175" lon="6.50518">
        <ele>1536</ele>
        <time>2020-07-17T04:44:08Z</time>
      </trkpt>
      <trkpt lat="44.81717" lon="6.50533">
        <ele>1542</ele>
        <time>2020-07-17T04:44:54Z</time>
      </trkpt>
      <trkpt lat="44.8168" lon="6.50545">
        <ele>1550</ele>
        <time>2020-07-17T04:45:45Z</time>
      </trkpt>
      <trkpt lat="44.81676" lon="6.5055">
        <ele>1550</ele>
        <time>2020-07-17T04:45:52Z</time>
      </trkpt>
      <trkpt lat="44.81673" lon="6.50557">
        <ele>1551</ele>
        <time>2020-07-17T04:46:00Z</time>
      </trkpt>
      <trkpt lat="44.81672" lon="6.50567">
        <ele>1551</ele>
        <time>2020-07-17T04:46:09Z</time>
      </trkpt>
      <trkpt lat="44.81663" lon="6.50581">
        <ele>1553</ele>
        <time>2020-07-17T04:46:27Z</time>
      </trkpt>
      <trkpt lat="44.81659" lon="6.5059">
        <ele>1555</ele>
        <time>2020-07-17T04:46:37Z</time>
      </trkpt>
      <trkpt lat="44.81658" lon="6.50602">
        <ele>1556</ele>
        <time>2020-07-17T04:46:49Z</time>
      </trkpt>
      <trkpt lat="44.81659" lon="6.50628">
        <ele>1557</ele>
        <time>2020-07-17T04:47:13Z</time>
      </trkpt>
      <trkpt lat="44.81655" lon="6.50638">
        <ele>1559</ele>
        <time>2020-07-17T04:47:24Z</time>
      </trkpt>
      <trkpt lat="44.81648" lon="6.50645">
        <ele>1562</ele>
        <time>2020-07-17T04:47:36Z</time>
      </trkpt>
      <trkpt lat="44.81628" lon="6.50656">
        <ele>1567</ele>
        <time>2020-07-17T04:48:04Z</time>
      </trkpt>
      <trkpt lat="44.81592" lon="6.50699">
        <ele>1578</ele>
        <time>2020-07-17T04:49:07Z</time>
      </trkpt>
      <trkpt lat="44.81581" lon="6.50719">
        <ele>1583</ele>
        <time>2020-07-17T04:49:31Z</time>
      </trkpt>
      <trkpt lat="44.81564" lon="6.50732">
        <ele>1586</ele>
        <time>2020-07-17T04:49:57Z</time>
      </trkpt>
      <trkpt lat="44.81553" lon="6.50737">
        <ele>1589</ele>
        <time>2020-07-17T04:50:13Z</time>
      </trkpt>
      <trkpt lat="44.81529" lon="6.50739">
        <ele>1593</ele>
        <time>2020-07-17T04:50:45Z</time>
      </trkpt>
      <trkpt lat="44.81511" lon="6.50749">
        <ele>1596</ele>
        <time>2020-07-17T04:51:10Z</time>
      </trkpt>
      <trkpt lat="44.81484" lon="6.50776">
        <ele>1605</ele>
        <time>2020-07-17T04:51:55Z</time>
      </trkpt>
      <trkpt lat="44.81448" lon="6.50804">
        <ele>1618</ele>
        <time>2020-07-17T04:52:49Z</time>
      </trkpt>
      <trkpt lat="44.81439" lon="6.50814">
        <ele>1620</ele>
        <time>2020-07-17T04:53:05Z</time>
      </trkpt>
      <trkpt lat="44.81428" lon="6.50835">
        <ele>1623</ele>
        <time>2020-07-17T04:53:29Z</time>
      </trkpt>
      <trkpt lat="44.81418" lon="6.50866">
        <ele>1625</ele>
        <time>2020-07-17T04:54:02Z</time>
      </trkpt>
      <trkpt lat="44.81407" lon="6.50881">
        <ele>1627</ele>
        <time>2020-07-17T04:54:22Z</time>
      </trkpt>
      <trkpt lat="44.81392" lon="6.50912">
        <ele>1630</ele>
        <time>2020-07-17T04:54:58Z</time>
      </trkpt>
      <trkpt lat="44.81381" lon="6.50921">
        <ele>1632</ele>
        <time>2020-07-17T04:55:15Z</time>
      </trkpt>
      <trkpt lat="44.8137" lon="6.50927">
        <ele>1634</ele>
        <time>2020-07-17T04:55:30Z</time>
      </trkpt>
      <trkpt lat="44.81343" lon="6.50961">
        <ele>1640</ele>
        <time>2020-07-17T04:56:19Z</time>
      </trkpt>
      <trkpt lat="44.81335" lon="6.50979">
        <ele>1642</ele>
        <time>2020-07-17T04:56:39Z</time>
      </trkpt>
      <trkpt lat="44.81333" lon="6.50989">
        <ele>1642</ele>
        <time>2020-07-17T04:56:49Z</time>
      </trkpt>
      <trkpt lat="44.8133" lon="6.51035">
        <ele>1645</ele>
        <time>2020-07-17T04:57:32Z</time>
      </trkpt>
      <trkpt lat="44.8133" lon="6.51067">
        <ele>1646</ele>
        <time>2020-07-17T04:58:03Z</time>
      </trkpt>
      <trkpt lat="44.81332" lon="6.51097">
        <ele>1646</ele>
        <time>2020-07-17T04:58:31Z</time>
      </trkpt>
      <trkpt lat="44.81328" lon="6.51123">
        <ele>1647</ele>
        <time>2020-07-17T04:58:56Z</time>
      </trkpt>
      <trkpt lat="44.81323" lon="6.51134">
        <ele>1647</ele>
        <time>2020-07-17T04:59:09Z</time>
      </trkpt>
      <trkpt lat="44.81313" lon="6.51152">
        <ele>1649</ele>
        <time>2020-07-17T04:59:30Z</time>
      </trkpt>
      <trkpt lat="44.81304" lon="6.51158">
        <ele>1650</ele>
        <time>2020-07-17T04:59:44Z</time>
      </trkpt>
      <trkpt lat="44.81222" lon="6.51165">
        <ele>1660</ele>
        <time>2020-07-17T05:01:33Z</time>
      </trkpt>
      <trkpt lat="44.81167" lon="6.51173">
        <ele>1663</ele>
        <time>2020-07-17T05:02:47Z</time>
      </trkpt>
      <trkpt lat="44.8112" lon="6.51199">
        <ele>1671</ele>
        <time>2020-07-17T05:03:54Z</time>
      </trkpt>
      <trkpt lat="44.81097" lon="6.51214">
        <ele>1676</ele>
        <time>2020-07-17T05:04:28Z</time>
      </trkpt>
      <trkpt lat="44.81083" lon="6.51227">
        <ele>1678</ele>
        <time>2020-07-17T05:04:51Z</time>
      </trkpt>
      <trkpt lat="44.81074" lon="6.5124">
        <ele>1680</ele>
        <time>2020-07-17T05:05:08Z</time>
      </trkpt>
      <trkpt lat="44.81073" lon="6.51255">
        <ele>1680</ele>
        <time>2020-07-17T05:05:22Z</time>
      </trkpt>
      <trkpt lat="44.81076" lon="6.51274">
        <ele>1680</ele>
        <time>2020-07-17T05:05:41Z</time>
      </trkpt>
      <trkpt lat="44.81069" lon="6.51282">
        <ele>1684</ele>
        <time>2020-07-17T05:05:53Z</time>
      </trkpt>
      <trkpt lat="44.8106" lon="6.51273">
        <ele>1687</ele>
        <time>2020-07-17T05:06:07Z</time>
      </trkpt>
      <trkpt lat="44.8105" lon="6.51255">
        <ele>1690</ele>
        <time>2020-07-17T05:06:29Z</time>
      </trkpt>
      <trkpt lat="44.81045" lon="6.51243">
        <ele>1692</ele>
        <time>2020-07-17T05:06:42Z</time>
      </trkpt>
      <trkpt lat="44.81043" lon="6.51248">
        <ele>1692</ele>
        <time>2020-07-17T05:06:48Z</time>
      </trkpt>
      <trkpt lat="44.8104" lon="6.51268">
        <ele>1695</ele>
        <time>2020-07-17T05:07:07Z</time>
      </trkpt>
      <trkpt lat="44.81041" lon="6.51278">
        <ele>1695</ele>
        <time>2020-07-17T05:07:16Z</time>
      </trkpt>
      <trkpt lat="44.8105" lon="6.5133">
        <ele>1695</ele>
        <time>2020-07-17T05:08:07Z</time>
      </trkpt>
      <trkpt lat="44.81051" lon="6.51358">
        <ele>1699</ele>
        <time>2020-07-17T05:08:34Z</time>
      </trkpt>
      <trkpt lat="44.8105" lon="6.51385">
        <ele>1703</ele>
        <time>2020-07-17T05:08:59Z</time>
      </trkpt>
      <trkpt lat="44.81048" lon="6.51406">
        <ele>1707</ele>
        <time>2020-07-17T05:09:19Z</time>
      </trkpt>
      <trkpt lat="44.81051" lon="6.51434">
        <ele>1710</ele>
        <time>2020-07-17T05:09:46Z</time>
      </trkpt>
      <trkpt lat="44.81048" lon="6.51436">
        <ele>1712</ele>
        <time>2020-07-17T05:09:51Z</time>
      </trkpt>
      <trkpt lat="44.81045" lon="6.51436">
        <ele>1713</ele>
        <time>2020-07-17T05:09:55Z</time>
      </trkpt>
      <trkpt lat="44.81046" lon="6.51445">
        <ele>1714</ele>
        <time>2020-07-17T05:10:03Z</time>
      </trkpt>
      <trkpt lat="44.81045" lon="6.51473">
        <ele>1718</ele>
        <time>2020-07-17T05:10:30Z</time>
      </trkpt>
      <trkpt lat="44.81046" lon="6.51495">
        <ele>1721</ele>
        <time>2020-07-17T05:10:51Z</time>
      </trkpt>
      <trkpt lat="44.81044" lon="6.51506">
        <ele>1723</ele>
        <time>2020-07-17T05:11:01Z</time>
      </trkpt>
      <trkpt lat="44.81038" lon="6.51518">
        <ele>1728</ele>
        <time>2020-07-17T05:11:15Z</time>
      </trkpt>
      <trkpt lat="44.81032" lon="6.5152">
        <ele>1731</ele>
        <time>2020-07-17T05:11:23Z</time>
      </trkpt>
      <trkpt lat="44.81017" lon="6.51544">
        <ele>1740</ele>
        <time>2020-07-17T05:11:54Z</time>
      </trkpt>
      <trkpt lat="44.81012" lon="6.51546">
        <ele>1742</ele>
        <time>2020-07-17T05:12:01Z</time>
      </trkpt>
      <trkpt lat="44.80988" lon="6.51572">
        <ele>1751</ele>
        <time>2020-07-17T05:12:41Z</time>
      </trkpt>
      <trkpt lat="44.80979" lon="6.51585">
        <ele>1753</ele>
        <time>2020-07-17T05:12:58Z</time>
      </trkpt>
      <trkpt lat="44.8095" lon="6.51593">
        <ele>1757</ele>
        <time>2020-07-17T05:13:38Z</time>
      </trkpt>
      <trkpt lat="44.8094" lon="6.51593">
        <ele>1757</ele>
        <time>2020-07-17T05:13:51Z</time>
      </trkpt>
      <trkpt lat="44.80924" lon="6.51582">
        <ele>1756</ele>
        <time>2020-07-17T05:14:15Z</time>
      </trkpt>
      <trkpt lat="44.80915" lon="6.51566">
        <ele>1757</ele>
        <time>2020-07-17T05:14:34Z</time>
      </trkpt>
      <trkpt lat="44.80911" lon="6.51554">
        <ele>1757</ele>
        <time>2020-07-17T05:14:47Z</time>
      </trkpt>
      <trkpt lat="44.80908" lon="6.51524">
        <ele>1757</ele>
        <time>2020-07-17T05:15:15Z</time>
      </trkpt>
      <trkpt lat="44.80909" lon="6.51496">
        <ele>1756</ele>
        <time>2020-07-17T05:15:42Z</time>
      </trkpt>
      <trkpt lat="44.80906" lon="6.51472">
        <ele>1756</ele>
        <time>2020-07-17T05:16:05Z</time>
      </trkpt>
      <trkpt lat="44.80896" lon="6.51436">
        <ele>1757</ele>
        <time>2020-07-17T05:16:42Z</time>
      </trkpt>
      <trkpt lat="44.80888" lon="6.5142">
        <ele>1758</ele>
        <time>2020-07-17T05:17:00Z</time>
      </trkpt>
      <trkpt lat="44.80881" lon="6.5141">
        <ele>1759</ele>
        <time>2020-07-17T05:17:13Z</time>
      </trkpt>
      <trkpt lat="44.80857" lon="6.51396">
        <ele>1764</ele>
        <time>2020-07-17T05:17:48Z</time>
      </trkpt>
      <trkpt lat="44.8085" lon="6.51395">
        <ele>1766</ele>
        <time>2020-07-17T05:17:57Z</time>
      </trkpt>
      <trkpt lat="44.80816" lon="6.51408">
        <ele>1769</ele>
        <time>2020-07-17T05:18:44Z</time>
      </trkpt>
      <trkpt lat="44.80789" lon="6.51407">
        <ele>1772</ele>
        <time>2020-07-17T05:19:21Z</time>
      </trkpt>
      <trkpt lat="44.80772" lon="6.51408">
        <ele>1773</ele>
        <time>2020-07-17T05:19:43Z</time>
      </trkpt>
      <trkpt lat="44.80753" lon="6.51421">
        <ele>1775</ele>
        <time>2020-07-17T05:20:11Z</time>
      </trkpt>
      <trkpt lat="44.80721" lon="6.51433">
        <ele>1773</ele>
        <time>2020-07-17T05:20:56Z</time>
      </trkpt>
      <trkpt lat="44.80676" lon="6.51458">
        <ele>1771</ele>
        <time>2020-07-17T05:22:00Z</time>
      </trkpt>
      <trkpt lat="44.80638" lon="6.5147">
        <ele>1770</ele>
        <time>2020-07-17T05:22:52Z</time>
      </trkpt>
      <trkpt lat="44.80591" lon="6.51491">
        <ele>1768</ele>
        <time>2020-07-17T05:23:58Z</time>
      </trkpt>
      <trkpt lat="44.8057" lon="6.51496">
        <ele>1767</ele>
        <time>2020-07-17T05:24:26Z</time>
      </trkpt>
      <trkpt lat="44.80524" lon="6.51511">
        <ele>1766</ele>
        <time>2020-07-17T05:25:29Z</time>
      </trkpt>
      <trkpt lat="44.80487" lon="6.51517">
        <ele>1766</ele>
        <time>2020-07-17T05:26:19Z</time>
      </trkpt>
      <trkpt lat="44.80457" lon="6.51529">
        <ele>1767</ele>
        <time>2020-07-17T05:27:01Z</time>
      </trkpt>
      <trkpt lat="44.80425" lon="6.51546">
        <ele>1768</ele>
        <time>2020-07-17T05:27:46Z</time>
      </trkpt>
      <trkpt lat="44.80408" lon="6.51554">
        <ele>1767</ele>
        <time>2020-07-17T05:28:10Z</time>
      </trkpt>
      <trkpt lat="44.80354" lon="6.51553">
        <ele>1766</ele>
        <time>2020-07-17T05:29:22Z</time>
      </trkpt>
      <trkpt lat="44.80333" lon="6.51555">
        <ele>1765</ele>
        <time>2020-07-17T05:29:50Z</time>
      </trkpt>
      <trkpt lat="44.80233" lon="6.51574">
        <ele>1753</ele>
        <time>2020-07-17T05:32:05Z</time>
      </trkpt>
      <trkpt lat="44.80212" lon="6.5158">
        <ele>1750</ele>
        <time>2020-07-17T05:32:34Z</time>
      </trkpt>
      <trkpt lat="44.80186" lon="6.51592">
        <ele>1748</ele>
        <time>2020-07-17T05:33:10Z</time>
      </trkpt>
      <trkpt lat="44.80152" lon="6.51598">
        <ele>1745</ele>
        <time>2020-07-17T05:33:56Z</time>
      </trkpt>
      <trkpt lat="44.80138" lon="6.51596">
        <ele>1743</ele>
        <time>2020-07-17T05:34:15Z</time>
      </trkpt>
      <trkpt lat="44.80087" lon="6.5157">
        <ele>1736</ele>
        <time>2020-07-17T05:35:27Z</time>
      </trkpt>
      <trkpt lat="44.80049" lon="6.51532">
        <ele>1727</ele>
        <time>2020-07-17T05:36:29Z</time>
      </trkpt>
      <trkpt lat="44.79989" lon="6.51512">
        <ele>1709</ele>
        <time>2020-07-17T05:37:51Z</time>
      </trkpt>
      <trkpt lat="44.79971" lon="6.51513">
        <ele>1702</ele>
        <time>2020-07-17T05:38:15Z</time>
      </trkpt>
      <trkpt lat="44.79949" lon="6.51519">
        <ele>1695</ele>
        <time>2020-07-17T05:38:45Z</time>
      </trkpt>
      <trkpt lat="44.79934" lon="6.51529">
        <ele>1693</ele>
        <time>2020-07-17T05:39:08Z</time>
      </trkpt>
      <trkpt lat="44.79911" lon="6.51553">
        <ele>1693</ele>
        <time>2020-07-17T05:39:46Z</time>
      </trkpt>
      <trkpt lat="44.79896" lon="6.51572">
        <ele>1693</ele>
        <time>2020-07-17T05:40:13Z</time>
      </trkpt>
      <trkpt lat="44.79893" lon="6.51582">
        <ele>1696</ele>
        <time>2020-07-17T05:40:23Z</time>
      </trkpt>
      <trkpt lat="44.79884" lon="6.5159">
        <ele>1693</ele>
        <time>2020-07-17T05:40:37Z</time>
      </trkpt>
      <trkpt lat="44.79864" lon="6.51619">
        <ele>1691</ele>
        <time>2020-07-17T05:41:15Z</time>
      </trkpt>
      <trkpt lat="44.79851" lon="6.51623">
        <ele>1687</ele>
        <time>2020-07-17T05:41:33Z</time>
      </trkpt>
      <trkpt lat="44.79779" lon="6.51695">
        <ele>1669</ele>
        <time>2020-07-17T05:43:31Z</time>
      </trkpt>
      <trkpt lat="44.79765" lon="6.51715">
        <ele>1667</ele>
        <time>2020-07-17T05:43:58Z</time>
      </trkpt>
      <trkpt lat="44.79761" lon="6.51712">
        <ele>1664</ele>
        <time>2020-07-17T05:44:04Z</time>
      </trkpt>
      <trkpt lat="44.79799" lon="6.516">
        <ele>1653</ele>
        <time>2020-07-17T05:46:01Z</time>
      </trkpt>
      <trkpt lat="44.79748" lon="6.51633">
        <ele>1634</ele>
        <time>2020-07-17T05:47:16Z</time>
      </trkpt>
      <trkpt lat="44.7974" lon="6.51641">
        <ele>1631</ele>
        <time>2020-07-17T05:47:29Z</time>
      </trkpt>
      <trkpt lat="44.79737" lon="6.51641">
        <ele>1630</ele>
        <time>2020-07-17T05:47:33Z</time>
      </trkpt>
      <trkpt lat="44.79737" lon="6.51637">
        <ele>1628</ele>
        <time>2020-07-17T05:47:37Z</time>
      </trkpt>
      <trkpt lat="44.79741" lon="6.51629">
        <ele>1628</ele>
        <time>2020-07-17T05:47:46Z</time>
      </trkpt>
      <trkpt lat="44.79739" lon="6.51625">
        <ele>1626</ele>
        <time>2020-07-17T05:47:51Z</time>
      </trkpt>
      <trkpt lat="44.79735" lon="6.51625">
        <ele>1624</ele>
        <time>2020-07-17T05:47:56Z</time>
      </trkpt>
      <trkpt lat="44.79708" lon="6.5165">
        <ele>1616</ele>
        <time>2020-07-17T05:48:39Z</time>
      </trkpt>
      <trkpt lat="44.79706" lon="6.51649">
        <ele>1614</ele>
        <time>2020-07-17T05:48:42Z</time>
      </trkpt>
      <trkpt lat="44.79712" lon="6.51621">
        <ele>1608</ele>
        <time>2020-07-17T05:49:10Z</time>
      </trkpt>
      <trkpt lat="44.79718" lon="6.51611">
        <ele>1609</ele>
        <time>2020-07-17T05:49:22Z</time>
      </trkpt>
      <trkpt lat="44.7973" lon="6.51601">
        <ele>1613</ele>
        <time>2020-07-17T05:49:41Z</time>
      </trkpt>
      <trkpt lat="44.79728" lon="6.51598">
        <ele>1611</ele>
        <time>2020-07-17T05:49:45Z</time>
      </trkpt>
      <trkpt lat="44.79716" lon="6.51599">
        <ele>1604</ele>
        <time>2020-07-17T05:50:01Z</time>
      </trkpt>
      <trkpt lat="44.79714" lon="6.51597">
        <ele>1602</ele>
        <time>2020-07-17T05:50:04Z</time>
      </trkpt>
      <trkpt lat="44.7973" lon="6.51583">
        <ele>1607</ele>
        <time>2020-07-17T05:50:29Z</time>
      </trkpt>
      <trkpt lat="44.79749" lon="6.51551">
        <ele>1607</ele>
        <time>2020-07-17T05:51:09Z</time>
      </trkpt>
      <trkpt lat="44.79753" lon="6.51541">
        <ele>1606</ele>
        <time>2020-07-17T05:51:20Z</time>
      </trkpt>
      <trkpt lat="44.79763" lon="6.51526">
        <ele>1605</ele>
        <time>2020-07-17T05:51:39Z</time>
      </trkpt>
      <trkpt lat="44.79768" lon="6.51514">
        <ele>1603</ele>
        <time>2020-07-17T05:51:52Z</time>
      </trkpt>
      <trkpt lat="44.79768" lon="6.51509">
        <ele>1601</ele>
        <time>2020-07-17T05:51:57Z</time>
      </trkpt>
      <trkpt lat="44.79765" lon="6.51507">
        <ele>1599</ele>
        <time>2020-07-17T05:52:01Z</time>
      </trkpt>
      <trkpt lat="44.79769" lon="6.51491">
        <ele>1596</ele>
        <time>2020-07-17T05:52:17Z</time>
      </trkpt>
      <trkpt lat="44.79774" lon="6.51481">
        <ele>1596</ele>
        <time>2020-07-17T05:52:29Z</time>
      </trkpt>
      <trkpt lat="44.79789" lon="6.51419">
        <ele>1588</ele>
        <time>2020-07-17T05:53:31Z</time>
      </trkpt>
      <trkpt lat="44.79768" lon="6.51436">
        <ele>1583</ele>
        <time>2020-07-17T05:54:03Z</time>
      </trkpt>
      <trkpt lat="44.79763" lon="6.51432">
        <ele>1580</ele>
        <time>2020-07-17T05:54:11Z</time>
      </trkpt>
      <trkpt lat="44.79757" lon="6.5141">
        <ele>1574</ele>
        <time>2020-07-17T05:54:33Z</time>
      </trkpt>
      <trkpt lat="44.79745" lon="6.51386">
        <ele>1568</ele>
        <time>2020-07-17T05:55:01Z</time>
      </trkpt>
      <trkpt lat="44.79727" lon="6.51361">
        <ele>1562</ele>
        <time>2020-07-17T05:55:35Z</time>
      </trkpt>
      <trkpt lat="44.79721" lon="6.51357">
        <ele>1560</ele>
        <time>2020-07-17T05:55:44Z</time>
      </trkpt>
      <trkpt lat="44.79718" lon="6.51359">
        <ele>1559</ele>
        <time>2020-07-17T05:55:48Z</time>
      </trkpt>
      <trkpt lat="44.79712" lon="6.51353">
        <ele>1557</ele>
        <time>2020-07-17T05:55:58Z</time>
      </trkpt>
      <trkpt lat="44.79706" lon="6.51352">
        <ele>1556</ele>
        <time>2020-07-17T05:56:06Z</time>
      </trkpt>
      <trkpt lat="44.79702" lon="6.51354">
        <ele>1555</ele>
        <time>2020-07-17T05:56:12Z</time>
      </trkpt>
      <trkpt lat="44.79699" lon="6.5136">
        <ele>1554</ele>
        <time>2020-07-17T05:56:19Z</time>
      </trkpt>
      <trkpt lat="44.79694" lon="6.51351">
        <ele>1552</ele>
        <time>2020-07-17T05:56:30Z</time>
      </trkpt>
      <trkpt lat="44.79689" lon="6.51336">
        <ele>1551</ele>
        <time>2020-07-17T05:56:45Z</time>
      </trkpt>
      <trkpt lat="44.79687" lon="6.51336">
        <ele>1551</ele>
        <time>2020-07-17T05:56:48Z</time>
      </trkpt>
      <trkpt lat="44.79685" lon="6.51339">
        <ele>1550</ele>
        <time>2020-07-17T05:56:52Z</time>
      </trkpt>
      <trkpt lat="44.79686" lon="6.5135">
        <ele>1550</ele>
        <time>2020-07-17T05:57:02Z</time>
      </trkpt>
      <trkpt lat="44.79684" lon="6.51357">
        <ele>1550</ele>
        <time>2020-07-17T05:57:09Z</time>
      </trkpt>
      <trkpt lat="44.79679" lon="6.51345">
        <ele>1549</ele>
        <time>2020-07-17T05:57:23Z</time>
      </trkpt>
      <trkpt lat="44.79675" lon="6.51344">
        <ele>1548</ele>
        <time>2020-07-17T05:57:28Z</time>
      </trkpt>
      <trkpt lat="44.79672" lon="6.51348">
        <ele>1547</ele>
        <time>2020-07-17T05:57:34Z</time>
      </trkpt>
      <trkpt lat="44.79671" lon="6.51354">
        <ele>1546</ele>
        <time>2020-07-17T05:57:39Z</time>
      </trkpt>
      <trkpt lat="44.79656" lon="6.51371">
        <ele>1540</ele>
        <time>2020-07-17T05:58:05Z</time>
      </trkpt>
      <trkpt lat="44.79636" lon="6.5138">
        <ele>1533</ele>
        <time>2020-07-17T05:58:33Z</time>
      </trkpt>
      <trkpt lat="44.79621" lon="6.51394">
        <ele>1528</ele>
        <time>2020-07-17T05:58:57Z</time>
      </trkpt>
      <trkpt lat="44.79619" lon="6.51381">
        <ele>1527</ele>
        <time>2020-07-17T05:59:10Z</time>
      </trkpt>
      <trkpt lat="44.79614" lon="6.51369">
        <ele>1526</ele>
        <time>2020-07-17T05:59:23Z</time>
      </trkpt>
      <trkpt lat="44.796" lon="6.51352">
        <ele>1521</ele>
        <time>2020-07-17T05:59:48Z</time>
      </trkpt>
      <trkpt lat="44.79587" lon="6.51329">
        <ele>1516</ele>
        <time>2020-07-17T06:00:15Z</time>
      </trkpt>
      <trkpt lat="44.79571" lon="6.51311">
        <ele>1511</ele>
        <time>2020-07-17T06:00:43Z</time>
      </trkpt>
      <trkpt lat="44.79555" lon="6.51274">
        <ele>1506</ele>
        <time>2020-07-17T06:01:24Z</time>
      </trkpt>
      <trkpt lat="44.79546" lon="6.51197">
        <ele>1496</ele>
        <time>2020-07-17T06:02:38Z</time>
      </trkpt>
      <trkpt lat="44.79566" lon="6.51172">
        <ele>1506</ele>
        <time>2020-07-17T06:03:13Z</time>
      </trkpt>
      <trkpt lat="44.79608" lon="6.50979">
        <ele>1500</ele>
        <time>2020-07-17T06:06:24Z</time>
      </trkpt>
      <trkpt lat="44.79581" lon="6.50925">
        <ele>1485</ele>
        <time>2020-07-17T06:07:27Z</time>
      </trkpt>
      <trkpt lat="44.79582" lon="6.50865">
        <ele>1486</ele>
        <time>2020-07-17T06:08:24Z</time>
      </trkpt>
      <trkpt lat="44.7958" lon="6.50858">
        <ele>1484</ele>
        <time>2020-07-17T06:08:31Z</time>
      </trkpt>
      <trkpt lat="44.79576" lon="6.50854">
        <ele>1482</ele>
        <time>2020-07-17T06:08:38Z</time>
      </trkpt>
      <trkpt lat="44.79572" lon="6.50855">
        <ele>1479</ele>
        <time>2020-07-17T06:08:43Z</time>
      </trkpt>
      <trkpt lat="44.79569" lon="6.50862">
        <ele>1477</ele>
        <time>2020-07-17T06:08:51Z</time>
      </trkpt>
      <trkpt lat="44.79567" lon="6.50956">
        <ele>1477</ele>
        <time>2020-07-17T06:10:20Z</time>
      </trkpt>
      <trkpt lat="44.79548" lon="6.51035">
        <ele>1473</ele>
        <time>2020-07-17T06:11:39Z</time>
      </trkpt>
      <trkpt lat="44.79544" lon="6.51038">
        <ele>1472</ele>
        <time>2020-07-17T06:11:45Z</time>
      </trkpt>
      <trkpt lat="44.79537" lon="6.51036">
        <ele>1468</ele>
        <time>2020-07-17T06:11:54Z</time>
      </trkpt>
      <trkpt lat="44.79534" lon="6.51029">
        <ele>1465</ele>
        <time>2020-07-17T06:12:02Z</time>
      </trkpt>
      <trkpt lat="44.79523" lon="6.50983">
        <ele>1454</ele>
        <time>2020-07-17T06:12:48Z</time>
      </trkpt>
      <trkpt lat="44.79521" lon="6.50959">
        <ele>1451</ele>
        <time>2020-07-17T06:13:11Z</time>
      </trkpt>
      <trkpt lat="44.79523" lon="6.50931">
        <ele>1450</ele>
        <time>2020-07-17T06:13:38Z</time>
      </trkpt>
      <trkpt lat="44.79522" lon="6.50886">
        <ele>1446</ele>
        <time>2020-07-17T06:14:20Z</time>
      </trkpt>
      <trkpt lat="44.79524" lon="6.50865">
        <ele>1447</ele>
        <time>2020-07-17T06:14:40Z</time>
      </trkpt>
      <trkpt lat="44.79531" lon="6.50826">
        <ele>1449</ele>
        <time>2020-07-17T06:15:18Z</time>
      </trkpt>
      <trkpt lat="44.79524" lon="6.50774">
        <ele>1439</ele>
        <time>2020-07-17T06:16:08Z</time>
      </trkpt>
      <trkpt lat="44.79531" lon="6.50703">
        <ele>1434</ele>
        <time>2020-07-17T06:17:16Z</time>
      </trkpt>
      <trkpt lat="44.79541" lon="6.50652">
        <ele>1434</ele>
        <time>2020-07-17T06:18:06Z</time>
      </trkpt>
      <trkpt lat="44.79548" lon="6.50552">
        <ele>1426</ele>
        <time>2020-07-17T06:19:42Z</time>
      </trkpt>
      <trkpt lat="44.79539" lon="6.50487">
        <ele>1416</ele>
        <time>2020-07-17T06:20:44Z</time>
      </trkpt>
      <trkpt lat="44.79543" lon="6.5045">
        <ele>1414</ele>
        <time>2020-07-17T06:21:20Z</time>
      </trkpt>
      <trkpt lat="44.79553" lon="6.50411">
        <ele>1414</ele>
        <time>2020-07-17T06:21:59Z</time>
      </trkpt>
      <trkpt lat="44.79554" lon="6.50381">
        <ele>1411</ele>
        <time>2020-07-17T06:22:28Z</time>
      </trkpt>
      <trkpt lat="44.79552" lon="6.50302">
        <ele>1408</ele>
        <time>2020-07-17T06:23:42Z</time>
      </trkpt>
      <trkpt lat="44.79547" lon="6.50264">
        <ele>1408</ele>
        <time>2020-07-17T06:24:19Z</time>
      </trkpt>
      <trkpt lat="44.79551" lon="6.50236">
        <ele>1409</ele>
        <time>2020-07-17T06:24:46Z</time>
      </trkpt>
      <trkpt lat="44.7955" lon="6.5023">
        <ele>1408</ele>
        <time>2020-07-17T06:24:52Z</time>
      </trkpt>
      <trkpt lat="44.79547" lon="6.50227">
        <ele>1408</ele>
        <time>2020-07-17T06:24:57Z</time>
      </trkpt>
      <trkpt lat="44.79542" lon="6.50231">
        <ele>1406</ele>
        <time>2020-07-17T06:25:04Z</time>
      </trkpt>
      <trkpt lat="44.79531" lon="6.50273">
        <ele>1402</ele>
        <time>2020-07-17T06:25:47Z</time>
      </trkpt>
      <trkpt lat="44.79528" lon="6.50295">
        <ele>1400</ele>
        <time>2020-07-17T06:26:08Z</time>
      </trkpt>
      <trkpt lat="44.79523" lon="6.50271">
        <ele>1400</ele>
        <time>2020-07-17T06:26:32Z</time>
      </trkpt>
      <trkpt lat="44.79509" lon="6.50261">
        <ele>1396</ele>
        <time>2020-07-17T06:26:53Z</time>
      </trkpt>
      <trkpt lat="44.79503" lon="6.50257">
        <ele>1394</ele>
        <time>2020-07-17T06:27:02Z</time>
      </trkpt>
      <trkpt lat="44.79502" lon="6.50252">
        <ele>1394</ele>
        <time>2020-07-17T06:27:06Z</time>
      </trkpt>
      <trkpt lat="44.79514" lon="6.50169">
        <ele>1399</ele>
        <time>2020-07-17T06:28:27Z</time>
      </trkpt>
      <trkpt lat="44.79513" lon="6.50151">
        <ele>1399</ele>
        <time>2020-07-17T06:28:44Z</time>
      </trkpt>
      <trkpt lat="44.79491" lon="6.50103">
        <ele>1399</ele>
        <time>2020-07-17T06:29:38Z</time>
      </trkpt>
      <trkpt lat="44.79477" lon="6.50026">
        <ele>1403</ele>
        <time>2020-07-17T06:30:53Z</time>
      </trkpt>
      <trkpt lat="44.79462" lon="6.49968">
        <ele>1405</ele>
        <time>2020-07-17T06:31:52Z</time>
      </trkpt>
      <trkpt lat="44.79455" lon="6.49949">
        <ele>1406</ele>
        <time>2020-07-17T06:32:12Z</time>
      </trkpt>
      <trkpt lat="44.79428" lon="6.49921">
        <ele>1410</ele>
        <time>2020-07-17T06:32:57Z</time>
      </trkpt>
      <trkpt lat="44.79422" lon="6.49904">
        <ele>1411</ele>
        <time>2020-07-17T06:33:15Z</time>
      </trkpt>
      <trkpt lat="44.79412" lon="6.49841">
        <ele>1411</ele>
        <time>2020-07-17T06:34:16Z</time>
      </trkpt>
      <trkpt lat="44.79408" lon="6.49827">
        <ele>1413</ele>
        <time>2020-07-17T06:34:30Z</time>
      </trkpt>
      <trkpt lat="44.79398" lon="6.49821">
        <ele>1419</ele>
        <time>2020-07-17T06:34:45Z</time>
      </trkpt>
      <trkpt lat="44.79393" lon="6.49811">
        <ele>1422</ele>
        <time>2020-07-17T06:34:56Z</time>
      </trkpt>
      <trkpt lat="44.79393" lon="6.49796">
        <ele>1422</ele>
        <time>2020-07-17T06:35:10Z</time>
      </trkpt>
      <trkpt lat="44.79398" lon="6.49774">
        <ele>1419</ele>
        <time>2020-07-17T06:35:32Z</time>
      </trkpt>
      <trkpt lat="44.79404" lon="6.49753">
        <ele>1416</ele>
        <time>2020-07-17T06:35:54Z</time>
      </trkpt>
      <trkpt lat="44.79399" lon="6.4971">
        <ele>1418</ele>
        <time>2020-07-17T06:36:35Z</time>
      </trkpt>
      <trkpt lat="44.79393" lon="6.49685">
        <ele>1420</ele>
        <time>2020-07-17T06:37:00Z</time>
      </trkpt>
      <trkpt lat="44.79385" lon="6.49662">
        <ele>1424</ele>
        <time>2020-07-17T06:37:24Z</time>
      </trkpt>
      <trkpt lat="44.79378" lon="6.49611">
        <ele>1428</ele>
        <time>2020-07-17T06:38:13Z</time>
      </trkpt>
      <trkpt lat="44.79384" lon="6.49571">
        <ele>1425</ele>
        <time>2020-07-17T06:38:52Z</time>
      </trkpt>
      <trkpt lat="44.79386" lon="6.49546">
        <ele>1424</ele>
        <time>2020-07-17T06:39:16Z</time>
      </trkpt>
      <trkpt lat="44.79383" lon="6.49506">
        <ele>1423</ele>
        <time>2020-07-17T06:39:54Z</time>
      </trkpt>
      <trkpt lat="44.79383" lon="6.4946">
        <ele>1422</ele>
        <time>2020-07-17T06:40:38Z</time>
      </trkpt>
      <trkpt lat="44.79397" lon="6.4943">
        <ele>1417</ele>
        <time>2020-07-17T06:41:12Z</time>
      </trkpt>
      <trkpt lat="44.79401" lon="6.49417">
        <ele>1416</ele>
        <time>2020-07-17T06:41:25Z</time>
      </trkpt>
      <trkpt lat="44.79402" lon="6.49403">
        <ele>1415</ele>
        <time>2020-07-17T06:41:38Z</time>
      </trkpt>
      <trkpt lat="44.79399" lon="6.49388">
        <ele>1416</ele>
        <time>2020-07-17T06:41:53Z</time>
      </trkpt>
      <trkpt lat="44.79399" lon="6.49374">
        <ele>1416</ele>
        <time>2020-07-17T06:42:06Z</time>
      </trkpt>
      <trkpt lat="44.79401" lon="6.49357">
        <ele>1415</ele>
        <time>2020-07-17T06:42:23Z</time>
      </trkpt>
      <trkpt lat="44.79407" lon="6.49361">
        <ele>1414</ele>
        <time>2020-07-17T06:42:31Z</time>
      </trkpt>
      <trkpt lat="44.79428" lon="6.49354">
        <ele>1411</ele>
        <time>2020-07-17T06:43:00Z</time>
      </trkpt>
      <trkpt lat="44.79517" lon="6.49333">
        <ele>1416</ele>
        <time>2020-07-17T06:45:01Z</time>
      </trkpt>
      <trkpt lat="44.79523" lon="6.49332">
        <ele>1416</ele>
        <time>2020-07-18T22:54:43Z</time>
      </trkpt>
      <trkpt lat="44.79428" lon="6.49354">
        <ele>1411</ele>
        <time>2020-07-18T22:56:51Z</time>
      </trkpt>
      <trkpt lat="44.79407" lon="6.49361">
        <ele>1414</ele>
        <time>2020-07-18T22:57:20Z</time>
      </trkpt>
      <trkpt lat="44.79401" lon="6.49357">
        <ele>1415</ele>
        <time>2020-07-18T22:57:29Z</time>
      </trkpt>
      <trkpt lat="44.79398" lon="6.49352">
        <ele>1416</ele>
        <time>2020-07-18T22:57:35Z</time>
      </trkpt>
      <trkpt lat="44.79397" lon="6.4933">
        <ele>1417</ele>
        <time>2020-07-18T22:57:56Z</time>
      </trkpt>
      <trkpt lat="44.79392" lon="6.49302">
        <ele>1419</ele>
        <time>2020-07-18T22:58:24Z</time>
      </trkpt>
      <trkpt lat="44.79389" lon="6.49253">
        <ele>1423</ele>
        <time>2020-07-18T22:59:10Z</time>
      </trkpt>
      <trkpt lat="44.79378" lon="6.49212">
        <ele>1426</ele>
        <time>2020-07-18T22:59:52Z</time>
      </trkpt>
      <trkpt lat="44.79379" lon="6.49193">
        <ele>1426</ele>
        <time>2020-07-18T23:00:10Z</time>
      </trkpt>
      <trkpt lat="44.79393" lon="6.4916">
        <ele>1422</ele>
        <time>2020-07-18T23:00:46Z</time>
      </trkpt>
      <trkpt lat="44.79411" lon="6.49016">
        <ele>1429</ele>
        <time>2020-07-18T23:03:05Z</time>
      </trkpt>
      <trkpt lat="44.79398" lon="6.48971">
        <ele>1433</ele>
        <time>2020-07-18T23:03:51Z</time>
      </trkpt>
      <trkpt lat="44.79402" lon="6.4891">
        <ele>1432</ele>
        <time>2020-07-18T23:04:49Z</time>
      </trkpt>
      <trkpt lat="44.79394" lon="6.48873">
        <ele>1433</ele>
        <time>2020-07-18T23:05:25Z</time>
      </trkpt>
      <trkpt lat="44.79384" lon="6.488">
        <ele>1435</ele>
        <time>2020-07-18T23:06:36Z</time>
      </trkpt>
      <trkpt lat="44.79357" lon="6.4873">
        <ele>1440</ele>
        <time>2020-07-18T23:07:51Z</time>
      </trkpt>
      <trkpt lat="44.79322" lon="6.48682">
        <ele>1445</ele>
        <time>2020-07-18T23:08:56Z</time>
      </trkpt>
      <trkpt lat="44.79306" lon="6.48668">
        <ele>1448</ele>
        <time>2020-07-18T23:09:21Z</time>
      </trkpt>
      <trkpt lat="44.7927" lon="6.48594">
        <ele>1451</ele>
        <time>2020-07-18T23:10:46Z</time>
      </trkpt>
      <trkpt lat="44.79265" lon="6.48568">
        <ele>1452</ele>
        <time>2020-07-18T23:11:12Z</time>
      </trkpt>
      <trkpt lat="44.79251" lon="6.48558">
        <ele>1454</ele>
        <time>2020-07-18T23:11:33Z</time>
      </trkpt>
      <trkpt lat="44.79241" lon="6.48536">
        <ele>1458</ele>
        <time>2020-07-18T23:11:58Z</time>
      </trkpt>
      <trkpt lat="44.79223" lon="6.48443">
        <ele>1464</ele>
        <time>2020-07-18T23:13:29Z</time>
      </trkpt>
      <trkpt lat="44.79225" lon="6.4835">
        <ele>1462</ele>
        <time>2020-07-18T23:14:57Z</time>
      </trkpt>
      <trkpt lat="44.79229" lon="6.48342">
        <ele>1461</ele>
        <time>2020-07-18T23:15:06Z</time>
      </trkpt>
      <trkpt lat="44.79229" lon="6.48333">
        <ele>1461</ele>
        <time>2020-07-18T23:15:15Z</time>
      </trkpt>
      <trkpt lat="44.79221" lon="6.4827">
        <ele>1465</ele>
        <time>2020-07-18T23:16:15Z</time>
      </trkpt>
      <trkpt lat="44.79218" lon="6.48252">
        <ele>1467</ele>
        <time>2020-07-18T23:16:33Z</time>
      </trkpt>
      <trkpt lat="44.79215" lon="6.48205">
        <ele>1470</ele>
        <time>2020-07-18T23:17:18Z</time>
      </trkpt>
      <trkpt lat="44.7922" lon="6.48178">
        <ele>1470</ele>
        <time>2020-07-18T23:17:44Z</time>
      </trkpt>
      <trkpt lat="44.79224" lon="6.48136">
        <ele>1472</ele>
        <time>2020-07-18T23:18:24Z</time>
      </trkpt>
      <trkpt lat="44.79235" lon="6.48107">
        <ele>1472</ele>
        <time>2020-07-18T23:18:55Z</time>
      </trkpt>
      <trkpt lat="44.79236" lon="6.48083">
        <ele>1473</ele>
        <time>2020-07-18T23:19:18Z</time>
      </trkpt>
      <trkpt lat="44.79235" lon="6.48068">
        <ele>1474</ele>
        <time>2020-07-18T23:19:32Z</time>
      </trkpt>
      <trkpt lat="44.79236" lon="6.48032">
        <ele>1476</ele>
        <time>2020-07-18T23:20:06Z</time>
      </trkpt>
      <trkpt lat="44.79234" lon="6.47959">
        <ele>1480</ele>
        <time>2020-07-18T23:21:16Z</time>
      </trkpt>
      <trkpt lat="44.7924" lon="6.47906">
        <ele>1481</ele>
        <time>2020-07-18T23:22:06Z</time>
      </trkpt>
      <trkpt lat="44.7924" lon="6.47892">
        <ele>1482</ele>
        <time>2020-07-18T23:22:20Z</time>
      </trkpt>
      <trkpt lat="44.7925" lon="6.47869">
        <ele>1482</ele>
        <time>2020-07-18T23:22:45Z</time>
      </trkpt>
      <trkpt lat="44.79255" lon="6.47847">
        <ele>1484</ele>
        <time>2020-07-18T23:23:07Z</time>
      </trkpt>
      <trkpt lat="44.79265" lon="6.47834">
        <ele>1485</ele>
        <time>2020-07-18T23:23:25Z</time>
      </trkpt>
      <trkpt lat="44.79269" lon="6.47822">
        <ele>1486</ele>
        <time>2020-07-18T23:23:38Z</time>
      </trkpt>
      <trkpt lat="44.79263" lon="6.47815">
        <ele>1486</ele>
        <time>2020-07-18T23:23:48Z</time>
      </trkpt>
      <trkpt lat="44.7925" lon="6.47806">
        <ele>1486</ele>
        <time>2020-07-18T23:24:08Z</time>
      </trkpt>
      <trkpt lat="44.79235" lon="6.47801">
        <ele>1490</ele>
        <time>2020-07-18T23:24:28Z</time>
      </trkpt>
      <trkpt lat="44.79217" lon="6.47799">
        <ele>1493</ele>
        <time>2020-07-18T23:24:52Z</time>
      </trkpt>
      <trkpt lat="44.79202" lon="6.47804">
        <ele>1496</ele>
        <time>2020-07-18T23:25:13Z</time>
      </trkpt>
      <trkpt lat="44.79188" lon="6.47798">
        <ele>1499</ele>
        <time>2020-07-18T23:25:32Z</time>
      </trkpt>
      <trkpt lat="44.79177" lon="6.47782">
        <ele>1503</ele>
        <time>2020-07-18T23:25:53Z</time>
      </trkpt>
      <trkpt lat="44.79168" lon="6.47759">
        <ele>1507</ele>
        <time>2020-07-18T23:26:18Z</time>
      </trkpt>
      <trkpt lat="44.7914" lon="6.477">
        <ele>1514</ele>
        <time>2020-07-18T23:27:25Z</time>
      </trkpt>
      <trkpt lat="44.79117" lon="6.47681">
        <ele>1519</ele>
        <time>2020-07-18T23:28:01Z</time>
      </trkpt>
      <trkpt lat="44.79101" lon="6.47657">
        <ele>1521</ele>
        <time>2020-07-18T23:28:32Z</time>
      </trkpt>
      <trkpt lat="44.79085" lon="6.47659">
        <ele>1524</ele>
        <time>2020-07-18T23:28:54Z</time>
      </trkpt>
      <trkpt lat="44.7907" lon="6.47637">
        <ele>1527</ele>
        <time>2020-07-18T23:29:23Z</time>
      </trkpt>
      <trkpt lat="44.79063" lon="6.47616">
        <ele>1528</ele>
        <time>2020-07-18T23:29:45Z</time>
      </trkpt>
      <trkpt lat="44.79053" lon="6.47606">
        <ele>1530</ele>
        <time>2020-07-18T23:30:01Z</time>
      </trkpt>
      <trkpt lat="44.79049" lon="6.47559">
        <ele>1529</ele>
        <time>2020-07-18T23:30:46Z</time>
      </trkpt>
      <trkpt lat="44.79026" lon="6.47541">
        <ele>1535</ele>
        <time>2020-07-18T23:31:21Z</time>
      </trkpt>
      <trkpt lat="44.7901" lon="6.475">
        <ele>1536</ele>
        <time>2020-07-18T23:32:05Z</time>
      </trkpt>
      <trkpt lat="44.79007" lon="6.47482">
        <ele>1536</ele>
        <time>2020-07-18T23:32:23Z</time>
      </trkpt>
      <trkpt lat="44.78959" lon="6.47382">
        <ele>1537</ele>
        <time>2020-07-18T23:34:17Z</time>
      </trkpt>
      <trkpt lat="44.78954" lon="6.47367">
        <ele>1537</ele>
        <time>2020-07-18T23:34:33Z</time>
      </trkpt>
      <trkpt lat="44.78946" lon="6.47322">
        <ele>1534</ele>
        <time>2020-07-18T23:35:17Z</time>
      </trkpt>
      <trkpt lat="44.78932" lon="6.473">
        <ele>1535</ele>
        <time>2020-07-18T23:35:45Z</time>
      </trkpt>
      <trkpt lat="44.7892" lon="6.4726">
        <ele>1533</ele>
        <time>2020-07-18T23:36:26Z</time>
      </trkpt>
      <trkpt lat="44.78878" lon="6.4722">
        <ele>1542</ele>
        <time>2020-07-18T23:37:33Z</time>
      </trkpt>
      <trkpt lat="44.78862" lon="6.47173">
        <ele>1545</ele>
        <time>2020-07-18T23:38:23Z</time>
      </trkpt>
      <trkpt lat="44.78848" lon="6.47149">
        <ele>1548</ele>
        <time>2020-07-18T23:38:52Z</time>
      </trkpt>
      <trkpt lat="44.78833" lon="6.47105">
        <ele>1549</ele>
        <time>2020-07-18T23:39:38Z</time>
      </trkpt>
      <trkpt lat="44.78823" lon="6.47091">
        <ele>1552</ele>
        <time>2020-07-18T23:39:57Z</time>
      </trkpt>
      <trkpt lat="44.788" lon="6.47011">
        <ele>1556</ele>
        <time>2020-07-18T23:41:19Z</time>
      </trkpt>
      <trkpt lat="44.78801" lon="6.46983">
        <ele>1554</ele>
        <time>2020-07-18T23:41:46Z</time>
      </trkpt>
      <trkpt lat="44.78784" lon="6.46942">
        <ele>1555</ele>
        <time>2020-07-18T23:42:30Z</time>
      </trkpt>
      <trkpt lat="44.78774" lon="6.46909">
        <ele>1555</ele>
        <time>2020-07-18T23:43:04Z</time>
      </trkpt>
      <trkpt lat="44.78772" lon="6.46881">
        <ele>1554</ele>
        <time>2020-07-18T23:43:31Z</time>
      </trkpt>
      <trkpt lat="44.78759" lon="6.46851">
        <ele>1553</ele>
        <time>2020-07-18T23:44:04Z</time>
      </trkpt>
      <trkpt lat="44.78746" lon="6.46834">
        <ele>1554</ele>
        <time>2020-07-18T23:44:28Z</time>
      </trkpt>
      <trkpt lat="44.78741" lon="6.4682">
        <ele>1554</ele>
        <time>2020-07-18T23:44:43Z</time>
      </trkpt>
      <trkpt lat="44.78694" lon="6.46739">
        <ele>1559</ele>
        <time>2020-07-18T23:46:22Z</time>
      </trkpt>
      <trkpt lat="44.78691" lon="6.46726">
        <ele>1558</ele>
        <time>2020-07-18T23:46:35Z</time>
      </trkpt>
      <trkpt lat="44.7867" lon="6.46673">
        <ele>1558</ele>
        <time>2020-07-18T23:47:32Z</time>
      </trkpt>
      <trkpt lat="44.7866" lon="6.46635">
        <ele>1559</ele>
        <time>2020-07-18T23:48:11Z</time>
      </trkpt>
      <trkpt lat="44.78672" lon="6.46595">
        <ele>1555</ele>
        <time>2020-07-18T23:48:52Z</time>
      </trkpt>
      <trkpt lat="44.78673" lon="6.46559">
        <ele>1555</ele>
        <time>2020-07-18T23:49:26Z</time>
      </trkpt>
      <trkpt lat="44.7869" lon="6.46551">
        <ele>1555</ele>
        <time>2020-07-18T23:49:50Z</time>
      </trkpt>
      <trkpt lat="44.78714" lon="6.46527">
        <ele>1554</ele>
        <time>2020-07-18T23:50:29Z</time>
      </trkpt>
      <trkpt lat="44.78732" lon="6.46493">
        <ele>1554</ele>
        <time>2020-07-18T23:51:09Z</time>
      </trkpt>
      <trkpt lat="44.78745" lon="6.46455">
        <ele>1555</ele>
        <time>2020-07-18T23:51:49Z</time>
      </trkpt>
      <trkpt lat="44.78765" lon="6.46385">
        <ele>1558</ele>
        <time>2020-07-18T23:53:01Z</time>
      </trkpt>
      <trkpt lat="44.78764" lon="6.46343">
        <ele>1561</ele>
        <time>2020-07-18T23:53:41Z</time>
      </trkpt>
      <trkpt lat="44.78767" lon="6.46327">
        <ele>1562</ele>
        <time>2020-07-18T23:53:56Z</time>
      </trkpt>
      <trkpt lat="44.78761" lon="6.46294">
        <ele>1565</ele>
        <time>2020-07-18T23:54:29Z</time>
      </trkpt>
      <trkpt lat="44.78762" lon="6.46239">
        <ele>1568</ele>
        <time>2020-07-18T23:55:21Z</time>
      </trkpt>
      <trkpt lat="44.78768" lon="6.46199">
        <ele>1568</ele>
        <time>2020-07-18T23:55:59Z</time>
      </trkpt>
      <trkpt lat="44.7879" lon="6.46163">
        <ele>1564</ele>
        <time>2020-07-18T23:56:44Z</time>
      </trkpt>
      <trkpt lat="44.78802" lon="6.46119">
        <ele>1563</ele>
        <time>2020-07-18T23:57:29Z</time>
      </trkpt>
      <trkpt lat="44.78803" lon="6.46107">
        <ele>1563</ele>
        <time>2020-07-18T23:57:41Z</time>
      </trkpt>
      <trkpt lat="44.78803" lon="6.46096">
        <ele>1563</ele>
        <time>2020-07-18T23:57:51Z</time>
      </trkpt>
      <trkpt lat="44.78804" lon="6.46091">
        <ele>1563</ele>
        <time>2020-07-18T23:57:56Z</time>
      </trkpt>
      <trkpt lat="44.78819" lon="6.4607">
        <ele>1562</ele>
        <time>2020-07-18T23:58:24Z</time>
      </trkpt>
      <trkpt lat="44.78826" lon="6.4606">
        <ele>1562</ele>
        <time>2020-07-18T23:58:37Z</time>
      </trkpt>
      <trkpt lat="44.78831" lon="6.46042">
        <ele>1564</ele>
        <time>2020-07-18T23:58:56Z</time>
      </trkpt>
      <trkpt lat="44.78835" lon="6.46017">
        <ele>1566</ele>
        <time>2020-07-18T23:59:20Z</time>
      </trkpt>
      <trkpt lat="44.78827" lon="6.46004">
        <ele>1567</ele>
        <time>2020-07-18T23:59:36Z</time>
      </trkpt>
      <trkpt lat="44.78827" lon="6.4599">
        <ele>1567</ele>
        <time>2020-07-18T23:59:50Z</time>
      </trkpt>
      <trkpt lat="44.78831" lon="6.45974">
        <ele>1568</ele>
        <time>2020-07-18T00:00:06Z</time>
      </trkpt>
      <trkpt lat="44.78839" lon="6.4598">
        <ele>1569</ele>
        <time>2020-07-18T00:00:18Z</time>
      </trkpt>
      <trkpt lat="44.78855" lon="6.45972">
        <ele>1575</ele>
        <time>2020-07-18T00:00:40Z</time>
      </trkpt>
      <trkpt lat="44.78867" lon="6.45982">
        <ele>1578</ele>
        <time>2020-07-18T00:00:59Z</time>
      </trkpt>
      <trkpt lat="44.78875" lon="6.45983">
        <ele>1580</ele>
        <time>2020-07-18T00:01:10Z</time>
      </trkpt>
      <trkpt lat="44.78883" lon="6.45988">
        <ele>1582</ele>
        <time>2020-07-18T00:01:21Z</time>
      </trkpt>
      <trkpt lat="44.78894" lon="6.46">
        <ele>1584</ele>
        <time>2020-07-18T00:01:40Z</time>
      </trkpt>
      <trkpt lat="44.78893" lon="6.46007">
        <ele>1582</ele>
        <time>2020-07-18T00:01:47Z</time>
      </trkpt>
      <trkpt lat="44.78896" lon="6.46012">
        <ele>1582</ele>
        <time>2020-07-18T00:01:53Z</time>
      </trkpt>
      <trkpt lat="44.78916" lon="6.46033">
        <ele>1584</ele>
        <time>2020-07-18T00:02:26Z</time>
      </trkpt>
      <trkpt lat="44.78929" lon="6.46061">
        <ele>1585</ele>
        <time>2020-07-18T00:02:58Z</time>
      </trkpt>
      <trkpt lat="44.78937" lon="6.46073">
        <ele>1587</ele>
        <time>2020-07-18T00:03:13Z</time>
      </trkpt>
      <trkpt lat="44.78941" lon="6.46071">
        <ele>1590</ele>
        <time>2020-07-18T00:03:19Z</time>
      </trkpt>
      <trkpt lat="44.78934" lon="6.46036">
        <ele>1592</ele>
        <time>2020-07-18T00:03:54Z</time>
      </trkpt>
      <trkpt lat="44.78937" lon="6.46018">
        <ele>1597</ele>
        <time>2020-07-18T00:04:11Z</time>
      </trkpt>
      <trkpt lat="44.78947" lon="6.46001">
        <ele>1605</ele>
        <time>2020-07-18T00:04:32Z</time>
      </trkpt>
      <trkpt lat="44.78956" lon="6.45994">
        <ele>1611</ele>
        <time>2020-07-18T00:04:46Z</time>
      </trkpt>
      <trkpt lat="44.78959" lon="6.45984">
        <ele>1614</ele>
        <time>2020-07-18T00:04:56Z</time>
      </trkpt>
      <trkpt lat="44.78956" lon="6.45969">
        <ele>1615</ele>
        <time>2020-07-18T00:05:11Z</time>
      </trkpt>
      <trkpt lat="44.78949" lon="6.45959">
        <ele>1614</ele>
        <time>2020-07-18T00:05:24Z</time>
      </trkpt>
      <trkpt lat="44.78942" lon="6.45917">
        <ele>1618</ele>
        <time>2020-07-18T00:06:05Z</time>
      </trkpt>
      <trkpt lat="44.78936" lon="6.459">
        <ele>1619</ele>
        <time>2020-07-18T00:06:23Z</time>
      </trkpt>
      <trkpt lat="44.78935" lon="6.45887">
        <ele>1621</ele>
        <time>2020-07-18T00:06:35Z</time>
      </trkpt>
      <trkpt lat="44.78931" lon="6.45879">
        <ele>1621</ele>
        <time>2020-07-18T00:06:45Z</time>
      </trkpt>
      <trkpt lat="44.78928" lon="6.45865">
        <ele>1622</ele>
        <time>2020-07-18T00:06:58Z</time>
      </trkpt>
      <trkpt lat="44.78929" lon="6.45857">
        <ele>1624</ele>
        <time>2020-07-18T00:07:06Z</time>
      </trkpt>
      <trkpt lat="44.78928" lon="6.45849">
        <ele>1626</ele>
        <time>2020-07-18T00:07:14Z</time>
      </trkpt>
      <trkpt lat="44.78923" lon="6.45839">
        <ele>1625</ele>
        <time>2020-07-18T00:07:25Z</time>
      </trkpt>
      <trkpt lat="44.78924" lon="6.45821">
        <ele>1630</ele>
        <time>2020-07-18T00:07:42Z</time>
      </trkpt>
      <trkpt lat="44.7892" lon="6.45813">
        <ele>1630</ele>
        <time>2020-07-18T00:07:52Z</time>
      </trkpt>
      <trkpt lat="44.7892" lon="6.45803">
        <ele>1633</ele>
        <time>2020-07-18T00:08:01Z</time>
      </trkpt>
      <trkpt lat="44.78913" lon="6.45791">
        <ele>1633</ele>
        <time>2020-07-18T00:08:16Z</time>
      </trkpt>
      <trkpt lat="44.78904" lon="6.45766">
        <ele>1635</ele>
        <time>2020-07-18T00:08:42Z</time>
      </trkpt>
      <trkpt lat="44.78899" lon="6.4576">
        <ele>1633</ele>
        <time>2020-07-18T00:08:51Z</time>
      </trkpt>
      <trkpt lat="44.78896" lon="6.4575">
        <ele>1634</ele>
        <time>2020-07-18T00:09:01Z</time>
      </trkpt>
      <trkpt lat="44.78896" lon="6.45734">
        <ele>1636</ele>
        <time>2020-07-18T00:09:17Z</time>
      </trkpt>
      <trkpt lat="44.7889" lon="6.45724">
        <ele>1634</ele>
        <time>2020-07-18T00:09:29Z</time>
      </trkpt>
      <trkpt lat="44.78897" lon="6.45722">
        <ele>1639</ele>
        <time>2020-07-18T00:09:39Z</time>
      </trkpt>
      <trkpt lat="44.78906" lon="6.45711">
        <ele>1646</ele>
        <time>2020-07-18T00:09:54Z</time>
      </trkpt>
      <trkpt lat="44.78918" lon="6.45689">
        <ele>1657</ele>
        <time>2020-07-18T00:10:21Z</time>
      </trkpt>
      <trkpt lat="44.78913" lon="6.45683">
        <ele>1654</ele>
        <time>2020-07-18T00:10:29Z</time>
      </trkpt>
      <trkpt lat="44.78906" lon="6.4568">
        <ele>1650</ele>
        <time>2020-07-18T00:10:39Z</time>
      </trkpt>
      <trkpt lat="44.78897" lon="6.45673">
        <ele>1646</ele>
        <time>2020-07-18T00:10:53Z</time>
      </trkpt>
      <trkpt lat="44.78879" lon="6.45633">
        <ele>1647</ele>
        <time>2020-07-18T00:11:38Z</time>
      </trkpt>
      <trkpt lat="44.78881" lon="6.45613">
        <ele>1656</ele>
        <time>2020-07-18T00:11:57Z</time>
      </trkpt>
      <trkpt lat="44.78891" lon="6.45587">
        <ele>1672</ele>
        <time>2020-07-18T00:12:25Z</time>
      </trkpt>
      <trkpt lat="44.78893" lon="6.45574">
        <ele>1679</ele>
        <time>2020-07-18T00:12:38Z</time>
      </trkpt>
      <trkpt lat="44.78889" lon="6.4556">
        <ele>1681</ele>
        <time>2020-07-18T00:12:52Z</time>
      </trkpt>
      <trkpt lat="44.78876" lon="6.45543">
        <ele>1676</ele>
        <time>2020-07-18T00:13:16Z</time>
      </trkpt>
      <trkpt lat="44.78865" lon="6.45507">
        <ele>1677</ele>
        <time>2020-07-18T00:13:53Z</time>
      </trkpt>
      <trkpt lat="44.78846" lon="6.45475">
        <ele>1673</ele>
        <time>2020-07-18T00:14:32Z</time>
      </trkpt>
      <trkpt lat="44.7884" lon="6.45457">
        <ele>1675</ele>
        <time>2020-07-18T00:14:51Z</time>
      </trkpt>
      <trkpt lat="44.78832" lon="6.45441">
        <ele>1675</ele>
        <time>2020-07-18T00:15:10Z</time>
      </trkpt>
      <trkpt lat="44.7882" lon="6.45429">
        <ele>1674</ele>
        <time>2020-07-18T00:15:29Z</time>
      </trkpt>
      <trkpt lat="44.78814" lon="6.45404">
        <ele>1682</ele>
        <time>2020-07-18T00:15:54Z</time>
      </trkpt>
      <trkpt lat="44.78813" lon="6.45385">
        <ele>1689</ele>
        <time>2020-07-18T00:16:12Z</time>
      </trkpt>
      <trkpt lat="44.78809" lon="6.45371">
        <ele>1693</ele>
        <time>2020-07-18T00:16:27Z</time>
      </trkpt>
      <trkpt lat="44.78789" lon="6.45333">
        <ele>1695</ele>
        <time>2020-07-18T00:17:11Z</time>
      </trkpt>
      <trkpt lat="44.78785" lon="6.45316">
        <ele>1698</ele>
        <time>2020-07-18T00:17:28Z</time>
      </trkpt>
      <trkpt lat="44.78784" lon="6.45293">
        <ele>1704</ele>
        <time>2020-07-18T00:17:50Z</time>
      </trkpt>
      <trkpt lat="44.78787" lon="6.4528">
        <ele>1710</ele>
        <time>2020-07-18T00:18:03Z</time>
      </trkpt>
      <trkpt lat="44.7877" lon="6.45205">
        <ele>1710</ele>
        <time>2020-07-18T00:19:18Z</time>
      </trkpt>
      <trkpt lat="44.78774" lon="6.4519">
        <ele>1715</ele>
        <time>2020-07-18T00:19:33Z</time>
      </trkpt>
      <trkpt lat="44.78783" lon="6.45185">
        <ele>1722</ele>
        <time>2020-07-18T00:19:46Z</time>
      </trkpt>
      <trkpt lat="44.78787" lon="6.45175">
        <ele>1725</ele>
        <time>2020-07-18T00:19:57Z</time>
      </trkpt>
      <trkpt lat="44.78794" lon="6.45171">
        <ele>1730</ele>
        <time>2020-07-18T00:20:07Z</time>
      </trkpt>
      <trkpt lat="44.78802" lon="6.45161">
        <ele>1738</ele>
        <time>2020-07-18T00:20:21Z</time>
      </trkpt>
      <trkpt lat="44.78799" lon="6.45149">
        <ele>1740</ele>
        <time>2020-07-18T00:20:33Z</time>
      </trkpt>
      <trkpt lat="44.788" lon="6.4513">
        <ele>1747</ele>
        <time>2020-07-18T00:20:51Z</time>
      </trkpt>
      <trkpt lat="44.78775" lon="6.4511">
        <ele>1736</ele>
        <time>2020-07-18T00:21:29Z</time>
      </trkpt>
      <trkpt lat="44.78748" lon="6.45094">
        <ele>1721</ele>
        <time>2020-07-18T00:22:08Z</time>
      </trkpt>
      <trkpt lat="44.78743" lon="6.4507">
        <ele>1727</ele>
        <time>2020-07-18T00:22:32Z</time>
      </trkpt>
      <trkpt lat="44.78735" lon="6.45061">
        <ele>1727</ele>
        <time>2020-07-18T00:22:46Z</time>
      </trkpt>
      <trkpt lat="44.78722" lon="6.45053">
        <ele>1723</ele>
        <time>2020-07-18T00:23:05Z</time>
      </trkpt>
      <trkpt lat="44.78717" lon="6.45039">
        <ele>1727</ele>
        <time>2020-07-18T00:23:20Z</time>
      </trkpt>
      <trkpt lat="44.78715" lon="6.45027">
        <ele>1732</ele>
        <time>2020-07-18T00:23:31Z</time>
      </trkpt>
      <trkpt lat="44.78717" lon="6.45027">
        <ele>1733</ele>
        <time>2020-07-18T00:23:34Z</time>
      </trkpt>
      <trkpt lat="44.78724" lon="6.45041">
        <ele>1730</ele>
        <time>2020-07-18T00:23:50Z</time>
      </trkpt>
      <trkpt lat="44.78721" lon="6.45">
        <ele>1750</ele>
        <time>2020-07-18T00:24:29Z</time>
      </trkpt>
      <trkpt lat="44.78712" lon="6.44983">
        <ele>1752</ele>
        <time>2020-07-18T00:24:49Z</time>
      </trkpt>
      <trkpt lat="44.78694" lon="6.44962">
        <ele>1751</ele>
        <time>2020-07-18T00:25:20Z</time>
      </trkpt>
      <trkpt lat="44.78683" lon="6.44917">
        <ele>1764</ele>
        <time>2020-07-18T00:26:06Z</time>
      </trkpt>
      <trkpt lat="44.78671" lon="6.44889">
        <ele>1767</ele>
        <time>2020-07-18T00:26:37Z</time>
      </trkpt>
      <trkpt lat="44.78663" lon="6.44885">
        <ele>1763</ele>
        <time>2020-07-18T00:26:48Z</time>
      </trkpt>
      <trkpt lat="44.78656" lon="6.44876">
        <ele>1761</ele>
        <time>2020-07-18T00:27:00Z</time>
      </trkpt>
      <trkpt lat="44.78636" lon="6.4484">
        <ele>1760</ele>
        <time>2020-07-18T00:27:44Z</time>
      </trkpt>
      <trkpt lat="44.7864" lon="6.44837">
        <ele>1764</ele>
        <time>2020-07-18T00:27:50Z</time>
      </trkpt>
      <trkpt lat="44.78655" lon="6.44841">
        <ele>1772</ele>
        <time>2020-07-18T00:28:10Z</time>
      </trkpt>
      <trkpt lat="44.78641" lon="6.44821">
        <ele>1770</ele>
        <time>2020-07-18T00:28:37Z</time>
      </trkpt>
      <trkpt lat="44.78633" lon="6.44804">
        <ele>1772</ele>
        <time>2020-07-18T00:28:56Z</time>
      </trkpt>
      <trkpt lat="44.78642" lon="6.44805">
        <ele>1776</ele>
        <time>2020-07-18T00:29:08Z</time>
      </trkpt>
      <trkpt lat="44.78654" lon="6.44812">
        <ele>1780</ele>
        <time>2020-07-18T00:29:26Z</time>
      </trkpt>
      <trkpt lat="44.78678" lon="6.4483">
        <ele>1788</ele>
        <time>2020-07-18T00:30:02Z</time>
      </trkpt>
      <trkpt lat="44.78699" lon="6.4483">
        <ele>1799</ele>
        <time>2020-07-18T00:30:30Z</time>
      </trkpt>
      <trkpt lat="44.7869" lon="6.44824">
        <ele>1796</ele>
        <time>2020-07-18T00:30:43Z</time>
      </trkpt>
      <trkpt lat="44.78677" lon="6.44794">
        <ele>1798</ele>
        <time>2020-07-18T00:31:16Z</time>
      </trkpt>
      <trkpt lat="44.7867" lon="6.44776">
        <ele>1798</ele>
        <time>2020-07-18T00:31:36Z</time>
      </trkpt>
      <trkpt lat="44.78664" lon="6.4475">
        <ele>1802</ele>
        <time>2020-07-18T00:32:02Z</time>
      </trkpt>
      <trkpt lat="44.78666" lon="6.44737">
        <ele>1807</ele>
        <time>2020-07-18T00:32:14Z</time>
      </trkpt>
      <trkpt lat="44.78675" lon="6.44711">
        <ele>1820</ele>
        <time>2020-07-18T00:32:42Z</time>
      </trkpt>
      <trkpt lat="44.78676" lon="6.44695">
        <ele>1825</ele>
        <time>2020-07-18T00:32:57Z</time>
      </trkpt>
      <trkpt lat="44.78656" lon="6.44678">
        <ele>1820</ele>
        <time>2020-07-18T00:33:28Z</time>
      </trkpt>
      <trkpt lat="44.78635" lon="6.4465">
        <ele>1819</ele>
        <time>2020-07-18T00:34:07Z</time>
      </trkpt>
      <trkpt lat="44.78636" lon="6.4459">
        <ele>1839</ele>
        <time>2020-07-18T00:35:04Z</time>
      </trkpt>
      <trkpt lat="44.78629" lon="6.44565">
        <ele>1844</ele>
        <time>2020-07-18T00:35:29Z</time>
      </trkpt>
      <trkpt lat="44.78612" lon="6.44565">
        <ele>1839</ele>
        <time>2020-07-18T00:35:52Z</time>
      </trkpt>
      <trkpt lat="44.78591" lon="6.4456">
        <ele>1833</ele>
        <time>2020-07-18T00:36:20Z</time>
      </trkpt>
      <trkpt lat="44.78622" lon="6.44532">
        <ele>1852</ele>
        <time>2020-07-18T00:37:09Z</time>
      </trkpt>
      <trkpt lat="44.78591" lon="6.44537">
        <ele>1842</ele>
        <time>2020-07-18T00:37:51Z</time>
      </trkpt>
      <trkpt lat="44.78571" lon="6.44513">
        <ele>1845</ele>
        <time>2020-07-18T00:38:26Z</time>
      </trkpt>
      <trkpt lat="44.78565" lon="6.44481">
        <ele>1857</ele>
        <time>2020-07-18T00:38:57Z</time>
      </trkpt>
      <trkpt lat="44.78539" lon="6.44492">
        <ele>1845</ele>
        <time>2020-07-18T00:39:34Z</time>
      </trkpt>
      <trkpt lat="44.78519" lon="6.44468">
        <ele>1849</ele>
        <time>2020-07-18T00:40:09Z</time>
      </trkpt>
      <trkpt lat="44.78507" lon="6.44434">
        <ele>1858</ele>
        <time>2020-07-18T00:40:45Z</time>
      </trkpt>
      <trkpt lat="44.78487" lon="6.44339">
        <ele>1878</ele>
        <time>2020-07-18T00:42:18Z</time>
      </trkpt>
      <trkpt lat="44.78466" lon="6.44303">
        <ele>1865</ele>
        <time>2020-07-18T00:43:03Z</time>
      </trkpt>
      <trkpt lat="44.78466" lon="6.44264">
        <ele>1873</ele>
        <time>2020-07-18T00:43:39Z</time>
      </trkpt>
      <trkpt lat="44.78455" lon="6.44232">
        <ele>1875</ele>
        <time>2020-07-18T00:44:13Z</time>
      </trkpt>
      <trkpt lat="44.78455" lon="6.44206">
        <ele>1885</ele>
        <time>2020-07-18T00:44:38Z</time>
      </trkpt>
      <trkpt lat="44.78434" lon="6.44103">
        <ele>1905</ele>
        <time>2020-07-18T00:46:19Z</time>
      </trkpt>
      <trkpt lat="44.78442" lon="6.44081">
        <ele>1916</ele>
        <time>2020-07-18T00:46:43Z</time>
      </trkpt>
      <trkpt lat="44.78431" lon="6.4405">
        <ele>1905</ele>
        <time>2020-07-18T00:47:16Z</time>
      </trkpt>
      <trkpt lat="44.78423" lon="6.43992">
        <ele>1895</ele>
        <time>2020-07-18T00:48:11Z</time>
      </trkpt>
      <trkpt lat="44.78443" lon="6.43953">
        <ele>1918</ele>
        <time>2020-07-18T00:48:57Z</time>
      </trkpt>
      <trkpt lat="44.78484" lon="6.43917">
        <ele>1951</ele>
        <time>2020-07-18T00:50:02Z</time>
      </trkpt>
      <trkpt lat="44.78479" lon="6.43891">
        <ele>1954</ele>
        <time>2020-07-18T00:50:27Z</time>
      </trkpt>
      <trkpt lat="44.78452" lon="6.43863">
        <ele>1946</ele>
        <time>2020-07-18T00:51:12Z</time>
      </trkpt>
      <trkpt lat="44.78455" lon="6.43846">
        <ele>1953</ele>
        <time>2020-07-18T00:51:28Z</time>
      </trkpt>
      <trkpt lat="44.78412" lon="6.43837">
        <ele>1934</ele>
        <time>2020-07-18T00:52:26Z</time>
      </trkpt>
      <trkpt lat="44.78396" lon="6.43818">
        <ele>1935</ele>
        <time>2020-07-18T00:52:54Z</time>
      </trkpt>
      <trkpt lat="44.78379" lon="6.43786">
        <ele>1944</ele>
        <time>2020-07-18T00:53:32Z</time>
      </trkpt>
      <trkpt lat="44.78359" lon="6.43775">
        <ele>1941</ele>
        <time>2020-07-18T00:54:01Z</time>
      </trkpt>
      <trkpt lat="44.78342" lon="6.43758">
        <ele>1944</ele>
        <time>2020-07-18T00:54:29Z</time>
      </trkpt>
      <trkpt lat="44.78339" lon="6.43728">
        <ele>1953</ele>
        <time>2020-07-18T00:54:57Z</time>
      </trkpt>
      <trkpt lat="44.78312" lon="6.43631">
        <ele>1964</ele>
        <time>2020-07-18T00:56:36Z</time>
      </trkpt>
      <trkpt lat="44.78287" lon="6.4359">
        <ele>1964</ele>
        <time>2020-07-18T00:57:27Z</time>
      </trkpt>
      <trkpt lat="44.78243" lon="6.43485">
        <ele>1961</ele>
        <time>2020-07-18T00:59:23Z</time>
      </trkpt>
      <trkpt lat="44.78242" lon="6.43445">
        <ele>1969</ele>
        <time>2020-07-18T01:00:01Z</time>
      </trkpt>
      <trkpt lat="44.78245" lon="6.43421">
        <ele>1976</ele>
        <time>2020-07-18T01:00:24Z</time>
      </trkpt>
      <trkpt lat="44.7824" lon="6.43397">
        <ele>1978</ele>
        <time>2020-07-18T01:00:47Z</time>
      </trkpt>
      <trkpt lat="44.78242" lon="6.43378">
        <ele>1982</ele>
        <time>2020-07-18T01:01:06Z</time>
      </trkpt>
      <trkpt lat="44.7824" lon="6.43344">
        <ele>1987</ele>
        <time>2020-07-18T01:01:38Z</time>
      </trkpt>
      <trkpt lat="44.78219" lon="6.43333">
        <ele>1981</ele>
        <time>2020-07-18T01:02:08Z</time>
      </trkpt>
      <trkpt lat="44.78199" lon="6.43294">
        <ele>1979</ele>
        <time>2020-07-18T01:02:53Z</time>
      </trkpt>
      <trkpt lat="44.78248" lon="6.43232">
        <ele>2001</ele>
        <time>2020-07-18T01:04:21Z</time>
      </trkpt>
      <trkpt lat="44.78256" lon="6.43202">
        <ele>2007</ele>
        <time>2020-07-18T01:04:52Z</time>
      </trkpt>
      <trkpt lat="44.78269" lon="6.43191">
        <ele>2012</ele>
        <time>2020-07-18T01:05:12Z</time>
      </trkpt>
      <trkpt lat="44.78289" lon="6.43161">
        <ele>2023</ele>
        <time>2020-07-18T01:05:51Z</time>
      </trkpt>
      <trkpt lat="44.78249" lon="6.43088">
        <ele>2024</ele>
        <time>2020-07-18T01:07:18Z</time>
      </trkpt>
      <trkpt lat="44.78234" lon="6.43069">
        <ele>2023</ele>
        <time>2020-07-18T01:07:45Z</time>
      </trkpt>
      <trkpt lat="44.78216" lon="6.43035">
        <ele>2023</ele>
        <time>2020-07-18T01:08:25Z</time>
      </trkpt>
      <trkpt lat="44.78189" lon="6.42953">
        <ele>2026</ele>
        <time>2020-07-18T01:09:51Z</time>
      </trkpt>
      <trkpt lat="44.78173" lon="6.42936">
        <ele>2023</ele>
        <time>2020-07-18T01:10:18Z</time>
      </trkpt>
      <trkpt lat="44.78166" lon="6.42833">
        <ele>2027</ele>
        <time>2020-07-18T01:11:56Z</time>
      </trkpt>
      <trkpt lat="44.78166" lon="6.42661">
        <ele>2038</ele>
        <time>2020-07-18T01:14:39Z</time>
      </trkpt>
      <trkpt lat="44.78153" lon="6.42565">
        <ele>2037</ele>
        <time>2020-07-18T01:16:11Z</time>
      </trkpt>
      <trkpt lat="44.78149" lon="6.42494">
        <ele>2038</ele>
        <time>2020-07-18T01:17:19Z</time>
      </trkpt>
      <trkpt lat="44.78172" lon="6.4238">
        <ele>2056</ele>
        <time>2020-07-18T01:19:11Z</time>
      </trkpt>
      <trkpt lat="44.78164" lon="6.42361">
        <ele>2053</ele>
        <time>2020-07-18T01:19:32Z</time>
      </trkpt>
      <trkpt lat="44.78169" lon="6.42318">
        <ele>2059</ele>
        <time>2020-07-18T01:20:13Z</time>
      </trkpt>
      <trkpt lat="44.78154" lon="6.42236">
        <ele>2057</ele>
        <time>2020-07-18T01:21:33Z</time>
      </trkpt>
      <trkpt lat="44.78161" lon="6.42185">
        <ele>2066</ele>
        <time>2020-07-18T01:22:22Z</time>
      </trkpt>
      <trkpt lat="44.78175" lon="6.42136">
        <ele>2077</ele>
        <time>2020-07-18T01:23:12Z</time>
      </trkpt>
      <trkpt lat="44.78185" lon="6.42088">
        <ele>2085</ele>
        <time>2020-07-18T01:24:00Z</time>
      </trkpt>
      <trkpt lat="44.78176" lon="6.4201">
        <ele>2085</ele>
        <time>2020-07-18T01:25:15Z</time>
      </trkpt>
      <trkpt lat="44.78192" lon="6.41958">
        <ele>2094</ele>
        <time>2020-07-18T01:26:08Z</time>
      </trkpt>
      <trkpt lat="44.78198" lon="6.41908">
        <ele>2096</ele>
        <time>2020-07-18T01:26:56Z</time>
      </trkpt>
      <trkpt lat="44.78207" lon="6.41867">
        <ele>2102</ele>
        <time>2020-07-18T01:27:37Z</time>
      </trkpt>
      <trkpt lat="44.78211" lon="6.41835">
        <ele>2104</ele>
        <time>2020-07-18T01:28:08Z</time>
      </trkpt>
      <trkpt lat="44.78208" lon="6.4179">
        <ele>2100</ele>
        <time>2020-07-18T01:28:51Z</time>
      </trkpt>
      <trkpt lat="44.78225" lon="6.41721">
        <ele>2116</ele>
        <time>2020-07-18T01:30:00Z</time>
      </trkpt>
      <trkpt lat="44.78191" lon="6.41655">
        <ele>2104</ele>
        <time>2020-07-18T01:31:17Z</time>
      </trkpt>
      <trkpt lat="44.78198" lon="6.41631">
        <ele>2112</ele>
        <time>2020-07-18T01:31:42Z</time>
      </trkpt>
      <trkpt lat="44.78196" lon="6.41612">
        <ele>2113</ele>
        <time>2020-07-18T01:32:00Z</time>
      </trkpt>
      <trkpt lat="44.78179" lon="6.4161">
        <ele>2106</ele>
        <time>2020-07-18T01:32:23Z</time>
      </trkpt>
      <trkpt lat="44.78167" lon="6.4158">
        <ele>2107</ele>
        <time>2020-07-18T01:32:55Z</time>
      </trkpt>
      <trkpt lat="44.78147" lon="6.41522">
        <ele>2105</ele>
        <time>2020-07-18T01:33:56Z</time>
      </trkpt>
      <trkpt lat="44.78137" lon="6.4147">
        <ele>2107</ele>
        <time>2020-07-18T01:34:47Z</time>
      </trkpt>
      <trkpt lat="44.78125" lon="6.41444">
        <ele>2104</ele>
        <time>2020-07-18T01:35:17Z</time>
      </trkpt>
      <trkpt lat="44.78111" lon="6.41391">
        <ele>2103</ele>
        <time>2020-07-18T01:36:10Z</time>
      </trkpt>
      <trkpt lat="44.78163" lon="6.4126">
        <ele>2123</ele>
        <time>2020-07-18T01:38:32Z</time>
      </trkpt>
      <trkpt lat="44.78175" lon="6.41198">
        <ele>2124</ele>
        <time>2020-07-18T01:39:33Z</time>
      </trkpt>
      <trkpt lat="44.78189" lon="6.41151">
        <ele>2131</ele>
        <time>2020-07-18T01:40:22Z</time>
      </trkpt>
      <trkpt lat="44.78176" lon="6.41125">
        <ele>2127</ele>
        <time>2020-07-18T01:40:52Z</time>
      </trkpt>
      <trkpt lat="44.78181" lon="6.40981">
        <ele>2138</ele>
        <time>2020-07-18T01:43:08Z</time>
      </trkpt>
      <trkpt lat="44.78192" lon="6.40943">
        <ele>2144</ele>
        <time>2020-07-18T01:43:47Z</time>
      </trkpt>
      <trkpt lat="44.7819" lon="6.40872">
        <ele>2146</ele>
        <time>2020-07-18T01:44:54Z</time>
      </trkpt>
      <trkpt lat="44.78195" lon="6.40805">
        <ele>2156</ele>
        <time>2020-07-18T01:45:58Z</time>
      </trkpt>
      <trkpt lat="44.78184" lon="6.40681">
        <ele>2168</ele>
        <time>2020-07-18T01:47:57Z</time>
      </trkpt>
      <trkpt lat="44.78195" lon="6.40651">
        <ele>2182</ele>
        <time>2020-07-18T01:48:29Z</time>
      </trkpt>
      <trkpt lat="44.78214" lon="6.40629">
        <ele>2200</ele>
        <time>2020-07-18T01:49:01Z</time>
      </trkpt>
      <trkpt lat="44.78179" lon="6.4061">
        <ele>2178</ele>
        <time>2020-07-18T01:49:52Z</time>
      </trkpt>
      <trkpt lat="44.7817" lon="6.40563">
        <ele>2182</ele>
        <time>2020-07-18T01:50:38Z</time>
      </trkpt>
      <trkpt lat="44.78176" lon="6.40498">
        <ele>2199</ele>
        <time>2020-07-18T01:51:40Z</time>
      </trkpt>
      <trkpt lat="44.7817" lon="6.40473">
        <ele>2199</ele>
        <time>2020-07-18T01:52:05Z</time>
      </trkpt>
      <trkpt lat="44.78182" lon="6.40449">
        <ele>2206</ele>
        <time>2020-07-18T01:52:33Z</time>
      </trkpt>
      <trkpt lat="44.78207" lon="6.40425">
        <ele>2216</ele>
        <time>2020-07-18T01:53:13Z</time>
      </trkpt>
      <trkpt lat="44.78236" lon="6.40404">
        <ele>2224</ele>
        <time>2020-07-18T01:53:56Z</time>
      </trkpt>
      <trkpt lat="44.78243" lon="6.40359">
        <ele>2224</ele>
        <time>2020-07-18T01:54:40Z</time>
      </trkpt>
      <trkpt lat="44.78243" lon="6.403">
        <ele>2229</ele>
        <time>2020-07-18T01:55:36Z</time>
      </trkpt>
      <trkpt lat="44.78227" lon="6.40282">
        <ele>2232</ele>
        <time>2020-07-18T01:56:03Z</time>
      </trkpt>
      <trkpt lat="44.78198" lon="6.4029">
        <ele>2232</ele>
        <time>2020-07-18T01:56:43Z</time>
      </trkpt>
      <trkpt lat="44.78158" lon="6.40314">
        <ele>2230</ele>
        <time>2020-07-18T01:57:41Z</time>
      </trkpt>
      <trkpt lat="44.78125" lon="6.40331">
        <ele>2234</ele>
        <time>2020-07-18T01:58:28Z</time>
      </trkpt>
      <trkpt lat="44.78106" lon="6.40348">
        <ele>2231</ele>
        <time>2020-07-18T01:58:58Z</time>
      </trkpt>
      <trkpt lat="44.78077" lon="6.40361">
        <ele>2227</ele>
        <time>2020-07-18T01:59:38Z</time>
      </trkpt>
      <trkpt lat="44.78047" lon="6.40342">
        <ele>2233</ele>
        <time>2020-07-18T02:00:22Z</time>
      </trkpt>
      <trkpt lat="44.78004" lon="6.40301">
        <ele>2240</ele>
        <time>2020-07-18T02:01:31Z</time>
      </trkpt>
      <trkpt lat="44.77965" lon="6.40254">
        <ele>2235</ele>
        <time>2020-07-18T02:02:40Z</time>
      </trkpt>
      <trkpt lat="44.77955" lon="6.40211">
        <ele>2245</ele>
        <time>2020-07-18T02:03:23Z</time>
      </trkpt>
      <trkpt lat="44.77902" lon="6.40192">
        <ele>2229</ele>
        <time>2020-07-18T02:04:36Z</time>
      </trkpt>
      <trkpt lat="44.77901" lon="6.40153">
        <ele>2237</ele>
        <time>2020-07-18T02:05:13Z</time>
      </trkpt>
      <trkpt lat="44.77893" lon="6.40095">
        <ele>2237</ele>
        <time>2020-07-18T02:06:09Z</time>
      </trkpt>
      <trkpt lat="44.77882" lon="6.40048">
        <ele>2240</ele>
        <time>2020-07-18T02:06:56Z</time>
      </trkpt>
      <trkpt lat="44.77884" lon="6.40016">
        <ele>2247</ele>
        <time>2020-07-18T02:07:26Z</time>
      </trkpt>
      <trkpt lat="44.77846" lon="6.39994">
        <ele>2232</ele>
        <time>2020-07-18T02:08:21Z</time>
      </trkpt>
      <trkpt lat="44.7782" lon="6.39934">
        <ele>2229</ele>
        <time>2020-07-18T02:09:27Z</time>
      </trkpt>
      <trkpt lat="44.778" lon="6.3985">
        <ele>2232</ele>
        <time>2020-07-18T02:10:51Z</time>
      </trkpt>
      <trkpt lat="44.77788" lon="6.3978">
        <ele>2240</ele>
        <time>2020-07-18T02:12:00Z</time>
      </trkpt>
      <trkpt lat="44.77759" lon="6.39687">
        <ele>2241</ele>
        <time>2020-07-18T02:13:36Z</time>
      </trkpt>
      <trkpt lat="44.77747" lon="6.39608">
        <ele>2242</ele>
        <time>2020-07-18T02:14:52Z</time>
      </trkpt>
      <trkpt lat="44.77715" lon="6.39544">
        <ele>2240</ele>
        <time>2020-07-18T02:16:06Z</time>
      </trkpt>
      <trkpt lat="44.77692" lon="6.39503">
        <ele>2236</ele>
        <time>2020-07-18T02:16:56Z</time>
      </trkpt>
      <trkpt lat="44.77686" lon="6.39479">
        <ele>2236</ele>
        <time>2020-07-18T02:17:20Z</time>
      </trkpt>
      <trkpt lat="44.77678" lon="6.39464">
        <ele>2235</ele>
        <time>2020-07-18T02:17:38Z</time>
      </trkpt>
      <trkpt lat="44.77672" lon="6.39434">
        <ele>2235</ele>
        <time>2020-07-18T02:18:07Z</time>
      </trkpt>
      <trkpt lat="44.77671" lon="6.39421">
        <ele>2236</ele>
        <time>2020-07-18T02:18:20Z</time>
      </trkpt>
      <trkpt lat="44.77674" lon="6.39407">
        <ele>2239</ele>
        <time>2020-07-18T02:18:34Z</time>
      </trkpt>
      <trkpt lat="44.77672" lon="6.39398">
        <ele>2240</ele>
        <time>2020-07-18T02:18:43Z</time>
      </trkpt>
      <trkpt lat="44.77637" lon="6.39353">
        <ele>2240</ele>
        <time>2020-07-18T02:19:46Z</time>
      </trkpt>
      <trkpt lat="44.77619" lon="6.39344">
        <ele>2237</ele>
        <time>2020-07-18T02:20:11Z</time>
      </trkpt>
      <trkpt lat="44.77605" lon="6.39329">
        <ele>2236</ele>
        <time>2020-07-18T02:20:35Z</time>
      </trkpt>
      <trkpt lat="44.77584" lon="6.39325">
        <ele>2231</ele>
        <time>2020-07-18T02:21:03Z</time>
      </trkpt>
      <trkpt lat="44.77576" lon="6.39295">
        <ele>2235</ele>
        <time>2020-07-18T02:21:33Z</time>
      </trkpt>
      <trkpt lat="44.77531" lon="6.39271">
        <ele>2229</ele>
        <time>2020-07-18T02:22:38Z</time>
      </trkpt>
      <trkpt lat="44.77502" lon="6.39235">
        <ele>2224</ele>
        <time>2020-07-18T02:23:29Z</time>
      </trkpt>
      <trkpt lat="44.7747" lon="6.39157">
        <ele>2228</ele>
        <time>2020-07-18T02:24:54Z</time>
      </trkpt>
      <trkpt lat="44.77471" lon="6.39093">
        <ele>2234</ele>
        <time>2020-07-18T02:25:55Z</time>
      </trkpt>
      <trkpt lat="44.77468" lon="6.39022">
        <ele>2239</ele>
        <time>2020-07-18T02:27:02Z</time>
      </trkpt>
      <trkpt lat="44.77433" lon="6.38898">
        <ele>2247</ele>
        <time>2020-07-18T02:29:09Z</time>
      </trkpt>
      <trkpt lat="44.77422" lon="6.38827">
        <ele>2250</ele>
        <time>2020-07-18T02:30:18Z</time>
      </trkpt>
      <trkpt lat="44.77438" lon="6.38754">
        <ele>2257</ele>
        <time>2020-07-18T02:31:30Z</time>
      </trkpt>
      <trkpt lat="44.77424" lon="6.387">
        <ele>2260</ele>
        <time>2020-07-18T02:32:25Z</time>
      </trkpt>
      <trkpt lat="44.77403" lon="6.38644">
        <ele>2265</ele>
        <time>2020-07-18T02:33:25Z</time>
      </trkpt>
      <trkpt lat="44.77379" lon="6.38563">
        <ele>2271</ele>
        <time>2020-07-18T02:34:48Z</time>
      </trkpt>
      <trkpt lat="44.77372" lon="6.38531">
        <ele>2271</ele>
        <time>2020-07-18T02:35:19Z</time>
      </trkpt>
      <trkpt lat="44.77369" lon="6.38503">
        <ele>2271</ele>
        <time>2020-07-18T02:35:46Z</time>
      </trkpt>
      <trkpt lat="44.77355" lon="6.38478">
        <ele>2271</ele>
        <time>2020-07-18T02:36:16Z</time>
      </trkpt>
      <trkpt lat="44.77348" lon="6.38456">
        <ele>2272</ele>
        <time>2020-07-18T02:36:39Z</time>
      </trkpt>
      <trkpt lat="44.7732" lon="6.38398">
        <ele>2274</ele>
        <time>2020-07-18T02:37:46Z</time>
      </trkpt>
      <trkpt lat="44.77299" lon="6.38364">
        <ele>2276</ele>
        <time>2020-07-18T02:38:28Z</time>
      </trkpt>
      <trkpt lat="44.77286" lon="6.38357">
        <ele>2277</ele>
        <time>2020-07-18T02:38:47Z</time>
      </trkpt>
      <trkpt lat="44.7728" lon="6.38344">
        <ele>2277</ele>
        <time>2020-07-18T02:39:02Z</time>
      </trkpt>
      <trkpt lat="44.7727" lon="6.38342">
        <ele>2277</ele>
        <time>2020-07-18T02:39:15Z</time>
      </trkpt>
      <trkpt lat="44.77259" lon="6.38328">
        <ele>2278</ele>
        <time>2020-07-18T02:39:35Z</time>
      </trkpt>
      <trkpt lat="44.77259" lon="6.383">
        <ele>2281</ele>
        <time>2020-07-18T02:40:01Z</time>
      </trkpt>
      <trkpt lat="44.77255" lon="6.38294">
        <ele>2281</ele>
        <time>2020-07-18T02:40:09Z</time>
      </trkpt>
      <trkpt lat="44.77223" lon="6.38281">
        <ele>2284</ele>
        <time>2020-07-18T02:40:54Z</time>
      </trkpt>
      <trkpt lat="44.77216" lon="6.38273">
        <ele>2285</ele>
        <time>2020-07-18T02:41:06Z</time>
      </trkpt>
      <trkpt lat="44.7721" lon="6.38262">
        <ele>2286</ele>
        <time>2020-07-18T02:41:19Z</time>
      </trkpt>
      <trkpt lat="44.772" lon="6.38265">
        <ele>2286</ele>
        <time>2020-07-18T02:41:33Z</time>
      </trkpt>
      <trkpt lat="44.77171" lon="6.38254">
        <ele>2288</ele>
        <time>2020-07-18T02:42:13Z</time>
      </trkpt>
      <trkpt lat="44.77157" lon="6.3823">
        <ele>2290</ele>
        <time>2020-07-18T02:42:42Z</time>
      </trkpt>
      <trkpt lat="44.77154" lon="6.38214">
        <ele>2290</ele>
        <time>2020-07-18T02:42:58Z</time>
      </trkpt>
      <trkpt lat="44.77151" lon="6.38204">
        <ele>2291</ele>
        <time>2020-07-18T02:43:08Z</time>
      </trkpt>
      <trkpt lat="44.77135" lon="6.38187">
        <ele>2292</ele>
        <time>2020-07-18T02:43:35Z</time>
      </trkpt>
      <trkpt lat="44.77134" lon="6.38183">
        <ele>2292</ele>
        <time>2020-07-18T02:43:39Z</time>
      </trkpt>
      <trkpt lat="44.7713" lon="6.3818">
        <ele>2292</ele>
        <time>2020-07-18T02:43:45Z</time>
      </trkpt>
      <trkpt lat="44.77123" lon="6.38184">
        <ele>2293</ele>
        <time>2020-07-18T02:43:55Z</time>
      </trkpt>
      <trkpt lat="44.7711" lon="6.38174">
        <ele>2293</ele>
        <time>2020-07-18T02:44:15Z</time>
      </trkpt>
      <trkpt lat="44.77104" lon="6.38167">
        <ele>2293</ele>
        <time>2020-07-18T02:44:25Z</time>
      </trkpt>
      <trkpt lat="44.77103" lon="6.38158">
        <ele>2293</ele>
        <time>2020-07-18T02:44:34Z</time>
      </trkpt>
      <trkpt lat="44.77108" lon="6.38139">
        <ele>2294</ele>
        <time>2020-07-18T02:44:53Z</time>
      </trkpt>
      <trkpt lat="44.77108" lon="6.3812">
        <ele>2294</ele>
        <time>2020-07-18T02:45:11Z</time>
      </trkpt>
      <trkpt lat="44.77101" lon="6.38091">
        <ele>2294</ele>
        <time>2020-07-18T02:45:40Z</time>
      </trkpt>
      <trkpt lat="44.77076" lon="6.38048">
        <ele>2297</ele>
        <time>2020-07-18T02:46:33Z</time>
      </trkpt>
      <trkpt lat="44.77054" lon="6.38021">
        <ele>2300</ele>
        <time>2020-07-18T02:47:11Z</time>
      </trkpt>
      <trkpt lat="44.77046" lon="6.38008">
        <ele>2301</ele>
        <time>2020-07-18T02:47:28Z</time>
      </trkpt>
      <trkpt lat="44.77036" lon="6.37999">
        <ele>2301</ele>
        <time>2020-07-18T02:47:44Z</time>
      </trkpt>
      <trkpt lat="44.7703" lon="6.37988">
        <ele>2302</ele>
        <time>2020-07-18T02:47:57Z</time>
      </trkpt>
      <trkpt lat="44.77008" lon="6.37934">
        <ele>2304</ele>
        <time>2020-07-18T02:48:56Z</time>
      </trkpt>
      <trkpt lat="44.76965" lon="6.37802">
        <ele>2321</ele>
        <time>2020-07-18T02:51:13Z</time>
      </trkpt>
      <trkpt lat="44.76953" lon="6.3777">
        <ele>2325</ele>
        <time>2020-07-18T02:51:48Z</time>
      </trkpt>
      <trkpt lat="44.76935" lon="6.37745">
        <ele>2327</ele>
        <time>2020-07-18T02:52:21Z</time>
      </trkpt>
      <trkpt lat="44.76934" lon="6.37738">
        <ele>2328</ele>
        <time>2020-07-18T02:52:28Z</time>
      </trkpt>
      <trkpt lat="44.76927" lon="6.37735">
        <ele>2327</ele>
        <time>2020-07-18T02:52:38Z</time>
      </trkpt>
      <trkpt lat="44.76922" lon="6.37727">
        <ele>2328</ele>
        <time>2020-07-18T02:52:48Z</time>
      </trkpt>
      <trkpt lat="44.76922" lon="6.37717">
        <ele>2330</ele>
        <time>2020-07-18T02:52:57Z</time>
      </trkpt>
      <trkpt lat="44.76892" lon="6.37687">
        <ele>2334</ele>
        <time>2020-07-18T02:53:47Z</time>
      </trkpt>
      <trkpt lat="44.76882" lon="6.37685">
        <ele>2335</ele>
        <time>2020-07-18T02:54:00Z</time>
      </trkpt>
      <trkpt lat="44.76868" lon="6.37691">
        <ele>2335</ele>
        <time>2020-07-18T02:54:20Z</time>
      </trkpt>
      <trkpt lat="44.76856" lon="6.37685">
        <ele>2336</ele>
        <time>2020-07-18T02:54:37Z</time>
      </trkpt>
      <trkpt lat="44.76842" lon="6.37683">
        <ele>2336</ele>
        <time>2020-07-18T02:54:55Z</time>
      </trkpt>
      <trkpt lat="44.76835" lon="6.37678">
        <ele>2337</ele>
        <time>2020-07-18T02:55:06Z</time>
      </trkpt>
      <trkpt lat="44.76822" lon="6.37653">
        <ele>2341</ele>
        <time>2020-07-18T02:55:35Z</time>
      </trkpt>
      <trkpt lat="44.7682" lon="6.37635">
        <ele>2344</ele>
        <time>2020-07-18T02:55:52Z</time>
      </trkpt>
      <trkpt lat="44.7681" lon="6.3761">
        <ele>2347</ele>
        <time>2020-07-18T02:56:20Z</time>
      </trkpt>
      <trkpt lat="44.76812" lon="6.37603">
        <ele>2348</ele>
        <time>2020-07-18T02:56:27Z</time>
      </trkpt>
      <trkpt lat="44.76804" lon="6.37593">
        <ele>2350</ele>
        <time>2020-07-18T02:56:41Z</time>
      </trkpt>
      <trkpt lat="44.76785" lon="6.37587">
        <ele>2351</ele>
        <time>2020-07-18T02:57:07Z</time>
      </trkpt>
      <trkpt lat="44.76783" lon="6.37569">
        <ele>2355</ele>
        <time>2020-07-18T02:57:24Z</time>
      </trkpt>
      <trkpt lat="44.76772" lon="6.37538">
        <ele>2361</ele>
        <time>2020-07-18T02:57:57Z</time>
      </trkpt>
      <trkpt lat="44.76759" lon="6.37524">
        <ele>2363</ele>
        <time>2020-07-18T02:58:19Z</time>
      </trkpt>
      <trkpt lat="44.76745" lon="6.37514">
        <ele>2365</ele>
        <time>2020-07-18T02:58:40Z</time>
      </trkpt>
      <trkpt lat="44.76709" lon="6.37471">
        <ele>2374</ele>
        <time>2020-07-18T02:59:43Z</time>
      </trkpt>
      <trkpt lat="44.76704" lon="6.37441">
        <ele>2378</ele>
        <time>2020-07-18T03:00:12Z</time>
      </trkpt>
      <trkpt lat="44.767" lon="6.37403">
        <ele>2382</ele>
        <time>2020-07-18T03:00:48Z</time>
      </trkpt>
      <trkpt lat="44.76702" lon="6.37379">
        <ele>2386</ele>
        <time>2020-07-18T03:01:11Z</time>
      </trkpt>
      <trkpt lat="44.76707" lon="6.37347">
        <ele>2391</ele>
        <time>2020-07-18T03:01:42Z</time>
      </trkpt>
      <trkpt lat="44.76711" lon="6.37317">
        <ele>2396</ele>
        <time>2020-07-18T03:02:11Z</time>
      </trkpt>
      <trkpt lat="44.76707" lon="6.37292">
        <ele>2401</ele>
        <time>2020-07-18T03:02:36Z</time>
      </trkpt>
      <trkpt lat="44.76708" lon="6.37257">
        <ele>2408</ele>
        <time>2020-07-18T03:03:09Z</time>
      </trkpt>
      <trkpt lat="44.76703" lon="6.37219">
        <ele>2411</ele>
        <time>2020-07-18T03:03:45Z</time>
      </trkpt>
      <trkpt lat="44.76693" lon="6.37175">
        <ele>2413</ele>
        <time>2020-07-18T03:04:29Z</time>
      </trkpt>
      <trkpt lat="44.76671" lon="6.37145">
        <ele>2413</ele>
        <time>2020-07-18T03:05:10Z</time>
      </trkpt>
      <trkpt lat="44.76653" lon="6.37106">
        <ele>2417</ele>
        <time>2020-07-18T03:05:54Z</time>
      </trkpt>
      <trkpt lat="44.76626" lon="6.37069">
        <ele>2420</ele>
        <time>2020-07-18T03:06:44Z</time>
      </trkpt>
      <trkpt lat="44.76591" lon="6.37044">
        <ele>2421</ele>
        <time>2020-07-18T03:07:37Z</time>
      </trkpt>
      <trkpt lat="44.76574" lon="6.37009">
        <ele>2425</ele>
        <time>2020-07-18T03:08:17Z</time>
      </trkpt>
      <trkpt lat="44.76553" lon="6.36999">
        <ele>2426</ele>
        <time>2020-07-18T03:08:47Z</time>
      </trkpt>
      <trkpt lat="44.76546" lon="6.3693">
        <ele>2435</ele>
        <time>2020-07-18T03:09:53Z</time>
      </trkpt>
      <trkpt lat="44.76557" lon="6.36878">
        <ele>2441</ele>
        <time>2020-07-18T03:10:44Z</time>
      </trkpt>
      <trkpt lat="44.76549" lon="6.36859">
        <ele>2443</ele>
        <time>2020-07-18T03:11:05Z</time>
      </trkpt>
      <trkpt lat="44.76574" lon="6.36806">
        <ele>2450</ele>
        <time>2020-07-18T03:12:05Z</time>
      </trkpt>
      <trkpt lat="44.76575" lon="6.36778">
        <ele>2452</ele>
        <time>2020-07-18T03:12:32Z</time>
      </trkpt>
      <trkpt lat="44.76586" lon="6.36769">
        <ele>2455</ele>
        <time>2020-07-18T03:12:49Z</time>
      </trkpt>
      <trkpt lat="44.76588" lon="6.36743">
        <ele>2457</ele>
        <time>2020-07-18T03:13:14Z</time>
      </trkpt>
      <trkpt lat="44.76601" lon="6.36709">
        <ele>2462</ele>
        <time>2020-07-18T03:13:50Z</time>
      </trkpt>
      <trkpt lat="44.76632" lon="6.36722">
        <ele>2467</ele>
        <time>2020-07-18T03:14:33Z</time>
      </trkpt>
      <trkpt lat="44.76653" lon="6.36688">
        <ele>2473</ele>
        <time>2020-07-18T03:15:16Z</time>
      </trkpt>
      <trkpt lat="44.76692" lon="6.36645">
        <ele>2481</ele>
        <time>2020-07-18T03:16:22Z</time>
      </trkpt>
      <trkpt lat="44.76729" lon="6.36609">
        <ele>2486</ele>
        <time>2020-07-18T03:17:22Z</time>
      </trkpt>
      <trkpt lat="44.76755" lon="6.36571">
        <ele>2489</ele>
        <time>2020-07-18T03:18:12Z</time>
      </trkpt>
      <trkpt lat="44.76771" lon="6.36546">
        <ele>2492</ele>
        <time>2020-07-18T03:18:44Z</time>
      </trkpt>
      <trkpt lat="44.76781" lon="6.36541">
        <ele>2493</ele>
        <time>2020-07-18T03:18:58Z</time>
      </trkpt>
      <trkpt lat="44.76786" lon="6.36527">
        <ele>2494</ele>
        <time>2020-07-18T03:19:13Z</time>
      </trkpt>
      <trkpt lat="44.76818" lon="6.36479">
        <ele>2499</ele>
        <time>2020-07-18T03:20:15Z</time>
      </trkpt>
      <trkpt lat="44.76842" lon="6.3642">
        <ele>2506</ele>
        <time>2020-07-18T03:21:20Z</time>
      </trkpt>
      <trkpt lat="44.76851" lon="6.36372">
        <ele>2511</ele>
        <time>2020-07-18T03:22:07Z</time>
      </trkpt>
      <trkpt lat="44.76851" lon="6.36278">
        <ele>2518</ele>
        <time>2020-07-18T03:23:36Z</time>
      </trkpt>
      <trkpt lat="44.76874" lon="6.36211">
        <ele>2528</ele>
        <time>2020-07-18T03:24:46Z</time>
      </trkpt>
      <trkpt lat="44.7688" lon="6.36153">
        <ele>2531</ele>
        <time>2020-07-18T03:25:42Z</time>
      </trkpt>
      <trkpt lat="44.76927" lon="6.36085">
        <ele>2543</ele>
        <time>2020-07-18T03:27:12Z</time>
      </trkpt>
      <trkpt lat="44.76956" lon="6.36048">
        <ele>2552</ele>
        <time>2020-07-18T03:28:04Z</time>
      </trkpt>
      <trkpt lat="44.76983" lon="6.35983">
        <ele>2564</ele>
        <time>2020-07-18T03:29:15Z</time>
      </trkpt>
      <trkpt lat="44.76993" lon="6.35941">
        <ele>2574</ele>
        <time>2020-07-18T03:29:57Z</time>
      </trkpt>
      <trkpt lat="44.76985" lon="6.35806">
        <ele>2613</ele>
        <time>2020-07-18T03:32:06Z</time>
      </trkpt>
      <trkpt lat="44.76973" lon="6.35746">
        <ele>2633</ele>
        <time>2020-07-18T03:33:05Z</time>
      </trkpt>
      <trkpt lat="44.76941" lon="6.35705">
        <ele>2647</ele>
        <time>2020-07-18T03:34:02Z</time>
      </trkpt>
      <trkpt lat="44.76911" lon="6.35692">
        <ele>2647</ele>
        <time>2020-07-18T03:34:44Z</time>
      </trkpt>
      <trkpt lat="44.7688" lon="6.35666">
        <ele>2653</ele>
        <time>2020-07-18T03:35:32Z</time>
      </trkpt>
      <trkpt lat="44.76871" lon="6.35625">
        <ele>2665</ele>
        <time>2020-07-18T03:36:13Z</time>
      </trkpt>
      <trkpt lat="44.76857" lon="6.35582">
        <ele>2676</ele>
        <time>2020-07-18T03:36:58Z</time>
      </trkpt>
      <trkpt lat="44.7684" lon="6.35546">
        <ele>2683</ele>
        <time>2020-07-18T03:37:39Z</time>
      </trkpt>
      <trkpt lat="44.76851" lon="6.35486">
        <ele>2708</ele>
        <time>2020-07-18T03:38:38Z</time>
      </trkpt>
      <trkpt lat="44.76816" lon="6.35462">
        <ele>2712</ele>
        <time>2020-07-18T03:39:30Z</time>
      </trkpt>
      <trkpt lat="44.76812" lon="6.35438">
        <ele>2718</ele>
        <time>2020-07-18T03:39:53Z</time>
      </trkpt>
      <trkpt lat="44.76845" lon="6.35397">
        <ele>2727</ele>
        <time>2020-07-18T03:40:52Z</time>
      </trkpt>
      <trkpt lat="44.76895" lon="6.35435">
        <ele>2738</ele>
        <time>2020-07-18T03:42:07Z</time>
      </trkpt>
      <trkpt lat="44.76948" lon="6.35509">
        <ele>2734</ele>
        <time>2020-07-18T03:43:47Z</time>
      </trkpt>
      <trkpt lat="44.76967" lon="6.35533">
        <ele>2733</ele>
        <time>2020-07-18T03:44:21Z</time>
      </trkpt>
      <trkpt lat="44.76972" lon="6.35551">
        <ele>2728</ele>
        <time>2020-07-18T03:44:39Z</time>
      </trkpt>
      <trkpt lat="44.76982" lon="6.35564">
        <ele>2727</ele>
        <time>2020-07-18T03:44:58Z</time>
      </trkpt>
      <trkpt lat="44.76999" lon="6.35581">
        <ele>2727</ele>
        <time>2020-07-18T03:45:25Z</time>
      </trkpt>
      <trkpt lat="44.77028" lon="6.35603">
        <ele>2719</ele>
        <time>2020-07-18T03:46:09Z</time>
      </trkpt>
      <trkpt lat="44.77107" lon="6.35619">
        <ele>2732</ele>
        <time>2020-07-18T03:47:56Z</time>
      </trkpt>
      <trkpt lat="44.7712" lon="6.3564">
        <ele>2724</ele>
        <time>2020-07-18T03:48:22Z</time>
      </trkpt>
      <trkpt lat="44.77147" lon="6.35672">
        <ele>2714</ele>
        <time>2020-07-18T03:49:09Z</time>
      </trkpt>
      <trkpt lat="44.77162" lon="6.35675">
        <ele>2719</ele>
        <time>2020-07-18T03:49:30Z</time>
      </trkpt>
      <trkpt lat="44.77178" lon="6.35687">
        <ele>2719</ele>
        <time>2020-07-18T03:49:54Z</time>
      </trkpt>
      <trkpt lat="44.77204" lon="6.35683">
        <ele>2732</ele>
        <time>2020-07-18T03:50:29Z</time>
      </trkpt>
      <trkpt lat="44.77224" lon="6.35706">
        <ele>2729</ele>
        <time>2020-07-18T03:51:03Z</time>
      </trkpt>
      <trkpt lat="44.77237" lon="6.3571">
        <ele>2733</ele>
        <time>2020-07-18T03:51:21Z</time>
      </trkpt>
      <trkpt lat="44.77254" lon="6.35703">
        <ele>2744</ele>
        <time>2020-07-18T03:51:45Z</time>
      </trkpt>
      <trkpt lat="44.77257" lon="6.35716">
        <ele>2740</ele>
        <time>2020-07-18T03:51:57Z</time>
      </trkpt>
      <trkpt lat="44.77265" lon="6.35725">
        <ele>2740</ele>
        <time>2020-07-18T03:52:11Z</time>
      </trkpt>
      <trkpt lat="44.77278" lon="6.35729">
        <ele>2745</ele>
        <time>2020-07-18T03:52:29Z</time>
      </trkpt>
      <trkpt lat="44.77289" lon="6.35717">
        <ele>2756</ele>
        <time>2020-07-18T03:52:47Z</time>
      </trkpt>
      <trkpt lat="44.77285" lon="6.35742">
        <ele>2743</ele>
        <time>2020-07-18T03:53:12Z</time>
      </trkpt>
      <trkpt lat="44.77288" lon="6.35757">
        <ele>2739</ele>
        <time>2020-07-18T03:53:26Z</time>
      </trkpt>
      <trkpt lat="44.77294" lon="6.35774">
        <ele>2737</ele>
        <time>2020-07-18T03:53:44Z</time>
      </trkpt>
      <trkpt lat="44.77312" lon="6.35785">
        <ele>2744</ele>
        <time>2020-07-18T03:54:11Z</time>
      </trkpt>
      <trkpt lat="44.7734" lon="6.35807">
        <ele>2753</ele>
        <time>2020-07-18T03:54:53Z</time>
      </trkpt>
      <trkpt lat="44.77364" lon="6.35837">
        <ele>2756</ele>
        <time>2020-07-18T03:55:36Z</time>
      </trkpt>
      <trkpt lat="44.77378" lon="6.35851">
        <ele>2759</ele>
        <time>2020-07-18T03:55:59Z</time>
      </trkpt>
      <trkpt lat="44.77387" lon="6.35875">
        <ele>2757</ele>
        <time>2020-07-18T03:56:25Z</time>
      </trkpt>
      <trkpt lat="44.77398" lon="6.35895">
        <ele>2758</ele>
        <time>2020-07-18T03:56:49Z</time>
      </trkpt>
      <trkpt lat="44.77409" lon="6.3597">
        <ele>2747</ele>
        <time>2020-07-18T03:58:01Z</time>
      </trkpt>
      <trkpt lat="44.77446" lon="6.36111">
        <ele>2715</ele>
        <time>2020-07-18T04:00:24Z</time>
      </trkpt>
      <trkpt lat="44.77409" lon="6.3597">
        <ele>2747</ele>
        <time>2020-07-18T04:02:46Z</time>
      </trkpt>
      <trkpt lat="44.77398" lon="6.35895">
        <ele>2758</ele>
        <time>2020-07-18T04:03:59Z</time>
      </trkpt>
      <trkpt lat="44.77387" lon="6.35875">
        <ele>2757</ele>
        <time>2020-07-18T04:04:23Z</time>
      </trkpt>
      <trkpt lat="44.77378" lon="6.35851">
        <ele>2759</ele>
        <time>2020-07-18T04:04:48Z</time>
      </trkpt>
      <trkpt lat="44.77364" lon="6.35837">
        <ele>2756</ele>
        <time>2020-07-18T04:05:11Z</time>
      </trkpt>
      <trkpt lat="44.7734" lon="6.35807">
        <ele>2753</ele>
        <time>2020-07-18T04:05:54Z</time>
      </trkpt>
      <trkpt lat="44.77312" lon="6.35785">
        <ele>2744</ele>
        <time>2020-07-18T04:06:37Z</time>
      </trkpt>
      <trkpt lat="44.77294" lon="6.35774">
        <ele>2737</ele>
        <time>2020-07-18T04:07:03Z</time>
      </trkpt>
      <trkpt lat="44.77288" lon="6.35757">
        <ele>2739</ele>
        <time>2020-07-18T04:07:21Z</time>
      </trkpt>
      <trkpt lat="44.77285" lon="6.35742">
        <ele>2743</ele>
        <time>2020-07-18T04:07:36Z</time>
      </trkpt>
      <trkpt lat="44.77289" lon="6.35717">
        <ele>2756</ele>
        <time>2020-07-18T04:08:00Z</time>
      </trkpt>
      <trkpt lat="44.77278" lon="6.35729">
        <ele>2745</ele>
        <time>2020-07-18T04:08:19Z</time>
      </trkpt>
      <trkpt lat="44.77265" lon="6.35725">
        <ele>2740</ele>
        <time>2020-07-18T04:08:36Z</time>
      </trkpt>
      <trkpt lat="44.77257" lon="6.35716">
        <ele>2740</ele>
        <time>2020-07-18T04:08:50Z</time>
      </trkpt>
      <trkpt lat="44.77254" lon="6.35703">
        <ele>2744</ele>
        <time>2020-07-18T04:09:03Z</time>
      </trkpt>
      <trkpt lat="44.77237" lon="6.3571">
        <ele>2733</ele>
        <time>2020-07-18T04:09:27Z</time>
      </trkpt>
      <trkpt lat="44.77224" lon="6.35706">
        <ele>2729</ele>
        <time>2020-07-18T04:09:45Z</time>
      </trkpt>
      <trkpt lat="44.77204" lon="6.35683">
        <ele>2732</ele>
        <time>2020-07-18T04:10:19Z</time>
      </trkpt>
      <trkpt lat="44.77178" lon="6.35687">
        <ele>2719</ele>
        <time>2020-07-18T04:10:54Z</time>
      </trkpt>
      <trkpt lat="44.77162" lon="6.35675">
        <ele>2719</ele>
        <time>2020-07-18T04:11:18Z</time>
      </trkpt>
      <trkpt lat="44.77147" lon="6.35672">
        <ele>2714</ele>
        <time>2020-07-18T04:11:38Z</time>
      </trkpt>
      <trkpt lat="44.7712" lon="6.3564">
        <ele>2724</ele>
        <time>2020-07-18T04:12:25Z</time>
      </trkpt>
      <trkpt lat="44.77107" lon="6.35619">
        <ele>2732</ele>
        <time>2020-07-18T04:12:52Z</time>
      </trkpt>
      <trkpt lat="44.77028" lon="6.35603">
        <ele>2719</ele>
        <time>2020-07-18T04:14:38Z</time>
      </trkpt>
      <trkpt lat="44.76999" lon="6.35581">
        <ele>2727</ele>
        <time>2020-07-18T04:15:22Z</time>
      </trkpt>
      <trkpt lat="44.76982" lon="6.35564">
        <ele>2727</ele>
        <time>2020-07-18T04:15:50Z</time>
      </trkpt>
      <trkpt lat="44.76972" lon="6.35551">
        <ele>2728</ele>
        <time>2020-07-18T04:16:08Z</time>
      </trkpt>
      <trkpt lat="44.76967" lon="6.35533">
        <ele>2733</ele>
        <time>2020-07-18T04:16:27Z</time>
      </trkpt>
      <trkpt lat="44.76948" lon="6.35509">
        <ele>2734</ele>
        <time>2020-07-18T04:17:01Z</time>
      </trkpt>
      <trkpt lat="44.76895" lon="6.35435">
        <ele>2738</ele>
        <time>2020-07-18T04:18:40Z</time>
      </trkpt>
      <trkpt lat="44.76845" lon="6.35397">
        <ele>2727</ele>
        <time>2020-07-18T04:19:56Z</time>
      </trkpt>
      <trkpt lat="44.76846" lon="6.3538">
        <ele>2729</ele>
        <time>2020-07-18T04:20:12Z</time>
      </trkpt>
      <trkpt lat="44.76845" lon="6.35341">
        <ele>2730</ele>
        <time>2020-07-18T04:20:49Z</time>
      </trkpt>
      <trkpt lat="44.76847" lon="6.3531">
        <ele>2730</ele>
        <time>2020-07-18T04:21:19Z</time>
      </trkpt>
      <trkpt lat="44.76845" lon="6.35304">
        <ele>2728</ele>
        <time>2020-07-18T04:21:25Z</time>
      </trkpt>
      <trkpt lat="44.76844" lon="6.35274">
        <ele>2724</ele>
        <time>2020-07-18T04:21:53Z</time>
      </trkpt>
      <trkpt lat="44.76831" lon="6.35298">
        <ele>2719</ele>
        <time>2020-07-18T04:22:22Z</time>
      </trkpt>
      <trkpt lat="44.76829" lon="6.35307">
        <ele>2719</ele>
        <time>2020-07-18T04:22:31Z</time>
      </trkpt>
      <trkpt lat="44.7683" lon="6.35315">
        <ele>2721</ele>
        <time>2020-07-18T04:22:39Z</time>
      </trkpt>
      <trkpt lat="44.76807" lon="6.35344">
        <ele>2716</ele>
        <time>2020-07-18T04:23:20Z</time>
      </trkpt>
      <trkpt lat="44.76805" lon="6.35339">
        <ele>2715</ele>
        <time>2020-07-18T04:23:25Z</time>
      </trkpt>
      <trkpt lat="44.76808" lon="6.35317">
        <ele>2713</ele>
        <time>2020-07-18T04:23:46Z</time>
      </trkpt>
      <trkpt lat="44.76807" lon="6.3531">
        <ele>2711</ele>
        <time>2020-07-18T04:23:53Z</time>
      </trkpt>
      <trkpt lat="44.76799" lon="6.35304">
        <ele>2707</ele>
        <time>2020-07-18T04:24:05Z</time>
      </trkpt>
      <trkpt lat="44.76795" lon="6.35285">
        <ele>2702</ele>
        <time>2020-07-18T04:24:24Z</time>
      </trkpt>
      <trkpt lat="44.76804" lon="6.35258">
        <ele>2702</ele>
        <time>2020-07-18T04:24:52Z</time>
      </trkpt>
      <trkpt lat="44.76789" lon="6.3519">
        <ele>2690</ele>
        <time>2020-07-18T04:26:00Z</time>
      </trkpt>
      <trkpt lat="44.76786" lon="6.35188">
        <ele>2688</ele>
        <time>2020-07-18T04:26:04Z</time>
      </trkpt>
      <trkpt lat="44.76774" lon="6.35217">
        <ele>2684</ele>
        <time>2020-07-18T04:26:36Z</time>
      </trkpt>
      <trkpt lat="44.76772" lon="6.35235">
        <ele>2684</ele>
        <time>2020-07-18T04:26:53Z</time>
      </trkpt>
      <trkpt lat="44.76768" lon="6.35248">
        <ele>2683</ele>
        <time>2020-07-18T04:27:07Z</time>
      </trkpt>
      <trkpt lat="44.76759" lon="6.35261">
        <ele>2681</ele>
        <time>2020-07-18T04:27:24Z</time>
      </trkpt>
      <trkpt lat="44.76752" lon="6.3527">
        <ele>2680</ele>
        <time>2020-07-18T04:27:37Z</time>
      </trkpt>
      <trkpt lat="44.76748" lon="6.35283">
        <ele>2682</ele>
        <time>2020-07-18T04:27:50Z</time>
      </trkpt>
      <trkpt lat="44.76745" lon="6.35287">
        <ele>2682</ele>
        <time>2020-07-18T04:27:55Z</time>
      </trkpt>
      <trkpt lat="44.7673" lon="6.35299">
        <ele>2681</ele>
        <time>2020-07-18T04:28:18Z</time>
      </trkpt>
      <trkpt lat="44.76714" lon="6.35302">
        <ele>2677</ele>
        <time>2020-07-18T04:28:40Z</time>
      </trkpt>
      <trkpt lat="44.76708" lon="6.35301">
        <ele>2675</ele>
        <time>2020-07-18T04:28:48Z</time>
      </trkpt>
      <trkpt lat="44.76703" lon="6.35296">
        <ele>2672</ele>
        <time>2020-07-18T04:28:56Z</time>
      </trkpt>
      <trkpt lat="44.76696" lon="6.35296">
        <ele>2670</ele>
        <time>2020-07-18T04:29:06Z</time>
      </trkpt>
      <trkpt lat="44.7668" lon="6.35304">
        <ele>2667</ele>
        <time>2020-07-18T04:29:28Z</time>
      </trkpt>
      <trkpt lat="44.76665" lon="6.35304">
        <ele>2663</ele>
        <time>2020-07-18T04:29:48Z</time>
      </trkpt>
      <trkpt lat="44.76666" lon="6.35293">
        <ele>2660</ele>
        <time>2020-07-18T04:29:59Z</time>
      </trkpt>
      <trkpt lat="44.76662" lon="6.35279">
        <ele>2655</ele>
        <time>2020-07-18T04:30:13Z</time>
      </trkpt>
      <trkpt lat="44.76674" lon="6.35255">
        <ele>2652</ele>
        <time>2020-07-18T04:30:41Z</time>
      </trkpt>
      <trkpt lat="44.7668" lon="6.35249">
        <ele>2652</ele>
        <time>2020-07-18T04:30:51Z</time>
      </trkpt>
      <trkpt lat="44.76681" lon="6.35238">
        <ele>2651</ele>
        <time>2020-07-18T04:31:01Z</time>
      </trkpt>
      <trkpt lat="44.76677" lon="6.35219">
        <ele>2647</ele>
        <time>2020-07-18T04:31:20Z</time>
      </trkpt>
      <trkpt lat="44.76677" lon="6.35207">
        <ele>2645</ele>
        <time>2020-07-18T04:31:31Z</time>
      </trkpt>
      <trkpt lat="44.76678" lon="6.352">
        <ele>2644</ele>
        <time>2020-07-18T04:31:38Z</time>
      </trkpt>
      <trkpt lat="44.76671" lon="6.35179">
        <ele>2639</ele>
        <time>2020-07-18T04:32:00Z</time>
      </trkpt>
      <trkpt lat="44.76669" lon="6.3519">
        <ele>2640</ele>
        <time>2020-07-18T04:32:11Z</time>
      </trkpt>
      <trkpt lat="44.76664" lon="6.35201">
        <ele>2640</ele>
        <time>2020-07-18T04:32:23Z</time>
      </trkpt>
      <trkpt lat="44.7666" lon="6.35202">
        <ele>2639</ele>
        <time>2020-07-18T04:32:29Z</time>
      </trkpt>
      <trkpt lat="44.76654" lon="6.35191">
        <ele>2635</ele>
        <time>2020-07-18T04:32:42Z</time>
      </trkpt>
      <trkpt lat="44.76648" lon="6.35185">
        <ele>2632</ele>
        <time>2020-07-18T04:32:52Z</time>
      </trkpt>
      <trkpt lat="44.76638" lon="6.35181">
        <ele>2629</ele>
        <time>2020-07-18T04:33:06Z</time>
      </trkpt>
      <trkpt lat="44.76637" lon="6.35182">
        <ele>2628</ele>
        <time>2020-07-18T04:33:07Z</time>
      </trkpt>
      <trkpt lat="44.76636" lon="6.35197">
        <ele>2631</ele>
        <time>2020-07-18T04:33:21Z</time>
      </trkpt>
      <trkpt lat="44.76633" lon="6.35202">
        <ele>2631</ele>
        <time>2020-07-18T04:33:28Z</time>
      </trkpt>
      <trkpt lat="44.76628" lon="6.35204">
        <ele>2630</ele>
        <time>2020-07-18T04:33:35Z</time>
      </trkpt>
      <trkpt lat="44.7662" lon="6.352">
        <ele>2627</ele>
        <time>2020-07-18T04:33:46Z</time>
      </trkpt>
      <trkpt lat="44.76608" lon="6.35176">
        <ele>2619</ele>
        <time>2020-07-18T04:34:14Z</time>
      </trkpt>
      <trkpt lat="44.76598" lon="6.35171">
        <ele>2614</ele>
        <time>2020-07-18T04:34:28Z</time>
      </trkpt>
      <trkpt lat="44.76592" lon="6.35163">
        <ele>2610</ele>
        <time>2020-07-18T04:34:39Z</time>
      </trkpt>
      <trkpt lat="44.76583" lon="6.35162">
        <ele>2607</ele>
        <time>2020-07-18T04:34:51Z</time>
      </trkpt>
      <trkpt lat="44.76577" lon="6.35165">
        <ele>2607</ele>
        <time>2020-07-18T04:34:59Z</time>
      </trkpt>
      <trkpt lat="44.76572" lon="6.35175">
        <ele>2608</ele>
        <time>2020-07-18T04:35:11Z</time>
      </trkpt>
      <trkpt lat="44.7656" lon="6.35185">
        <ele>2609</ele>
        <time>2020-07-18T04:35:30Z</time>
      </trkpt>
      <trkpt lat="44.76544" lon="6.35181">
        <ele>2604</ele>
        <time>2020-07-18T04:35:51Z</time>
      </trkpt>
      <trkpt lat="44.76537" lon="6.35185">
        <ele>2604</ele>
        <time>2020-07-18T04:36:01Z</time>
      </trkpt>
      <trkpt lat="44.76539" lon="6.35175">
        <ele>2602</ele>
        <time>2020-07-18T04:36:11Z</time>
      </trkpt>
      <trkpt lat="44.76545" lon="6.35169">
        <ele>2601</ele>
        <time>2020-07-18T04:36:21Z</time>
      </trkpt>
      <trkpt lat="44.76542" lon="6.35166">
        <ele>2600</ele>
        <time>2020-07-18T04:36:26Z</time>
      </trkpt>
      <trkpt lat="44.76534" lon="6.35164">
        <ele>2597</ele>
        <time>2020-07-18T04:36:37Z</time>
      </trkpt>
      <trkpt lat="44.76531" lon="6.3516">
        <ele>2595</ele>
        <time>2020-07-18T04:36:42Z</time>
      </trkpt>
      <trkpt lat="44.76545" lon="6.3515">
        <ele>2594</ele>
        <time>2020-07-18T04:37:03Z</time>
      </trkpt>
      <trkpt lat="44.76544" lon="6.3514">
        <ele>2590</ele>
        <time>2020-07-18T04:37:13Z</time>
      </trkpt>
      <trkpt lat="44.76538" lon="6.35137">
        <ele>2588</ele>
        <time>2020-07-18T04:37:21Z</time>
      </trkpt>
      <trkpt lat="44.76532" lon="6.35139">
        <ele>2587</ele>
        <time>2020-07-18T04:37:30Z</time>
      </trkpt>
      <trkpt lat="44.76527" lon="6.35139">
        <ele>2586</ele>
        <time>2020-07-18T04:37:36Z</time>
      </trkpt>
      <trkpt lat="44.76526" lon="6.35137">
        <ele>2585</ele>
        <time>2020-07-18T04:37:39Z</time>
      </trkpt>
      <trkpt lat="44.76529" lon="6.35131">
        <ele>2583</ele>
        <time>2020-07-18T04:37:46Z</time>
      </trkpt>
      <trkpt lat="44.76536" lon="6.35129">
        <ele>2584</ele>
        <time>2020-07-18T04:37:55Z</time>
      </trkpt>
      <trkpt lat="44.7654" lon="6.35122">
        <ele>2582</ele>
        <time>2020-07-18T04:38:04Z</time>
      </trkpt>
      <trkpt lat="44.76534" lon="6.3512">
        <ele>2580</ele>
        <time>2020-07-18T04:38:12Z</time>
      </trkpt>
      <trkpt lat="44.76517" lon="6.35124">
        <ele>2578</ele>
        <time>2020-07-18T04:38:35Z</time>
      </trkpt>
      <trkpt lat="44.76508" lon="6.35122">
        <ele>2575</ele>
        <time>2020-07-18T04:38:47Z</time>
      </trkpt>
      <trkpt lat="44.76499" lon="6.35117">
        <ele>2571</ele>
        <time>2020-07-18T04:39:00Z</time>
      </trkpt>
      <trkpt lat="44.76497" lon="6.35112">
        <ele>2569</ele>
        <time>2020-07-18T04:39:05Z</time>
      </trkpt>
      <trkpt lat="44.76499" lon="6.35102">
        <ele>2565</ele>
        <time>2020-07-18T04:39:15Z</time>
      </trkpt>
      <trkpt lat="44.76509" lon="6.35095">
        <ele>2565</ele>
        <time>2020-07-18T04:39:30Z</time>
      </trkpt>
      <trkpt lat="44.76512" lon="6.35091">
        <ele>2564</ele>
        <time>2020-07-18T04:39:36Z</time>
      </trkpt>
      <trkpt lat="44.76499" lon="6.35085">
        <ele>2558</ele>
        <time>2020-07-18T04:39:54Z</time>
      </trkpt>
      <trkpt lat="44.76496" lon="6.35077">
        <ele>2554</ele>
        <time>2020-07-18T04:40:02Z</time>
      </trkpt>
      <trkpt lat="44.76498" lon="6.35063">
        <ele>2546</ele>
        <time>2020-07-18T04:40:16Z</time>
      </trkpt>
      <trkpt lat="44.76479" lon="6.35056">
        <ele>2539</ele>
        <time>2020-07-18T04:40:42Z</time>
      </trkpt>
      <trkpt lat="44.7647" lon="6.35064">
        <ele>2542</ele>
        <time>2020-07-18T04:40:56Z</time>
      </trkpt>
      <trkpt lat="44.76464" lon="6.35066">
        <ele>2542</ele>
        <time>2020-07-18T04:41:05Z</time>
      </trkpt>
      <trkpt lat="44.76463" lon="6.35063">
        <ele>2540</ele>
        <time>2020-07-18T04:41:08Z</time>
      </trkpt>
      <trkpt lat="44.76464" lon="6.35057">
        <ele>2536</ele>
        <time>2020-07-18T04:41:14Z</time>
      </trkpt>
      <trkpt lat="44.76473" lon="6.3503">
        <ele>2522</ele>
        <time>2020-07-18T04:41:42Z</time>
      </trkpt>
      <trkpt lat="44.76486" lon="6.35026">
        <ele>2523</ele>
        <time>2020-07-18T04:42:00Z</time>
      </trkpt>
      <trkpt lat="44.76485" lon="6.35022">
        <ele>2520</ele>
        <time>2020-07-18T04:42:04Z</time>
      </trkpt>
      <trkpt lat="44.76476" lon="6.35015">
        <ele>2514</ele>
        <time>2020-07-18T04:42:17Z</time>
      </trkpt>
      <trkpt lat="44.76471" lon="6.35014">
        <ele>2513</ele>
        <time>2020-07-18T04:42:24Z</time>
      </trkpt>
      <trkpt lat="44.76469" lon="6.35009">
        <ele>2509</ele>
        <time>2020-07-18T04:42:29Z</time>
      </trkpt>
      <trkpt lat="44.76475" lon="6.35006">
        <ele>2509</ele>
        <time>2020-07-18T04:42:38Z</time>
      </trkpt>
      <trkpt lat="44.76474" lon="6.35003">
        <ele>2507</ele>
        <time>2020-07-18T04:42:41Z</time>
      </trkpt>
      <trkpt lat="44.7647" lon="6.34999">
        <ele>2503</ele>
        <time>2020-07-18T04:42:48Z</time>
      </trkpt>
      <trkpt lat="44.76468" lon="6.34994">
        <ele>2500</ele>
        <time>2020-07-18T04:42:53Z</time>
      </trkpt>
      <trkpt lat="44.7646" lon="6.34986">
        <ele>2492</ele>
        <time>2020-07-18T04:43:06Z</time>
      </trkpt>
      <trkpt lat="44.76447" lon="6.34981">
        <ele>2485</ele>
        <time>2020-07-18T04:43:24Z</time>
      </trkpt>
      <trkpt lat="44.76449" lon="6.34975">
        <ele>2482</ele>
        <time>2020-07-18T04:43:30Z</time>
      </trkpt>
      <trkpt lat="44.76455" lon="6.34972">
        <ele>2481</ele>
        <time>2020-07-18T04:43:39Z</time>
      </trkpt>
      <trkpt lat="44.76463" lon="6.34973">
        <ele>2484</ele>
        <time>2020-07-18T04:43:50Z</time>
      </trkpt>
      <trkpt lat="44.76496" lon="6.34981">
        <ele>2498</ele>
        <time>2020-07-18T04:44:34Z</time>
      </trkpt>
      <trkpt lat="44.76502" lon="6.3499">
        <ele>2505</ele>
        <time>2020-07-18T04:44:46Z</time>
      </trkpt>
      <trkpt lat="44.7651" lon="6.34997">
        <ele>2512</ele>
        <time>2020-07-18T04:44:59Z</time>
      </trkpt>
      <trkpt lat="44.76513" lon="6.34996">
        <ele>2512</ele>
        <time>2020-07-18T04:45:03Z</time>
      </trkpt>
      <trkpt lat="44.76503" lon="6.34984">
        <ele>2502</ele>
        <time>2020-07-18T04:45:20Z</time>
      </trkpt>
      <trkpt lat="44.765" lon="6.34974">
        <ele>2494</ele>
        <time>2020-07-18T04:45:31Z</time>
      </trkpt>
      <trkpt lat="44.76504" lon="6.34969">
        <ele>2492</ele>
        <time>2020-07-18T04:45:38Z</time>
      </trkpt>
      <trkpt lat="44.76515" lon="6.34965">
        <ele>2493</ele>
        <time>2020-07-18T04:45:53Z</time>
      </trkpt>
      <trkpt lat="44.76514" lon="6.34963">
        <ele>2492</ele>
        <time>2020-07-18T04:45:55Z</time>
      </trkpt>
      <trkpt lat="44.76497" lon="6.34958">
        <ele>2483</ele>
        <time>2020-07-18T04:46:18Z</time>
      </trkpt>
      <trkpt lat="44.76497" lon="6.34956">
        <ele>2482</ele>
        <time>2020-07-18T04:46:20Z</time>
      </trkpt>
      <trkpt lat="44.76517" lon="6.34947">
        <ele>2482</ele>
        <time>2020-07-18T04:46:48Z</time>
      </trkpt>
      <trkpt lat="44.76506" lon="6.34941">
        <ele>2475</ele>
        <time>2020-07-18T04:47:04Z</time>
      </trkpt>
      <trkpt lat="44.76494" lon="6.34937">
        <ele>2469</ele>
        <time>2020-07-18T04:47:20Z</time>
      </trkpt>
      <trkpt lat="44.76486" lon="6.34938">
        <ele>2467</ele>
        <time>2020-07-18T04:47:31Z</time>
      </trkpt>
      <trkpt lat="44.76485" lon="6.34936">
        <ele>2465</ele>
        <time>2020-07-18T04:47:33Z</time>
      </trkpt>
      <trkpt lat="44.76494" lon="6.34927">
        <ele>2463</ele>
        <time>2020-07-18T04:47:48Z</time>
      </trkpt>
      <trkpt lat="44.76515" lon="6.34913">
        <ele>2461</ele>
        <time>2020-07-18T04:48:19Z</time>
      </trkpt>
      <trkpt lat="44.7651" lon="6.34907">
        <ele>2457</ele>
        <time>2020-07-18T04:48:28Z</time>
      </trkpt>
      <trkpt lat="44.76504" lon="6.34906">
        <ele>2455</ele>
        <time>2020-07-18T04:48:36Z</time>
      </trkpt>
      <trkpt lat="44.76492" lon="6.34899">
        <ele>2448</ele>
        <time>2020-07-18T04:48:53Z</time>
      </trkpt>
      <trkpt lat="44.76485" lon="6.34896">
        <ele>2444</ele>
        <time>2020-07-18T04:49:03Z</time>
      </trkpt>
      <trkpt lat="44.76474" lon="6.34896">
        <ele>2440</ele>
        <time>2020-07-18T04:49:18Z</time>
      </trkpt>
      <trkpt lat="44.7648" lon="6.34884">
        <ele>2437</ele>
        <time>2020-07-18T04:49:32Z</time>
      </trkpt>
      <trkpt lat="44.7649" lon="6.34873">
        <ele>2436</ele>
        <time>2020-07-18T04:49:49Z</time>
      </trkpt>
      <trkpt lat="44.76479" lon="6.34872">
        <ele>2432</ele>
        <time>2020-07-18T04:50:03Z</time>
      </trkpt>
      <trkpt lat="44.76456" lon="6.34875">
        <ele>2424</ele>
        <time>2020-07-18T04:50:34Z</time>
      </trkpt>
      <trkpt lat="44.76462" lon="6.34865">
        <ele>2422</ele>
        <time>2020-07-18T04:50:47Z</time>
      </trkpt>
      <trkpt lat="44.76486" lon="6.34839">
        <ele>2421</ele>
        <time>2020-07-18T04:51:27Z</time>
      </trkpt>
      <trkpt lat="44.76485" lon="6.34836">
        <ele>2419</ele>
        <time>2020-07-18T04:51:30Z</time>
      </trkpt>
      <trkpt lat="44.7644" lon="6.34841">
        <ele>2403</ele>
        <time>2020-07-18T04:52:30Z</time>
      </trkpt>
      <trkpt lat="44.76437" lon="6.34842">
        <ele>2402</ele>
        <time>2020-07-18T04:52:34Z</time>
      </trkpt>
      <trkpt lat="44.76438" lon="6.34837">
        <ele>2400</ele>
        <time>2020-07-18T04:52:39Z</time>
      </trkpt>
      <trkpt lat="44.76445" lon="6.3483">
        <ele>2400</ele>
        <time>2020-07-18T04:52:51Z</time>
      </trkpt>
      <trkpt lat="44.76456" lon="6.34811">
        <ele>2398</ele>
        <time>2020-07-18T04:53:14Z</time>
      </trkpt>
      <trkpt lat="44.7646" lon="6.34804">
        <ele>2397</ele>
        <time>2020-07-18T04:53:23Z</time>
      </trkpt>
      <trkpt lat="44.7646" lon="6.348">
        <ele>2396</ele>
        <time>2020-07-18T04:53:26Z</time>
      </trkpt>
      <trkpt lat="44.76454" lon="6.34798">
        <ele>2393</ele>
        <time>2020-07-18T04:53:35Z</time>
      </trkpt>
      <trkpt lat="44.76437" lon="6.34807">
        <ele>2389</ele>
        <time>2020-07-18T04:53:59Z</time>
      </trkpt>
      <trkpt lat="44.76429" lon="6.34811">
        <ele>2387</ele>
        <time>2020-07-18T04:54:10Z</time>
      </trkpt>
      <trkpt lat="44.76428" lon="6.34808">
        <ele>2386</ele>
        <time>2020-07-18T04:54:13Z</time>
      </trkpt>
      <trkpt lat="44.7644" lon="6.3479">
        <ele>2384</ele>
        <time>2020-07-18T04:54:37Z</time>
      </trkpt>
      <trkpt lat="44.76442" lon="6.34783">
        <ele>2382</ele>
        <time>2020-07-18T04:54:44Z</time>
      </trkpt>
      <trkpt lat="44.76441" lon="6.34781">
        <ele>2381</ele>
        <time>2020-07-18T04:54:46Z</time>
      </trkpt>
      <trkpt lat="44.76429" lon="6.34789">
        <ele>2379</ele>
        <time>2020-07-18T04:55:04Z</time>
      </trkpt>
      <trkpt lat="44.76418" lon="6.34793">
        <ele>2376</ele>
        <time>2020-07-18T04:55:19Z</time>
      </trkpt>
      <trkpt lat="44.76426" lon="6.3478">
        <ele>2375</ele>
        <time>2020-07-18T04:55:35Z</time>
      </trkpt>
      <trkpt lat="44.76427" lon="6.34772">
        <ele>2372</ele>
        <time>2020-07-18T04:55:43Z</time>
      </trkpt>
      <trkpt lat="44.76414" lon="6.34782">
        <ele>2370</ele>
        <time>2020-07-18T04:56:03Z</time>
      </trkpt>
      <trkpt lat="44.76413" lon="6.34779">
        <ele>2369</ele>
        <time>2020-07-18T04:56:06Z</time>
      </trkpt>
      <trkpt lat="44.76419" lon="6.34763">
        <ele>2366</ele>
        <time>2020-07-18T04:56:23Z</time>
      </trkpt>
      <trkpt lat="44.76417" lon="6.34763">
        <ele>2365</ele>
        <time>2020-07-18T04:56:26Z</time>
      </trkpt>
      <trkpt lat="44.76408" lon="6.34772">
        <ele>2364</ele>
        <time>2020-07-18T04:56:41Z</time>
      </trkpt>
      <trkpt lat="44.76407" lon="6.34771">
        <ele>2363</ele>
        <time>2020-07-18T04:56:42Z</time>
      </trkpt>
      <trkpt lat="44.76412" lon="6.34756">
        <ele>2360</ele>
        <time>2020-07-18T04:56:58Z</time>
      </trkpt>
      <trkpt lat="44.76412" lon="6.34754">
        <ele>2359</ele>
        <time>2020-07-18T04:57:00Z</time>
      </trkpt>
      <trkpt lat="44.76401" lon="6.34764">
        <ele>2358</ele>
        <time>2020-07-18T04:57:17Z</time>
      </trkpt>
      <trkpt lat="44.76401" lon="6.34761">
        <ele>2357</ele>
        <time>2020-07-18T04:57:20Z</time>
      </trkpt>
      <trkpt lat="44.76404" lon="6.34749">
        <ele>2354</ele>
        <time>2020-07-18T04:57:32Z</time>
      </trkpt>
      <trkpt lat="44.76403" lon="6.34747">
        <ele>2353</ele>
        <time>2020-07-18T04:57:34Z</time>
      </trkpt>
      <trkpt lat="44.764" lon="6.34748">
        <ele>2352</ele>
        <time>2020-07-18T04:57:39Z</time>
      </trkpt>
      <trkpt lat="44.76394" lon="6.34756">
        <ele>2353</ele>
        <time>2020-07-18T04:57:50Z</time>
      </trkpt>
      <trkpt lat="44.76392" lon="6.34742">
        <ele>2347</ele>
        <time>2020-07-18T04:58:03Z</time>
      </trkpt>
      <trkpt lat="44.7639" lon="6.3475">
        <ele>2349</ele>
        <time>2020-07-18T04:58:11Z</time>
      </trkpt>
      <trkpt lat="44.76388" lon="6.34746">
        <ele>2347</ele>
        <time>2020-07-18T04:58:16Z</time>
      </trkpt>
      <trkpt lat="44.76389" lon="6.34739">
        <ele>2344</ele>
        <time>2020-07-18T04:58:23Z</time>
      </trkpt>
      <trkpt lat="44.76384" lon="6.34743">
        <ele>2344</ele>
        <time>2020-07-18T04:58:30Z</time>
      </trkpt>
      <trkpt lat="44.76383" lon="6.34742">
        <ele>2343</ele>
        <time>2020-07-18T04:58:32Z</time>
      </trkpt>
      <trkpt lat="44.76383" lon="6.34731">
        <ele>2339</ele>
        <time>2020-07-18T04:58:42Z</time>
      </trkpt>
      <trkpt lat="44.76381" lon="6.3473">
        <ele>2338</ele>
        <time>2020-07-18T04:58:45Z</time>
      </trkpt>
      <trkpt lat="44.76377" lon="6.34735">
        <ele>2338</ele>
        <time>2020-07-18T04:58:52Z</time>
      </trkpt>
      <trkpt lat="44.76376" lon="6.34732">
        <ele>2336</ele>
        <time>2020-07-18T04:58:55Z</time>
      </trkpt>
      <trkpt lat="44.76379" lon="6.34719">
        <ele>2333</ele>
        <time>2020-07-18T04:59:08Z</time>
      </trkpt>
      <trkpt lat="44.76376" lon="6.34719">
        <ele>2332</ele>
        <time>2020-07-18T04:59:12Z</time>
      </trkpt>
      <trkpt lat="44.76369" lon="6.34726">
        <ele>2331</ele>
        <time>2020-07-18T04:59:24Z</time>
      </trkpt>
      <trkpt lat="44.76369" lon="6.34714">
        <ele>2327</ele>
        <time>2020-07-18T04:59:35Z</time>
      </trkpt>
      <trkpt lat="44.76374" lon="6.34706">
        <ele>2326</ele>
        <time>2020-07-18T04:59:45Z</time>
      </trkpt>
      <trkpt lat="44.76362" lon="6.3471">
        <ele>2322</ele>
        <time>2020-07-18T05:00:02Z</time>
      </trkpt>
      <trkpt lat="44.7636" lon="6.34714">
        <ele>2323</ele>
        <time>2020-07-18T05:00:06Z</time>
      </trkpt>
      <trkpt lat="44.76359" lon="6.34712">
        <ele>2321</ele>
        <time>2020-07-18T05:00:09Z</time>
      </trkpt>
      <trkpt lat="44.76363" lon="6.34693">
        <ele>2316</ele>
        <time>2020-07-18T05:00:27Z</time>
      </trkpt>
      <trkpt lat="44.76367" lon="6.34688">
        <ele>2316</ele>
        <time>2020-07-18T05:00:35Z</time>
      </trkpt>
      <trkpt lat="44.76367" lon="6.34685">
        <ele>2315</ele>
        <time>2020-07-18T05:00:37Z</time>
      </trkpt>
      <trkpt lat="44.76359" lon="6.34688">
        <ele>2312</ele>
        <time>2020-07-18T05:00:48Z</time>
      </trkpt>
      <trkpt lat="44.76357" lon="6.34685">
        <ele>2310</ele>
        <time>2020-07-18T05:00:52Z</time>
      </trkpt>
      <trkpt lat="44.76365" lon="6.34676">
        <ele>2311</ele>
        <time>2020-07-18T05:01:06Z</time>
      </trkpt>
      <trkpt lat="44.76362" lon="6.34676">
        <ele>2309</ele>
        <time>2020-07-18T05:01:10Z</time>
      </trkpt>
      <trkpt lat="44.76351" lon="6.34685">
        <ele>2308</ele>
        <time>2020-07-18T05:01:27Z</time>
      </trkpt>
      <trkpt lat="44.76345" lon="6.34688">
        <ele>2306</ele>
        <time>2020-07-18T05:01:36Z</time>
      </trkpt>
      <trkpt lat="44.76338" lon="6.34697">
        <ele>2306</ele>
        <time>2020-07-18T05:01:48Z</time>
      </trkpt>
      <trkpt lat="44.76334" lon="6.34715">
        <ele>2311</ele>
        <time>2020-07-18T05:02:06Z</time>
      </trkpt>
      <trkpt lat="44.76328" lon="6.34718">
        <ele>2310</ele>
        <time>2020-07-18T05:02:15Z</time>
      </trkpt>
      <trkpt lat="44.76324" lon="6.34716">
        <ele>2308</ele>
        <time>2020-07-18T05:02:20Z</time>
      </trkpt>
      <trkpt lat="44.76319" lon="6.34707">
        <ele>2302</ele>
        <time>2020-07-18T05:02:31Z</time>
      </trkpt>
      <trkpt lat="44.76314" lon="6.34687">
        <ele>2292</ele>
        <time>2020-07-18T05:02:51Z</time>
      </trkpt>
      <trkpt lat="44.76312" lon="6.34687">
        <ele>2291</ele>
        <time>2020-07-18T05:02:54Z</time>
      </trkpt>
      <trkpt lat="44.76295" lon="6.34715">
        <ele>2295</ele>
        <time>2020-07-18T05:03:29Z</time>
      </trkpt>
      <trkpt lat="44.76291" lon="6.34735">
        <ele>2302</ele>
        <time>2020-07-18T05:03:48Z</time>
      </trkpt>
      <trkpt lat="44.76261" lon="6.34715">
        <ele>2281</ele>
        <time>2020-07-18T05:04:33Z</time>
      </trkpt>
      <trkpt lat="44.76253" lon="6.34712">
        <ele>2277</ele>
        <time>2020-07-18T05:04:44Z</time>
      </trkpt>
      <trkpt lat="44.76232" lon="6.34718">
        <ele>2276</ele>
        <time>2020-07-18T05:05:12Z</time>
      </trkpt>
      <trkpt lat="44.76223" lon="6.34713">
        <ele>2272</ele>
        <time>2020-07-18T05:05:25Z</time>
      </trkpt>
      <trkpt lat="44.7622" lon="6.34709">
        <ele>2270</ele>
        <time>2020-07-18T05:05:31Z</time>
      </trkpt>
      <trkpt lat="44.76208" lon="6.34684">
        <ele>2258</ele>
        <time>2020-07-18T05:05:59Z</time>
      </trkpt>
      <trkpt lat="44.762" lon="6.34678">
        <ele>2254</ele>
        <time>2020-07-18T05:06:11Z</time>
      </trkpt>
      <trkpt lat="44.76198" lon="6.34674">
        <ele>2252</ele>
        <time>2020-07-18T05:06:16Z</time>
      </trkpt>
      <trkpt lat="44.76193" lon="6.34674">
        <ele>2251</ele>
        <time>2020-07-18T05:06:23Z</time>
      </trkpt>
      <trkpt lat="44.7619" lon="6.34671">
        <ele>2249</ele>
        <time>2020-07-18T05:06:28Z</time>
      </trkpt>
      <trkpt lat="44.76183" lon="6.3467">
        <ele>2248</ele>
        <time>2020-07-18T05:06:37Z</time>
      </trkpt>
      <trkpt lat="44.76169" lon="6.34672">
        <ele>2247</ele>
        <time>2020-07-18T05:06:56Z</time>
      </trkpt>
      <trkpt lat="44.7616" lon="6.34671">
        <ele>2247</ele>
        <time>2020-07-18T05:07:08Z</time>
      </trkpt>
      <trkpt lat="44.76157" lon="6.34662">
        <ele>2244</ele>
        <time>2020-07-18T05:07:17Z</time>
      </trkpt>
      <trkpt lat="44.76157" lon="6.34645">
        <ele>2238</ele>
        <time>2020-07-18T05:07:33Z</time>
      </trkpt>
      <trkpt lat="44.76155" lon="6.34639">
        <ele>2236</ele>
        <time>2020-07-18T05:07:40Z</time>
      </trkpt>
      <trkpt lat="44.76142" lon="6.3463">
        <ele>2235</ele>
        <time>2020-07-18T05:07:59Z</time>
      </trkpt>
      <trkpt lat="44.76143" lon="6.34626">
        <ele>2233</ele>
        <time>2020-07-18T05:08:03Z</time>
      </trkpt>
      <trkpt lat="44.76152" lon="6.34619">
        <ele>2230</ele>
        <time>2020-07-18T05:08:17Z</time>
      </trkpt>
      <trkpt lat="44.76171" lon="6.34615">
        <ele>2227</ele>
        <time>2020-07-18T05:08:42Z</time>
      </trkpt>
      <trkpt lat="44.76167" lon="6.34608">
        <ele>2224</ele>
        <time>2020-07-18T05:08:51Z</time>
      </trkpt>
      <trkpt lat="44.76139" lon="6.34592">
        <ele>2221</ele>
        <time>2020-07-18T05:09:31Z</time>
      </trkpt>
      <trkpt lat="44.76136" lon="6.34589">
        <ele>2220</ele>
        <time>2020-07-18T05:09:36Z</time>
      </trkpt>
      <trkpt lat="44.76137" lon="6.34586">
        <ele>2219</ele>
        <time>2020-07-18T05:09:39Z</time>
      </trkpt>
      <trkpt lat="44.76186" lon="6.34563">
        <ele>2210</ele>
        <time>2020-07-18T05:10:48Z</time>
      </trkpt>
      <trkpt lat="44.76185" lon="6.34559">
        <ele>2208</ele>
        <time>2020-07-18T05:10:52Z</time>
      </trkpt>
      <trkpt lat="44.76178" lon="6.34551">
        <ele>2206</ele>
        <time>2020-07-18T05:11:04Z</time>
      </trkpt>
      <trkpt lat="44.76131" lon="6.3453">
        <ele>2199</ele>
        <time>2020-07-18T05:12:10Z</time>
      </trkpt>
      <trkpt lat="44.7613" lon="6.34526">
        <ele>2197</ele>
        <time>2020-07-18T05:12:14Z</time>
      </trkpt>
      <trkpt lat="44.76164" lon="6.345">
        <ele>2190</ele>
        <time>2020-07-18T05:13:06Z</time>
      </trkpt>
      <trkpt lat="44.76209" lon="6.34475">
        <ele>2177</ele>
        <time>2020-07-18T05:14:10Z</time>
      </trkpt>
      <trkpt lat="44.76208" lon="6.3447">
        <ele>2175</ele>
        <time>2020-07-18T05:14:15Z</time>
      </trkpt>
      <trkpt lat="44.76203" lon="6.34464">
        <ele>2174</ele>
        <time>2020-07-18T05:14:24Z</time>
      </trkpt>
      <trkpt lat="44.76186" lon="6.34427">
        <ele>2162</ele>
        <time>2020-07-18T05:15:06Z</time>
      </trkpt>
      <trkpt lat="44.76179" lon="6.3442">
        <ele>2160</ele>
        <time>2020-07-18T05:15:17Z</time>
      </trkpt>
      <trkpt lat="44.76168" lon="6.34416">
        <ele>2160</ele>
        <time>2020-07-18T05:15:32Z</time>
      </trkpt>
      <trkpt lat="44.7614" lon="6.34398">
        <ele>2154</ele>
        <time>2020-07-18T05:16:13Z</time>
      </trkpt>
      <trkpt lat="44.76157" lon="6.34388">
        <ele>2152</ele>
        <time>2020-07-18T05:16:38Z</time>
      </trkpt>
      <trkpt lat="44.76158" lon="6.34385">
        <ele>2151</ele>
        <time>2020-07-18T05:16:41Z</time>
      </trkpt>
      <trkpt lat="44.76157" lon="6.34383">
        <ele>2150</ele>
        <time>2020-07-18T05:16:43Z</time>
      </trkpt>
      <trkpt lat="44.76142" lon="6.34373">
        <ele>2147</ele>
        <time>2020-07-18T05:17:06Z</time>
      </trkpt>
      <trkpt lat="44.76125" lon="6.3435">
        <ele>2139</ele>
        <time>2020-07-18T05:17:37Z</time>
      </trkpt>
      <trkpt lat="44.76113" lon="6.34344">
        <ele>2137</ele>
        <time>2020-07-18T05:17:54Z</time>
      </trkpt>
      <trkpt lat="44.76111" lon="6.34341">
        <ele>2136</ele>
        <time>2020-07-18T05:17:58Z</time>
      </trkpt>
      <trkpt lat="44.76106" lon="6.34335">
        <ele>2134</ele>
        <time>2020-07-18T05:18:07Z</time>
      </trkpt>
      <trkpt lat="44.76101" lon="6.34323">
        <ele>2130</ele>
        <time>2020-07-18T05:18:20Z</time>
      </trkpt>
      <trkpt lat="44.76099" lon="6.34315">
        <ele>2127</ele>
        <time>2020-07-18T05:18:28Z</time>
      </trkpt>
      <trkpt lat="44.76101" lon="6.34309">
        <ele>2126</ele>
        <time>2020-07-18T05:18:34Z</time>
      </trkpt>
      <trkpt lat="44.7611" lon="6.343">
        <ele>2124</ele>
        <time>2020-07-18T05:18:49Z</time>
      </trkpt>
      <trkpt lat="44.76109" lon="6.34295">
        <ele>2122</ele>
        <time>2020-07-18T05:18:54Z</time>
      </trkpt>
      <trkpt lat="44.76106" lon="6.34293">
        <ele>2121</ele>
        <time>2020-07-18T05:18:58Z</time>
      </trkpt>
      <trkpt lat="44.76093" lon="6.34293">
        <ele>2121</ele>
        <time>2020-07-18T05:19:16Z</time>
      </trkpt>
      <trkpt lat="44.76075" lon="6.343">
        <ele>2121</ele>
        <time>2020-07-18T05:19:41Z</time>
      </trkpt>
      <trkpt lat="44.76051" lon="6.34303">
        <ele>2121</ele>
        <time>2020-07-18T05:20:13Z</time>
      </trkpt>
      <trkpt lat="44.76012" lon="6.34279">
        <ele>2113</ele>
        <time>2020-07-18T05:21:09Z</time>
      </trkpt>
      <trkpt lat="44.76009" lon="6.34274">
        <ele>2112</ele>
        <time>2020-07-18T05:21:16Z</time>
      </trkpt>
      <trkpt lat="44.76027" lon="6.34241">
        <ele>2105</ele>
        <time>2020-07-18T05:21:55Z</time>
      </trkpt>
      <trkpt lat="44.7603" lon="6.34231">
        <ele>2103</ele>
        <time>2020-07-18T05:22:05Z</time>
      </trkpt>
      <trkpt lat="44.7603" lon="6.34209">
        <ele>2099</ele>
        <time>2020-07-18T05:22:26Z</time>
      </trkpt>
      <trkpt lat="44.76054" lon="6.34206">
        <ele>2098</ele>
        <time>2020-07-18T05:22:58Z</time>
      </trkpt>
      <trkpt lat="44.76074" lon="6.34193">
        <ele>2094</ele>
        <time>2020-07-18T05:23:28Z</time>
      </trkpt>
      <trkpt lat="44.76082" lon="6.34183">
        <ele>2092</ele>
        <time>2020-07-18T05:23:42Z</time>
      </trkpt>
      <trkpt lat="44.76091" lon="6.34158">
        <ele>2087</ele>
        <time>2020-07-18T05:24:09Z</time>
      </trkpt>
      <trkpt lat="44.76098" lon="6.34148">
        <ele>2086</ele>
        <time>2020-07-18T05:24:22Z</time>
      </trkpt>
      <trkpt lat="44.7613" lon="6.34118">
        <ele>2082</ele>
        <time>2020-07-18T05:25:13Z</time>
      </trkpt>
      <trkpt lat="44.7614" lon="6.34112">
        <ele>2082</ele>
        <time>2020-07-18T05:25:28Z</time>
      </trkpt>
      <trkpt lat="44.76144" lon="6.34101">
        <ele>2080</ele>
        <time>2020-07-18T05:25:39Z</time>
      </trkpt>
      <trkpt lat="44.76178" lon="6.34078">
        <ele>2075</ele>
        <time>2020-07-18T05:26:30Z</time>
      </trkpt>
      <trkpt lat="44.76192" lon="6.34072">
        <ele>2073</ele>
        <time>2020-07-18T05:26:49Z</time>
      </trkpt>
      <trkpt lat="44.76197" lon="6.34057">
        <ele>2069</ele>
        <time>2020-07-18T05:27:05Z</time>
      </trkpt>
      <trkpt lat="44.76196" lon="6.34051">
        <ele>2067</ele>
        <time>2020-07-18T05:27:11Z</time>
      </trkpt>
      <trkpt lat="44.76198" lon="6.3404">
        <ele>2064</ele>
        <time>2020-07-18T05:27:22Z</time>
      </trkpt>
      <trkpt lat="44.76198" lon="6.34038">
        <ele>2063</ele>
        <time>2020-07-18T05:27:24Z</time>
      </trkpt>
      <trkpt lat="44.762" lon="6.34033">
        <ele>2062</ele>
        <time>2020-07-18T05:27:29Z</time>
      </trkpt>
      <trkpt lat="44.76204" lon="6.34032">
        <ele>2061</ele>
        <time>2020-07-18T05:27:34Z</time>
      </trkpt>
      <trkpt lat="44.76212" lon="6.34028">
        <ele>2060</ele>
        <time>2020-07-18T05:27:46Z</time>
      </trkpt>
      <trkpt lat="44.76224" lon="6.34032">
        <ele>2061</ele>
        <time>2020-07-18T05:28:02Z</time>
      </trkpt>
      <trkpt lat="44.76234" lon="6.34032">
        <ele>2061</ele>
        <time>2020-07-18T05:28:16Z</time>
      </trkpt>
      <trkpt lat="44.76251" lon="6.34024">
        <ele>2058</ele>
        <time>2020-07-18T05:28:39Z</time>
      </trkpt>
      <trkpt lat="44.76253" lon="6.34007">
        <ele>2053</ele>
        <time>2020-07-18T05:28:56Z</time>
      </trkpt>
      <trkpt lat="44.76254" lon="6.34005">
        <ele>2053</ele>
        <time>2020-07-18T05:28:58Z</time>
      </trkpt>
      <trkpt lat="44.76259" lon="6.34006">
        <ele>2052</ele>
        <time>2020-07-18T05:29:05Z</time>
      </trkpt>
      <trkpt lat="44.76263" lon="6.34014">
        <ele>2054</ele>
        <time>2020-07-18T05:29:14Z</time>
      </trkpt>
      <trkpt lat="44.76269" lon="6.34018">
        <ele>2054</ele>
        <time>2020-07-18T05:29:23Z</time>
      </trkpt>
      <trkpt lat="44.76281" lon="6.34009">
        <ele>2050</ele>
        <time>2020-07-18T05:29:41Z</time>
      </trkpt>
      <trkpt lat="44.76286" lon="6.34022">
        <ele>2052</ele>
        <time>2020-07-18T05:29:55Z</time>
      </trkpt>
      <trkpt lat="44.76301" lon="6.34022">
        <ele>2050</ele>
        <time>2020-07-18T05:30:15Z</time>
      </trkpt>
      <trkpt lat="44.76322" lon="6.34018">
        <ele>2046</ele>
        <time>2020-07-18T05:30:43Z</time>
      </trkpt>
      <trkpt lat="44.76321" lon="6.34016">
        <ele>2046</ele>
        <time>2020-07-18T05:30:46Z</time>
      </trkpt>
      <trkpt lat="44.76312" lon="6.34007">
        <ele>2045</ele>
        <time>2020-07-18T05:31:00Z</time>
      </trkpt>
      <trkpt lat="44.76303" lon="6.33982">
        <ele>2039</ele>
        <time>2020-07-18T05:31:27Z</time>
      </trkpt>
      <trkpt lat="44.76314" lon="6.3398">
        <ele>2038</ele>
        <time>2020-07-18T05:31:42Z</time>
      </trkpt>
      <trkpt lat="44.76318" lon="6.33976">
        <ele>2036</ele>
        <time>2020-07-18T05:31:48Z</time>
      </trkpt>
      <trkpt lat="44.76324" lon="6.33962">
        <ele>2032</ele>
        <time>2020-07-18T05:32:04Z</time>
      </trkpt>
      <trkpt lat="44.76327" lon="6.33958">
        <ele>2031</ele>
        <time>2020-07-18T05:32:09Z</time>
      </trkpt>
      <trkpt lat="44.76333" lon="6.33957">
        <ele>2030</ele>
        <time>2020-07-18T05:32:17Z</time>
      </trkpt>
      <trkpt lat="44.7633" lon="6.33949">
        <ele>2028</ele>
        <time>2020-07-18T05:32:26Z</time>
      </trkpt>
      <trkpt lat="44.76324" lon="6.33942">
        <ele>2027</ele>
        <time>2020-07-18T05:32:36Z</time>
      </trkpt>
      <trkpt lat="44.76317" lon="6.33912">
        <ele>2020</ele>
        <time>2020-07-18T05:33:06Z</time>
      </trkpt>
      <trkpt lat="44.76324" lon="6.33908">
        <ele>2019</ele>
        <time>2020-07-18T05:33:16Z</time>
      </trkpt>
      <trkpt lat="44.76334" lon="6.33899">
        <ele>2016</ele>
        <time>2020-07-18T05:33:32Z</time>
      </trkpt>
      <trkpt lat="44.76336" lon="6.33894">
        <ele>2015</ele>
        <time>2020-07-18T05:33:38Z</time>
      </trkpt>
      <trkpt lat="44.76326" lon="6.33888">
        <ele>2014</ele>
        <time>2020-07-18T05:33:52Z</time>
      </trkpt>
      <trkpt lat="44.76322" lon="6.33882">
        <ele>2013</ele>
        <time>2020-07-18T05:34:00Z</time>
      </trkpt>
      <trkpt lat="44.76323" lon="6.33868">
        <ele>2010</ele>
        <time>2020-07-18T05:34:13Z</time>
      </trkpt>
      <trkpt lat="44.76341" lon="6.33844">
        <ele>2002</ele>
        <time>2020-07-18T05:34:46Z</time>
      </trkpt>
      <trkpt lat="44.76341" lon="6.33839">
        <ele>2001</ele>
        <time>2020-07-18T05:34:51Z</time>
      </trkpt>
      <trkpt lat="44.76339" lon="6.33832">
        <ele>1999</ele>
        <time>2020-07-18T05:34:58Z</time>
      </trkpt>
      <trkpt lat="44.76348" lon="6.33828">
        <ele>1997</ele>
        <time>2020-07-18T05:35:11Z</time>
      </trkpt>
      <trkpt lat="44.76351" lon="6.33823">
        <ele>1995</ele>
        <time>2020-07-18T05:35:17Z</time>
      </trkpt>
      <trkpt lat="44.76345" lon="6.33814">
        <ele>1994</ele>
        <time>2020-07-18T05:35:29Z</time>
      </trkpt>
      <trkpt lat="44.76345" lon="6.33805">
        <ele>1991</ele>
        <time>2020-07-18T05:35:37Z</time>
      </trkpt>
      <trkpt lat="44.7635" lon="6.33805">
        <ele>1991</ele>
        <time>2020-07-18T05:35:44Z</time>
      </trkpt>
      <trkpt lat="44.76352" lon="6.33801">
        <ele>1989</ele>
        <time>2020-07-18T05:35:49Z</time>
      </trkpt>
      <trkpt lat="44.76347" lon="6.33794">
        <ele>1988</ele>
        <time>2020-07-18T05:35:58Z</time>
      </trkpt>
      <trkpt lat="44.76349" lon="6.33788">
        <ele>1986</ele>
        <time>2020-07-18T05:36:04Z</time>
      </trkpt>
      <trkpt lat="44.76354" lon="6.33784">
        <ele>1985</ele>
        <time>2020-07-18T05:36:12Z</time>
      </trkpt>
      <trkpt lat="44.76347" lon="6.33772">
        <ele>1982</ele>
        <time>2020-07-18T05:36:27Z</time>
      </trkpt>
      <trkpt lat="44.76347" lon="6.33753">
        <ele>1977</ele>
        <time>2020-07-18T05:36:45Z</time>
      </trkpt>
      <trkpt lat="44.76352" lon="6.33747">
        <ele>1975</ele>
        <time>2020-07-18T05:36:53Z</time>
      </trkpt>
      <trkpt lat="44.76351" lon="6.33737">
        <ele>1974</ele>
        <time>2020-07-18T05:37:03Z</time>
      </trkpt>
      <trkpt lat="44.76357" lon="6.33731">
        <ele>1973</ele>
        <time>2020-07-18T05:37:13Z</time>
      </trkpt>
      <trkpt lat="44.76356" lon="6.3372">
        <ele>1971</ele>
        <time>2020-07-18T05:37:23Z</time>
      </trkpt>
      <trkpt lat="44.76347" lon="6.33723">
        <ele>1972</ele>
        <time>2020-07-18T05:37:36Z</time>
      </trkpt>
      <trkpt lat="44.76334" lon="6.33719">
        <ele>1972</ele>
        <time>2020-07-18T05:37:53Z</time>
      </trkpt>
      <trkpt lat="44.76318" lon="6.33725">
        <ele>1979</ele>
        <time>2020-07-18T05:38:16Z</time>
      </trkpt>
      <trkpt lat="44.76314" lon="6.33719">
        <ele>1979</ele>
        <time>2020-07-18T05:38:23Z</time>
      </trkpt>
      <trkpt lat="44.76351" lon="6.33681">
        <ele>1966</ele>
        <time>2020-07-18T05:39:24Z</time>
      </trkpt>
      <trkpt lat="44.76373" lon="6.33663">
        <ele>1961</ele>
        <time>2020-07-18T05:39:58Z</time>
      </trkpt>
      <trkpt lat="44.76368" lon="6.3365">
        <ele>1961</ele>
        <time>2020-07-18T05:40:12Z</time>
      </trkpt>
      <trkpt lat="44.7636" lon="6.33646">
        <ele>1963</ele>
        <time>2020-07-18T05:40:24Z</time>
      </trkpt>
      <trkpt lat="44.76346" lon="6.33647">
        <ele>1965</ele>
        <time>2020-07-18T05:40:42Z</time>
      </trkpt>
      <trkpt lat="44.76338" lon="6.33644">
        <ele>1967</ele>
        <time>2020-07-18T05:40:53Z</time>
      </trkpt>
      <trkpt lat="44.76355" lon="6.3362">
        <ele>1964</ele>
        <time>2020-07-18T05:41:26Z</time>
      </trkpt>
      <trkpt lat="44.76371" lon="6.3361">
        <ele>1960</ele>
        <time>2020-07-18T05:41:49Z</time>
      </trkpt>
      <trkpt lat="44.76385" lon="6.33591">
        <ele>1955</ele>
        <time>2020-07-18T05:42:15Z</time>
      </trkpt>
      <trkpt lat="44.76395" lon="6.33583">
        <ele>1951</ele>
        <time>2020-07-18T05:42:30Z</time>
      </trkpt>
      <trkpt lat="44.764" lon="6.33572">
        <ele>1949</ele>
        <time>2020-07-18T05:42:43Z</time>
      </trkpt>
      <trkpt lat="44.76399" lon="6.33562">
        <ele>1949</ele>
        <time>2020-07-18T05:42:52Z</time>
      </trkpt>
      <trkpt lat="44.76405" lon="6.33551">
        <ele>1946</ele>
        <time>2020-07-18T05:43:05Z</time>
      </trkpt>
      <trkpt lat="44.76404" lon="6.33519">
        <ele>1945</ele>
        <time>2020-07-18T05:43:36Z</time>
      </trkpt>
      <trkpt lat="44.76406" lon="6.33496">
        <ele>1943</ele>
        <time>2020-07-18T05:43:58Z</time>
      </trkpt>
      <trkpt lat="44.76429" lon="6.33435">
        <ele>1929</ele>
        <time>2020-07-18T05:45:03Z</time>
      </trkpt>
      <trkpt lat="44.76436" lon="6.33431">
        <ele>1926</ele>
        <time>2020-07-18T05:45:13Z</time>
      </trkpt>
      <trkpt lat="44.76448" lon="6.33436">
        <ele>1921</ele>
        <time>2020-07-18T05:45:30Z</time>
      </trkpt>
      <trkpt lat="44.7645" lon="6.33433">
        <ele>1920</ele>
        <time>2020-07-18T05:45:34Z</time>
      </trkpt>
      <trkpt lat="44.76443" lon="6.33404">
        <ele>1919</ele>
        <time>2020-07-18T05:46:03Z</time>
      </trkpt>
      <trkpt lat="44.76445" lon="6.33383">
        <ele>1914</ele>
        <time>2020-07-18T05:46:23Z</time>
      </trkpt>
      <trkpt lat="44.76449" lon="6.33376">
        <ele>1910</ele>
        <time>2020-07-18T05:46:31Z</time>
      </trkpt>
      <trkpt lat="44.76454" lon="6.33375">
        <ele>1907</ele>
        <time>2020-07-18T05:46:38Z</time>
      </trkpt>
      <trkpt lat="44.76463" lon="6.33381">
        <ele>1903</ele>
        <time>2020-07-18T05:46:51Z</time>
      </trkpt>
      <trkpt lat="44.76466" lon="6.33377">
        <ele>1901</ele>
        <time>2020-07-18T05:46:57Z</time>
      </trkpt>
      <trkpt lat="44.76455" lon="6.33358">
        <ele>1903</ele>
        <time>2020-07-18T05:47:20Z</time>
      </trkpt>
      <trkpt lat="44.76456" lon="6.33352">
        <ele>1901</ele>
        <time>2020-07-18T05:47:26Z</time>
      </trkpt>
      <trkpt lat="44.76469" lon="6.33363">
        <ele>1896</ele>
        <time>2020-07-18T05:47:46Z</time>
      </trkpt>
      <trkpt lat="44.76473" lon="6.33365">
        <ele>1894</ele>
        <time>2020-07-18T05:47:52Z</time>
      </trkpt>
      <trkpt lat="44.76468" lon="6.33344">
        <ele>1893</ele>
        <time>2020-07-18T05:48:13Z</time>
      </trkpt>
      <trkpt lat="44.76469" lon="6.33342">
        <ele>1892</ele>
        <time>2020-07-18T05:48:15Z</time>
      </trkpt>
      <trkpt lat="44.76479" lon="6.33353">
        <ele>1888</ele>
        <time>2020-07-18T05:48:32Z</time>
      </trkpt>
      <trkpt lat="44.76481" lon="6.33352">
        <ele>1887</ele>
        <time>2020-07-18T05:48:35Z</time>
      </trkpt>
      <trkpt lat="44.7648" lon="6.33346">
        <ele>1886</ele>
        <time>2020-07-18T05:48:41Z</time>
      </trkpt>
      <trkpt lat="44.76472" lon="6.33328">
        <ele>1886</ele>
        <time>2020-07-18T05:49:01Z</time>
      </trkpt>
      <trkpt lat="44.76471" lon="6.33322">
        <ele>1885</ele>
        <time>2020-07-18T05:49:07Z</time>
      </trkpt>
      <trkpt lat="44.76476" lon="6.33324">
        <ele>1883</ele>
        <time>2020-07-18T05:49:14Z</time>
      </trkpt>
      <trkpt lat="44.76494" lon="6.3334">
        <ele>1876</ele>
        <time>2020-07-18T05:49:42Z</time>
      </trkpt>
      <trkpt lat="44.76496" lon="6.3334">
        <ele>1875</ele>
        <time>2020-07-18T05:49:45Z</time>
      </trkpt>
      <trkpt lat="44.76491" lon="6.33328">
        <ele>1875</ele>
        <time>2020-07-18T05:49:58Z</time>
      </trkpt>
      <trkpt lat="44.76491" lon="6.33324">
        <ele>1874</ele>
        <time>2020-07-18T05:50:02Z</time>
      </trkpt>
      <trkpt lat="44.76493" lon="6.33324">
        <ele>1873</ele>
        <time>2020-07-18T05:50:04Z</time>
      </trkpt>
      <trkpt lat="44.76501" lon="6.33332">
        <ele>1871</ele>
        <time>2020-07-18T05:50:17Z</time>
      </trkpt>
      <trkpt lat="44.76503" lon="6.33332">
        <ele>1870</ele>
        <time>2020-07-18T05:50:20Z</time>
      </trkpt>
      <trkpt lat="44.76502" lon="6.33328">
        <ele>1869</ele>
        <time>2020-07-18T05:50:24Z</time>
      </trkpt>
      <trkpt lat="44.76488" lon="6.33308">
        <ele>1871</ele>
        <time>2020-07-18T05:50:51Z</time>
      </trkpt>
      <trkpt lat="44.76487" lon="6.33304">
        <ele>1871</ele>
        <time>2020-07-18T05:50:55Z</time>
      </trkpt>
      <trkpt lat="44.7649" lon="6.33301">
        <ele>1868</ele>
        <time>2020-07-18T05:51:00Z</time>
      </trkpt>
      <trkpt lat="44.765" lon="6.33314">
        <ele>1866</ele>
        <time>2020-07-18T05:51:18Z</time>
      </trkpt>
      <trkpt lat="44.76502" lon="6.33314">
        <ele>1866</ele>
        <time>2020-07-18T05:51:21Z</time>
      </trkpt>
      <trkpt lat="44.76501" lon="6.333">
        <ele>1862</ele>
        <time>2020-07-18T05:51:34Z</time>
      </trkpt>
      <trkpt lat="44.76495" lon="6.33284">
        <ele>1861</ele>
        <time>2020-07-18T05:51:51Z</time>
      </trkpt>
      <trkpt lat="44.7649" lon="6.3328">
        <ele>1862</ele>
        <time>2020-07-18T05:51:59Z</time>
      </trkpt>
      <trkpt lat="44.76471" lon="6.33245">
        <ele>1862</ele>
        <time>2020-07-18T05:52:40Z</time>
      </trkpt>
      <trkpt lat="44.76459" lon="6.33211">
        <ele>1857</ele>
        <time>2020-07-18T05:53:16Z</time>
      </trkpt>
      <trkpt lat="44.76456" lon="6.33173">
        <ele>1846</ele>
        <time>2020-07-18T05:53:53Z</time>
      </trkpt>
      <trkpt lat="44.76456" lon="6.33157">
        <ele>1843</ele>
        <time>2020-07-18T05:54:08Z</time>
      </trkpt>
      <trkpt lat="44.76449" lon="6.33137">
        <ele>1840</ele>
        <time>2020-07-18T05:54:29Z</time>
      </trkpt>
      <trkpt lat="44.76446" lon="6.33119">
        <ele>1836</ele>
        <time>2020-07-18T05:54:46Z</time>
      </trkpt>
      <trkpt lat="44.76448" lon="6.33077">
        <ele>1827</ele>
        <time>2020-07-18T05:55:26Z</time>
      </trkpt>
      <trkpt lat="44.76447" lon="6.33065">
        <ele>1826</ele>
        <time>2020-07-18T05:55:38Z</time>
      </trkpt>
      <trkpt lat="44.76431" lon="6.3303">
        <ele>1823</ele>
        <time>2020-07-18T05:56:17Z</time>
      </trkpt>
      <trkpt lat="44.76429" lon="6.33018">
        <ele>1822</ele>
        <time>2020-07-18T05:56:29Z</time>
      </trkpt>
      <trkpt lat="44.76431" lon="6.33003">
        <ele>1819</ele>
        <time>2020-07-18T05:56:43Z</time>
      </trkpt>
      <trkpt lat="44.76429" lon="6.3299">
        <ele>1818</ele>
        <time>2020-07-18T05:56:56Z</time>
      </trkpt>
      <trkpt lat="44.76432" lon="6.32973">
        <ele>1816</ele>
        <time>2020-07-18T05:57:13Z</time>
      </trkpt>
      <trkpt lat="44.76431" lon="6.32959">
        <ele>1815</ele>
        <time>2020-07-18T05:57:26Z</time>
      </trkpt>
      <trkpt lat="44.76429" lon="6.32945">
        <ele>1813</ele>
        <time>2020-07-18T05:57:39Z</time>
      </trkpt>
      <trkpt lat="44.76431" lon="6.32928">
        <ele>1811</ele>
        <time>2020-07-18T05:57:56Z</time>
      </trkpt>
      <trkpt lat="44.7643" lon="6.32912">
        <ele>1810</ele>
        <time>2020-07-18T05:58:11Z</time>
      </trkpt>
      <trkpt lat="44.76432" lon="6.32894">
        <ele>1809</ele>
        <time>2020-07-18T05:58:28Z</time>
      </trkpt>
      <trkpt lat="44.76431" lon="6.32874">
        <ele>1807</ele>
        <time>2020-07-18T05:58:47Z</time>
      </trkpt>
      <trkpt lat="44.76434" lon="6.32867">
        <ele>1807</ele>
        <time>2020-07-18T05:58:55Z</time>
      </trkpt>
      <trkpt lat="44.76438" lon="6.32875">
        <ele>1807</ele>
        <time>2020-07-18T05:59:04Z</time>
      </trkpt>
      <trkpt lat="44.76454" lon="6.32888">
        <ele>1807</ele>
        <time>2020-07-18T05:59:29Z</time>
      </trkpt>
      <trkpt lat="44.76462" lon="6.32888">
        <ele>1807</ele>
        <time>2020-07-18T05:59:40Z</time>
      </trkpt>
      <trkpt lat="44.76468" lon="6.32877">
        <ele>1806</ele>
        <time>2020-07-18T05:59:53Z</time>
      </trkpt>
      <trkpt lat="44.76491" lon="6.32875">
        <ele>1805</ele>
        <time>2020-07-18T06:00:23Z</time>
      </trkpt>
      <trkpt lat="44.76503" lon="6.32868">
        <ele>1805</ele>
        <time>2020-07-18T06:00:41Z</time>
      </trkpt>
      <trkpt lat="44.76518" lon="6.32839">
        <ele>1806</ele>
        <time>2020-07-18T06:01:15Z</time>
      </trkpt>
      <trkpt lat="44.76521" lon="6.32824">
        <ele>1805</ele>
        <time>2020-07-18T06:01:30Z</time>
      </trkpt>
      <trkpt lat="44.76522" lon="6.32807">
        <ele>1804</ele>
        <time>2020-07-18T06:01:46Z</time>
      </trkpt>
      <trkpt lat="44.76518" lon="6.32766">
        <ele>1802</ele>
        <time>2020-07-18T06:02:25Z</time>
      </trkpt>
      <trkpt lat="44.76527" lon="6.32779">
        <ele>1803</ele>
        <time>2020-07-18T06:02:42Z</time>
      </trkpt>
      <trkpt lat="44.76561" lon="6.32798">
        <ele>1808</ele>
        <time>2020-07-18T06:03:31Z</time>
      </trkpt>
      <trkpt lat="44.76592" lon="6.32806">
        <ele>1812</ele>
        <time>2020-07-18T06:04:13Z</time>
      </trkpt>
      <trkpt lat="44.76592" lon="6.32806">
        <ele>1812</ele>
        <time>2020-07-19T22:49:10Z</time>
      </trkpt>
      <trkpt lat="44.76628" lon="6.32816">
        <ele>1816</ele>
        <time>2020-07-19T22:49:59Z</time>
      </trkpt>
      <trkpt lat="44.76646" lon="6.32819">
        <ele>1819</ele>
        <time>2020-07-19T22:50:23Z</time>
      </trkpt>
      <trkpt lat="44.7669" lon="6.3285">
        <ele>1826</ele>
        <time>2020-07-19T22:51:29Z</time>
      </trkpt>
      <trkpt lat="44.76699" lon="6.32863">
        <ele>1828</ele>
        <time>2020-07-19T22:51:46Z</time>
      </trkpt>
      <trkpt lat="44.76721" lon="6.32873">
        <ele>1831</ele>
        <time>2020-07-19T22:52:17Z</time>
      </trkpt>
      <trkpt lat="44.76753" lon="6.32899">
        <ele>1836</ele>
        <time>2020-07-19T22:53:06Z</time>
      </trkpt>
      <trkpt lat="44.76776" lon="6.32923">
        <ele>1843</ele>
        <time>2020-07-19T22:53:44Z</time>
      </trkpt>
      <trkpt lat="44.76788" lon="6.32927">
        <ele>1847</ele>
        <time>2020-07-19T22:54:01Z</time>
      </trkpt>
      <trkpt lat="44.76832" lon="6.3296">
        <ele>1858</ele>
        <time>2020-07-19T22:55:07Z</time>
      </trkpt>
      <trkpt lat="44.76847" lon="6.32964">
        <ele>1860</ele>
        <time>2020-07-19T22:55:28Z</time>
      </trkpt>
      <trkpt lat="44.76862" lon="6.32961">
        <ele>1862</ele>
        <time>2020-07-19T22:55:48Z</time>
      </trkpt>
      <trkpt lat="44.76882" lon="6.32959">
        <ele>1866</ele>
        <time>2020-07-19T22:56:15Z</time>
      </trkpt>
      <trkpt lat="44.76925" lon="6.32936">
        <ele>1875</ele>
        <time>2020-07-19T22:57:16Z</time>
      </trkpt>
      <trkpt lat="44.76959" lon="6.32914">
        <ele>1886</ele>
        <time>2020-07-19T22:58:06Z</time>
      </trkpt>
      <trkpt lat="44.76975" lon="6.32908">
        <ele>1894</ele>
        <time>2020-07-19T22:58:28Z</time>
      </trkpt>
      <trkpt lat="44.7699" lon="6.32917">
        <ele>1894</ele>
        <time>2020-07-19T22:58:50Z</time>
      </trkpt>
      <trkpt lat="44.77019" lon="6.3292">
        <ele>1899</ele>
        <time>2020-07-19T22:59:29Z</time>
      </trkpt>
      <trkpt lat="44.77048" lon="6.32914">
        <ele>1906</ele>
        <time>2020-07-19T23:00:08Z</time>
      </trkpt>
      <trkpt lat="44.77068" lon="6.3292">
        <ele>1907</ele>
        <time>2020-07-19T23:00:35Z</time>
      </trkpt>
      <trkpt lat="44.77104" lon="6.32923">
        <ele>1909</ele>
        <time>2020-07-19T23:01:23Z</time>
      </trkpt>
      <trkpt lat="44.77149" lon="6.32909">
        <ele>1914</ele>
        <time>2020-07-19T23:02:25Z</time>
      </trkpt>
      <trkpt lat="44.77162" lon="6.32898">
        <ele>1920</ele>
        <time>2020-07-19T23:02:45Z</time>
      </trkpt>
      <trkpt lat="44.77193" lon="6.32891">
        <ele>1925</ele>
        <time>2020-07-19T23:03:27Z</time>
      </trkpt>
      <trkpt lat="44.772" lon="6.32894">
        <ele>1925</ele>
        <time>2020-07-19T23:03:37Z</time>
      </trkpt>
      <trkpt lat="44.7723" lon="6.32869">
        <ele>1934</ele>
        <time>2020-07-19T23:04:23Z</time>
      </trkpt>
      <trkpt lat="44.77244" lon="6.3286">
        <ele>1936</ele>
        <time>2020-07-19T23:04:44Z</time>
      </trkpt>
      <trkpt lat="44.77271" lon="6.32849">
        <ele>1940</ele>
        <time>2020-07-19T23:05:21Z</time>
      </trkpt>
      <trkpt lat="44.77282" lon="6.3284">
        <ele>1942</ele>
        <time>2020-07-19T23:05:38Z</time>
      </trkpt>
      <trkpt lat="44.77327" lon="6.32816">
        <ele>1953</ele>
        <time>2020-07-19T23:06:42Z</time>
      </trkpt>
      <trkpt lat="44.77338" lon="6.32816">
        <ele>1954</ele>
        <time>2020-07-19T23:06:57Z</time>
      </trkpt>
      <trkpt lat="44.7735" lon="6.32807">
        <ele>1959</ele>
        <time>2020-07-19T23:07:15Z</time>
      </trkpt>
      <trkpt lat="44.77376" lon="6.32794">
        <ele>1965</ele>
        <time>2020-07-19T23:07:52Z</time>
      </trkpt>
      <trkpt lat="44.77367" lon="6.32779">
        <ele>1969</ele>
        <time>2020-07-19T23:08:11Z</time>
      </trkpt>
      <trkpt lat="44.77364" lon="6.32762">
        <ele>1973</ele>
        <time>2020-07-19T23:08:27Z</time>
      </trkpt>
      <trkpt lat="44.77379" lon="6.32765">
        <ele>1973</ele>
        <time>2020-07-19T23:08:47Z</time>
      </trkpt>
      <trkpt lat="44.7739" lon="6.32763">
        <ele>1974</ele>
        <time>2020-07-19T23:09:02Z</time>
      </trkpt>
      <trkpt lat="44.77401" lon="6.32764">
        <ele>1974</ele>
        <time>2020-07-19T23:09:17Z</time>
      </trkpt>
      <trkpt lat="44.7741" lon="6.32758">
        <ele>1975</ele>
        <time>2020-07-19T23:09:30Z</time>
      </trkpt>
      <trkpt lat="44.77418" lon="6.32746">
        <ele>1979</ele>
        <time>2020-07-19T23:09:46Z</time>
      </trkpt>
      <trkpt lat="44.77434" lon="6.32744">
        <ele>1983</ele>
        <time>2020-07-19T23:10:07Z</time>
      </trkpt>
      <trkpt lat="44.77435" lon="6.32729">
        <ele>1989</ele>
        <time>2020-07-19T23:10:21Z</time>
      </trkpt>
      <trkpt lat="44.7745" lon="6.32736">
        <ele>1989</ele>
        <time>2020-07-19T23:10:43Z</time>
      </trkpt>
      <trkpt lat="44.77456" lon="6.32733">
        <ele>1992</ele>
        <time>2020-07-19T23:10:51Z</time>
      </trkpt>
      <trkpt lat="44.77467" lon="6.32736">
        <ele>1993</ele>
        <time>2020-07-19T23:11:06Z</time>
      </trkpt>
      <trkpt lat="44.77477" lon="6.32747">
        <ele>1990</ele>
        <time>2020-07-19T23:11:23Z</time>
      </trkpt>
      <trkpt lat="44.77522" lon="6.32782">
        <ele>1997</ele>
        <time>2020-07-19T23:12:32Z</time>
      </trkpt>
      <trkpt lat="44.77561" lon="6.32818">
        <ele>2006</ele>
        <time>2020-07-19T23:13:34Z</time>
      </trkpt>
      <trkpt lat="44.77586" lon="6.32714">
        <ele>2024</ele>
        <time>2020-07-19T23:15:18Z</time>
      </trkpt>
      <trkpt lat="44.77604" lon="6.32731">
        <ele>2026</ele>
        <time>2020-07-19T23:15:47Z</time>
      </trkpt>
      <trkpt lat="44.77626" lon="6.32754">
        <ele>2029</ele>
        <time>2020-07-19T23:16:23Z</time>
      </trkpt>
      <trkpt lat="44.77635" lon="6.32734">
        <ele>2034</ele>
        <time>2020-07-19T23:16:46Z</time>
      </trkpt>
      <trkpt lat="44.77635" lon="6.32697">
        <ele>2040</ele>
        <time>2020-07-19T23:17:21Z</time>
      </trkpt>
      <trkpt lat="44.77665" lon="6.32721">
        <ele>2045</ele>
        <time>2020-07-19T23:18:07Z</time>
      </trkpt>
      <trkpt lat="44.77669" lon="6.32687">
        <ele>2051</ele>
        <time>2020-07-19T23:18:39Z</time>
      </trkpt>
      <trkpt lat="44.77703" lon="6.32716">
        <ele>2057</ele>
        <time>2020-07-19T23:19:32Z</time>
      </trkpt>
      <trkpt lat="44.77708" lon="6.32693">
        <ele>2061</ele>
        <time>2020-07-19T23:19:55Z</time>
      </trkpt>
      <trkpt lat="44.77707" lon="6.32672">
        <ele>2063</ele>
        <time>2020-07-19T23:20:15Z</time>
      </trkpt>
      <trkpt lat="44.7771" lon="6.32655">
        <ele>2067</ele>
        <time>2020-07-19T23:20:32Z</time>
      </trkpt>
      <trkpt lat="44.77715" lon="6.32634">
        <ele>2071</ele>
        <time>2020-07-19T23:20:53Z</time>
      </trkpt>
      <trkpt lat="44.77715" lon="6.3261">
        <ele>2076</ele>
        <time>2020-07-19T23:21:15Z</time>
      </trkpt>
      <trkpt lat="44.77697" lon="6.32592">
        <ele>2075</ele>
        <time>2020-07-19T23:21:45Z</time>
      </trkpt>
      <trkpt lat="44.77692" lon="6.3258">
        <ele>2077</ele>
        <time>2020-07-19T23:21:58Z</time>
      </trkpt>
      <trkpt lat="44.77679" lon="6.32569">
        <ele>2080</ele>
        <time>2020-07-19T23:22:18Z</time>
      </trkpt>
      <trkpt lat="44.77702" lon="6.32576">
        <ele>2081</ele>
        <time>2020-07-19T23:22:50Z</time>
      </trkpt>
      <trkpt lat="44.77719" lon="6.32572">
        <ele>2086</ele>
        <time>2020-07-19T23:23:13Z</time>
      </trkpt>
      <trkpt lat="44.77689" lon="6.32543">
        <ele>2093</ele>
        <time>2020-07-19T23:24:01Z</time>
      </trkpt>
      <trkpt lat="44.77687" lon="6.32525">
        <ele>2101</ele>
        <time>2020-07-19T23:24:19Z</time>
      </trkpt>
      <trkpt lat="44.77671" lon="6.32512">
        <ele>2104</ele>
        <time>2020-07-19T23:24:43Z</time>
      </trkpt>
      <trkpt lat="44.77634" lon="6.32528">
        <ele>2099</ele>
        <time>2020-07-19T23:25:35Z</time>
      </trkpt>
      <trkpt lat="44.77617" lon="6.32526">
        <ele>2102</ele>
        <time>2020-07-19T23:25:58Z</time>
      </trkpt>
      <trkpt lat="44.77584" lon="6.32512">
        <ele>2115</ele>
        <time>2020-07-19T23:26:44Z</time>
      </trkpt>
      <trkpt lat="44.77559" lon="6.32496">
        <ele>2124</ele>
        <time>2020-07-19T23:27:20Z</time>
      </trkpt>
      <trkpt lat="44.77549" lon="6.32504">
        <ele>2118</ele>
        <time>2020-07-19T23:27:36Z</time>
      </trkpt>
      <trkpt lat="44.77542" lon="6.32503">
        <ele>2119</ele>
        <time>2020-07-19T23:27:45Z</time>
      </trkpt>
      <trkpt lat="44.77525" lon="6.3249">
        <ele>2125</ele>
        <time>2020-07-19T23:28:11Z</time>
      </trkpt>
      <trkpt lat="44.77513" lon="6.32489">
        <ele>2125</ele>
        <time>2020-07-19T23:28:27Z</time>
      </trkpt>
      <trkpt lat="44.77506" lon="6.32482">
        <ele>2129</ele>
        <time>2020-07-19T23:28:38Z</time>
      </trkpt>
      <trkpt lat="44.77498" lon="6.32478">
        <ele>2131</ele>
        <time>2020-07-19T23:28:50Z</time>
      </trkpt>
      <trkpt lat="44.77491" lon="6.32483">
        <ele>2127</ele>
        <time>2020-07-19T23:29:00Z</time>
      </trkpt>
      <trkpt lat="44.7748" lon="6.3248">
        <ele>2128</ele>
        <time>2020-07-19T23:29:15Z</time>
      </trkpt>
      <trkpt lat="44.77457" lon="6.32472">
        <ele>2130</ele>
        <time>2020-07-19T23:29:47Z</time>
      </trkpt>
      <trkpt lat="44.77435" lon="6.32461">
        <ele>2134</ele>
        <time>2020-07-19T23:30:18Z</time>
      </trkpt>
      <trkpt lat="44.77444" lon="6.32459">
        <ele>2136</ele>
        <time>2020-07-19T23:30:30Z</time>
      </trkpt>
      <trkpt lat="44.77436" lon="6.32451">
        <ele>2140</ele>
        <time>2020-07-19T23:30:43Z</time>
      </trkpt>
      <trkpt lat="44.77446" lon="6.32443">
        <ele>2145</ele>
        <time>2020-07-19T23:30:58Z</time>
      </trkpt>
      <trkpt lat="44.77442" lon="6.3242">
        <ele>2158</ele>
        <time>2020-07-19T23:31:21Z</time>
      </trkpt>
      <trkpt lat="44.77445" lon="6.32393">
        <ele>2167</ele>
        <time>2020-07-19T23:31:47Z</time>
      </trkpt>
      <trkpt lat="44.77451" lon="6.32375">
        <ele>2173</ele>
        <time>2020-07-19T23:32:06Z</time>
      </trkpt>
      <trkpt lat="44.77439" lon="6.32342">
        <ele>2180</ele>
        <time>2020-07-19T23:32:41Z</time>
      </trkpt>
      <trkpt lat="44.77432" lon="6.32315">
        <ele>2185</ele>
        <time>2020-07-19T23:33:08Z</time>
      </trkpt>
      <trkpt lat="44.77416" lon="6.32277">
        <ele>2191</ele>
        <time>2020-07-19T23:33:50Z</time>
      </trkpt>
      <trkpt lat="44.77399" lon="6.32252">
        <ele>2195</ele>
        <time>2020-07-19T23:34:23Z</time>
      </trkpt>
      <trkpt lat="44.77393" lon="6.32233">
        <ele>2201</ele>
        <time>2020-07-19T23:34:42Z</time>
      </trkpt>
      <trkpt lat="44.77375" lon="6.32218">
        <ele>2202</ele>
        <time>2020-07-19T23:35:10Z</time>
      </trkpt>
      <trkpt lat="44.77366" lon="6.32214">
        <ele>2202</ele>
        <time>2020-07-19T23:35:23Z</time>
      </trkpt>
      <trkpt lat="44.77362" lon="6.32198">
        <ele>2205</ele>
        <time>2020-07-19T23:35:39Z</time>
      </trkpt>
      <trkpt lat="44.77362" lon="6.32181">
        <ele>2210</ele>
        <time>2020-07-19T23:35:55Z</time>
      </trkpt>
      <trkpt lat="44.77369" lon="6.32187">
        <ele>2210</ele>
        <time>2020-07-19T23:36:06Z</time>
      </trkpt>
      <trkpt lat="44.77412" lon="6.3219">
        <ele>2219</ele>
        <time>2020-07-19T23:37:03Z</time>
      </trkpt>
      <trkpt lat="44.7738" lon="6.32151">
        <ele>2225</ele>
        <time>2020-07-19T23:38:00Z</time>
      </trkpt>
      <trkpt lat="44.77371" lon="6.32131">
        <ele>2231</ele>
        <time>2020-07-19T23:38:22Z</time>
      </trkpt>
      <trkpt lat="44.77413" lon="6.32146">
        <ele>2237</ele>
        <time>2020-07-19T23:39:20Z</time>
      </trkpt>
      <trkpt lat="44.77466" lon="6.32149">
        <ele>2256</ele>
        <time>2020-07-19T23:40:31Z</time>
      </trkpt>
      <trkpt lat="44.77486" lon="6.32155">
        <ele>2261</ele>
        <time>2020-07-19T23:40:58Z</time>
      </trkpt>
      <trkpt lat="44.77508" lon="6.32167">
        <ele>2262</ele>
        <time>2020-07-19T23:41:30Z</time>
      </trkpt>
      <trkpt lat="44.77526" lon="6.32173">
        <ele>2260</ele>
        <time>2020-07-19T23:41:54Z</time>
      </trkpt>
      <trkpt lat="44.77507" lon="6.32152">
        <ele>2268</ele>
        <time>2020-07-19T23:42:27Z</time>
      </trkpt>
      <trkpt lat="44.77487" lon="6.32118">
        <ele>2277</ele>
        <time>2020-07-19T23:43:08Z</time>
      </trkpt>
      <trkpt lat="44.77526" lon="6.32135">
        <ele>2275</ele>
        <time>2020-07-19T23:44:03Z</time>
      </trkpt>
      <trkpt lat="44.77505" lon="6.32098">
        <ele>2290</ele>
        <time>2020-07-19T23:44:48Z</time>
      </trkpt>
      <trkpt lat="44.77518" lon="6.32105">
        <ele>2287</ele>
        <time>2020-07-19T23:45:06Z</time>
      </trkpt>
      <trkpt lat="44.77497" lon="6.32059">
        <ele>2302</ele>
        <time>2020-07-19T23:45:58Z</time>
      </trkpt>
      <trkpt lat="44.77458" lon="6.32004">
        <ele>2311</ele>
        <time>2020-07-19T23:47:12Z</time>
      </trkpt>
      <trkpt lat="44.7745" lon="6.31976">
        <ele>2317</ele>
        <time>2020-07-19T23:47:40Z</time>
      </trkpt>
      <trkpt lat="44.77466" lon="6.31986">
        <ele>2317</ele>
        <time>2020-07-19T23:48:04Z</time>
      </trkpt>
      <trkpt lat="44.77471" lon="6.31978">
        <ele>2319</ele>
        <time>2020-07-19T23:48:14Z</time>
      </trkpt>
      <trkpt lat="44.7746" lon="6.31959">
        <ele>2322</ele>
        <time>2020-07-19T23:48:37Z</time>
      </trkpt>
      <trkpt lat="44.77456" lon="6.31941">
        <ele>2326</ele>
        <time>2020-07-19T23:48:55Z</time>
      </trkpt>
      <trkpt lat="44.77445" lon="6.31935">
        <ele>2325</ele>
        <time>2020-07-19T23:49:11Z</time>
      </trkpt>
      <trkpt lat="44.77444" lon="6.31924">
        <ele>2328</ele>
        <time>2020-07-19T23:49:21Z</time>
      </trkpt>
      <trkpt lat="44.77436" lon="6.31914">
        <ele>2329</ele>
        <time>2020-07-19T23:49:35Z</time>
      </trkpt>
      <trkpt lat="44.77434" lon="6.31906">
        <ele>2332</ele>
        <time>2020-07-19T23:49:43Z</time>
      </trkpt>
      <trkpt lat="44.77435" lon="6.31898">
        <ele>2335</ele>
        <time>2020-07-19T23:49:51Z</time>
      </trkpt>
      <trkpt lat="44.77425" lon="6.31894">
        <ele>2335</ele>
        <time>2020-07-19T23:50:05Z</time>
      </trkpt>
      <trkpt lat="44.77396" lon="6.31907">
        <ele>2329</ele>
        <time>2020-07-19T23:50:46Z</time>
      </trkpt>
      <trkpt lat="44.77385" lon="6.31903">
        <ele>2330</ele>
        <time>2020-07-19T23:51:01Z</time>
      </trkpt>
      <trkpt lat="44.77369" lon="6.31905">
        <ele>2330</ele>
        <time>2020-07-19T23:51:22Z</time>
      </trkpt>
      <trkpt lat="44.77358" lon="6.31903">
        <ele>2331</ele>
        <time>2020-07-19T23:51:37Z</time>
      </trkpt>
      <trkpt lat="44.7736" lon="6.31873">
        <ele>2340</ele>
        <time>2020-07-19T23:52:06Z</time>
      </trkpt>
      <trkpt lat="44.77367" lon="6.31854">
        <ele>2345</ele>
        <time>2020-07-19T23:52:26Z</time>
      </trkpt>
      <trkpt lat="44.77362" lon="6.31834">
        <ele>2351</ele>
        <time>2020-07-19T23:52:46Z</time>
      </trkpt>
      <trkpt lat="44.7737" lon="6.31775">
        <ele>2365</ele>
        <time>2020-07-19T23:53:43Z</time>
      </trkpt>
      <trkpt lat="44.77363" lon="6.31761">
        <ele>2367</ele>
        <time>2020-07-19T23:53:59Z</time>
      </trkpt>
      <trkpt lat="44.77363" lon="6.31738">
        <ele>2373</ele>
        <time>2020-07-19T23:54:21Z</time>
      </trkpt>
      <trkpt lat="44.77374" lon="6.31739">
        <ele>2374</ele>
        <time>2020-07-19T23:54:36Z</time>
      </trkpt>
      <trkpt lat="44.77365" lon="6.31697">
        <ele>2383</ele>
        <time>2020-07-19T23:55:17Z</time>
      </trkpt>
      <trkpt lat="44.77365" lon="6.31686">
        <ele>2386</ele>
        <time>2020-07-19T23:55:28Z</time>
      </trkpt>
      <trkpt lat="44.77385" lon="6.31636">
        <ele>2400</ele>
        <time>2020-07-19T23:56:22Z</time>
      </trkpt>
      <trkpt lat="44.7739" lon="6.31608">
        <ele>2407</ele>
        <time>2020-07-19T23:56:49Z</time>
      </trkpt>
      <trkpt lat="44.77393" lon="6.31552">
        <ele>2421</ele>
        <time>2020-07-19T23:57:42Z</time>
      </trkpt>
      <trkpt lat="44.77394" lon="6.31516">
        <ele>2430</ele>
        <time>2020-07-19T23:58:17Z</time>
      </trkpt>
      <trkpt lat="44.77401" lon="6.31525">
        <ele>2429</ele>
        <time>2020-07-19T23:58:29Z</time>
      </trkpt>
      <trkpt lat="44.774" lon="6.31494">
        <ele>2436</ele>
        <time>2020-07-19T23:58:59Z</time>
      </trkpt>
      <trkpt lat="44.77406" lon="6.315">
        <ele>2435</ele>
        <time>2020-07-19T23:59:08Z</time>
      </trkpt>
      <trkpt lat="44.77403" lon="6.31484">
        <ele>2439</ele>
        <time>2020-07-19T23:59:24Z</time>
      </trkpt>
      <trkpt lat="44.77403" lon="6.31446">
        <ele>2448</ele>
        <time>2020-07-19T00:00:00Z</time>
      </trkpt>
      <trkpt lat="44.7739" lon="6.31375">
        <ele>2462</ele>
        <time>2020-07-19T00:01:10Z</time>
      </trkpt>
      <trkpt lat="44.77363" lon="6.31284">
        <ele>2474</ele>
        <time>2020-07-19T00:02:43Z</time>
      </trkpt>
      <trkpt lat="44.77349" lon="6.31302">
        <ele>2474</ele>
        <time>2020-07-19T00:03:08Z</time>
      </trkpt>
      <trkpt lat="44.7735" lon="6.3127">
        <ele>2477</ele>
        <time>2020-07-19T00:03:39Z</time>
      </trkpt>
      <trkpt lat="44.77338" lon="6.31285">
        <ele>2476</ele>
        <time>2020-07-19T00:04:00Z</time>
      </trkpt>
      <trkpt lat="44.77316" lon="6.31306">
        <ele>2482</ele>
        <time>2020-07-19T00:04:36Z</time>
      </trkpt>
      <trkpt lat="44.77317" lon="6.31266">
        <ele>2486</ele>
        <time>2020-07-19T00:05:13Z</time>
      </trkpt>
      <trkpt lat="44.77322" lon="6.31222">
        <ele>2490</ele>
        <time>2020-07-19T00:05:56Z</time>
      </trkpt>
      <trkpt lat="44.77312" lon="6.31235">
        <ele>2492</ele>
        <time>2020-07-19T00:06:14Z</time>
      </trkpt>
      <trkpt lat="44.77298" lon="6.31256">
        <ele>2496</ele>
        <time>2020-07-19T00:06:41Z</time>
      </trkpt>
      <trkpt lat="44.77306" lon="6.31216">
        <ele>2498</ele>
        <time>2020-07-19T00:07:20Z</time>
      </trkpt>
      <trkpt lat="44.77312" lon="6.31204">
        <ele>2497</ele>
        <time>2020-07-19T00:07:34Z</time>
      </trkpt>
      <trkpt lat="44.77313" lon="6.31187">
        <ele>2500</ele>
        <time>2020-07-19T00:07:51Z</time>
      </trkpt>
      <trkpt lat="44.77303" lon="6.31195">
        <ele>2502</ele>
        <time>2020-07-19T00:08:06Z</time>
      </trkpt>
      <trkpt lat="44.77304" lon="6.31178">
        <ele>2504</ele>
        <time>2020-07-19T00:08:22Z</time>
      </trkpt>
      <trkpt lat="44.7729" lon="6.3115">
        <ele>2512</ele>
        <time>2020-07-19T00:08:55Z</time>
      </trkpt>
      <trkpt lat="44.77301" lon="6.31089">
        <ele>2515</ele>
        <time>2020-07-19T00:09:54Z</time>
      </trkpt>
      <trkpt lat="44.77297" lon="6.31067">
        <ele>2520</ele>
        <time>2020-07-19T00:10:16Z</time>
      </trkpt>
      <trkpt lat="44.77303" lon="6.31003">
        <ele>2530</ele>
        <time>2020-07-19T00:11:17Z</time>
      </trkpt>
      <trkpt lat="44.77302" lon="6.30969">
        <ele>2539</ele>
        <time>2020-07-19T00:11:49Z</time>
      </trkpt>
      <trkpt lat="44.77296" lon="6.30933">
        <ele>2551</ele>
        <time>2020-07-19T00:12:24Z</time>
      </trkpt>
      <trkpt lat="44.77292" lon="6.30945">
        <ele>2549</ele>
        <time>2020-07-19T00:12:37Z</time>
      </trkpt>
      <trkpt lat="44.77283" lon="6.30946">
        <ele>2552</ele>
        <time>2020-07-19T00:12:49Z</time>
      </trkpt>
      <trkpt lat="44.77276" lon="6.30968">
        <ele>2547</ele>
        <time>2020-07-19T00:13:12Z</time>
      </trkpt>
      <trkpt lat="44.77266" lon="6.30976">
        <ele>2548</ele>
        <time>2020-07-19T00:13:27Z</time>
      </trkpt>
      <trkpt lat="44.77264" lon="6.30959">
        <ele>2554</ele>
        <time>2020-07-19T00:13:43Z</time>
      </trkpt>
      <trkpt lat="44.77264" lon="6.30935">
        <ele>2562</ele>
        <time>2020-07-19T00:14:06Z</time>
      </trkpt>
      <trkpt lat="44.77261" lon="6.30921">
        <ele>2567</ele>
        <time>2020-07-19T00:14:20Z</time>
      </trkpt>
      <trkpt lat="44.77249" lon="6.30913">
        <ele>2574</ele>
        <time>2020-07-19T00:14:37Z</time>
      </trkpt>
      <trkpt lat="44.77248" lon="6.30902">
        <ele>2578</ele>
        <time>2020-07-19T00:14:48Z</time>
      </trkpt>
      <trkpt lat="44.77256" lon="6.30888">
        <ele>2582</ele>
        <time>2020-07-19T00:15:05Z</time>
      </trkpt>
      <trkpt lat="44.77264" lon="6.30854">
        <ele>2592</ele>
        <time>2020-07-19T00:15:39Z</time>
      </trkpt>
      <trkpt lat="44.77271" lon="6.30791">
        <ele>2611</ele>
        <time>2020-07-19T00:16:39Z</time>
      </trkpt>
      <trkpt lat="44.77276" lon="6.30731">
        <ele>2624</ele>
        <time>2020-07-19T00:17:37Z</time>
      </trkpt>
      <trkpt lat="44.77298" lon="6.30661">
        <ele>2630</ele>
        <time>2020-07-19T00:18:49Z</time>
      </trkpt>
      <trkpt lat="44.77309" lon="6.30634">
        <ele>2639</ele>
        <time>2020-07-19T00:19:19Z</time>
      </trkpt>
      <trkpt lat="44.7731" lon="6.30616">
        <ele>2645</ele>
        <time>2020-07-19T00:19:36Z</time>
      </trkpt>
      <trkpt lat="44.773" lon="6.30611">
        <ele>2646</ele>
        <time>2020-07-19T00:19:50Z</time>
      </trkpt>
      <trkpt lat="44.77323" lon="6.30586">
        <ele>2658</ele>
        <time>2020-07-19T00:20:29Z</time>
      </trkpt>
      <trkpt lat="44.77335" lon="6.30558">
        <ele>2662</ele>
        <time>2020-07-19T00:21:00Z</time>
      </trkpt>
      <trkpt lat="44.77357" lon="6.30526">
        <ele>2661</ele>
        <time>2020-07-19T00:21:42Z</time>
      </trkpt>
      <trkpt lat="44.77373" lon="6.30519">
        <ele>2659</ele>
        <time>2020-07-19T00:22:04Z</time>
      </trkpt>
      <trkpt lat="44.77384" lon="6.3051">
        <ele>2656</ele>
        <time>2020-07-19T00:22:21Z</time>
      </trkpt>
      <trkpt lat="44.77376" lon="6.30502">
        <ele>2657</ele>
        <time>2020-07-19T00:22:34Z</time>
      </trkpt>
      <trkpt lat="44.77393" lon="6.30489">
        <ele>2649</ele>
        <time>2020-07-19T00:23:00Z</time>
      </trkpt>
      <trkpt lat="44.77387" lon="6.30478">
        <ele>2646</ele>
        <time>2020-07-19T00:23:13Z</time>
      </trkpt>
      <trkpt lat="44.77393" lon="6.30469">
        <ele>2640</ele>
        <time>2020-07-19T00:23:25Z</time>
      </trkpt>
      <trkpt lat="44.77401" lon="6.30467">
        <ele>2637</ele>
        <time>2020-07-19T00:23:36Z</time>
      </trkpt>
      <trkpt lat="44.77412" lon="6.30447">
        <ele>2623</ele>
        <time>2020-07-19T00:24:00Z</time>
      </trkpt>
      <trkpt lat="44.77409" lon="6.30434">
        <ele>2618</ele>
        <time>2020-07-19T00:24:13Z</time>
      </trkpt>
      <trkpt lat="44.77417" lon="6.30439">
        <ele>2618</ele>
        <time>2020-07-19T00:24:24Z</time>
      </trkpt>
      <trkpt lat="44.77436" lon="6.30432">
        <ele>2613</ele>
        <time>2020-07-19T00:24:51Z</time>
      </trkpt>
      <trkpt lat="44.77423" lon="6.30408">
        <ele>2601</ele>
        <time>2020-07-19T00:25:19Z</time>
      </trkpt>
      <trkpt lat="44.77422" lon="6.30394">
        <ele>2593</ele>
        <time>2020-07-19T00:25:32Z</time>
      </trkpt>
      <trkpt lat="44.77425" lon="6.3037">
        <ele>2580</ele>
        <time>2020-07-19T00:25:56Z</time>
      </trkpt>
      <trkpt lat="44.7744" lon="6.30381">
        <ele>2586</ele>
        <time>2020-07-19T00:26:18Z</time>
      </trkpt>
      <trkpt lat="44.77439" lon="6.30356">
        <ele>2573</ele>
        <time>2020-07-19T00:26:42Z</time>
      </trkpt>
      <trkpt lat="44.77441" lon="6.30344">
        <ele>2567</ele>
        <time>2020-07-19T00:26:54Z</time>
      </trkpt>
      <trkpt lat="44.77452" lon="6.30354">
        <ele>2572</ele>
        <time>2020-07-19T00:27:11Z</time>
      </trkpt>
      <trkpt lat="44.7747" lon="6.30348">
        <ele>2569</ele>
        <time>2020-07-19T00:27:36Z</time>
      </trkpt>
      <trkpt lat="44.77484" lon="6.30327">
        <ele>2560</ele>
        <time>2020-07-19T00:28:03Z</time>
      </trkpt>
      <trkpt lat="44.77482" lon="6.3031">
        <ele>2555</ele>
        <time>2020-07-19T00:28:19Z</time>
      </trkpt>
      <trkpt lat="44.77483" lon="6.30295">
        <ele>2551</ele>
        <time>2020-07-19T00:28:34Z</time>
      </trkpt>
      <trkpt lat="44.77492" lon="6.30286">
        <ele>2549</ele>
        <time>2020-07-19T00:28:48Z</time>
      </trkpt>
      <trkpt lat="44.77495" lon="6.30233">
        <ele>2529</ele>
        <time>2020-07-19T00:29:39Z</time>
      </trkpt>
      <trkpt lat="44.775" lon="6.30244">
        <ele>2536</ele>
        <time>2020-07-19T00:29:51Z</time>
      </trkpt>
      <trkpt lat="44.77501" lon="6.3023">
        <ele>2529</ele>
        <time>2020-07-19T00:30:04Z</time>
      </trkpt>
      <trkpt lat="44.77505" lon="6.30244">
        <ele>2536</ele>
        <time>2020-07-19T00:30:19Z</time>
      </trkpt>
      <trkpt lat="44.77516" lon="6.30256">
        <ele>2541</ele>
        <time>2020-07-19T00:30:37Z</time>
      </trkpt>
      <trkpt lat="44.77527" lon="6.30256">
        <ele>2542</ele>
        <time>2020-07-19T00:30:52Z</time>
      </trkpt>
      <trkpt lat="44.77526" lon="6.30243">
        <ele>2536</ele>
        <time>2020-07-19T00:31:04Z</time>
      </trkpt>
      <trkpt lat="44.7753" lon="6.30232">
        <ele>2531</ele>
        <time>2020-07-19T00:31:16Z</time>
      </trkpt>
      <trkpt lat="44.77539" lon="6.30234">
        <ele>2533</ele>
        <time>2020-07-19T00:31:28Z</time>
      </trkpt>
      <trkpt lat="44.77559" lon="6.3018">
        <ele>2512</ele>
        <time>2020-07-19T00:32:26Z</time>
      </trkpt>
      <trkpt lat="44.77561" lon="6.30146">
        <ele>2502</ele>
        <time>2020-07-19T00:32:58Z</time>
      </trkpt>
      <trkpt lat="44.77572" lon="6.30108">
        <ele>2495</ele>
        <time>2020-07-19T00:33:37Z</time>
      </trkpt>
      <trkpt lat="44.77581" lon="6.30093">
        <ele>2494</ele>
        <time>2020-07-19T00:33:56Z</time>
      </trkpt>
      <trkpt lat="44.77582" lon="6.30065">
        <ele>2490</ele>
        <time>2020-07-19T00:34:22Z</time>
      </trkpt>
      <trkpt lat="44.77586" lon="6.30032">
        <ele>2487</ele>
        <time>2020-07-19T00:34:54Z</time>
      </trkpt>
      <trkpt lat="44.77585" lon="6.30008">
        <ele>2485</ele>
        <time>2020-07-19T00:35:17Z</time>
      </trkpt>
      <trkpt lat="44.77611" lon="6.29972">
        <ele>2484</ele>
        <time>2020-07-19T00:36:05Z</time>
      </trkpt>
      <trkpt lat="44.77618" lon="6.29953">
        <ele>2483</ele>
        <time>2020-07-19T00:36:26Z</time>
      </trkpt>
      <trkpt lat="44.77632" lon="6.29913">
        <ele>2484</ele>
        <time>2020-07-19T00:37:08Z</time>
      </trkpt>
      <trkpt lat="44.77639" lon="6.29883">
        <ele>2485</ele>
        <time>2020-07-19T00:37:38Z</time>
      </trkpt>
      <trkpt lat="44.77647" lon="6.29809">
        <ele>2485</ele>
        <time>2020-07-19T00:38:49Z</time>
      </trkpt>
      <trkpt lat="44.77656" lon="6.29788">
        <ele>2485</ele>
        <time>2020-07-19T00:39:12Z</time>
      </trkpt>
      <trkpt lat="44.77657" lon="6.29763">
        <ele>2483</ele>
        <time>2020-07-19T00:39:36Z</time>
      </trkpt>
      <trkpt lat="44.77666" lon="6.2975">
        <ele>2484</ele>
        <time>2020-07-19T00:39:53Z</time>
      </trkpt>
      <trkpt lat="44.77693" lon="6.29646">
        <ele>2489</ele>
        <time>2020-07-19T00:41:38Z</time>
      </trkpt>
      <trkpt lat="44.77697" lon="6.29595">
        <ele>2490</ele>
        <time>2020-07-19T00:42:26Z</time>
      </trkpt>
      <trkpt lat="44.77707" lon="6.29547">
        <ele>2495</ele>
        <time>2020-07-19T00:43:14Z</time>
      </trkpt>
      <trkpt lat="44.7771" lon="6.29508">
        <ele>2499</ele>
        <time>2020-07-19T00:43:51Z</time>
      </trkpt>
      <trkpt lat="44.77704" lon="6.29466">
        <ele>2501</ele>
        <time>2020-07-19T00:44:31Z</time>
      </trkpt>
      <trkpt lat="44.77709" lon="6.29422">
        <ele>2507</ele>
        <time>2020-07-19T00:45:14Z</time>
      </trkpt>
      <trkpt lat="44.77701" lon="6.2937">
        <ele>2516</ele>
        <time>2020-07-19T00:46:04Z</time>
      </trkpt>
      <trkpt lat="44.77707" lon="6.2936">
        <ele>2519</ele>
        <time>2020-07-19T00:46:17Z</time>
      </trkpt>
      <trkpt lat="44.77703" lon="6.29344">
        <ele>2522</ele>
        <time>2020-07-19T00:46:33Z</time>
      </trkpt>
      <trkpt lat="44.77708" lon="6.29334">
        <ele>2525</ele>
        <time>2020-07-19T00:46:44Z</time>
      </trkpt>
      <trkpt lat="44.77718" lon="6.29327">
        <ele>2527</ele>
        <time>2020-07-19T00:46:59Z</time>
      </trkpt>
      <trkpt lat="44.77702" lon="6.29317">
        <ele>2529</ele>
        <time>2020-07-19T00:47:22Z</time>
      </trkpt>
      <trkpt lat="44.777" lon="6.29301">
        <ele>2533</ele>
        <time>2020-07-19T00:47:38Z</time>
      </trkpt>
      <trkpt lat="44.77705" lon="6.29288">
        <ele>2537</ele>
        <time>2020-07-19T00:47:52Z</time>
      </trkpt>
      <trkpt lat="44.77712" lon="6.29298">
        <ele>2535</ele>
        <time>2020-07-19T00:48:05Z</time>
      </trkpt>
      <trkpt lat="44.77714" lon="6.29272">
        <ele>2542</ele>
        <time>2020-07-19T00:48:30Z</time>
      </trkpt>
      <trkpt lat="44.77723" lon="6.29252">
        <ele>2548</ele>
        <time>2020-07-19T00:48:52Z</time>
      </trkpt>
      <trkpt lat="44.77722" lon="6.29221">
        <ele>2558</ele>
        <time>2020-07-19T00:49:22Z</time>
      </trkpt>
      <trkpt lat="44.77711" lon="6.29201">
        <ele>2565</ele>
        <time>2020-07-19T00:49:46Z</time>
      </trkpt>
      <trkpt lat="44.77719" lon="6.29205">
        <ele>2563</ele>
        <time>2020-07-19T00:49:57Z</time>
      </trkpt>
      <trkpt lat="44.77727" lon="6.29196">
        <ele>2566</ele>
        <time>2020-07-19T00:50:11Z</time>
      </trkpt>
      <trkpt lat="44.77717" lon="6.29176">
        <ele>2573</ele>
        <time>2020-07-19T00:50:34Z</time>
      </trkpt>
      <trkpt lat="44.77705" lon="6.2917">
        <ele>2576</ele>
        <time>2020-07-19T00:50:51Z</time>
      </trkpt>
      <trkpt lat="44.77715" lon="6.29166">
        <ele>2577</ele>
        <time>2020-07-19T00:51:05Z</time>
      </trkpt>
      <trkpt lat="44.77727" lon="6.29171">
        <ele>2575</ele>
        <time>2020-07-19T00:51:21Z</time>
      </trkpt>
      <trkpt lat="44.77746" lon="6.29186">
        <ele>2569</ele>
        <time>2020-07-19T00:51:50Z</time>
      </trkpt>
      <trkpt lat="44.77737" lon="6.29126">
        <ele>2585</ele>
        <time>2020-07-19T00:52:49Z</time>
      </trkpt>
      <trkpt lat="44.77719" lon="6.2911">
        <ele>2591</ele>
        <time>2020-07-19T00:53:17Z</time>
      </trkpt>
      <trkpt lat="44.77732" lon="6.29101">
        <ele>2591</ele>
        <time>2020-07-19T00:53:36Z</time>
      </trkpt>
      <trkpt lat="44.7774" lon="6.29104">
        <ele>2589</ele>
        <time>2020-07-19T00:53:47Z</time>
      </trkpt>
      <trkpt lat="44.77758" lon="6.29118">
        <ele>2587</ele>
        <time>2020-07-19T00:54:15Z</time>
      </trkpt>
      <trkpt lat="44.77756" lon="6.29083">
        <ele>2593</ele>
        <time>2020-07-19T00:54:48Z</time>
      </trkpt>
      <trkpt lat="44.77751" lon="6.29074">
        <ele>2590</ele>
        <time>2020-07-19T00:54:59Z</time>
      </trkpt>
      <trkpt lat="44.77731" lon="6.29063">
        <ele>2592</ele>
        <time>2020-07-19T00:55:28Z</time>
      </trkpt>
      <trkpt lat="44.77724" lon="6.29056">
        <ele>2593</ele>
        <time>2020-07-19T00:55:39Z</time>
      </trkpt>
      <trkpt lat="44.77732" lon="6.29039">
        <ele>2588</ele>
        <time>2020-07-19T00:55:58Z</time>
      </trkpt>
      <trkpt lat="44.77746" lon="6.29042">
        <ele>2584</ele>
        <time>2020-07-19T00:56:17Z</time>
      </trkpt>
      <trkpt lat="44.7776" lon="6.29039">
        <ele>2583</ele>
        <time>2020-07-19T00:56:36Z</time>
      </trkpt>
      <trkpt lat="44.77765" lon="6.29034">
        <ele>2582</ele>
        <time>2020-07-19T00:56:44Z</time>
      </trkpt>
      <trkpt lat="44.77791" lon="6.28999">
        <ele>2573</ele>
        <time>2020-07-19T00:57:32Z</time>
      </trkpt>
      <trkpt lat="44.77799" lon="6.28998">
        <ele>2573</ele>
        <time>2020-07-19T00:57:43Z</time>
      </trkpt>
      <trkpt lat="44.77837" lon="6.28975">
        <ele>2565</ele>
        <time>2020-07-19T00:58:38Z</time>
      </trkpt>
      <trkpt lat="44.77859" lon="6.28967">
        <ele>2564</ele>
        <time>2020-07-19T00:59:09Z</time>
      </trkpt>
      <trkpt lat="44.77884" lon="6.28967">
        <ele>2566</ele>
        <time>2020-07-19T00:59:42Z</time>
      </trkpt>
      <trkpt lat="44.77899" lon="6.28948">
        <ele>2559</ele>
        <time>2020-07-19T01:00:09Z</time>
      </trkpt>
      <trkpt lat="44.7792" lon="6.28927">
        <ele>2549</ele>
        <time>2020-07-19T01:00:43Z</time>
      </trkpt>
      <trkpt lat="44.77946" lon="6.28913">
        <ele>2544</ele>
        <time>2020-07-19T01:01:20Z</time>
      </trkpt>
      <trkpt lat="44.77961" lon="6.28899">
        <ele>2538</ele>
        <time>2020-07-19T01:01:44Z</time>
      </trkpt>
      <trkpt lat="44.77979" lon="6.28891">
        <ele>2535</ele>
        <time>2020-07-19T01:02:09Z</time>
      </trkpt>
      <trkpt lat="44.77998" lon="6.28887">
        <ele>2533</ele>
        <time>2020-07-19T01:02:35Z</time>
      </trkpt>
      <trkpt lat="44.78031" lon="6.28884">
        <ele>2525</ele>
        <time>2020-07-19T01:03:19Z</time>
      </trkpt>
      <trkpt lat="44.78041" lon="6.2888">
        <ele>2521</ele>
        <time>2020-07-19T01:03:33Z</time>
      </trkpt>
      <trkpt lat="44.78072" lon="6.28883">
        <ele>2515</ele>
        <time>2020-07-19T01:04:15Z</time>
      </trkpt>
      <trkpt lat="44.78077" lon="6.2888">
        <ele>2513</ele>
        <time>2020-07-19T01:04:22Z</time>
      </trkpt>
      <trkpt lat="44.78085" lon="6.28878">
        <ele>2510</ele>
        <time>2020-07-19T01:04:33Z</time>
      </trkpt>
      <trkpt lat="44.78125" lon="6.28878">
        <ele>2502</ele>
        <time>2020-07-19T01:05:26Z</time>
      </trkpt>
      <trkpt lat="44.78117" lon="6.28867">
        <ele>2499</ele>
        <time>2020-07-19T01:05:41Z</time>
      </trkpt>
      <trkpt lat="44.7811" lon="6.28862">
        <ele>2498</ele>
        <time>2020-07-19T01:05:51Z</time>
      </trkpt>
      <trkpt lat="44.78105" lon="6.2885">
        <ele>2493</ele>
        <time>2020-07-19T01:06:05Z</time>
      </trkpt>
      <trkpt lat="44.78149" lon="6.2885">
        <ele>2485</ele>
        <time>2020-07-19T01:07:03Z</time>
      </trkpt>
      <trkpt lat="44.78159" lon="6.28848">
        <ele>2482</ele>
        <time>2020-07-19T01:07:17Z</time>
      </trkpt>
      <trkpt lat="44.78166" lon="6.28844">
        <ele>2479</ele>
        <time>2020-07-19T01:07:27Z</time>
      </trkpt>
      <trkpt lat="44.78172" lon="6.28838">
        <ele>2477</ele>
        <time>2020-07-19T01:07:37Z</time>
      </trkpt>
      <trkpt lat="44.78178" lon="6.28837">
        <ele>2477</ele>
        <time>2020-07-19T01:07:45Z</time>
      </trkpt>
      <trkpt lat="44.78182" lon="6.28825">
        <ele>2473</ele>
        <time>2020-07-19T01:07:57Z</time>
      </trkpt>
      <trkpt lat="44.78203" lon="6.28817">
        <ele>2473</ele>
        <time>2020-07-19T01:08:26Z</time>
      </trkpt>
      <trkpt lat="44.78208" lon="6.28811">
        <ele>2471</ele>
        <time>2020-07-19T01:08:35Z</time>
      </trkpt>
      <trkpt lat="44.78213" lon="6.28789">
        <ele>2465</ele>
        <time>2020-07-19T01:08:57Z</time>
      </trkpt>
      <trkpt lat="44.78215" lon="6.28773">
        <ele>2461</ele>
        <time>2020-07-19T01:09:12Z</time>
      </trkpt>
      <trkpt lat="44.78225" lon="6.28752">
        <ele>2456</ele>
        <time>2020-07-19T01:09:36Z</time>
      </trkpt>
      <trkpt lat="44.78234" lon="6.28738">
        <ele>2453</ele>
        <time>2020-07-19T01:09:54Z</time>
      </trkpt>
      <trkpt lat="44.78257" lon="6.28693">
        <ele>2442</ele>
        <time>2020-07-19T01:10:47Z</time>
      </trkpt>
      <trkpt lat="44.78268" lon="6.28689">
        <ele>2442</ele>
        <time>2020-07-19T01:11:02Z</time>
      </trkpt>
      <trkpt lat="44.78294" lon="6.28687">
        <ele>2444</ele>
        <time>2020-07-19T01:11:37Z</time>
      </trkpt>
      <trkpt lat="44.78307" lon="6.28692">
        <ele>2447</ele>
        <time>2020-07-19T01:11:55Z</time>
      </trkpt>
      <trkpt lat="44.78316" lon="6.2869">
        <ele>2448</ele>
        <time>2020-07-19T01:12:07Z</time>
      </trkpt>
      <trkpt lat="44.78321" lon="6.28659">
        <ele>2439</ele>
        <time>2020-07-19T01:12:37Z</time>
      </trkpt>
      <trkpt lat="44.78324" lon="6.28653">
        <ele>2438</ele>
        <time>2020-07-19T01:12:44Z</time>
      </trkpt>
      <trkpt lat="44.7833" lon="6.28655">
        <ele>2439</ele>
        <time>2020-07-19T01:12:52Z</time>
      </trkpt>
      <trkpt lat="44.78333" lon="6.28645">
        <ele>2438</ele>
        <time>2020-07-19T01:13:02Z</time>
      </trkpt>
      <trkpt lat="44.78331" lon="6.28632">
        <ele>2435</ele>
        <time>2020-07-19T01:13:15Z</time>
      </trkpt>
      <trkpt lat="44.78336" lon="6.28626">
        <ele>2434</ele>
        <time>2020-07-19T01:13:24Z</time>
      </trkpt>
      <trkpt lat="44.78332" lon="6.28611">
        <ele>2430</ele>
        <time>2020-07-19T01:13:39Z</time>
      </trkpt>
      <trkpt lat="44.7834" lon="6.28595">
        <ele>2428</ele>
        <time>2020-07-19T01:13:57Z</time>
      </trkpt>
      <trkpt lat="44.78353" lon="6.28591">
        <ele>2430</ele>
        <time>2020-07-19T01:14:15Z</time>
      </trkpt>
      <trkpt lat="44.78355" lon="6.28582">
        <ele>2428</ele>
        <time>2020-07-19T01:14:24Z</time>
      </trkpt>
      <trkpt lat="44.78359" lon="6.28581">
        <ele>2428</ele>
        <time>2020-07-19T01:14:30Z</time>
      </trkpt>
      <trkpt lat="44.78366" lon="6.28588">
        <ele>2431</ele>
        <time>2020-07-19T01:14:41Z</time>
      </trkpt>
      <trkpt lat="44.78374" lon="6.28571">
        <ele>2428</ele>
        <time>2020-07-19T01:15:00Z</time>
      </trkpt>
      <trkpt lat="44.78382" lon="6.28564">
        <ele>2428</ele>
        <time>2020-07-19T01:15:13Z</time>
      </trkpt>
      <trkpt lat="44.78385" lon="6.28546">
        <ele>2424</ele>
        <time>2020-07-19T01:15:30Z</time>
      </trkpt>
      <trkpt lat="44.78395" lon="6.28533">
        <ele>2422</ele>
        <time>2020-07-19T01:15:49Z</time>
      </trkpt>
      <trkpt lat="44.78402" lon="6.28531">
        <ele>2422</ele>
        <time>2020-07-19T01:15:58Z</time>
      </trkpt>
      <trkpt lat="44.78409" lon="6.28532">
        <ele>2423</ele>
        <time>2020-07-19T01:16:08Z</time>
      </trkpt>
      <trkpt lat="44.78418" lon="6.28525">
        <ele>2423</ele>
        <time>2020-07-19T01:16:21Z</time>
      </trkpt>
      <trkpt lat="44.78419" lon="6.28527">
        <ele>2424</ele>
        <time>2020-07-19T01:16:24Z</time>
      </trkpt>
      <trkpt lat="44.78432" lon="6.28529">
        <ele>2429</ele>
        <time>2020-07-19T01:16:41Z</time>
      </trkpt>
      <trkpt lat="44.78442" lon="6.28533">
        <ele>2434</ele>
        <time>2020-07-19T01:16:55Z</time>
      </trkpt>
      <trkpt lat="44.78448" lon="6.2853">
        <ele>2435</ele>
        <time>2020-07-19T01:17:03Z</time>
      </trkpt>
      <trkpt lat="44.78452" lon="6.28517">
        <ele>2434</ele>
        <time>2020-07-19T01:17:17Z</time>
      </trkpt>
      <trkpt lat="44.78457" lon="6.28515">
        <ele>2435</ele>
        <time>2020-07-19T01:17:24Z</time>
      </trkpt>
      <trkpt lat="44.78462" lon="6.28509">
        <ele>2435</ele>
        <time>2020-07-19T01:17:32Z</time>
      </trkpt>
      <trkpt lat="44.78462" lon="6.28496">
        <ele>2432</ele>
        <time>2020-07-19T01:17:45Z</time>
      </trkpt>
      <trkpt lat="44.78455" lon="6.28478">
        <ele>2427</ele>
        <time>2020-07-19T01:18:04Z</time>
      </trkpt>
      <trkpt lat="44.78455" lon="6.28464">
        <ele>2425</ele>
        <time>2020-07-19T01:18:18Z</time>
      </trkpt>
      <trkpt lat="44.78463" lon="6.28415">
        <ele>2420</ele>
        <time>2020-07-19T01:19:05Z</time>
      </trkpt>
      <trkpt lat="44.78476" lon="6.28388">
        <ele>2421</ele>
        <time>2020-07-19T01:19:36Z</time>
      </trkpt>
      <trkpt lat="44.78482" lon="6.28382">
        <ele>2423</ele>
        <time>2020-07-19T01:19:46Z</time>
      </trkpt>
      <trkpt lat="44.78497" lon="6.28359">
        <ele>2423</ele>
        <time>2020-07-19T01:20:15Z</time>
      </trkpt>
      <trkpt lat="44.78505" lon="6.28352">
        <ele>2425</ele>
        <time>2020-07-19T01:20:28Z</time>
      </trkpt>
      <trkpt lat="44.78522" lon="6.28345">
        <ele>2431</ele>
        <time>2020-07-19T01:20:52Z</time>
      </trkpt>
      <trkpt lat="44.78521" lon="6.28332">
        <ele>2428</ele>
        <time>2020-07-19T01:21:04Z</time>
      </trkpt>
      <trkpt lat="44.78516" lon="6.28323">
        <ele>2425</ele>
        <time>2020-07-19T01:21:15Z</time>
      </trkpt>
      <trkpt lat="44.78514" lon="6.28312">
        <ele>2423</ele>
        <time>2020-07-19T01:21:26Z</time>
      </trkpt>
      <trkpt lat="44.78517" lon="6.28302">
        <ele>2424</ele>
        <time>2020-07-19T01:21:36Z</time>
      </trkpt>
      <trkpt lat="44.78529" lon="6.28292">
        <ele>2428</ele>
        <time>2020-07-19T01:21:54Z</time>
      </trkpt>
      <trkpt lat="44.78532" lon="6.28311">
        <ele>2431</ele>
        <time>2020-07-19T01:22:13Z</time>
      </trkpt>
      <trkpt lat="44.78542" lon="6.28294">
        <ele>2433</ele>
        <time>2020-07-19T01:22:34Z</time>
      </trkpt>
      <trkpt lat="44.78548" lon="6.2829">
        <ele>2436</ele>
        <time>2020-07-19T01:22:43Z</time>
      </trkpt>
      <trkpt lat="44.78546" lon="6.28295">
        <ele>2435</ele>
        <time>2020-07-19T01:22:48Z</time>
      </trkpt>
      <trkpt lat="44.78546" lon="6.2831">
        <ele>2436</ele>
        <time>2020-07-19T01:23:02Z</time>
      </trkpt>
      <trkpt lat="44.78556" lon="6.28334">
        <ele>2442</ele>
        <time>2020-07-19T01:23:29Z</time>
      </trkpt>
      <trkpt lat="44.78559" lon="6.28314">
        <ele>2442</ele>
        <time>2020-07-19T01:23:48Z</time>
      </trkpt>
      <trkpt lat="44.78563" lon="6.28306">
        <ele>2443</ele>
        <time>2020-07-19T01:23:57Z</time>
      </trkpt>
      <trkpt lat="44.78575" lon="6.28299">
        <ele>2447</ele>
        <time>2020-07-19T01:24:15Z</time>
      </trkpt>
      <trkpt lat="44.78588" lon="6.28278">
        <ele>2452</ele>
        <time>2020-07-19T01:24:41Z</time>
      </trkpt>
      <trkpt lat="44.78595" lon="6.28274">
        <ele>2455</ele>
        <time>2020-07-19T01:24:51Z</time>
      </trkpt>
      <trkpt lat="44.78616" lon="6.28273">
        <ele>2464</ele>
        <time>2020-07-19T01:25:19Z</time>
      </trkpt>
      <trkpt lat="44.78624" lon="6.28269">
        <ele>2467</ele>
        <time>2020-07-19T01:25:31Z</time>
      </trkpt>
      <trkpt lat="44.78628" lon="6.2826">
        <ele>2467</ele>
        <time>2020-07-19T01:25:41Z</time>
      </trkpt>
      <trkpt lat="44.78612" lon="6.28248">
        <ele>2460</ele>
        <time>2020-07-19T01:26:05Z</time>
      </trkpt>
      <trkpt lat="44.78607" lon="6.2824">
        <ele>2457</ele>
        <time>2020-07-19T01:26:15Z</time>
      </trkpt>
      <trkpt lat="44.78609" lon="6.28236">
        <ele>2458</ele>
        <time>2020-07-19T01:26:19Z</time>
      </trkpt>
      <trkpt lat="44.78656" lon="6.28222">
        <ele>2478</ele>
        <time>2020-07-19T01:27:24Z</time>
      </trkpt>
      <trkpt lat="44.7866" lon="6.28184">
        <ele>2480</ele>
        <time>2020-07-19T01:28:00Z</time>
      </trkpt>
      <trkpt lat="44.78653" lon="6.28176">
        <ele>2476</ele>
        <time>2020-07-19T01:28:12Z</time>
      </trkpt>
      <trkpt lat="44.78651" lon="6.28161">
        <ele>2475</ele>
        <time>2020-07-19T01:28:26Z</time>
      </trkpt>
      <trkpt lat="44.78675" lon="6.28135">
        <ele>2485</ele>
        <time>2020-07-19T01:29:07Z</time>
      </trkpt>
      <trkpt lat="44.78689" lon="6.28127">
        <ele>2491</ele>
        <time>2020-07-19T01:29:27Z</time>
      </trkpt>
      <trkpt lat="44.78704" lon="6.28121">
        <ele>2499</ele>
        <time>2020-07-19T01:29:48Z</time>
      </trkpt>
      <trkpt lat="44.7872" lon="6.28132">
        <ele>2508</ele>
        <time>2020-07-19T01:30:12Z</time>
      </trkpt>
      <trkpt lat="44.78721" lon="6.28113">
        <ele>2507</ele>
        <time>2020-07-19T01:30:30Z</time>
      </trkpt>
      <trkpt lat="44.78732" lon="6.28097">
        <ele>2513</ele>
        <time>2020-07-19T01:30:51Z</time>
      </trkpt>
      <trkpt lat="44.78718" lon="6.28092">
        <ele>2505</ele>
        <time>2020-07-19T01:31:10Z</time>
      </trkpt>
      <trkpt lat="44.78717" lon="6.28083">
        <ele>2504</ele>
        <time>2020-07-19T01:31:19Z</time>
      </trkpt>
      <trkpt lat="44.78723" lon="6.28074">
        <ele>2507</ele>
        <time>2020-07-19T01:31:30Z</time>
      </trkpt>
      <trkpt lat="44.78723" lon="6.28062">
        <ele>2507</ele>
        <time>2020-07-19T01:31:42Z</time>
      </trkpt>
      <trkpt lat="44.78729" lon="6.28047">
        <ele>2510</ele>
        <time>2020-07-19T01:31:58Z</time>
      </trkpt>
      <trkpt lat="44.78745" lon="6.28066">
        <ele>2519</ele>
        <time>2020-07-19T01:32:26Z</time>
      </trkpt>
      <trkpt lat="44.78747" lon="6.28041">
        <ele>2520</ele>
        <time>2020-07-19T01:32:50Z</time>
      </trkpt>
      <trkpt lat="44.78762" lon="6.28058">
        <ele>2529</ele>
        <time>2020-07-19T01:33:15Z</time>
      </trkpt>
      <trkpt lat="44.78761" lon="6.28043">
        <ele>2528</ele>
        <time>2020-07-19T01:33:30Z</time>
      </trkpt>
      <trkpt lat="44.7877" lon="6.28025">
        <ele>2534</ele>
        <time>2020-07-19T01:33:51Z</time>
      </trkpt>
      <trkpt lat="44.78777" lon="6.28047">
        <ele>2538</ele>
        <time>2020-07-19T01:34:13Z</time>
      </trkpt>
      <trkpt lat="44.78785" lon="6.28028">
        <ele>2543</ele>
        <time>2020-07-19T01:34:34Z</time>
      </trkpt>
      <trkpt lat="44.78786" lon="6.28039">
        <ele>2543</ele>
        <time>2020-07-19T01:34:45Z</time>
      </trkpt>
      <trkpt lat="44.78792" lon="6.28045">
        <ele>2547</ele>
        <time>2020-07-19T01:34:55Z</time>
      </trkpt>
      <trkpt lat="44.78793" lon="6.28057">
        <ele>2547</ele>
        <time>2020-07-19T01:35:06Z</time>
      </trkpt>
      <trkpt lat="44.78798" lon="6.28052">
        <ele>2550</ele>
        <time>2020-07-19T01:35:14Z</time>
      </trkpt>
      <trkpt lat="44.788" lon="6.28038">
        <ele>2551</ele>
        <time>2020-07-19T01:35:28Z</time>
      </trkpt>
      <trkpt lat="44.78803" lon="6.28046">
        <ele>2553</ele>
        <time>2020-07-19T01:35:36Z</time>
      </trkpt>
      <trkpt lat="44.78803" lon="6.28065">
        <ele>2553</ele>
        <time>2020-07-19T01:35:54Z</time>
      </trkpt>
      <trkpt lat="44.78808" lon="6.28067">
        <ele>2556</ele>
        <time>2020-07-19T01:36:01Z</time>
      </trkpt>
      <trkpt lat="44.7882" lon="6.28024">
        <ele>2563</ele>
        <time>2020-07-19T01:36:45Z</time>
      </trkpt>
      <trkpt lat="44.78826" lon="6.28019">
        <ele>2567</ele>
        <time>2020-07-19T01:36:54Z</time>
      </trkpt>
      <trkpt lat="44.78837" lon="6.27996">
        <ele>2573</ele>
        <time>2020-07-19T01:37:21Z</time>
      </trkpt>
      <trkpt lat="44.78839" lon="6.28015">
        <ele>2574</ele>
        <time>2020-07-19T01:37:39Z</time>
      </trkpt>
      <trkpt lat="44.78837" lon="6.28033">
        <ele>2573</ele>
        <time>2020-07-19T01:37:56Z</time>
      </trkpt>
      <trkpt lat="44.78841" lon="6.28045">
        <ele>2575</ele>
        <time>2020-07-19T01:38:09Z</time>
      </trkpt>
      <trkpt lat="44.78845" lon="6.28033">
        <ele>2577</ele>
        <time>2020-07-19T01:38:21Z</time>
      </trkpt>
      <trkpt lat="44.78855" lon="6.2802">
        <ele>2583</ele>
        <time>2020-07-19T01:38:39Z</time>
      </trkpt>
      <trkpt lat="44.78862" lon="6.27998">
        <ele>2587</ele>
        <time>2020-07-19T01:39:02Z</time>
      </trkpt>
      <trkpt lat="44.78866" lon="6.28025">
        <ele>2589</ele>
        <time>2020-07-19T01:39:28Z</time>
      </trkpt>
      <trkpt lat="44.78862" lon="6.28043">
        <ele>2587</ele>
        <time>2020-07-19T01:39:46Z</time>
      </trkpt>
      <trkpt lat="44.78868" lon="6.28059">
        <ele>2590</ele>
        <time>2020-07-19T01:40:03Z</time>
      </trkpt>
      <trkpt lat="44.78874" lon="6.28112">
        <ele>2591</ele>
        <time>2020-07-19T01:40:54Z</time>
      </trkpt>
      <trkpt lat="44.78872" lon="6.28145">
        <ele>2588</ele>
        <time>2020-07-19T01:41:25Z</time>
      </trkpt>
      <trkpt lat="44.7888" lon="6.28178">
        <ele>2588</ele>
        <time>2020-07-19T01:41:59Z</time>
      </trkpt>
      <trkpt lat="44.7891" lon="6.28168">
        <ele>2599</ele>
        <time>2020-07-19T01:42:40Z</time>
      </trkpt>
      <trkpt lat="44.78909" lon="6.28183">
        <ele>2594</ele>
        <time>2020-07-19T01:42:54Z</time>
      </trkpt>
      <trkpt lat="44.7894" lon="6.2818">
        <ele>2591</ele>
        <time>2020-07-19T01:43:35Z</time>
      </trkpt>
      <trkpt lat="44.78967" lon="6.28164">
        <ele>2588</ele>
        <time>2020-07-19T01:44:14Z</time>
      </trkpt>
      <trkpt lat="44.78991" lon="6.28162">
        <ele>2583</ele>
        <time>2020-07-19T01:44:47Z</time>
      </trkpt>
      <trkpt lat="44.78994" lon="6.28176">
        <ele>2577</ele>
        <time>2020-07-19T01:45:00Z</time>
      </trkpt>
      <trkpt lat="44.79017" lon="6.28164">
        <ele>2577</ele>
        <time>2020-07-19T01:45:33Z</time>
      </trkpt>
      <trkpt lat="44.79035" lon="6.2817">
        <ele>2572</ele>
        <time>2020-07-19T01:45:58Z</time>
      </trkpt>
      <trkpt lat="44.7902" lon="6.28176">
        <ele>2572</ele>
        <time>2020-07-19T01:46:19Z</time>
      </trkpt>
      <trkpt lat="44.79017" lon="6.28196">
        <ele>2566</ele>
        <time>2020-07-19T01:46:38Z</time>
      </trkpt>
      <trkpt lat="44.79027" lon="6.28191">
        <ele>2566</ele>
        <time>2020-07-19T01:46:52Z</time>
      </trkpt>
      <trkpt lat="44.79027" lon="6.28216">
        <ele>2558</ele>
        <time>2020-07-19T01:47:16Z</time>
      </trkpt>
      <trkpt lat="44.79037" lon="6.2821">
        <ele>2559</ele>
        <time>2020-07-19T01:47:30Z</time>
      </trkpt>
      <trkpt lat="44.79039" lon="6.2824">
        <ele>2549</ele>
        <time>2020-07-19T01:47:59Z</time>
      </trkpt>
      <trkpt lat="44.79035" lon="6.28253">
        <ele>2545</ele>
        <time>2020-07-19T01:48:12Z</time>
      </trkpt>
      <trkpt lat="44.7904" lon="6.28254">
        <ele>2544</ele>
        <time>2020-07-19T01:48:19Z</time>
      </trkpt>
      <trkpt lat="44.7905" lon="6.28233">
        <ele>2550</ele>
        <time>2020-07-19T01:48:43Z</time>
      </trkpt>
      <trkpt lat="44.79062" lon="6.28244">
        <ele>2545</ele>
        <time>2020-07-19T01:49:02Z</time>
      </trkpt>
      <trkpt lat="44.79079" lon="6.28252">
        <ele>2540</ele>
        <time>2020-07-19T01:49:26Z</time>
      </trkpt>
      <trkpt lat="44.79112" lon="6.28253">
        <ele>2544</ele>
        <time>2020-07-19T01:50:10Z</time>
      </trkpt>
      <trkpt lat="44.79118" lon="6.28272">
        <ele>2540</ele>
        <time>2020-07-19T01:50:30Z</time>
      </trkpt>
      <trkpt lat="44.79112" lon="6.28302">
        <ele>2531</ele>
        <time>2020-07-19T01:50:59Z</time>
      </trkpt>
      <trkpt lat="44.79098" lon="6.2834">
        <ele>2518</ele>
        <time>2020-07-19T01:51:40Z</time>
      </trkpt>
      <trkpt lat="44.79108" lon="6.28364">
        <ele>2510</ele>
        <time>2020-07-19T01:52:06Z</time>
      </trkpt>
      <trkpt lat="44.79129" lon="6.28379">
        <ele>2506</ele>
        <time>2020-07-19T01:52:38Z</time>
      </trkpt>
      <trkpt lat="44.79134" lon="6.28369">
        <ele>2510</ele>
        <time>2020-07-19T01:52:49Z</time>
      </trkpt>
      <trkpt lat="44.79146" lon="6.28378">
        <ele>2508</ele>
        <time>2020-07-19T01:53:07Z</time>
      </trkpt>
      <trkpt lat="44.7916" lon="6.28393">
        <ele>2503</ele>
        <time>2020-07-19T01:53:31Z</time>
      </trkpt>
      <trkpt lat="44.79151" lon="6.28398">
        <ele>2500</ele>
        <time>2020-07-19T01:53:44Z</time>
      </trkpt>
      <trkpt lat="44.79139" lon="6.28414">
        <ele>2493</ele>
        <time>2020-07-19T01:54:06Z</time>
      </trkpt>
      <trkpt lat="44.79149" lon="6.28421">
        <ele>2491</ele>
        <time>2020-07-19T01:54:21Z</time>
      </trkpt>
      <trkpt lat="44.79151" lon="6.28432">
        <ele>2486</ele>
        <time>2020-07-19T01:54:31Z</time>
      </trkpt>
      <trkpt lat="44.79139" lon="6.28433">
        <ele>2485</ele>
        <time>2020-07-19T01:54:47Z</time>
      </trkpt>
      <trkpt lat="44.79152" lon="6.28441">
        <ele>2482</ele>
        <time>2020-07-19T01:55:06Z</time>
      </trkpt>
      <trkpt lat="44.79137" lon="6.28441">
        <ele>2481</ele>
        <time>2020-07-19T01:55:26Z</time>
      </trkpt>
      <trkpt lat="44.79149" lon="6.28448">
        <ele>2479</ele>
        <time>2020-07-19T01:55:44Z</time>
      </trkpt>
      <trkpt lat="44.79141" lon="6.28453">
        <ele>2476</ele>
        <time>2020-07-19T01:55:55Z</time>
      </trkpt>
      <trkpt lat="44.7913" lon="6.28455">
        <ele>2475</ele>
        <time>2020-07-19T01:56:10Z</time>
      </trkpt>
      <trkpt lat="44.79151" lon="6.28463">
        <ele>2472</ele>
        <time>2020-07-19T01:56:39Z</time>
      </trkpt>
      <trkpt lat="44.79132" lon="6.28467">
        <ele>2470</ele>
        <time>2020-07-19T01:57:05Z</time>
      </trkpt>
      <trkpt lat="44.79118" lon="6.28466">
        <ele>2470</ele>
        <time>2020-07-19T01:57:24Z</time>
      </trkpt>
      <trkpt lat="44.79149" lon="6.28479">
        <ele>2465</ele>
        <time>2020-07-19T01:58:07Z</time>
      </trkpt>
      <trkpt lat="44.79163" lon="6.28471">
        <ele>2469</ele>
        <time>2020-07-19T01:58:27Z</time>
      </trkpt>
      <trkpt lat="44.79176" lon="6.28473">
        <ele>2471</ele>
        <time>2020-07-19T01:58:44Z</time>
      </trkpt>
      <trkpt lat="44.7915" lon="6.28499">
        <ele>2456</ele>
        <time>2020-07-19T01:59:27Z</time>
      </trkpt>
      <trkpt lat="44.7913" lon="6.28514">
        <ele>2452</ele>
        <time>2020-07-19T01:59:57Z</time>
      </trkpt>
      <trkpt lat="44.79103" lon="6.2852">
        <ele>2450</ele>
        <time>2020-07-19T02:00:34Z</time>
      </trkpt>
      <trkpt lat="44.79125" lon="6.28538">
        <ele>2446</ele>
        <time>2020-07-19T02:01:08Z</time>
      </trkpt>
      <trkpt lat="44.79144" lon="6.28526">
        <ele>2449</ele>
        <time>2020-07-19T02:01:35Z</time>
      </trkpt>
      <trkpt lat="44.79146" lon="6.28544">
        <ele>2444</ele>
        <time>2020-07-19T02:01:53Z</time>
      </trkpt>
      <trkpt lat="44.7916" lon="6.2856">
        <ele>2439</ele>
        <time>2020-07-19T02:02:17Z</time>
      </trkpt>
      <trkpt lat="44.79175" lon="6.28556">
        <ele>2442</ele>
        <time>2020-07-19T02:02:37Z</time>
      </trkpt>
      <trkpt lat="44.79179" lon="6.28584">
        <ele>2434</ele>
        <time>2020-07-19T02:03:04Z</time>
      </trkpt>
      <trkpt lat="44.79194" lon="6.28591">
        <ele>2436</ele>
        <time>2020-07-19T02:03:25Z</time>
      </trkpt>
      <trkpt lat="44.79214" lon="6.28621">
        <ele>2431</ele>
        <time>2020-07-19T02:04:04Z</time>
      </trkpt>
      <trkpt lat="44.79229" lon="6.2865">
        <ele>2425</ele>
        <time>2020-07-19T02:04:38Z</time>
      </trkpt>
      <trkpt lat="44.79244" lon="6.28654">
        <ele>2425</ele>
        <time>2020-07-19T02:04:58Z</time>
      </trkpt>
      <trkpt lat="44.79248" lon="6.28683">
        <ele>2418</ele>
        <time>2020-07-19T02:05:26Z</time>
      </trkpt>
      <trkpt lat="44.79268" lon="6.28704">
        <ele>2411</ele>
        <time>2020-07-19T02:06:00Z</time>
      </trkpt>
      <trkpt lat="44.7929" lon="6.28711">
        <ele>2406</ele>
        <time>2020-07-19T02:06:30Z</time>
      </trkpt>
      <trkpt lat="44.793" lon="6.28709">
        <ele>2406</ele>
        <time>2020-07-19T02:06:43Z</time>
      </trkpt>
      <trkpt lat="44.79323" lon="6.2872">
        <ele>2399</ele>
        <time>2020-07-19T02:07:16Z</time>
      </trkpt>
      <trkpt lat="44.79338" lon="6.2872">
        <ele>2396</ele>
        <time>2020-07-19T02:07:36Z</time>
      </trkpt>
      <trkpt lat="44.79378" lon="6.28711">
        <ele>2385</ele>
        <time>2020-07-19T02:08:30Z</time>
      </trkpt>
      <trkpt lat="44.7942" lon="6.28684">
        <ele>2378</ele>
        <time>2020-07-19T02:09:31Z</time>
      </trkpt>
      <trkpt lat="44.79474" lon="6.28655">
        <ele>2369</ele>
        <time>2020-07-19T02:10:49Z</time>
      </trkpt>
      <trkpt lat="44.79418" lon="6.28743">
        <ele>2361</ele>
        <time>2020-07-19T02:12:40Z</time>
      </trkpt>
      <trkpt lat="44.79456" lon="6.28733">
        <ele>2353</ele>
        <time>2020-07-19T02:13:32Z</time>
      </trkpt>
      <trkpt lat="44.79472" lon="6.28733">
        <ele>2348</ele>
        <time>2020-07-19T02:13:53Z</time>
      </trkpt>
      <trkpt lat="44.79485" lon="6.2873">
        <ele>2345</ele>
        <time>2020-07-19T02:14:11Z</time>
      </trkpt>
      <trkpt lat="44.79502" lon="6.2874">
        <ele>2338</ele>
        <time>2020-07-19T02:14:36Z</time>
      </trkpt>
      <trkpt lat="44.79509" lon="6.28738">
        <ele>2337</ele>
        <time>2020-07-19T02:14:45Z</time>
      </trkpt>
      <trkpt lat="44.7952" lon="6.28749">
        <ele>2333</ele>
        <time>2020-07-19T02:15:03Z</time>
      </trkpt>
      <trkpt lat="44.79526" lon="6.28749">
        <ele>2332</ele>
        <time>2020-07-19T02:15:11Z</time>
      </trkpt>
      <trkpt lat="44.79534" lon="6.28746">
        <ele>2331</ele>
        <time>2020-07-19T02:15:22Z</time>
      </trkpt>
      <trkpt lat="44.79538" lon="6.28748">
        <ele>2330</ele>
        <time>2020-07-19T02:15:28Z</time>
      </trkpt>
      <trkpt lat="44.79548" lon="6.28745">
        <ele>2329</ele>
        <time>2020-07-19T02:15:41Z</time>
      </trkpt>
      <trkpt lat="44.79552" lon="6.28742">
        <ele>2329</ele>
        <time>2020-07-19T02:15:47Z</time>
      </trkpt>
      <trkpt lat="44.79567" lon="6.28747">
        <ele>2325</ele>
        <time>2020-07-19T02:16:08Z</time>
      </trkpt>
      <trkpt lat="44.79587" lon="6.28744">
        <ele>2322</ele>
        <time>2020-07-19T02:16:35Z</time>
      </trkpt>
      <trkpt lat="44.79598" lon="6.2874">
        <ele>2319</ele>
        <time>2020-07-19T02:16:50Z</time>
      </trkpt>
      <trkpt lat="44.79597" lon="6.28746">
        <ele>2318</ele>
        <time>2020-07-19T02:16:56Z</time>
      </trkpt>
      <trkpt lat="44.79579" lon="6.28778">
        <ele>2317</ele>
        <time>2020-07-19T02:17:35Z</time>
      </trkpt>
      <trkpt lat="44.79579" lon="6.28802">
        <ele>2313</ele>
        <time>2020-07-19T02:17:57Z</time>
      </trkpt>
      <trkpt lat="44.79574" lon="6.28841">
        <ele>2306</ele>
        <time>2020-07-19T02:18:35Z</time>
      </trkpt>
      <trkpt lat="44.79575" lon="6.28854">
        <ele>2304</ele>
        <time>2020-07-19T02:18:47Z</time>
      </trkpt>
      <trkpt lat="44.79578" lon="6.28865">
        <ele>2302</ele>
        <time>2020-07-19T02:18:58Z</time>
      </trkpt>
      <trkpt lat="44.79582" lon="6.28864">
        <ele>2301</ele>
        <time>2020-07-19T02:19:04Z</time>
      </trkpt>
      <trkpt lat="44.7959" lon="6.28856">
        <ele>2301</ele>
        <time>2020-07-19T02:19:17Z</time>
      </trkpt>
      <trkpt lat="44.79594" lon="6.28854">
        <ele>2301</ele>
        <time>2020-07-19T02:19:23Z</time>
      </trkpt>
      <trkpt lat="44.79607" lon="6.28853">
        <ele>2299</ele>
        <time>2020-07-19T02:19:40Z</time>
      </trkpt>
      <trkpt lat="44.79621" lon="6.28856">
        <ele>2296</ele>
        <time>2020-07-19T02:19:59Z</time>
      </trkpt>
      <trkpt lat="44.79642" lon="6.28852">
        <ele>2293</ele>
        <time>2020-07-19T02:20:27Z</time>
      </trkpt>
      <trkpt lat="44.7967" lon="6.28863">
        <ele>2287</ele>
        <time>2020-07-19T02:21:06Z</time>
      </trkpt>
      <trkpt lat="44.79661" lon="6.28879">
        <ele>2286</ele>
        <time>2020-07-19T02:21:25Z</time>
      </trkpt>
      <trkpt lat="44.79673" lon="6.28892">
        <ele>2284</ele>
        <time>2020-07-19T02:21:45Z</time>
      </trkpt>
      <trkpt lat="44.79691" lon="6.28886">
        <ele>2284</ele>
        <time>2020-07-19T02:22:10Z</time>
      </trkpt>
      <trkpt lat="44.79717" lon="6.28887">
        <ele>2282</ele>
        <time>2020-07-19T02:22:45Z</time>
      </trkpt>
      <trkpt lat="44.79732" lon="6.28893">
        <ele>2281</ele>
        <time>2020-07-19T02:23:06Z</time>
      </trkpt>
      <trkpt lat="44.79763" lon="6.28916">
        <ele>2279</ele>
        <time>2020-07-19T02:23:52Z</time>
      </trkpt>
      <trkpt lat="44.7979" lon="6.2892">
        <ele>2278</ele>
        <time>2020-07-19T02:24:29Z</time>
      </trkpt>
      <trkpt lat="44.79809" lon="6.28922">
        <ele>2278</ele>
        <time>2020-07-19T02:24:54Z</time>
      </trkpt>
      <trkpt lat="44.79832" lon="6.28917">
        <ele>2278</ele>
        <time>2020-07-19T02:25:25Z</time>
      </trkpt>
      <trkpt lat="44.79843" lon="6.28925">
        <ele>2277</ele>
        <time>2020-07-19T02:25:42Z</time>
      </trkpt>
      <trkpt lat="44.79846" lon="6.28939">
        <ele>2276</ele>
        <time>2020-07-19T02:25:55Z</time>
      </trkpt>
      <trkpt lat="44.79846" lon="6.28957">
        <ele>2275</ele>
        <time>2020-07-19T02:26:12Z</time>
      </trkpt>
      <trkpt lat="44.79848" lon="6.2897">
        <ele>2275</ele>
        <time>2020-07-19T02:26:25Z</time>
      </trkpt>
      <trkpt lat="44.79846" lon="6.29004">
        <ele>2273</ele>
        <time>2020-07-19T02:26:57Z</time>
      </trkpt>
      <trkpt lat="44.79834" lon="6.2902">
        <ele>2273</ele>
        <time>2020-07-19T02:27:19Z</time>
      </trkpt>
      <trkpt lat="44.79821" lon="6.29029">
        <ele>2273</ele>
        <time>2020-07-19T02:27:39Z</time>
      </trkpt>
      <trkpt lat="44.79817" lon="6.29029">
        <ele>2273</ele>
        <time>2020-07-19T02:27:44Z</time>
      </trkpt>
      <trkpt lat="44.79817" lon="6.29051">
        <ele>2273</ele>
        <time>2020-07-19T02:28:05Z</time>
      </trkpt>
      <trkpt lat="44.79813" lon="6.29064">
        <ele>2273</ele>
        <time>2020-07-19T02:28:18Z</time>
      </trkpt>
      <trkpt lat="44.7981" lon="6.29092">
        <ele>2272</ele>
        <time>2020-07-19T02:28:45Z</time>
      </trkpt>
      <trkpt lat="44.79804" lon="6.29109">
        <ele>2271</ele>
        <time>2020-07-19T02:29:03Z</time>
      </trkpt>
      <trkpt lat="44.79798" lon="6.29111">
        <ele>2271</ele>
        <time>2020-07-19T02:29:11Z</time>
      </trkpt>
      <trkpt lat="44.79797" lon="6.29127">
        <ele>2271</ele>
        <time>2020-07-19T02:29:27Z</time>
      </trkpt>
      <trkpt lat="44.79798" lon="6.29145">
        <ele>2270</ele>
        <time>2020-07-19T02:29:44Z</time>
      </trkpt>
      <trkpt lat="44.79807" lon="6.2917">
        <ele>2269</ele>
        <time>2020-07-19T02:30:10Z</time>
      </trkpt>
      <trkpt lat="44.79835" lon="6.29197">
        <ele>2265</ele>
        <time>2020-07-19T02:30:55Z</time>
      </trkpt>
      <trkpt lat="44.79842" lon="6.29201">
        <ele>2264</ele>
        <time>2020-07-19T02:31:06Z</time>
      </trkpt>
      <trkpt lat="44.79854" lon="6.29189">
        <ele>2263</ele>
        <time>2020-07-19T02:31:25Z</time>
      </trkpt>
      <trkpt lat="44.79859" lon="6.29187">
        <ele>2263</ele>
        <time>2020-07-19T02:31:32Z</time>
      </trkpt>
      <trkpt lat="44.7986" lon="6.2919">
        <ele>2262</ele>
        <time>2020-07-19T02:31:35Z</time>
      </trkpt>
      <trkpt lat="44.79856" lon="6.29204">
        <ele>2261</ele>
        <time>2020-07-19T02:31:50Z</time>
      </trkpt>
      <trkpt lat="44.79899" lon="6.29194">
        <ele>2256</ele>
        <time>2020-07-19T02:32:48Z</time>
      </trkpt>
      <trkpt lat="44.79915" lon="6.29187">
        <ele>2255</ele>
        <time>2020-07-19T02:33:10Z</time>
      </trkpt>
      <trkpt lat="44.79925" lon="6.29178">
        <ele>2254</ele>
        <time>2020-07-19T02:33:26Z</time>
      </trkpt>
      <trkpt lat="44.79982" lon="6.29158">
        <ele>2244</ele>
        <time>2020-07-19T02:34:44Z</time>
      </trkpt>
      <trkpt lat="44.79987" lon="6.29161">
        <ele>2243</ele>
        <time>2020-07-19T02:34:52Z</time>
      </trkpt>
      <trkpt lat="44.79998" lon="6.29156">
        <ele>2241</ele>
        <time>2020-07-19T02:35:07Z</time>
      </trkpt>
      <trkpt lat="44.80016" lon="6.29153">
        <ele>2236</ele>
        <time>2020-07-19T02:35:31Z</time>
      </trkpt>
      <trkpt lat="44.80017" lon="6.29154">
        <ele>2236</ele>
        <time>2020-07-19T02:35:33Z</time>
      </trkpt>
      <trkpt lat="44.80018" lon="6.2916">
        <ele>2235</ele>
        <time>2020-07-19T02:35:39Z</time>
      </trkpt>
      <trkpt lat="44.80026" lon="6.29168">
        <ele>2231</ele>
        <time>2020-07-19T02:35:52Z</time>
      </trkpt>
      <trkpt lat="44.80078" lon="6.2919">
        <ele>2213</ele>
        <time>2020-07-19T02:37:04Z</time>
      </trkpt>
      <trkpt lat="44.80078" lon="6.29201">
        <ele>2212</ele>
        <time>2020-07-19T02:37:15Z</time>
      </trkpt>
      <trkpt lat="44.80075" lon="6.29212">
        <ele>2212</ele>
        <time>2020-07-19T02:37:26Z</time>
      </trkpt>
      <trkpt lat="44.80076" lon="6.29223">
        <ele>2210</ele>
        <time>2020-07-19T02:37:36Z</time>
      </trkpt>
      <trkpt lat="44.80082" lon="6.29215">
        <ele>2209</ele>
        <time>2020-07-19T02:37:47Z</time>
      </trkpt>
      <trkpt lat="44.80083" lon="6.29209">
        <ele>2210</ele>
        <time>2020-07-19T02:37:53Z</time>
      </trkpt>
      <trkpt lat="44.80086" lon="6.29213">
        <ele>2208</ele>
        <time>2020-07-19T02:37:59Z</time>
      </trkpt>
      <trkpt lat="44.80106" lon="6.29185">
        <ele>2201</ele>
        <time>2020-07-19T02:38:36Z</time>
      </trkpt>
      <trkpt lat="44.80107" lon="6.29179">
        <ele>2201</ele>
        <time>2020-07-19T02:38:42Z</time>
      </trkpt>
      <trkpt lat="44.80105" lon="6.29175">
        <ele>2202</ele>
        <time>2020-07-19T02:38:47Z</time>
      </trkpt>
      <trkpt lat="44.80098" lon="6.29172">
        <ele>2206</ele>
        <time>2020-07-19T02:38:56Z</time>
      </trkpt>
      <trkpt lat="44.80097" lon="6.29169">
        <ele>2206</ele>
        <time>2020-07-19T02:39:00Z</time>
      </trkpt>
      <trkpt lat="44.8011" lon="6.29171">
        <ele>2200</ele>
        <time>2020-07-19T02:39:17Z</time>
      </trkpt>
      <trkpt lat="44.80122" lon="6.29176">
        <ele>2194</ele>
        <time>2020-07-19T02:39:34Z</time>
      </trkpt>
      <trkpt lat="44.80125" lon="6.29179">
        <ele>2192</ele>
        <time>2020-07-19T02:39:39Z</time>
      </trkpt>
      <trkpt lat="44.80123" lon="6.292">
        <ele>2192</ele>
        <time>2020-07-19T02:39:59Z</time>
      </trkpt>
      <trkpt lat="44.80126" lon="6.29213">
        <ele>2189</ele>
        <time>2020-07-19T02:40:12Z</time>
      </trkpt>
      <trkpt lat="44.80122" lon="6.29223">
        <ele>2190</ele>
        <time>2020-07-19T02:40:23Z</time>
      </trkpt>
      <trkpt lat="44.80141" lon="6.29212">
        <ele>2182</ele>
        <time>2020-07-19T02:40:50Z</time>
      </trkpt>
      <trkpt lat="44.80142" lon="6.29208">
        <ele>2182</ele>
        <time>2020-07-19T02:40:54Z</time>
      </trkpt>
      <trkpt lat="44.80139" lon="6.29198">
        <ele>2184</ele>
        <time>2020-07-19T02:41:04Z</time>
      </trkpt>
      <trkpt lat="44.80141" lon="6.29192">
        <ele>2184</ele>
        <time>2020-07-19T02:41:11Z</time>
      </trkpt>
      <trkpt lat="44.80143" lon="6.29197">
        <ele>2183</ele>
        <time>2020-07-19T02:41:16Z</time>
      </trkpt>
      <trkpt lat="44.80149" lon="6.292">
        <ele>2179</ele>
        <time>2020-07-19T02:41:24Z</time>
      </trkpt>
      <trkpt lat="44.80152" lon="6.29204">
        <ele>2178</ele>
        <time>2020-07-19T02:41:30Z</time>
      </trkpt>
      <trkpt lat="44.80152" lon="6.29212">
        <ele>2177</ele>
        <time>2020-07-19T02:41:38Z</time>
      </trkpt>
      <trkpt lat="44.80159" lon="6.292">
        <ele>2175</ele>
        <time>2020-07-19T02:41:52Z</time>
      </trkpt>
      <trkpt lat="44.80158" lon="6.2921">
        <ele>2174</ele>
        <time>2020-07-19T02:42:02Z</time>
      </trkpt>
      <trkpt lat="44.80164" lon="6.292">
        <ele>2172</ele>
        <time>2020-07-19T02:42:14Z</time>
      </trkpt>
      <trkpt lat="44.80164" lon="6.29191">
        <ele>2173</ele>
        <time>2020-07-19T02:42:23Z</time>
      </trkpt>
      <trkpt lat="44.8017" lon="6.29193">
        <ele>2170</ele>
        <time>2020-07-19T02:42:31Z</time>
      </trkpt>
      <trkpt lat="44.80172" lon="6.29195">
        <ele>2169</ele>
        <time>2020-07-19T02:42:34Z</time>
      </trkpt>
      <trkpt lat="44.80171" lon="6.29208">
        <ele>2168</ele>
        <time>2020-07-19T02:42:47Z</time>
      </trkpt>
      <trkpt lat="44.80169" lon="6.29211">
        <ele>2169</ele>
        <time>2020-07-19T02:42:51Z</time>
      </trkpt>
      <trkpt lat="44.8017" lon="6.29214">
        <ele>2168</ele>
        <time>2020-07-19T02:42:54Z</time>
      </trkpt>
      <trkpt lat="44.80182" lon="6.29202">
        <ele>2163</ele>
        <time>2020-07-19T02:43:13Z</time>
      </trkpt>
      <trkpt lat="44.80187" lon="6.29191">
        <ele>2161</ele>
        <time>2020-07-19T02:43:26Z</time>
      </trkpt>
      <trkpt lat="44.80189" lon="6.29183">
        <ele>2160</ele>
        <time>2020-07-19T02:43:34Z</time>
      </trkpt>
      <trkpt lat="44.80191" lon="6.29185">
        <ele>2159</ele>
        <time>2020-07-19T02:43:37Z</time>
      </trkpt>
      <trkpt lat="44.80192" lon="6.29189">
        <ele>2158</ele>
        <time>2020-07-19T02:43:41Z</time>
      </trkpt>
      <trkpt lat="44.80191" lon="6.29202">
        <ele>2158</ele>
        <time>2020-07-19T02:43:53Z</time>
      </trkpt>
      <trkpt lat="44.80184" lon="6.29237">
        <ele>2160</ele>
        <time>2020-07-19T02:44:28Z</time>
      </trkpt>
      <trkpt lat="44.80194" lon="6.29229">
        <ele>2155</ele>
        <time>2020-07-19T02:44:43Z</time>
      </trkpt>
      <trkpt lat="44.80211" lon="6.29203">
        <ele>2147</ele>
        <time>2020-07-19T02:45:17Z</time>
      </trkpt>
      <trkpt lat="44.80209" lon="6.29242">
        <ele>2147</ele>
        <time>2020-07-19T02:45:54Z</time>
      </trkpt>
      <trkpt lat="44.80214" lon="6.29248">
        <ele>2145</ele>
        <time>2020-07-19T02:46:02Z</time>
      </trkpt>
      <trkpt lat="44.80226" lon="6.292">
        <ele>2140</ele>
        <time>2020-07-19T02:46:51Z</time>
      </trkpt>
      <trkpt lat="44.80236" lon="6.29175">
        <ele>2134</ele>
        <time>2020-07-19T02:47:18Z</time>
      </trkpt>
      <trkpt lat="44.80246" lon="6.29158">
        <ele>2129</ele>
        <time>2020-07-19T02:47:39Z</time>
      </trkpt>
      <trkpt lat="44.80239" lon="6.29142">
        <ele>2135</ele>
        <time>2020-07-19T02:47:56Z</time>
      </trkpt>
      <trkpt lat="44.80253" lon="6.29154">
        <ele>2126</ele>
        <time>2020-07-19T02:48:18Z</time>
      </trkpt>
      <trkpt lat="44.80256" lon="6.29164">
        <ele>2124</ele>
        <time>2020-07-19T02:48:29Z</time>
      </trkpt>
      <trkpt lat="44.8025" lon="6.29182">
        <ele>2126</ele>
        <time>2020-07-19T02:48:47Z</time>
      </trkpt>
      <trkpt lat="44.80264" lon="6.29222">
        <ele>2121</ele>
        <time>2020-07-19T02:49:30Z</time>
      </trkpt>
      <trkpt lat="44.8026" lon="6.29231">
        <ele>2123</ele>
        <time>2020-07-19T02:49:40Z</time>
      </trkpt>
      <trkpt lat="44.80279" lon="6.29225">
        <ele>2115</ele>
        <time>2020-07-19T02:50:06Z</time>
      </trkpt>
      <trkpt lat="44.80286" lon="6.29213">
        <ele>2111</ele>
        <time>2020-07-19T02:50:20Z</time>
      </trkpt>
      <trkpt lat="44.80312" lon="6.29163">
        <ele>2098</ele>
        <time>2020-07-19T02:51:19Z</time>
      </trkpt>
      <trkpt lat="44.80307" lon="6.29147">
        <ele>2100</ele>
        <time>2020-07-19T02:51:36Z</time>
      </trkpt>
      <trkpt lat="44.80294" lon="6.29123">
        <ele>2106</ele>
        <time>2020-07-19T02:52:04Z</time>
      </trkpt>
      <trkpt lat="44.80299" lon="6.291">
        <ele>2103</ele>
        <time>2020-07-19T02:52:27Z</time>
      </trkpt>
      <trkpt lat="44.80309" lon="6.29123">
        <ele>2098</ele>
        <time>2020-07-19T02:52:53Z</time>
      </trkpt>
      <trkpt lat="44.80328" lon="6.29136">
        <ele>2089</ele>
        <time>2020-07-19T02:53:21Z</time>
      </trkpt>
      <trkpt lat="44.80359" lon="6.29141">
        <ele>2079</ele>
        <time>2020-07-19T02:54:02Z</time>
      </trkpt>
      <trkpt lat="44.80383" lon="6.29152">
        <ele>2072</ele>
        <time>2020-07-19T02:54:36Z</time>
      </trkpt>
      <trkpt lat="44.80383" lon="6.29165">
        <ele>2073</ele>
        <time>2020-07-19T02:54:48Z</time>
      </trkpt>
      <trkpt lat="44.80388" lon="6.29182">
        <ele>2072</ele>
        <time>2020-07-19T02:55:06Z</time>
      </trkpt>
      <trkpt lat="44.80376" lon="6.29199">
        <ele>2076</ele>
        <time>2020-07-19T02:55:29Z</time>
      </trkpt>
      <trkpt lat="44.80373" lon="6.29213">
        <ele>2078</ele>
        <time>2020-07-19T02:55:42Z</time>
      </trkpt>
      <trkpt lat="44.80387" lon="6.29226">
        <ele>2073</ele>
        <time>2020-07-19T02:56:05Z</time>
      </trkpt>
      <trkpt lat="44.80406" lon="6.29222">
        <ele>2067</ele>
        <time>2020-07-19T02:56:30Z</time>
      </trkpt>
      <trkpt lat="44.80425" lon="6.29233">
        <ele>2062</ele>
        <time>2020-07-19T02:56:58Z</time>
      </trkpt>
      <trkpt lat="44.80448" lon="6.29239">
        <ele>2055</ele>
        <time>2020-07-19T02:57:29Z</time>
      </trkpt>
      <trkpt lat="44.80479" lon="6.29254">
        <ele>2047</ele>
        <time>2020-07-19T02:58:13Z</time>
      </trkpt>
      <trkpt lat="44.80497" lon="6.29267">
        <ele>2042</ele>
        <time>2020-07-19T02:58:40Z</time>
      </trkpt>
      <trkpt lat="44.80496" lon="6.29293">
        <ele>2044</ele>
        <time>2020-07-19T02:59:04Z</time>
      </trkpt>
      <trkpt lat="44.80518" lon="6.29306">
        <ele>2033</ele>
        <time>2020-07-19T02:59:36Z</time>
      </trkpt>
      <trkpt lat="44.80521" lon="6.29314">
        <ele>2032</ele>
        <time>2020-07-19T02:59:45Z</time>
      </trkpt>
      <trkpt lat="44.80507" lon="6.29352">
        <ele>2042</ele>
        <time>2020-07-19T03:00:25Z</time>
      </trkpt>
      <trkpt lat="44.80519" lon="6.29391">
        <ele>2039</ele>
        <time>2020-07-19T03:01:06Z</time>
      </trkpt>
      <trkpt lat="44.80527" lon="6.29409">
        <ele>2034</ele>
        <time>2020-07-19T03:01:26Z</time>
      </trkpt>
      <trkpt lat="44.8053" lon="6.29372">
        <ele>2030</ele>
        <time>2020-07-19T03:02:01Z</time>
      </trkpt>
      <trkpt lat="44.80535" lon="6.29357">
        <ele>2026</ele>
        <time>2020-07-19T03:02:17Z</time>
      </trkpt>
      <trkpt lat="44.8054" lon="6.29383">
        <ele>2024</ele>
        <time>2020-07-19T03:02:42Z</time>
      </trkpt>
      <trkpt lat="44.80595" lon="6.29523">
        <ele>1990</ele>
        <time>2020-07-19T03:05:14Z</time>
      </trkpt>
      <trkpt lat="44.80596" lon="6.29463">
        <ele>1984</ele>
        <time>2020-07-19T03:06:10Z</time>
      </trkpt>
      <trkpt lat="44.80601" lon="6.29425">
        <ele>1980</ele>
        <time>2020-07-19T03:06:47Z</time>
      </trkpt>
      <trkpt lat="44.80604" lon="6.2941">
        <ele>1979</ele>
        <time>2020-07-19T03:07:02Z</time>
      </trkpt>
      <trkpt lat="44.80631" lon="6.29492">
        <ele>1958</ele>
        <time>2020-07-19T03:08:27Z</time>
      </trkpt>
      <trkpt lat="44.80663" lon="6.29568">
        <ele>1944</ele>
        <time>2020-07-19T03:09:51Z</time>
      </trkpt>
      <trkpt lat="44.80665" lon="6.29493">
        <ele>1931</ele>
        <time>2020-07-19T03:11:02Z</time>
      </trkpt>
      <trkpt lat="44.80669" lon="6.29458">
        <ele>1933</ele>
        <time>2020-07-19T03:11:36Z</time>
      </trkpt>
      <trkpt lat="44.80684" lon="6.29419">
        <ele>1929</ele>
        <time>2020-07-19T03:12:18Z</time>
      </trkpt>
      <trkpt lat="44.80694" lon="6.29485">
        <ele>1917</ele>
        <time>2020-07-19T03:13:22Z</time>
      </trkpt>
      <trkpt lat="44.80725" lon="6.29562">
        <ele>1904</ele>
        <time>2020-07-19T03:14:45Z</time>
      </trkpt>
      <trkpt lat="44.8073" lon="6.29492">
        <ele>1897</ele>
        <time>2020-07-19T03:15:52Z</time>
      </trkpt>
      <trkpt lat="44.80743" lon="6.29459">
        <ele>1893</ele>
        <time>2020-07-19T03:16:28Z</time>
      </trkpt>
      <trkpt lat="44.80751" lon="6.29503">
        <ele>1886</ele>
        <time>2020-07-19T03:17:11Z</time>
      </trkpt>
      <trkpt lat="44.80759" lon="6.29518">
        <ele>1882</ele>
        <time>2020-07-19T03:17:29Z</time>
      </trkpt>
      <trkpt lat="44.80775" lon="6.29565">
        <ele>1875</ele>
        <time>2020-07-19T03:18:18Z</time>
      </trkpt>
      <trkpt lat="44.80783" lon="6.29529">
        <ele>1871</ele>
        <time>2020-07-19T03:18:54Z</time>
      </trkpt>
      <trkpt lat="44.8079" lon="6.29509">
        <ele>1867</ele>
        <time>2020-07-19T03:19:15Z</time>
      </trkpt>
      <trkpt lat="44.808" lon="6.29556">
        <ele>1862</ele>
        <time>2020-07-19T03:20:01Z</time>
      </trkpt>
      <trkpt lat="44.80823" lon="6.29502">
        <ele>1852</ele>
        <time>2020-07-19T03:21:01Z</time>
      </trkpt>
      <trkpt lat="44.80838" lon="6.29477">
        <ele>1848</ele>
        <time>2020-07-19T03:21:32Z</time>
      </trkpt>
      <trkpt lat="44.80858" lon="6.29465">
        <ele>1842</ele>
        <time>2020-07-19T03:22:01Z</time>
      </trkpt>
      <trkpt lat="44.8085" lon="6.29489">
        <ele>1842</ele>
        <time>2020-07-19T03:22:26Z</time>
      </trkpt>
      <trkpt lat="44.80857" lon="6.2954">
        <ele>1834</ele>
        <time>2020-07-19T03:23:15Z</time>
      </trkpt>
      <trkpt lat="44.80861" lon="6.29556">
        <ele>1831</ele>
        <time>2020-07-19T03:23:31Z</time>
      </trkpt>
      <trkpt lat="44.8086" lon="6.29571">
        <ele>1830</ele>
        <time>2020-07-19T03:23:45Z</time>
      </trkpt>
      <trkpt lat="44.80882" lon="6.29555">
        <ele>1821</ele>
        <time>2020-07-19T03:24:18Z</time>
      </trkpt>
      <trkpt lat="44.8089" lon="6.29539">
        <ele>1820</ele>
        <time>2020-07-19T03:24:37Z</time>
      </trkpt>
      <trkpt lat="44.80931" lon="6.29516">
        <ele>1806</ele>
        <time>2020-07-19T03:25:36Z</time>
      </trkpt>
      <trkpt lat="44.80929" lon="6.29528">
        <ele>1805</ele>
        <time>2020-07-19T03:25:48Z</time>
      </trkpt>
      <trkpt lat="44.80941" lon="6.2953">
        <ele>1798</ele>
        <time>2020-07-19T03:26:04Z</time>
      </trkpt>
      <trkpt lat="44.80933" lon="6.29548">
        <ele>1799</ele>
        <time>2020-07-19T03:26:24Z</time>
      </trkpt>
      <trkpt lat="44.80936" lon="6.29558">
        <ele>1795</ele>
        <time>2020-07-19T03:26:34Z</time>
      </trkpt>
      <trkpt lat="44.8093" lon="6.29572">
        <ele>1796</ele>
        <time>2020-07-19T03:26:50Z</time>
      </trkpt>
      <trkpt lat="44.80946" lon="6.2957">
        <ele>1788</ele>
        <time>2020-07-19T03:27:11Z</time>
      </trkpt>
      <trkpt lat="44.8096" lon="6.29556">
        <ele>1784</ele>
        <time>2020-07-19T03:27:34Z</time>
      </trkpt>
      <trkpt lat="44.80964" lon="6.2956">
        <ele>1781</ele>
        <time>2020-07-19T03:27:40Z</time>
      </trkpt>
      <trkpt lat="44.80958" lon="6.29574">
        <ele>1781</ele>
        <time>2020-07-19T03:27:56Z</time>
      </trkpt>
      <trkpt lat="44.80973" lon="6.29572">
        <ele>1774</ele>
        <time>2020-07-19T03:28:16Z</time>
      </trkpt>
      <trkpt lat="44.8098" lon="6.29565">
        <ele>1772</ele>
        <time>2020-07-19T03:28:28Z</time>
      </trkpt>
      <trkpt lat="44.8098" lon="6.29541">
        <ele>1777</ele>
        <time>2020-07-19T03:28:50Z</time>
      </trkpt>
      <trkpt lat="44.80989" lon="6.2953">
        <ele>1775</ele>
        <time>2020-07-19T03:29:06Z</time>
      </trkpt>
      <trkpt lat="44.80993" lon="6.29542">
        <ele>1770</ele>
        <time>2020-07-19T03:29:19Z</time>
      </trkpt>
      <trkpt lat="44.81005" lon="6.29525">
        <ele>1768</ele>
        <time>2020-07-19T03:29:41Z</time>
      </trkpt>
      <trkpt lat="44.81015" lon="6.29531">
        <ele>1762</ele>
        <time>2020-07-19T03:29:56Z</time>
      </trkpt>
      <trkpt lat="44.81033" lon="6.29514">
        <ele>1756</ele>
        <time>2020-07-19T03:30:25Z</time>
      </trkpt>
      <trkpt lat="44.81049" lon="6.29511">
        <ele>1749</ele>
        <time>2020-07-19T03:30:46Z</time>
      </trkpt>
      <trkpt lat="44.81054" lon="6.29506">
        <ele>1747</ele>
        <time>2020-07-19T03:30:55Z</time>
      </trkpt>
      <trkpt lat="44.81074" lon="6.29502">
        <ele>1737</ele>
        <time>2020-07-19T03:31:21Z</time>
      </trkpt>
      <trkpt lat="44.81075" lon="6.29512">
        <ele>1736</ele>
        <time>2020-07-19T03:31:31Z</time>
      </trkpt>
      <trkpt lat="44.8108" lon="6.29521">
        <ele>1732</ele>
        <time>2020-07-19T03:31:42Z</time>
      </trkpt>
      <trkpt lat="44.81081" lon="6.29525">
        <ele>1731</ele>
        <time>2020-07-19T03:31:46Z</time>
      </trkpt>
      <trkpt lat="44.81078" lon="6.29535">
        <ele>1731</ele>
        <time>2020-07-19T03:31:56Z</time>
      </trkpt>
      <trkpt lat="44.81087" lon="6.29567">
        <ele>1724</ele>
        <time>2020-07-19T03:32:29Z</time>
      </trkpt>
      <trkpt lat="44.81108" lon="6.29599">
        <ele>1715</ele>
        <time>2020-07-19T03:33:10Z</time>
      </trkpt>
      <trkpt lat="44.81117" lon="6.2962">
        <ele>1709</ele>
        <time>2020-07-19T03:33:33Z</time>
      </trkpt>
      <trkpt lat="44.81116" lon="6.29644">
        <ele>1705</ele>
        <time>2020-07-19T03:33:56Z</time>
      </trkpt>
      <trkpt lat="44.81109" lon="6.29648">
        <ele>1706</ele>
        <time>2020-07-19T03:34:06Z</time>
      </trkpt>
      <trkpt lat="44.81111" lon="6.29653">
        <ele>1704</ele>
        <time>2020-07-19T03:34:12Z</time>
      </trkpt>
      <trkpt lat="44.81119" lon="6.29655">
        <ele>1703</ele>
        <time>2020-07-19T03:34:22Z</time>
      </trkpt>
      <trkpt lat="44.81131" lon="6.29643">
        <ele>1702</ele>
        <time>2020-07-19T03:34:42Z</time>
      </trkpt>
      <trkpt lat="44.81146" lon="6.29615">
        <ele>1704</ele>
        <time>2020-07-19T03:35:15Z</time>
      </trkpt>
      <trkpt lat="44.81149" lon="6.296">
        <ele>1705</ele>
        <time>2020-07-19T03:35:30Z</time>
      </trkpt>
      <trkpt lat="44.81155" lon="6.29597">
        <ele>1705</ele>
        <time>2020-07-19T03:35:38Z</time>
      </trkpt>
      <trkpt lat="44.81196" lon="6.29614">
        <ele>1697</ele>
        <time>2020-07-19T03:36:35Z</time>
      </trkpt>
      <trkpt lat="44.81218" lon="6.29629">
        <ele>1693</ele>
        <time>2020-07-19T03:37:08Z</time>
      </trkpt>
      <trkpt lat="44.81241" lon="6.29649">
        <ele>1688</ele>
        <time>2020-07-19T03:37:44Z</time>
      </trkpt>
      <trkpt lat="44.81267" lon="6.29649">
        <ele>1685</ele>
        <time>2020-07-19T03:38:19Z</time>
      </trkpt>
      <trkpt lat="44.81316" lon="6.29639">
        <ele>1681</ele>
        <time>2020-07-19T03:39:25Z</time>
      </trkpt>
      <trkpt lat="44.81375" lon="6.29617">
        <ele>1674</ele>
        <time>2020-07-19T03:40:46Z</time>
      </trkpt>
      <trkpt lat="44.81456" lon="6.29591">
        <ele>1663</ele>
        <time>2020-07-19T03:42:37Z</time>
      </trkpt>
      <trkpt lat="44.81533" lon="6.29564">
        <ele>1657</ele>
        <time>2020-07-19T03:44:23Z</time>
      </trkpt>
      <trkpt lat="44.816" lon="6.29563">
        <ele>1651</ele>
        <time>2020-07-19T03:45:53Z</time>
      </trkpt>
      <trkpt lat="44.81616" lon="6.29564">
        <ele>1650</ele>
        <time>2020-07-19T03:46:14Z</time>
      </trkpt>
      <trkpt lat="44.8163" lon="6.2956">
        <ele>1650</ele>
        <time>2020-07-19T03:46:33Z</time>
      </trkpt>
      <trkpt lat="44.81666" lon="6.29557">
        <ele>1648</ele>
        <time>2020-07-19T03:47:21Z</time>
      </trkpt>
      <trkpt lat="44.81675" lon="6.29554">
        <ele>1648</ele>
        <time>2020-07-19T03:47:33Z</time>
      </trkpt>
      <trkpt lat="44.8169" lon="6.29553">
        <ele>1647</ele>
        <time>2020-07-19T03:47:53Z</time>
      </trkpt>
      <trkpt lat="44.817" lon="6.29555">
        <ele>1646</ele>
        <time>2020-07-19T03:48:07Z</time>
      </trkpt>
      <trkpt lat="44.81708" lon="6.29563">
        <ele>1644</ele>
        <time>2020-07-19T03:48:20Z</time>
      </trkpt>
      <trkpt lat="44.81718" lon="6.29564">
        <ele>1643</ele>
        <time>2020-07-19T03:48:33Z</time>
      </trkpt>
      <trkpt lat="44.81722" lon="6.2957">
        <ele>1642</ele>
        <time>2020-07-19T03:48:41Z</time>
      </trkpt>
      <trkpt lat="44.81735" lon="6.29568">
        <ele>1642</ele>
        <time>2020-07-19T03:48:59Z</time>
      </trkpt>
      <trkpt lat="44.81748" lon="6.29563">
        <ele>1641</ele>
        <time>2020-07-19T03:49:17Z</time>
      </trkpt>
      <trkpt lat="44.81751" lon="6.29566">
        <ele>1641</ele>
        <time>2020-07-19T03:49:22Z</time>
      </trkpt>
      <trkpt lat="44.81756" lon="6.29563">
        <ele>1641</ele>
        <time>2020-07-19T03:49:29Z</time>
      </trkpt>
      <trkpt lat="44.81776" lon="6.29567">
        <ele>1638</ele>
        <time>2020-07-19T03:49:56Z</time>
      </trkpt>
      <trkpt lat="44.81793" lon="6.29559">
        <ele>1638</ele>
        <time>2020-07-19T03:50:20Z</time>
      </trkpt>
      <trkpt lat="44.81815" lon="6.29556">
        <ele>1636</ele>
        <time>2020-07-19T03:50:49Z</time>
      </trkpt>
      <trkpt lat="44.8183" lon="6.29558">
        <ele>1634</ele>
        <time>2020-07-19T03:51:09Z</time>
      </trkpt>
      <trkpt lat="44.81836" lon="6.29555">
        <ele>1634</ele>
        <time>2020-07-19T03:51:18Z</time>
      </trkpt>
      <trkpt lat="44.81841" lon="6.29557">
        <ele>1633</ele>
        <time>2020-07-19T03:51:25Z</time>
      </trkpt>
      <trkpt lat="44.81851" lon="6.29555">
        <ele>1633</ele>
        <time>2020-07-19T03:51:38Z</time>
      </trkpt>
      <trkpt lat="44.81874" lon="6.29565">
        <ele>1628</ele>
        <time>2020-07-19T03:52:10Z</time>
      </trkpt>
      <trkpt lat="44.8189" lon="6.29561">
        <ele>1627</ele>
        <time>2020-07-19T03:52:32Z</time>
      </trkpt>
      <trkpt lat="44.81916" lon="6.29563">
        <ele>1624</ele>
        <time>2020-07-19T03:53:07Z</time>
      </trkpt>
      <trkpt lat="44.81925" lon="6.29557">
        <ele>1624</ele>
        <time>2020-07-19T03:53:20Z</time>
      </trkpt>
      <trkpt lat="44.81932" lon="6.29557">
        <ele>1623</ele>
        <time>2020-07-19T03:53:29Z</time>
      </trkpt>
      <trkpt lat="44.81958" lon="6.29547">
        <ele>1622</ele>
        <time>2020-07-19T03:54:05Z</time>
      </trkpt>
      <trkpt lat="44.81967" lon="6.29548">
        <ele>1620</ele>
        <time>2020-07-19T03:54:17Z</time>
      </trkpt>
      <trkpt lat="44.81972" lon="6.29547">
        <ele>1620</ele>
        <time>2020-07-19T03:54:24Z</time>
      </trkpt>
      <trkpt lat="44.81992" lon="6.29535">
        <ele>1619</ele>
        <time>2020-07-19T03:54:53Z</time>
      </trkpt>
      <trkpt lat="44.82021" lon="6.29535">
        <ele>1613</ele>
        <time>2020-07-19T03:55:32Z</time>
      </trkpt>
      <trkpt lat="44.82048" lon="6.29524">
        <ele>1607</ele>
        <time>2020-07-19T03:56:09Z</time>
      </trkpt>
      <trkpt lat="44.82063" lon="6.29526">
        <ele>1604</ele>
        <time>2020-07-19T03:56:29Z</time>
      </trkpt>
      <trkpt lat="44.8207" lon="6.29524">
        <ele>1602</ele>
        <time>2020-07-19T03:56:39Z</time>
      </trkpt>
      <trkpt lat="44.82077" lon="6.29519">
        <ele>1601</ele>
        <time>2020-07-19T03:56:49Z</time>
      </trkpt>
      <trkpt lat="44.82082" lon="6.29513">
        <ele>1600</ele>
        <time>2020-07-19T03:56:58Z</time>
      </trkpt>
      <trkpt lat="44.82094" lon="6.29507">
        <ele>1597</ele>
        <time>2020-07-19T03:57:15Z</time>
      </trkpt>
      <trkpt lat="44.821" lon="6.29509">
        <ele>1596</ele>
        <time>2020-07-19T03:57:23Z</time>
      </trkpt>
      <trkpt lat="44.82117" lon="6.29504">
        <ele>1592</ele>
        <time>2020-07-19T03:57:47Z</time>
      </trkpt>
      <trkpt lat="44.82133" lon="6.29495">
        <ele>1589</ele>
        <time>2020-07-19T03:58:10Z</time>
      </trkpt>
      <trkpt lat="44.82155" lon="6.29468">
        <ele>1591</ele>
        <time>2020-07-19T03:58:48Z</time>
      </trkpt>
      <trkpt lat="44.82164" lon="6.29467">
        <ele>1589</ele>
        <time>2020-07-19T03:59:01Z</time>
      </trkpt>
      <trkpt lat="44.82178" lon="6.29452">
        <ele>1590</ele>
        <time>2020-07-19T03:59:24Z</time>
      </trkpt>
      <trkpt lat="44.82184" lon="6.29444">
        <ele>1590</ele>
        <time>2020-07-19T03:59:35Z</time>
      </trkpt>
      <trkpt lat="44.82199" lon="6.29429">
        <ele>1590</ele>
        <time>2020-07-19T04:00:00Z</time>
      </trkpt>
      <trkpt lat="44.82207" lon="6.29417">
        <ele>1591</ele>
        <time>2020-07-19T04:00:15Z</time>
      </trkpt>
      <trkpt lat="44.82221" lon="6.29405">
        <ele>1593</ele>
        <time>2020-07-19T04:00:37Z</time>
      </trkpt>
      <trkpt lat="44.82264" lon="6.29386">
        <ele>1590</ele>
        <time>2020-07-19T04:01:37Z</time>
      </trkpt>
      <trkpt lat="44.82278" lon="6.29372">
        <ele>1591</ele>
        <time>2020-07-19T04:02:00Z</time>
      </trkpt>
      <trkpt lat="44.82309" lon="6.29361">
        <ele>1586</ele>
        <time>2020-07-19T04:02:43Z</time>
      </trkpt>
      <trkpt lat="44.82331" lon="6.2935">
        <ele>1582</ele>
        <time>2020-07-19T04:03:14Z</time>
      </trkpt>
      <trkpt lat="44.82336" lon="6.29351">
        <ele>1581</ele>
        <time>2020-07-19T04:03:21Z</time>
      </trkpt>
      <trkpt lat="44.82347" lon="6.29349">
        <ele>1581</ele>
        <time>2020-07-19T04:03:35Z</time>
      </trkpt>
      <trkpt lat="44.82362" lon="6.29351">
        <ele>1580</ele>
        <time>2020-07-19T04:03:56Z</time>
      </trkpt>
      <trkpt lat="44.82392" lon="6.29343">
        <ele>1581</ele>
        <time>2020-07-19T04:04:36Z</time>
      </trkpt>
      <trkpt lat="44.82404" lon="6.29347">
        <ele>1580</ele>
        <time>2020-07-19T04:04:53Z</time>
      </trkpt>
      <trkpt lat="44.82425" lon="6.29343">
        <ele>1578</ele>
        <time>2020-07-19T04:05:21Z</time>
      </trkpt>
      <trkpt lat="44.82433" lon="6.29336">
        <ele>1577</ele>
        <time>2020-07-19T04:05:34Z</time>
      </trkpt>
      <trkpt lat="44.82444" lon="6.29334">
        <ele>1575</ele>
        <time>2020-07-19T04:05:48Z</time>
      </trkpt>
      <trkpt lat="44.82449" lon="6.29338">
        <ele>1574</ele>
        <time>2020-07-19T04:05:56Z</time>
      </trkpt>
      <trkpt lat="44.82454" lon="6.29344">
        <ele>1573</ele>
        <time>2020-07-19T04:06:05Z</time>
      </trkpt>
      <trkpt lat="44.82461" lon="6.29347">
        <ele>1572</ele>
        <time>2020-07-19T04:06:15Z</time>
      </trkpt>
      <trkpt lat="44.82477" lon="6.29342">
        <ele>1569</ele>
        <time>2020-07-19T04:06:36Z</time>
      </trkpt>
      <trkpt lat="44.82475" lon="6.29343">
        <ele>1570</ele>
        <time>2020-07-20T22:48:20Z</time>
      </trkpt>
      <trkpt lat="44.82482" lon="6.29341">
        <ele>1568</ele>
        <time>2020-07-20T22:48:30Z</time>
      </trkpt>
      <trkpt lat="44.82488" lon="6.29342">
        <ele>1568</ele>
        <time>2020-07-20T22:48:38Z</time>
      </trkpt>
      <trkpt lat="44.82526" lon="6.29316">
        <ele>1564</ele>
        <time>2020-07-20T22:49:34Z</time>
      </trkpt>
      <trkpt lat="44.82534" lon="6.29323">
        <ele>1562</ele>
        <time>2020-07-20T22:49:47Z</time>
      </trkpt>
      <trkpt lat="44.82554" lon="6.29313">
        <ele>1560</ele>
        <time>2020-07-20T22:50:15Z</time>
      </trkpt>
      <trkpt lat="44.82577" lon="6.29315">
        <ele>1557</ele>
        <time>2020-07-20T22:50:46Z</time>
      </trkpt>
      <trkpt lat="44.82583" lon="6.29312">
        <ele>1556</ele>
        <time>2020-07-20T22:50:54Z</time>
      </trkpt>
      <trkpt lat="44.82601" lon="6.29293">
        <ele>1557</ele>
        <time>2020-07-20T22:51:24Z</time>
      </trkpt>
      <trkpt lat="44.82607" lon="6.29281">
        <ele>1557</ele>
        <time>2020-07-20T22:51:38Z</time>
      </trkpt>
      <trkpt lat="44.82618" lon="6.29279">
        <ele>1557</ele>
        <time>2020-07-20T22:51:53Z</time>
      </trkpt>
      <trkpt lat="44.82627" lon="6.29271">
        <ele>1558</ele>
        <time>2020-07-20T22:52:07Z</time>
      </trkpt>
      <trkpt lat="44.82635" lon="6.29268">
        <ele>1558</ele>
        <time>2020-07-20T22:52:18Z</time>
      </trkpt>
      <trkpt lat="44.82655" lon="6.29248">
        <ele>1557</ele>
        <time>2020-07-20T22:52:51Z</time>
      </trkpt>
      <trkpt lat="44.82661" lon="6.29244">
        <ele>1558</ele>
        <time>2020-07-20T22:53:00Z</time>
      </trkpt>
      <trkpt lat="44.82669" lon="6.29243">
        <ele>1558</ele>
        <time>2020-07-20T22:53:10Z</time>
      </trkpt>
      <trkpt lat="44.82687" lon="6.29222">
        <ele>1556</ele>
        <time>2020-07-20T22:53:42Z</time>
      </trkpt>
      <trkpt lat="44.82691" lon="6.29221">
        <ele>1555</ele>
        <time>2020-07-20T22:53:47Z</time>
      </trkpt>
      <trkpt lat="44.82706" lon="6.29224">
        <ele>1554</ele>
        <time>2020-07-20T22:54:07Z</time>
      </trkpt>
      <trkpt lat="44.82715" lon="6.29229">
        <ele>1553</ele>
        <time>2020-07-20T22:54:20Z</time>
      </trkpt>
      <trkpt lat="44.82718" lon="6.29228">
        <ele>1552</ele>
        <time>2020-07-20T22:54:24Z</time>
      </trkpt>
      <trkpt lat="44.82727" lon="6.29215">
        <ele>1551</ele>
        <time>2020-07-20T22:54:41Z</time>
      </trkpt>
      <trkpt lat="44.82734" lon="6.29211">
        <ele>1549</ele>
        <time>2020-07-20T22:54:51Z</time>
      </trkpt>
      <trkpt lat="44.82738" lon="6.29211">
        <ele>1549</ele>
        <time>2020-07-20T22:54:57Z</time>
      </trkpt>
      <trkpt lat="44.82741" lon="6.29214">
        <ele>1549</ele>
        <time>2020-07-20T22:55:02Z</time>
      </trkpt>
      <trkpt lat="44.82751" lon="6.29213">
        <ele>1547</ele>
        <time>2020-07-20T22:55:15Z</time>
      </trkpt>
      <trkpt lat="44.82765" lon="6.29192">
        <ele>1545</ele>
        <time>2020-07-20T22:55:42Z</time>
      </trkpt>
      <trkpt lat="44.82768" lon="6.29192">
        <ele>1545</ele>
        <time>2020-07-20T22:55:46Z</time>
      </trkpt>
      <trkpt lat="44.82772" lon="6.29199">
        <ele>1546</ele>
        <time>2020-07-20T22:55:55Z</time>
      </trkpt>
      <trkpt lat="44.82776" lon="6.29197">
        <ele>1546</ele>
        <time>2020-07-20T22:56:01Z</time>
      </trkpt>
      <trkpt lat="44.82782" lon="6.29189">
        <ele>1544</ele>
        <time>2020-07-20T22:56:12Z</time>
      </trkpt>
      <trkpt lat="44.82789" lon="6.29193">
        <ele>1545</ele>
        <time>2020-07-20T22:56:22Z</time>
      </trkpt>
      <trkpt lat="44.82797" lon="6.29201">
        <ele>1546</ele>
        <time>2020-07-20T22:56:35Z</time>
      </trkpt>
      <trkpt lat="44.82801" lon="6.29198">
        <ele>1546</ele>
        <time>2020-07-20T22:56:41Z</time>
      </trkpt>
      <trkpt lat="44.82824" lon="6.29164">
        <ele>1538</ele>
        <time>2020-07-20T22:57:25Z</time>
      </trkpt>
      <trkpt lat="44.82841" lon="6.29155">
        <ele>1538</ele>
        <time>2020-07-20T22:57:49Z</time>
      </trkpt>
      <trkpt lat="44.82858" lon="6.29139">
        <ele>1537</ele>
        <time>2020-07-20T22:58:17Z</time>
      </trkpt>
      <trkpt lat="44.82874" lon="6.29116">
        <ele>1533</ele>
        <time>2020-07-20T22:58:47Z</time>
      </trkpt>
      <trkpt lat="44.82885" lon="6.29113">
        <ele>1532</ele>
        <time>2020-07-20T22:59:02Z</time>
      </trkpt>
      <trkpt lat="44.82891" lon="6.29109">
        <ele>1531</ele>
        <time>2020-07-20T22:59:11Z</time>
      </trkpt>
      <trkpt lat="44.82913" lon="6.29101">
        <ele>1527</ele>
        <time>2020-07-20T22:59:41Z</time>
      </trkpt>
      <trkpt lat="44.82927" lon="6.29088">
        <ele>1525</ele>
        <time>2020-07-20T23:00:04Z</time>
      </trkpt>
      <trkpt lat="44.82942" lon="6.29083">
        <ele>1527</ele>
        <time>2020-07-20T23:00:24Z</time>
      </trkpt>
      <trkpt lat="44.82959" lon="6.29068">
        <ele>1528</ele>
        <time>2020-07-20T23:00:51Z</time>
      </trkpt>
      <trkpt lat="44.82969" lon="6.29066">
        <ele>1529</ele>
        <time>2020-07-20T23:01:05Z</time>
      </trkpt>
      <trkpt lat="44.82979" lon="6.29057">
        <ele>1528</ele>
        <time>2020-07-20T23:01:20Z</time>
      </trkpt>
      <trkpt lat="44.83001" lon="6.29026">
        <ele>1520</ele>
        <time>2020-07-20T23:02:02Z</time>
      </trkpt>
      <trkpt lat="44.83017" lon="6.28987">
        <ele>1514</ele>
        <time>2020-07-20T23:02:45Z</time>
      </trkpt>
      <trkpt lat="44.83029" lon="6.28949">
        <ele>1510</ele>
        <time>2020-07-20T23:03:24Z</time>
      </trkpt>
      <trkpt lat="44.83041" lon="6.28922">
        <ele>1506</ele>
        <time>2020-07-20T23:03:54Z</time>
      </trkpt>
      <trkpt lat="44.83043" lon="6.28902">
        <ele>1504</ele>
        <time>2020-07-20T23:04:13Z</time>
      </trkpt>
      <trkpt lat="44.8306" lon="6.28858">
        <ele>1498</ele>
        <time>2020-07-20T23:05:01Z</time>
      </trkpt>
      <trkpt lat="44.83077" lon="6.28826">
        <ele>1489</ele>
        <time>2020-07-20T23:05:38Z</time>
      </trkpt>
      <trkpt lat="44.83089" lon="6.28785">
        <ele>1485</ele>
        <time>2020-07-20T23:06:20Z</time>
      </trkpt>
      <trkpt lat="44.83084" lon="6.28751">
        <ele>1478</ele>
        <time>2020-07-20T23:06:53Z</time>
      </trkpt>
      <trkpt lat="44.83099" lon="6.28679">
        <ele>1473</ele>
        <time>2020-07-20T23:08:04Z</time>
      </trkpt>
      <trkpt lat="44.83099" lon="6.28659">
        <ele>1470</ele>
        <time>2020-07-20T23:08:23Z</time>
      </trkpt>
      <trkpt lat="44.83096" lon="6.28638">
        <ele>1466</ele>
        <time>2020-07-20T23:08:43Z</time>
      </trkpt>
      <trkpt lat="44.83096" lon="6.28629">
        <ele>1465</ele>
        <time>2020-07-20T23:08:52Z</time>
      </trkpt>
      <trkpt lat="44.83098" lon="6.28595">
        <ele>1462</ele>
        <time>2020-07-20T23:09:24Z</time>
      </trkpt>
      <trkpt lat="44.83103" lon="6.28565">
        <ele>1459</ele>
        <time>2020-07-20T23:09:53Z</time>
      </trkpt>
      <trkpt lat="44.83104" lon="6.28542">
        <ele>1456</ele>
        <time>2020-07-20T23:10:15Z</time>
      </trkpt>
      <trkpt lat="44.83108" lon="6.28527">
        <ele>1455</ele>
        <time>2020-07-20T23:10:30Z</time>
      </trkpt>
      <trkpt lat="44.83125" lon="6.28485">
        <ele>1450</ele>
        <time>2020-07-20T23:11:16Z</time>
      </trkpt>
      <trkpt lat="44.83134" lon="6.28479">
        <ele>1450</ele>
        <time>2020-07-20T23:11:29Z</time>
      </trkpt>
      <trkpt lat="44.83136" lon="6.28476">
        <ele>1450</ele>
        <time>2020-07-20T23:11:33Z</time>
      </trkpt>
      <trkpt lat="44.83136" lon="6.28466">
        <ele>1448</ele>
        <time>2020-07-20T23:11:43Z</time>
      </trkpt>
      <trkpt lat="44.83145" lon="6.28454">
        <ele>1447</ele>
        <time>2020-07-20T23:11:59Z</time>
      </trkpt>
      <trkpt lat="44.83146" lon="6.28447">
        <ele>1446</ele>
        <time>2020-07-20T23:12:06Z</time>
      </trkpt>
      <trkpt lat="44.83171" lon="6.28408">
        <ele>1442</ele>
        <time>2020-07-20T23:12:56Z</time>
      </trkpt>
      <trkpt lat="44.83173" lon="6.28386">
        <ele>1441</ele>
        <time>2020-07-20T23:13:17Z</time>
      </trkpt>
      <trkpt lat="44.83163" lon="6.28371">
        <ele>1437</ele>
        <time>2020-07-20T23:13:36Z</time>
      </trkpt>
      <trkpt lat="44.83178" lon="6.28365">
        <ele>1442</ele>
        <time>2020-07-20T23:13:57Z</time>
      </trkpt>
      <trkpt lat="44.83198" lon="6.28361">
        <ele>1450</ele>
        <time>2020-07-20T23:14:24Z</time>
      </trkpt>
      <trkpt lat="44.83211" lon="6.28358">
        <ele>1456</ele>
        <time>2020-07-20T23:14:42Z</time>
      </trkpt>
      <trkpt lat="44.83214" lon="6.28346">
        <ele>1458</ele>
        <time>2020-07-20T23:14:54Z</time>
      </trkpt>
      <trkpt lat="44.83214" lon="6.28321">
        <ele>1459</ele>
        <time>2020-07-20T23:15:17Z</time>
      </trkpt>
      <trkpt lat="44.8321" lon="6.28286">
        <ele>1459</ele>
        <time>2020-07-20T23:15:51Z</time>
      </trkpt>
      <trkpt lat="44.83205" lon="6.2824">
        <ele>1458</ele>
        <time>2020-07-20T23:16:35Z</time>
      </trkpt>
      <trkpt lat="44.83191" lon="6.28188">
        <ele>1447</ele>
        <time>2020-07-20T23:17:28Z</time>
      </trkpt>
      <trkpt lat="44.83175" lon="6.28141">
        <ele>1438</ele>
        <time>2020-07-20T23:18:17Z</time>
      </trkpt>
      <trkpt lat="44.83157" lon="6.281">
        <ele>1434</ele>
        <time>2020-07-20T23:19:03Z</time>
      </trkpt>
      <trkpt lat="44.83129" lon="6.28054">
        <ele>1433</ele>
        <time>2020-07-20T23:20:00Z</time>
      </trkpt>
      <trkpt lat="44.83081" lon="6.28005">
        <ele>1418</ele>
        <time>2020-07-20T23:21:19Z</time>
      </trkpt>
      <trkpt lat="44.8307" lon="6.2799">
        <ele>1420</ele>
        <time>2020-07-20T23:21:39Z</time>
      </trkpt>
      <trkpt lat="44.8306" lon="6.27981">
        <ele>1421</ele>
        <time>2020-07-20T23:21:55Z</time>
      </trkpt>
      <trkpt lat="44.83031" lon="6.27964">
        <ele>1420</ele>
        <time>2020-07-20T23:22:37Z</time>
      </trkpt>
      <trkpt lat="44.83012" lon="6.2795">
        <ele>1418</ele>
        <time>2020-07-20T23:23:06Z</time>
      </trkpt>
      <trkpt lat="44.82999" lon="6.27937">
        <ele>1416</ele>
        <time>2020-07-20T23:23:27Z</time>
      </trkpt>
      <trkpt lat="44.82988" lon="6.27921">
        <ele>1416</ele>
        <time>2020-07-20T23:23:48Z</time>
      </trkpt>
      <trkpt lat="44.82988" lon="6.27897">
        <ele>1418</ele>
        <time>2020-07-20T23:24:11Z</time>
      </trkpt>
      <trkpt lat="44.82966" lon="6.27858">
        <ele>1420</ele>
        <time>2020-07-20T23:24:58Z</time>
      </trkpt>
      <trkpt lat="44.82957" lon="6.27818">
        <ele>1420</ele>
        <time>2020-07-20T23:25:38Z</time>
      </trkpt>
      <trkpt lat="44.82959" lon="6.27797">
        <ele>1422</ele>
        <time>2020-07-20T23:25:58Z</time>
      </trkpt>
      <trkpt lat="44.82944" lon="6.2777">
        <ele>1419</ele>
        <time>2020-07-20T23:26:30Z</time>
      </trkpt>
      <trkpt lat="44.82942" lon="6.27711">
        <ele>1418</ele>
        <time>2020-07-20T23:27:26Z</time>
      </trkpt>
      <trkpt lat="44.82935" lon="6.2764">
        <ele>1413</ele>
        <time>2020-07-20T23:28:34Z</time>
      </trkpt>
      <trkpt lat="44.82932" lon="6.27621">
        <ele>1411</ele>
        <time>2020-07-20T23:28:52Z</time>
      </trkpt>
      <trkpt lat="44.82925" lon="6.27599">
        <ele>1408</ele>
        <time>2020-07-20T23:29:15Z</time>
      </trkpt>
      <trkpt lat="44.82923" lon="6.27579">
        <ele>1406</ele>
        <time>2020-07-20T23:29:34Z</time>
      </trkpt>
      <trkpt lat="44.82932" lon="6.27547">
        <ele>1409</ele>
        <time>2020-07-20T23:30:07Z</time>
      </trkpt>
      <trkpt lat="44.82927" lon="6.27537">
        <ele>1407</ele>
        <time>2020-07-20T23:30:19Z</time>
      </trkpt>
      <trkpt lat="44.82922" lon="6.27531">
        <ele>1405</ele>
        <time>2020-07-20T23:30:27Z</time>
      </trkpt>
      <trkpt lat="44.82916" lon="6.27509">
        <ele>1403</ele>
        <time>2020-07-20T23:30:50Z</time>
      </trkpt>
      <trkpt lat="44.82914" lon="6.2749">
        <ele>1403</ele>
        <time>2020-07-20T23:31:08Z</time>
      </trkpt>
      <trkpt lat="44.82908" lon="6.27468">
        <ele>1404</ele>
        <time>2020-07-20T23:31:30Z</time>
      </trkpt>
      <trkpt lat="44.82906" lon="6.27441">
        <ele>1405</ele>
        <time>2020-07-20T23:31:56Z</time>
      </trkpt>
      <trkpt lat="44.82905" lon="6.2734">
        <ele>1407</ele>
        <time>2020-07-20T23:33:31Z</time>
      </trkpt>
      <trkpt lat="44.82901" lon="6.27314">
        <ele>1407</ele>
        <time>2020-07-20T23:33:57Z</time>
      </trkpt>
      <trkpt lat="44.82899" lon="6.27264">
        <ele>1408</ele>
        <time>2020-07-20T23:34:44Z</time>
      </trkpt>
      <trkpt lat="44.829" lon="6.27231">
        <ele>1411</ele>
        <time>2020-07-20T23:35:15Z</time>
      </trkpt>
      <trkpt lat="44.82902" lon="6.272">
        <ele>1416</ele>
        <time>2020-07-20T23:35:45Z</time>
      </trkpt>
      <trkpt lat="44.82901" lon="6.2714">
        <ele>1424</ele>
        <time>2020-07-20T23:36:41Z</time>
      </trkpt>
      <trkpt lat="44.82896" lon="6.27116">
        <ele>1425</ele>
        <time>2020-07-20T23:37:05Z</time>
      </trkpt>
      <trkpt lat="44.82906" lon="6.27095">
        <ele>1432</ele>
        <time>2020-07-20T23:37:29Z</time>
      </trkpt>
      <trkpt lat="44.82911" lon="6.27078">
        <ele>1437</ele>
        <time>2020-07-20T23:37:46Z</time>
      </trkpt>
      <trkpt lat="44.82898" lon="6.27068">
        <ele>1431</ele>
        <time>2020-07-20T23:38:06Z</time>
      </trkpt>
      <trkpt lat="44.82904" lon="6.27051">
        <ele>1436</ele>
        <time>2020-07-20T23:38:24Z</time>
      </trkpt>
      <trkpt lat="44.82906" lon="6.27024">
        <ele>1439</ele>
        <time>2020-07-20T23:38:50Z</time>
      </trkpt>
      <trkpt lat="44.82896" lon="6.26969">
        <ele>1443</ele>
        <time>2020-07-20T23:39:44Z</time>
      </trkpt>
      <trkpt lat="44.82891" lon="6.26949">
        <ele>1444</ele>
        <time>2020-07-20T23:40:04Z</time>
      </trkpt>
      <trkpt lat="44.8288" lon="6.26945">
        <ele>1439</ele>
        <time>2020-07-20T23:40:19Z</time>
      </trkpt>
      <trkpt lat="44.82878" lon="6.26923">
        <ele>1442</ele>
        <time>2020-07-20T23:40:40Z</time>
      </trkpt>
      <trkpt lat="44.82879" lon="6.2691">
        <ele>1445</ele>
        <time>2020-07-20T23:40:52Z</time>
      </trkpt>
      <trkpt lat="44.8287" lon="6.26901">
        <ele>1441</ele>
        <time>2020-07-20T23:41:07Z</time>
      </trkpt>
      <trkpt lat="44.82859" lon="6.26881">
        <ele>1439</ele>
        <time>2020-07-20T23:41:31Z</time>
      </trkpt>
      <trkpt lat="44.82848" lon="6.26872">
        <ele>1434</ele>
        <time>2020-07-20T23:41:48Z</time>
      </trkpt>
      <trkpt lat="44.82836" lon="6.26864">
        <ele>1429</ele>
        <time>2020-07-20T23:42:06Z</time>
      </trkpt>
      <trkpt lat="44.82825" lon="6.26851">
        <ele>1426</ele>
        <time>2020-07-20T23:42:25Z</time>
      </trkpt>
      <trkpt lat="44.82815" lon="6.26835">
        <ele>1424</ele>
        <time>2020-07-20T23:42:45Z</time>
      </trkpt>
      <trkpt lat="44.82817" lon="6.26809">
        <ele>1427</ele>
        <time>2020-07-20T23:43:10Z</time>
      </trkpt>
      <trkpt lat="44.82822" lon="6.26793">
        <ele>1430</ele>
        <time>2020-07-20T23:43:26Z</time>
      </trkpt>
      <trkpt lat="44.82824" lon="6.26777">
        <ele>1432</ele>
        <time>2020-07-20T23:43:42Z</time>
      </trkpt>
      <trkpt lat="44.82804" lon="6.26759">
        <ele>1424</ele>
        <time>2020-07-20T23:44:13Z</time>
      </trkpt>
      <trkpt lat="44.82782" lon="6.26692">
        <ele>1416</ele>
        <time>2020-07-20T23:45:23Z</time>
      </trkpt>
      <trkpt lat="44.82774" lon="6.26673">
        <ele>1412</ele>
        <time>2020-07-20T23:45:44Z</time>
      </trkpt>
      <trkpt lat="44.82769" lon="6.26653">
        <ele>1410</ele>
        <time>2020-07-20T23:46:04Z</time>
      </trkpt>
      <trkpt lat="44.82766" lon="6.26612">
        <ele>1410</ele>
        <time>2020-07-20T23:46:43Z</time>
      </trkpt>
      <trkpt lat="44.8276" lon="6.26597">
        <ele>1408</ele>
        <time>2020-07-20T23:46:59Z</time>
      </trkpt>
      <trkpt lat="44.82757" lon="6.26577">
        <ele>1408</ele>
        <time>2020-07-20T23:47:19Z</time>
      </trkpt>
      <trkpt lat="44.8275" lon="6.26553">
        <ele>1407</ele>
        <time>2020-07-20T23:47:43Z</time>
      </trkpt>
      <trkpt lat="44.82749" lon="6.26529">
        <ele>1409</ele>
        <time>2020-07-20T23:48:06Z</time>
      </trkpt>
      <trkpt lat="44.82739" lon="6.26511">
        <ele>1406</ele>
        <time>2020-07-20T23:48:28Z</time>
      </trkpt>
      <trkpt lat="44.82739" lon="6.2649">
        <ele>1407</ele>
        <time>2020-07-20T23:48:48Z</time>
      </trkpt>
      <trkpt lat="44.82742" lon="6.26462">
        <ele>1411</ele>
        <time>2020-07-20T23:49:14Z</time>
      </trkpt>
      <trkpt lat="44.82742" lon="6.26441">
        <ele>1412</ele>
        <time>2020-07-20T23:49:34Z</time>
      </trkpt>
      <trkpt lat="44.82738" lon="6.26411">
        <ele>1413</ele>
        <time>2020-07-20T23:50:03Z</time>
      </trkpt>
      <trkpt lat="44.8273" lon="6.26386">
        <ele>1411</ele>
        <time>2020-07-20T23:50:29Z</time>
      </trkpt>
      <trkpt lat="44.82717" lon="6.2637">
        <ele>1408</ele>
        <time>2020-07-20T23:50:52Z</time>
      </trkpt>
      <trkpt lat="44.82706" lon="6.26353">
        <ele>1405</ele>
        <time>2020-07-20T23:51:14Z</time>
      </trkpt>
      <trkpt lat="44.82703" lon="6.26324">
        <ele>1408</ele>
        <time>2020-07-20T23:51:42Z</time>
      </trkpt>
      <trkpt lat="44.82692" lon="6.26291">
        <ele>1408</ele>
        <time>2020-07-20T23:52:16Z</time>
      </trkpt>
      <trkpt lat="44.82688" lon="6.26261">
        <ele>1411</ele>
        <time>2020-07-20T23:52:45Z</time>
      </trkpt>
      <trkpt lat="44.82692" lon="6.26237">
        <ele>1415</ele>
        <time>2020-07-20T23:53:08Z</time>
      </trkpt>
      <trkpt lat="44.82692" lon="6.26215">
        <ele>1416</ele>
        <time>2020-07-20T23:53:29Z</time>
      </trkpt>
      <trkpt lat="44.82676" lon="6.26166">
        <ele>1413</ele>
        <time>2020-07-20T23:54:20Z</time>
      </trkpt>
      <trkpt lat="44.82664" lon="6.26143">
        <ele>1407</ele>
        <time>2020-07-20T23:54:47Z</time>
      </trkpt>
      <trkpt lat="44.82664" lon="6.2611">
        <ele>1406</ele>
        <time>2020-07-20T23:55:19Z</time>
      </trkpt>
      <trkpt lat="44.82667" lon="6.26089">
        <ele>1407</ele>
        <time>2020-07-20T23:55:39Z</time>
      </trkpt>
      <trkpt lat="44.82664" lon="6.26083">
        <ele>1406</ele>
        <time>2020-07-20T23:55:46Z</time>
      </trkpt>
      <trkpt lat="44.82664" lon="6.26067">
        <ele>1403</ele>
        <time>2020-07-20T23:56:01Z</time>
      </trkpt>
      <trkpt lat="44.82664" lon="6.26063">
        <ele>1402</ele>
        <time>2020-07-20T23:56:05Z</time>
      </trkpt>
      <trkpt lat="44.82662" lon="6.26051">
        <ele>1399</ele>
        <time>2020-07-20T23:56:16Z</time>
      </trkpt>
      <trkpt lat="44.82662" lon="6.26033">
        <ele>1396</ele>
        <time>2020-07-20T23:56:33Z</time>
      </trkpt>
      <trkpt lat="44.82668" lon="6.26013">
        <ele>1395</ele>
        <time>2020-07-20T23:56:54Z</time>
      </trkpt>
      <trkpt lat="44.82689" lon="6.26002">
        <ele>1402</ele>
        <time>2020-07-20T23:57:24Z</time>
      </trkpt>
      <trkpt lat="44.8269" lon="6.25989">
        <ele>1403</ele>
        <time>2020-07-20T23:57:36Z</time>
      </trkpt>
      <trkpt lat="44.82663" lon="6.25982">
        <ele>1391</ele>
        <time>2020-07-20T23:58:13Z</time>
      </trkpt>
      <trkpt lat="44.82628" lon="6.25914">
        <ele>1377</ele>
        <time>2020-07-20T23:59:32Z</time>
      </trkpt>
      <trkpt lat="44.82615" lon="6.25895">
        <ele>1373</ele>
        <time>2020-07-20T23:59:57Z</time>
      </trkpt>
      <trkpt lat="44.82599" lon="6.25883">
        <ele>1366</ele>
        <time>2020-07-20T00:00:22Z</time>
      </trkpt>
      <trkpt lat="44.82585" lon="6.25886">
        <ele>1359</ele>
        <time>2020-07-20T00:00:40Z</time>
      </trkpt>
      <trkpt lat="44.8258" lon="6.25863">
        <ele>1357</ele>
        <time>2020-07-20T00:01:03Z</time>
      </trkpt>
      <trkpt lat="44.82558" lon="6.25881">
        <ele>1347</ele>
        <time>2020-07-20T00:01:37Z</time>
      </trkpt>
      <trkpt lat="44.82561" lon="6.25845">
        <ele>1349</ele>
        <time>2020-07-20T00:02:11Z</time>
      </trkpt>
      <trkpt lat="44.8255" lon="6.25745">
        <ele>1332</ele>
        <time>2020-07-20T00:03:47Z</time>
      </trkpt>
      <trkpt lat="44.82548" lon="6.25715">
        <ele>1323</ele>
        <time>2020-07-20T00:04:16Z</time>
      </trkpt>
      <trkpt lat="44.82554" lon="6.25684">
        <ele>1320</ele>
        <time>2020-07-20T00:04:46Z</time>
      </trkpt>
      <trkpt lat="44.82573" lon="6.25651">
        <ele>1324</ele>
        <time>2020-07-20T00:05:26Z</time>
      </trkpt>
      <trkpt lat="44.82585" lon="6.25603">
        <ele>1322</ele>
        <time>2020-07-20T00:06:15Z</time>
      </trkpt>
      <trkpt lat="44.82587" lon="6.25584">
        <ele>1320</ele>
        <time>2020-07-20T00:06:33Z</time>
      </trkpt>
      <trkpt lat="44.82577" lon="6.25559">
        <ele>1310</ele>
        <time>2020-07-20T00:07:00Z</time>
      </trkpt>
      <trkpt lat="44.82573" lon="6.25494">
        <ele>1301</ele>
        <time>2020-07-20T00:08:02Z</time>
      </trkpt>
      <trkpt lat="44.82557" lon="6.25443">
        <ele>1288</ele>
        <time>2020-07-20T00:08:54Z</time>
      </trkpt>
      <trkpt lat="44.82572" lon="6.25378">
        <ele>1285</ele>
        <time>2020-07-20T00:09:59Z</time>
      </trkpt>
      <trkpt lat="44.82583" lon="6.25341">
        <ele>1282</ele>
        <time>2020-07-20T00:10:37Z</time>
      </trkpt>
      <trkpt lat="44.82589" lon="6.25291">
        <ele>1278</ele>
        <time>2020-07-20T00:11:25Z</time>
      </trkpt>
      <trkpt lat="44.82598" lon="6.25253">
        <ele>1279</ele>
        <time>2020-07-20T00:12:03Z</time>
      </trkpt>
      <trkpt lat="44.82598" lon="6.25212">
        <ele>1274</ele>
        <time>2020-07-20T00:12:42Z</time>
      </trkpt>
      <trkpt lat="44.82592" lon="6.25164">
        <ele>1264</ele>
        <time>2020-07-20T00:13:28Z</time>
      </trkpt>
      <trkpt lat="44.82594" lon="6.25071">
        <ele>1256</ele>
        <time>2020-07-20T00:14:56Z</time>
      </trkpt>
      <trkpt lat="44.82593" lon="6.25013">
        <ele>1251</ele>
        <time>2020-07-20T00:15:51Z</time>
      </trkpt>
      <trkpt lat="44.8259" lon="6.2496">
        <ele>1245</ele>
        <time>2020-07-20T00:16:41Z</time>
      </trkpt>
      <trkpt lat="44.82583" lon="6.24929">
        <ele>1239</ele>
        <time>2020-07-20T00:17:12Z</time>
      </trkpt>
      <trkpt lat="44.82577" lon="6.24889">
        <ele>1237</ele>
        <time>2020-07-20T00:17:51Z</time>
      </trkpt>
      <trkpt lat="44.8257" lon="6.24866">
        <ele>1236</ele>
        <time>2020-07-20T00:18:14Z</time>
      </trkpt>
      <trkpt lat="44.82565" lon="6.24854">
        <ele>1234</ele>
        <time>2020-07-20T00:18:28Z</time>
      </trkpt>
      <trkpt lat="44.82564" lon="6.24829">
        <ele>1233</ele>
        <time>2020-07-20T00:18:51Z</time>
      </trkpt>
      <trkpt lat="44.8256" lon="6.24799">
        <ele>1230</ele>
        <time>2020-07-20T00:19:20Z</time>
      </trkpt>
      <trkpt lat="44.82563" lon="6.24775">
        <ele>1229</ele>
        <time>2020-07-20T00:19:43Z</time>
      </trkpt>
      <trkpt lat="44.82561" lon="6.24729">
        <ele>1226</ele>
        <time>2020-07-20T00:20:27Z</time>
      </trkpt>
      <trkpt lat="44.82548" lon="6.24639">
        <ele>1221</ele>
        <time>2020-07-20T00:21:54Z</time>
      </trkpt>
      <trkpt lat="44.8253" lon="6.24536">
        <ele>1214</ele>
        <time>2020-07-20T00:23:34Z</time>
      </trkpt>
      <trkpt lat="44.82528" lon="6.24482">
        <ele>1212</ele>
        <time>2020-07-20T00:24:25Z</time>
      </trkpt>
      <trkpt lat="44.82522" lon="6.24462">
        <ele>1209</ele>
        <time>2020-07-20T00:24:46Z</time>
      </trkpt>
      <trkpt lat="44.82518" lon="6.24353">
        <ele>1202</ele>
        <time>2020-07-20T00:26:29Z</time>
      </trkpt>
      <trkpt lat="44.82519" lon="6.24306">
        <ele>1200</ele>
        <time>2020-07-20T00:27:14Z</time>
      </trkpt>
      <trkpt lat="44.82505" lon="6.24239">
        <ele>1193</ele>
        <time>2020-07-20T00:28:20Z</time>
      </trkpt>
      <trkpt lat="44.82499" lon="6.24227">
        <ele>1192</ele>
        <time>2020-07-20T00:28:34Z</time>
      </trkpt>
      <trkpt lat="44.82489" lon="6.2417">
        <ele>1191</ele>
        <time>2020-07-20T00:29:29Z</time>
      </trkpt>
      <trkpt lat="44.82486" lon="6.24162">
        <ele>1190</ele>
        <time>2020-07-20T00:29:38Z</time>
      </trkpt>
      <trkpt lat="44.82486" lon="6.24145">
        <ele>1190</ele>
        <time>2020-07-20T00:29:54Z</time>
      </trkpt>
      <trkpt lat="44.8249" lon="6.2412">
        <ele>1189</ele>
        <time>2020-07-20T00:30:18Z</time>
      </trkpt>
      <trkpt lat="44.82483" lon="6.241">
        <ele>1189</ele>
        <time>2020-07-20T00:30:39Z</time>
      </trkpt>
      <trkpt lat="44.8248" lon="6.24049">
        <ele>1188</ele>
        <time>2020-07-20T00:31:28Z</time>
      </trkpt>
      <trkpt lat="44.82484" lon="6.23933">
        <ele>1186</ele>
        <time>2020-07-20T00:33:18Z</time>
      </trkpt>
      <trkpt lat="44.82483" lon="6.2392">
        <ele>1185</ele>
        <time>2020-07-20T00:33:30Z</time>
      </trkpt>
      <trkpt lat="44.8248" lon="6.23906">
        <ele>1185</ele>
        <time>2020-07-20T00:33:44Z</time>
      </trkpt>
      <trkpt lat="44.82482" lon="6.23877">
        <ele>1184</ele>
        <time>2020-07-20T00:34:12Z</time>
      </trkpt>
      <trkpt lat="44.82481" lon="6.23834">
        <ele>1184</ele>
        <time>2020-07-20T00:34:52Z</time>
      </trkpt>
      <trkpt lat="44.82485" lon="6.23764">
        <ele>1186</ele>
        <time>2020-07-20T00:35:59Z</time>
      </trkpt>
      <trkpt lat="44.8249" lon="6.23744">
        <ele>1187</ele>
        <time>2020-07-20T00:36:19Z</time>
      </trkpt>
      <trkpt lat="44.82491" lon="6.23733">
        <ele>1187</ele>
        <time>2020-07-20T00:36:29Z</time>
      </trkpt>
      <trkpt lat="44.82488" lon="6.23663">
        <ele>1191</ele>
        <time>2020-07-20T00:37:36Z</time>
      </trkpt>
      <trkpt lat="44.82485" lon="6.2364">
        <ele>1191</ele>
        <time>2020-07-20T00:37:58Z</time>
      </trkpt>
      <trkpt lat="44.82486" lon="6.23592">
        <ele>1192</ele>
        <time>2020-07-20T00:38:43Z</time>
      </trkpt>
      <trkpt lat="44.82482" lon="6.23578">
        <ele>1191</ele>
        <time>2020-07-20T00:38:58Z</time>
      </trkpt>
      <trkpt lat="44.82478" lon="6.23571">
        <ele>1190</ele>
        <time>2020-07-20T00:39:06Z</time>
      </trkpt>
      <trkpt lat="44.82476" lon="6.23566">
        <ele>1190</ele>
        <time>2020-07-20T00:39:12Z</time>
      </trkpt>
      <trkpt lat="44.82472" lon="6.23529">
        <ele>1188</ele>
        <time>2020-07-20T00:39:47Z</time>
      </trkpt>
      <trkpt lat="44.82472" lon="6.23519">
        <ele>1188</ele>
        <time>2020-07-20T00:39:56Z</time>
      </trkpt>
      <trkpt lat="44.82483" lon="6.23492">
        <ele>1190</ele>
        <time>2020-07-20T00:40:26Z</time>
      </trkpt>
      <trkpt lat="44.82487" lon="6.23471">
        <ele>1189</ele>
        <time>2020-07-20T00:40:46Z</time>
      </trkpt>
      <trkpt lat="44.82485" lon="6.23385">
        <ele>1184</ele>
        <time>2020-07-20T00:42:08Z</time>
      </trkpt>
      <trkpt lat="44.82486" lon="6.23372">
        <ele>1184</ele>
        <time>2020-07-20T00:42:20Z</time>
      </trkpt>
      <trkpt lat="44.82484" lon="6.23364">
        <ele>1184</ele>
        <time>2020-07-20T00:42:28Z</time>
      </trkpt>
      <trkpt lat="44.82478" lon="6.23354">
        <ele>1182</ele>
        <time>2020-07-20T00:42:41Z</time>
      </trkpt>
      <trkpt lat="44.82478" lon="6.23334">
        <ele>1182</ele>
        <time>2020-07-20T00:43:00Z</time>
      </trkpt>
      <trkpt lat="44.82475" lon="6.23326">
        <ele>1181</ele>
        <time>2020-07-20T00:43:08Z</time>
      </trkpt>
      <trkpt lat="44.82465" lon="6.23308">
        <ele>1179</ele>
        <time>2020-07-20T00:43:30Z</time>
      </trkpt>
      <trkpt lat="44.82462" lon="6.23303">
        <ele>1179</ele>
        <time>2020-07-20T00:43:36Z</time>
      </trkpt>
      <trkpt lat="44.82441" lon="6.23312">
        <ele>1175</ele>
        <time>2020-07-20T00:44:05Z</time>
      </trkpt>
      <trkpt lat="44.8242" lon="6.23319">
        <ele>1171</ele>
        <time>2020-07-20T00:44:34Z</time>
      </trkpt>
      <trkpt lat="44.82387" lon="6.23321">
        <ele>1174</ele>
        <time>2020-07-20T00:45:18Z</time>
      </trkpt>
      <trkpt lat="44.82373" lon="6.2332">
        <ele>1176</ele>
        <time>2020-07-20T00:45:37Z</time>
      </trkpt>
      <trkpt lat="44.82364" lon="6.23295">
        <ele>1177</ele>
        <time>2020-07-20T00:46:03Z</time>
      </trkpt>
      <trkpt lat="44.82354" lon="6.23296">
        <ele>1178</ele>
        <time>2020-07-20T00:46:17Z</time>
      </trkpt>
      <trkpt lat="44.8236" lon="6.23288">
        <ele>1177</ele>
        <time>2020-07-20T00:46:28Z</time>
      </trkpt>
      <trkpt lat="44.82344" lon="6.23206">
        <ele>1177</ele>
        <time>2020-07-20T00:47:48Z</time>
      </trkpt>
      <trkpt lat="44.82322" lon="6.23127">
        <ele>1176</ele>
        <time>2020-07-20T00:49:09Z</time>
      </trkpt>
      <trkpt lat="44.82307" lon="6.23096">
        <ele>1177</ele>
        <time>2020-07-20T00:49:44Z</time>
      </trkpt>
      <trkpt lat="44.82295" lon="6.23059">
        <ele>1174</ele>
        <time>2020-07-20T00:50:23Z</time>
      </trkpt>
      <trkpt lat="44.82294" lon="6.23028">
        <ele>1169</ele>
        <time>2020-07-20T00:50:52Z</time>
      </trkpt>
      <trkpt lat="44.8227" lon="6.22977">
        <ele>1165</ele>
        <time>2020-07-20T00:51:50Z</time>
      </trkpt>
      <trkpt lat="44.82244" lon="6.22953">
        <ele>1167</ele>
        <time>2020-07-20T00:52:31Z</time>
      </trkpt>
      <trkpt lat="44.82238" lon="6.22936">
        <ele>1168</ele>
        <time>2020-07-20T00:52:49Z</time>
      </trkpt>
      <trkpt lat="44.8222" lon="6.229">
        <ele>1172</ele>
        <time>2020-07-20T00:53:31Z</time>
      </trkpt>
      <trkpt lat="44.82212" lon="6.2288">
        <ele>1172</ele>
        <time>2020-07-20T00:53:53Z</time>
      </trkpt>
      <trkpt lat="44.82207" lon="6.22854">
        <ele>1171</ele>
        <time>2020-07-20T00:54:18Z</time>
      </trkpt>
      <trkpt lat="44.82196" lon="6.22836">
        <ele>1171</ele>
        <time>2020-07-20T00:54:41Z</time>
      </trkpt>
      <trkpt lat="44.82197" lon="6.22824">
        <ele>1170</ele>
        <time>2020-07-20T00:54:52Z</time>
      </trkpt>
      <trkpt lat="44.82189" lon="6.22812">
        <ele>1170</ele>
        <time>2020-07-20T00:55:08Z</time>
      </trkpt>
      <trkpt lat="44.82174" lon="6.22776">
        <ele>1169</ele>
        <time>2020-07-20T00:55:47Z</time>
      </trkpt>
      <trkpt lat="44.82159" lon="6.22751">
        <ele>1170</ele>
        <time>2020-07-20T00:56:18Z</time>
      </trkpt>
      <trkpt lat="44.82151" lon="6.22724">
        <ele>1170</ele>
        <time>2020-07-20T00:56:46Z</time>
      </trkpt>
      <trkpt lat="44.8212" lon="6.22688">
        <ele>1174</ele>
        <time>2020-07-20T00:57:40Z</time>
      </trkpt>
      <trkpt lat="44.82072" lon="6.22646">
        <ele>1184</ele>
        <time>2020-07-20T00:58:55Z</time>
      </trkpt>
      <trkpt lat="44.82065" lon="6.22633">
        <ele>1187</ele>
        <time>2020-07-20T00:59:11Z</time>
      </trkpt>
      <trkpt lat="44.82068" lon="6.22596">
        <ele>1182</ele>
        <time>2020-07-20T00:59:46Z</time>
      </trkpt>
      <trkpt lat="44.82067" lon="6.22564">
        <ele>1181</ele>
        <time>2020-07-20T01:00:16Z</time>
      </trkpt>
      <trkpt lat="44.82071" lon="6.22534">
        <ele>1178</ele>
        <time>2020-07-20T01:00:45Z</time>
      </trkpt>
      <trkpt lat="44.82067" lon="6.22521">
        <ele>1180</ele>
        <time>2020-07-20T01:00:58Z</time>
      </trkpt>
      <trkpt lat="44.82068" lon="6.22486">
        <ele>1177</ele>
        <time>2020-07-20T01:01:32Z</time>
      </trkpt>
      <trkpt lat="44.8204" lon="6.22389">
        <ele>1175</ele>
        <time>2020-07-20T01:03:11Z</time>
      </trkpt>
      <trkpt lat="44.82033" lon="6.22353">
        <ele>1173</ele>
        <time>2020-07-20T01:03:46Z</time>
      </trkpt>
      <trkpt lat="44.82026" lon="6.22328">
        <ele>1173</ele>
        <time>2020-07-20T01:04:11Z</time>
      </trkpt>
      <trkpt lat="44.82031" lon="6.22293">
        <ele>1170</ele>
        <time>2020-07-20T01:04:45Z</time>
      </trkpt>
      <trkpt lat="44.82029" lon="6.22281">
        <ele>1170</ele>
        <time>2020-07-20T01:04:57Z</time>
      </trkpt>
      <trkpt lat="44.82024" lon="6.22271">
        <ele>1172</ele>
        <time>2020-07-20T01:05:09Z</time>
      </trkpt>
      <trkpt lat="44.82025" lon="6.22266">
        <ele>1171</ele>
        <time>2020-07-20T01:05:13Z</time>
      </trkpt>
      <trkpt lat="44.82024" lon="6.2225">
        <ele>1171</ele>
        <time>2020-07-20T01:05:29Z</time>
      </trkpt>
      <trkpt lat="44.82022" lon="6.22229">
        <ele>1170</ele>
        <time>2020-07-20T01:05:49Z</time>
      </trkpt>
      <trkpt lat="44.82025" lon="6.22199">
        <ele>1165</ele>
        <time>2020-07-20T01:06:17Z</time>
      </trkpt>
      <trkpt lat="44.82023" lon="6.22193">
        <ele>1165</ele>
        <time>2020-07-20T01:06:24Z</time>
      </trkpt>
      <trkpt lat="44.82021" lon="6.22165">
        <ele>1162</ele>
        <time>2020-07-20T01:06:50Z</time>
      </trkpt>
      <trkpt lat="44.82018" lon="6.22155">
        <ele>1162</ele>
        <time>2020-07-20T01:07:01Z</time>
      </trkpt>
      <trkpt lat="44.82015" lon="6.2212">
        <ele>1158</ele>
        <time>2020-07-20T01:07:34Z</time>
      </trkpt>
      <trkpt lat="44.82016" lon="6.22114">
        <ele>1156</ele>
        <time>2020-07-20T01:07:40Z</time>
      </trkpt>
      <trkpt lat="44.82012" lon="6.22089">
        <ele>1154</ele>
        <time>2020-07-20T01:08:04Z</time>
      </trkpt>
      <trkpt lat="44.81996" lon="6.22038">
        <ele>1151</ele>
        <time>2020-07-20T01:08:57Z</time>
      </trkpt>
      <trkpt lat="44.81993" lon="6.22032">
        <ele>1152</ele>
        <time>2020-07-20T01:09:04Z</time>
      </trkpt>
      <trkpt lat="44.81993" lon="6.21987">
        <ele>1148</ele>
        <time>2020-07-20T01:09:46Z</time>
      </trkpt>
      <trkpt lat="44.81995" lon="6.21969">
        <ele>1147</ele>
        <time>2020-07-20T01:10:04Z</time>
      </trkpt>
      <trkpt lat="44.81992" lon="6.2196">
        <ele>1148</ele>
        <time>2020-07-20T01:10:13Z</time>
      </trkpt>
      <trkpt lat="44.81994" lon="6.2195">
        <ele>1147</ele>
        <time>2020-07-20T01:10:23Z</time>
      </trkpt>
      <trkpt lat="44.81993" lon="6.21938">
        <ele>1147</ele>
        <time>2020-07-20T01:10:34Z</time>
      </trkpt>
      <trkpt lat="44.81996" lon="6.21942">
        <ele>1146</ele>
        <time>2020-07-20T01:10:40Z</time>
      </trkpt>
      <trkpt lat="44.81996" lon="6.21929">
        <ele>1146</ele>
        <time>2020-07-20T01:10:52Z</time>
      </trkpt>
      <trkpt lat="44.81994" lon="6.21928">
        <ele>1147</ele>
        <time>2020-07-20T01:10:55Z</time>
      </trkpt>
      <trkpt lat="44.81979" lon="6.21897">
        <ele>1152</ele>
        <time>2020-07-20T01:11:30Z</time>
      </trkpt>
      <trkpt lat="44.81973" lon="6.21867">
        <ele>1153</ele>
        <time>2020-07-20T01:12:00Z</time>
      </trkpt>
      <trkpt lat="44.81971" lon="6.21846">
        <ele>1152</ele>
        <time>2020-07-20T01:12:20Z</time>
      </trkpt>
      <trkpt lat="44.81966" lon="6.21837">
        <ele>1154</ele>
        <time>2020-07-20T01:12:31Z</time>
      </trkpt>
      <trkpt lat="44.81972" lon="6.21827">
        <ele>1151</ele>
        <time>2020-07-20T01:12:43Z</time>
      </trkpt>
      <trkpt lat="44.81971" lon="6.21819">
        <ele>1151</ele>
        <time>2020-07-20T01:12:51Z</time>
      </trkpt>
      <trkpt lat="44.81975" lon="6.21799">
        <ele>1149</ele>
        <time>2020-07-20T01:13:11Z</time>
      </trkpt>
      <trkpt lat="44.81975" lon="6.21789">
        <ele>1148</ele>
        <time>2020-07-20T01:13:20Z</time>
      </trkpt>
      <trkpt lat="44.8197" lon="6.21769">
        <ele>1149</ele>
        <time>2020-07-20T01:13:40Z</time>
      </trkpt>
      <trkpt lat="44.81969" lon="6.21748">
        <ele>1149</ele>
        <time>2020-07-20T01:14:00Z</time>
      </trkpt>
      <trkpt lat="44.81961" lon="6.21717">
        <ele>1149</ele>
        <time>2020-07-20T01:14:31Z</time>
      </trkpt>
      <trkpt lat="44.81963" lon="6.21627">
        <ele>1140</ele>
        <time>2020-07-20T01:15:56Z</time>
      </trkpt>
      <trkpt lat="44.81961" lon="6.2161">
        <ele>1139</ele>
        <time>2020-07-20T01:16:13Z</time>
      </trkpt>
      <trkpt lat="44.81958" lon="6.21598">
        <ele>1139</ele>
        <time>2020-07-20T01:16:25Z</time>
      </trkpt>
      <trkpt lat="44.81944" lon="6.21565">
        <ele>1138</ele>
        <time>2020-07-20T01:17:01Z</time>
      </trkpt>
      <trkpt lat="44.81931" lon="6.21526">
        <ele>1134</ele>
        <time>2020-07-20T01:17:42Z</time>
      </trkpt>
      <trkpt lat="44.81919" lon="6.21506">
        <ele>1131</ele>
        <time>2020-07-20T01:18:07Z</time>
      </trkpt>
      <trkpt lat="44.81893" lon="6.21476">
        <ele>1133</ele>
        <time>2020-07-20T01:18:52Z</time>
      </trkpt>
      <trkpt lat="44.81884" lon="6.21463">
        <ele>1134</ele>
        <time>2020-07-20T01:19:09Z</time>
      </trkpt>
      <trkpt lat="44.81882" lon="6.21425">
        <ele>1133</ele>
        <time>2020-07-20T01:19:45Z</time>
      </trkpt>
      <trkpt lat="44.81884" lon="6.2141">
        <ele>1132</ele>
        <time>2020-07-20T01:19:59Z</time>
      </trkpt>
      <trkpt lat="44.81885" lon="6.21359">
        <ele>1131</ele>
        <time>2020-07-20T01:20:48Z</time>
      </trkpt>
      <trkpt lat="44.81882" lon="6.21352">
        <ele>1131</ele>
        <time>2020-07-20T01:20:55Z</time>
      </trkpt>
      <trkpt lat="44.81881" lon="6.2134">
        <ele>1131</ele>
        <time>2020-07-20T01:21:07Z</time>
      </trkpt>
      <trkpt lat="44.81867" lon="6.21303">
        <ele>1132</ele>
        <time>2020-07-20T01:21:47Z</time>
      </trkpt>
      <trkpt lat="44.81868" lon="6.213">
        <ele>1132</ele>
        <time>2020-07-20T01:21:50Z</time>
      </trkpt>
      <trkpt lat="44.81876" lon="6.21287">
        <ele>1130</ele>
        <time>2020-07-20T01:22:06Z</time>
      </trkpt>
      <trkpt lat="44.8188" lon="6.21278">
        <ele>1129</ele>
        <time>2020-07-20T01:22:16Z</time>
      </trkpt>
      <trkpt lat="44.81884" lon="6.21238">
        <ele>1128</ele>
        <time>2020-07-20T01:22:54Z</time>
      </trkpt>
      <trkpt lat="44.81889" lon="6.2122">
        <ele>1127</ele>
        <time>2020-07-20T01:23:13Z</time>
      </trkpt>
      <trkpt lat="44.8189" lon="6.2121">
        <ele>1127</ele>
        <time>2020-07-20T01:23:22Z</time>
      </trkpt>
      <trkpt lat="44.81892" lon="6.21204">
        <ele>1126</ele>
        <time>2020-07-20T01:23:28Z</time>
      </trkpt>
      <trkpt lat="44.81894" lon="6.21193">
        <ele>1126</ele>
        <time>2020-07-20T01:23:39Z</time>
      </trkpt>
      <trkpt lat="44.81893" lon="6.21173">
        <ele>1126</ele>
        <time>2020-07-20T01:23:58Z</time>
      </trkpt>
      <trkpt lat="44.8188" lon="6.21072">
        <ele>1130</ele>
        <time>2020-07-20T01:25:35Z</time>
      </trkpt>
      <trkpt lat="44.81871" lon="6.21025">
        <ele>1131</ele>
        <time>2020-07-20T01:26:21Z</time>
      </trkpt>
      <trkpt lat="44.81875" lon="6.2098">
        <ele>1129</ele>
        <time>2020-07-20T01:27:04Z</time>
      </trkpt>
      <trkpt lat="44.81884" lon="6.20959">
        <ele>1127</ele>
        <time>2020-07-20T01:27:28Z</time>
      </trkpt>
      <trkpt lat="44.81889" lon="6.20809">
        <ele>1123</ele>
        <time>2020-07-20T01:29:50Z</time>
      </trkpt>
      <trkpt lat="44.81896" lon="6.20783">
        <ele>1121</ele>
        <time>2020-07-20T01:30:16Z</time>
      </trkpt>
      <trkpt lat="44.81891" lon="6.20761">
        <ele>1121</ele>
        <time>2020-07-20T01:30:38Z</time>
      </trkpt>
      <trkpt lat="44.81864" lon="6.20699">
        <ele>1121</ele>
        <time>2020-07-20T01:31:47Z</time>
      </trkpt>
      <trkpt lat="44.81854" lon="6.20622">
        <ele>1117</ele>
        <time>2020-07-20T01:33:01Z</time>
      </trkpt>
      <trkpt lat="44.81873" lon="6.20501">
        <ele>1112</ele>
        <time>2020-07-20T01:34:58Z</time>
      </trkpt>
      <trkpt lat="44.81853" lon="6.2043">
        <ele>1113</ele>
        <time>2020-07-20T01:36:10Z</time>
      </trkpt>
      <trkpt lat="44.81844" lon="6.20336">
        <ele>1113</ele>
        <time>2020-07-20T01:37:40Z</time>
      </trkpt>
      <trkpt lat="44.81842" lon="6.20281">
        <ele>1111</ele>
        <time>2020-07-20T01:38:32Z</time>
      </trkpt>
      <trkpt lat="44.81837" lon="6.20213">
        <ele>1108</ele>
        <time>2020-07-20T01:39:37Z</time>
      </trkpt>
      <trkpt lat="44.81814" lon="6.20178">
        <ele>1114</ele>
        <time>2020-07-20T01:40:22Z</time>
      </trkpt>
      <trkpt lat="44.81778" lon="6.20148">
        <ele>1123</ele>
        <time>2020-07-20T01:41:18Z</time>
      </trkpt>
      <trkpt lat="44.81755" lon="6.20092">
        <ele>1113</ele>
        <time>2020-07-20T01:42:19Z</time>
      </trkpt>
      <trkpt lat="44.81744" lon="6.20058">
        <ele>1113</ele>
        <time>2020-07-20T01:42:55Z</time>
      </trkpt>
      <trkpt lat="44.81718" lon="6.20015">
        <ele>1121</ele>
        <time>2020-07-20T01:43:48Z</time>
      </trkpt>
      <trkpt lat="44.81694" lon="6.19982">
        <ele>1125</ele>
        <time>2020-07-20T01:44:33Z</time>
      </trkpt>
      <trkpt lat="44.81695" lon="6.19963">
        <ele>1121</ele>
        <time>2020-07-20T01:44:51Z</time>
      </trkpt>
      <trkpt lat="44.81702" lon="6.19933">
        <ele>1114</ele>
        <time>2020-07-20T01:45:21Z</time>
      </trkpt>
      <trkpt lat="44.81677" lon="6.19823">
        <ele>1112</ele>
        <time>2020-07-20T01:47:10Z</time>
      </trkpt>
      <trkpt lat="44.81667" lon="6.19728">
        <ele>1106</ele>
        <time>2020-07-20T01:48:41Z</time>
      </trkpt>
      <trkpt lat="44.81658" lon="6.19677">
        <ele>1108</ele>
        <time>2020-07-20T01:49:31Z</time>
      </trkpt>
      <trkpt lat="44.81644" lon="6.19625">
        <ele>1108</ele>
        <time>2020-07-20T01:50:24Z</time>
      </trkpt>
      <trkpt lat="44.81651" lon="6.19613">
        <ele>1105</ele>
        <time>2020-07-20T01:50:38Z</time>
      </trkpt>
      <trkpt lat="44.81646" lon="6.19585">
        <ele>1104</ele>
        <time>2020-07-20T01:51:06Z</time>
      </trkpt>
      <trkpt lat="44.81655" lon="6.19584">
        <ele>1102</ele>
        <time>2020-07-20T01:51:18Z</time>
      </trkpt>
      <trkpt lat="44.81658" lon="6.19565">
        <ele>1101</ele>
        <time>2020-07-20T01:51:36Z</time>
      </trkpt>
      <trkpt lat="44.81653" lon="6.19559">
        <ele>1101</ele>
        <time>2020-07-20T01:51:45Z</time>
      </trkpt>
      <trkpt lat="44.81652" lon="6.19558">
        <ele>1101</ele>
        <time>2020-07-20T01:51:46Z</time>
      </trkpt>
      <trkpt lat="44.81644" lon="6.19546">
        <ele>1102</ele>
        <time>2020-07-20T01:52:02Z</time>
      </trkpt>
      <trkpt lat="44.81639" lon="6.19537">
        <ele>1103</ele>
        <time>2020-07-20T01:52:13Z</time>
      </trkpt>
      <trkpt lat="44.81636" lon="6.19518">
        <ele>1103</ele>
        <time>2020-07-20T01:52:31Z</time>
      </trkpt>
      <trkpt lat="44.81633" lon="6.1951">
        <ele>1103</ele>
        <time>2020-07-20T01:52:40Z</time>
      </trkpt>
      <trkpt lat="44.81661" lon="6.19466">
        <ele>1097</ele>
        <time>2020-07-20T01:53:36Z</time>
      </trkpt>
      <trkpt lat="44.81684" lon="6.19436">
        <ele>1096</ele>
        <time>2020-07-20T01:54:18Z</time>
      </trkpt>
      <trkpt lat="44.81712" lon="6.19398">
        <ele>1095</ele>
        <time>2020-07-20T01:55:09Z</time>
      </trkpt>
      <trkpt lat="44.8173" lon="6.19428">
        <ele>1095</ele>
        <time>2020-07-20T01:55:47Z</time>
      </trkpt>
      <trkpt lat="44.81734" lon="6.19504">
        <ele>1096</ele>
        <time>2020-07-20T01:56:59Z</time>
      </trkpt>
      <trkpt lat="44.81741" lon="6.19536">
        <ele>1097</ele>
        <time>2020-07-20T01:57:30Z</time>
      </trkpt>
      <trkpt lat="44.81741" lon="6.19544">
        <ele>1097</ele>
        <time>2020-07-20T01:57:38Z</time>
      </trkpt>
      <trkpt lat="44.81739" lon="6.19556">
        <ele>1097</ele>
        <time>2020-07-20T01:57:50Z</time>
      </trkpt>
      <trkpt lat="44.81736" lon="6.19552">
        <ele>1097</ele>
        <time>2020-07-20T01:57:55Z</time>
      </trkpt>
      <trkpt lat="44.81729" lon="6.19551">
        <ele>1097</ele>
        <time>2020-07-20T01:58:05Z</time>
      </trkpt>
      <trkpt lat="44.81729" lon="6.19551">
        <ele>1097</ele>
        <time>2020-07-20T01:58:05Z</time>
      </trkpt>
      <trkpt lat="44.81725" lon="6.1955">
        <ele>1097</ele>
        <time>2020-07-20T01:58:10Z</time>
      </trkpt>
      <trkpt lat="44.81671" lon="6.19564">
        <ele>1099</ele>
        <time>2020-07-20T01:59:23Z</time>
      </trkpt>
      <trkpt lat="44.81658" lon="6.19565">
        <ele>1101</ele>
        <time>2020-07-20T01:59:41Z</time>
      </trkpt>
      <trkpt lat="44.81653" lon="6.19559">
        <ele>1101</ele>
        <time>2020-07-20T01:59:49Z</time>
      </trkpt>
      <trkpt lat="44.81652" lon="6.19558">
        <ele>1101</ele>
        <time>2020-07-20T01:59:51Z</time>
      </trkpt>
      <trkpt lat="44.81644" lon="6.19546">
        <ele>1102</ele>
        <time>2020-07-20T02:00:07Z</time>
      </trkpt>
      <trkpt lat="44.81639" lon="6.19537">
        <ele>1103</ele>
        <time>2020-07-20T02:00:18Z</time>
      </trkpt>
      <trkpt lat="44.81636" lon="6.19518">
        <ele>1103</ele>
        <time>2020-07-20T02:00:36Z</time>
      </trkpt>
      <trkpt lat="44.81633" lon="6.1951">
        <ele>1103</ele>
        <time>2020-07-20T02:00:44Z</time>
      </trkpt>
      <trkpt lat="44.81661" lon="6.19466">
        <ele>1097</ele>
        <time>2020-07-20T02:01:40Z</time>
      </trkpt>
      <trkpt lat="44.81737" lon="6.19366">
        <ele>1094</ele>
        <time>2020-07-20T02:03:59Z</time>
      </trkpt>
      <trkpt lat="44.81748" lon="6.19345">
        <ele>1093</ele>
        <time>2020-07-20T02:04:24Z</time>
      </trkpt>
      <trkpt lat="44.81756" lon="6.19318">
        <ele>1093</ele>
        <time>2020-07-20T02:04:52Z</time>
      </trkpt>
      <trkpt lat="44.81757" lon="6.1921">
        <ele>1092</ele>
        <time>2020-07-20T02:06:34Z</time>
      </trkpt>
      <trkpt lat="44.81767" lon="6.19157">
        <ele>1092</ele>
        <time>2020-07-20T02:07:26Z</time>
      </trkpt>
      <trkpt lat="44.81783" lon="6.19048">
        <ele>1089</ele>
        <time>2020-07-20T02:09:11Z</time>
      </trkpt>
      <trkpt lat="44.81789" lon="6.19018">
        <ele>1089</ele>
        <time>2020-07-20T02:09:41Z</time>
      </trkpt>
      <trkpt lat="44.81807" lon="6.18983">
        <ele>1088</ele>
        <time>2020-07-20T02:10:22Z</time>
      </trkpt>
      <trkpt lat="44.81827" lon="6.18961">
        <ele>1087</ele>
        <time>2020-07-20T02:10:55Z</time>
      </trkpt>
      <trkpt lat="44.81888" lon="6.18921">
        <ele>1084</ele>
        <time>2020-07-20T02:12:25Z</time>
      </trkpt>
      <trkpt lat="44.81901" lon="6.189">
        <ele>1084</ele>
        <time>2020-07-20T02:12:52Z</time>
      </trkpt>
      <trkpt lat="44.81934" lon="6.18795">
        <ele>1083</ele>
        <time>2020-07-20T02:14:40Z</time>
      </trkpt>
      <trkpt lat="44.81938" lon="6.18757">
        <ele>1082</ele>
        <time>2020-07-20T02:15:17Z</time>
      </trkpt>
      <trkpt lat="44.81965" lon="6.18752">
        <ele>1087</ele>
        <time>2020-07-20T02:15:53Z</time>
      </trkpt>
      <trkpt lat="44.8195" lon="6.18612">
        <ele>1080</ele>
        <time>2020-07-20T02:18:07Z</time>
      </trkpt>
      <trkpt lat="44.8195" lon="6.18512">
        <ele>1080</ele>
        <time>2020-07-20T02:19:42Z</time>
      </trkpt>
      <trkpt lat="44.81961" lon="6.18432">
        <ele>1077</ele>
        <time>2020-07-20T02:20:59Z</time>
      </trkpt>
      <trkpt lat="44.81979" lon="6.18369">
        <ele>1075</ele>
        <time>2020-07-20T02:22:03Z</time>
      </trkpt>
      <trkpt lat="44.81983" lon="6.18321">
        <ele>1074</ele>
        <time>2020-07-20T02:22:49Z</time>
      </trkpt>
      <trkpt lat="44.82002" lon="6.18252">
        <ele>1075</ele>
        <time>2020-07-20T02:23:59Z</time>
      </trkpt>
      <trkpt lat="44.82008" lon="6.1821">
        <ele>1075</ele>
        <time>2020-07-20T02:24:39Z</time>
      </trkpt>
      <trkpt lat="44.82" lon="6.18142">
        <ele>1072</ele>
        <time>2020-07-20T02:25:45Z</time>
      </trkpt>
      <trkpt lat="44.82003" lon="6.18108">
        <ele>1072</ele>
        <time>2020-07-20T02:26:17Z</time>
      </trkpt>
      <trkpt lat="44.82004" lon="6.18055">
        <ele>1071</ele>
        <time>2020-07-20T02:27:07Z</time>
      </trkpt>
      <trkpt lat="44.82022" lon="6.18036">
        <ele>1074</ele>
        <time>2020-07-20T02:27:37Z</time>
      </trkpt>
      <trkpt lat="44.8203" lon="6.17991">
        <ele>1074</ele>
        <time>2020-07-20T02:28:21Z</time>
      </trkpt>
      <trkpt lat="44.82053" lon="6.17935">
        <ele>1075</ele>
        <time>2020-07-20T02:29:22Z</time>
      </trkpt>
      <trkpt lat="44.82047" lon="6.17863">
        <ele>1073</ele>
        <time>2020-07-20T02:30:31Z</time>
      </trkpt>
      <trkpt lat="44.82068" lon="6.1773">
        <ele>1074</ele>
        <time>2020-07-20T02:32:40Z</time>
      </trkpt>
      <trkpt lat="44.82068" lon="6.17675">
        <ele>1073</ele>
        <time>2020-07-20T02:33:32Z</time>
      </trkpt>
      <trkpt lat="44.82072" lon="6.17578">
        <ele>1070</ele>
        <time>2020-07-20T02:35:04Z</time>
      </trkpt>
      <trkpt lat="44.82105" lon="6.17366">
        <ele>1068</ele>
        <time>2020-07-20T02:38:30Z</time>
      </trkpt>
      <trkpt lat="44.82113" lon="6.17306">
        <ele>1066</ele>
        <time>2020-07-20T02:39:27Z</time>
      </trkpt>
      <trkpt lat="44.82121" lon="6.17311">
        <ele>1068</ele>
        <time>2020-07-20T02:39:39Z</time>
      </trkpt>
      <trkpt lat="44.82127" lon="6.17308">
        <ele>1069</ele>
        <time>2020-07-20T02:39:48Z</time>
      </trkpt>
      <trkpt lat="44.82121" lon="6.17311">
        <ele>1068</ele>
        <time>2020-07-20T02:39:56Z</time>
      </trkpt>
      <trkpt lat="44.82113" lon="6.17306">
        <ele>1066</ele>
        <time>2020-07-20T02:40:08Z</time>
      </trkpt>
      <trkpt lat="44.82099" lon="6.173">
        <ele>1063</ele>
        <time>2020-07-20T02:40:27Z</time>
      </trkpt>
      <trkpt lat="44.82094" lon="6.17295">
        <ele>1062</ele>
        <time>2020-07-20T02:40:35Z</time>
      </trkpt>
      <trkpt lat="44.821" lon="6.17249">
        <ele>1062</ele>
        <time>2020-07-20T02:41:20Z</time>
      </trkpt>
      <trkpt lat="44.82109" lon="6.17177">
        <ele>1060</ele>
        <time>2020-07-20T02:42:29Z</time>
      </trkpt>
      <trkpt lat="44.82126" lon="6.17098">
        <ele>1059</ele>
        <time>2020-07-20T02:43:47Z</time>
      </trkpt>
      <trkpt lat="44.82174" lon="6.17007">
        <ele>1060</ele>
        <time>2020-07-20T02:45:34Z</time>
      </trkpt>
      <trkpt lat="44.82219" lon="6.16892">
        <ele>1063</ele>
        <time>2020-07-20T02:47:39Z</time>
      </trkpt>
      <trkpt lat="44.82238" lon="6.16752">
        <ele>1056</ele>
        <time>2020-07-20T02:49:54Z</time>
      </trkpt>
      <trkpt lat="44.82237" lon="6.16722">
        <ele>1055</ele>
        <time>2020-07-20T02:50:22Z</time>
      </trkpt>
      <trkpt lat="44.82185" lon="6.16461">
        <ele>1049</ele>
        <time>2020-07-20T02:54:39Z</time>
      </trkpt>
      <trkpt lat="44.82103" lon="6.16232">
        <ele>1052</ele>
        <time>2020-07-20T02:58:41Z</time>
      </trkpt>
      <trkpt lat="44.82085" lon="6.16247">
        <ele>1052</ele>
        <time>2020-07-20T02:59:09Z</time>
      </trkpt>
      <trkpt lat="44.8208" lon="6.16259">
        <ele>1052</ele>
        <time>2020-07-20T02:59:23Z</time>
      </trkpt>
      <trkpt lat="44.82087" lon="6.16246">
        <ele>1052</ele>
        <time>2020-07-20T02:59:38Z</time>
      </trkpt>
      <trkpt lat="44.82087" lon="6.16232">
        <ele>1053</ele>
        <time>2020-07-20T02:59:51Z</time>
      </trkpt>
      <trkpt lat="44.82095" lon="6.16215">
        <ele>1053</ele>
        <time>2020-07-20T03:00:11Z</time>
      </trkpt>
      <trkpt lat="44.82114" lon="6.16186">
        <ele>1053</ele>
        <time>2020-07-20T03:00:48Z</time>
      </trkpt>
      <trkpt lat="44.82118" lon="6.16173">
        <ele>1053</ele>
        <time>2020-07-20T03:01:01Z</time>
      </trkpt>
      <trkpt lat="44.82127" lon="6.16124">
        <ele>1053</ele>
        <time>2020-07-20T03:01:49Z</time>
      </trkpt>
      <trkpt lat="44.82137" lon="6.16026">
        <ele>1052</ele>
        <time>2020-07-20T03:03:23Z</time>
      </trkpt>
      <trkpt lat="44.82143" lon="6.15886">
        <ele>1050</ele>
        <time>2020-07-20T03:05:36Z</time>
      </trkpt>
      <trkpt lat="44.8215" lon="6.15808">
        <ele>1048</ele>
        <time>2020-07-20T03:06:50Z</time>
      </trkpt>
      <trkpt lat="44.82157" lon="6.15762">
        <ele>1046</ele>
        <time>2020-07-20T03:07:35Z</time>
      </trkpt>
      <trkpt lat="44.82166" lon="6.15734">
        <ele>1044</ele>
        <time>2020-07-20T03:08:04Z</time>
      </trkpt>
      <trkpt lat="44.82167" lon="6.15698">
        <ele>1044</ele>
        <time>2020-07-20T03:08:38Z</time>
      </trkpt>
      <trkpt lat="44.82171" lon="6.15665">
        <ele>1045</ele>
        <time>2020-07-20T03:09:10Z</time>
      </trkpt>
      <trkpt lat="44.82176" lon="6.15657">
        <ele>1044</ele>
        <time>2020-07-20T03:09:20Z</time>
      </trkpt>
      <trkpt lat="44.82211" lon="6.15622">
        <ele>1041</ele>
        <time>2020-07-20T03:10:17Z</time>
      </trkpt>
      <trkpt lat="44.82226" lon="6.15611">
        <ele>1039</ele>
        <time>2020-07-20T03:10:39Z</time>
      </trkpt>
      <trkpt lat="44.82258" lon="6.15582">
        <ele>1037</ele>
        <time>2020-07-20T03:11:30Z</time>
      </trkpt>
      <trkpt lat="44.8229" lon="6.15533">
        <ele>1035</ele>
        <time>2020-07-20T03:12:33Z</time>
      </trkpt>
      <trkpt lat="44.82305" lon="6.15505">
        <ele>1035</ele>
        <time>2020-07-20T03:13:06Z</time>
      </trkpt>
      <trkpt lat="44.82315" lon="6.15478">
        <ele>1034</ele>
        <time>2020-07-20T03:13:35Z</time>
      </trkpt>
      <trkpt lat="44.82322" lon="6.15452">
        <ele>1033</ele>
        <time>2020-07-20T03:14:02Z</time>
      </trkpt>
      <trkpt lat="44.82328" lon="6.1542">
        <ele>1032</ele>
        <time>2020-07-20T03:14:33Z</time>
      </trkpt>
      <trkpt lat="44.82324" lon="6.15386">
        <ele>1032</ele>
        <time>2020-07-20T03:15:06Z</time>
      </trkpt>
      <trkpt lat="44.82323" lon="6.15358">
        <ele>1032</ele>
        <time>2020-07-20T03:15:32Z</time>
      </trkpt>
      <trkpt lat="44.82314" lon="6.15294">
        <ele>1032</ele>
        <time>2020-07-20T03:16:34Z</time>
      </trkpt>
      <trkpt lat="44.82316" lon="6.1528">
        <ele>1032</ele>
        <time>2020-07-20T03:16:47Z</time>
      </trkpt>
      <trkpt lat="44.82321" lon="6.15268">
        <ele>1031</ele>
        <time>2020-07-20T03:17:01Z</time>
      </trkpt>
      <trkpt lat="44.82339" lon="6.15242">
        <ele>1031</ele>
        <time>2020-07-20T03:17:35Z</time>
      </trkpt>
      <trkpt lat="44.82345" lon="6.15219">
        <ele>1031</ele>
        <time>2020-07-20T03:17:58Z</time>
      </trkpt>
      <trkpt lat="44.82352" lon="6.15171">
        <ele>1031</ele>
        <time>2020-07-20T03:18:45Z</time>
      </trkpt>
      <trkpt lat="44.82351" lon="6.15137">
        <ele>1032</ele>
        <time>2020-07-20T03:19:17Z</time>
      </trkpt>
      <trkpt lat="44.82362" lon="6.15062">
        <ele>1034</ele>
        <time>2020-07-20T03:20:29Z</time>
      </trkpt>
      <trkpt lat="44.82359" lon="6.15017">
        <ele>1033</ele>
        <time>2020-07-20T03:21:12Z</time>
      </trkpt>
      <trkpt lat="44.82364" lon="6.15008">
        <ele>1033</ele>
        <time>2020-07-20T03:21:23Z</time>
      </trkpt>
      <trkpt lat="44.82432" lon="6.15016">
        <ele>1040</ele>
        <time>2020-07-20T03:22:54Z</time>
      </trkpt>
      <trkpt lat="44.82436" lon="6.15013">
        <ele>1041</ele>
        <time>2020-07-20T03:23:00Z</time>
      </trkpt>
      <trkpt lat="44.82437" lon="6.15005">
        <ele>1042</ele>
        <time>2020-07-20T03:23:08Z</time>
      </trkpt>
      <trkpt lat="44.82424" lon="6.14932">
        <ele>1036</ele>
        <time>2020-07-20T03:24:19Z</time>
      </trkpt>
      <trkpt lat="44.8243" lon="6.14911">
        <ele>1038</ele>
        <time>2020-07-20T03:24:40Z</time>
      </trkpt>
      <trkpt lat="44.82435" lon="6.14914">
        <ele>1040</ele>
        <time>2020-07-20T03:24:48Z</time>
      </trkpt>
      <trkpt lat="44.82444" lon="6.1491">
        <ele>1044</ele>
        <time>2020-07-20T03:25:00Z</time>
      </trkpt>
      <trkpt lat="44.82448" lon="6.14908">
        <ele>1045</ele>
        <time>2020-07-20T03:25:06Z</time>
      </trkpt>
      <trkpt lat="44.82462" lon="6.14901">
        <ele>1050</ele>
        <time>2020-07-20T03:25:26Z</time>
      </trkpt>
      <trkpt lat="44.82468" lon="6.14901">
        <ele>1053</ele>
        <time>2020-07-20T03:25:34Z</time>
      </trkpt>
      <trkpt lat="44.82466" lon="6.14855">
        <ele>1050</ele>
        <time>2020-07-20T03:26:17Z</time>
      </trkpt>
      <trkpt lat="44.82477" lon="6.14692">
        <ele>1041</ele>
        <time>2020-07-20T03:28:52Z</time>
      </trkpt>
      <trkpt lat="44.82477" lon="6.14627">
        <ele>1037</ele>
        <time>2020-07-20T03:29:54Z</time>
      </trkpt>
      <trkpt lat="44.82497" lon="6.14548">
        <ele>1034</ele>
        <time>2020-07-20T03:31:13Z</time>
      </trkpt>
      <trkpt lat="44.82508" lon="6.14523">
        <ele>1033</ele>
        <time>2020-07-20T03:31:41Z</time>
      </trkpt>
      <trkpt lat="44.82529" lon="6.14495">
        <ele>1034</ele>
        <time>2020-07-20T03:32:20Z</time>
      </trkpt>
      <trkpt lat="44.82548" lon="6.14482">
        <ele>1037</ele>
        <time>2020-07-20T03:32:48Z</time>
      </trkpt>
      <trkpt lat="44.82568" lon="6.14474">
        <ele>1040</ele>
        <time>2020-07-20T03:33:15Z</time>
      </trkpt>
      <trkpt lat="44.82572" lon="6.14464">
        <ele>1040</ele>
        <time>2020-07-20T03:33:26Z</time>
      </trkpt>
      <trkpt lat="44.82587" lon="6.1446">
        <ele>1042</ele>
        <time>2020-07-20T03:33:47Z</time>
      </trkpt>
      <trkpt lat="44.82595" lon="6.14443">
        <ele>1042</ele>
        <time>2020-07-20T03:34:06Z</time>
      </trkpt>
      <trkpt lat="44.82598" lon="6.14431">
        <ele>1042</ele>
        <time>2020-07-20T03:34:18Z</time>
      </trkpt>
      <trkpt lat="44.82609" lon="6.14443">
        <ele>1045</ele>
        <time>2020-07-20T03:34:37Z</time>
      </trkpt>
      <trkpt lat="44.82624" lon="6.1445">
        <ele>1048</ele>
        <time>2020-07-20T03:34:58Z</time>
      </trkpt>
      <trkpt lat="44.82632" lon="6.14473">
        <ele>1050</ele>
        <time>2020-07-20T03:35:22Z</time>
      </trkpt>
      <trkpt lat="44.82636" lon="6.14492">
        <ele>1052</ele>
        <time>2020-07-20T03:35:41Z</time>
      </trkpt>
      <trkpt lat="44.82646" lon="6.14509">
        <ele>1056</ele>
        <time>2020-07-20T03:36:02Z</time>
      </trkpt>
      <trkpt lat="44.82638" lon="6.14528">
        <ele>1058</ele>
        <time>2020-07-20T03:36:23Z</time>
      </trkpt>
      <trkpt lat="44.82638" lon="6.14537">
        <ele>1060</ele>
        <time>2020-07-20T03:36:31Z</time>
      </trkpt>
      <trkpt lat="44.82629" lon="6.14551">
        <ele>1062</ele>
        <time>2020-07-20T03:36:49Z</time>
      </trkpt>
      <trkpt lat="44.82613" lon="6.14567">
        <ele>1064</ele>
        <time>2020-07-20T03:37:15Z</time>
      </trkpt>
      <trkpt lat="44.82617" lon="6.14569">
        <ele>1065</ele>
        <time>2020-07-20T03:37:21Z</time>
      </trkpt>
      <trkpt lat="44.82653" lon="6.14549">
        <ele>1064</ele>
        <time>2020-07-20T03:38:12Z</time>
      </trkpt>
      <trkpt lat="44.82669" lon="6.14558">
        <ele>1068</ele>
        <time>2020-07-20T03:38:35Z</time>
      </trkpt>
      <trkpt lat="44.82674" lon="6.14575">
        <ele>1073</ele>
        <time>2020-07-20T03:38:53Z</time>
      </trkpt>
      <trkpt lat="44.82678" lon="6.14601">
        <ele>1080</ele>
        <time>2020-07-20T03:39:18Z</time>
      </trkpt>
      <trkpt lat="44.82683" lon="6.14614">
        <ele>1085</ele>
        <time>2020-07-20T03:39:32Z</time>
      </trkpt>
      <trkpt lat="44.82692" lon="6.14624">
        <ele>1089</ele>
        <time>2020-07-20T03:39:47Z</time>
      </trkpt>
      <trkpt lat="44.82701" lon="6.14626">
        <ele>1092</ele>
        <time>2020-07-20T03:39:59Z</time>
      </trkpt>
      <trkpt lat="44.8271" lon="6.14624">
        <ele>1093</ele>
        <time>2020-07-20T03:40:12Z</time>
      </trkpt>
      <trkpt lat="44.82716" lon="6.1462">
        <ele>1094</ele>
        <time>2020-07-20T03:40:20Z</time>
      </trkpt>
      <trkpt lat="44.82716" lon="6.14617">
        <ele>1093</ele>
        <time>2020-07-20T03:40:23Z</time>
      </trkpt>
      <trkpt lat="44.82721" lon="6.14609">
        <ele>1093</ele>
        <time>2020-07-20T03:40:33Z</time>
      </trkpt>
      <trkpt lat="44.82726" lon="6.14597">
        <ele>1092</ele>
        <time>2020-07-20T03:40:47Z</time>
      </trkpt>
      <trkpt lat="44.8273" lon="6.14595">
        <ele>1092</ele>
        <time>2020-07-20T03:40:52Z</time>
      </trkpt>
      <trkpt lat="44.82736" lon="6.14607">
        <ele>1096</ele>
        <time>2020-07-20T03:41:06Z</time>
      </trkpt>
      <trkpt lat="44.82738" lon="6.14657">
        <ele>1105</ele>
        <time>2020-07-20T03:41:54Z</time>
      </trkpt>
      <trkpt lat="44.82734" lon="6.14684">
        <ele>1110</ele>
        <time>2020-07-20T03:42:20Z</time>
      </trkpt>
      <trkpt lat="44.82734" lon="6.14702">
        <ele>1114</ele>
        <time>2020-07-20T03:42:37Z</time>
      </trkpt>
      <trkpt lat="44.82764" lon="6.14659">
        <ele>1118</ele>
        <time>2020-07-20T03:43:34Z</time>
      </trkpt>
      <trkpt lat="44.82797" lon="6.14589">
        <ele>1126</ele>
        <time>2020-07-20T03:44:53Z</time>
      </trkpt>
      <trkpt lat="44.82849" lon="6.14518">
        <ele>1143</ele>
        <time>2020-07-20T03:46:30Z</time>
      </trkpt>
      <trkpt lat="44.82917" lon="6.14407">
        <ele>1164</ele>
        <time>2020-07-20T03:48:49Z</time>
      </trkpt>
      <trkpt lat="44.82915" lon="6.14383">
        <ele>1156</ele>
        <time>2020-07-20T03:49:12Z</time>
      </trkpt>
      <trkpt lat="44.8292" lon="6.14367">
        <ele>1153</ele>
        <time>2020-07-20T03:49:28Z</time>
      </trkpt>
      <trkpt lat="44.82937" lon="6.14356">
        <ele>1155</ele>
        <time>2020-07-20T03:49:53Z</time>
      </trkpt>
      <trkpt lat="44.82957" lon="6.14362">
        <ele>1165</ele>
        <time>2020-07-20T03:50:20Z</time>
      </trkpt>
      <trkpt lat="44.82969" lon="6.14352">
        <ele>1165</ele>
        <time>2020-07-20T03:50:39Z</time>
      </trkpt>
      <trkpt lat="44.82993" lon="6.14339">
        <ele>1166</ele>
        <time>2020-07-20T03:51:13Z</time>
      </trkpt>
      <trkpt lat="44.83014" lon="6.14347">
        <ele>1180</ele>
        <time>2020-07-20T03:51:42Z</time>
      </trkpt>
      <trkpt lat="44.83026" lon="6.1435">
        <ele>1187</ele>
        <time>2020-07-20T03:51:59Z</time>
      </trkpt>
      <trkpt lat="44.83038" lon="6.14342">
        <ele>1188</ele>
        <time>2020-07-20T03:52:16Z</time>
      </trkpt>
      <trkpt lat="44.83051" lon="6.1434">
        <ele>1194</ele>
        <time>2020-07-20T03:52:34Z</time>
      </trkpt>
      <trkpt lat="44.83121" lon="6.14295">
        <ele>1207</ele>
        <time>2020-07-20T03:54:16Z</time>
      </trkpt>
      <trkpt lat="44.83133" lon="6.14281">
        <ele>1206</ele>
        <time>2020-07-20T03:54:37Z</time>
      </trkpt>
      <trkpt lat="44.83164" lon="6.14259">
        <ele>1209</ele>
        <time>2020-07-20T03:55:23Z</time>
      </trkpt>
      <trkpt lat="44.83166" lon="6.14246">
        <ele>1204</ele>
        <time>2020-07-20T03:55:36Z</time>
      </trkpt>
      <trkpt lat="44.83189" lon="6.14226">
        <ele>1211</ele>
        <time>2020-07-20T03:56:12Z</time>
      </trkpt>
      <trkpt lat="44.83215" lon="6.14213">
        <ele>1221</ele>
        <time>2020-07-20T03:56:49Z</time>
      </trkpt>
      <trkpt lat="44.8323" lon="6.14196">
        <ele>1222</ele>
        <time>2020-07-20T03:57:15Z</time>
      </trkpt>
      <trkpt lat="44.83241" lon="6.1415">
        <ele>1217</ele>
        <time>2020-07-20T03:58:01Z</time>
      </trkpt>
      <trkpt lat="44.83262" lon="6.1415">
        <ele>1227</ele>
        <time>2020-07-20T03:58:29Z</time>
      </trkpt>
      <trkpt lat="44.83258" lon="6.14155">
        <ele>1225</ele>
        <time>2020-07-20T03:58:36Z</time>
      </trkpt>
      <trkpt lat="44.83273" lon="6.14152">
        <ele>1234</ele>
        <time>2020-07-20T03:58:56Z</time>
      </trkpt>
      <trkpt lat="44.83269" lon="6.14162">
        <ele>1233</ele>
        <time>2020-07-20T03:59:07Z</time>
      </trkpt>
      <trkpt lat="44.83288" lon="6.14152">
        <ele>1242</ele>
        <time>2020-07-20T03:59:34Z</time>
      </trkpt>
      <trkpt lat="44.83279" lon="6.14163">
        <ele>1239</ele>
        <time>2020-07-20T03:59:50Z</time>
      </trkpt>
      <trkpt lat="44.83293" lon="6.14161">
        <ele>1247</ele>
        <time>2020-07-20T04:00:09Z</time>
      </trkpt>
      <trkpt lat="44.83294" lon="6.14151">
        <ele>1245</ele>
        <time>2020-07-20T04:00:18Z</time>
      </trkpt>
      <trkpt lat="44.83304" lon="6.14142">
        <ele>1249</ele>
        <time>2020-07-20T04:00:34Z</time>
      </trkpt>
      <trkpt lat="44.83317" lon="6.14122">
        <ele>1249</ele>
        <time>2020-07-20T04:01:00Z</time>
      </trkpt>
      <trkpt lat="44.83361" lon="6.14088">
        <ele>1257</ele>
        <time>2020-07-20T04:02:07Z</time>
      </trkpt>
      <trkpt lat="44.83367" lon="6.14085">
        <ele>1259</ele>
        <time>2020-07-20T04:02:15Z</time>
      </trkpt>
      <trkpt lat="44.83393" lon="6.14083">
        <ele>1272</ele>
        <time>2020-07-20T04:02:50Z</time>
      </trkpt>
      <trkpt lat="44.83425" lon="6.1405">
        <ele>1284</ele>
        <time>2020-07-20T04:03:43Z</time>
      </trkpt>
      <trkpt lat="44.83422" lon="6.14068">
        <ele>1285</ele>
        <time>2020-07-20T04:04:00Z</time>
      </trkpt>
      <trkpt lat="44.83433" lon="6.14062">
        <ele>1291</ele>
        <time>2020-07-20T04:04:16Z</time>
      </trkpt>
      <trkpt lat="44.83417" lon="6.14103">
        <ele>1298</ele>
        <time>2020-07-20T04:05:00Z</time>
      </trkpt>
      <trkpt lat="44.83442" lon="6.14088">
        <ele>1304</ele>
        <time>2020-07-20T04:05:37Z</time>
      </trkpt>
      <trkpt lat="44.83414" lon="6.14132">
        <ele>1314</ele>
        <time>2020-07-20T04:06:32Z</time>
      </trkpt>
      <trkpt lat="44.83425" lon="6.14127">
        <ele>1317</ele>
        <time>2020-07-20T04:06:48Z</time>
      </trkpt>
      <trkpt lat="44.83446" lon="6.14107">
        <ele>1318</ele>
        <time>2020-07-20T04:07:22Z</time>
      </trkpt>
      <trkpt lat="44.83462" lon="6.14101">
        <ele>1324</ele>
        <time>2020-07-20T04:07:44Z</time>
      </trkpt>
      <trkpt lat="44.83477" lon="6.14082">
        <ele>1323</ele>
        <time>2020-07-20T04:08:11Z</time>
      </trkpt>
      <trkpt lat="44.83478" lon="6.14064">
        <ele>1319</ele>
        <time>2020-07-20T04:08:28Z</time>
      </trkpt>
      <trkpt lat="44.83485" lon="6.14058">
        <ele>1322</ele>
        <time>2020-07-20T04:08:39Z</time>
      </trkpt>
      <trkpt lat="44.83488" lon="6.14084">
        <ele>1331</ele>
        <time>2020-07-20T04:09:04Z</time>
      </trkpt>
      <trkpt lat="44.83498" lon="6.14069">
        <ele>1333</ele>
        <time>2020-07-20T04:09:23Z</time>
      </trkpt>
      <trkpt lat="44.83508" lon="6.14067">
        <ele>1340</ele>
        <time>2020-07-20T04:09:37Z</time>
      </trkpt>
      <trkpt lat="44.83515" lon="6.14042">
        <ele>1337</ele>
        <time>2020-07-20T04:10:02Z</time>
      </trkpt>
      <trkpt lat="44.83519" lon="6.14068">
        <ele>1348</ele>
        <time>2020-07-20T04:10:27Z</time>
      </trkpt>
      <trkpt lat="44.83526" lon="6.14048">
        <ele>1347</ele>
        <time>2020-07-20T04:10:48Z</time>
      </trkpt>
      <trkpt lat="44.83549" lon="6.14028">
        <ele>1356</ele>
        <time>2020-07-20T04:11:24Z</time>
      </trkpt>
      <trkpt lat="44.83577" lon="6.13996">
        <ele>1362</ele>
        <time>2020-07-20T04:12:12Z</time>
      </trkpt>
      <trkpt lat="44.83585" lon="6.13995">
        <ele>1366</ele>
        <time>2020-07-20T04:12:23Z</time>
      </trkpt>
      <trkpt lat="44.83596" lon="6.13983">
        <ele>1366</ele>
        <time>2020-07-20T04:12:42Z</time>
      </trkpt>
      <trkpt lat="44.83588" lon="6.14008">
        <ele>1372</ele>
        <time>2020-07-20T04:13:08Z</time>
      </trkpt>
      <trkpt lat="44.83582" lon="6.14015">
        <ele>1372</ele>
        <time>2020-07-20T04:13:18Z</time>
      </trkpt>
      <trkpt lat="44.83582" lon="6.14026">
        <ele>1377</ele>
        <time>2020-07-20T04:13:29Z</time>
      </trkpt>
      <trkpt lat="44.83577" lon="6.14035">
        <ele>1377</ele>
        <time>2020-07-20T04:13:39Z</time>
      </trkpt>
      <trkpt lat="44.83574" lon="6.14044">
        <ele>1379</ele>
        <time>2020-07-20T04:13:49Z</time>
      </trkpt>
      <trkpt lat="44.83573" lon="6.14056">
        <ele>1383</ele>
        <time>2020-07-20T04:14:00Z</time>
      </trkpt>
      <trkpt lat="44.83563" lon="6.14074">
        <ele>1382</ele>
        <time>2020-07-20T04:14:22Z</time>
      </trkpt>
      <trkpt lat="44.83555" lon="6.14101">
        <ele>1387</ele>
        <time>2020-07-20T04:14:49Z</time>
      </trkpt>
      <trkpt lat="44.83542" lon="6.14129">
        <ele>1390</ele>
        <time>2020-07-20T04:15:21Z</time>
      </trkpt>
      <trkpt lat="44.8354" lon="6.14148">
        <ele>1397</ele>
        <time>2020-07-20T04:15:39Z</time>
      </trkpt>
      <trkpt lat="44.83523" lon="6.14166">
        <ele>1394</ele>
        <time>2020-07-20T04:16:08Z</time>
      </trkpt>
      <trkpt lat="44.83521" lon="6.14179">
        <ele>1399</ele>
        <time>2020-07-20T04:16:20Z</time>
      </trkpt>
      <trkpt lat="44.83505" lon="6.14192">
        <ele>1395</ele>
        <time>2020-07-20T04:16:45Z</time>
      </trkpt>
      <trkpt lat="44.83485" lon="6.14226">
        <ele>1399</ele>
        <time>2020-07-20T04:17:27Z</time>
      </trkpt>
      <trkpt lat="44.83465" lon="6.14279">
        <ele>1409</ele>
        <time>2020-07-20T04:18:24Z</time>
      </trkpt>
      <trkpt lat="44.8349" lon="6.14265">
        <ele>1419</ele>
        <time>2020-07-20T04:18:59Z</time>
      </trkpt>
      <trkpt lat="44.83513" lon="6.14244">
        <ele>1423</ele>
        <time>2020-07-20T04:19:36Z</time>
      </trkpt>
      <trkpt lat="44.83539" lon="6.14236">
        <ele>1434</ele>
        <time>2020-07-20T04:20:12Z</time>
      </trkpt>
      <trkpt lat="44.83527" lon="6.14254">
        <ele>1435</ele>
        <time>2020-07-20T04:20:35Z</time>
      </trkpt>
      <trkpt lat="44.8352" lon="6.14278">
        <ele>1442</ele>
        <time>2020-07-20T04:20:59Z</time>
      </trkpt>
      <trkpt lat="44.83546" lon="6.14265">
        <ele>1451</ele>
        <time>2020-07-20T04:21:36Z</time>
      </trkpt>
      <trkpt lat="44.83565" lon="6.14261">
        <ele>1460</ele>
        <time>2020-07-20T04:22:02Z</time>
      </trkpt>
      <trkpt lat="44.8354" lon="6.14292">
        <ele>1460</ele>
        <time>2020-07-20T04:22:46Z</time>
      </trkpt>
      <trkpt lat="44.83569" lon="6.14279">
        <ele>1471</ele>
        <time>2020-07-20T04:23:27Z</time>
      </trkpt>
      <trkpt lat="44.83584" lon="6.14284">
        <ele>1483</ele>
        <time>2020-07-20T04:23:48Z</time>
      </trkpt>
      <trkpt lat="44.83591" lon="6.14272">
        <ele>1480</ele>
        <time>2020-07-20T04:24:02Z</time>
      </trkpt>
      <trkpt lat="44.83595" lon="6.14261">
        <ele>1476</ele>
        <time>2020-07-20T04:24:14Z</time>
      </trkpt>
      <trkpt lat="44.83608" lon="6.14252">
        <ele>1478</ele>
        <time>2020-07-20T04:24:33Z</time>
      </trkpt>
      <trkpt lat="44.83634" lon="6.14247">
        <ele>1488</ele>
        <time>2020-07-20T04:25:08Z</time>
      </trkpt>
      <trkpt lat="44.83658" lon="6.14234">
        <ele>1493</ele>
        <time>2020-07-20T04:25:43Z</time>
      </trkpt>
      <trkpt lat="44.83702" lon="6.14215">
        <ele>1512</ele>
        <time>2020-07-20T04:26:44Z</time>
      </trkpt>
      <trkpt lat="44.83675" lon="6.14247">
        <ele>1508</ele>
        <time>2020-07-20T04:27:31Z</time>
      </trkpt>
      <trkpt lat="44.83669" lon="6.14262">
        <ele>1513</ele>
        <time>2020-07-20T04:27:47Z</time>
      </trkpt>
      <trkpt lat="44.83679" lon="6.14252">
        <ele>1513</ele>
        <time>2020-07-20T04:28:04Z</time>
      </trkpt>
      <trkpt lat="44.83731" lon="6.14227">
        <ele>1535</ele>
        <time>2020-07-20T04:29:17Z</time>
      </trkpt>
      <trkpt lat="44.83764" lon="6.14195">
        <ele>1538</ele>
        <time>2020-07-20T04:30:10Z</time>
      </trkpt>
      <trkpt lat="44.83792" lon="6.14185">
        <ele>1545</ele>
        <time>2020-07-20T04:30:49Z</time>
      </trkpt>
      <trkpt lat="44.83781" lon="6.14205">
        <ele>1550</ele>
        <time>2020-07-20T04:31:13Z</time>
      </trkpt>
      <trkpt lat="44.83767" lon="6.1424">
        <ele>1561</ele>
        <time>2020-07-20T04:31:51Z</time>
      </trkpt>
      <trkpt lat="44.8375" lon="6.14267">
        <ele>1568</ele>
        <time>2020-07-20T04:32:25Z</time>
      </trkpt>
      <trkpt lat="44.8376" lon="6.14264">
        <ele>1571</ele>
        <time>2020-07-20T04:32:39Z</time>
      </trkpt>
      <trkpt lat="44.83795" lon="6.14235">
        <ele>1571</ele>
        <time>2020-07-20T04:33:33Z</time>
      </trkpt>
      <trkpt lat="44.83844" lon="6.1421">
        <ele>1580</ele>
        <time>2020-07-20T04:34:43Z</time>
      </trkpt>
      <trkpt lat="44.83852" lon="6.14217">
        <ele>1587</ele>
        <time>2020-07-20T04:34:55Z</time>
      </trkpt>
      <trkpt lat="44.8386" lon="6.14207">
        <ele>1585</ele>
        <time>2020-07-20T04:35:09Z</time>
      </trkpt>
      <trkpt lat="44.83871" lon="6.142">
        <ele>1587</ele>
        <time>2020-07-20T04:35:25Z</time>
      </trkpt>
      <trkpt lat="44.83907" lon="6.14193">
        <ele>1599</ele>
        <time>2020-07-20T04:36:14Z</time>
      </trkpt>
      <trkpt lat="44.8395" lon="6.14174">
        <ele>1609</ele>
        <time>2020-07-20T04:37:14Z</time>
      </trkpt>
      <trkpt lat="44.83979" lon="6.14164">
        <ele>1617</ele>
        <time>2020-07-20T04:37:54Z</time>
      </trkpt>
      <trkpt lat="44.8397" lon="6.14175">
        <ele>1618</ele>
        <time>2020-07-20T04:38:10Z</time>
      </trkpt>
      <trkpt lat="44.83956" lon="6.14196">
        <ele>1621</ele>
        <time>2020-07-20T04:38:37Z</time>
      </trkpt>
      <trkpt lat="44.83931" lon="6.14237">
        <ele>1630</ele>
        <time>2020-07-20T04:39:28Z</time>
      </trkpt>
      <trkpt lat="44.83891" lon="6.1428">
        <ele>1638</ele>
        <time>2020-07-20T04:40:35Z</time>
      </trkpt>
      <trkpt lat="44.8395" lon="6.14268">
        <ele>1653</ele>
        <time>2020-07-20T04:41:55Z</time>
      </trkpt>
      <trkpt lat="44.83978" lon="6.14256">
        <ele>1658</ele>
        <time>2020-07-20T04:42:34Z</time>
      </trkpt>
      <trkpt lat="44.83957" lon="6.14289">
        <ele>1666</ele>
        <time>2020-07-20T04:43:16Z</time>
      </trkpt>
      <trkpt lat="44.83973" lon="6.14283">
        <ele>1669</ele>
        <time>2020-07-20T04:43:38Z</time>
      </trkpt>
      <trkpt lat="44.83968" lon="6.143">
        <ele>1675</ele>
        <time>2020-07-20T04:43:55Z</time>
      </trkpt>
      <trkpt lat="44.83999" lon="6.14291">
        <ele>1681</ele>
        <time>2020-07-20T04:44:38Z</time>
      </trkpt>
      <trkpt lat="44.84033" lon="6.14288">
        <ele>1690</ele>
        <time>2020-07-20T04:45:23Z</time>
      </trkpt>
      <trkpt lat="44.84044" lon="6.14275">
        <ele>1687</ele>
        <time>2020-07-20T04:45:42Z</time>
      </trkpt>
      <trkpt lat="44.84067" lon="6.14272">
        <ele>1692</ele>
        <time>2020-07-20T04:46:13Z</time>
      </trkpt>
      <trkpt lat="44.84077" lon="6.14268">
        <ele>1693</ele>
        <time>2020-07-20T04:46:27Z</time>
      </trkpt>
      <trkpt lat="44.84054" lon="6.1429">
        <ele>1697</ele>
        <time>2020-07-20T04:47:04Z</time>
      </trkpt>
      <trkpt lat="44.84076" lon="6.14289">
        <ele>1703</ele>
        <time>2020-07-20T04:47:33Z</time>
      </trkpt>
      <trkpt lat="44.84093" lon="6.14294">
        <ele>1712</ele>
        <time>2020-07-20T04:47:57Z</time>
      </trkpt>
      <trkpt lat="44.84087" lon="6.14313">
        <ele>1720</ele>
        <time>2020-07-20T04:48:16Z</time>
      </trkpt>
      <trkpt lat="44.84071" lon="6.1433">
        <ele>1723</ele>
        <time>2020-07-20T04:48:43Z</time>
      </trkpt>
      <trkpt lat="44.84068" lon="6.14345">
        <ele>1731</ele>
        <time>2020-07-20T04:48:58Z</time>
      </trkpt>
      <trkpt lat="44.84086" lon="6.14332">
        <ele>1729</ele>
        <time>2020-07-20T04:49:25Z</time>
      </trkpt>
      <trkpt lat="44.84098" lon="6.14327">
        <ele>1731</ele>
        <time>2020-07-20T04:49:41Z</time>
      </trkpt>
      <trkpt lat="44.84111" lon="6.14336">
        <ele>1740</ele>
        <time>2020-07-20T04:50:01Z</time>
      </trkpt>
      <trkpt lat="44.84119" lon="6.14357">
        <ele>1755</ele>
        <time>2020-07-20T04:50:23Z</time>
      </trkpt>
      <trkpt lat="44.84132" lon="6.14371">
        <ele>1767</ele>
        <time>2020-07-20T04:50:45Z</time>
      </trkpt>
      <trkpt lat="44.8414" lon="6.1437">
        <ele>1769</ele>
        <time>2020-07-20T04:50:56Z</time>
      </trkpt>
      <trkpt lat="44.84154" lon="6.14379">
        <ele>1779</ele>
        <time>2020-07-20T04:51:16Z</time>
      </trkpt>
      <trkpt lat="44.84177" lon="6.14334">
        <ele>1763</ele>
        <time>2020-07-20T04:52:09Z</time>
      </trkpt>
      <trkpt lat="44.84193" lon="6.14313">
        <ele>1761</ele>
        <time>2020-07-20T04:52:38Z</time>
      </trkpt>
      <trkpt lat="44.84199" lon="6.14294">
        <ele>1755</ele>
        <time>2020-07-20T04:52:58Z</time>
      </trkpt>
      <trkpt lat="44.84209" lon="6.14287">
        <ele>1756</ele>
        <time>2020-07-20T04:53:13Z</time>
      </trkpt>
      <trkpt lat="44.84204" lon="6.14298">
        <ele>1759</ele>
        <time>2020-07-20T04:53:25Z</time>
      </trkpt>
      <trkpt lat="44.84221" lon="6.14299">
        <ele>1767</ele>
        <time>2020-07-20T04:53:48Z</time>
      </trkpt>
      <trkpt lat="44.84239" lon="6.14307">
        <ele>1778</ele>
        <time>2020-07-20T04:54:13Z</time>
      </trkpt>
      <trkpt lat="44.84217" lon="6.14323">
        <ele>1776</ele>
        <time>2020-07-20T04:54:46Z</time>
      </trkpt>
      <trkpt lat="44.84215" lon="6.14338">
        <ele>1782</ele>
        <time>2020-07-20T04:55:00Z</time>
      </trkpt>
      <trkpt lat="44.8423" lon="6.14331">
        <ele>1785</ele>
        <time>2020-07-20T04:55:21Z</time>
      </trkpt>
      <trkpt lat="44.84228" lon="6.14341">
        <ele>1789</ele>
        <time>2020-07-20T04:55:31Z</time>
      </trkpt>
      <trkpt lat="44.84238" lon="6.14339">
        <ele>1793</ele>
        <time>2020-07-20T04:55:45Z</time>
      </trkpt>
      <trkpt lat="44.84251" lon="6.14343">
        <ele>1801</ele>
        <time>2020-07-20T04:56:03Z</time>
      </trkpt>
      <trkpt lat="44.84238" lon="6.14354">
        <ele>1801</ele>
        <time>2020-07-20T04:56:23Z</time>
      </trkpt>
      <trkpt lat="44.84228" lon="6.14372">
        <ele>1807</ele>
        <time>2020-07-20T04:56:44Z</time>
      </trkpt>
      <trkpt lat="44.84244" lon="6.14364">
        <ele>1809</ele>
        <time>2020-07-20T04:57:07Z</time>
      </trkpt>
      <trkpt lat="44.84275" lon="6.14367">
        <ele>1823</ele>
        <time>2020-07-20T04:57:49Z</time>
      </trkpt>
      <trkpt lat="44.84302" lon="6.14361">
        <ele>1831</ele>
        <time>2020-07-20T04:58:25Z</time>
      </trkpt>
      <trkpt lat="44.84277" lon="6.1439">
        <ele>1837</ele>
        <time>2020-07-20T04:59:08Z</time>
      </trkpt>
      <trkpt lat="44.84255" lon="6.1441">
        <ele>1839</ele>
        <time>2020-07-20T04:59:43Z</time>
      </trkpt>
      <trkpt lat="44.84239" lon="6.14436">
        <ele>1845</ele>
        <time>2020-07-20T05:00:16Z</time>
      </trkpt>
      <trkpt lat="44.84228" lon="6.14459">
        <ele>1851</ele>
        <time>2020-07-20T05:00:42Z</time>
      </trkpt>
      <trkpt lat="44.84214" lon="6.14472">
        <ele>1853</ele>
        <time>2020-07-20T05:01:04Z</time>
      </trkpt>
      <trkpt lat="44.84233" lon="6.14473">
        <ele>1859</ele>
        <time>2020-07-20T05:01:30Z</time>
      </trkpt>
      <trkpt lat="44.84258" lon="6.14469">
        <ele>1865</ele>
        <time>2020-07-20T05:02:03Z</time>
      </trkpt>
      <trkpt lat="44.84284" lon="6.1447">
        <ele>1873</ele>
        <time>2020-07-20T05:02:38Z</time>
      </trkpt>
      <trkpt lat="44.84326" lon="6.14429">
        <ele>1875</ele>
        <time>2020-07-20T05:03:46Z</time>
      </trkpt>
      <trkpt lat="44.84339" lon="6.14421">
        <ele>1877</ele>
        <time>2020-07-20T05:04:05Z</time>
      </trkpt>
      <trkpt lat="44.84352" lon="6.14421">
        <ele>1881</ele>
        <time>2020-07-20T05:04:22Z</time>
      </trkpt>
      <trkpt lat="44.84371" lon="6.14438">
        <ele>1891</ele>
        <time>2020-07-20T05:04:52Z</time>
      </trkpt>
      <trkpt lat="44.84381" lon="6.14442">
        <ele>1895</ele>
        <time>2020-07-20T05:05:06Z</time>
      </trkpt>
      <trkpt lat="44.84388" lon="6.14435">
        <ele>1895</ele>
        <time>2020-07-20T05:05:18Z</time>
      </trkpt>
      <trkpt lat="44.84398" lon="6.1443">
        <ele>1897</ele>
        <time>2020-07-20T05:05:32Z</time>
      </trkpt>
      <trkpt lat="44.84416" lon="6.14443">
        <ele>1905</ele>
        <time>2020-07-20T05:05:59Z</time>
      </trkpt>
      <trkpt lat="44.84449" lon="6.14449">
        <ele>1906</ele>
        <time>2020-07-20T05:06:43Z</time>
      </trkpt>
      <trkpt lat="44.84431" lon="6.14476">
        <ele>1913</ele>
        <time>2020-07-20T05:07:18Z</time>
      </trkpt>
      <trkpt lat="44.8446" lon="6.14468">
        <ele>1911</ele>
        <time>2020-07-20T05:07:58Z</time>
      </trkpt>
      <trkpt lat="44.84456" lon="6.14481">
        <ele>1915</ele>
        <time>2020-07-20T05:08:11Z</time>
      </trkpt>
      <trkpt lat="44.84477" lon="6.14491">
        <ele>1919</ele>
        <time>2020-07-20T05:08:41Z</time>
      </trkpt>
      <trkpt lat="44.84514" lon="6.14528">
        <ele>1932</ele>
        <time>2020-07-20T05:09:41Z</time>
      </trkpt>
      <trkpt lat="44.8449" lon="6.14524">
        <ele>1930</ele>
        <time>2020-07-20T05:10:14Z</time>
      </trkpt>
      <trkpt lat="44.84509" lon="6.14545">
        <ele>1937</ele>
        <time>2020-07-20T05:10:46Z</time>
      </trkpt>
      <trkpt lat="44.84488" lon="6.14539">
        <ele>1934</ele>
        <time>2020-07-20T05:11:14Z</time>
      </trkpt>
      <trkpt lat="44.84483" lon="6.14552">
        <ele>1938</ele>
        <time>2020-07-20T05:11:28Z</time>
      </trkpt>
      <trkpt lat="44.84478" lon="6.14574">
        <ele>1944</ele>
        <time>2020-07-20T05:11:50Z</time>
      </trkpt>
      <trkpt lat="44.84465" lon="6.14592">
        <ele>1949</ele>
        <time>2020-07-20T05:12:15Z</time>
      </trkpt>
      <trkpt lat="44.84457" lon="6.14596">
        <ele>1950</ele>
        <time>2020-07-20T05:12:26Z</time>
      </trkpt>
      <trkpt lat="44.84471" lon="6.14606">
        <ele>1952</ele>
        <time>2020-07-20T05:12:47Z</time>
      </trkpt>
      <trkpt lat="44.84487" lon="6.14608">
        <ele>1953</ele>
        <time>2020-07-20T05:13:08Z</time>
      </trkpt>
      <trkpt lat="44.84491" lon="6.14614">
        <ele>1954</ele>
        <time>2020-07-20T05:13:16Z</time>
      </trkpt>
      <trkpt lat="44.84487" lon="6.14608">
        <ele>1953</ele>
        <time>2020-07-20T05:13:24Z</time>
      </trkpt>
      <trkpt lat="44.84499" lon="6.14607">
        <ele>1953</ele>
        <time>2020-07-20T05:13:40Z</time>
      </trkpt>
      <trkpt lat="44.84529" lon="6.14586">
        <ele>1948</ele>
        <time>2020-07-20T05:14:25Z</time>
      </trkpt>
      <trkpt lat="44.84548" lon="6.14589">
        <ele>1948</ele>
        <time>2020-07-20T05:14:50Z</time>
      </trkpt>
      <trkpt lat="44.84559" lon="6.14582">
        <ele>1947</ele>
        <time>2020-07-20T05:15:06Z</time>
      </trkpt>
      <trkpt lat="44.84564" lon="6.14579">
        <ele>1946</ele>
        <time>2020-07-21T22:48:09Z</time>
      </trkpt>
      <trkpt lat="44.84548" lon="6.14589">
        <ele>1948</ele>
        <time>2020-07-21T22:48:32Z</time>
      </trkpt>
      <trkpt lat="44.84529" lon="6.14586">
        <ele>1948</ele>
        <time>2020-07-21T22:48:58Z</time>
      </trkpt>
      <trkpt lat="44.84499" lon="6.14607">
        <ele>1953</ele>
        <time>2020-07-21T22:49:43Z</time>
      </trkpt>
      <trkpt lat="44.84487" lon="6.14608">
        <ele>1953</ele>
        <time>2020-07-21T22:49:59Z</time>
      </trkpt>
      <trkpt lat="44.84493" lon="6.14615">
        <ele>1955</ele>
        <time>2020-07-21T22:50:09Z</time>
      </trkpt>
      <trkpt lat="44.84479" lon="6.14621">
        <ele>1956</ele>
        <time>2020-07-21T22:50:29Z</time>
      </trkpt>
      <trkpt lat="44.84493" lon="6.14638">
        <ele>1960</ele>
        <time>2020-07-21T22:50:53Z</time>
      </trkpt>
      <trkpt lat="44.8449" lon="6.14659">
        <ele>1966</ele>
        <time>2020-07-21T22:51:13Z</time>
      </trkpt>
      <trkpt lat="44.84477" lon="6.14656">
        <ele>1966</ele>
        <time>2020-07-21T22:51:31Z</time>
      </trkpt>
      <trkpt lat="44.84468" lon="6.14643">
        <ele>1962</ele>
        <time>2020-07-21T22:51:48Z</time>
      </trkpt>
      <trkpt lat="44.84464" lon="6.14644">
        <ele>1963</ele>
        <time>2020-07-21T22:51:54Z</time>
      </trkpt>
      <trkpt lat="44.84468" lon="6.14643">
        <ele>1962</ele>
        <time>2020-07-21T22:51:59Z</time>
      </trkpt>
      <trkpt lat="44.84477" lon="6.14656">
        <ele>1966</ele>
        <time>2020-07-21T22:52:16Z</time>
      </trkpt>
      <trkpt lat="44.8449" lon="6.14659">
        <ele>1966</ele>
        <time>2020-07-21T22:52:34Z</time>
      </trkpt>
      <trkpt lat="44.84493" lon="6.14638">
        <ele>1960</ele>
        <time>2020-07-21T22:52:54Z</time>
      </trkpt>
      <trkpt lat="44.84479" lon="6.14621">
        <ele>1956</ele>
        <time>2020-07-21T22:53:19Z</time>
      </trkpt>
      <trkpt lat="44.84493" lon="6.14615">
        <ele>1955</ele>
        <time>2020-07-21T22:53:38Z</time>
      </trkpt>
      <trkpt lat="44.84487" lon="6.14608">
        <ele>1953</ele>
        <time>2020-07-21T22:53:49Z</time>
      </trkpt>
      <trkpt lat="44.84499" lon="6.14607">
        <ele>1953</ele>
        <time>2020-07-21T22:54:05Z</time>
      </trkpt>
      <trkpt lat="44.84529" lon="6.14586">
        <ele>1948</ele>
        <time>2020-07-21T22:54:49Z</time>
      </trkpt>
      <trkpt lat="44.84548" lon="6.14589">
        <ele>1948</ele>
        <time>2020-07-21T22:55:15Z</time>
      </trkpt>
      <trkpt lat="44.84564" lon="6.14579">
        <ele>1946</ele>
        <time>2020-07-21T22:55:38Z</time>
      </trkpt>
      <trkpt lat="44.84576" lon="6.14567">
        <ele>1944</ele>
        <time>2020-07-21T22:55:58Z</time>
      </trkpt>
      <trkpt lat="44.84587" lon="6.14554">
        <ele>1942</ele>
        <time>2020-07-21T22:56:17Z</time>
      </trkpt>
      <trkpt lat="44.84598" lon="6.14549">
        <ele>1945</ele>
        <time>2020-07-21T22:56:32Z</time>
      </trkpt>
      <trkpt lat="44.84613" lon="6.14536">
        <ele>1947</ele>
        <time>2020-07-21T22:56:56Z</time>
      </trkpt>
      <trkpt lat="44.84616" lon="6.14527">
        <ele>1947</ele>
        <time>2020-07-21T22:57:05Z</time>
      </trkpt>
      <trkpt lat="44.84613" lon="6.14513">
        <ele>1943</ele>
        <time>2020-07-21T22:57:19Z</time>
      </trkpt>
      <trkpt lat="44.84615" lon="6.14502">
        <ele>1942</ele>
        <time>2020-07-21T22:57:30Z</time>
      </trkpt>
      <trkpt lat="44.84616" lon="6.14481">
        <ele>1937</ele>
        <time>2020-07-21T22:57:50Z</time>
      </trkpt>
      <trkpt lat="44.8462" lon="6.14464">
        <ele>1934</ele>
        <time>2020-07-21T22:58:07Z</time>
      </trkpt>
      <trkpt lat="44.84628" lon="6.14462">
        <ele>1937</ele>
        <time>2020-07-21T22:58:18Z</time>
      </trkpt>
      <trkpt lat="44.84632" lon="6.14455">
        <ele>1937</ele>
        <time>2020-07-21T22:58:26Z</time>
      </trkpt>
      <trkpt lat="44.84661" lon="6.1443">
        <ele>1942</ele>
        <time>2020-07-21T22:59:12Z</time>
      </trkpt>
      <trkpt lat="44.84704" lon="6.14427">
        <ele>1963</ele>
        <time>2020-07-21T23:00:09Z</time>
      </trkpt>
      <trkpt lat="44.84713" lon="6.14422">
        <ele>1966</ele>
        <time>2020-07-21T23:00:22Z</time>
      </trkpt>
      <trkpt lat="44.84715" lon="6.14404">
        <ele>1962</ele>
        <time>2020-07-21T23:00:39Z</time>
      </trkpt>
      <trkpt lat="44.84722" lon="6.14391">
        <ele>1962</ele>
        <time>2020-07-21T23:00:55Z</time>
      </trkpt>
      <trkpt lat="44.84731" lon="6.14386">
        <ele>1965</ele>
        <time>2020-07-21T23:01:07Z</time>
      </trkpt>
      <trkpt lat="44.8474" lon="6.14369">
        <ele>1965</ele>
        <time>2020-07-21T23:01:28Z</time>
      </trkpt>
      <trkpt lat="44.84753" lon="6.14326">
        <ele>1959</ele>
        <time>2020-07-21T23:02:12Z</time>
      </trkpt>
      <trkpt lat="44.84767" lon="6.14311">
        <ele>1965</ele>
        <time>2020-07-21T23:02:35Z</time>
      </trkpt>
      <trkpt lat="44.84769" lon="6.14298">
        <ele>1962</ele>
        <time>2020-07-21T23:02:48Z</time>
      </trkpt>
      <trkpt lat="44.84777" lon="6.1428">
        <ele>1962</ele>
        <time>2020-07-21T23:03:08Z</time>
      </trkpt>
      <trkpt lat="44.8479" lon="6.1426">
        <ele>1965</ele>
        <time>2020-07-21T23:03:34Z</time>
      </trkpt>
      <trkpt lat="44.84801" lon="6.14236">
        <ele>1967</ele>
        <time>2020-07-21T23:04:01Z</time>
      </trkpt>
      <trkpt lat="44.84809" lon="6.14227">
        <ele>1971</ele>
        <time>2020-07-21T23:04:14Z</time>
      </trkpt>
      <trkpt lat="44.84815" lon="6.14199">
        <ele>1970</ele>
        <time>2020-07-21T23:04:42Z</time>
      </trkpt>
      <trkpt lat="44.84821" lon="6.14196">
        <ele>1974</ele>
        <time>2020-07-21T23:04:50Z</time>
      </trkpt>
      <trkpt lat="44.8483" lon="6.14179">
        <ele>1978</ele>
        <time>2020-07-21T23:05:11Z</time>
      </trkpt>
      <trkpt lat="44.8484" lon="6.14115">
        <ele>1972</ele>
        <time>2020-07-21T23:06:13Z</time>
      </trkpt>
      <trkpt lat="44.84857" lon="6.14067">
        <ele>1972</ele>
        <time>2020-07-21T23:07:03Z</time>
      </trkpt>
      <trkpt lat="44.84875" lon="6.14035">
        <ele>1975</ele>
        <time>2020-07-21T23:07:42Z</time>
      </trkpt>
      <trkpt lat="44.84893" lon="6.14006">
        <ele>1977</ele>
        <time>2020-07-21T23:08:18Z</time>
      </trkpt>
      <trkpt lat="44.84913" lon="6.1398">
        <ele>1983</ele>
        <time>2020-07-21T23:08:55Z</time>
      </trkpt>
      <trkpt lat="44.84931" lon="6.13967">
        <ele>1993</ele>
        <time>2020-07-21T23:09:22Z</time>
      </trkpt>
      <trkpt lat="44.84937" lon="6.13947">
        <ele>1993</ele>
        <time>2020-07-21T23:09:42Z</time>
      </trkpt>
      <trkpt lat="44.84948" lon="6.13928">
        <ele>1997</ele>
        <time>2020-07-21T23:10:05Z</time>
      </trkpt>
      <trkpt lat="44.84955" lon="6.13923">
        <ele>2001</ele>
        <time>2020-07-21T23:10:16Z</time>
      </trkpt>
      <trkpt lat="44.84954" lon="6.13961">
        <ele>2007</ele>
        <time>2020-07-21T23:10:52Z</time>
      </trkpt>
      <trkpt lat="44.84957" lon="6.13984">
        <ele>2014</ele>
        <time>2020-07-21T23:11:14Z</time>
      </trkpt>
      <trkpt lat="44.8495" lon="6.14003">
        <ele>2013</ele>
        <time>2020-07-21T23:11:34Z</time>
      </trkpt>
      <trkpt lat="44.84944" lon="6.14031">
        <ele>2021</ele>
        <time>2020-07-21T23:12:02Z</time>
      </trkpt>
      <trkpt lat="44.84931" lon="6.14064">
        <ele>2023</ele>
        <time>2020-07-21T23:12:38Z</time>
      </trkpt>
      <trkpt lat="44.84959" lon="6.14039">
        <ele>2037</ele>
        <time>2020-07-21T23:13:22Z</time>
      </trkpt>
      <trkpt lat="44.84976" lon="6.14014">
        <ele>2037</ele>
        <time>2020-07-21T23:13:55Z</time>
      </trkpt>
      <trkpt lat="44.85011" lon="6.13975">
        <ele>2049</ele>
        <time>2020-07-21T23:14:54Z</time>
      </trkpt>
      <trkpt lat="44.85037" lon="6.13941">
        <ele>2060</ele>
        <time>2020-07-21T23:15:41Z</time>
      </trkpt>
      <trkpt lat="44.85061" lon="6.13893">
        <ele>2068</ele>
        <time>2020-07-21T23:16:37Z</time>
      </trkpt>
      <trkpt lat="44.85064" lon="6.13872">
        <ele>2069</ele>
        <time>2020-07-21T23:16:57Z</time>
      </trkpt>
      <trkpt lat="44.85078" lon="6.13864">
        <ele>2077</ele>
        <time>2020-07-21T23:17:17Z</time>
      </trkpt>
      <trkpt lat="44.8509" lon="6.13843">
        <ele>2084</ele>
        <time>2020-07-21T23:17:43Z</time>
      </trkpt>
      <trkpt lat="44.85097" lon="6.13822">
        <ele>2087</ele>
        <time>2020-07-21T23:18:05Z</time>
      </trkpt>
      <trkpt lat="44.8509" lon="6.13826">
        <ele>2083</ele>
        <time>2020-07-21T23:18:15Z</time>
      </trkpt>
      <trkpt lat="44.85071" lon="6.13822">
        <ele>2070</ele>
        <time>2020-07-21T23:18:41Z</time>
      </trkpt>
      <trkpt lat="44.85065" lon="6.13808">
        <ele>2066</ele>
        <time>2020-07-21T23:18:56Z</time>
      </trkpt>
      <trkpt lat="44.85063" lon="6.13779">
        <ele>2063</ele>
        <time>2020-07-21T23:19:24Z</time>
      </trkpt>
      <trkpt lat="44.85062" lon="6.1374">
        <ele>2059</ele>
        <time>2020-07-21T23:20:01Z</time>
      </trkpt>
      <trkpt lat="44.8507" lon="6.13711">
        <ele>2058</ele>
        <time>2020-07-21T23:20:30Z</time>
      </trkpt>
      <trkpt lat="44.85056" lon="6.13734">
        <ele>2053</ele>
        <time>2020-07-21T23:20:59Z</time>
      </trkpt>
      <trkpt lat="44.85042" lon="6.13737">
        <ele>2043</ele>
        <time>2020-07-21T23:21:18Z</time>
      </trkpt>
      <trkpt lat="44.85063" lon="6.13701">
        <ele>2050</ele>
        <time>2020-07-21T23:22:02Z</time>
      </trkpt>
      <trkpt lat="44.85071" lon="6.13681">
        <ele>2052</ele>
        <time>2020-07-21T23:22:23Z</time>
      </trkpt>
      <trkpt lat="44.85074" lon="6.13644">
        <ele>2053</ele>
        <time>2020-07-21T23:22:59Z</time>
      </trkpt>
      <trkpt lat="44.85105" lon="6.13589">
        <ele>2078</ele>
        <time>2020-07-21T23:24:05Z</time>
      </trkpt>
      <trkpt lat="44.85078" lon="6.13583">
        <ele>2063</ele>
        <time>2020-07-21T23:24:42Z</time>
      </trkpt>
      <trkpt lat="44.85055" lon="6.1357">
        <ele>2055</ele>
        <time>2020-07-21T23:25:15Z</time>
      </trkpt>
      <trkpt lat="44.8504" lon="6.13539">
        <ele>2058</ele>
        <time>2020-07-21T23:25:50Z</time>
      </trkpt>
      <trkpt lat="44.85039" lon="6.13515">
        <ele>2067</ele>
        <time>2020-07-21T23:26:13Z</time>
      </trkpt>
      <trkpt lat="44.8503" lon="6.13501">
        <ele>2068</ele>
        <time>2020-07-21T23:26:31Z</time>
      </trkpt>
      <trkpt lat="44.85014" lon="6.13502">
        <ele>2062</ele>
        <time>2020-07-21T23:26:52Z</time>
      </trkpt>
      <trkpt lat="44.85001" lon="6.13495">
        <ele>2059</ele>
        <time>2020-07-21T23:27:11Z</time>
      </trkpt>
      <trkpt lat="44.84998" lon="6.13487">
        <ele>2059</ele>
        <time>2020-07-21T23:27:19Z</time>
      </trkpt>
      <trkpt lat="44.84992" lon="6.13483">
        <ele>2058</ele>
        <time>2020-07-21T23:27:28Z</time>
      </trkpt>
      <trkpt lat="44.8498" lon="6.13484">
        <ele>2052</ele>
        <time>2020-07-21T23:27:44Z</time>
      </trkpt>
      <trkpt lat="44.84973" lon="6.13478">
        <ele>2050</ele>
        <time>2020-07-21T23:27:55Z</time>
      </trkpt>
      <trkpt lat="44.84972" lon="6.13464">
        <ele>2053</ele>
        <time>2020-07-21T23:28:09Z</time>
      </trkpt>
      <trkpt lat="44.84968" lon="6.13457">
        <ele>2053</ele>
        <time>2020-07-21T23:28:17Z</time>
      </trkpt>
      <trkpt lat="44.84965" lon="6.13445">
        <ele>2055</ele>
        <time>2020-07-21T23:28:29Z</time>
      </trkpt>
      <trkpt lat="44.84967" lon="6.13432">
        <ele>2059</ele>
        <time>2020-07-21T23:28:42Z</time>
      </trkpt>
      <trkpt lat="44.84965" lon="6.13428">
        <ele>2059</ele>
        <time>2020-07-21T23:28:46Z</time>
      </trkpt>
      <trkpt lat="44.84945" lon="6.13421">
        <ele>2051</ele>
        <time>2020-07-21T23:29:14Z</time>
      </trkpt>
      <trkpt lat="44.84941" lon="6.13415">
        <ele>2051</ele>
        <time>2020-07-21T23:29:22Z</time>
      </trkpt>
      <trkpt lat="44.84938" lon="6.13402">
        <ele>2052</ele>
        <time>2020-07-21T23:29:34Z</time>
      </trkpt>
      <trkpt lat="44.84922" lon="6.13373">
        <ele>2048</ele>
        <time>2020-07-21T23:30:09Z</time>
      </trkpt>
      <trkpt lat="44.84909" lon="6.13358">
        <ele>2042</ele>
        <time>2020-07-21T23:30:32Z</time>
      </trkpt>
      <trkpt lat="44.84906" lon="6.13331">
        <ele>2044</ele>
        <time>2020-07-21T23:30:58Z</time>
      </trkpt>
      <trkpt lat="44.84898" lon="6.133">
        <ele>2045</ele>
        <time>2020-07-21T23:31:29Z</time>
      </trkpt>
      <trkpt lat="44.84877" lon="6.13275">
        <ele>2037</ele>
        <time>2020-07-21T23:32:05Z</time>
      </trkpt>
      <trkpt lat="44.84868" lon="6.13256">
        <ele>2035</ele>
        <time>2020-07-21T23:32:27Z</time>
      </trkpt>
      <trkpt lat="44.84853" lon="6.13241">
        <ele>2031</ele>
        <time>2020-07-21T23:32:52Z</time>
      </trkpt>
      <trkpt lat="44.84841" lon="6.13234">
        <ele>2026</ele>
        <time>2020-07-21T23:33:09Z</time>
      </trkpt>
      <trkpt lat="44.84823" lon="6.132">
        <ele>2025</ele>
        <time>2020-07-21T23:33:49Z</time>
      </trkpt>
      <trkpt lat="44.84801" lon="6.13126">
        <ele>2031</ele>
        <time>2020-07-21T23:35:05Z</time>
      </trkpt>
      <trkpt lat="44.84802" lon="6.13088">
        <ele>2041</ele>
        <time>2020-07-21T23:35:41Z</time>
      </trkpt>
      <trkpt lat="44.84785" lon="6.13025">
        <ele>2050</ele>
        <time>2020-07-21T23:36:45Z</time>
      </trkpt>
      <trkpt lat="44.84771" lon="6.12996">
        <ele>2048</ele>
        <time>2020-07-21T23:37:18Z</time>
      </trkpt>
      <trkpt lat="44.84766" lon="6.12969">
        <ele>2044</ele>
        <time>2020-07-21T23:37:44Z</time>
      </trkpt>
      <trkpt lat="44.84761" lon="6.12863">
        <ele>2048</ele>
        <time>2020-07-21T23:39:25Z</time>
      </trkpt>
      <trkpt lat="44.84757" lon="6.12837">
        <ele>2048</ele>
        <time>2020-07-21T23:39:50Z</time>
      </trkpt>
      <trkpt lat="44.84724" lon="6.12743">
        <ele>2051</ele>
        <time>2020-07-21T23:41:29Z</time>
      </trkpt>
      <trkpt lat="44.84715" lon="6.12704">
        <ele>2053</ele>
        <time>2020-07-21T23:42:08Z</time>
      </trkpt>
      <trkpt lat="44.84712" lon="6.12665">
        <ele>2059</ele>
        <time>2020-07-21T23:42:45Z</time>
      </trkpt>
      <trkpt lat="44.84714" lon="6.12612">
        <ele>2065</ele>
        <time>2020-07-21T23:43:35Z</time>
      </trkpt>
      <trkpt lat="44.84709" lon="6.12581">
        <ele>2067</ele>
        <time>2020-07-21T23:44:05Z</time>
      </trkpt>
      <trkpt lat="44.84696" lon="6.12539">
        <ele>2070</ele>
        <time>2020-07-21T23:44:49Z</time>
      </trkpt>
      <trkpt lat="44.8468" lon="6.12518">
        <ele>2069</ele>
        <time>2020-07-21T23:45:18Z</time>
      </trkpt>
      <trkpt lat="44.84633" lon="6.12482">
        <ele>2067</ele>
        <time>2020-07-21T23:46:29Z</time>
      </trkpt>
      <trkpt lat="44.84627" lon="6.12455">
        <ele>2070</ele>
        <time>2020-07-21T23:46:56Z</time>
      </trkpt>
      <trkpt lat="44.84612" lon="6.12415">
        <ele>2074</ele>
        <time>2020-07-21T23:47:39Z</time>
      </trkpt>
      <trkpt lat="44.84599" lon="6.12376">
        <ele>2079</ele>
        <time>2020-07-21T23:48:20Z</time>
      </trkpt>
      <trkpt lat="44.84603" lon="6.12319">
        <ele>2093</ele>
        <time>2020-07-21T23:49:14Z</time>
      </trkpt>
      <trkpt lat="44.84536" lon="6.12316">
        <ele>2111</ele>
        <time>2020-07-21T23:50:43Z</time>
      </trkpt>
      <trkpt lat="44.84524" lon="6.1233">
        <ele>2108</ele>
        <time>2020-07-21T23:51:04Z</time>
      </trkpt>
      <trkpt lat="44.84474" lon="6.12377">
        <ele>2112</ele>
        <time>2020-07-21T23:52:24Z</time>
      </trkpt>
      <trkpt lat="44.8441" lon="6.12443">
        <ele>2124</ele>
        <time>2020-07-21T23:54:10Z</time>
      </trkpt>
      <trkpt lat="44.84422" lon="6.12406">
        <ele>2135</ele>
        <time>2020-07-21T23:54:49Z</time>
      </trkpt>
      <trkpt lat="44.84433" lon="6.12376">
        <ele>2142</ele>
        <time>2020-07-21T23:55:21Z</time>
      </trkpt>
      <trkpt lat="44.84398" lon="6.12415">
        <ele>2145</ele>
        <time>2020-07-21T23:56:20Z</time>
      </trkpt>
      <trkpt lat="44.84412" lon="6.12362">
        <ele>2164</ele>
        <time>2020-07-21T23:57:14Z</time>
      </trkpt>
      <trkpt lat="44.84399" lon="6.1238">
        <ele>2161</ele>
        <time>2020-07-21T23:57:38Z</time>
      </trkpt>
      <trkpt lat="44.84387" lon="6.12387">
        <ele>2164</ele>
        <time>2020-07-21T23:57:55Z</time>
      </trkpt>
      <trkpt lat="44.84377" lon="6.12377">
        <ele>2174</ele>
        <time>2020-07-21T23:58:12Z</time>
      </trkpt>
      <trkpt lat="44.84387" lon="6.12366">
        <ele>2174</ele>
        <time>2020-07-21T23:58:29Z</time>
      </trkpt>
      <trkpt lat="44.84379" lon="6.12365">
        <ele>2179</ele>
        <time>2020-07-21T23:58:39Z</time>
      </trkpt>
      <trkpt lat="44.84385" lon="6.12349">
        <ele>2183</ele>
        <time>2020-07-21T23:58:56Z</time>
      </trkpt>
      <trkpt lat="44.84367" lon="6.1234">
        <ele>2195</ele>
        <time>2020-07-21T23:59:22Z</time>
      </trkpt>
      <trkpt lat="44.84416" lon="6.12318">
        <ele>2182</ele>
        <time>2020-07-21T00:00:30Z</time>
      </trkpt>
      <trkpt lat="44.84379" lon="6.12315">
        <ele>2199</ele>
        <time>2020-07-21T00:01:20Z</time>
      </trkpt>
      <trkpt lat="44.84389" lon="6.12295">
        <ele>2201</ele>
        <time>2020-07-21T00:01:43Z</time>
      </trkpt>
      <trkpt lat="44.84419" lon="6.12286">
        <ele>2191</ele>
        <time>2020-07-21T00:02:24Z</time>
      </trkpt>
      <trkpt lat="44.84351" lon="6.12246">
        <ele>2234</ele>
        <time>2020-07-21T00:04:02Z</time>
      </trkpt>
      <trkpt lat="44.84362" lon="6.12233">
        <ele>2232</ele>
        <time>2020-07-21T00:04:21Z</time>
      </trkpt>
      <trkpt lat="44.8437" lon="6.12177">
        <ele>2242</ele>
        <time>2020-07-21T00:05:16Z</time>
      </trkpt>
      <trkpt lat="44.84406" lon="6.1217">
        <ele>2234</ele>
        <time>2020-07-21T00:06:04Z</time>
      </trkpt>
      <trkpt lat="44.84428" lon="6.12191">
        <ele>2220</ele>
        <time>2020-07-21T00:06:39Z</time>
      </trkpt>
      <trkpt lat="44.84415" lon="6.12167">
        <ele>2232</ele>
        <time>2020-07-21T00:07:08Z</time>
      </trkpt>
      <trkpt lat="44.84405" lon="6.1213">
        <ele>2246</ele>
        <time>2020-07-21T00:07:46Z</time>
      </trkpt>
      <trkpt lat="44.84394" lon="6.1212">
        <ele>2252</ele>
        <time>2020-07-21T00:08:03Z</time>
      </trkpt>
      <trkpt lat="44.84379" lon="6.12109">
        <ele>2260</ele>
        <time>2020-07-21T00:08:26Z</time>
      </trkpt>
      <trkpt lat="44.84376" lon="6.12088">
        <ele>2268</ele>
        <time>2020-07-21T00:08:46Z</time>
      </trkpt>
      <trkpt lat="44.8438" lon="6.12062">
        <ele>2281</ele>
        <time>2020-07-21T00:09:11Z</time>
      </trkpt>
      <trkpt lat="44.84399" lon="6.12052">
        <ele>2279</ele>
        <time>2020-07-21T00:09:38Z</time>
      </trkpt>
      <trkpt lat="44.84419" lon="6.12049">
        <ele>2272</ele>
        <time>2020-07-21T00:10:05Z</time>
      </trkpt>
      <trkpt lat="44.84449" lon="6.12038">
        <ele>2269</ele>
        <time>2020-07-21T00:10:46Z</time>
      </trkpt>
      <trkpt lat="44.84491" lon="6.11995">
        <ele>2275</ele>
        <time>2020-07-21T00:11:56Z</time>
      </trkpt>
      <trkpt lat="44.84506" lon="6.11987">
        <ele>2277</ele>
        <time>2020-07-21T00:12:17Z</time>
      </trkpt>
      <trkpt lat="44.84523" lon="6.11974">
        <ele>2284</ele>
        <time>2020-07-21T00:12:43Z</time>
      </trkpt>
      <trkpt lat="44.84554" lon="6.11979">
        <ele>2282</ele>
        <time>2020-07-21T00:13:24Z</time>
      </trkpt>
      <trkpt lat="44.84563" lon="6.11983">
        <ele>2280</ele>
        <time>2020-07-21T00:13:37Z</time>
      </trkpt>
      <trkpt lat="44.8458" lon="6.11998">
        <ele>2274</ele>
        <time>2020-07-21T00:14:04Z</time>
      </trkpt>
      <trkpt lat="44.84609" lon="6.12002">
        <ele>2273</ele>
        <time>2020-07-21T00:14:43Z</time>
      </trkpt>
      <trkpt lat="44.84601" lon="6.11988">
        <ele>2279</ele>
        <time>2020-07-21T00:15:00Z</time>
      </trkpt>
      <trkpt lat="44.84587" lon="6.11974">
        <ele>2285</ele>
        <time>2020-07-21T00:15:23Z</time>
      </trkpt>
      <trkpt lat="44.84596" lon="6.1197">
        <ele>2287</ele>
        <time>2020-07-21T00:15:35Z</time>
      </trkpt>
      <trkpt lat="44.84615" lon="6.11966">
        <ele>2290</ele>
        <time>2020-07-21T00:16:01Z</time>
      </trkpt>
      <trkpt lat="44.84623" lon="6.11957">
        <ele>2295</ele>
        <time>2020-07-21T00:16:14Z</time>
      </trkpt>
      <trkpt lat="44.84654" lon="6.1194">
        <ele>2306</ele>
        <time>2020-07-21T00:16:59Z</time>
      </trkpt>
      <trkpt lat="44.84674" lon="6.11934">
        <ele>2311</ele>
        <time>2020-07-21T00:17:26Z</time>
      </trkpt>
      <trkpt lat="44.84703" lon="6.11932">
        <ele>2318</ele>
        <time>2020-07-21T00:18:05Z</time>
      </trkpt>
      <trkpt lat="44.8467" lon="6.11901">
        <ele>2325</ele>
        <time>2020-07-21T00:18:58Z</time>
      </trkpt>
      <trkpt lat="44.84621" lon="6.11902">
        <ele>2321</ele>
        <time>2020-07-21T00:20:03Z</time>
      </trkpt>
      <trkpt lat="44.84606" lon="6.11891">
        <ele>2324</ele>
        <time>2020-07-21T00:20:26Z</time>
      </trkpt>
      <trkpt lat="44.84566" lon="6.11856">
        <ele>2338</ele>
        <time>2020-07-21T00:21:28Z</time>
      </trkpt>
      <trkpt lat="44.84547" lon="6.11835">
        <ele>2347</ele>
        <time>2020-07-21T00:22:01Z</time>
      </trkpt>
      <trkpt lat="44.84532" lon="6.11824">
        <ele>2352</ele>
        <time>2020-07-21T00:22:23Z</time>
      </trkpt>
      <trkpt lat="44.84508" lon="6.11819">
        <ele>2354</ele>
        <time>2020-07-21T00:22:56Z</time>
      </trkpt>
      <trkpt lat="44.84462" lon="6.11829">
        <ele>2369</ele>
        <time>2020-07-21T00:23:58Z</time>
      </trkpt>
      <trkpt lat="44.84483" lon="6.11806">
        <ele>2368</ele>
        <time>2020-07-21T00:24:33Z</time>
      </trkpt>
      <trkpt lat="44.84515" lon="6.11774">
        <ele>2375</ele>
        <time>2020-07-21T00:25:26Z</time>
      </trkpt>
      <trkpt lat="44.8454" lon="6.11768">
        <ele>2378</ele>
        <time>2020-07-21T00:25:59Z</time>
      </trkpt>
      <trkpt lat="44.84556" lon="6.11767">
        <ele>2379</ele>
        <time>2020-07-21T00:26:21Z</time>
      </trkpt>
      <trkpt lat="44.84573" lon="6.11768">
        <ele>2378</ele>
        <time>2020-07-21T00:26:44Z</time>
      </trkpt>
      <trkpt lat="44.84591" lon="6.11774">
        <ele>2375</ele>
        <time>2020-07-21T00:27:08Z</time>
      </trkpt>
      <trkpt lat="44.84614" lon="6.11773">
        <ele>2376</ele>
        <time>2020-07-21T00:27:39Z</time>
      </trkpt>
      <trkpt lat="44.84626" lon="6.11765">
        <ele>2380</ele>
        <time>2020-07-21T00:27:57Z</time>
      </trkpt>
      <trkpt lat="44.84638" lon="6.11753">
        <ele>2386</ele>
        <time>2020-07-21T00:28:16Z</time>
      </trkpt>
      <trkpt lat="44.8465" lon="6.11735">
        <ele>2393</ele>
        <time>2020-07-21T00:28:40Z</time>
      </trkpt>
      <trkpt lat="44.84632" lon="6.11743">
        <ele>2390</ele>
        <time>2020-07-21T00:29:05Z</time>
      </trkpt>
      <trkpt lat="44.84619" lon="6.11758">
        <ele>2383</ele>
        <time>2020-07-21T00:29:27Z</time>
      </trkpt>
      <trkpt lat="44.84609" lon="6.11757">
        <ele>2383</ele>
        <time>2020-07-21T00:29:41Z</time>
      </trkpt>
      <trkpt lat="44.84599" lon="6.11744">
        <ele>2389</ele>
        <time>2020-07-21T00:29:59Z</time>
      </trkpt>
      <trkpt lat="44.84591" lon="6.11745">
        <ele>2388</ele>
        <time>2020-07-21T00:30:09Z</time>
      </trkpt>
      <trkpt lat="44.84555" lon="6.11718">
        <ele>2400</ele>
        <time>2020-07-21T00:31:04Z</time>
      </trkpt>
      <trkpt lat="44.84522" lon="6.11712">
        <ele>2404</ele>
        <time>2020-07-21T00:31:48Z</time>
      </trkpt>
      <trkpt lat="44.84514" lon="6.11705">
        <ele>2408</ele>
        <time>2020-07-21T00:32:01Z</time>
      </trkpt>
      <trkpt lat="44.84534" lon="6.11701">
        <ele>2408</ele>
        <time>2020-07-21T00:32:28Z</time>
      </trkpt>
      <trkpt lat="44.84547" lon="6.11693">
        <ele>2411</ele>
        <time>2020-07-21T00:32:47Z</time>
      </trkpt>
      <trkpt lat="44.84548" lon="6.11674">
        <ele>2419</ele>
        <time>2020-07-21T00:33:05Z</time>
      </trkpt>
      <trkpt lat="44.84552" lon="6.11649">
        <ele>2427</ele>
        <time>2020-07-21T00:33:29Z</time>
      </trkpt>
      <trkpt lat="44.84561" lon="6.1164">
        <ele>2428</ele>
        <time>2020-07-21T00:33:44Z</time>
      </trkpt>
      <trkpt lat="44.84591" lon="6.11602">
        <ele>2437</ele>
        <time>2020-07-21T00:34:38Z</time>
      </trkpt>
      <trkpt lat="44.84613" lon="6.11591">
        <ele>2443</ele>
        <time>2020-07-21T00:35:09Z</time>
      </trkpt>
      <trkpt lat="44.8463" lon="6.11587">
        <ele>2447</ele>
        <time>2020-07-21T00:35:32Z</time>
      </trkpt>
      <trkpt lat="44.8464" lon="6.1159">
        <ele>2447</ele>
        <time>2020-07-21T00:35:45Z</time>
      </trkpt>
      <trkpt lat="44.84668" lon="6.11606">
        <ele>2444</ele>
        <time>2020-07-21T00:36:26Z</time>
      </trkpt>
      <trkpt lat="44.84723" lon="6.11647">
        <ele>2454</ele>
        <time>2020-07-21T00:37:49Z</time>
      </trkpt>
      <trkpt lat="44.84751" lon="6.11656">
        <ele>2464</ele>
        <time>2020-07-21T00:38:27Z</time>
      </trkpt>
      <trkpt lat="44.84738" lon="6.11638">
        <ele>2467</ele>
        <time>2020-07-21T00:38:51Z</time>
      </trkpt>
      <trkpt lat="44.84729" lon="6.1162">
        <ele>2473</ele>
        <time>2020-07-21T00:39:12Z</time>
      </trkpt>
      <trkpt lat="44.84703" lon="6.11557">
        <ele>2485</ele>
        <time>2020-07-21T00:40:21Z</time>
      </trkpt>
      <trkpt lat="44.84693" lon="6.11537">
        <ele>2488</ele>
        <time>2020-07-21T00:40:44Z</time>
      </trkpt>
      <trkpt lat="44.84677" lon="6.11523">
        <ele>2489</ele>
        <time>2020-07-21T00:41:09Z</time>
      </trkpt>
      <trkpt lat="44.84663" lon="6.11503">
        <ele>2496</ele>
        <time>2020-07-21T00:41:36Z</time>
      </trkpt>
      <trkpt lat="44.84672" lon="6.115">
        <ele>2499</ele>
        <time>2020-07-21T00:41:48Z</time>
      </trkpt>
      <trkpt lat="44.84678" lon="6.11493">
        <ele>2499</ele>
        <time>2020-07-21T00:41:59Z</time>
      </trkpt>
      <trkpt lat="44.84685" lon="6.11489">
        <ele>2499</ele>
        <time>2020-07-21T00:42:09Z</time>
      </trkpt>
      <trkpt lat="44.8469" lon="6.11479">
        <ele>2498</ele>
        <time>2020-07-21T00:42:20Z</time>
      </trkpt>
      <trkpt lat="44.84688" lon="6.11462">
        <ele>2496</ele>
        <time>2020-07-21T00:42:37Z</time>
      </trkpt>
      <trkpt lat="44.84682" lon="6.11444">
        <ele>2495</ele>
        <time>2020-07-21T00:42:55Z</time>
      </trkpt>
      <trkpt lat="44.84689" lon="6.11438">
        <ele>2492</ele>
        <time>2020-07-21T00:43:06Z</time>
      </trkpt>
      <trkpt lat="44.84686" lon="6.11427">
        <ele>2492</ele>
        <time>2020-07-21T00:43:18Z</time>
      </trkpt>
      <trkpt lat="44.84689" lon="6.11396">
        <ele>2482</ele>
        <time>2020-07-21T00:43:47Z</time>
      </trkpt>
      <trkpt lat="44.84695" lon="6.11382">
        <ele>2473</ele>
        <time>2020-07-21T00:44:03Z</time>
      </trkpt>
      <trkpt lat="44.84699" lon="6.11367">
        <ele>2465</ele>
        <time>2020-07-21T00:44:18Z</time>
      </trkpt>
      <trkpt lat="44.84701" lon="6.11355">
        <ele>2459</ele>
        <time>2020-07-21T00:44:29Z</time>
      </trkpt>
      <trkpt lat="44.84718" lon="6.11339">
        <ele>2441</ele>
        <time>2020-07-21T00:44:57Z</time>
      </trkpt>
      <trkpt lat="44.84721" lon="6.11322">
        <ele>2435</ele>
        <time>2020-07-21T00:45:13Z</time>
      </trkpt>
      <trkpt lat="44.84736" lon="6.11338">
        <ele>2429</ele>
        <time>2020-07-21T00:45:38Z</time>
      </trkpt>
      <trkpt lat="44.84746" lon="6.11356">
        <ele>2431</ele>
        <time>2020-07-21T00:46:00Z</time>
      </trkpt>
      <trkpt lat="44.84763" lon="6.11364">
        <ele>2427</ele>
        <time>2020-07-21T00:46:24Z</time>
      </trkpt>
      <trkpt lat="44.84774" lon="6.11343">
        <ele>2410</ele>
        <time>2020-07-21T00:46:49Z</time>
      </trkpt>
      <trkpt lat="44.84776" lon="6.11324">
        <ele>2403</ele>
        <time>2020-07-21T00:47:07Z</time>
      </trkpt>
      <trkpt lat="44.84784" lon="6.11307">
        <ele>2396</ele>
        <time>2020-07-21T00:47:26Z</time>
      </trkpt>
      <trkpt lat="44.84791" lon="6.11284">
        <ele>2389</ele>
        <time>2020-07-21T00:47:50Z</time>
      </trkpt>
      <trkpt lat="44.84802" lon="6.11299">
        <ele>2386</ele>
        <time>2020-07-21T00:48:10Z</time>
      </trkpt>
      <trkpt lat="44.84805" lon="6.11279">
        <ele>2381</ele>
        <time>2020-07-21T00:48:30Z</time>
      </trkpt>
      <trkpt lat="44.84815" lon="6.11294">
        <ele>2378</ele>
        <time>2020-07-21T00:48:49Z</time>
      </trkpt>
      <trkpt lat="44.84816" lon="6.11276">
        <ele>2374</ele>
        <time>2020-07-21T00:49:06Z</time>
      </trkpt>
      <trkpt lat="44.84828" lon="6.11298">
        <ele>2372</ele>
        <time>2020-07-21T00:49:32Z</time>
      </trkpt>
      <trkpt lat="44.8483" lon="6.11275">
        <ele>2367</ele>
        <time>2020-07-21T00:49:54Z</time>
      </trkpt>
      <trkpt lat="44.84843" lon="6.11291">
        <ele>2363</ele>
        <time>2020-07-21T00:50:17Z</time>
      </trkpt>
      <trkpt lat="44.84844" lon="6.11271">
        <ele>2359</ele>
        <time>2020-07-21T00:50:36Z</time>
      </trkpt>
      <trkpt lat="44.84856" lon="6.11285">
        <ele>2356</ele>
        <time>2020-07-21T00:50:57Z</time>
      </trkpt>
      <trkpt lat="44.84858" lon="6.11268">
        <ele>2351</ele>
        <time>2020-07-21T00:51:13Z</time>
      </trkpt>
      <trkpt lat="44.84871" lon="6.11284">
        <ele>2348</ele>
        <time>2020-07-21T00:51:36Z</time>
      </trkpt>
      <trkpt lat="44.84872" lon="6.11255">
        <ele>2340</ele>
        <time>2020-07-21T00:52:04Z</time>
      </trkpt>
      <trkpt lat="44.84882" lon="6.11264">
        <ele>2337</ele>
        <time>2020-07-21T00:52:20Z</time>
      </trkpt>
      <trkpt lat="44.84885" lon="6.11239">
        <ele>2328</ele>
        <time>2020-07-21T00:52:44Z</time>
      </trkpt>
      <trkpt lat="44.84894" lon="6.1125">
        <ele>2327</ele>
        <time>2020-07-21T00:53:00Z</time>
      </trkpt>
      <trkpt lat="44.84895" lon="6.1123">
        <ele>2319</ele>
        <time>2020-07-21T00:53:19Z</time>
      </trkpt>
      <trkpt lat="44.84905" lon="6.11238">
        <ele>2316</ele>
        <time>2020-07-21T00:53:34Z</time>
      </trkpt>
      <trkpt lat="44.84906" lon="6.11228">
        <ele>2311</ele>
        <time>2020-07-21T00:53:43Z</time>
      </trkpt>
      <trkpt lat="44.84904" lon="6.11214">
        <ele>2307</ele>
        <time>2020-07-21T00:53:57Z</time>
      </trkpt>
      <trkpt lat="44.8492" lon="6.11221">
        <ele>2301</ele>
        <time>2020-07-21T00:54:19Z</time>
      </trkpt>
      <trkpt lat="44.84923" lon="6.11208">
        <ele>2295</ele>
        <time>2020-07-21T00:54:32Z</time>
      </trkpt>
      <trkpt lat="44.84927" lon="6.11202">
        <ele>2292</ele>
        <time>2020-07-21T00:54:40Z</time>
      </trkpt>
      <trkpt lat="44.84932" lon="6.11208">
        <ele>2294</ele>
        <time>2020-07-21T00:54:49Z</time>
      </trkpt>
      <trkpt lat="44.84936" lon="6.11195">
        <ele>2287</ele>
        <time>2020-07-21T00:55:02Z</time>
      </trkpt>
      <trkpt lat="44.84978" lon="6.11186">
        <ele>2275</ele>
        <time>2020-07-21T00:55:59Z</time>
      </trkpt>
      <trkpt lat="44.84987" lon="6.11181">
        <ele>2271</ele>
        <time>2020-07-21T00:56:12Z</time>
      </trkpt>
      <trkpt lat="44.84998" lon="6.11166">
        <ele>2260</ele>
        <time>2020-07-21T00:56:32Z</time>
      </trkpt>
      <trkpt lat="44.85006" lon="6.11148">
        <ele>2251</ele>
        <time>2020-07-21T00:56:52Z</time>
      </trkpt>
      <trkpt lat="44.85023" lon="6.11133">
        <ele>2243</ele>
        <time>2020-07-21T00:57:19Z</time>
      </trkpt>
      <trkpt lat="44.85044" lon="6.11123">
        <ele>2236</ele>
        <time>2020-07-21T00:57:49Z</time>
      </trkpt>
      <trkpt lat="44.85037" lon="6.11108">
        <ele>2229</ele>
        <time>2020-07-21T00:58:06Z</time>
      </trkpt>
      <trkpt lat="44.85048" lon="6.11105">
        <ele>2226</ele>
        <time>2020-07-21T00:58:21Z</time>
      </trkpt>
      <trkpt lat="44.85042" lon="6.11091">
        <ele>2219</ele>
        <time>2020-07-21T00:58:36Z</time>
      </trkpt>
      <trkpt lat="44.8505" lon="6.11085">
        <ele>2215</ele>
        <time>2020-07-21T00:58:48Z</time>
      </trkpt>
      <trkpt lat="44.85041" lon="6.11073">
        <ele>2209</ele>
        <time>2020-07-21T00:59:05Z</time>
      </trkpt>
      <trkpt lat="44.85053" lon="6.11068">
        <ele>2205</ele>
        <time>2020-07-21T00:59:21Z</time>
      </trkpt>
      <trkpt lat="44.85063" lon="6.11066">
        <ele>2202</ele>
        <time>2020-07-21T00:59:35Z</time>
      </trkpt>
      <trkpt lat="44.85065" lon="6.11081">
        <ele>2210</ele>
        <time>2020-07-21T00:59:49Z</time>
      </trkpt>
      <trkpt lat="44.8507" lon="6.11069">
        <ele>2202</ele>
        <time>2020-07-21T01:00:02Z</time>
      </trkpt>
      <trkpt lat="44.85068" lon="6.11056">
        <ele>2196</ele>
        <time>2020-07-21T01:00:15Z</time>
      </trkpt>
      <trkpt lat="44.85074" lon="6.11057">
        <ele>2195</ele>
        <time>2020-07-21T01:00:23Z</time>
      </trkpt>
      <trkpt lat="44.85079" lon="6.11071">
        <ele>2202</ele>
        <time>2020-07-21T01:00:38Z</time>
      </trkpt>
      <trkpt lat="44.85087" lon="6.11065">
        <ele>2198</ele>
        <time>2020-07-21T01:00:50Z</time>
      </trkpt>
      <trkpt lat="44.8509" lon="6.11077">
        <ele>2204</ele>
        <time>2020-07-21T01:01:02Z</time>
      </trkpt>
      <trkpt lat="44.851" lon="6.1108">
        <ele>2205</ele>
        <time>2020-07-21T01:01:16Z</time>
      </trkpt>
      <trkpt lat="44.8511" lon="6.11056">
        <ele>2193</ele>
        <time>2020-07-21T01:01:42Z</time>
      </trkpt>
      <trkpt lat="44.85119" lon="6.11053">
        <ele>2192</ele>
        <time>2020-07-21T01:01:54Z</time>
      </trkpt>
      <trkpt lat="44.85131" lon="6.11031">
        <ele>2181</ele>
        <time>2020-07-21T01:02:21Z</time>
      </trkpt>
      <trkpt lat="44.85146" lon="6.10989">
        <ele>2164</ele>
        <time>2020-07-21T01:03:05Z</time>
      </trkpt>
      <trkpt lat="44.85189" lon="6.10899">
        <ele>2130</ele>
        <time>2020-07-21T01:04:48Z</time>
      </trkpt>
      <trkpt lat="44.85195" lon="6.10913">
        <ele>2137</ele>
        <time>2020-07-21T01:05:03Z</time>
      </trkpt>
      <trkpt lat="44.85199" lon="6.10906">
        <ele>2134</ele>
        <time>2020-07-21T01:05:12Z</time>
      </trkpt>
      <trkpt lat="44.85202" lon="6.10911">
        <ele>2137</ele>
        <time>2020-07-21T01:05:18Z</time>
      </trkpt>
      <trkpt lat="44.85218" lon="6.10912">
        <ele>2137</ele>
        <time>2020-07-21T01:05:39Z</time>
      </trkpt>
      <trkpt lat="44.85236" lon="6.10909">
        <ele>2136</ele>
        <time>2020-07-21T01:06:04Z</time>
      </trkpt>
      <trkpt lat="44.85245" lon="6.1091">
        <ele>2137</ele>
        <time>2020-07-21T01:06:16Z</time>
      </trkpt>
      <trkpt lat="44.8526" lon="6.10903">
        <ele>2133</ele>
        <time>2020-07-21T01:06:37Z</time>
      </trkpt>
      <trkpt lat="44.85275" lon="6.10901">
        <ele>2130</ele>
        <time>2020-07-21T01:06:57Z</time>
      </trkpt>
      <trkpt lat="44.85287" lon="6.10888">
        <ele>2122</ele>
        <time>2020-07-21T01:07:17Z</time>
      </trkpt>
      <trkpt lat="44.85299" lon="6.10878">
        <ele>2115</ele>
        <time>2020-07-21T01:07:36Z</time>
      </trkpt>
      <trkpt lat="44.85313" lon="6.10873">
        <ele>2110</ele>
        <time>2020-07-21T01:07:55Z</time>
      </trkpt>
      <trkpt lat="44.85324" lon="6.10866">
        <ele>2104</ele>
        <time>2020-07-21T01:08:11Z</time>
      </trkpt>
      <trkpt lat="44.85334" lon="6.10868">
        <ele>2103</ele>
        <time>2020-07-21T01:08:24Z</time>
      </trkpt>
      <trkpt lat="44.85336" lon="6.1088">
        <ele>2110</ele>
        <time>2020-07-21T01:08:36Z</time>
      </trkpt>
      <trkpt lat="44.85348" lon="6.10892">
        <ele>2115</ele>
        <time>2020-07-21T01:08:56Z</time>
      </trkpt>
      <trkpt lat="44.85362" lon="6.10896">
        <ele>2114</ele>
        <time>2020-07-21T01:09:15Z</time>
      </trkpt>
      <trkpt lat="44.85373" lon="6.10892">
        <ele>2109</ele>
        <time>2020-07-21T01:09:30Z</time>
      </trkpt>
      <trkpt lat="44.85388" lon="6.1089">
        <ele>2105</ele>
        <time>2020-07-21T01:09:50Z</time>
      </trkpt>
      <trkpt lat="44.85402" lon="6.10868">
        <ele>2091</ele>
        <time>2020-07-21T01:10:18Z</time>
      </trkpt>
      <trkpt lat="44.85419" lon="6.10861">
        <ele>2086</ele>
        <time>2020-07-21T01:10:42Z</time>
      </trkpt>
      <trkpt lat="44.85442" lon="6.10846">
        <ele>2080</ele>
        <time>2020-07-21T01:11:15Z</time>
      </trkpt>
      <trkpt lat="44.85465" lon="6.10835">
        <ele>2074</ele>
        <time>2020-07-21T01:11:48Z</time>
      </trkpt>
      <trkpt lat="44.85481" lon="6.10816">
        <ele>2063</ele>
        <time>2020-07-21T01:12:16Z</time>
      </trkpt>
      <trkpt lat="44.855" lon="6.10811">
        <ele>2060</ele>
        <time>2020-07-21T01:12:42Z</time>
      </trkpt>
      <trkpt lat="44.85548" lon="6.1079">
        <ele>2060</ele>
        <time>2020-07-21T01:13:49Z</time>
      </trkpt>
      <trkpt lat="44.85568" lon="6.10774">
        <ele>2051</ele>
        <time>2020-07-21T01:14:19Z</time>
      </trkpt>
      <trkpt lat="44.85588" lon="6.10766">
        <ele>2044</ele>
        <time>2020-07-21T01:14:47Z</time>
      </trkpt>
      <trkpt lat="44.85618" lon="6.1076">
        <ele>2029</ele>
        <time>2020-07-21T01:15:28Z</time>
      </trkpt>
      <trkpt lat="44.85641" lon="6.10749">
        <ele>2013</ele>
        <time>2020-07-21T01:16:00Z</time>
      </trkpt>
      <trkpt lat="44.8567" lon="6.10744">
        <ele>2003</ele>
        <time>2020-07-21T01:16:39Z</time>
      </trkpt>
      <trkpt lat="44.85722" lon="6.10756">
        <ele>1994</ele>
        <time>2020-07-21T01:17:49Z</time>
      </trkpt>
      <trkpt lat="44.85795" lon="6.10757">
        <ele>1976</ele>
        <time>2020-07-21T01:19:27Z</time>
      </trkpt>
      <trkpt lat="44.8585" lon="6.10755">
        <ele>1972</ele>
        <time>2020-07-21T01:20:40Z</time>
      </trkpt>
      <trkpt lat="44.85874" lon="6.10743">
        <ele>1973</ele>
        <time>2020-07-21T01:21:14Z</time>
      </trkpt>
      <trkpt lat="44.85893" lon="6.1073">
        <ele>1971</ele>
        <time>2020-07-21T01:21:42Z</time>
      </trkpt>
      <trkpt lat="44.8591" lon="6.10715">
        <ele>1967</ele>
        <time>2020-07-21T01:22:09Z</time>
      </trkpt>
      <trkpt lat="44.8593" lon="6.10707">
        <ele>1959</ele>
        <time>2020-07-21T01:22:37Z</time>
      </trkpt>
      <trkpt lat="44.85956" lon="6.10703">
        <ele>1949</ele>
        <time>2020-07-21T01:23:12Z</time>
      </trkpt>
      <trkpt lat="44.8598" lon="6.1071">
        <ele>1946</ele>
        <time>2020-07-21T01:23:44Z</time>
      </trkpt>
      <trkpt lat="44.85997" lon="6.10719">
        <ele>1946</ele>
        <time>2020-07-21T01:24:09Z</time>
      </trkpt>
      <trkpt lat="44.86018" lon="6.10728">
        <ele>1947</ele>
        <time>2020-07-21T01:24:38Z</time>
      </trkpt>
      <trkpt lat="44.86053" lon="6.10718">
        <ele>1933</ele>
        <time>2020-07-21T01:25:26Z</time>
      </trkpt>
      <trkpt lat="44.86065" lon="6.10705">
        <ele>1924</ele>
        <time>2020-07-21T01:25:46Z</time>
      </trkpt>
      <trkpt lat="44.86078" lon="6.10688">
        <ele>1912</ele>
        <time>2020-07-21T01:26:09Z</time>
      </trkpt>
      <trkpt lat="44.86092" lon="6.10681">
        <ele>1904</ele>
        <time>2020-07-21T01:26:29Z</time>
      </trkpt>
      <trkpt lat="44.86113" lon="6.10678">
        <ele>1893</ele>
        <time>2020-07-21T01:26:57Z</time>
      </trkpt>
      <trkpt lat="44.86166" lon="6.1071">
        <ele>1899</ele>
        <time>2020-07-21T01:28:14Z</time>
      </trkpt>
      <trkpt lat="44.86173" lon="6.10715">
        <ele>1903</ele>
        <time>2020-07-21T01:28:25Z</time>
      </trkpt>
      <trkpt lat="44.86197" lon="6.10722">
        <ele>1906</ele>
        <time>2020-07-21T01:28:57Z</time>
      </trkpt>
      <trkpt lat="44.8622" lon="6.10727">
        <ele>1906</ele>
        <time>2020-07-21T01:29:29Z</time>
      </trkpt>
      <trkpt lat="44.86236" lon="6.10723">
        <ele>1901</ele>
        <time>2020-07-21T01:29:50Z</time>
      </trkpt>
      <trkpt lat="44.86272" lon="6.1071">
        <ele>1893</ele>
        <time>2020-07-21T01:30:40Z</time>
      </trkpt>
      <trkpt lat="44.86311" lon="6.10713">
        <ele>1896</ele>
        <time>2020-07-21T01:31:32Z</time>
      </trkpt>
      <trkpt lat="44.86333" lon="6.10693">
        <ele>1890</ele>
        <time>2020-07-21T01:32:07Z</time>
      </trkpt>
      <trkpt lat="44.86357" lon="6.10686">
        <ele>1891</ele>
        <time>2020-07-21T01:32:40Z</time>
      </trkpt>
      <trkpt lat="44.86405" lon="6.10611">
        <ele>1878</ele>
        <time>2020-07-21T01:34:15Z</time>
      </trkpt>
      <trkpt lat="44.86456" lon="6.10504">
        <ele>1860</ele>
        <time>2020-07-21T01:36:17Z</time>
      </trkpt>
      <trkpt lat="44.86476" lon="6.10428">
        <ele>1838</ele>
        <time>2020-07-21T01:37:34Z</time>
      </trkpt>
      <trkpt lat="44.86462" lon="6.10376">
        <ele>1816</ele>
        <time>2020-07-21T01:38:26Z</time>
      </trkpt>
      <trkpt lat="44.8646" lon="6.10362">
        <ele>1809</ele>
        <time>2020-07-21T01:38:40Z</time>
      </trkpt>
      <trkpt lat="44.86465" lon="6.10353">
        <ele>1804</ele>
        <time>2020-07-21T01:38:51Z</time>
      </trkpt>
      <trkpt lat="44.86408" lon="6.10355">
        <ele>1804</ele>
        <time>2020-07-21T01:40:07Z</time>
      </trkpt>
      <trkpt lat="44.86427" lon="6.10311">
        <ele>1783</ele>
        <time>2020-07-21T01:40:56Z</time>
      </trkpt>
      <trkpt lat="44.86395" lon="6.10291">
        <ele>1763</ele>
        <time>2020-07-21T01:41:42Z</time>
      </trkpt>
      <trkpt lat="44.86377" lon="6.10308">
        <ele>1765</ele>
        <time>2020-07-21T01:42:11Z</time>
      </trkpt>
      <trkpt lat="44.86356" lon="6.10315">
        <ele>1759</ele>
        <time>2020-07-21T01:42:40Z</time>
      </trkpt>
      <trkpt lat="44.86351" lon="6.10291">
        <ele>1744</ele>
        <time>2020-07-21T01:43:04Z</time>
      </trkpt>
      <trkpt lat="44.86357" lon="6.1027">
        <ele>1736</ele>
        <time>2020-07-21T01:43:25Z</time>
      </trkpt>
      <trkpt lat="44.86348" lon="6.1028">
        <ele>1737</ele>
        <time>2020-07-21T01:43:40Z</time>
      </trkpt>
      <trkpt lat="44.86317" lon="6.1029">
        <ele>1730</ele>
        <time>2020-07-21T01:44:23Z</time>
      </trkpt>
      <trkpt lat="44.8632" lon="6.10269">
        <ele>1720</ele>
        <time>2020-07-21T01:44:43Z</time>
      </trkpt>
      <trkpt lat="44.86281" lon="6.10299">
        <ele>1718</ele>
        <time>2020-07-21T01:45:42Z</time>
      </trkpt>
      <trkpt lat="44.86267" lon="6.10301">
        <ele>1713</ele>
        <time>2020-07-21T01:46:01Z</time>
      </trkpt>
      <trkpt lat="44.86282" lon="6.10246">
        <ele>1693</ele>
        <time>2020-07-21T01:46:57Z</time>
      </trkpt>
      <trkpt lat="44.86265" lon="6.10247">
        <ele>1687</ele>
        <time>2020-07-21T01:47:19Z</time>
      </trkpt>
      <trkpt lat="44.86271" lon="6.1023">
        <ele>1681</ele>
        <time>2020-07-21T01:47:37Z</time>
      </trkpt>
      <trkpt lat="44.8625" lon="6.10226">
        <ele>1671</ele>
        <time>2020-07-21T01:48:06Z</time>
      </trkpt>
      <trkpt lat="44.8626" lon="6.10203">
        <ele>1664</ele>
        <time>2020-07-21T01:48:31Z</time>
      </trkpt>
      <trkpt lat="44.86232" lon="6.10211">
        <ele>1659</ele>
        <time>2020-07-21T01:49:09Z</time>
      </trkpt>
      <trkpt lat="44.86236" lon="6.10182">
        <ele>1646</ele>
        <time>2020-07-21T01:49:37Z</time>
      </trkpt>
      <trkpt lat="44.86273" lon="6.10085">
        <ele>1611</ele>
        <time>2020-07-21T01:51:22Z</time>
      </trkpt>
      <trkpt lat="44.86262" lon="6.10082">
        <ele>1604</ele>
        <time>2020-07-21T01:51:36Z</time>
      </trkpt>
      <trkpt lat="44.86275" lon="6.10055">
        <ele>1595</ele>
        <time>2020-07-21T01:52:07Z</time>
      </trkpt>
      <trkpt lat="44.86272" lon="6.10046">
        <ele>1588</ele>
        <time>2020-07-21T01:52:17Z</time>
      </trkpt>
      <trkpt lat="44.86285" lon="6.10023">
        <ele>1581</ele>
        <time>2020-07-21T01:52:45Z</time>
      </trkpt>
      <trkpt lat="44.86277" lon="6.1002">
        <ele>1576</ele>
        <time>2020-07-21T01:52:56Z</time>
      </trkpt>
      <trkpt lat="44.86312" lon="6.09947">
        <ele>1551</ele>
        <time>2020-07-21T01:54:19Z</time>
      </trkpt>
      <trkpt lat="44.86296" lon="6.09947">
        <ele>1545</ele>
        <time>2020-07-21T01:54:40Z</time>
      </trkpt>
      <trkpt lat="44.86309" lon="6.09917">
        <ele>1535</ele>
        <time>2020-07-21T01:55:14Z</time>
      </trkpt>
      <trkpt lat="44.86346" lon="6.09871">
        <ele>1521</ele>
        <time>2020-07-21T01:56:19Z</time>
      </trkpt>
      <trkpt lat="44.8637" lon="6.09821">
        <ele>1497</ele>
        <time>2020-07-21T01:57:17Z</time>
      </trkpt>
      <trkpt lat="44.8645" lon="6.09719">
        <ele>1449</ele>
        <time>2020-07-21T01:59:40Z</time>
      </trkpt>
      <trkpt lat="44.86526" lon="6.09726">
        <ele>1425</ele>
        <time>2020-07-21T02:01:22Z</time>
      </trkpt>
      <trkpt lat="44.86534" lon="6.09719">
        <ele>1415</ele>
        <time>2020-07-21T02:01:35Z</time>
      </trkpt>
      <trkpt lat="44.86532" lon="6.09698">
        <ele>1405</ele>
        <time>2020-07-21T02:01:55Z</time>
      </trkpt>
      <trkpt lat="44.86538" lon="6.09688">
        <ele>1396</ele>
        <time>2020-07-21T02:02:07Z</time>
      </trkpt>
      <trkpt lat="44.86561" lon="6.09681">
        <ele>1377</ele>
        <time>2020-07-21T02:02:38Z</time>
      </trkpt>
      <trkpt lat="44.86578" lon="6.09693">
        <ele>1372</ele>
        <time>2020-07-21T02:03:04Z</time>
      </trkpt>
      <trkpt lat="44.86584" lon="6.09709">
        <ele>1376</ele>
        <time>2020-07-21T02:03:21Z</time>
      </trkpt>
      <trkpt lat="44.86608" lon="6.09747">
        <ele>1381</ele>
        <time>2020-07-21T02:04:09Z</time>
      </trkpt>
      <trkpt lat="44.86623" lon="6.09753">
        <ele>1375</ele>
        <time>2020-07-21T02:04:30Z</time>
      </trkpt>
      <trkpt lat="44.8667" lon="6.0976">
        <ele>1352</ele>
        <time>2020-07-21T02:05:33Z</time>
      </trkpt>
      <trkpt lat="44.867" lon="6.09769">
        <ele>1342</ele>
        <time>2020-07-21T02:06:14Z</time>
      </trkpt>
      <trkpt lat="44.8668" lon="6.09727">
        <ele>1337</ele>
        <time>2020-07-21T02:07:02Z</time>
      </trkpt>
      <trkpt lat="44.86636" lon="6.09677">
        <ele>1337</ele>
        <time>2020-07-21T02:08:17Z</time>
      </trkpt>
      <trkpt lat="44.86629" lon="6.09627">
        <ele>1329</ele>
        <time>2020-07-21T02:09:05Z</time>
      </trkpt>
      <trkpt lat="44.86634" lon="6.09591">
        <ele>1321</ele>
        <time>2020-07-21T02:09:40Z</time>
      </trkpt>
      <trkpt lat="44.86722" lon="6.0947">
        <ele>1289</ele>
        <time>2020-07-21T02:12:24Z</time>
      </trkpt>
      <trkpt lat="44.86745" lon="6.0946">
        <ele>1285</ele>
        <time>2020-07-21T02:12:56Z</time>
      </trkpt>
      <trkpt lat="44.8678" lon="6.09426">
        <ele>1277</ele>
        <time>2020-07-21T02:13:53Z</time>
      </trkpt>
      <trkpt lat="44.86805" lon="6.09386">
        <ele>1273</ele>
        <time>2020-07-21T02:14:43Z</time>
      </trkpt>
      <trkpt lat="44.86833" lon="6.0931">
        <ele>1270</ele>
        <time>2020-07-21T02:16:04Z</time>
      </trkpt>
      <trkpt lat="44.86838" lon="6.09296">
        <ele>1270</ele>
        <time>2020-07-21T02:16:19Z</time>
      </trkpt>
      <trkpt lat="44.86834" lon="6.09251">
        <ele>1266</ele>
        <time>2020-07-21T02:17:02Z</time>
      </trkpt>
      <trkpt lat="44.86841" lon="6.09232">
        <ele>1267</ele>
        <time>2020-07-21T02:17:22Z</time>
      </trkpt>
      <trkpt lat="44.86867" lon="6.09208">
        <ele>1271</ele>
        <time>2020-07-21T02:18:04Z</time>
      </trkpt>
      <trkpt lat="44.86872" lon="6.09222">
        <ele>1273</ele>
        <time>2020-07-21T02:18:19Z</time>
      </trkpt>
      <trkpt lat="44.86867" lon="6.09208">
        <ele>1271</ele>
        <time>2020-07-21T02:18:33Z</time>
      </trkpt>
      <trkpt lat="44.86859" lon="6.0918">
        <ele>1269</ele>
        <time>2020-07-21T02:19:02Z</time>
      </trkpt>
      <trkpt lat="44.86858" lon="6.09164">
        <ele>1269</ele>
        <time>2020-07-21T02:19:17Z</time>
      </trkpt>
      <trkpt lat="44.86863" lon="6.09125">
        <ele>1269</ele>
        <time>2020-07-21T02:19:55Z</time>
      </trkpt>
      <trkpt lat="44.86864" lon="6.09089">
        <ele>1268</ele>
        <time>2020-07-21T02:20:29Z</time>
      </trkpt>
      <trkpt lat="44.86873" lon="6.09042">
        <ele>1268</ele>
        <time>2020-07-21T02:21:15Z</time>
      </trkpt>
      <trkpt lat="44.86867" lon="6.09033">
        <ele>1266</ele>
        <time>2020-07-21T02:21:26Z</time>
      </trkpt>
      <trkpt lat="44.86862" lon="6.09018">
        <ele>1264</ele>
        <time>2020-07-21T02:21:42Z</time>
      </trkpt>
      <trkpt lat="44.86861" lon="6.09008">
        <ele>1264</ele>
        <time>2020-07-21T02:21:52Z</time>
      </trkpt>
      <trkpt lat="44.86867" lon="6.08956">
        <ele>1262</ele>
        <time>2020-07-21T02:22:41Z</time>
      </trkpt>
      <trkpt lat="44.86866" lon="6.08917">
        <ele>1261</ele>
        <time>2020-07-21T02:23:18Z</time>
      </trkpt>
      <trkpt lat="44.86873" lon="6.08917">
        <ele>1261</ele>
        <time>2020-07-21T02:23:28Z</time>
      </trkpt>
      <trkpt lat="44.8688" lon="6.08921">
        <ele>1262</ele>
        <time>2020-07-21T02:23:38Z</time>
      </trkpt>
      <trkpt lat="44.86886" lon="6.08928">
        <ele>1263</ele>
        <time>2020-07-21T02:23:48Z</time>
      </trkpt>
      <trkpt lat="44.86901" lon="6.08939">
        <ele>1266</ele>
        <time>2020-07-21T02:24:11Z</time>
      </trkpt>
      <trkpt lat="44.86927" lon="6.08903">
        <ele>1267</ele>
        <time>2020-07-21T02:24:59Z</time>
      </trkpt>
      <trkpt lat="44.86929" lon="6.08899">
        <ele>1267</ele>
        <time>2020-07-21T02:25:04Z</time>
      </trkpt>
      <trkpt lat="44.86927" lon="6.08903">
        <ele>1267</ele>
        <time>2020-07-21T02:25:09Z</time>
      </trkpt>
      <trkpt lat="44.86903" lon="6.08937">
        <ele>1266</ele>
        <time>2020-07-21T02:25:54Z</time>
      </trkpt>
      <trkpt lat="44.869" lon="6.08945">
        <ele>1266</ele>
        <time>2020-07-21T02:26:03Z</time>
      </trkpt>
      <trkpt lat="44.86897" lon="6.08951">
        <ele>1266</ele>
        <time>2020-07-21T02:26:09Z</time>
      </trkpt>
      <trkpt lat="44.86889" lon="6.08979">
        <ele>1267</ele>
        <time>2020-07-21T02:26:38Z</time>
      </trkpt>
      <trkpt lat="44.86888" lon="6.08997">
        <ele>1268</ele>
        <time>2020-07-21T02:26:55Z</time>
      </trkpt>
      <trkpt lat="44.86883" lon="6.09012">
        <ele>1268</ele>
        <time>2020-07-21T02:27:11Z</time>
      </trkpt>
      <trkpt lat="44.86875" lon="6.09036">
        <ele>1268</ele>
        <time>2020-07-21T02:27:36Z</time>
      </trkpt>
      <trkpt lat="44.86873" lon="6.09042">
        <ele>1268</ele>
        <time>2020-07-21T02:27:42Z</time>
      </trkpt>
      <trkpt lat="44.86864" lon="6.09089">
        <ele>1268</ele>
        <time>2020-07-21T02:28:28Z</time>
      </trkpt>
      <trkpt lat="44.86863" lon="6.09125">
        <ele>1269</ele>
        <time>2020-07-21T02:29:02Z</time>
      </trkpt>
      <trkpt lat="44.86858" lon="6.09164">
        <ele>1269</ele>
        <time>2020-07-21T02:29:40Z</time>
      </trkpt>
      <trkpt lat="44.86859" lon="6.0918">
        <ele>1269</ele>
        <time>2020-07-21T02:29:55Z</time>
      </trkpt>
      <trkpt lat="44.86864" lon="6.09199">
        <ele>1271</ele>
        <time>2020-07-21T02:30:14Z</time>
      </trkpt>
      <trkpt lat="44.86871" lon="6.09222">
        <ele>1272</ele>
        <time>2020-07-21T02:30:38Z</time>
      </trkpt>
      <trkpt lat="44.86874" lon="6.09227">
        <ele>1273</ele>
        <time>2020-07-21T02:30:44Z</time>
      </trkpt>
      <trkpt lat="44.86908" lon="6.09233">
        <ele>1279</ele>
        <time>2020-07-21T02:31:30Z</time>
      </trkpt>
      <trkpt lat="44.86932" lon="6.09231">
        <ele>1284</ele>
        <time>2020-07-21T02:32:02Z</time>
      </trkpt>
      <trkpt lat="44.86971" lon="6.09205">
        <ele>1292</ele>
        <time>2020-07-21T02:32:59Z</time>
      </trkpt>
      <trkpt lat="44.87031" lon="6.0919">
        <ele>1303</ele>
        <time>2020-07-21T02:34:21Z</time>
      </trkpt>
      <trkpt lat="44.87075" lon="6.09209">
        <ele>1311</ele>
        <time>2020-07-21T02:35:22Z</time>
      </trkpt>
      <trkpt lat="44.87164" lon="6.09291">
        <ele>1331</ele>
        <time>2020-07-21T02:37:44Z</time>
      </trkpt>
      <trkpt lat="44.87216" lon="6.09305">
        <ele>1345</ele>
        <time>2020-07-21T02:38:55Z</time>
      </trkpt>
      <trkpt lat="44.8725" lon="6.09305">
        <ele>1353</ele>
        <time>2020-07-21T02:39:40Z</time>
      </trkpt>
      <trkpt lat="44.87316" lon="6.09321">
        <ele>1367</ele>
        <time>2020-07-21T02:41:09Z</time>
      </trkpt>
      <trkpt lat="44.8734" lon="6.09276">
        <ele>1382</ele>
        <time>2020-07-21T02:42:03Z</time>
      </trkpt>
      <trkpt lat="44.87376" lon="6.09274">
        <ele>1393</ele>
        <time>2020-07-21T02:42:51Z</time>
      </trkpt>
      <trkpt lat="44.87409" lon="6.09292">
        <ele>1400</ele>
        <time>2020-07-21T02:43:38Z</time>
      </trkpt>
      <trkpt lat="44.87442" lon="6.09267">
        <ele>1412</ele>
        <time>2020-07-21T02:44:28Z</time>
      </trkpt>
      <trkpt lat="44.87494" lon="6.0922">
        <ele>1430</ele>
        <time>2020-07-21T02:45:50Z</time>
      </trkpt>
      <trkpt lat="44.87507" lon="6.09215">
        <ele>1434</ele>
        <time>2020-07-21T02:46:08Z</time>
      </trkpt>
      <trkpt lat="44.87531" lon="6.09199">
        <ele>1442</ele>
        <time>2020-07-21T02:46:44Z</time>
      </trkpt>
      <trkpt lat="44.8754" lon="6.09188">
        <ele>1444</ele>
        <time>2020-07-21T02:47:00Z</time>
      </trkpt>
      <trkpt lat="44.87555" lon="6.09188">
        <ele>1446</ele>
        <time>2020-07-21T02:47:20Z</time>
      </trkpt>
      <trkpt lat="44.87573" lon="6.09174">
        <ele>1446</ele>
        <time>2020-07-21T02:47:47Z</time>
      </trkpt>
      <trkpt lat="44.87595" lon="6.09162">
        <ele>1449</ele>
        <time>2020-07-21T02:48:18Z</time>
      </trkpt>
      <trkpt lat="44.87621" lon="6.09152">
        <ele>1460</ele>
        <time>2020-07-21T02:48:54Z</time>
      </trkpt>
      <trkpt lat="44.87671" lon="6.09118">
        <ele>1475</ele>
        <time>2020-07-21T02:50:08Z</time>
      </trkpt>
      <trkpt lat="44.87701" lon="6.09104">
        <ele>1484</ele>
        <time>2020-07-21T02:50:51Z</time>
      </trkpt>
      <trkpt lat="44.87717" lon="6.09093">
        <ele>1487</ele>
        <time>2020-07-21T02:51:14Z</time>
      </trkpt>
      <trkpt lat="44.87744" lon="6.09066">
        <ele>1497</ele>
        <time>2020-07-21T02:51:59Z</time>
      </trkpt>
      <trkpt lat="44.87758" lon="6.09064">
        <ele>1501</ele>
        <time>2020-07-21T02:52:17Z</time>
      </trkpt>
      <trkpt lat="44.878" lon="6.09031">
        <ele>1519</ele>
        <time>2020-07-21T02:53:21Z</time>
      </trkpt>
      <trkpt lat="44.87826" lon="6.09027">
        <ele>1525</ele>
        <time>2020-07-21T02:53:56Z</time>
      </trkpt>
      <trkpt lat="44.87854" lon="6.09013">
        <ele>1534</ele>
        <time>2020-07-21T02:54:36Z</time>
      </trkpt>
      <trkpt lat="44.87871" lon="6.09001">
        <ele>1538</ele>
        <time>2020-07-21T02:55:01Z</time>
      </trkpt>
      <trkpt lat="44.87908" lon="6.08988">
        <ele>1551</ele>
        <time>2020-07-21T02:55:52Z</time>
      </trkpt>
      <trkpt lat="44.87964" lon="6.08965">
        <ele>1573</ele>
        <time>2020-07-21T02:57:10Z</time>
      </trkpt>
      <trkpt lat="44.87995" lon="6.08948">
        <ele>1582</ele>
        <time>2020-07-21T02:57:54Z</time>
      </trkpt>
      <trkpt lat="44.88038" lon="6.08914">
        <ele>1590</ele>
        <time>2020-07-21T02:59:00Z</time>
      </trkpt>
      <trkpt lat="44.88054" lon="6.08919">
        <ele>1593</ele>
        <time>2020-07-21T02:59:22Z</time>
      </trkpt>
      <trkpt lat="44.88073" lon="6.08907">
        <ele>1601</ele>
        <time>2020-07-21T02:59:50Z</time>
      </trkpt>
      <trkpt lat="44.88093" lon="6.08897">
        <ele>1610</ele>
        <time>2020-07-21T03:00:18Z</time>
      </trkpt>
      <trkpt lat="44.88113" lon="6.08883">
        <ele>1619</ele>
        <time>2020-07-21T03:00:48Z</time>
      </trkpt>
      <trkpt lat="44.88131" lon="6.08868">
        <ele>1627</ele>
        <time>2020-07-21T03:01:16Z</time>
      </trkpt>
      <trkpt lat="44.88146" lon="6.08866">
        <ele>1631</ele>
        <time>2020-07-21T03:01:36Z</time>
      </trkpt>
      <trkpt lat="44.88167" lon="6.08859">
        <ele>1635</ele>
        <time>2020-07-21T03:02:05Z</time>
      </trkpt>
      <trkpt lat="44.88216" lon="6.08835">
        <ele>1648</ele>
        <time>2020-07-21T03:03:14Z</time>
      </trkpt>
      <trkpt lat="44.88244" lon="6.08823">
        <ele>1659</ele>
        <time>2020-07-21T03:03:53Z</time>
      </trkpt>
      <trkpt lat="44.88273" lon="6.08821">
        <ele>1672</ele>
        <time>2020-07-21T03:04:32Z</time>
      </trkpt>
      <trkpt lat="44.88331" lon="6.08792">
        <ele>1703</ele>
        <time>2020-07-21T03:05:54Z</time>
      </trkpt>
      <trkpt lat="44.88358" lon="6.08775">
        <ele>1712</ele>
        <time>2020-07-21T03:06:33Z</time>
      </trkpt>
      <trkpt lat="44.88388" lon="6.08775">
        <ele>1722</ele>
        <time>2020-07-21T03:07:13Z</time>
      </trkpt>
      <trkpt lat="44.88401" lon="6.08777">
        <ele>1726</ele>
        <time>2020-07-21T03:07:31Z</time>
      </trkpt>
      <trkpt lat="44.88416" lon="6.08767">
        <ele>1729</ele>
        <time>2020-07-21T03:07:53Z</time>
      </trkpt>
      <trkpt lat="44.8846" lon="6.08706">
        <ele>1763</ele>
        <time>2020-07-21T03:09:15Z</time>
      </trkpt>
      <trkpt lat="44.88462" lon="6.08723">
        <ele>1759</ele>
        <time>2020-07-21T03:09:32Z</time>
      </trkpt>
      <trkpt lat="44.88464" lon="6.08725">
        <ele>1759</ele>
        <time>2020-07-21T03:09:35Z</time>
      </trkpt>
      <trkpt lat="44.8847" lon="6.08712">
        <ele>1765</ele>
        <time>2020-07-21T03:09:50Z</time>
      </trkpt>
      <trkpt lat="44.88482" lon="6.08702">
        <ele>1771</ele>
        <time>2020-07-21T03:10:08Z</time>
      </trkpt>
      <trkpt lat="44.8849" lon="6.08703">
        <ele>1773</ele>
        <time>2020-07-21T03:10:19Z</time>
      </trkpt>
      <trkpt lat="44.88525" lon="6.08677">
        <ele>1789</ele>
        <time>2020-07-21T03:11:12Z</time>
      </trkpt>
      <trkpt lat="44.88546" lon="6.08666">
        <ele>1799</ele>
        <time>2020-07-21T03:11:42Z</time>
      </trkpt>
      <trkpt lat="44.88546" lon="6.08681">
        <ele>1798</ele>
        <time>2020-07-21T03:11:56Z</time>
      </trkpt>
      <trkpt lat="44.8855" lon="6.08681">
        <ele>1800</ele>
        <time>2020-07-21T03:12:01Z</time>
      </trkpt>
      <trkpt lat="44.88569" lon="6.08666">
        <ele>1809</ele>
        <time>2020-07-21T03:12:30Z</time>
      </trkpt>
      <trkpt lat="44.88575" lon="6.0865">
        <ele>1817</ele>
        <time>2020-07-21T03:12:47Z</time>
      </trkpt>
      <trkpt lat="44.88579" lon="6.08662">
        <ele>1815</ele>
        <time>2020-07-21T03:13:00Z</time>
      </trkpt>
      <trkpt lat="44.8858" lon="6.08657">
        <ele>1817</ele>
        <time>2020-07-21T03:13:05Z</time>
      </trkpt>
      <trkpt lat="44.88585" lon="6.08662">
        <ele>1818</ele>
        <time>2020-07-21T03:13:13Z</time>
      </trkpt>
      <trkpt lat="44.88584" lon="6.08655">
        <ele>1819</ele>
        <time>2020-07-21T03:13:20Z</time>
      </trkpt>
      <trkpt lat="44.8859" lon="6.08663">
        <ele>1821</ele>
        <time>2020-07-21T03:13:31Z</time>
      </trkpt>
      <trkpt lat="44.88588" lon="6.08658">
        <ele>1821</ele>
        <time>2020-07-21T03:13:36Z</time>
      </trkpt>
      <trkpt lat="44.88592" lon="6.0864">
        <ele>1829</ele>
        <time>2020-07-21T03:13:54Z</time>
      </trkpt>
      <trkpt lat="44.88604" lon="6.08618">
        <ele>1842</ele>
        <time>2020-07-21T03:14:20Z</time>
      </trkpt>
      <trkpt lat="44.88603" lon="6.08635">
        <ele>1837</ele>
        <time>2020-07-21T03:14:36Z</time>
      </trkpt>
      <trkpt lat="44.88615" lon="6.08619">
        <ele>1848</ele>
        <time>2020-07-21T03:14:58Z</time>
      </trkpt>
      <trkpt lat="44.8861" lon="6.08642">
        <ele>1839</ele>
        <time>2020-07-21T03:15:21Z</time>
      </trkpt>
      <trkpt lat="44.88613" lon="6.08657">
        <ele>1837</ele>
        <time>2020-07-21T03:15:36Z</time>
      </trkpt>
      <trkpt lat="44.88615" lon="6.08648">
        <ele>1841</ele>
        <time>2020-07-21T03:15:45Z</time>
      </trkpt>
      <trkpt lat="44.88626" lon="6.0863">
        <ele>1851</ele>
        <time>2020-07-21T03:16:07Z</time>
      </trkpt>
      <trkpt lat="44.88624" lon="6.08653">
        <ele>1845</ele>
        <time>2020-07-21T03:16:29Z</time>
      </trkpt>
      <trkpt lat="44.88643" lon="6.08618">
        <ele>1863</ele>
        <time>2020-07-21T03:17:11Z</time>
      </trkpt>
      <trkpt lat="44.88643" lon="6.0864">
        <ele>1860</ele>
        <time>2020-07-21T03:17:32Z</time>
      </trkpt>
      <trkpt lat="44.88653" lon="6.0862">
        <ele>1869</ele>
        <time>2020-07-21T03:17:55Z</time>
      </trkpt>
      <trkpt lat="44.88665" lon="6.08589">
        <ele>1879</ele>
        <time>2020-07-21T03:18:28Z</time>
      </trkpt>
      <trkpt lat="44.88667" lon="6.08614">
        <ele>1877</ele>
        <time>2020-07-21T03:18:52Z</time>
      </trkpt>
      <trkpt lat="44.88685" lon="6.08578">
        <ele>1894</ele>
        <time>2020-07-21T03:19:34Z</time>
      </trkpt>
      <trkpt lat="44.88685" lon="6.0862">
        <ele>1889</ele>
        <time>2020-07-21T03:20:13Z</time>
      </trkpt>
      <trkpt lat="44.88711" lon="6.08563">
        <ele>1913</ele>
        <time>2020-07-21T03:21:17Z</time>
      </trkpt>
      <trkpt lat="44.88718" lon="6.08536">
        <ele>1922</ele>
        <time>2020-07-21T03:21:45Z</time>
      </trkpt>
      <trkpt lat="44.88723" lon="6.08566">
        <ele>1919</ele>
        <time>2020-07-21T03:22:14Z</time>
      </trkpt>
      <trkpt lat="44.88734" lon="6.08534">
        <ele>1929</ele>
        <time>2020-07-21T03:22:47Z</time>
      </trkpt>
      <trkpt lat="44.88736" lon="6.08569">
        <ele>1926</ele>
        <time>2020-07-21T03:23:20Z</time>
      </trkpt>
      <trkpt lat="44.88747" lon="6.08547">
        <ele>1934</ele>
        <time>2020-07-21T03:23:46Z</time>
      </trkpt>
      <trkpt lat="44.88758" lon="6.08543">
        <ele>1940</ele>
        <time>2020-07-21T03:24:01Z</time>
      </trkpt>
      <trkpt lat="44.88813" lon="6.08529">
        <ele>1972</ele>
        <time>2020-07-21T03:25:16Z</time>
      </trkpt>
      <trkpt lat="44.88824" lon="6.08537">
        <ele>1978</ele>
        <time>2020-07-21T03:25:32Z</time>
      </trkpt>
      <trkpt lat="44.88838" lon="6.08535">
        <ele>1986</ele>
        <time>2020-07-21T03:25:51Z</time>
      </trkpt>
      <trkpt lat="44.8886" lon="6.0855">
        <ele>1997</ele>
        <time>2020-07-21T03:26:24Z</time>
      </trkpt>
      <trkpt lat="44.88856" lon="6.08526">
        <ele>1996</ele>
        <time>2020-07-21T03:26:47Z</time>
      </trkpt>
      <trkpt lat="44.88854" lon="6.08471">
        <ele>2002</ele>
        <time>2020-07-21T03:27:39Z</time>
      </trkpt>
      <trkpt lat="44.8885" lon="6.08458">
        <ele>2004</ele>
        <time>2020-07-21T03:27:52Z</time>
      </trkpt>
      <trkpt lat="44.88848" lon="6.08439">
        <ele>2008</ele>
        <time>2020-07-21T03:28:11Z</time>
      </trkpt>
      <trkpt lat="44.8885" lon="6.084">
        <ele>2021</ele>
        <time>2020-07-21T03:28:47Z</time>
      </trkpt>
      <trkpt lat="44.88848" lon="6.08355">
        <ele>2037</ele>
        <time>2020-07-21T03:29:30Z</time>
      </trkpt>
      <trkpt lat="44.88853" lon="6.08318">
        <ele>2053</ele>
        <time>2020-07-21T03:30:06Z</time>
      </trkpt>
      <trkpt lat="44.88846" lon="6.08308">
        <ele>2054</ele>
        <time>2020-07-21T03:30:19Z</time>
      </trkpt>
      <trkpt lat="44.88859" lon="6.083">
        <ele>2063</ele>
        <time>2020-07-21T03:30:38Z</time>
      </trkpt>
      <trkpt lat="44.88853" lon="6.08289">
        <ele>2065</ele>
        <time>2020-07-21T03:30:51Z</time>
      </trkpt>
      <trkpt lat="44.88858" lon="6.08284">
        <ele>2069</ele>
        <time>2020-07-21T03:30:59Z</time>
      </trkpt>
      <trkpt lat="44.88853" lon="6.08276">
        <ele>2070</ele>
        <time>2020-07-21T03:31:09Z</time>
      </trkpt>
      <trkpt lat="44.88853" lon="6.08274">
        <ele>2071</ele>
        <time>2020-07-21T03:31:11Z</time>
      </trkpt>
      <trkpt lat="44.88863" lon="6.08271">
        <ele>2076</ele>
        <time>2020-07-21T03:31:25Z</time>
      </trkpt>
      <trkpt lat="44.88856" lon="6.08256">
        <ele>2079</ele>
        <time>2020-07-21T03:31:42Z</time>
      </trkpt>
      <trkpt lat="44.88863" lon="6.08256">
        <ele>2081</ele>
        <time>2020-07-21T03:31:51Z</time>
      </trkpt>
      <trkpt lat="44.88867" lon="6.08252">
        <ele>2084</ele>
        <time>2020-07-21T03:31:58Z</time>
      </trkpt>
      <trkpt lat="44.88865" lon="6.08248">
        <ele>2085</ele>
        <time>2020-07-21T03:32:02Z</time>
      </trkpt>
      <trkpt lat="44.88868" lon="6.08243">
        <ele>2088</ele>
        <time>2020-07-21T03:32:09Z</time>
      </trkpt>
      <trkpt lat="44.88852" lon="6.08224">
        <ele>2089</ele>
        <time>2020-07-21T03:32:36Z</time>
      </trkpt>
      <trkpt lat="44.8887" lon="6.0822">
        <ele>2096</ele>
        <time>2020-07-21T03:33:01Z</time>
      </trkpt>
      <trkpt lat="44.88856" lon="6.08198">
        <ele>2100</ele>
        <time>2020-07-21T03:33:29Z</time>
      </trkpt>
      <trkpt lat="44.88862" lon="6.08197">
        <ele>2102</ele>
        <time>2020-07-21T03:33:37Z</time>
      </trkpt>
      <trkpt lat="44.88884" lon="6.08173">
        <ele>2115</ele>
        <time>2020-07-21T03:34:14Z</time>
      </trkpt>
      <trkpt lat="44.88898" lon="6.08176">
        <ele>2118</ele>
        <time>2020-07-21T03:34:33Z</time>
      </trkpt>
      <trkpt lat="44.88948" lon="6.08208">
        <ele>2128</ele>
        <time>2020-07-21T03:35:46Z</time>
      </trkpt>
      <trkpt lat="44.88955" lon="6.08206">
        <ele>2132</ele>
        <time>2020-07-21T03:35:56Z</time>
      </trkpt>
      <trkpt lat="44.8898" lon="6.08239">
        <ele>2134</ele>
        <time>2020-07-21T03:36:41Z</time>
      </trkpt>
      <trkpt lat="44.88984" lon="6.082">
        <ele>2147</ele>
        <time>2020-07-21T03:37:19Z</time>
      </trkpt>
      <trkpt lat="44.88999" lon="6.08225">
        <ele>2147</ele>
        <time>2020-07-21T03:37:49Z</time>
      </trkpt>
      <trkpt lat="44.89006" lon="6.0817">
        <ele>2166</ele>
        <time>2020-07-21T03:38:42Z</time>
      </trkpt>
      <trkpt lat="44.89015" lon="6.08186">
        <ele>2166</ele>
        <time>2020-07-21T03:39:02Z</time>
      </trkpt>
      <trkpt lat="44.89026" lon="6.08214">
        <ele>2165</ele>
        <time>2020-07-21T03:39:32Z</time>
      </trkpt>
      <trkpt lat="44.89029" lon="6.08176">
        <ele>2176</ele>
        <time>2020-07-21T03:40:08Z</time>
      </trkpt>
      <trkpt lat="44.89038" lon="6.08196">
        <ele>2175</ele>
        <time>2020-07-21T03:40:30Z</time>
      </trkpt>
      <trkpt lat="44.89042" lon="6.08166">
        <ele>2184</ele>
        <time>2020-07-21T03:40:59Z</time>
      </trkpt>
      <trkpt lat="44.89058" lon="6.08196">
        <ele>2185</ele>
        <time>2020-07-21T03:41:35Z</time>
      </trkpt>
      <trkpt lat="44.89061" lon="6.08168">
        <ele>2193</ele>
        <time>2020-07-21T03:42:02Z</time>
      </trkpt>
      <trkpt lat="44.89072" lon="6.08191">
        <ele>2194</ele>
        <time>2020-07-21T03:42:28Z</time>
      </trkpt>
      <trkpt lat="44.89076" lon="6.08173">
        <ele>2199</ele>
        <time>2020-07-21T03:42:46Z</time>
      </trkpt>
      <trkpt lat="44.89082" lon="6.08138">
        <ele>2208</ele>
        <time>2020-07-21T03:43:20Z</time>
      </trkpt>
      <trkpt lat="44.8909" lon="6.08149">
        <ele>2211</ele>
        <time>2020-07-21T03:43:35Z</time>
      </trkpt>
      <trkpt lat="44.89092" lon="6.08139">
        <ele>2214</ele>
        <time>2020-07-21T03:43:44Z</time>
      </trkpt>
      <trkpt lat="44.89103" lon="6.08167">
        <ele>2216</ele>
        <time>2020-07-21T03:44:15Z</time>
      </trkpt>
      <trkpt lat="44.89106" lon="6.08169">
        <ele>2217</ele>
        <time>2020-07-21T03:44:19Z</time>
      </trkpt>
      <trkpt lat="44.8911" lon="6.08119">
        <ele>2227</ele>
        <time>2020-07-21T03:45:07Z</time>
      </trkpt>
      <trkpt lat="44.8912" lon="6.08137">
        <ele>2231</ele>
        <time>2020-07-21T03:45:28Z</time>
      </trkpt>
      <trkpt lat="44.89126" lon="6.08151">
        <ele>2232</ele>
        <time>2020-07-21T03:45:44Z</time>
      </trkpt>
      <trkpt lat="44.89128" lon="6.08145">
        <ele>2234</ele>
        <time>2020-07-21T03:45:50Z</time>
      </trkpt>
      <trkpt lat="44.8913" lon="6.08107">
        <ele>2241</ele>
        <time>2020-07-21T03:46:26Z</time>
      </trkpt>
      <trkpt lat="44.89138" lon="6.08081">
        <ele>2250</ele>
        <time>2020-07-21T03:46:53Z</time>
      </trkpt>
      <trkpt lat="44.89146" lon="6.0804">
        <ele>2262</ele>
        <time>2020-07-21T03:47:33Z</time>
      </trkpt>
      <trkpt lat="44.89163" lon="6.08044">
        <ele>2269</ele>
        <time>2020-07-21T03:47:56Z</time>
      </trkpt>
      <trkpt lat="44.89164" lon="6.08032">
        <ele>2271</ele>
        <time>2020-07-21T03:48:08Z</time>
      </trkpt>
      <trkpt lat="44.89162" lon="6.08007">
        <ele>2273</ele>
        <time>2020-07-21T03:48:31Z</time>
      </trkpt>
      <trkpt lat="44.89188" lon="6.0802">
        <ele>2282</ele>
        <time>2020-07-21T03:49:08Z</time>
      </trkpt>
      <trkpt lat="44.89198" lon="6.0801">
        <ele>2286</ele>
        <time>2020-07-21T03:49:24Z</time>
      </trkpt>
      <trkpt lat="44.89206" lon="6.08011">
        <ele>2289</ele>
        <time>2020-07-21T03:49:35Z</time>
      </trkpt>
      <trkpt lat="44.89212" lon="6.08003">
        <ele>2291</ele>
        <time>2020-07-21T03:49:46Z</time>
      </trkpt>
      <trkpt lat="44.89223" lon="6.08">
        <ele>2295</ele>
        <time>2020-07-21T03:50:01Z</time>
      </trkpt>
      <trkpt lat="44.89238" lon="6.07988">
        <ele>2299</ele>
        <time>2020-07-21T03:50:24Z</time>
      </trkpt>
      <trkpt lat="44.89243" lon="6.0792">
        <ele>2295</ele>
        <time>2020-07-21T03:51:29Z</time>
      </trkpt>
      <trkpt lat="44.8925" lon="6.07928">
        <ele>2296</ele>
        <time>2020-07-21T03:51:41Z</time>
      </trkpt>
      <trkpt lat="44.8926" lon="6.07932">
        <ele>2294</ele>
        <time>2020-07-21T03:51:55Z</time>
      </trkpt>
      <trkpt lat="44.89272" lon="6.07945">
        <ele>2294</ele>
        <time>2020-07-21T03:52:15Z</time>
      </trkpt>
      <trkpt lat="44.89284" lon="6.07945">
        <ele>2291</ele>
        <time>2020-07-21T03:52:31Z</time>
      </trkpt>
      <trkpt lat="44.89277" lon="6.07926">
        <ele>2288</ele>
        <time>2020-07-21T03:52:51Z</time>
      </trkpt>
      <trkpt lat="44.8928" lon="6.07884">
        <ele>2273</ele>
        <time>2020-07-21T03:53:31Z</time>
      </trkpt>
      <trkpt lat="44.89283" lon="6.07878">
        <ele>2270</ele>
        <time>2020-07-21T03:53:38Z</time>
      </trkpt>
      <trkpt lat="44.89282" lon="6.07872">
        <ele>2268</ele>
        <time>2020-07-21T03:53:44Z</time>
      </trkpt>
      <trkpt lat="44.89284" lon="6.07862">
        <ele>2264</ele>
        <time>2020-07-21T03:53:54Z</time>
      </trkpt>
      <trkpt lat="44.89288" lon="6.07875">
        <ele>2267</ele>
        <time>2020-07-21T03:54:07Z</time>
      </trkpt>
      <trkpt lat="44.89312" lon="6.07895">
        <ele>2265</ele>
        <time>2020-07-21T03:54:44Z</time>
      </trkpt>
      <trkpt lat="44.89319" lon="6.07899">
        <ele>2264</ele>
        <time>2020-07-21T03:54:54Z</time>
      </trkpt>
      <trkpt lat="44.89337" lon="6.07903">
        <ele>2259</ele>
        <time>2020-07-21T03:55:19Z</time>
      </trkpt>
      <trkpt lat="44.89349" lon="6.07902">
        <ele>2256</ele>
        <time>2020-07-21T03:55:35Z</time>
      </trkpt>
      <trkpt lat="44.89356" lon="6.07906">
        <ele>2256</ele>
        <time>2020-07-21T03:55:45Z</time>
      </trkpt>
      <trkpt lat="44.89367" lon="6.07905">
        <ele>2253</ele>
        <time>2020-07-21T03:55:59Z</time>
      </trkpt>
      <trkpt lat="44.89392" lon="6.07913">
        <ele>2250</ele>
        <time>2020-07-21T03:56:34Z</time>
      </trkpt>
      <trkpt lat="44.8942" lon="6.07911">
        <ele>2242</ele>
        <time>2020-07-21T03:57:11Z</time>
      </trkpt>
      <trkpt lat="44.89416" lon="6.07903">
        <ele>2240</ele>
        <time>2020-07-21T03:57:20Z</time>
      </trkpt>
      <trkpt lat="44.8941" lon="6.07898">
        <ele>2239</ele>
        <time>2020-07-21T03:57:30Z</time>
      </trkpt>
      <trkpt lat="44.89382" lon="6.07864">
        <ele>2232</ele>
        <time>2020-07-21T03:58:19Z</time>
      </trkpt>
      <trkpt lat="44.89375" lon="6.07847">
        <ele>2227</ele>
        <time>2020-07-21T03:58:37Z</time>
      </trkpt>
      <trkpt lat="44.89366" lon="6.07794">
        <ele>2207</ele>
        <time>2020-07-21T03:59:29Z</time>
      </trkpt>
      <trkpt lat="44.89379" lon="6.07807">
        <ele>2209</ele>
        <time>2020-07-21T03:59:50Z</time>
      </trkpt>
      <trkpt lat="44.89389" lon="6.07821">
        <ele>2211</ele>
        <time>2020-07-21T04:00:09Z</time>
      </trkpt>
      <trkpt lat="44.89403" lon="6.07836">
        <ele>2213</ele>
        <time>2020-07-21T04:00:33Z</time>
      </trkpt>
      <trkpt lat="44.89464" lon="6.0786">
        <ele>2197</ele>
        <time>2020-07-21T04:01:57Z</time>
      </trkpt>
      <trkpt lat="44.89473" lon="6.07872">
        <ele>2198</ele>
        <time>2020-07-21T04:02:14Z</time>
      </trkpt>
      <trkpt lat="44.89504" lon="6.07888">
        <ele>2189</ele>
        <time>2020-07-21T04:02:58Z</time>
      </trkpt>
      <trkpt lat="44.89519" lon="6.079">
        <ele>2183</ele>
        <time>2020-07-21T04:03:21Z</time>
      </trkpt>
      <trkpt lat="44.89539" lon="6.07914">
        <ele>2174</ele>
        <time>2020-07-21T04:03:50Z</time>
      </trkpt>
      <trkpt lat="44.89549" lon="6.07925">
        <ele>2173</ele>
        <time>2020-07-21T04:04:07Z</time>
      </trkpt>
      <trkpt lat="44.89567" lon="6.07932">
        <ele>2165</ele>
        <time>2020-07-21T04:04:32Z</time>
      </trkpt>
      <trkpt lat="44.89584" lon="6.07946">
        <ele>2162</ele>
        <time>2020-07-21T04:04:58Z</time>
      </trkpt>
      <trkpt lat="44.89593" lon="6.07956">
        <ele>2165</ele>
        <time>2020-07-21T04:05:14Z</time>
      </trkpt>
      <trkpt lat="44.89603" lon="6.07957">
        <ele>2161</ele>
        <time>2020-07-21T04:05:27Z</time>
      </trkpt>
      <trkpt lat="44.89619" lon="6.07963">
        <ele>2157</ele>
        <time>2020-07-21T04:05:49Z</time>
      </trkpt>
      <trkpt lat="44.89651" lon="6.08002">
        <ele>2160</ele>
        <time>2020-07-21T04:06:46Z</time>
      </trkpt>
      <trkpt lat="44.89667" lon="6.08013">
        <ele>2153</ele>
        <time>2020-07-21T04:07:09Z</time>
      </trkpt>
      <trkpt lat="44.89659" lon="6.07999">
        <ele>2154</ele>
        <time>2020-07-21T04:07:26Z</time>
      </trkpt>
      <trkpt lat="44.89649" lon="6.07964">
        <ele>2144</ele>
        <time>2020-07-21T04:08:02Z</time>
      </trkpt>
      <trkpt lat="44.89639" lon="6.07952">
        <ele>2142</ele>
        <time>2020-07-21T04:08:20Z</time>
      </trkpt>
      <trkpt lat="44.89634" lon="6.07943">
        <ele>2140</ele>
        <time>2020-07-21T04:08:30Z</time>
      </trkpt>
      <trkpt lat="44.89628" lon="6.07937">
        <ele>2139</ele>
        <time>2020-07-21T04:08:40Z</time>
      </trkpt>
      <trkpt lat="44.89619" lon="6.07916">
        <ele>2130</ele>
        <time>2020-07-21T04:09:03Z</time>
      </trkpt>
      <trkpt lat="44.89628" lon="6.07924">
        <ele>2132</ele>
        <time>2020-07-21T04:09:18Z</time>
      </trkpt>
      <trkpt lat="44.89653" lon="6.07934">
        <ele>2128</ele>
        <time>2020-07-21T04:09:52Z</time>
      </trkpt>
      <trkpt lat="44.89641" lon="6.07914">
        <ele>2122</ele>
        <time>2020-07-21T04:10:17Z</time>
      </trkpt>
      <trkpt lat="44.89629" lon="6.079">
        <ele>2118</ele>
        <time>2020-07-21T04:10:38Z</time>
      </trkpt>
      <trkpt lat="44.89617" lon="6.07894">
        <ele>2119</ele>
        <time>2020-07-21T04:10:55Z</time>
      </trkpt>
      <trkpt lat="44.8963" lon="6.07893">
        <ele>2113</ele>
        <time>2020-07-21T04:11:12Z</time>
      </trkpt>
      <trkpt lat="44.89657" lon="6.07899">
        <ele>2107</ele>
        <time>2020-07-21T04:11:49Z</time>
      </trkpt>
      <trkpt lat="44.89668" lon="6.07904">
        <ele>2106</ele>
        <time>2020-07-21T04:12:04Z</time>
      </trkpt>
      <trkpt lat="44.89684" lon="6.07905">
        <ele>2100</ele>
        <time>2020-07-21T04:12:25Z</time>
      </trkpt>
      <trkpt lat="44.89705" lon="6.07916">
        <ele>2097</ele>
        <time>2020-07-21T04:12:55Z</time>
      </trkpt>
      <trkpt lat="44.8973" lon="6.07942">
        <ele>2094</ele>
        <time>2020-07-21T04:13:37Z</time>
      </trkpt>
      <trkpt lat="44.89725" lon="6.07915">
        <ele>2086</ele>
        <time>2020-07-21T04:14:03Z</time>
      </trkpt>
      <trkpt lat="44.89716" lon="6.07904">
        <ele>2084</ele>
        <time>2020-07-21T04:14:19Z</time>
      </trkpt>
      <trkpt lat="44.89696" lon="6.07872">
        <ele>2072</ele>
        <time>2020-07-21T04:14:59Z</time>
      </trkpt>
      <trkpt lat="44.89689" lon="6.07868">
        <ele>2072</ele>
        <time>2020-07-21T04:15:09Z</time>
      </trkpt>
      <trkpt lat="44.89662" lon="6.07825">
        <ele>2053</ele>
        <time>2020-07-21T04:16:04Z</time>
      </trkpt>
      <trkpt lat="44.89674" lon="6.0783">
        <ele>2051</ele>
        <time>2020-07-21T04:16:20Z</time>
      </trkpt>
      <trkpt lat="44.89693" lon="6.07843">
        <ele>2054</ele>
        <time>2020-07-21T04:16:49Z</time>
      </trkpt>
      <trkpt lat="44.89707" lon="6.07848">
        <ele>2053</ele>
        <time>2020-07-21T04:17:08Z</time>
      </trkpt>
      <trkpt lat="44.89681" lon="6.07806">
        <ele>2033</ele>
        <time>2020-07-21T04:18:01Z</time>
      </trkpt>
      <trkpt lat="44.89701" lon="6.0781">
        <ele>2030</ele>
        <time>2020-07-21T04:18:28Z</time>
      </trkpt>
      <trkpt lat="44.89731" lon="6.07831">
        <ele>2034</ele>
        <time>2020-07-21T04:19:12Z</time>
      </trkpt>
      <trkpt lat="44.89749" lon="6.0784">
        <ele>2034</ele>
        <time>2020-07-21T04:19:38Z</time>
      </trkpt>
      <trkpt lat="44.8976" lon="6.07849">
        <ele>2031</ele>
        <time>2020-07-21T04:19:55Z</time>
      </trkpt>
      <trkpt lat="44.89779" lon="6.07861">
        <ele>2023</ele>
        <time>2020-07-21T04:20:23Z</time>
      </trkpt>
      <trkpt lat="44.89763" lon="6.07837">
        <ele>2023</ele>
        <time>2020-07-21T04:20:54Z</time>
      </trkpt>
      <trkpt lat="44.8973" lon="6.0778">
        <ele>2003</ele>
        <time>2020-07-21T04:22:03Z</time>
      </trkpt>
      <trkpt lat="44.89755" lon="6.07791">
        <ele>2002</ele>
        <time>2020-07-21T04:22:38Z</time>
      </trkpt>
      <trkpt lat="44.898" lon="6.07837">
        <ele>1996</ele>
        <time>2020-07-21T04:23:52Z</time>
      </trkpt>
      <trkpt lat="44.89791" lon="6.07783">
        <ele>1976</ele>
        <time>2020-07-21T04:24:45Z</time>
      </trkpt>
      <trkpt lat="44.89769" lon="6.07732">
        <ele>1961</ele>
        <time>2020-07-21T04:25:41Z</time>
      </trkpt>
      <trkpt lat="44.89796" lon="6.07752">
        <ele>1958</ele>
        <time>2020-07-21T04:26:22Z</time>
      </trkpt>
      <trkpt lat="44.89811" lon="6.07768">
        <ele>1957</ele>
        <time>2020-07-21T04:26:47Z</time>
      </trkpt>
      <trkpt lat="44.89787" lon="6.07719">
        <ele>1944</ele>
        <time>2020-07-21T04:27:43Z</time>
      </trkpt>
      <trkpt lat="44.89826" lon="6.07755">
        <ele>1944</ele>
        <time>2020-07-21T04:28:46Z</time>
      </trkpt>
      <trkpt lat="44.89856" lon="6.07792">
        <ele>1940</ele>
        <time>2020-07-21T04:29:39Z</time>
      </trkpt>
      <trkpt lat="44.89862" lon="6.07794">
        <ele>1937</ele>
        <time>2020-07-21T04:29:47Z</time>
      </trkpt>
      <trkpt lat="44.89927" lon="6.07869">
        <ele>1927</ele>
        <time>2020-07-21T04:31:39Z</time>
      </trkpt>
      <trkpt lat="44.89962" lon="6.07898">
        <ele>1917</ele>
        <time>2020-07-21T04:32:33Z</time>
      </trkpt>
      <trkpt lat="44.90017" lon="6.07934">
        <ele>1895</ele>
        <time>2020-07-21T04:33:54Z</time>
      </trkpt>
      <trkpt lat="44.90055" lon="6.07968">
        <ele>1883</ele>
        <time>2020-07-21T04:34:54Z</time>
      </trkpt>
      <trkpt lat="44.90133" lon="6.08098">
        <ele>1864</ele>
        <time>2020-07-21T04:37:35Z</time>
      </trkpt>
      <trkpt lat="44.90139" lon="6.08117">
        <ele>1859</ele>
        <time>2020-07-21T04:37:55Z</time>
      </trkpt>
      <trkpt lat="44.90143" lon="6.08118">
        <ele>1857</ele>
        <time>2020-07-21T04:38:00Z</time>
      </trkpt>
      <trkpt lat="44.90156" lon="6.08087">
        <ele>1853</ele>
        <time>2020-07-21T04:38:34Z</time>
      </trkpt>
      <trkpt lat="44.90171" lon="6.08108">
        <ele>1840</ele>
        <time>2020-07-21T04:39:02Z</time>
      </trkpt>
      <trkpt lat="44.90159" lon="6.08139">
        <ele>1845</ele>
        <time>2020-07-21T04:39:36Z</time>
      </trkpt>
      <trkpt lat="44.90151" lon="6.08148">
        <ele>1849</ele>
        <time>2020-07-21T04:39:49Z</time>
      </trkpt>
      <trkpt lat="44.9015" lon="6.08161">
        <ele>1848</ele>
        <time>2020-07-21T04:40:02Z</time>
      </trkpt>
      <trkpt lat="44.90126" lon="6.08185">
        <ele>1860</ele>
        <time>2020-07-21T04:40:41Z</time>
      </trkpt>
      <trkpt lat="44.9013" lon="6.08194">
        <ele>1858</ele>
        <time>2020-07-21T04:40:51Z</time>
      </trkpt>
      <trkpt lat="44.90127" lon="6.08206">
        <ele>1859</ele>
        <time>2020-07-21T04:41:03Z</time>
      </trkpt>
      <trkpt lat="44.9013" lon="6.08212">
        <ele>1857</ele>
        <time>2020-07-21T04:41:10Z</time>
      </trkpt>
      <trkpt lat="44.90141" lon="6.08214">
        <ele>1851</ele>
        <time>2020-07-21T04:41:25Z</time>
      </trkpt>
      <trkpt lat="44.90166" lon="6.08226">
        <ele>1837</ele>
        <time>2020-07-21T04:42:00Z</time>
      </trkpt>
      <trkpt lat="44.90181" lon="6.08239">
        <ele>1828</ele>
        <time>2020-07-21T04:42:24Z</time>
      </trkpt>
      <trkpt lat="44.90196" lon="6.08249">
        <ele>1820</ele>
        <time>2020-07-21T04:42:46Z</time>
      </trkpt>
      <trkpt lat="44.90203" lon="6.08261">
        <ele>1820</ele>
        <time>2020-07-21T04:43:00Z</time>
      </trkpt>
      <trkpt lat="44.90209" lon="6.08284">
        <ele>1823</ele>
        <time>2020-07-21T04:43:24Z</time>
      </trkpt>
      <trkpt lat="44.9022" lon="6.08305">
        <ele>1823</ele>
        <time>2020-07-21T04:43:48Z</time>
      </trkpt>
      <trkpt lat="44.90231" lon="6.08315">
        <ele>1820</ele>
        <time>2020-07-21T04:44:06Z</time>
      </trkpt>
      <trkpt lat="44.90265" lon="6.08317">
        <ele>1802</ele>
        <time>2020-07-21T04:44:51Z</time>
      </trkpt>
      <trkpt lat="44.90275" lon="6.0832">
        <ele>1798</ele>
        <time>2020-07-21T04:45:05Z</time>
      </trkpt>
      <trkpt lat="44.9033" lon="6.08366">
        <ele>1787</ele>
        <time>2020-07-21T04:46:30Z</time>
      </trkpt>
      <trkpt lat="44.90362" lon="6.08402">
        <ele>1783</ele>
        <time>2020-07-21T04:47:25Z</time>
      </trkpt>
      <trkpt lat="44.90358" lon="6.08384">
        <ele>1779</ele>
        <time>2020-07-21T04:47:43Z</time>
      </trkpt>
      <trkpt lat="44.90346" lon="6.08353">
        <ele>1773</ele>
        <time>2020-07-21T04:48:16Z</time>
      </trkpt>
      <trkpt lat="44.90336" lon="6.08331">
        <ele>1769</ele>
        <time>2020-07-21T04:48:41Z</time>
      </trkpt>
      <trkpt lat="44.90332" lon="6.08316">
        <ele>1767</ele>
        <time>2020-07-21T04:48:56Z</time>
      </trkpt>
      <trkpt lat="44.90329" lon="6.08315">
        <ele>1768</ele>
        <time>2020-07-21T04:49:00Z</time>
      </trkpt>
      <trkpt lat="44.90328" lon="6.08304">
        <ele>1765</ele>
        <time>2020-07-21T04:49:10Z</time>
      </trkpt>
      <trkpt lat="44.90317" lon="6.08281">
        <ele>1764</ele>
        <time>2020-07-21T04:49:37Z</time>
      </trkpt>
      <trkpt lat="44.90318" lon="6.08274">
        <ele>1761</ele>
        <time>2020-07-21T04:49:43Z</time>
      </trkpt>
      <trkpt lat="44.90333" lon="6.08275">
        <ele>1754</ele>
        <time>2020-07-21T04:50:03Z</time>
      </trkpt>
      <trkpt lat="44.90345" lon="6.0828">
        <ele>1749</ele>
        <time>2020-07-21T04:50:20Z</time>
      </trkpt>
      <trkpt lat="44.90345" lon="6.08272">
        <ele>1747</ele>
        <time>2020-07-21T04:50:28Z</time>
      </trkpt>
      <trkpt lat="44.90334" lon="6.08253">
        <ele>1747</ele>
        <time>2020-07-21T04:50:51Z</time>
      </trkpt>
      <trkpt lat="44.90335" lon="6.08248">
        <ele>1744</ele>
        <time>2020-07-21T04:50:56Z</time>
      </trkpt>
      <trkpt lat="44.90345" lon="6.08252">
        <ele>1741</ele>
        <time>2020-07-21T04:51:10Z</time>
      </trkpt>
      <trkpt lat="44.90375" lon="6.08278">
        <ele>1734</ele>
        <time>2020-07-21T04:51:57Z</time>
      </trkpt>
      <trkpt lat="44.9037" lon="6.08256">
        <ele>1730</ele>
        <time>2020-07-21T04:52:18Z</time>
      </trkpt>
      <trkpt lat="44.90364" lon="6.08235">
        <ele>1726</ele>
        <time>2020-07-21T04:52:40Z</time>
      </trkpt>
      <trkpt lat="44.90347" lon="6.08213">
        <ele>1726</ele>
        <time>2020-07-21T04:53:11Z</time>
      </trkpt>
      <trkpt lat="44.90322" lon="6.08156">
        <ele>1721</ele>
        <time>2020-07-21T04:54:14Z</time>
      </trkpt>
      <trkpt lat="44.90348" lon="6.08167">
        <ele>1709</ele>
        <time>2020-07-21T04:54:50Z</time>
      </trkpt>
      <trkpt lat="44.90347" lon="6.08149">
        <ele>1702</ele>
        <time>2020-07-21T04:55:07Z</time>
      </trkpt>
      <trkpt lat="44.90378" lon="6.08179">
        <ele>1698</ele>
        <time>2020-07-21T04:55:57Z</time>
      </trkpt>
      <trkpt lat="44.90395" lon="6.0819">
        <ele>1694</ele>
        <time>2020-07-21T04:56:22Z</time>
      </trkpt>
      <trkpt lat="44.90415" lon="6.08191">
        <ele>1685</ele>
        <time>2020-07-21T04:56:49Z</time>
      </trkpt>
      <trkpt lat="44.90398" lon="6.08164">
        <ele>1683</ele>
        <time>2020-07-21T04:57:23Z</time>
      </trkpt>
      <trkpt lat="44.90397" lon="6.0814">
        <ele>1675</ele>
        <time>2020-07-21T04:57:46Z</time>
      </trkpt>
      <trkpt lat="44.90395" lon="6.08134">
        <ele>1674</ele>
        <time>2020-07-21T04:57:52Z</time>
      </trkpt>
      <trkpt lat="44.90396" lon="6.08128">
        <ele>1671</ele>
        <time>2020-07-21T04:57:58Z</time>
      </trkpt>
      <trkpt lat="44.90394" lon="6.08117">
        <ele>1668</ele>
        <time>2020-07-21T04:58:09Z</time>
      </trkpt>
      <trkpt lat="44.90401" lon="6.08122">
        <ele>1667</ele>
        <time>2020-07-21T04:58:19Z</time>
      </trkpt>
      <trkpt lat="44.90404" lon="6.08127">
        <ele>1667</ele>
        <time>2020-07-21T04:58:25Z</time>
      </trkpt>
      <trkpt lat="44.90406" lon="6.08122">
        <ele>1665</ele>
        <time>2020-07-21T04:58:31Z</time>
      </trkpt>
      <trkpt lat="44.90403" lon="6.08111">
        <ele>1662</ele>
        <time>2020-07-21T04:58:42Z</time>
      </trkpt>
      <trkpt lat="44.90404" lon="6.08102">
        <ele>1659</ele>
        <time>2020-07-21T04:58:51Z</time>
      </trkpt>
      <trkpt lat="44.90413" lon="6.08111">
        <ele>1658</ele>
        <time>2020-07-21T04:59:05Z</time>
      </trkpt>
      <trkpt lat="44.90421" lon="6.08113">
        <ele>1655</ele>
        <time>2020-07-21T04:59:16Z</time>
      </trkpt>
      <trkpt lat="44.90413" lon="6.08071">
        <ele>1645</ele>
        <time>2020-07-21T04:59:57Z</time>
      </trkpt>
      <trkpt lat="44.90443" lon="6.08097">
        <ele>1641</ele>
        <time>2020-07-21T05:00:44Z</time>
      </trkpt>
      <trkpt lat="44.90436" lon="6.08058">
        <ele>1632</ele>
        <time>2020-07-21T05:01:22Z</time>
      </trkpt>
      <trkpt lat="44.90428" lon="6.08026">
        <ele>1626</ele>
        <time>2020-07-21T05:01:54Z</time>
      </trkpt>
      <trkpt lat="44.90471" lon="6.0806">
        <ele>1620</ele>
        <time>2020-07-21T05:03:00Z</time>
      </trkpt>
      <trkpt lat="44.90455" lon="6.08011">
        <ele>1612</ele>
        <time>2020-07-21T05:03:51Z</time>
      </trkpt>
      <trkpt lat="44.90463" lon="6.08015">
        <ele>1610</ele>
        <time>2020-07-21T05:04:02Z</time>
      </trkpt>
      <trkpt lat="44.90487" lon="6.08033">
        <ele>1606</ele>
        <time>2020-07-21T05:04:39Z</time>
      </trkpt>
      <trkpt lat="44.90482" lon="6.08011">
        <ele>1602</ele>
        <time>2020-07-21T05:05:01Z</time>
      </trkpt>
      <trkpt lat="44.90495" lon="6.08018">
        <ele>1600</ele>
        <time>2020-07-21T05:05:19Z</time>
      </trkpt>
      <trkpt lat="44.90495" lon="6.08015">
        <ele>1599</ele>
        <time>2020-07-21T05:05:22Z</time>
      </trkpt>
      <trkpt lat="44.90482" lon="6.07979">
        <ele>1595</ele>
        <time>2020-07-21T05:06:00Z</time>
      </trkpt>
      <trkpt lat="44.90462" lon="6.07892">
        <ele>1583</ele>
        <time>2020-07-21T05:07:27Z</time>
      </trkpt>
      <trkpt lat="44.90445" lon="6.07864">
        <ele>1581</ele>
        <time>2020-07-21T05:08:01Z</time>
      </trkpt>
      <trkpt lat="44.90435" lon="6.07812">
        <ele>1568</ele>
        <time>2020-07-21T05:08:52Z</time>
      </trkpt>
      <trkpt lat="44.90406" lon="6.07776">
        <ele>1561</ele>
        <time>2020-07-21T05:09:44Z</time>
      </trkpt>
      <trkpt lat="44.90444" lon="6.07763">
        <ele>1549</ele>
        <time>2020-07-21T05:10:36Z</time>
      </trkpt>
      <trkpt lat="44.90419" lon="6.07718">
        <ele>1536</ele>
        <time>2020-07-21T05:11:30Z</time>
      </trkpt>
      <trkpt lat="44.9044" lon="6.07715">
        <ele>1534</ele>
        <time>2020-07-21T05:11:58Z</time>
      </trkpt>
      <trkpt lat="44.90474" lon="6.07694">
        <ele>1525</ele>
        <time>2020-07-21T05:12:48Z</time>
      </trkpt>
      <trkpt lat="44.90498" lon="6.07671">
        <ele>1517</ele>
        <time>2020-07-21T05:13:27Z</time>
      </trkpt>
      <trkpt lat="44.90521" lon="6.0763">
        <ele>1506</ele>
        <time>2020-07-21T05:14:16Z</time>
      </trkpt>
      <trkpt lat="44.9054" lon="6.07606">
        <ele>1499</ele>
        <time>2020-07-21T05:14:50Z</time>
      </trkpt>
      <trkpt lat="44.90547" lon="6.07602">
        <ele>1498</ele>
        <time>2020-07-21T05:15:00Z</time>
      </trkpt>
      <trkpt lat="44.90577" lon="6.07605">
        <ele>1496</ele>
        <time>2020-07-21T05:15:40Z</time>
      </trkpt>
      <trkpt lat="44.90589" lon="6.07615">
        <ele>1497</ele>
        <time>2020-07-21T05:15:59Z</time>
      </trkpt>
      <trkpt lat="44.90577" lon="6.07605">
        <ele>1496</ele>
        <time>2020-07-21T05:16:17Z</time>
      </trkpt>
      <trkpt lat="44.90581" lon="6.07595">
        <ele>1493</ele>
        <time>2020-07-21T05:16:28Z</time>
      </trkpt>
      <trkpt lat="44.90596" lon="6.07556">
        <ele>1488</ele>
        <time>2020-07-21T05:17:10Z</time>
      </trkpt>
      <trkpt lat="44.90594" lon="6.07548">
        <ele>1487</ele>
        <time>2020-07-21T05:17:18Z</time>
      </trkpt>
      <trkpt lat="44.90586" lon="6.07528">
        <ele>1484</ele>
        <time>2020-07-21T05:17:40Z</time>
      </trkpt>
      <trkpt lat="44.90559" lon="6.07475">
        <ele>1482</ele>
        <time>2020-07-21T05:18:42Z</time>
      </trkpt>
      <trkpt lat="44.9056" lon="6.07461">
        <ele>1480</ele>
        <time>2020-07-21T05:18:55Z</time>
      </trkpt>
      <trkpt lat="44.90577" lon="6.07403">
        <ele>1473</ele>
        <time>2020-07-21T05:19:54Z</time>
      </trkpt>
      <trkpt lat="44.90566" lon="6.0737">
        <ele>1472</ele>
        <time>2020-07-21T05:20:29Z</time>
      </trkpt>
      <trkpt lat="44.90549" lon="6.07327">
        <ele>1471</ele>
        <time>2020-07-21T05:21:15Z</time>
      </trkpt>
      <trkpt lat="44.90541" lon="6.07315">
        <ele>1472</ele>
        <time>2020-07-21T05:21:31Z</time>
      </trkpt>
      <trkpt lat="44.90538" lon="6.07294">
        <ele>1472</ele>
        <time>2020-07-21T05:21:51Z</time>
      </trkpt>
      <trkpt lat="44.90549" lon="6.0726">
        <ele>1467</ele>
        <time>2020-07-21T05:22:26Z</time>
      </trkpt>
      <trkpt lat="44.90552" lon="6.07234">
        <ele>1466</ele>
        <time>2020-07-21T05:22:51Z</time>
      </trkpt>
      <trkpt lat="44.90582" lon="6.07144">
        <ele>1454</ele>
        <time>2020-07-21T05:24:25Z</time>
      </trkpt>
      <trkpt lat="44.90588" lon="6.07118">
        <ele>1452</ele>
        <time>2020-07-21T05:24:51Z</time>
      </trkpt>
      <trkpt lat="44.90602" lon="6.07015">
        <ele>1445</ele>
        <time>2020-07-21T05:26:30Z</time>
      </trkpt>
      <trkpt lat="44.90601" lon="6.06995">
        <ele>1443</ele>
        <time>2020-07-21T05:26:49Z</time>
      </trkpt>
      <trkpt lat="44.90603" lon="6.0692">
        <ele>1438</ele>
        <time>2020-07-21T05:28:00Z</time>
      </trkpt>
      <trkpt lat="44.90627" lon="6.06849">
        <ele>1428</ele>
        <time>2020-07-21T05:29:15Z</time>
      </trkpt>
      <trkpt lat="44.90638" lon="6.06829">
        <ele>1424</ele>
        <time>2020-07-21T05:29:39Z</time>
      </trkpt>
      <trkpt lat="44.90636" lon="6.06797">
        <ele>1422</ele>
        <time>2020-07-21T05:30:09Z</time>
      </trkpt>
      <trkpt lat="44.90646" lon="6.06659">
        <ele>1415</ele>
        <time>2020-07-21T05:32:20Z</time>
      </trkpt>
      <trkpt lat="44.90655" lon="6.06616">
        <ele>1411</ele>
        <time>2020-07-21T05:33:02Z</time>
      </trkpt>
      <trkpt lat="44.90665" lon="6.0658">
        <ele>1406</ele>
        <time>2020-07-21T05:33:39Z</time>
      </trkpt>
      <trkpt lat="44.9069" lon="6.06504">
        <ele>1397</ele>
        <time>2020-07-21T05:34:58Z</time>
      </trkpt>
      <trkpt lat="44.90697" lon="6.06478">
        <ele>1393</ele>
        <time>2020-07-21T05:35:24Z</time>
      </trkpt>
      <trkpt lat="44.90702" lon="6.06443">
        <ele>1388</ele>
        <time>2020-07-21T05:35:58Z</time>
      </trkpt>
      <trkpt lat="44.90721" lon="6.06348">
        <ele>1376</ele>
        <time>2020-07-21T05:37:31Z</time>
      </trkpt>
      <trkpt lat="44.9073" lon="6.06232">
        <ele>1367</ele>
        <time>2020-07-21T05:39:22Z</time>
      </trkpt>
      <trkpt lat="44.90757" lon="6.0599">
        <ele>1347</ele>
        <time>2020-07-21T05:43:13Z</time>
      </trkpt>
      <trkpt lat="44.90761" lon="6.05935">
        <ele>1340</ele>
        <time>2020-07-21T05:44:06Z</time>
      </trkpt>
      <trkpt lat="44.90761" lon="6.05934">
        <ele>1340</ele>
        <time>2020-07-22T22:47:44Z</time>
      </trkpt>
      <trkpt lat="44.90757" lon="6.0599">
        <ele>1347</ele>
        <time>2020-07-22T22:48:37Z</time>
      </trkpt>
      <trkpt lat="44.9073" lon="6.06232">
        <ele>1367</ele>
        <time>2020-07-22T22:52:29Z</time>
      </trkpt>
      <trkpt lat="44.90721" lon="6.06348">
        <ele>1376</ele>
        <time>2020-07-22T22:54:19Z</time>
      </trkpt>
      <trkpt lat="44.90702" lon="6.06443">
        <ele>1388</ele>
        <time>2020-07-22T22:55:52Z</time>
      </trkpt>
      <trkpt lat="44.90697" lon="6.06478">
        <ele>1393</ele>
        <time>2020-07-22T22:56:26Z</time>
      </trkpt>
      <trkpt lat="44.9069" lon="6.06504">
        <ele>1397</ele>
        <time>2020-07-22T22:56:52Z</time>
      </trkpt>
      <trkpt lat="44.90665" lon="6.0658">
        <ele>1406</ele>
        <time>2020-07-22T22:58:12Z</time>
      </trkpt>
      <trkpt lat="44.90655" lon="6.06616">
        <ele>1411</ele>
        <time>2020-07-22T22:58:48Z</time>
      </trkpt>
      <trkpt lat="44.90646" lon="6.06659">
        <ele>1415</ele>
        <time>2020-07-22T22:59:30Z</time>
      </trkpt>
      <trkpt lat="44.90636" lon="6.06797">
        <ele>1422</ele>
        <time>2020-07-22T23:01:42Z</time>
      </trkpt>
      <trkpt lat="44.90638" lon="6.06829">
        <ele>1424</ele>
        <time>2020-07-22T23:02:12Z</time>
      </trkpt>
      <trkpt lat="44.90627" lon="6.06849">
        <ele>1428</ele>
        <time>2020-07-22T23:02:36Z</time>
      </trkpt>
      <trkpt lat="44.90603" lon="6.0692">
        <ele>1438</ele>
        <time>2020-07-22T23:03:50Z</time>
      </trkpt>
      <trkpt lat="44.90601" lon="6.06995">
        <ele>1443</ele>
        <time>2020-07-22T23:05:01Z</time>
      </trkpt>
      <trkpt lat="44.90602" lon="6.07015">
        <ele>1445</ele>
        <time>2020-07-22T23:05:20Z</time>
      </trkpt>
      <trkpt lat="44.90588" lon="6.07118">
        <ele>1452</ele>
        <time>2020-07-22T23:06:59Z</time>
      </trkpt>
      <trkpt lat="44.90582" lon="6.07144">
        <ele>1454</ele>
        <time>2020-07-22T23:07:25Z</time>
      </trkpt>
      <trkpt lat="44.90552" lon="6.07234">
        <ele>1466</ele>
        <time>2020-07-22T23:08:59Z</time>
      </trkpt>
      <trkpt lat="44.90549" lon="6.0726">
        <ele>1467</ele>
        <time>2020-07-22T23:09:24Z</time>
      </trkpt>
      <trkpt lat="44.90538" lon="6.07294">
        <ele>1472</ele>
        <time>2020-07-22T23:09:59Z</time>
      </trkpt>
      <trkpt lat="44.90541" lon="6.07315">
        <ele>1472</ele>
        <time>2020-07-22T23:10:20Z</time>
      </trkpt>
      <trkpt lat="44.90549" lon="6.07327">
        <ele>1471</ele>
        <time>2020-07-22T23:10:35Z</time>
      </trkpt>
      <trkpt lat="44.90566" lon="6.0737">
        <ele>1472</ele>
        <time>2020-07-22T23:11:22Z</time>
      </trkpt>
      <trkpt lat="44.90577" lon="6.07403">
        <ele>1473</ele>
        <time>2020-07-22T23:11:56Z</time>
      </trkpt>
      <trkpt lat="44.9056" lon="6.07461">
        <ele>1480</ele>
        <time>2020-07-22T23:12:56Z</time>
      </trkpt>
      <trkpt lat="44.90559" lon="6.07475">
        <ele>1482</ele>
        <time>2020-07-22T23:13:09Z</time>
      </trkpt>
      <trkpt lat="44.90586" lon="6.07528">
        <ele>1484</ele>
        <time>2020-07-22T23:14:11Z</time>
      </trkpt>
      <trkpt lat="44.90594" lon="6.07548">
        <ele>1487</ele>
        <time>2020-07-22T23:14:32Z</time>
      </trkpt>
      <trkpt lat="44.90596" lon="6.07556">
        <ele>1488</ele>
        <time>2020-07-22T23:14:40Z</time>
      </trkpt>
      <trkpt lat="44.90581" lon="6.07595">
        <ele>1493</ele>
        <time>2020-07-22T23:15:22Z</time>
      </trkpt>
      <trkpt lat="44.90577" lon="6.07605">
        <ele>1496</ele>
        <time>2020-07-22T23:15:33Z</time>
      </trkpt>
      <trkpt lat="44.9062" lon="6.07641">
        <ele>1502</ele>
        <time>2020-07-22T23:16:40Z</time>
      </trkpt>
      <trkpt lat="44.90666" lon="6.07701">
        <ele>1511</ele>
        <time>2020-07-22T23:18:03Z</time>
      </trkpt>
      <trkpt lat="44.90675" lon="6.07744">
        <ele>1521</ele>
        <time>2020-07-22T23:18:46Z</time>
      </trkpt>
      <trkpt lat="44.90684" lon="6.07756">
        <ele>1523</ele>
        <time>2020-07-22T23:19:02Z</time>
      </trkpt>
      <trkpt lat="44.90783" lon="6.07815">
        <ele>1537</ele>
        <time>2020-07-22T23:21:26Z</time>
      </trkpt>
      <trkpt lat="44.90801" lon="6.07863">
        <ele>1545</ele>
        <time>2020-07-22T23:22:17Z</time>
      </trkpt>
      <trkpt lat="44.9079" lon="6.07986">
        <ele>1565</ele>
        <time>2020-07-22T23:24:14Z</time>
      </trkpt>
      <trkpt lat="44.90793" lon="6.07994">
        <ele>1566</ele>
        <time>2020-07-22T23:24:23Z</time>
      </trkpt>
      <trkpt lat="44.90825" lon="6.08006">
        <ele>1570</ele>
        <time>2020-07-22T23:25:07Z</time>
      </trkpt>
      <trkpt lat="44.90843" lon="6.08052">
        <ele>1580</ele>
        <time>2020-07-22T23:25:57Z</time>
      </trkpt>
      <trkpt lat="44.90864" lon="6.08177">
        <ele>1606</ele>
        <time>2020-07-22T23:27:58Z</time>
      </trkpt>
      <trkpt lat="44.90888" lon="6.0821">
        <ele>1614</ele>
        <time>2020-07-22T23:28:43Z</time>
      </trkpt>
      <trkpt lat="44.90949" lon="6.0824">
        <ele>1630</ele>
        <time>2020-07-22T23:30:09Z</time>
      </trkpt>
      <trkpt lat="44.90959" lon="6.08253">
        <ele>1632</ele>
        <time>2020-07-22T23:30:27Z</time>
      </trkpt>
      <trkpt lat="44.90979" lon="6.08256">
        <ele>1638</ele>
        <time>2020-07-22T23:30:54Z</time>
      </trkpt>
      <trkpt lat="44.90993" lon="6.08277">
        <ele>1640</ele>
        <time>2020-07-22T23:31:21Z</time>
      </trkpt>
      <trkpt lat="44.91013" lon="6.08283">
        <ele>1646</ele>
        <time>2020-07-22T23:31:48Z</time>
      </trkpt>
      <trkpt lat="44.91026" lon="6.08272">
        <ele>1653</ele>
        <time>2020-07-22T23:32:09Z</time>
      </trkpt>
      <trkpt lat="44.91028" lon="6.08281">
        <ele>1652</ele>
        <time>2020-07-22T23:32:18Z</time>
      </trkpt>
      <trkpt lat="44.91035" lon="6.08276">
        <ele>1656</ele>
        <time>2020-07-22T23:32:28Z</time>
      </trkpt>
      <trkpt lat="44.91041" lon="6.08287">
        <ele>1656</ele>
        <time>2020-07-22T23:32:41Z</time>
      </trkpt>
      <trkpt lat="44.91051" lon="6.08276">
        <ele>1662</ele>
        <time>2020-07-22T23:32:58Z</time>
      </trkpt>
      <trkpt lat="44.91052" lon="6.08298">
        <ele>1659</ele>
        <time>2020-07-22T23:33:19Z</time>
      </trkpt>
      <trkpt lat="44.9107" lon="6.08299">
        <ele>1665</ele>
        <time>2020-07-22T23:33:43Z</time>
      </trkpt>
      <trkpt lat="44.91074" lon="6.08312">
        <ele>1664</ele>
        <time>2020-07-22T23:33:56Z</time>
      </trkpt>
      <trkpt lat="44.9114" lon="6.0839">
        <ele>1679</ele>
        <time>2020-07-22T23:35:51Z</time>
      </trkpt>
      <trkpt lat="44.91224" lon="6.08409">
        <ele>1706</ele>
        <time>2020-07-22T23:37:45Z</time>
      </trkpt>
      <trkpt lat="44.9125" lon="6.08427">
        <ele>1713</ele>
        <time>2020-07-22T23:38:23Z</time>
      </trkpt>
      <trkpt lat="44.91352" lon="6.08444">
        <ele>1740</ele>
        <time>2020-07-22T23:40:40Z</time>
      </trkpt>
      <trkpt lat="44.91331" lon="6.08384">
        <ele>1753</ele>
        <time>2020-07-22T23:41:44Z</time>
      </trkpt>
      <trkpt lat="44.91301" lon="6.08296">
        <ele>1775</ele>
        <time>2020-07-22T23:43:16Z</time>
      </trkpt>
      <trkpt lat="44.91349" lon="6.08298">
        <ele>1793</ele>
        <time>2020-07-22T23:44:20Z</time>
      </trkpt>
      <trkpt lat="44.91386" lon="6.08292">
        <ele>1809</ele>
        <time>2020-07-22T23:45:10Z</time>
      </trkpt>
      <trkpt lat="44.91425" lon="6.08288">
        <ele>1824</ele>
        <time>2020-07-22T23:46:02Z</time>
      </trkpt>
      <trkpt lat="44.91436" lon="6.0828">
        <ele>1831</ele>
        <time>2020-07-22T23:46:18Z</time>
      </trkpt>
      <trkpt lat="44.91463" lon="6.08283">
        <ele>1838</ele>
        <time>2020-07-22T23:46:55Z</time>
      </trkpt>
      <trkpt lat="44.91493" lon="6.08277">
        <ele>1850</ele>
        <time>2020-07-22T23:47:35Z</time>
      </trkpt>
      <trkpt lat="44.91554" lon="6.0829">
        <ele>1866</ele>
        <time>2020-07-22T23:48:57Z</time>
      </trkpt>
      <trkpt lat="44.91563" lon="6.08303">
        <ele>1864</ele>
        <time>2020-07-22T23:49:14Z</time>
      </trkpt>
      <trkpt lat="44.91621" lon="6.08323">
        <ele>1883</ele>
        <time>2020-07-22T23:50:34Z</time>
      </trkpt>
      <trkpt lat="44.91665" lon="6.08367">
        <ele>1887</ele>
        <time>2020-07-22T23:51:46Z</time>
      </trkpt>
      <trkpt lat="44.91695" lon="6.08386">
        <ele>1898</ele>
        <time>2020-07-22T23:52:30Z</time>
      </trkpt>
      <trkpt lat="44.91722" lon="6.08413">
        <ele>1905</ele>
        <time>2020-07-22T23:53:14Z</time>
      </trkpt>
      <trkpt lat="44.91736" lon="6.08421">
        <ele>1911</ele>
        <time>2020-07-22T23:53:34Z</time>
      </trkpt>
      <trkpt lat="44.91767" lon="6.08429">
        <ele>1923</ele>
        <time>2020-07-22T23:54:16Z</time>
      </trkpt>
      <trkpt lat="44.91776" lon="6.08448">
        <ele>1918</ele>
        <time>2020-07-22T23:54:38Z</time>
      </trkpt>
      <trkpt lat="44.91785" lon="6.08458">
        <ele>1919</ele>
        <time>2020-07-22T23:54:53Z</time>
      </trkpt>
      <trkpt lat="44.9179" lon="6.08474">
        <ele>1915</ele>
        <time>2020-07-22T23:55:10Z</time>
      </trkpt>
      <trkpt lat="44.91796" lon="6.08456">
        <ele>1925</ele>
        <time>2020-07-22T23:55:29Z</time>
      </trkpt>
      <trkpt lat="44.91799" lon="6.08417">
        <ele>1941</ele>
        <time>2020-07-22T23:56:06Z</time>
      </trkpt>
      <trkpt lat="44.91805" lon="6.08421">
        <ele>1942</ele>
        <time>2020-07-22T23:56:14Z</time>
      </trkpt>
      <trkpt lat="44.91817" lon="6.08439">
        <ele>1941</ele>
        <time>2020-07-22T23:56:38Z</time>
      </trkpt>
      <trkpt lat="44.91825" lon="6.08446">
        <ele>1942</ele>
        <time>2020-07-22T23:56:50Z</time>
      </trkpt>
      <trkpt lat="44.91849" lon="6.08449">
        <ele>1950</ele>
        <time>2020-07-22T23:57:23Z</time>
      </trkpt>
      <trkpt lat="44.91874" lon="6.08454">
        <ele>1955</ele>
        <time>2020-07-22T23:57:56Z</time>
      </trkpt>
      <trkpt lat="44.91892" lon="6.08449">
        <ele>1963</ele>
        <time>2020-07-22T23:58:21Z</time>
      </trkpt>
      <trkpt lat="44.91899" lon="6.08454">
        <ele>1962</ele>
        <time>2020-07-22T23:58:31Z</time>
      </trkpt>
      <trkpt lat="44.91909" lon="6.08456">
        <ele>1964</ele>
        <time>2020-07-22T23:58:45Z</time>
      </trkpt>
      <trkpt lat="44.91916" lon="6.08452">
        <ele>1968</ele>
        <time>2020-07-22T23:58:55Z</time>
      </trkpt>
      <trkpt lat="44.91906" lon="6.08406">
        <ele>1986</ele>
        <time>2020-07-22T23:59:40Z</time>
      </trkpt>
      <trkpt lat="44.91901" lon="6.0836">
        <ele>1999</ele>
        <time>2020-07-22T00:00:24Z</time>
      </trkpt>
      <trkpt lat="44.91947" lon="6.0837">
        <ele>2009</ele>
        <time>2020-07-22T00:01:26Z</time>
      </trkpt>
      <trkpt lat="44.9196" lon="6.0836">
        <ele>2016</ele>
        <time>2020-07-22T00:01:46Z</time>
      </trkpt>
      <trkpt lat="44.91983" lon="6.08362">
        <ele>2022</ele>
        <time>2020-07-22T00:02:17Z</time>
      </trkpt>
      <trkpt lat="44.91982" lon="6.08354">
        <ele>2025</ele>
        <time>2020-07-22T00:02:24Z</time>
      </trkpt>
      <trkpt lat="44.92016" lon="6.08343">
        <ele>2038</ele>
        <time>2020-07-22T00:03:11Z</time>
      </trkpt>
      <trkpt lat="44.92106" lon="6.08353">
        <ele>2059</ele>
        <time>2020-07-22T00:05:12Z</time>
      </trkpt>
      <trkpt lat="44.9213" lon="6.0833">
        <ele>2074</ele>
        <time>2020-07-22T00:05:50Z</time>
      </trkpt>
      <trkpt lat="44.92136" lon="6.08376">
        <ele>2063</ele>
        <time>2020-07-22T00:06:34Z</time>
      </trkpt>
      <trkpt lat="44.92183" lon="6.08373">
        <ele>2083</ele>
        <time>2020-07-22T00:07:37Z</time>
      </trkpt>
      <trkpt lat="44.92194" lon="6.08379">
        <ele>2086</ele>
        <time>2020-07-22T00:07:53Z</time>
      </trkpt>
      <trkpt lat="44.92214" lon="6.08404">
        <ele>2089</ele>
        <time>2020-07-22T00:08:29Z</time>
      </trkpt>
      <trkpt lat="44.92219" lon="6.08423">
        <ele>2087</ele>
        <time>2020-07-22T00:08:48Z</time>
      </trkpt>
      <trkpt lat="44.92281" lon="6.08455">
        <ele>2105</ele>
        <time>2020-07-22T00:10:16Z</time>
      </trkpt>
      <trkpt lat="44.92314" lon="6.08471">
        <ele>2111</ele>
        <time>2020-07-22T00:11:02Z</time>
      </trkpt>
      <trkpt lat="44.92339" lon="6.08473">
        <ele>2119</ele>
        <time>2020-07-22T00:11:36Z</time>
      </trkpt>
      <trkpt lat="44.92359" lon="6.08489">
        <ele>2122</ele>
        <time>2020-07-22T00:12:06Z</time>
      </trkpt>
      <trkpt lat="44.92456" lon="6.08494">
        <ele>2156</ele>
        <time>2020-07-22T00:14:16Z</time>
      </trkpt>
      <trkpt lat="44.92459" lon="6.08508">
        <ele>2153</ele>
        <time>2020-07-22T00:14:30Z</time>
      </trkpt>
      <trkpt lat="44.92513" lon="6.08544">
        <ele>2166</ele>
        <time>2020-07-22T00:15:49Z</time>
      </trkpt>
      <trkpt lat="44.92603" lon="6.08575">
        <ele>2191</ele>
        <time>2020-07-22T00:17:53Z</time>
      </trkpt>
      <trkpt lat="44.9262" lon="6.08581">
        <ele>2197</ele>
        <time>2020-07-22T00:18:16Z</time>
      </trkpt>
      <trkpt lat="44.92699" lon="6.08621">
        <ele>2222</ele>
        <time>2020-07-22T00:20:08Z</time>
      </trkpt>
      <trkpt lat="44.92706" lon="6.08609">
        <ele>2227</ele>
        <time>2020-07-22T00:20:23Z</time>
      </trkpt>
      <trkpt lat="44.92729" lon="6.08636">
        <ele>2235</ele>
        <time>2020-07-22T00:21:03Z</time>
      </trkpt>
      <trkpt lat="44.92731" lon="6.08623">
        <ele>2237</ele>
        <time>2020-07-22T00:21:16Z</time>
      </trkpt>
      <trkpt lat="44.92746" lon="6.08621">
        <ele>2245</ele>
        <time>2020-07-22T00:21:36Z</time>
      </trkpt>
      <trkpt lat="44.92747" lon="6.08613">
        <ele>2246</ele>
        <time>2020-07-22T00:21:43Z</time>
      </trkpt>
      <trkpt lat="44.92772" lon="6.08636">
        <ele>2257</ele>
        <time>2020-07-22T00:22:23Z</time>
      </trkpt>
      <trkpt lat="44.92774" lon="6.08613">
        <ele>2261</ele>
        <time>2020-07-22T00:22:45Z</time>
      </trkpt>
      <trkpt lat="44.9281" lon="6.08659">
        <ele>2272</ele>
        <time>2020-07-22T00:23:50Z</time>
      </trkpt>
      <trkpt lat="44.92815" lon="6.08642">
        <ele>2278</ele>
        <time>2020-07-22T00:24:07Z</time>
      </trkpt>
      <trkpt lat="44.92827" lon="6.08659">
        <ele>2280</ele>
        <time>2020-07-22T00:24:30Z</time>
      </trkpt>
      <trkpt lat="44.9283" lon="6.08651">
        <ele>2284</ele>
        <time>2020-07-22T00:24:39Z</time>
      </trkpt>
      <trkpt lat="44.92843" lon="6.08663">
        <ele>2289</ele>
        <time>2020-07-22T00:24:59Z</time>
      </trkpt>
      <trkpt lat="44.92863" lon="6.08653">
        <ele>2304</ele>
        <time>2020-07-22T00:25:28Z</time>
      </trkpt>
      <trkpt lat="44.92892" lon="6.08678">
        <ele>2320</ele>
        <time>2020-07-22T00:26:13Z</time>
      </trkpt>
      <trkpt lat="44.92927" lon="6.08686">
        <ele>2343</ele>
        <time>2020-07-22T00:27:00Z</time>
      </trkpt>
      <trkpt lat="44.92927" lon="6.08675">
        <ele>2343</ele>
        <time>2020-07-22T00:27:11Z</time>
      </trkpt>
      <trkpt lat="44.92945" lon="6.0868">
        <ele>2356</ele>
        <time>2020-07-22T00:27:35Z</time>
      </trkpt>
      <trkpt lat="44.92947" lon="6.08669">
        <ele>2357</ele>
        <time>2020-07-22T00:27:46Z</time>
      </trkpt>
      <trkpt lat="44.9297" lon="6.08677">
        <ele>2374</ele>
        <time>2020-07-22T00:28:17Z</time>
      </trkpt>
      <trkpt lat="44.92971" lon="6.08664">
        <ele>2375</ele>
        <time>2020-07-22T00:28:30Z</time>
      </trkpt>
      <trkpt lat="44.92978" lon="6.0867">
        <ele>2379</ele>
        <time>2020-07-22T00:28:41Z</time>
      </trkpt>
      <trkpt lat="44.9298" lon="6.08661">
        <ele>2382</ele>
        <time>2020-07-22T00:28:50Z</time>
      </trkpt>
      <trkpt lat="44.92995" lon="6.0869">
        <ele>2393</ele>
        <time>2020-07-22T00:29:24Z</time>
      </trkpt>
      <trkpt lat="44.93006" lon="6.08658">
        <ele>2402</ele>
        <time>2020-07-22T00:29:57Z</time>
      </trkpt>
      <trkpt lat="44.93009" lon="6.08671">
        <ele>2402</ele>
        <time>2020-07-22T00:30:10Z</time>
      </trkpt>
      <trkpt lat="44.93017" lon="6.08665">
        <ele>2408</ele>
        <time>2020-07-22T00:30:22Z</time>
      </trkpt>
      <trkpt lat="44.93017" lon="6.08675">
        <ele>2408</ele>
        <time>2020-07-22T00:30:32Z</time>
      </trkpt>
      <trkpt lat="44.93025" lon="6.08666">
        <ele>2414</ele>
        <time>2020-07-22T00:30:45Z</time>
      </trkpt>
      <trkpt lat="44.93029" lon="6.08671">
        <ele>2417</ele>
        <time>2020-07-22T00:30:52Z</time>
      </trkpt>
      <trkpt lat="44.93028" lon="6.08685">
        <ele>2418</ele>
        <time>2020-07-22T00:31:06Z</time>
      </trkpt>
      <trkpt lat="44.93036" lon="6.08686">
        <ele>2424</ele>
        <time>2020-07-22T00:31:16Z</time>
      </trkpt>
      <trkpt lat="44.93043" lon="6.08671">
        <ele>2428</ele>
        <time>2020-07-22T00:31:33Z</time>
      </trkpt>
      <trkpt lat="44.93061" lon="6.08672">
        <ele>2442</ele>
        <time>2020-07-22T00:31:57Z</time>
      </trkpt>
      <trkpt lat="44.93062" lon="6.08681">
        <ele>2444</ele>
        <time>2020-07-22T00:32:06Z</time>
      </trkpt>
      <trkpt lat="44.93069" lon="6.08676">
        <ele>2449</ele>
        <time>2020-07-22T00:32:17Z</time>
      </trkpt>
      <trkpt lat="44.9307" lon="6.08685">
        <ele>2451</ele>
        <time>2020-07-22T00:32:25Z</time>
      </trkpt>
      <trkpt lat="44.93076" lon="6.08682">
        <ele>2455</ele>
        <time>2020-07-22T00:32:34Z</time>
      </trkpt>
      <trkpt lat="44.93087" lon="6.08698">
        <ele>2468</ele>
        <time>2020-07-22T00:32:55Z</time>
      </trkpt>
      <trkpt lat="44.93091" lon="6.08692">
        <ele>2471</ele>
        <time>2020-07-22T00:33:02Z</time>
      </trkpt>
      <trkpt lat="44.931" lon="6.08708">
        <ele>2484</ele>
        <time>2020-07-22T00:33:22Z</time>
      </trkpt>
      <trkpt lat="44.93108" lon="6.08704">
        <ele>2493</ele>
        <time>2020-07-22T00:33:33Z</time>
      </trkpt>
      <trkpt lat="44.93106" lon="6.08711">
        <ele>2491</ele>
        <time>2020-07-22T00:33:40Z</time>
      </trkpt>
      <trkpt lat="44.93115" lon="6.08712">
        <ele>2502</ele>
        <time>2020-07-22T00:33:52Z</time>
      </trkpt>
      <trkpt lat="44.93141" lon="6.08739">
        <ele>2531</ele>
        <time>2020-07-22T00:34:35Z</time>
      </trkpt>
      <trkpt lat="44.93145" lon="6.0873">
        <ele>2536</ele>
        <time>2020-07-22T00:34:45Z</time>
      </trkpt>
      <trkpt lat="44.93148" lon="6.08745">
        <ele>2539</ele>
        <time>2020-07-22T00:35:00Z</time>
      </trkpt>
      <trkpt lat="44.93159" lon="6.08732">
        <ele>2551</ele>
        <time>2020-07-22T00:35:19Z</time>
      </trkpt>
      <trkpt lat="44.93156" lon="6.08752">
        <ele>2548</ele>
        <time>2020-07-22T00:35:39Z</time>
      </trkpt>
      <trkpt lat="44.93173" lon="6.08743">
        <ele>2562</ele>
        <time>2020-07-22T00:36:03Z</time>
      </trkpt>
      <trkpt lat="44.93169" lon="6.08751">
        <ele>2560</ele>
        <time>2020-07-22T00:36:12Z</time>
      </trkpt>
      <trkpt lat="44.93176" lon="6.08772">
        <ele>2574</ele>
        <time>2020-07-22T00:36:34Z</time>
      </trkpt>
      <trkpt lat="44.93188" lon="6.08755">
        <ele>2573</ele>
        <time>2020-07-22T00:36:57Z</time>
      </trkpt>
      <trkpt lat="44.93195" lon="6.08766">
        <ele>2581</ele>
        <time>2020-07-22T00:37:11Z</time>
      </trkpt>
      <trkpt lat="44.93194" lon="6.08785">
        <ele>2587</ele>
        <time>2020-07-22T00:37:29Z</time>
      </trkpt>
      <trkpt lat="44.93204" lon="6.08762">
        <ele>2585</ele>
        <time>2020-07-22T00:37:54Z</time>
      </trkpt>
      <trkpt lat="44.9321" lon="6.08779">
        <ele>2592</ele>
        <time>2020-07-22T00:38:12Z</time>
      </trkpt>
      <trkpt lat="44.93207" lon="6.088">
        <ele>2596</ele>
        <time>2020-07-22T00:38:32Z</time>
      </trkpt>
      <trkpt lat="44.93221" lon="6.08791">
        <ele>2599</ele>
        <time>2020-07-22T00:38:53Z</time>
      </trkpt>
      <trkpt lat="44.93231" lon="6.08801">
        <ele>2604</ele>
        <time>2020-07-22T00:39:09Z</time>
      </trkpt>
      <trkpt lat="44.93231" lon="6.08786">
        <ele>2602</ele>
        <time>2020-07-22T00:39:23Z</time>
      </trkpt>
      <trkpt lat="44.93238" lon="6.08805">
        <ele>2607</ele>
        <time>2020-07-22T00:39:44Z</time>
      </trkpt>
      <trkpt lat="44.93237" lon="6.0879">
        <ele>2605</ele>
        <time>2020-07-22T00:39:58Z</time>
      </trkpt>
      <trkpt lat="44.93244" lon="6.08783">
        <ele>2607</ele>
        <time>2020-07-22T00:40:09Z</time>
      </trkpt>
      <trkpt lat="44.93247" lon="6.08806">
        <ele>2609</ele>
        <time>2020-07-22T00:40:31Z</time>
      </trkpt>
      <trkpt lat="44.93259" lon="6.0878">
        <ele>2609</ele>
        <time>2020-07-22T00:41:01Z</time>
      </trkpt>
      <trkpt lat="44.93258" lon="6.08809">
        <ele>2608</ele>
        <time>2020-07-22T00:41:28Z</time>
      </trkpt>
      <trkpt lat="44.93278" lon="6.08845">
        <ele>2602</ele>
        <time>2020-07-22T00:42:11Z</time>
      </trkpt>
      <trkpt lat="44.93321" lon="6.08801">
        <ele>2597</ele>
        <time>2020-07-22T00:43:22Z</time>
      </trkpt>
      <trkpt lat="44.93411" lon="6.08767">
        <ele>2565</ele>
        <time>2020-07-22T00:45:27Z</time>
      </trkpt>
      <trkpt lat="44.93414" lon="6.08783">
        <ele>2557</ele>
        <time>2020-07-22T00:45:42Z</time>
      </trkpt>
      <trkpt lat="44.93411" lon="6.08837">
        <ele>2539</ele>
        <time>2020-07-22T00:46:33Z</time>
      </trkpt>
      <trkpt lat="44.93439" lon="6.08819">
        <ele>2536</ele>
        <time>2020-07-22T00:47:14Z</time>
      </trkpt>
      <trkpt lat="44.93431" lon="6.08882">
        <ele>2519</ele>
        <time>2020-07-22T00:48:15Z</time>
      </trkpt>
      <trkpt lat="44.93437" lon="6.08893">
        <ele>2514</ele>
        <time>2020-07-22T00:48:28Z</time>
      </trkpt>
      <trkpt lat="44.93454" lon="6.08893">
        <ele>2509</ele>
        <time>2020-07-22T00:48:51Z</time>
      </trkpt>
      <trkpt lat="44.93456" lon="6.08908">
        <ele>2505</ele>
        <time>2020-07-22T00:49:05Z</time>
      </trkpt>
      <trkpt lat="44.93471" lon="6.08906">
        <ele>2501</ele>
        <time>2020-07-22T00:49:25Z</time>
      </trkpt>
      <trkpt lat="44.93481" lon="6.08924">
        <ele>2494</ele>
        <time>2020-07-22T00:49:47Z</time>
      </trkpt>
      <trkpt lat="44.93532" lon="6.0892">
        <ele>2477</ele>
        <time>2020-07-22T00:50:55Z</time>
      </trkpt>
      <trkpt lat="44.93539" lon="6.08965">
        <ele>2470</ele>
        <time>2020-07-22T00:51:38Z</time>
      </trkpt>
      <trkpt lat="44.93542" lon="6.08962">
        <ele>2470</ele>
        <time>2020-07-22T00:51:43Z</time>
      </trkpt>
      <trkpt lat="44.93546" lon="6.08979">
        <ele>2466</ele>
        <time>2020-07-22T00:52:00Z</time>
      </trkpt>
      <trkpt lat="44.93552" lon="6.08982">
        <ele>2464</ele>
        <time>2020-07-22T00:52:09Z</time>
      </trkpt>
      <trkpt lat="44.93582" lon="6.08977">
        <ele>2453</ele>
        <time>2020-07-22T00:52:49Z</time>
      </trkpt>
      <trkpt lat="44.93588" lon="6.08957">
        <ele>2453</ele>
        <time>2020-07-22T00:53:10Z</time>
      </trkpt>
      <trkpt lat="44.93618" lon="6.0897">
        <ele>2439</ele>
        <time>2020-07-22T00:53:52Z</time>
      </trkpt>
      <trkpt lat="44.93622" lon="6.08963">
        <ele>2438</ele>
        <time>2020-07-22T00:54:00Z</time>
      </trkpt>
      <trkpt lat="44.93646" lon="6.08976">
        <ele>2428</ele>
        <time>2020-07-22T00:54:34Z</time>
      </trkpt>
      <trkpt lat="44.93679" lon="6.08979">
        <ele>2414</ele>
        <time>2020-07-22T00:55:18Z</time>
      </trkpt>
      <trkpt lat="44.93733" lon="6.08964">
        <ele>2394</ele>
        <time>2020-07-22T00:56:32Z</time>
      </trkpt>
      <trkpt lat="44.9374" lon="6.08973">
        <ele>2390</ele>
        <time>2020-07-22T00:56:45Z</time>
      </trkpt>
      <trkpt lat="44.93757" lon="6.08966">
        <ele>2385</ele>
        <time>2020-07-22T00:57:08Z</time>
      </trkpt>
      <trkpt lat="44.93775" lon="6.0898">
        <ele>2378</ele>
        <time>2020-07-22T00:57:36Z</time>
      </trkpt>
      <trkpt lat="44.93785" lon="6.08975">
        <ele>2377</ele>
        <time>2020-07-22T00:57:50Z</time>
      </trkpt>
      <trkpt lat="44.93796" lon="6.08986">
        <ele>2372</ele>
        <time>2020-07-22T00:58:08Z</time>
      </trkpt>
      <trkpt lat="44.93818" lon="6.08988">
        <ele>2366</ele>
        <time>2020-07-22T00:58:37Z</time>
      </trkpt>
      <trkpt lat="44.93894" lon="6.09025">
        <ele>2346</ele>
        <time>2020-07-22T01:00:24Z</time>
      </trkpt>
      <trkpt lat="44.93928" lon="6.09029">
        <ele>2336</ele>
        <time>2020-07-22T01:01:10Z</time>
      </trkpt>
      <trkpt lat="44.93935" lon="6.09016">
        <ele>2330</ele>
        <time>2020-07-22T01:01:25Z</time>
      </trkpt>
      <trkpt lat="44.93953" lon="6.09012">
        <ele>2324</ele>
        <time>2020-07-22T01:01:50Z</time>
      </trkpt>
      <trkpt lat="44.93994" lon="6.09023">
        <ele>2311</ele>
        <time>2020-07-22T01:02:45Z</time>
      </trkpt>
      <trkpt lat="44.94014" lon="6.09044">
        <ele>2307</ele>
        <time>2020-07-22T01:03:19Z</time>
      </trkpt>
      <trkpt lat="44.94061" lon="6.09052">
        <ele>2296</ele>
        <time>2020-07-22T01:04:22Z</time>
      </trkpt>
      <trkpt lat="44.94095" lon="6.09048">
        <ele>2290</ele>
        <time>2020-07-22T01:05:07Z</time>
      </trkpt>
      <trkpt lat="44.94099" lon="6.09038">
        <ele>2290</ele>
        <time>2020-07-22T01:05:18Z</time>
      </trkpt>
      <trkpt lat="44.94112" lon="6.09036">
        <ele>2290</ele>
        <time>2020-07-22T01:05:36Z</time>
      </trkpt>
      <trkpt lat="44.94195" lon="6.09096">
        <ele>2267</ele>
        <time>2020-07-22T01:07:40Z</time>
      </trkpt>
      <trkpt lat="44.94219" lon="6.09113">
        <ele>2262</ele>
        <time>2020-07-22T01:08:16Z</time>
      </trkpt>
      <trkpt lat="44.94241" lon="6.09103">
        <ele>2264</ele>
        <time>2020-07-22T01:08:47Z</time>
      </trkpt>
      <trkpt lat="44.94246" lon="6.09108">
        <ele>2262</ele>
        <time>2020-07-22T01:08:55Z</time>
      </trkpt>
      <trkpt lat="44.9427" lon="6.09146">
        <ele>2243</ele>
        <time>2020-07-22T01:09:43Z</time>
      </trkpt>
      <trkpt lat="44.94324" lon="6.09209">
        <ele>2220</ele>
        <time>2020-07-22T01:11:16Z</time>
      </trkpt>
      <trkpt lat="44.94323" lon="6.09215">
        <ele>2220</ele>
        <time>2020-07-22T01:11:22Z</time>
      </trkpt>
      <trkpt lat="44.94341" lon="6.09209">
        <ele>2214</ele>
        <time>2020-07-22T01:11:47Z</time>
      </trkpt>
      <trkpt lat="44.94365" lon="6.09211">
        <ele>2206</ele>
        <time>2020-07-22T01:12:19Z</time>
      </trkpt>
      <trkpt lat="44.94368" lon="6.09218">
        <ele>2204</ele>
        <time>2020-07-22T01:12:27Z</time>
      </trkpt>
      <trkpt lat="44.94387" lon="6.09195">
        <ele>2204</ele>
        <time>2020-07-22T01:13:00Z</time>
      </trkpt>
      <trkpt lat="44.94423" lon="6.09214">
        <ele>2189</ele>
        <time>2020-07-22T01:13:51Z</time>
      </trkpt>
      <trkpt lat="44.94424" lon="6.09221">
        <ele>2187</ele>
        <time>2020-07-22T01:13:58Z</time>
      </trkpt>
      <trkpt lat="44.94488" lon="6.09218">
        <ele>2180</ele>
        <time>2020-07-22T01:15:24Z</time>
      </trkpt>
      <trkpt lat="44.94536" lon="6.09281">
        <ele>2160</ele>
        <time>2020-07-22T01:16:51Z</time>
      </trkpt>
      <trkpt lat="44.94572" lon="6.09312">
        <ele>2149</ele>
        <time>2020-07-22T01:17:47Z</time>
      </trkpt>
      <trkpt lat="44.94599" lon="6.09312">
        <ele>2146</ele>
        <time>2020-07-22T01:18:23Z</time>
      </trkpt>
      <trkpt lat="44.94617" lon="6.09335">
        <ele>2138</ele>
        <time>2020-07-22T01:18:56Z</time>
      </trkpt>
      <trkpt lat="44.9474" lon="6.0935">
        <ele>2125</ele>
        <time>2020-07-22T01:21:40Z</time>
      </trkpt>
      <trkpt lat="44.9479" lon="6.09381">
        <ele>2121</ele>
        <time>2020-07-22T01:22:53Z</time>
      </trkpt>
      <trkpt lat="44.94835" lon="6.09389">
        <ele>2119</ele>
        <time>2020-07-22T01:23:54Z</time>
      </trkpt>
      <trkpt lat="44.94896" lon="6.09418">
        <ele>2114</ele>
        <time>2020-07-22T01:25:20Z</time>
      </trkpt>
      <trkpt lat="44.9493" lon="6.09444">
        <ele>2112</ele>
        <time>2020-07-22T01:26:11Z</time>
      </trkpt>
      <trkpt lat="44.94933" lon="6.09445">
        <ele>2112</ele>
        <time>2020-07-22T01:26:15Z</time>
      </trkpt>
      <trkpt lat="44.94965" lon="6.09454">
        <ele>2111</ele>
        <time>2020-07-22T01:26:59Z</time>
      </trkpt>
      <trkpt lat="44.95016" lon="6.09455">
        <ele>2110</ele>
        <time>2020-07-22T01:28:07Z</time>
      </trkpt>
      <trkpt lat="44.95056" lon="6.09475">
        <ele>2108</ele>
        <time>2020-07-22T01:29:04Z</time>
      </trkpt>
      <trkpt lat="44.95071" lon="6.09491">
        <ele>2106</ele>
        <time>2020-07-22T01:29:29Z</time>
      </trkpt>
      <trkpt lat="44.95092" lon="6.0952">
        <ele>2105</ele>
        <time>2020-07-22T01:30:08Z</time>
      </trkpt>
      <trkpt lat="44.95097" lon="6.09519">
        <ele>2105</ele>
        <time>2020-07-22T01:30:15Z</time>
      </trkpt>
      <trkpt lat="44.95105" lon="6.09509">
        <ele>2106</ele>
        <time>2020-07-22T01:30:29Z</time>
      </trkpt>
      <trkpt lat="44.95109" lon="6.09512">
        <ele>2106</ele>
        <time>2020-07-22T01:30:35Z</time>
      </trkpt>
      <trkpt lat="44.9511" lon="6.09531">
        <ele>2106</ele>
        <time>2020-07-22T01:30:53Z</time>
      </trkpt>
      <trkpt lat="44.95117" lon="6.09546">
        <ele>2106</ele>
        <time>2020-07-22T01:31:10Z</time>
      </trkpt>
      <trkpt lat="44.95132" lon="6.09566">
        <ele>2106</ele>
        <time>2020-07-22T01:31:37Z</time>
      </trkpt>
      <trkpt lat="44.95158" lon="6.09575">
        <ele>2107</ele>
        <time>2020-07-22T01:32:13Z</time>
      </trkpt>
      <trkpt lat="44.9518" lon="6.09586">
        <ele>2109</ele>
        <time>2020-07-22T01:32:44Z</time>
      </trkpt>
      <trkpt lat="44.95186" lon="6.096">
        <ele>2109</ele>
        <time>2020-07-22T01:33:00Z</time>
      </trkpt>
      <trkpt lat="44.95193" lon="6.09604">
        <ele>2109</ele>
        <time>2020-07-22T01:33:10Z</time>
      </trkpt>
      <trkpt lat="44.95202" lon="6.09618">
        <ele>2109</ele>
        <time>2020-07-22T01:33:28Z</time>
      </trkpt>
      <trkpt lat="44.95213" lon="6.0964">
        <ele>2109</ele>
        <time>2020-07-22T01:33:53Z</time>
      </trkpt>
      <trkpt lat="44.95297" lon="6.09725">
        <ele>2120</ele>
        <time>2020-07-22T01:36:11Z</time>
      </trkpt>
      <trkpt lat="44.95308" lon="6.09733">
        <ele>2122</ele>
        <time>2020-07-22T01:36:28Z</time>
      </trkpt>
      <trkpt lat="44.95297" lon="6.09725">
        <ele>2120</ele>
        <time>2020-07-22T01:36:44Z</time>
      </trkpt>
      <trkpt lat="44.95213" lon="6.0964">
        <ele>2109</ele>
        <time>2020-07-22T01:39:02Z</time>
      </trkpt>
      <trkpt lat="44.95202" lon="6.09618">
        <ele>2109</ele>
        <time>2020-07-22T01:39:27Z</time>
      </trkpt>
      <trkpt lat="44.95193" lon="6.09604">
        <ele>2109</ele>
        <time>2020-07-22T01:39:45Z</time>
      </trkpt>
      <trkpt lat="44.95186" lon="6.096">
        <ele>2109</ele>
        <time>2020-07-22T01:39:55Z</time>
      </trkpt>
      <trkpt lat="44.9518" lon="6.09586">
        <ele>2109</ele>
        <time>2020-07-22T01:40:11Z</time>
      </trkpt>
      <trkpt lat="44.95158" lon="6.09575">
        <ele>2107</ele>
        <time>2020-07-22T01:40:42Z</time>
      </trkpt>
      <trkpt lat="44.95132" lon="6.09566">
        <ele>2106</ele>
        <time>2020-07-22T01:41:18Z</time>
      </trkpt>
      <trkpt lat="44.95117" lon="6.09546">
        <ele>2106</ele>
        <time>2020-07-22T01:41:45Z</time>
      </trkpt>
      <trkpt lat="44.9511" lon="6.09531">
        <ele>2106</ele>
        <time>2020-07-22T01:42:02Z</time>
      </trkpt>
      <trkpt lat="44.95109" lon="6.09512">
        <ele>2106</ele>
        <time>2020-07-22T01:42:20Z</time>
      </trkpt>
      <trkpt lat="44.95105" lon="6.09509">
        <ele>2106</ele>
        <time>2020-07-22T01:42:26Z</time>
      </trkpt>
      <trkpt lat="44.95097" lon="6.09519">
        <ele>2105</ele>
        <time>2020-07-22T01:42:40Z</time>
      </trkpt>
      <trkpt lat="44.95092" lon="6.0952">
        <ele>2105</ele>
        <time>2020-07-22T01:42:47Z</time>
      </trkpt>
      <trkpt lat="44.95071" lon="6.09491">
        <ele>2106</ele>
        <time>2020-07-22T01:43:26Z</time>
      </trkpt>
      <trkpt lat="44.95056" lon="6.09475">
        <ele>2108</ele>
        <time>2020-07-22T01:43:51Z</time>
      </trkpt>
      <trkpt lat="44.95016" lon="6.09455">
        <ele>2110</ele>
        <time>2020-07-22T01:44:48Z</time>
      </trkpt>
      <trkpt lat="44.94965" lon="6.09454">
        <ele>2111</ele>
        <time>2020-07-22T01:45:56Z</time>
      </trkpt>
      <trkpt lat="44.94933" lon="6.09445">
        <ele>2112</ele>
        <time>2020-07-22T01:46:40Z</time>
      </trkpt>
      <trkpt lat="44.94925" lon="6.0944">
        <ele>2112</ele>
        <time>2020-07-23T22:47:16Z</time>
      </trkpt>
      <trkpt lat="44.9493" lon="6.09444">
        <ele>2112</ele>
        <time>2020-07-23T22:47:24Z</time>
      </trkpt>
      <trkpt lat="44.94965" lon="6.09454">
        <ele>2111</ele>
        <time>2020-07-23T22:48:11Z</time>
      </trkpt>
      <trkpt lat="44.95016" lon="6.09455">
        <ele>2110</ele>
        <time>2020-07-23T22:49:19Z</time>
      </trkpt>
      <trkpt lat="44.95056" lon="6.09475">
        <ele>2108</ele>
        <time>2020-07-23T22:50:16Z</time>
      </trkpt>
      <trkpt lat="44.95071" lon="6.09491">
        <ele>2106</ele>
        <time>2020-07-23T22:50:41Z</time>
      </trkpt>
      <trkpt lat="44.95075" lon="6.09413">
        <ele>2114</ele>
        <time>2020-07-23T22:51:55Z</time>
      </trkpt>
      <trkpt lat="44.95073" lon="6.09387">
        <ele>2119</ele>
        <time>2020-07-23T22:52:20Z</time>
      </trkpt>
      <trkpt lat="44.95081" lon="6.09367">
        <ele>2122</ele>
        <time>2020-07-23T22:52:41Z</time>
      </trkpt>
      <trkpt lat="44.95112" lon="6.09331">
        <ele>2123</ele>
        <time>2020-07-23T22:53:35Z</time>
      </trkpt>
      <trkpt lat="44.95126" lon="6.09327">
        <ele>2121</ele>
        <time>2020-07-23T22:53:54Z</time>
      </trkpt>
      <trkpt lat="44.95132" lon="6.0931">
        <ele>2122</ele>
        <time>2020-07-23T22:54:12Z</time>
      </trkpt>
      <trkpt lat="44.95134" lon="6.09288">
        <ele>2124</ele>
        <time>2020-07-23T22:54:33Z</time>
      </trkpt>
      <trkpt lat="44.9513" lon="6.09253">
        <ele>2128</ele>
        <time>2020-07-23T22:55:06Z</time>
      </trkpt>
      <trkpt lat="44.95128" lon="6.09212">
        <ele>2138</ele>
        <time>2020-07-23T22:55:45Z</time>
      </trkpt>
      <trkpt lat="44.95132" lon="6.09196">
        <ele>2141</ele>
        <time>2020-07-23T22:56:01Z</time>
      </trkpt>
      <trkpt lat="44.95133" lon="6.0918">
        <ele>2145</ele>
        <time>2020-07-23T22:56:16Z</time>
      </trkpt>
      <trkpt lat="44.95139" lon="6.09167">
        <ele>2147</ele>
        <time>2020-07-23T22:56:31Z</time>
      </trkpt>
      <trkpt lat="44.95156" lon="6.09143">
        <ele>2152</ele>
        <time>2020-07-23T22:57:03Z</time>
      </trkpt>
      <trkpt lat="44.95159" lon="6.09121">
        <ele>2160</ele>
        <time>2020-07-23T22:57:24Z</time>
      </trkpt>
      <trkpt lat="44.95167" lon="6.0911">
        <ele>2161</ele>
        <time>2020-07-23T22:57:39Z</time>
      </trkpt>
      <trkpt lat="44.95169" lon="6.09097">
        <ele>2166</ele>
        <time>2020-07-23T22:57:52Z</time>
      </trkpt>
      <trkpt lat="44.95174" lon="6.09081">
        <ele>2171</ele>
        <time>2020-07-23T22:58:08Z</time>
      </trkpt>
      <trkpt lat="44.95186" lon="6.09066">
        <ele>2176</ele>
        <time>2020-07-23T22:58:30Z</time>
      </trkpt>
      <trkpt lat="44.95194" lon="6.09043">
        <ele>2186</ele>
        <time>2020-07-23T22:58:54Z</time>
      </trkpt>
      <trkpt lat="44.95198" lon="6.09026">
        <ele>2194</ele>
        <time>2020-07-23T22:59:11Z</time>
      </trkpt>
      <trkpt lat="44.95251" lon="6.08973">
        <ele>2188</ele>
        <time>2020-07-23T23:00:37Z</time>
      </trkpt>
      <trkpt lat="44.95237" lon="6.08971">
        <ele>2199</ele>
        <time>2020-07-23T23:00:56Z</time>
      </trkpt>
      <trkpt lat="44.9529" lon="6.08902">
        <ele>2204</ele>
        <time>2020-07-23T23:02:32Z</time>
      </trkpt>
      <trkpt lat="44.95293" lon="6.08891">
        <ele>2208</ele>
        <time>2020-07-23T23:02:43Z</time>
      </trkpt>
      <trkpt lat="44.95306" lon="6.08884">
        <ele>2206</ele>
        <time>2020-07-23T23:03:02Z</time>
      </trkpt>
      <trkpt lat="44.95318" lon="6.08872">
        <ele>2206</ele>
        <time>2020-07-23T23:03:22Z</time>
      </trkpt>
      <trkpt lat="44.95304" lon="6.08877">
        <ele>2210</ele>
        <time>2020-07-23T23:03:41Z</time>
      </trkpt>
      <trkpt lat="44.9531" lon="6.08871">
        <ele>2210</ele>
        <time>2020-07-23T23:03:51Z</time>
      </trkpt>
      <trkpt lat="44.953" lon="6.0887">
        <ele>2215</ele>
        <time>2020-07-23T23:04:04Z</time>
      </trkpt>
      <trkpt lat="44.95306" lon="6.08864">
        <ele>2215</ele>
        <time>2020-07-23T23:04:14Z</time>
      </trkpt>
      <trkpt lat="44.95295" lon="6.08865">
        <ele>2219</ele>
        <time>2020-07-23T23:04:29Z</time>
      </trkpt>
      <trkpt lat="44.95303" lon="6.08857">
        <ele>2220</ele>
        <time>2020-07-23T23:04:42Z</time>
      </trkpt>
      <trkpt lat="44.95294" lon="6.08856">
        <ele>2224</ele>
        <time>2020-07-23T23:04:54Z</time>
      </trkpt>
      <trkpt lat="44.95301" lon="6.0885">
        <ele>2224</ele>
        <time>2020-07-23T23:05:05Z</time>
      </trkpt>
      <trkpt lat="44.95293" lon="6.08849">
        <ele>2228</ele>
        <time>2020-07-23T23:05:15Z</time>
      </trkpt>
      <trkpt lat="44.95303" lon="6.0884">
        <ele>2227</ele>
        <time>2020-07-23T23:05:31Z</time>
      </trkpt>
      <trkpt lat="44.95298" lon="6.0884">
        <ele>2230</ele>
        <time>2020-07-23T23:05:38Z</time>
      </trkpt>
      <trkpt lat="44.95308" lon="6.08823">
        <ele>2233</ele>
        <time>2020-07-23T23:05:59Z</time>
      </trkpt>
      <trkpt lat="44.95302" lon="6.08825">
        <ele>2235</ele>
        <time>2020-07-23T23:06:07Z</time>
      </trkpt>
      <trkpt lat="44.95303" lon="6.08819">
        <ele>2237</ele>
        <time>2020-07-23T23:06:13Z</time>
      </trkpt>
      <trkpt lat="44.95296" lon="6.08824">
        <ele>2238</ele>
        <time>2020-07-23T23:06:23Z</time>
      </trkpt>
      <trkpt lat="44.95299" lon="6.08816">
        <ele>2240</ele>
        <time>2020-07-23T23:06:32Z</time>
      </trkpt>
      <trkpt lat="44.95292" lon="6.08821">
        <ele>2241</ele>
        <time>2020-07-23T23:06:42Z</time>
      </trkpt>
      <trkpt lat="44.95293" lon="6.08812">
        <ele>2244</ele>
        <time>2020-07-23T23:06:51Z</time>
      </trkpt>
      <trkpt lat="44.95289" lon="6.08815">
        <ele>2245</ele>
        <time>2020-07-23T23:06:57Z</time>
      </trkpt>
      <trkpt lat="44.95291" lon="6.08806">
        <ele>2248</ele>
        <time>2020-07-23T23:07:06Z</time>
      </trkpt>
      <trkpt lat="44.95285" lon="6.08813">
        <ele>2247</ele>
        <time>2020-07-23T23:07:16Z</time>
      </trkpt>
      <trkpt lat="44.95292" lon="6.08789">
        <ele>2255</ele>
        <time>2020-07-23T23:07:41Z</time>
      </trkpt>
      <trkpt lat="44.95283" lon="6.08798">
        <ele>2255</ele>
        <time>2020-07-23T23:07:55Z</time>
      </trkpt>
      <trkpt lat="44.95285" lon="6.08783">
        <ele>2261</ele>
        <time>2020-07-23T23:08:10Z</time>
      </trkpt>
      <trkpt lat="44.95278" lon="6.08788">
        <ele>2262</ele>
        <time>2020-07-23T23:08:20Z</time>
      </trkpt>
      <trkpt lat="44.95282" lon="6.08768">
        <ele>2268</ele>
        <time>2020-07-23T23:08:40Z</time>
      </trkpt>
      <trkpt lat="44.95284" lon="6.08764">
        <ele>2269</ele>
        <time>2020-07-23T23:08:45Z</time>
      </trkpt>
      <trkpt lat="44.95282" lon="6.08748">
        <ele>2278</ele>
        <time>2020-07-23T23:09:00Z</time>
      </trkpt>
      <trkpt lat="44.95294" lon="6.08712">
        <ele>2293</ele>
        <time>2020-07-23T23:09:37Z</time>
      </trkpt>
      <trkpt lat="44.95307" lon="6.08682">
        <ele>2301</ele>
        <time>2020-07-23T23:10:11Z</time>
      </trkpt>
      <trkpt lat="44.95309" lon="6.0867">
        <ele>2306</ele>
        <time>2020-07-23T23:10:22Z</time>
      </trkpt>
      <trkpt lat="44.95317" lon="6.08665">
        <ele>2302</ele>
        <time>2020-07-23T23:10:34Z</time>
      </trkpt>
      <trkpt lat="44.95326" lon="6.08647">
        <ele>2302</ele>
        <time>2020-07-23T23:10:55Z</time>
      </trkpt>
      <trkpt lat="44.95336" lon="6.08637">
        <ele>2300</ele>
        <time>2020-07-23T23:11:11Z</time>
      </trkpt>
      <trkpt lat="44.9535" lon="6.08637">
        <ele>2295</ele>
        <time>2020-07-23T23:11:30Z</time>
      </trkpt>
      <trkpt lat="44.95372" lon="6.08626">
        <ele>2292</ele>
        <time>2020-07-23T23:12:01Z</time>
      </trkpt>
      <trkpt lat="44.95382" lon="6.08615">
        <ele>2295</ele>
        <time>2020-07-23T23:12:18Z</time>
      </trkpt>
      <trkpt lat="44.95375" lon="6.08613">
        <ele>2298</ele>
        <time>2020-07-23T23:12:27Z</time>
      </trkpt>
      <trkpt lat="44.95379" lon="6.08605">
        <ele>2300</ele>
        <time>2020-07-23T23:12:37Z</time>
      </trkpt>
      <trkpt lat="44.95393" lon="6.08598">
        <ele>2300</ele>
        <time>2020-07-23T23:12:57Z</time>
      </trkpt>
      <trkpt lat="44.95401" lon="6.08579">
        <ele>2307</ele>
        <time>2020-07-23T23:13:17Z</time>
      </trkpt>
      <trkpt lat="44.95415" lon="6.0857">
        <ele>2308</ele>
        <time>2020-07-23T23:13:38Z</time>
      </trkpt>
      <trkpt lat="44.9542" lon="6.08553">
        <ele>2315</ele>
        <time>2020-07-23T23:13:55Z</time>
      </trkpt>
      <trkpt lat="44.95437" lon="6.08548">
        <ele>2316</ele>
        <time>2020-07-23T23:14:18Z</time>
      </trkpt>
      <trkpt lat="44.95442" lon="6.08544">
        <ele>2318</ele>
        <time>2020-07-23T23:14:26Z</time>
      </trkpt>
      <trkpt lat="44.95435" lon="6.08539">
        <ele>2321</ele>
        <time>2020-07-23T23:14:37Z</time>
      </trkpt>
      <trkpt lat="44.95441" lon="6.08536">
        <ele>2322</ele>
        <time>2020-07-23T23:14:45Z</time>
      </trkpt>
      <trkpt lat="44.95441" lon="6.0853">
        <ele>2325</ele>
        <time>2020-07-23T23:14:51Z</time>
      </trkpt>
      <trkpt lat="44.95446" lon="6.08533">
        <ele>2323</ele>
        <time>2020-07-23T23:14:58Z</time>
      </trkpt>
      <trkpt lat="44.9545" lon="6.0853">
        <ele>2325</ele>
        <time>2020-07-23T23:15:04Z</time>
      </trkpt>
      <trkpt lat="44.95441" lon="6.08521">
        <ele>2330</ele>
        <time>2020-07-23T23:15:19Z</time>
      </trkpt>
      <trkpt lat="44.95425" lon="6.08519">
        <ele>2330</ele>
        <time>2020-07-23T23:15:40Z</time>
      </trkpt>
      <trkpt lat="44.95438" lon="6.08509">
        <ele>2336</ele>
        <time>2020-07-23T23:16:00Z</time>
      </trkpt>
      <trkpt lat="44.95446" lon="6.08512">
        <ele>2334</ele>
        <time>2020-07-23T23:16:11Z</time>
      </trkpt>
      <trkpt lat="44.95443" lon="6.08506">
        <ele>2337</ele>
        <time>2020-07-23T23:16:18Z</time>
      </trkpt>
      <trkpt lat="44.95447" lon="6.08505">
        <ele>2338</ele>
        <time>2020-07-23T23:16:23Z</time>
      </trkpt>
      <trkpt lat="44.95442" lon="6.08501">
        <ele>2340</ele>
        <time>2020-07-23T23:16:31Z</time>
      </trkpt>
      <trkpt lat="44.95449" lon="6.08499">
        <ele>2341</ele>
        <time>2020-07-23T23:16:41Z</time>
      </trkpt>
      <trkpt lat="44.95452" lon="6.08491">
        <ele>2345</ele>
        <time>2020-07-23T23:16:49Z</time>
      </trkpt>
      <trkpt lat="44.95444" lon="6.08493">
        <ele>2344</ele>
        <time>2020-07-23T23:17:00Z</time>
      </trkpt>
      <trkpt lat="44.95448" lon="6.08489">
        <ele>2346</ele>
        <time>2020-07-23T23:17:06Z</time>
      </trkpt>
      <trkpt lat="44.95443" lon="6.08487">
        <ele>2346</ele>
        <time>2020-07-23T23:17:13Z</time>
      </trkpt>
      <trkpt lat="44.95448" lon="6.08484">
        <ele>2348</ele>
        <time>2020-07-23T23:17:21Z</time>
      </trkpt>
      <trkpt lat="44.95444" lon="6.0848">
        <ele>2350</ele>
        <time>2020-07-23T23:17:27Z</time>
      </trkpt>
      <trkpt lat="44.95456" lon="6.0847">
        <ele>2355</ele>
        <time>2020-07-23T23:17:46Z</time>
      </trkpt>
      <trkpt lat="44.95451" lon="6.0847">
        <ele>2355</ele>
        <time>2020-07-23T23:17:52Z</time>
      </trkpt>
      <trkpt lat="44.95442" lon="6.08464">
        <ele>2357</ele>
        <time>2020-07-23T23:18:06Z</time>
      </trkpt>
      <trkpt lat="44.95459" lon="6.08456">
        <ele>2362</ele>
        <time>2020-07-23T23:18:30Z</time>
      </trkpt>
      <trkpt lat="44.95439" lon="6.08442">
        <ele>2367</ele>
        <time>2020-07-23T23:18:59Z</time>
      </trkpt>
      <trkpt lat="44.95462" lon="6.08437">
        <ele>2371</ele>
        <time>2020-07-23T23:19:31Z</time>
      </trkpt>
      <trkpt lat="44.95439" lon="6.08413">
        <ele>2380</ele>
        <time>2020-07-23T23:20:09Z</time>
      </trkpt>
      <trkpt lat="44.95466" lon="6.08415">
        <ele>2382</ele>
        <time>2020-07-23T23:20:45Z</time>
      </trkpt>
      <trkpt lat="44.95456" lon="6.08406">
        <ele>2385</ele>
        <time>2020-07-23T23:21:01Z</time>
      </trkpt>
      <trkpt lat="44.95447" lon="6.08389">
        <ele>2391</ele>
        <time>2020-07-23T23:21:21Z</time>
      </trkpt>
      <trkpt lat="44.95459" lon="6.08394">
        <ele>2391</ele>
        <time>2020-07-23T23:21:37Z</time>
      </trkpt>
      <trkpt lat="44.95467" lon="6.08393">
        <ele>2392</ele>
        <time>2020-07-23T23:21:48Z</time>
      </trkpt>
      <trkpt lat="44.95462" lon="6.08387">
        <ele>2394</ele>
        <time>2020-07-23T23:21:57Z</time>
      </trkpt>
      <trkpt lat="44.95449" lon="6.08361">
        <ele>2402</ele>
        <time>2020-07-23T23:22:27Z</time>
      </trkpt>
      <trkpt lat="44.95442" lon="6.0835">
        <ele>2405</ele>
        <time>2020-07-23T23:22:41Z</time>
      </trkpt>
      <trkpt lat="44.95473" lon="6.08358">
        <ele>2410</ele>
        <time>2020-07-23T23:23:23Z</time>
      </trkpt>
      <trkpt lat="44.9545" lon="6.08318">
        <ele>2423</ele>
        <time>2020-07-23T23:24:12Z</time>
      </trkpt>
      <trkpt lat="44.9548" lon="6.08322">
        <ele>2431</ele>
        <time>2020-07-23T23:24:52Z</time>
      </trkpt>
      <trkpt lat="44.95485" lon="6.0832">
        <ele>2435</ele>
        <time>2020-07-23T23:24:59Z</time>
      </trkpt>
      <trkpt lat="44.95447" lon="6.08272">
        <ele>2448</ele>
        <time>2020-07-23T23:26:07Z</time>
      </trkpt>
      <trkpt lat="44.95477" lon="6.08274">
        <ele>2461</ele>
        <time>2020-07-23T23:26:47Z</time>
      </trkpt>
      <trkpt lat="44.95494" lon="6.08279">
        <ele>2465</ele>
        <time>2020-07-23T23:27:10Z</time>
      </trkpt>
      <trkpt lat="44.95488" lon="6.08268">
        <ele>2469</ele>
        <time>2020-07-23T23:27:23Z</time>
      </trkpt>
      <trkpt lat="44.95496" lon="6.08269">
        <ele>2472</ele>
        <time>2020-07-23T23:27:34Z</time>
      </trkpt>
      <trkpt lat="44.95488" lon="6.08262">
        <ele>2473</ele>
        <time>2020-07-23T23:27:46Z</time>
      </trkpt>
      <trkpt lat="44.95494" lon="6.08262">
        <ele>2476</ele>
        <time>2020-07-23T23:27:54Z</time>
      </trkpt>
      <trkpt lat="44.9549" lon="6.08257">
        <ele>2478</ele>
        <time>2020-07-23T23:28:01Z</time>
      </trkpt>
      <trkpt lat="44.95499" lon="6.08257">
        <ele>2482</ele>
        <time>2020-07-23T23:28:13Z</time>
      </trkpt>
      <trkpt lat="44.9548" lon="6.08245">
        <ele>2480</ele>
        <time>2020-07-23T23:28:41Z</time>
      </trkpt>
      <trkpt lat="44.9549" lon="6.08243">
        <ele>2486</ele>
        <time>2020-07-23T23:28:55Z</time>
      </trkpt>
      <trkpt lat="44.95483" lon="6.08239">
        <ele>2485</ele>
        <time>2020-07-23T23:29:05Z</time>
      </trkpt>
      <trkpt lat="44.95493" lon="6.08237">
        <ele>2491</ele>
        <time>2020-07-23T23:29:18Z</time>
      </trkpt>
      <trkpt lat="44.95473" lon="6.08224">
        <ele>2490</ele>
        <time>2020-07-23T23:29:48Z</time>
      </trkpt>
      <trkpt lat="44.95486" lon="6.08222">
        <ele>2497</ele>
        <time>2020-07-23T23:30:05Z</time>
      </trkpt>
      <trkpt lat="44.95478" lon="6.08213">
        <ele>2499</ele>
        <time>2020-07-23T23:30:19Z</time>
      </trkpt>
      <trkpt lat="44.955" lon="6.08212">
        <ele>2509</ele>
        <time>2020-07-23T23:30:48Z</time>
      </trkpt>
      <trkpt lat="44.95491" lon="6.08203">
        <ele>2511</ele>
        <time>2020-07-23T23:31:03Z</time>
      </trkpt>
      <trkpt lat="44.95501" lon="6.08202">
        <ele>2515</ele>
        <time>2020-07-23T23:31:16Z</time>
      </trkpt>
      <trkpt lat="44.95465" lon="6.08169">
        <ele>2522</ele>
        <time>2020-07-23T23:32:13Z</time>
      </trkpt>
      <trkpt lat="44.95452" lon="6.08152">
        <ele>2520</ele>
        <time>2020-07-23T23:32:37Z</time>
      </trkpt>
      <trkpt lat="44.95442" lon="6.08136">
        <ele>2519</ele>
        <time>2020-07-23T23:32:57Z</time>
      </trkpt>
      <trkpt lat="44.95427" lon="6.0813">
        <ele>2517</ele>
        <time>2020-07-23T23:33:18Z</time>
      </trkpt>
      <trkpt lat="44.95448" lon="6.08125">
        <ele>2522</ele>
        <time>2020-07-23T23:33:47Z</time>
      </trkpt>
      <trkpt lat="44.95437" lon="6.08103">
        <ele>2522</ele>
        <time>2020-07-23T23:34:12Z</time>
      </trkpt>
      <trkpt lat="44.95453" lon="6.08077">
        <ele>2525</ele>
        <time>2020-07-23T23:34:44Z</time>
      </trkpt>
      <trkpt lat="44.95474" lon="6.08063">
        <ele>2524</ele>
        <time>2020-07-23T23:35:15Z</time>
      </trkpt>
      <trkpt lat="44.95482" lon="6.08055">
        <ele>2523</ele>
        <time>2020-07-23T23:35:29Z</time>
      </trkpt>
      <trkpt lat="44.95502" lon="6.08056">
        <ele>2522</ele>
        <time>2020-07-23T23:35:55Z</time>
      </trkpt>
      <trkpt lat="44.9555" lon="6.08039">
        <ele>2512</ele>
        <time>2020-07-23T23:37:01Z</time>
      </trkpt>
      <trkpt lat="44.95593" lon="6.08047">
        <ele>2505</ele>
        <time>2020-07-23T23:37:59Z</time>
      </trkpt>
      <trkpt lat="44.95604" lon="6.08041">
        <ele>2501</ele>
        <time>2020-07-23T23:38:15Z</time>
      </trkpt>
      <trkpt lat="44.95627" lon="6.08043">
        <ele>2495</ele>
        <time>2020-07-23T23:38:46Z</time>
      </trkpt>
      <trkpt lat="44.95634" lon="6.0804">
        <ele>2492</ele>
        <time>2020-07-23T23:38:55Z</time>
      </trkpt>
      <trkpt lat="44.95679" lon="6.08056">
        <ele>2480</ele>
        <time>2020-07-23T23:39:57Z</time>
      </trkpt>
      <trkpt lat="44.95716" lon="6.08087">
        <ele>2473</ele>
        <time>2020-07-23T23:40:55Z</time>
      </trkpt>
      <trkpt lat="44.95735" lon="6.08094">
        <ele>2468</ele>
        <time>2020-07-23T23:41:21Z</time>
      </trkpt>
      <trkpt lat="44.95758" lon="6.08094">
        <ele>2460</ele>
        <time>2020-07-23T23:41:52Z</time>
      </trkpt>
      <trkpt lat="44.95771" lon="6.08102">
        <ele>2460</ele>
        <time>2020-07-23T23:42:11Z</time>
      </trkpt>
      <trkpt lat="44.9578" lon="6.08113">
        <ele>2462</ele>
        <time>2020-07-23T23:42:26Z</time>
      </trkpt>
      <trkpt lat="44.95793" lon="6.08116">
        <ele>2460</ele>
        <time>2020-07-23T23:42:44Z</time>
      </trkpt>
      <trkpt lat="44.9579" lon="6.08109">
        <ele>2458</ele>
        <time>2020-07-23T23:42:52Z</time>
      </trkpt>
      <trkpt lat="44.95798" lon="6.08102">
        <ele>2454</ele>
        <time>2020-07-23T23:43:04Z</time>
      </trkpt>
      <trkpt lat="44.95787" lon="6.08094">
        <ele>2453</ele>
        <time>2020-07-23T23:43:21Z</time>
      </trkpt>
      <trkpt lat="44.95806" lon="6.08085">
        <ele>2445</ele>
        <time>2020-07-23T23:43:48Z</time>
      </trkpt>
      <trkpt lat="44.95826" lon="6.0809">
        <ele>2442</ele>
        <time>2020-07-23T23:44:15Z</time>
      </trkpt>
      <trkpt lat="44.95845" lon="6.08077">
        <ele>2435</ele>
        <time>2020-07-23T23:44:43Z</time>
      </trkpt>
      <trkpt lat="44.95835" lon="6.08069">
        <ele>2433</ele>
        <time>2020-07-23T23:44:58Z</time>
      </trkpt>
      <trkpt lat="44.95848" lon="6.08057">
        <ele>2427</ele>
        <time>2020-07-23T23:45:19Z</time>
      </trkpt>
      <trkpt lat="44.95842" lon="6.08054">
        <ele>2426</ele>
        <time>2020-07-23T23:45:27Z</time>
      </trkpt>
      <trkpt lat="44.95871" lon="6.08037">
        <ele>2416</ele>
        <time>2020-07-23T23:46:09Z</time>
      </trkpt>
      <trkpt lat="44.95867" lon="6.08024">
        <ele>2411</ele>
        <time>2020-07-23T23:46:23Z</time>
      </trkpt>
      <trkpt lat="44.95898" lon="6.08002">
        <ele>2396</ele>
        <time>2020-07-23T23:47:09Z</time>
      </trkpt>
      <trkpt lat="44.95898" lon="6.07987">
        <ele>2390</ele>
        <time>2020-07-23T23:47:23Z</time>
      </trkpt>
      <trkpt lat="44.95893" lon="6.07976">
        <ele>2388</ele>
        <time>2020-07-23T23:47:35Z</time>
      </trkpt>
      <trkpt lat="44.95902" lon="6.07966">
        <ele>2383</ele>
        <time>2020-07-23T23:47:51Z</time>
      </trkpt>
      <trkpt lat="44.95917" lon="6.0796">
        <ele>2377</ele>
        <time>2020-07-23T23:48:12Z</time>
      </trkpt>
      <trkpt lat="44.95932" lon="6.07963">
        <ele>2375</ele>
        <time>2020-07-23T23:48:32Z</time>
      </trkpt>
      <trkpt lat="44.95929" lon="6.07942">
        <ele>2368</ele>
        <time>2020-07-23T23:48:52Z</time>
      </trkpt>
      <trkpt lat="44.9592" lon="6.07926">
        <ele>2365</ele>
        <time>2020-07-23T23:49:11Z</time>
      </trkpt>
      <trkpt lat="44.95908" lon="6.07921">
        <ele>2366</ele>
        <time>2020-07-23T23:49:28Z</time>
      </trkpt>
      <trkpt lat="44.95902" lon="6.07895">
        <ele>2359</ele>
        <time>2020-07-23T23:49:54Z</time>
      </trkpt>
      <trkpt lat="44.95906" lon="6.0788">
        <ele>2353</ele>
        <time>2020-07-23T23:50:09Z</time>
      </trkpt>
      <trkpt lat="44.95901" lon="6.07874">
        <ele>2353</ele>
        <time>2020-07-23T23:50:18Z</time>
      </trkpt>
      <trkpt lat="44.95892" lon="6.07869">
        <ele>2353</ele>
        <time>2020-07-23T23:50:31Z</time>
      </trkpt>
      <trkpt lat="44.95887" lon="6.07859">
        <ele>2352</ele>
        <time>2020-07-23T23:50:42Z</time>
      </trkpt>
      <trkpt lat="44.95896" lon="6.07859">
        <ele>2349</ele>
        <time>2020-07-23T23:50:54Z</time>
      </trkpt>
      <trkpt lat="44.95906" lon="6.07853">
        <ele>2345</ele>
        <time>2020-07-23T23:51:09Z</time>
      </trkpt>
      <trkpt lat="44.95907" lon="6.07849">
        <ele>2343</ele>
        <time>2020-07-23T23:51:13Z</time>
      </trkpt>
      <trkpt lat="44.95899" lon="6.07843">
        <ele>2343</ele>
        <time>2020-07-23T23:51:25Z</time>
      </trkpt>
      <trkpt lat="44.95916" lon="6.07835">
        <ele>2336</ele>
        <time>2020-07-23T23:51:49Z</time>
      </trkpt>
      <trkpt lat="44.9592" lon="6.07831">
        <ele>2334</ele>
        <time>2020-07-23T23:51:55Z</time>
      </trkpt>
      <trkpt lat="44.95915" lon="6.07827">
        <ele>2334</ele>
        <time>2020-07-23T23:52:03Z</time>
      </trkpt>
      <trkpt lat="44.95928" lon="6.07824">
        <ele>2330</ele>
        <time>2020-07-23T23:52:20Z</time>
      </trkpt>
      <trkpt lat="44.95915" lon="6.07798">
        <ele>2330</ele>
        <time>2020-07-23T23:52:51Z</time>
      </trkpt>
      <trkpt lat="44.95916" lon="6.0779">
        <ele>2328</ele>
        <time>2020-07-23T23:52:58Z</time>
      </trkpt>
      <trkpt lat="44.9593" lon="6.07782">
        <ele>2321</ele>
        <time>2020-07-23T23:53:18Z</time>
      </trkpt>
      <trkpt lat="44.95942" lon="6.0779">
        <ele>2318</ele>
        <time>2020-07-23T23:53:36Z</time>
      </trkpt>
      <trkpt lat="44.95973" lon="6.07799">
        <ele>2309</ele>
        <time>2020-07-23T23:54:18Z</time>
      </trkpt>
      <trkpt lat="44.95981" lon="6.07793">
        <ele>2305</ele>
        <time>2020-07-23T23:54:30Z</time>
      </trkpt>
      <trkpt lat="44.95976" lon="6.0778">
        <ele>2303</ele>
        <time>2020-07-23T23:54:44Z</time>
      </trkpt>
      <trkpt lat="44.95972" lon="6.07778">
        <ele>2304</ele>
        <time>2020-07-23T23:54:50Z</time>
      </trkpt>
      <trkpt lat="44.95977" lon="6.0777">
        <ele>2300</ele>
        <time>2020-07-23T23:55:00Z</time>
      </trkpt>
      <trkpt lat="44.95999" lon="6.07761">
        <ele>2289</ele>
        <time>2020-07-23T23:55:31Z</time>
      </trkpt>
      <trkpt lat="44.96021" lon="6.07758">
        <ele>2280</ele>
        <time>2020-07-23T23:56:00Z</time>
      </trkpt>
      <trkpt lat="44.96026" lon="6.07768">
        <ele>2282</ele>
        <time>2020-07-23T23:56:12Z</time>
      </trkpt>
      <trkpt lat="44.96035" lon="6.07772">
        <ele>2280</ele>
        <time>2020-07-23T23:56:24Z</time>
      </trkpt>
      <trkpt lat="44.96061" lon="6.07761">
        <ele>2268</ele>
        <time>2020-07-23T23:57:00Z</time>
      </trkpt>
      <trkpt lat="44.96072" lon="6.07749">
        <ele>2260</ele>
        <time>2020-07-23T23:57:19Z</time>
      </trkpt>
      <trkpt lat="44.96076" lon="6.07758">
        <ele>2262</ele>
        <time>2020-07-23T23:57:29Z</time>
      </trkpt>
      <trkpt lat="44.96087" lon="6.07754">
        <ele>2256</ele>
        <time>2020-07-23T23:57:44Z</time>
      </trkpt>
      <trkpt lat="44.961" lon="6.07771">
        <ele>2258</ele>
        <time>2020-07-23T23:58:08Z</time>
      </trkpt>
      <trkpt lat="44.96108" lon="6.07775">
        <ele>2257</ele>
        <time>2020-07-23T23:58:19Z</time>
      </trkpt>
      <trkpt lat="44.96114" lon="6.07785">
        <ele>2259</ele>
        <time>2020-07-23T23:58:32Z</time>
      </trkpt>
      <trkpt lat="44.96132" lon="6.07789">
        <ele>2254</ele>
        <time>2020-07-23T23:58:56Z</time>
      </trkpt>
      <trkpt lat="44.96133" lon="6.07785">
        <ele>2252</ele>
        <time>2020-07-23T23:59:00Z</time>
      </trkpt>
      <trkpt lat="44.96147" lon="6.07792">
        <ele>2250</ele>
        <time>2020-07-23T23:59:20Z</time>
      </trkpt>
      <trkpt lat="44.9616" lon="6.07794">
        <ele>2246</ele>
        <time>2020-07-23T23:59:37Z</time>
      </trkpt>
      <trkpt lat="44.96191" lon="6.0777">
        <ele>2228</ele>
        <time>2020-07-23T00:00:24Z</time>
      </trkpt>
      <trkpt lat="44.96206" lon="6.07772">
        <ele>2225</ele>
        <time>2020-07-23T00:00:44Z</time>
      </trkpt>
      <trkpt lat="44.96215" lon="6.0778">
        <ele>2227</ele>
        <time>2020-07-23T00:00:59Z</time>
      </trkpt>
      <trkpt lat="44.96233" lon="6.07767">
        <ele>2217</ele>
        <time>2020-07-23T00:01:26Z</time>
      </trkpt>
      <trkpt lat="44.96223" lon="6.07756">
        <ele>2215</ele>
        <time>2020-07-23T00:01:43Z</time>
      </trkpt>
      <trkpt lat="44.9625" lon="6.07741">
        <ele>2202</ele>
        <time>2020-07-23T00:02:21Z</time>
      </trkpt>
      <trkpt lat="44.96252" lon="6.07736">
        <ele>2199</ele>
        <time>2020-07-23T00:02:27Z</time>
      </trkpt>
      <trkpt lat="44.96271" lon="6.07732">
        <ele>2193</ele>
        <time>2020-07-23T00:02:52Z</time>
      </trkpt>
      <trkpt lat="44.96276" lon="6.07734">
        <ele>2193</ele>
        <time>2020-07-23T00:02:59Z</time>
      </trkpt>
      <trkpt lat="44.96276" lon="6.07728">
        <ele>2190</ele>
        <time>2020-07-23T00:03:05Z</time>
      </trkpt>
      <trkpt lat="44.96301" lon="6.07732">
        <ele>2186</ele>
        <time>2020-07-23T00:03:38Z</time>
      </trkpt>
      <trkpt lat="44.96304" lon="6.07726">
        <ele>2183</ele>
        <time>2020-07-23T00:03:45Z</time>
      </trkpt>
      <trkpt lat="44.96318" lon="6.0774">
        <ele>2187</ele>
        <time>2020-07-23T00:04:08Z</time>
      </trkpt>
      <trkpt lat="44.96319" lon="6.07746">
        <ele>2189</ele>
        <time>2020-07-23T00:04:14Z</time>
      </trkpt>
      <trkpt lat="44.96349" lon="6.07738">
        <ele>2183</ele>
        <time>2020-07-23T00:04:55Z</time>
      </trkpt>
      <trkpt lat="44.9638" lon="6.07709">
        <ele>2167</ele>
        <time>2020-07-23T00:05:44Z</time>
      </trkpt>
      <trkpt lat="44.96369" lon="6.07707">
        <ele>2166</ele>
        <time>2020-07-23T00:05:59Z</time>
      </trkpt>
      <trkpt lat="44.96377" lon="6.07698">
        <ele>2160</ele>
        <time>2020-07-23T00:06:13Z</time>
      </trkpt>
      <trkpt lat="44.96365" lon="6.07693">
        <ele>2158</ele>
        <time>2020-07-23T00:06:30Z</time>
      </trkpt>
      <trkpt lat="44.9638" lon="6.07683">
        <ele>2151</ele>
        <time>2020-07-23T00:06:52Z</time>
      </trkpt>
      <trkpt lat="44.96365" lon="6.07675">
        <ele>2148</ele>
        <time>2020-07-23T00:07:13Z</time>
      </trkpt>
      <trkpt lat="44.96389" lon="6.07663">
        <ele>2138</ele>
        <time>2020-07-23T00:07:47Z</time>
      </trkpt>
      <trkpt lat="44.96386" lon="6.07659">
        <ele>2136</ele>
        <time>2020-07-23T00:07:53Z</time>
      </trkpt>
      <trkpt lat="44.96389" lon="6.07656">
        <ele>2134</ele>
        <time>2020-07-23T00:07:57Z</time>
      </trkpt>
      <trkpt lat="44.96358" lon="6.07639">
        <ele>2130</ele>
        <time>2020-07-23T00:08:42Z</time>
      </trkpt>
      <trkpt lat="44.96369" lon="6.07632">
        <ele>2124</ele>
        <time>2020-07-23T00:08:58Z</time>
      </trkpt>
      <trkpt lat="44.96358" lon="6.07623">
        <ele>2121</ele>
        <time>2020-07-23T00:09:15Z</time>
      </trkpt>
      <trkpt lat="44.96367" lon="6.07618">
        <ele>2117</ele>
        <time>2020-07-23T00:09:28Z</time>
      </trkpt>
      <trkpt lat="44.96367" lon="6.0761">
        <ele>2113</ele>
        <time>2020-07-23T00:09:35Z</time>
      </trkpt>
      <trkpt lat="44.96375" lon="6.07608">
        <ele>2111</ele>
        <time>2020-07-23T00:09:46Z</time>
      </trkpt>
      <trkpt lat="44.96388" lon="6.07599">
        <ele>2104</ele>
        <time>2020-07-23T00:10:06Z</time>
      </trkpt>
      <trkpt lat="44.96377" lon="6.07593">
        <ele>2102</ele>
        <time>2020-07-23T00:10:21Z</time>
      </trkpt>
      <trkpt lat="44.96385" lon="6.07585">
        <ele>2097</ele>
        <time>2020-07-23T00:10:34Z</time>
      </trkpt>
      <trkpt lat="44.96395" lon="6.07587">
        <ele>2096</ele>
        <time>2020-07-23T00:10:48Z</time>
      </trkpt>
      <trkpt lat="44.96408" lon="6.07582">
        <ele>2092</ele>
        <time>2020-07-23T00:11:06Z</time>
      </trkpt>
      <trkpt lat="44.96418" lon="6.07575">
        <ele>2087</ele>
        <time>2020-07-23T00:11:21Z</time>
      </trkpt>
      <trkpt lat="44.96415" lon="6.07572">
        <ele>2086</ele>
        <time>2020-07-23T00:11:26Z</time>
      </trkpt>
      <trkpt lat="44.96432" lon="6.07564">
        <ele>2080</ele>
        <time>2020-07-23T00:11:50Z</time>
      </trkpt>
      <trkpt lat="44.96412" lon="6.07543">
        <ele>2074</ele>
        <time>2020-07-23T00:12:23Z</time>
      </trkpt>
      <trkpt lat="44.96446" lon="6.07529">
        <ele>2061</ele>
        <time>2020-07-23T00:13:10Z</time>
      </trkpt>
      <trkpt lat="44.96414" lon="6.07486">
        <ele>2050</ele>
        <time>2020-07-23T00:14:09Z</time>
      </trkpt>
      <trkpt lat="44.96402" lon="6.07455">
        <ele>2044</ele>
        <time>2020-07-23T00:14:42Z</time>
      </trkpt>
      <trkpt lat="44.96402" lon="6.07423">
        <ele>2034</ele>
        <time>2020-07-23T00:15:13Z</time>
      </trkpt>
      <trkpt lat="44.96396" lon="6.07411">
        <ele>2034</ele>
        <time>2020-07-23T00:15:26Z</time>
      </trkpt>
      <trkpt lat="44.96391" lon="6.07408">
        <ele>2035</ele>
        <time>2020-07-23T00:15:34Z</time>
      </trkpt>
      <trkpt lat="44.96389" lon="6.07386">
        <ele>2034</ele>
        <time>2020-07-23T00:15:55Z</time>
      </trkpt>
      <trkpt lat="44.96384" lon="6.07384">
        <ele>2035</ele>
        <time>2020-07-23T00:16:02Z</time>
      </trkpt>
      <trkpt lat="44.96384" lon="6.07375">
        <ele>2035</ele>
        <time>2020-07-23T00:16:10Z</time>
      </trkpt>
      <trkpt lat="44.96391" lon="6.07369">
        <ele>2031</ele>
        <time>2020-07-23T00:16:21Z</time>
      </trkpt>
      <trkpt lat="44.96403" lon="6.07371">
        <ele>2027</ele>
        <time>2020-07-23T00:16:37Z</time>
      </trkpt>
      <trkpt lat="44.96415" lon="6.07385">
        <ele>2024</ele>
        <time>2020-07-23T00:16:58Z</time>
      </trkpt>
      <trkpt lat="44.96428" lon="6.07383">
        <ele>2019</ele>
        <time>2020-07-23T00:17:15Z</time>
      </trkpt>
      <trkpt lat="44.96448" lon="6.07387">
        <ele>2013</ele>
        <time>2020-07-23T00:17:42Z</time>
      </trkpt>
      <trkpt lat="44.96478" lon="6.07388">
        <ele>2003</ele>
        <time>2020-07-23T00:18:22Z</time>
      </trkpt>
      <trkpt lat="44.96498" lon="6.07405">
        <ele>2002</ele>
        <time>2020-07-23T00:18:53Z</time>
      </trkpt>
      <trkpt lat="44.96502" lon="6.07399">
        <ele>1999</ele>
        <time>2020-07-23T00:19:01Z</time>
      </trkpt>
      <trkpt lat="44.96508" lon="6.07385">
        <ele>1992</ele>
        <time>2020-07-23T00:19:17Z</time>
      </trkpt>
      <trkpt lat="44.96517" lon="6.07374">
        <ele>1986</ele>
        <time>2020-07-23T00:19:33Z</time>
      </trkpt>
      <trkpt lat="44.96506" lon="6.07357">
        <ele>1982</ele>
        <time>2020-07-23T00:19:54Z</time>
      </trkpt>
      <trkpt lat="44.96512" lon="6.07354">
        <ele>1979</ele>
        <time>2020-07-23T00:20:03Z</time>
      </trkpt>
      <trkpt lat="44.96509" lon="6.07343">
        <ele>1975</ele>
        <time>2020-07-23T00:20:14Z</time>
      </trkpt>
      <trkpt lat="44.96522" lon="6.07319">
        <ele>1963</ele>
        <time>2020-07-23T00:20:42Z</time>
      </trkpt>
      <trkpt lat="44.96518" lon="6.07312">
        <ele>1962</ele>
        <time>2020-07-23T00:20:51Z</time>
      </trkpt>
      <trkpt lat="44.96521" lon="6.07307">
        <ele>1959</ele>
        <time>2020-07-23T00:20:57Z</time>
      </trkpt>
      <trkpt lat="44.96567" lon="6.07293">
        <ele>1944</ele>
        <time>2020-07-23T00:22:00Z</time>
      </trkpt>
      <trkpt lat="44.96571" lon="6.07284">
        <ele>1941</ele>
        <time>2020-07-23T00:22:10Z</time>
      </trkpt>
      <trkpt lat="44.96579" lon="6.07289">
        <ele>1941</ele>
        <time>2020-07-23T00:22:22Z</time>
      </trkpt>
      <trkpt lat="44.96582" lon="6.07284">
        <ele>1938</ele>
        <time>2020-07-23T00:22:28Z</time>
      </trkpt>
      <trkpt lat="44.96604" lon="6.07276">
        <ele>1929</ele>
        <time>2020-07-23T00:22:58Z</time>
      </trkpt>
      <trkpt lat="44.96636" lon="6.07273">
        <ele>1918</ele>
        <time>2020-07-23T00:23:41Z</time>
      </trkpt>
      <trkpt lat="44.96665" lon="6.07284">
        <ele>1912</ele>
        <time>2020-07-23T00:24:21Z</time>
      </trkpt>
      <trkpt lat="44.96676" lon="6.07283">
        <ele>1909</ele>
        <time>2020-07-23T00:24:36Z</time>
      </trkpt>
      <trkpt lat="44.96689" lon="6.07285">
        <ele>1907</ele>
        <time>2020-07-23T00:24:53Z</time>
      </trkpt>
      <trkpt lat="44.96713" lon="6.07269">
        <ele>1896</ele>
        <time>2020-07-23T00:25:29Z</time>
      </trkpt>
      <trkpt lat="44.96732" lon="6.07239">
        <ele>1878</ele>
        <time>2020-07-23T00:26:07Z</time>
      </trkpt>
      <trkpt lat="44.96728" lon="6.07235">
        <ele>1877</ele>
        <time>2020-07-23T00:26:13Z</time>
      </trkpt>
      <trkpt lat="44.96733" lon="6.07227">
        <ele>1872</ele>
        <time>2020-07-23T00:26:23Z</time>
      </trkpt>
      <trkpt lat="44.96716" lon="6.07225">
        <ele>1875</ele>
        <time>2020-07-23T00:26:46Z</time>
      </trkpt>
      <trkpt lat="44.9672" lon="6.07214">
        <ele>1868</ele>
        <time>2020-07-23T00:26:58Z</time>
      </trkpt>
      <trkpt lat="44.96731" lon="6.07212">
        <ele>1865</ele>
        <time>2020-07-23T00:27:12Z</time>
      </trkpt>
      <trkpt lat="44.96723" lon="6.07208">
        <ele>1864</ele>
        <time>2020-07-23T00:27:24Z</time>
      </trkpt>
      <trkpt lat="44.9673" lon="6.07195">
        <ele>1856</ele>
        <time>2020-07-23T00:27:39Z</time>
      </trkpt>
      <trkpt lat="44.96717" lon="6.07192">
        <ele>1858</ele>
        <time>2020-07-23T00:27:57Z</time>
      </trkpt>
      <trkpt lat="44.96709" lon="6.07197">
        <ele>1862</ele>
        <time>2020-07-23T00:28:08Z</time>
      </trkpt>
      <trkpt lat="44.96696" lon="6.07191">
        <ele>1862</ele>
        <time>2020-07-23T00:28:27Z</time>
      </trkpt>
      <trkpt lat="44.96706" lon="6.07184">
        <ele>1856</ele>
        <time>2020-07-23T00:28:42Z</time>
      </trkpt>
      <trkpt lat="44.96694" lon="6.07181">
        <ele>1858</ele>
        <time>2020-07-23T00:28:58Z</time>
      </trkpt>
      <trkpt lat="44.96718" lon="6.07165">
        <ele>1844</ele>
        <time>2020-07-23T00:29:33Z</time>
      </trkpt>
      <trkpt lat="44.96696" lon="6.07151">
        <ele>1843</ele>
        <time>2020-07-23T00:30:05Z</time>
      </trkpt>
      <trkpt lat="44.96713" lon="6.07142">
        <ele>1835</ele>
        <time>2020-07-23T00:30:30Z</time>
      </trkpt>
      <trkpt lat="44.96691" lon="6.07124">
        <ele>1833</ele>
        <time>2020-07-23T00:31:04Z</time>
      </trkpt>
      <trkpt lat="44.96708" lon="6.07119">
        <ele>1827</ele>
        <time>2020-07-23T00:31:27Z</time>
      </trkpt>
      <trkpt lat="44.96717" lon="6.07121">
        <ele>1825</ele>
        <time>2020-07-23T00:31:39Z</time>
      </trkpt>
      <trkpt lat="44.96706" lon="6.07108">
        <ele>1823</ele>
        <time>2020-07-23T00:31:58Z</time>
      </trkpt>
      <trkpt lat="44.96723" lon="6.07105">
        <ele>1817</ele>
        <time>2020-07-23T00:32:21Z</time>
      </trkpt>
      <trkpt lat="44.96741" lon="6.07097">
        <ele>1809</ele>
        <time>2020-07-23T00:32:46Z</time>
      </trkpt>
      <trkpt lat="44.96731" lon="6.07094">
        <ele>1810</ele>
        <time>2020-07-23T00:33:00Z</time>
      </trkpt>
      <trkpt lat="44.96727" lon="6.07088">
        <ele>1809</ele>
        <time>2020-07-23T00:33:08Z</time>
      </trkpt>
      <trkpt lat="44.96747" lon="6.07083">
        <ele>1802</ele>
        <time>2020-07-23T00:33:35Z</time>
      </trkpt>
      <trkpt lat="44.96716" lon="6.07064">
        <ele>1800</ele>
        <time>2020-07-23T00:34:20Z</time>
      </trkpt>
      <trkpt lat="44.96711" lon="6.0705">
        <ele>1793</ele>
        <time>2020-07-23T00:34:35Z</time>
      </trkpt>
      <trkpt lat="44.96711" lon="6.07044">
        <ele>1790</ele>
        <time>2020-07-23T00:34:40Z</time>
      </trkpt>
      <trkpt lat="44.96706" lon="6.07038">
        <ele>1788</ele>
        <time>2020-07-23T00:34:49Z</time>
      </trkpt>
      <trkpt lat="44.96694" lon="6.0704">
        <ele>1792</ele>
        <time>2020-07-23T00:35:05Z</time>
      </trkpt>
      <trkpt lat="44.9669" lon="6.07027">
        <ele>1786</ele>
        <time>2020-07-23T00:35:18Z</time>
      </trkpt>
      <trkpt lat="44.96682" lon="6.07014">
        <ele>1781</ele>
        <time>2020-07-23T00:35:35Z</time>
      </trkpt>
      <trkpt lat="44.96692" lon="6.0701">
        <ele>1777</ele>
        <time>2020-07-23T00:35:49Z</time>
      </trkpt>
      <trkpt lat="44.96704" lon="6.07009">
        <ele>1774</ele>
        <time>2020-07-23T00:36:05Z</time>
      </trkpt>
      <trkpt lat="44.96711" lon="6.07002">
        <ele>1768</ele>
        <time>2020-07-23T00:36:16Z</time>
      </trkpt>
      <trkpt lat="44.96726" lon="6.07001">
        <ele>1765</ele>
        <time>2020-07-23T00:36:36Z</time>
      </trkpt>
      <trkpt lat="44.96729" lon="6.0698">
        <ele>1743</ele>
        <time>2020-07-23T00:36:56Z</time>
      </trkpt>
      <trkpt lat="44.96725" lon="6.06974">
        <ele>1738</ele>
        <time>2020-07-23T00:37:04Z</time>
      </trkpt>
      <trkpt lat="44.96729" lon="6.06972">
        <ele>1735</ele>
        <time>2020-07-23T00:37:10Z</time>
      </trkpt>
      <trkpt lat="44.96741" lon="6.06982">
        <ele>1743</ele>
        <time>2020-07-23T00:37:28Z</time>
      </trkpt>
      <trkpt lat="44.96746" lon="6.06968">
        <ele>1728</ele>
        <time>2020-07-23T00:37:43Z</time>
      </trkpt>
      <trkpt lat="44.96757" lon="6.06966">
        <ele>1722</ele>
        <time>2020-07-23T00:37:58Z</time>
      </trkpt>
      <trkpt lat="44.96769" lon="6.07022">
        <ele>1760</ele>
        <time>2020-07-23T00:38:53Z</time>
      </trkpt>
      <trkpt lat="44.96784" lon="6.07054">
        <ele>1770</ele>
        <time>2020-07-23T00:39:30Z</time>
      </trkpt>
      <trkpt lat="44.968" lon="6.07081">
        <ele>1777</ele>
        <time>2020-07-23T00:40:03Z</time>
      </trkpt>
      <trkpt lat="44.96808" lon="6.0711">
        <ele>1788</ele>
        <time>2020-07-23T00:40:32Z</time>
      </trkpt>
      <trkpt lat="44.96812" lon="6.07139">
        <ele>1801</ele>
        <time>2020-07-23T00:41:00Z</time>
      </trkpt>
      <trkpt lat="44.96809" lon="6.07155">
        <ele>1810</ele>
        <time>2020-07-23T00:41:16Z</time>
      </trkpt>
      <trkpt lat="44.96815" lon="6.07154">
        <ele>1807</ele>
        <time>2020-07-23T00:41:24Z</time>
      </trkpt>
      <trkpt lat="44.96826" lon="6.07106">
        <ele>1779</ele>
        <time>2020-07-23T00:42:11Z</time>
      </trkpt>
      <trkpt lat="44.9684" lon="6.07094">
        <ele>1767</ele>
        <time>2020-07-23T00:42:33Z</time>
      </trkpt>
      <trkpt lat="44.96845" lon="6.07108">
        <ele>1772</ele>
        <time>2020-07-23T00:42:48Z</time>
      </trkpt>
      <trkpt lat="44.96859" lon="6.07074">
        <ele>1746</ele>
        <time>2020-07-23T00:43:25Z</time>
      </trkpt>
      <trkpt lat="44.96875" lon="6.07065">
        <ele>1733</ele>
        <time>2020-07-23T00:43:48Z</time>
      </trkpt>
      <trkpt lat="44.96905" lon="6.07078">
        <ele>1728</ele>
        <time>2020-07-23T00:44:30Z</time>
      </trkpt>
      <trkpt lat="44.96925" lon="6.07083">
        <ele>1721</ele>
        <time>2020-07-23T00:44:57Z</time>
      </trkpt>
      <trkpt lat="44.96938" lon="6.07104">
        <ele>1725</ele>
        <time>2020-07-23T00:45:23Z</time>
      </trkpt>
      <trkpt lat="44.96947" lon="6.0711">
        <ele>1722</ele>
        <time>2020-07-23T00:45:37Z</time>
      </trkpt>
      <trkpt lat="44.96957" lon="6.0711">
        <ele>1716</ele>
        <time>2020-07-23T00:45:50Z</time>
      </trkpt>
      <trkpt lat="44.96967" lon="6.07115">
        <ele>1713</ele>
        <time>2020-07-23T00:46:04Z</time>
      </trkpt>
      <trkpt lat="44.96977" lon="6.0713">
        <ele>1714</ele>
        <time>2020-07-23T00:46:24Z</time>
      </trkpt>
      <trkpt lat="44.9698" lon="6.0715">
        <ele>1723</ele>
        <time>2020-07-23T00:46:43Z</time>
      </trkpt>
      <trkpt lat="44.96989" lon="6.07162">
        <ele>1723</ele>
        <time>2020-07-23T00:47:00Z</time>
      </trkpt>
      <trkpt lat="44.9701" lon="6.07174">
        <ele>1714</ele>
        <time>2020-07-23T00:47:30Z</time>
      </trkpt>
      <trkpt lat="44.97019" lon="6.07176">
        <ele>1709</ele>
        <time>2020-07-23T00:47:42Z</time>
      </trkpt>
      <trkpt lat="44.9703" lon="6.07183">
        <ele>1704</ele>
        <time>2020-07-23T00:47:58Z</time>
      </trkpt>
      <trkpt lat="44.97039" lon="6.07187">
        <ele>1700</ele>
        <time>2020-07-23T00:48:11Z</time>
      </trkpt>
      <trkpt lat="44.97053" lon="6.07204">
        <ele>1700</ele>
        <time>2020-07-23T00:48:35Z</time>
      </trkpt>
      <trkpt lat="44.97059" lon="6.07208">
        <ele>1698</ele>
        <time>2020-07-23T00:48:44Z</time>
      </trkpt>
      <trkpt lat="44.97067" lon="6.07211">
        <ele>1695</ele>
        <time>2020-07-23T00:48:55Z</time>
      </trkpt>
      <trkpt lat="44.97073" lon="6.07217">
        <ele>1694</ele>
        <time>2020-07-23T00:49:05Z</time>
      </trkpt>
      <trkpt lat="44.97082" lon="6.07213">
        <ele>1686</ele>
        <time>2020-07-23T00:49:18Z</time>
      </trkpt>
      <trkpt lat="44.97089" lon="6.07217">
        <ele>1683</ele>
        <time>2020-07-23T00:49:28Z</time>
      </trkpt>
      <trkpt lat="44.97098" lon="6.07216">
        <ele>1676</ele>
        <time>2020-07-23T00:49:40Z</time>
      </trkpt>
      <trkpt lat="44.97118" lon="6.07222">
        <ele>1665</ele>
        <time>2020-07-23T00:50:07Z</time>
      </trkpt>
      <trkpt lat="44.97124" lon="6.0722">
        <ele>1659</ele>
        <time>2020-07-23T00:50:15Z</time>
      </trkpt>
      <trkpt lat="44.97125" lon="6.07216">
        <ele>1657</ele>
        <time>2020-07-23T00:50:19Z</time>
      </trkpt>
      <trkpt lat="44.97113" lon="6.07195">
        <ele>1654</ele>
        <time>2020-07-23T00:50:45Z</time>
      </trkpt>
      <trkpt lat="44.97107" lon="6.07186">
        <ele>1653</ele>
        <time>2020-07-23T00:50:56Z</time>
      </trkpt>
      <trkpt lat="44.9708" lon="6.07169">
        <ele>1659</ele>
        <time>2020-07-23T00:51:36Z</time>
      </trkpt>
      <trkpt lat="44.97079" lon="6.07157">
        <ele>1653</ele>
        <time>2020-07-23T00:51:47Z</time>
      </trkpt>
      <trkpt lat="44.97091" lon="6.07161">
        <ele>1648</ele>
        <time>2020-07-23T00:52:04Z</time>
      </trkpt>
      <trkpt lat="44.97101" lon="6.07157">
        <ele>1640</ele>
        <time>2020-07-23T00:52:17Z</time>
      </trkpt>
      <trkpt lat="44.97082" lon="6.07108">
        <ele>1625</ele>
        <time>2020-07-23T00:53:10Z</time>
      </trkpt>
      <trkpt lat="44.97112" lon="6.07123">
        <ele>1617</ele>
        <time>2020-07-23T00:53:53Z</time>
      </trkpt>
      <trkpt lat="44.97142" lon="6.07136">
        <ele>1607</ele>
        <time>2020-07-23T00:54:35Z</time>
      </trkpt>
      <trkpt lat="44.97119" lon="6.07074">
        <ele>1589</ele>
        <time>2020-07-23T00:55:41Z</time>
      </trkpt>
      <trkpt lat="44.97116" lon="6.07057">
        <ele>1584</ele>
        <time>2020-07-23T00:55:57Z</time>
      </trkpt>
      <trkpt lat="44.97106" lon="6.0703">
        <ele>1577</ele>
        <time>2020-07-23T00:56:26Z</time>
      </trkpt>
      <trkpt lat="44.97137" lon="6.07049">
        <ele>1571</ele>
        <time>2020-07-23T00:57:11Z</time>
      </trkpt>
      <trkpt lat="44.97158" lon="6.07059">
        <ele>1565</ele>
        <time>2020-07-23T00:57:41Z</time>
      </trkpt>
      <trkpt lat="44.97181" lon="6.07079">
        <ele>1562</ele>
        <time>2020-07-23T00:58:17Z</time>
      </trkpt>
      <trkpt lat="44.97198" lon="6.07108">
        <ele>1568</ele>
        <time>2020-07-23T00:58:52Z</time>
      </trkpt>
      <trkpt lat="44.97208" lon="6.07106">
        <ele>1563</ele>
        <time>2020-07-23T00:59:06Z</time>
      </trkpt>
      <trkpt lat="44.97226" lon="6.07078">
        <ele>1546</ele>
        <time>2020-07-23T00:59:41Z</time>
      </trkpt>
      <trkpt lat="44.97232" lon="6.07061">
        <ele>1540</ele>
        <time>2020-07-23T00:59:59Z</time>
      </trkpt>
      <trkpt lat="44.97259" lon="6.07039">
        <ele>1529</ele>
        <time>2020-07-23T01:00:41Z</time>
      </trkpt>
      <trkpt lat="44.97262" lon="6.07015">
        <ele>1523</ele>
        <time>2020-07-23T01:01:04Z</time>
      </trkpt>
      <trkpt lat="44.97269" lon="6.07004">
        <ele>1520</ele>
        <time>2020-07-23T01:01:18Z</time>
      </trkpt>
      <trkpt lat="44.97269" lon="6.06988">
        <ele>1517</ele>
        <time>2020-07-23T01:01:33Z</time>
      </trkpt>
      <trkpt lat="44.97272" lon="6.06984">
        <ele>1516</ele>
        <time>2020-07-23T01:01:39Z</time>
      </trkpt>
      <trkpt lat="44.97271" lon="6.06977">
        <ele>1515</ele>
        <time>2020-07-23T01:01:45Z</time>
      </trkpt>
      <trkpt lat="44.97275" lon="6.06972">
        <ele>1514</ele>
        <time>2020-07-23T01:01:52Z</time>
      </trkpt>
      <trkpt lat="44.97277" lon="6.06948">
        <ele>1510</ele>
        <time>2020-07-23T01:02:15Z</time>
      </trkpt>
      <trkpt lat="44.97282" lon="6.06935">
        <ele>1508</ele>
        <time>2020-07-23T01:02:29Z</time>
      </trkpt>
      <trkpt lat="44.97303" lon="6.06946">
        <ele>1510</ele>
        <time>2020-07-23T01:02:59Z</time>
      </trkpt>
      <trkpt lat="44.97317" lon="6.06959">
        <ele>1511</ele>
        <time>2020-07-23T01:03:21Z</time>
      </trkpt>
      <trkpt lat="44.97334" lon="6.06966">
        <ele>1510</ele>
        <time>2020-07-23T01:03:45Z</time>
      </trkpt>
      <trkpt lat="44.9734" lon="6.06961">
        <ele>1510</ele>
        <time>2020-07-23T01:03:54Z</time>
      </trkpt>
      <trkpt lat="44.97355" lon="6.06954">
        <ele>1511</ele>
        <time>2020-07-23T01:04:15Z</time>
      </trkpt>
      <trkpt lat="44.9737" lon="6.0694">
        <ele>1511</ele>
        <time>2020-07-23T01:04:39Z</time>
      </trkpt>
      <trkpt lat="44.97382" lon="6.0694">
        <ele>1512</ele>
        <time>2020-07-23T01:04:55Z</time>
      </trkpt>
      <trkpt lat="44.97383" lon="6.06931">
        <ele>1512</ele>
        <time>2020-07-23T01:05:04Z</time>
      </trkpt>
      <trkpt lat="44.97381" lon="6.06908">
        <ele>1513</ele>
        <time>2020-07-23T01:05:26Z</time>
      </trkpt>
      <trkpt lat="44.97379" lon="6.06905">
        <ele>1513</ele>
        <time>2020-07-23T01:05:30Z</time>
      </trkpt>
      <trkpt lat="44.97379" lon="6.069">
        <ele>1513</ele>
        <time>2020-07-23T01:05:35Z</time>
      </trkpt>
      <trkpt lat="44.97376" lon="6.06895">
        <ele>1513</ele>
        <time>2020-07-23T01:05:41Z</time>
      </trkpt>
      <trkpt lat="44.97375" lon="6.06891">
        <ele>1513</ele>
        <time>2020-07-23T01:05:45Z</time>
      </trkpt>
      <trkpt lat="44.97372" lon="6.06883">
        <ele>1513</ele>
        <time>2020-07-23T01:05:53Z</time>
      </trkpt>
      <trkpt lat="44.97377" lon="6.06873">
        <ele>1513</ele>
        <time>2020-07-23T01:06:05Z</time>
      </trkpt>
      <trkpt lat="44.97377" lon="6.06863">
        <ele>1513</ele>
        <time>2020-07-23T01:06:14Z</time>
      </trkpt>
      <trkpt lat="44.9738" lon="6.06854">
        <ele>1514</ele>
        <time>2020-07-23T01:06:24Z</time>
      </trkpt>
      <trkpt lat="44.9738" lon="6.06844">
        <ele>1514</ele>
        <time>2020-07-23T01:06:33Z</time>
      </trkpt>
      <trkpt lat="44.97381" lon="6.06837">
        <ele>1514</ele>
        <time>2020-07-23T01:06:40Z</time>
      </trkpt>
      <trkpt lat="44.97389" lon="6.06812">
        <ele>1515</ele>
        <time>2020-07-23T01:07:06Z</time>
      </trkpt>
      <trkpt lat="44.97392" lon="6.06805">
        <ele>1515</ele>
        <time>2020-07-23T01:07:13Z</time>
      </trkpt>
      <trkpt lat="44.97393" lon="6.06799">
        <ele>1516</ele>
        <time>2020-07-23T01:07:19Z</time>
      </trkpt>
      <trkpt lat="44.97389" lon="6.06786">
        <ele>1516</ele>
        <time>2020-07-23T01:07:33Z</time>
      </trkpt>
      <trkpt lat="44.97384" lon="6.06751">
        <ele>1517</ele>
        <time>2020-07-23T01:08:06Z</time>
      </trkpt>
      <trkpt lat="44.97381" lon="6.06744">
        <ele>1517</ele>
        <time>2020-07-23T01:08:14Z</time>
      </trkpt>
      <trkpt lat="44.97378" lon="6.06729">
        <ele>1516</ele>
        <time>2020-07-23T01:08:29Z</time>
      </trkpt>
      <trkpt lat="44.97381" lon="6.06684">
        <ele>1515</ele>
        <time>2020-07-23T01:09:11Z</time>
      </trkpt>
      <trkpt lat="44.97386" lon="6.06676">
        <ele>1516</ele>
        <time>2020-07-23T01:09:22Z</time>
      </trkpt>
      <trkpt lat="44.97395" lon="6.06657">
        <ele>1517</ele>
        <time>2020-07-23T01:09:43Z</time>
      </trkpt>
      <trkpt lat="44.97395" lon="6.06652">
        <ele>1517</ele>
        <time>2020-07-23T01:09:48Z</time>
      </trkpt>
      <trkpt lat="44.9739" lon="6.06636">
        <ele>1517</ele>
        <time>2020-07-23T01:10:04Z</time>
      </trkpt>
      <trkpt lat="44.97394" lon="6.06622">
        <ele>1518</ele>
        <time>2020-07-23T01:10:19Z</time>
      </trkpt>
      <trkpt lat="44.97392" lon="6.06612">
        <ele>1518</ele>
        <time>2020-07-23T01:10:28Z</time>
      </trkpt>
      <trkpt lat="44.97397" lon="6.06603">
        <ele>1520</ele>
        <time>2020-07-23T01:10:39Z</time>
      </trkpt>
      <trkpt lat="44.97397" lon="6.06596">
        <ele>1520</ele>
        <time>2020-07-23T01:10:46Z</time>
      </trkpt>
      <trkpt lat="44.97401" lon="6.06585">
        <ele>1522</ele>
        <time>2020-07-23T01:10:58Z</time>
      </trkpt>
      <trkpt lat="44.97403" lon="6.06577">
        <ele>1522</ele>
        <time>2020-07-23T01:11:06Z</time>
      </trkpt>
      <trkpt lat="44.97402" lon="6.06571">
        <ele>1522</ele>
        <time>2020-07-23T01:11:11Z</time>
      </trkpt>
      <trkpt lat="44.97407" lon="6.06568">
        <ele>1524</ele>
        <time>2020-07-23T01:11:19Z</time>
      </trkpt>
      <trkpt lat="44.9741" lon="6.0656">
        <ele>1525</ele>
        <time>2020-07-23T01:11:27Z</time>
      </trkpt>
      <trkpt lat="44.97409" lon="6.06555">
        <ele>1525</ele>
        <time>2020-07-23T01:11:32Z</time>
      </trkpt>
      <trkpt lat="44.97414" lon="6.06533">
        <ele>1528</ele>
        <time>2020-07-23T01:11:54Z</time>
      </trkpt>
      <trkpt lat="44.97412" lon="6.06524">
        <ele>1527</ele>
        <time>2020-07-23T01:12:03Z</time>
      </trkpt>
      <trkpt lat="44.97414" lon="6.06518">
        <ele>1528</ele>
        <time>2020-07-23T01:12:09Z</time>
      </trkpt>
      <trkpt lat="44.97418" lon="6.06518">
        <ele>1529</ele>
        <time>2020-07-23T01:12:14Z</time>
      </trkpt>
      <trkpt lat="44.97422" lon="6.06512">
        <ele>1529</ele>
        <time>2020-07-23T01:12:22Z</time>
      </trkpt>
      <trkpt lat="44.97422" lon="6.06503">
        <ele>1530</ele>
        <time>2020-07-23T01:12:31Z</time>
      </trkpt>
      <trkpt lat="44.97431" lon="6.06493">
        <ele>1530</ele>
        <time>2020-07-23T01:12:46Z</time>
      </trkpt>
      <trkpt lat="44.97434" lon="6.06488">
        <ele>1531</ele>
        <time>2020-07-23T01:12:52Z</time>
      </trkpt>
      <trkpt lat="44.97439" lon="6.06472">
        <ele>1532</ele>
        <time>2020-07-23T01:13:09Z</time>
      </trkpt>
      <trkpt lat="44.9744" lon="6.06463">
        <ele>1533</ele>
        <time>2020-07-23T01:13:17Z</time>
      </trkpt>
      <trkpt lat="44.97446" lon="6.06463">
        <ele>1533</ele>
        <time>2020-07-23T01:13:25Z</time>
      </trkpt>
      <trkpt lat="44.9745" lon="6.0646">
        <ele>1534</ele>
        <time>2020-07-23T01:13:31Z</time>
      </trkpt>
      <trkpt lat="44.97458" lon="6.0646">
        <ele>1534</ele>
        <time>2020-07-23T01:13:42Z</time>
      </trkpt>
      <trkpt lat="44.97469" lon="6.06457">
        <ele>1534</ele>
        <time>2020-07-23T01:13:57Z</time>
      </trkpt>
      <trkpt lat="44.97472" lon="6.06453">
        <ele>1534</ele>
        <time>2020-07-23T01:14:02Z</time>
      </trkpt>
      <trkpt lat="44.97472" lon="6.06448">
        <ele>1535</ele>
        <time>2020-07-23T01:14:07Z</time>
      </trkpt>
      <trkpt lat="44.97482" lon="6.06435">
        <ele>1537</ele>
        <time>2020-07-23T01:14:25Z</time>
      </trkpt>
      <trkpt lat="44.97483" lon="6.06425">
        <ele>1538</ele>
        <time>2020-07-23T01:14:35Z</time>
      </trkpt>
      <trkpt lat="44.97487" lon="6.06419">
        <ele>1538</ele>
        <time>2020-07-23T01:14:43Z</time>
      </trkpt>
      <trkpt lat="44.97491" lon="6.06418">
        <ele>1539</ele>
        <time>2020-07-23T01:14:48Z</time>
      </trkpt>
      <trkpt lat="44.97495" lon="6.06421">
        <ele>1538</ele>
        <time>2020-07-23T01:14:54Z</time>
      </trkpt>
      <trkpt lat="44.97503" lon="6.06417">
        <ele>1539</ele>
        <time>2020-07-23T01:15:05Z</time>
      </trkpt>
      <trkpt lat="44.97509" lon="6.06403">
        <ele>1539</ele>
        <time>2020-07-23T01:15:21Z</time>
      </trkpt>
      <trkpt lat="44.97504" lon="6.06391">
        <ele>1540</ele>
        <time>2020-07-23T01:15:34Z</time>
      </trkpt>
      <trkpt lat="44.97509" lon="6.06381">
        <ele>1541</ele>
        <time>2020-07-23T01:15:46Z</time>
      </trkpt>
      <trkpt lat="44.97519" lon="6.06381">
        <ele>1541</ele>
        <time>2020-07-23T01:15:59Z</time>
      </trkpt>
      <trkpt lat="44.97522" lon="6.06387">
        <ele>1540</ele>
        <time>2020-07-23T01:16:06Z</time>
      </trkpt>
      <trkpt lat="44.97526" lon="6.06386">
        <ele>1540</ele>
        <time>2020-07-23T01:16:11Z</time>
      </trkpt>
      <trkpt lat="44.97552" lon="6.06373">
        <ele>1543</ele>
        <time>2020-07-23T01:16:48Z</time>
      </trkpt>
      <trkpt lat="44.97562" lon="6.06374">
        <ele>1542</ele>
        <time>2020-07-23T01:17:01Z</time>
      </trkpt>
      <trkpt lat="44.97593" lon="6.06395">
        <ele>1538</ele>
        <time>2020-07-23T01:17:47Z</time>
      </trkpt>
      <trkpt lat="44.9762" lon="6.06428">
        <ele>1530</ele>
        <time>2020-07-23T01:18:35Z</time>
      </trkpt>
      <trkpt lat="44.97625" lon="6.0643">
        <ele>1530</ele>
        <time>2020-07-23T01:18:42Z</time>
      </trkpt>
      <trkpt lat="44.97627" lon="6.06434">
        <ele>1529</ele>
        <time>2020-07-23T01:18:46Z</time>
      </trkpt>
      <trkpt lat="44.97635" lon="6.06438">
        <ele>1528</ele>
        <time>2020-07-23T01:18:58Z</time>
      </trkpt>
      <trkpt lat="44.97638" lon="6.06437">
        <ele>1528</ele>
        <time>2020-07-23T01:19:02Z</time>
      </trkpt>
      <trkpt lat="44.97639" lon="6.06442">
        <ele>1527</ele>
        <time>2020-07-23T01:19:07Z</time>
      </trkpt>
      <trkpt lat="44.97636" lon="6.06443">
        <ele>1526</ele>
        <time>2020-07-23T01:19:11Z</time>
      </trkpt>
      <trkpt lat="44.97634" lon="6.06448">
        <ele>1525</ele>
        <time>2020-07-23T01:19:16Z</time>
      </trkpt>
      <trkpt lat="44.97628" lon="6.06452">
        <ele>1523</ele>
        <time>2020-07-23T01:19:25Z</time>
      </trkpt>
      <trkpt lat="44.9763" lon="6.06456">
        <ele>1522</ele>
        <time>2020-07-23T01:19:30Z</time>
      </trkpt>
      <trkpt lat="44.97657" lon="6.06478">
        <ele>1516</ele>
        <time>2020-07-23T01:20:11Z</time>
      </trkpt>
      <trkpt lat="44.97661" lon="6.06486">
        <ele>1513</ele>
        <time>2020-07-23T01:20:21Z</time>
      </trkpt>
      <trkpt lat="44.97671" lon="6.06484">
        <ele>1514</ele>
        <time>2020-07-23T01:20:34Z</time>
      </trkpt>
      <trkpt lat="44.97674" lon="6.06486">
        <ele>1513</ele>
        <time>2020-07-23T01:20:39Z</time>
      </trkpt>
      <trkpt lat="44.97684" lon="6.06506">
        <ele>1506</ele>
        <time>2020-07-23T01:21:02Z</time>
      </trkpt>
      <trkpt lat="44.97689" lon="6.06509">
        <ele>1505</ele>
        <time>2020-07-23T01:21:09Z</time>
      </trkpt>
      <trkpt lat="44.97699" lon="6.06525">
        <ele>1500</ele>
        <time>2020-07-23T01:21:29Z</time>
      </trkpt>
      <trkpt lat="44.97711" lon="6.06559">
        <ele>1491</ele>
        <time>2020-07-23T01:22:05Z</time>
      </trkpt>
      <trkpt lat="44.97713" lon="6.06575">
        <ele>1486</ele>
        <time>2020-07-23T01:22:20Z</time>
      </trkpt>
      <trkpt lat="44.97734" lon="6.06584">
        <ele>1481</ele>
        <time>2020-07-23T01:22:50Z</time>
      </trkpt>
      <trkpt lat="44.9775" lon="6.06601">
        <ele>1475</ele>
        <time>2020-07-23T01:23:16Z</time>
      </trkpt>
      <trkpt lat="44.97771" lon="6.06617">
        <ele>1460</ele>
        <time>2020-07-23T01:23:48Z</time>
      </trkpt>
      <trkpt lat="44.97764" lon="6.06637">
        <ele>1460</ele>
        <time>2020-07-23T01:24:09Z</time>
      </trkpt>
      <trkpt lat="44.97755" lon="6.06654">
        <ele>1462</ele>
        <time>2020-07-23T01:24:29Z</time>
      </trkpt>
      <trkpt lat="44.97756" lon="6.06659">
        <ele>1460</ele>
        <time>2020-07-23T01:24:34Z</time>
      </trkpt>
      <trkpt lat="44.9777" lon="6.06659">
        <ele>1451</ele>
        <time>2020-07-23T01:24:53Z</time>
      </trkpt>
      <trkpt lat="44.97771" lon="6.0667">
        <ele>1448</ele>
        <time>2020-07-23T01:25:03Z</time>
      </trkpt>
      <trkpt lat="44.97775" lon="6.0667">
        <ele>1446</ele>
        <time>2020-07-23T01:25:09Z</time>
      </trkpt>
      <trkpt lat="44.97766" lon="6.06695">
        <ele>1445</ele>
        <time>2020-07-23T01:25:35Z</time>
      </trkpt>
      <trkpt lat="44.9777" lon="6.06697">
        <ele>1442</ele>
        <time>2020-07-23T01:25:41Z</time>
      </trkpt>
      <trkpt lat="44.97781" lon="6.0669">
        <ele>1437</ele>
        <time>2020-07-23T01:25:57Z</time>
      </trkpt>
      <trkpt lat="44.97787" lon="6.06683">
        <ele>1435</ele>
        <time>2020-07-23T01:26:07Z</time>
      </trkpt>
      <trkpt lat="44.97789" lon="6.06684">
        <ele>1433</ele>
        <time>2020-07-23T01:26:10Z</time>
      </trkpt>
      <trkpt lat="44.97781" lon="6.06702">
        <ele>1434</ele>
        <time>2020-07-23T01:26:30Z</time>
      </trkpt>
      <trkpt lat="44.97781" lon="6.06706">
        <ele>1433</ele>
        <time>2020-07-23T01:26:34Z</time>
      </trkpt>
      <trkpt lat="44.97785" lon="6.06702">
        <ele>1431</ele>
        <time>2020-07-23T01:26:40Z</time>
      </trkpt>
      <trkpt lat="44.97786" lon="6.06704">
        <ele>1430</ele>
        <time>2020-07-23T01:26:43Z</time>
      </trkpt>
      <trkpt lat="44.97779" lon="6.0672">
        <ele>1430</ele>
        <time>2020-07-23T01:27:01Z</time>
      </trkpt>
      <trkpt lat="44.97781" lon="6.06723">
        <ele>1428</ele>
        <time>2020-07-23T01:27:04Z</time>
      </trkpt>
      <trkpt lat="44.97789" lon="6.06714">
        <ele>1426</ele>
        <time>2020-07-23T01:27:18Z</time>
      </trkpt>
      <trkpt lat="44.97792" lon="6.06716">
        <ele>1423</ele>
        <time>2020-07-23T01:27:23Z</time>
      </trkpt>
      <trkpt lat="44.9779" lon="6.06729">
        <ele>1421</ele>
        <time>2020-07-23T01:27:35Z</time>
      </trkpt>
      <trkpt lat="44.9781" lon="6.06721">
        <ele>1411</ele>
        <time>2020-07-23T01:28:03Z</time>
      </trkpt>
      <trkpt lat="44.97812" lon="6.06726">
        <ele>1408</ele>
        <time>2020-07-23T01:28:08Z</time>
      </trkpt>
      <trkpt lat="44.97817" lon="6.06727">
        <ele>1405</ele>
        <time>2020-07-23T01:28:15Z</time>
      </trkpt>
      <trkpt lat="44.97831" lon="6.06713">
        <ele>1400</ele>
        <time>2020-07-23T01:28:38Z</time>
      </trkpt>
      <trkpt lat="44.97829" lon="6.06735">
        <ele>1395</ele>
        <time>2020-07-23T01:28:59Z</time>
      </trkpt>
      <trkpt lat="44.97847" lon="6.06741">
        <ele>1383</ele>
        <time>2020-07-23T01:29:23Z</time>
      </trkpt>
      <trkpt lat="44.9784" lon="6.06759">
        <ele>1383</ele>
        <time>2020-07-23T01:29:43Z</time>
      </trkpt>
      <trkpt lat="44.97844" lon="6.06763">
        <ele>1380</ele>
        <time>2020-07-23T01:29:49Z</time>
      </trkpt>
      <trkpt lat="44.97839" lon="6.06784">
        <ele>1379</ele>
        <time>2020-07-23T01:30:10Z</time>
      </trkpt>
      <trkpt lat="44.97834" lon="6.06798">
        <ele>1378</ele>
        <time>2020-07-23T01:30:25Z</time>
      </trkpt>
      <trkpt lat="44.97836" lon="6.06804">
        <ele>1376</ele>
        <time>2020-07-23T01:30:31Z</time>
      </trkpt>
      <trkpt lat="44.97826" lon="6.0682">
        <ele>1379</ele>
        <time>2020-07-23T01:30:52Z</time>
      </trkpt>
      <trkpt lat="44.97825" lon="6.06835">
        <ele>1376</ele>
        <time>2020-07-23T01:31:06Z</time>
      </trkpt>
      <trkpt lat="44.97862" lon="6.06816">
        <ele>1360</ele>
        <time>2020-07-23T01:31:58Z</time>
      </trkpt>
      <trkpt lat="44.97865" lon="6.06809">
        <ele>1360</ele>
        <time>2020-07-23T01:32:06Z</time>
      </trkpt>
      <trkpt lat="44.97872" lon="6.06801">
        <ele>1357</ele>
        <time>2020-07-23T01:32:18Z</time>
      </trkpt>
      <trkpt lat="44.9787" lon="6.06816">
        <ele>1356</ele>
        <time>2020-07-23T01:32:32Z</time>
      </trkpt>
      <trkpt lat="44.97875" lon="6.06814">
        <ele>1354</ele>
        <time>2020-07-23T01:32:39Z</time>
      </trkpt>
      <trkpt lat="44.9791" lon="6.06768">
        <ele>1341</ele>
        <time>2020-07-23T01:33:43Z</time>
      </trkpt>
      <trkpt lat="44.97914" lon="6.0677">
        <ele>1338</ele>
        <time>2020-07-23T01:33:49Z</time>
      </trkpt>
      <trkpt lat="44.97915" lon="6.06782">
        <ele>1336</ele>
        <time>2020-07-23T01:34:00Z</time>
      </trkpt>
      <trkpt lat="44.97922" lon="6.06778">
        <ele>1334</ele>
        <time>2020-07-23T01:34:10Z</time>
      </trkpt>
      <trkpt lat="44.9794" lon="6.06811">
        <ele>1323</ele>
        <time>2020-07-23T01:34:50Z</time>
      </trkpt>
      <trkpt lat="44.97941" lon="6.06818">
        <ele>1322</ele>
        <time>2020-07-23T01:34:56Z</time>
      </trkpt>
      <trkpt lat="44.97948" lon="6.06824">
        <ele>1318</ele>
        <time>2020-07-23T01:35:07Z</time>
      </trkpt>
      <trkpt lat="44.97948" lon="6.06832">
        <ele>1316</ele>
        <time>2020-07-23T01:35:15Z</time>
      </trkpt>
      <trkpt lat="44.97946" lon="6.06836">
        <ele>1316</ele>
        <time>2020-07-23T01:35:19Z</time>
      </trkpt>
      <trkpt lat="44.97937" lon="6.06838">
        <ele>1320</ele>
        <time>2020-07-23T01:35:32Z</time>
      </trkpt>
      <trkpt lat="44.97932" lon="6.0685">
        <ele>1319</ele>
        <time>2020-07-23T01:35:45Z</time>
      </trkpt>
      <trkpt lat="44.97933" lon="6.06856">
        <ele>1317</ele>
        <time>2020-07-23T01:35:51Z</time>
      </trkpt>
      <trkpt lat="44.9793" lon="6.06866">
        <ele>1316</ele>
        <time>2020-07-23T01:36:01Z</time>
      </trkpt>
      <trkpt lat="44.97932" lon="6.06881">
        <ele>1312</ele>
        <time>2020-07-23T01:36:15Z</time>
      </trkpt>
      <trkpt lat="44.97932" lon="6.06911">
        <ele>1305</ele>
        <time>2020-07-23T01:36:44Z</time>
      </trkpt>
      <trkpt lat="44.97935" lon="6.06931">
        <ele>1300</ele>
        <time>2020-07-23T01:37:03Z</time>
      </trkpt>
      <trkpt lat="44.97927" lon="6.06952">
        <ele>1299</ele>
        <time>2020-07-23T01:37:25Z</time>
      </trkpt>
      <trkpt lat="44.97922" lon="6.06981">
        <ele>1297</ele>
        <time>2020-07-23T01:37:54Z</time>
      </trkpt>
      <trkpt lat="44.97925" lon="6.0699">
        <ele>1294</ele>
        <time>2020-07-23T01:38:03Z</time>
      </trkpt>
      <trkpt lat="44.97917" lon="6.07012">
        <ele>1294</ele>
        <time>2020-07-23T01:38:26Z</time>
      </trkpt>
      <trkpt lat="44.97941" lon="6.07035">
        <ele>1278</ele>
        <time>2020-07-23T01:39:05Z</time>
      </trkpt>
      <trkpt lat="44.97945" lon="6.07045">
        <ele>1274</ele>
        <time>2020-07-23T01:39:16Z</time>
      </trkpt>
      <trkpt lat="44.97957" lon="6.07046">
        <ele>1268</ele>
        <time>2020-07-23T01:39:32Z</time>
      </trkpt>
      <trkpt lat="44.97964" lon="6.07043">
        <ele>1265</ele>
        <time>2020-07-23T01:39:42Z</time>
      </trkpt>
      <trkpt lat="44.97977" lon="6.06987">
        <ele>1269</ele>
        <time>2020-07-23T01:40:37Z</time>
      </trkpt>
      <trkpt lat="44.97982" lon="6.06981">
        <ele>1268</ele>
        <time>2020-07-23T01:40:46Z</time>
      </trkpt>
      <trkpt lat="44.97995" lon="6.06979">
        <ele>1262</ele>
        <time>2020-07-23T01:41:03Z</time>
      </trkpt>
      <trkpt lat="44.98018" lon="6.06988">
        <ele>1251</ele>
        <time>2020-07-23T01:41:35Z</time>
      </trkpt>
      <trkpt lat="44.98005" lon="6.07007">
        <ele>1251</ele>
        <time>2020-07-23T01:42:00Z</time>
      </trkpt>
      <trkpt lat="44.98009" lon="6.07021">
        <ele>1248</ele>
        <time>2020-07-23T01:42:15Z</time>
      </trkpt>
      <trkpt lat="44.98018" lon="6.07023">
        <ele>1244</ele>
        <time>2020-07-23T01:42:27Z</time>
      </trkpt>
      <trkpt lat="44.98033" lon="6.07041">
        <ele>1235</ele>
        <time>2020-07-23T01:42:53Z</time>
      </trkpt>
      <trkpt lat="44.98043" lon="6.07042">
        <ele>1231</ele>
        <time>2020-07-23T01:43:06Z</time>
      </trkpt>
      <trkpt lat="44.9805" lon="6.07028">
        <ele>1231</ele>
        <time>2020-07-23T01:43:22Z</time>
      </trkpt>
      <trkpt lat="44.98059" lon="6.07005">
        <ele>1232</ele>
        <time>2020-07-23T01:43:47Z</time>
      </trkpt>
      <trkpt lat="44.98056" lon="6.07036">
        <ele>1227</ele>
        <time>2020-07-23T01:44:17Z</time>
      </trkpt>
      <trkpt lat="44.98078" lon="6.07035">
        <ele>1219</ele>
        <time>2020-07-23T01:44:46Z</time>
      </trkpt>
      <trkpt lat="44.98069" lon="6.07055">
        <ele>1218</ele>
        <time>2020-07-23T01:45:09Z</time>
      </trkpt>
      <trkpt lat="44.98077" lon="6.07051">
        <ele>1216</ele>
        <time>2020-07-23T01:45:20Z</time>
      </trkpt>
      <trkpt lat="44.98083" lon="6.07063">
        <ele>1211</ele>
        <time>2020-07-23T01:45:34Z</time>
      </trkpt>
      <trkpt lat="44.98074" lon="6.07085">
        <ele>1210</ele>
        <time>2020-07-23T01:45:58Z</time>
      </trkpt>
      <trkpt lat="44.98078" lon="6.07098">
        <ele>1206</ele>
        <time>2020-07-23T01:46:11Z</time>
      </trkpt>
      <trkpt lat="44.98061" lon="6.07122">
        <ele>1210</ele>
        <time>2020-07-23T01:46:43Z</time>
      </trkpt>
      <trkpt lat="44.98075" lon="6.07124">
        <ele>1203</ele>
        <time>2020-07-23T01:47:02Z</time>
      </trkpt>
      <trkpt lat="44.98079" lon="6.07126">
        <ele>1200</ele>
        <time>2020-07-23T01:47:08Z</time>
      </trkpt>
      <trkpt lat="44.9809" lon="6.0713">
        <ele>1197</ele>
        <time>2020-07-23T01:47:23Z</time>
      </trkpt>
      <trkpt lat="44.98087" lon="6.07145">
        <ele>1194</ele>
        <time>2020-07-23T01:47:38Z</time>
      </trkpt>
      <trkpt lat="44.98099" lon="6.07148">
        <ele>1192</ele>
        <time>2020-07-23T01:47:54Z</time>
      </trkpt>
      <trkpt lat="44.98101" lon="6.07161">
        <ele>1189</ele>
        <time>2020-07-23T01:48:06Z</time>
      </trkpt>
      <trkpt lat="44.98108" lon="6.07163">
        <ele>1188</ele>
        <time>2020-07-23T01:48:16Z</time>
      </trkpt>
      <trkpt lat="44.98106" lon="6.07169">
        <ele>1187</ele>
        <time>2020-07-23T01:48:22Z</time>
      </trkpt>
      <trkpt lat="44.98132" lon="6.0718">
        <ele>1182</ele>
        <time>2020-07-23T01:48:58Z</time>
      </trkpt>
      <trkpt lat="44.98141" lon="6.07174">
        <ele>1181</ele>
        <time>2020-07-23T01:49:12Z</time>
      </trkpt>
      <trkpt lat="44.9816" lon="6.07184">
        <ele>1176</ele>
        <time>2020-07-23T01:49:39Z</time>
      </trkpt>
      <trkpt lat="44.98159" lon="6.07206">
        <ele>1173</ele>
        <time>2020-07-23T01:49:59Z</time>
      </trkpt>
      <trkpt lat="44.98167" lon="6.07218">
        <ele>1170</ele>
        <time>2020-07-23T01:50:15Z</time>
      </trkpt>
      <trkpt lat="44.98196" lon="6.07208">
        <ele>1163</ele>
        <time>2020-07-23T01:50:55Z</time>
      </trkpt>
      <trkpt lat="44.98217" lon="6.0723">
        <ele>1152</ele>
        <time>2020-07-23T01:51:30Z</time>
      </trkpt>
      <trkpt lat="44.98252" lon="6.07229">
        <ele>1142</ele>
        <time>2020-07-23T01:52:16Z</time>
      </trkpt>
      <trkpt lat="44.9829" lon="6.07243">
        <ele>1130</ele>
        <time>2020-07-23T01:53:09Z</time>
      </trkpt>
      <trkpt lat="44.98291" lon="6.07252">
        <ele>1128</ele>
        <time>2020-07-23T01:53:17Z</time>
      </trkpt>
      <trkpt lat="44.98299" lon="6.07257">
        <ele>1125</ele>
        <time>2020-07-23T01:53:29Z</time>
      </trkpt>
      <trkpt lat="44.98324" lon="6.07246">
        <ele>1122</ele>
        <time>2020-07-23T01:54:04Z</time>
      </trkpt>
      <trkpt lat="44.98337" lon="6.07265">
        <ele>1116</ele>
        <time>2020-07-23T01:54:29Z</time>
      </trkpt>
      <trkpt lat="44.98377" lon="6.07272">
        <ele>1108</ele>
        <time>2020-07-23T01:55:23Z</time>
      </trkpt>
      <trkpt lat="44.98411" lon="6.07291">
        <ele>1098</ele>
        <time>2020-07-23T01:56:12Z</time>
      </trkpt>
      <trkpt lat="44.98439" lon="6.07329">
        <ele>1088</ele>
        <time>2020-07-23T01:57:03Z</time>
      </trkpt>
      <trkpt lat="44.98455" lon="6.07342">
        <ele>1085</ele>
        <time>2020-07-23T01:57:28Z</time>
      </trkpt>
      <trkpt lat="44.98467" lon="6.07354">
        <ele>1083</ele>
        <time>2020-07-23T01:57:48Z</time>
      </trkpt>
      <trkpt lat="44.98486" lon="6.07366">
        <ele>1079</ele>
        <time>2020-07-23T01:58:15Z</time>
      </trkpt>
      <trkpt lat="44.98485" lon="6.07371">
        <ele>1078</ele>
        <time>2020-07-23T01:58:20Z</time>
      </trkpt>
      <trkpt lat="44.98495" lon="6.07387">
        <ele>1075</ele>
        <time>2020-07-23T01:58:40Z</time>
      </trkpt>
      <trkpt lat="44.98499" lon="6.0739">
        <ele>1074</ele>
        <time>2020-07-23T01:58:47Z</time>
      </trkpt>
      <trkpt lat="44.98514" lon="6.07396">
        <ele>1071</ele>
        <time>2020-07-23T01:59:07Z</time>
      </trkpt>
      <trkpt lat="44.98524" lon="6.07395">
        <ele>1070</ele>
        <time>2020-07-23T01:59:21Z</time>
      </trkpt>
      <trkpt lat="44.98539" lon="6.07405">
        <ele>1066</ele>
        <time>2020-07-23T01:59:43Z</time>
      </trkpt>
      <trkpt lat="44.98545" lon="6.07403">
        <ele>1066</ele>
        <time>2020-07-23T01:59:51Z</time>
      </trkpt>
      <trkpt lat="44.98559" lon="6.07416">
        <ele>1060</ele>
        <time>2020-07-23T02:00:13Z</time>
      </trkpt>
      <trkpt lat="44.98616" lon="6.07416">
        <ele>1048</ele>
        <time>2020-07-23T02:01:29Z</time>
      </trkpt>
      <trkpt lat="44.98619" lon="6.07421">
        <ele>1046</ele>
        <time>2020-07-23T02:01:36Z</time>
      </trkpt>
      <trkpt lat="44.98608" lon="6.07443">
        <ele>1044</ele>
        <time>2020-07-23T02:02:01Z</time>
      </trkpt>
      <trkpt lat="44.98606" lon="6.07462">
        <ele>1040</ele>
        <time>2020-07-23T02:02:19Z</time>
      </trkpt>
      <trkpt lat="44.98594" lon="6.07505">
        <ele>1034</ele>
        <time>2020-07-23T02:03:03Z</time>
      </trkpt>
      <trkpt lat="44.98611" lon="6.07515">
        <ele>1030</ele>
        <time>2020-07-23T02:03:27Z</time>
      </trkpt>
      <trkpt lat="44.98621" lon="6.0751">
        <ele>1028</ele>
        <time>2020-07-23T02:03:42Z</time>
      </trkpt>
      <trkpt lat="44.98626" lon="6.0751">
        <ele>1027</ele>
        <time>2020-07-23T02:03:48Z</time>
      </trkpt>
      <trkpt lat="44.98643" lon="6.07521">
        <ele>1023</ele>
        <time>2020-07-23T02:04:13Z</time>
      </trkpt>
      <trkpt lat="44.98661" lon="6.07513">
        <ele>1019</ele>
        <time>2020-07-23T02:04:38Z</time>
      </trkpt>
      <trkpt lat="44.98663" lon="6.07518">
        <ele>1018</ele>
        <time>2020-07-23T02:04:44Z</time>
      </trkpt>
      <trkpt lat="44.98661" lon="6.07534">
        <ele>1019</ele>
        <time>2020-07-23T02:04:59Z</time>
      </trkpt>
      <trkpt lat="44.98766" lon="6.07515">
        <ele>998</ele>
        <time>2020-07-23T02:07:20Z</time>
      </trkpt>
      <trkpt lat="44.98835" lon="6.07518">
        <ele>985</ele>
        <time>2020-07-23T02:08:53Z</time>
      </trkpt>
      <trkpt lat="44.98917" lon="6.07505">
        <ele>969</ele>
        <time>2020-07-23T02:10:43Z</time>
      </trkpt>
      <trkpt lat="44.98997" lon="6.0752">
        <ele>947</ele>
        <time>2020-07-23T02:12:30Z</time>
      </trkpt>
      <trkpt lat="44.99095" lon="6.07469">
        <ele>919</ele>
        <time>2020-07-23T02:14:50Z</time>
      </trkpt>
      <trkpt lat="44.99201" lon="6.07446">
        <ele>893</ele>
        <time>2020-07-23T02:17:13Z</time>
      </trkpt>
      <trkpt lat="44.99253" lon="6.07412">
        <ele>880</ele>
        <time>2020-07-23T02:18:29Z</time>
      </trkpt>
      <trkpt lat="44.9927" lon="6.07367">
        <ele>874</ele>
        <time>2020-07-23T02:19:17Z</time>
      </trkpt>
      <trkpt lat="44.99301" lon="6.07347">
        <ele>868</ele>
        <time>2020-07-23T02:20:03Z</time>
      </trkpt>
      <trkpt lat="44.99323" lon="6.07348">
        <ele>863</ele>
        <time>2020-07-23T02:20:32Z</time>
      </trkpt>
      <trkpt lat="44.99328" lon="6.07348">
        <ele>862</ele>
        <time>2020-07-23T02:20:39Z</time>
      </trkpt>
      <trkpt lat="44.99335" lon="6.07338">
        <ele>861</ele>
        <time>2020-07-23T02:20:52Z</time>
      </trkpt>
      <trkpt lat="44.99334" lon="6.07324">
        <ele>861</ele>
        <time>2020-07-23T02:21:05Z</time>
      </trkpt>
      <trkpt lat="44.99339" lon="6.07298">
        <ele>860</ele>
        <time>2020-07-23T02:21:31Z</time>
      </trkpt>
      <trkpt lat="44.99342" lon="6.07276">
        <ele>860</ele>
        <time>2020-07-23T02:21:52Z</time>
      </trkpt>
      <trkpt lat="44.99349" lon="6.07253">
        <ele>859</ele>
        <time>2020-07-23T02:22:16Z</time>
      </trkpt>
      <trkpt lat="44.9936" lon="6.07239">
        <ele>857</ele>
        <time>2020-07-23T02:22:35Z</time>
      </trkpt>
      <trkpt lat="44.99368" lon="6.07234">
        <ele>856</ele>
        <time>2020-07-23T02:22:47Z</time>
      </trkpt>
      <trkpt lat="44.99383" lon="6.07233">
        <ele>854</ele>
        <time>2020-07-23T02:23:07Z</time>
      </trkpt>
      <trkpt lat="44.99387" lon="6.07231">
        <ele>853</ele>
        <time>2020-07-23T02:23:13Z</time>
      </trkpt>
      <trkpt lat="44.99399" lon="6.07208">
        <ele>851</ele>
        <time>2020-07-23T02:23:40Z</time>
      </trkpt>
      <trkpt lat="44.99402" lon="6.07206">
        <ele>851</ele>
        <time>2020-07-23T02:23:44Z</time>
      </trkpt>
      <trkpt lat="44.99408" lon="6.07205">
        <ele>850</ele>
        <time>2020-07-23T02:23:52Z</time>
      </trkpt>
      <trkpt lat="44.99413" lon="6.0719">
        <ele>849</ele>
        <time>2020-07-23T02:24:08Z</time>
      </trkpt>
      <trkpt lat="44.99422" lon="6.07182">
        <ele>848</ele>
        <time>2020-07-23T02:24:22Z</time>
      </trkpt>
      <trkpt lat="44.99426" lon="6.07189">
        <ele>847</ele>
        <time>2020-07-23T02:24:31Z</time>
      </trkpt>
      <trkpt lat="44.9942" lon="6.07224">
        <ele>847</ele>
        <time>2020-07-23T02:25:05Z</time>
      </trkpt>
      <trkpt lat="44.99442" lon="6.07229">
        <ele>841</ele>
        <time>2020-07-23T02:25:34Z</time>
      </trkpt>
      <trkpt lat="44.99463" lon="6.07221">
        <ele>836</ele>
        <time>2020-07-23T02:26:03Z</time>
      </trkpt>
      <trkpt lat="44.995" lon="6.07194">
        <ele>830</ele>
        <time>2020-07-23T02:26:59Z</time>
      </trkpt>
      <trkpt lat="44.99519" lon="6.07185">
        <ele>828</ele>
        <time>2020-07-23T02:27:26Z</time>
      </trkpt>
      <trkpt lat="44.99557" lon="6.07159">
        <ele>824</ele>
        <time>2020-07-23T02:28:22Z</time>
      </trkpt>
      <trkpt lat="44.99576" lon="6.07149">
        <ele>821</ele>
        <time>2020-07-23T02:28:49Z</time>
      </trkpt>
      <trkpt lat="44.99603" lon="6.07112">
        <ele>818</ele>
        <time>2020-07-23T02:29:39Z</time>
      </trkpt>
      <trkpt lat="44.99629" lon="6.071">
        <ele>813</ele>
        <time>2020-07-23T02:30:16Z</time>
      </trkpt>
      <trkpt lat="44.99657" lon="6.07085">
        <ele>809</ele>
        <time>2020-07-23T02:30:56Z</time>
      </trkpt>
      <trkpt lat="44.99666" lon="6.07069">
        <ele>808</ele>
        <time>2020-07-23T02:31:15Z</time>
      </trkpt>
      <trkpt lat="44.99675" lon="6.07039">
        <ele>810</ele>
        <time>2020-07-23T02:31:46Z</time>
      </trkpt>
      <trkpt lat="44.99691" lon="6.07006">
        <ele>810</ele>
        <time>2020-07-23T02:32:23Z</time>
      </trkpt>
      <trkpt lat="44.997" lon="6.06985">
        <ele>812</ele>
        <time>2020-07-23T02:32:47Z</time>
      </trkpt>
      <trkpt lat="44.99711" lon="6.06975">
        <ele>812</ele>
        <time>2020-07-23T02:33:04Z</time>
      </trkpt>
      <trkpt lat="44.99791" lon="6.06935">
        <ele>811</ele>
        <time>2020-07-23T02:34:57Z</time>
      </trkpt>
      <trkpt lat="44.99806" lon="6.06921">
        <ele>812</ele>
        <time>2020-07-23T02:35:21Z</time>
      </trkpt>
      <trkpt lat="44.99816" lon="6.06906">
        <ele>813</ele>
        <time>2020-07-23T02:35:41Z</time>
      </trkpt>
      <trkpt lat="44.99825" lon="6.06899">
        <ele>813</ele>
        <time>2020-07-23T02:35:54Z</time>
      </trkpt>
      <trkpt lat="44.99841" lon="6.06893">
        <ele>812</ele>
        <time>2020-07-23T02:36:17Z</time>
      </trkpt>
      <trkpt lat="44.99854" lon="6.0689">
        <ele>810</ele>
        <time>2020-07-23T02:36:34Z</time>
      </trkpt>
      <trkpt lat="44.99866" lon="6.06895">
        <ele>807</ele>
        <time>2020-07-23T02:36:51Z</time>
      </trkpt>
      <trkpt lat="44.99902" lon="6.06899">
        <ele>801</ele>
        <time>2020-07-23T02:37:39Z</time>
      </trkpt>
      <trkpt lat="44.99927" lon="6.06895">
        <ele>798</ele>
        <time>2020-07-23T02:38:13Z</time>
      </trkpt>
      <trkpt lat="44.99944" lon="6.06896">
        <ele>795</ele>
        <time>2020-07-23T02:38:35Z</time>
      </trkpt>
      <trkpt lat="44.99978" lon="6.06853">
        <ele>796</ele>
        <time>2020-07-23T02:39:36Z</time>
      </trkpt>
      <trkpt lat="44.99994" lon="6.06837">
        <ele>795</ele>
        <time>2020-07-23T02:40:02Z</time>
      </trkpt>
      <trkpt lat="45.00008" lon="6.06814">
        <ele>800</ele>
        <time>2020-07-23T02:40:31Z</time>
      </trkpt>
      <trkpt lat="45.00138" lon="6.06783">
        <ele>794</ele>
        <time>2020-07-23T02:43:27Z</time>
      </trkpt>
      <trkpt lat="45.00183" lon="6.068">
        <ele>785</ele>
        <time>2020-07-23T02:44:29Z</time>
      </trkpt>
      <trkpt lat="45.00234" lon="6.06797">
        <ele>781</ele>
        <time>2020-07-23T02:45:37Z</time>
      </trkpt>
      <trkpt lat="45.00264" lon="6.068">
        <ele>778</ele>
        <time>2020-07-23T02:46:17Z</time>
      </trkpt>
      <trkpt lat="45.00296" lon="6.06806">
        <ele>773</ele>
        <time>2020-07-23T02:47:00Z</time>
      </trkpt>
      <trkpt lat="45.0033" lon="6.068">
        <ele>770</ele>
        <time>2020-07-23T02:47:46Z</time>
      </trkpt>
      <trkpt lat="45.0034" lon="6.06789">
        <ele>770</ele>
        <time>2020-07-23T02:48:03Z</time>
      </trkpt>
      <trkpt lat="45.00362" lon="6.06787">
        <ele>770</ele>
        <time>2020-07-23T02:48:32Z</time>
      </trkpt>
      <trkpt lat="45.00374" lon="6.0678">
        <ele>771</ele>
        <time>2020-07-23T02:48:50Z</time>
      </trkpt>
      <trkpt lat="45.00394" lon="6.06754">
        <ele>771</ele>
        <time>2020-07-23T02:49:26Z</time>
      </trkpt>
      <trkpt lat="45.00411" lon="6.06743">
        <ele>772</ele>
        <time>2020-07-23T02:49:51Z</time>
      </trkpt>
      <trkpt lat="45.0045" lon="6.06737">
        <ele>771</ele>
        <time>2020-07-23T02:50:43Z</time>
      </trkpt>
      <trkpt lat="45.00472" lon="6.06721">
        <ele>772</ele>
        <time>2020-07-23T02:51:16Z</time>
      </trkpt>
      <trkpt lat="45.00498" lon="6.06708">
        <ele>771</ele>
        <time>2020-07-23T02:51:53Z</time>
      </trkpt>
      <trkpt lat="45.00536" lon="6.06685">
        <ele>769</ele>
        <time>2020-07-23T02:52:48Z</time>
      </trkpt>
      <trkpt lat="45.0056" lon="6.06644">
        <ele>770</ele>
        <time>2020-07-23T02:53:38Z</time>
      </trkpt>
      <trkpt lat="45.00588" lon="6.06616">
        <ele>769</ele>
        <time>2020-07-23T02:54:24Z</time>
      </trkpt>
      <trkpt lat="45.00617" lon="6.06598">
        <ele>767</ele>
        <time>2020-07-23T02:55:06Z</time>
      </trkpt>
      <trkpt lat="45.00631" lon="6.0655">
        <ele>768</ele>
        <time>2020-07-23T02:55:55Z</time>
      </trkpt>
      <trkpt lat="45.00664" lon="6.06527">
        <ele>763</ele>
        <time>2020-07-23T02:56:45Z</time>
      </trkpt>
      <trkpt lat="45.00687" lon="6.06491">
        <ele>762</ele>
        <time>2020-07-23T02:57:30Z</time>
      </trkpt>
      <trkpt lat="45.007" lon="6.06482">
        <ele>762</ele>
        <time>2020-07-23T02:57:50Z</time>
      </trkpt>
      <trkpt lat="45.00735" lon="6.06418">
        <ele>760</ele>
        <time>2020-07-23T02:59:06Z</time>
      </trkpt>
      <trkpt lat="45.00758" lon="6.06393">
        <ele>759</ele>
        <time>2020-07-23T02:59:45Z</time>
      </trkpt>
      <trkpt lat="45.0078" lon="6.06368">
        <ele>761</ele>
        <time>2020-07-23T03:00:22Z</time>
      </trkpt>
      <trkpt lat="45.00832" lon="6.06351">
        <ele>763</ele>
        <time>2020-07-23T03:01:34Z</time>
      </trkpt>
      <trkpt lat="45.00868" lon="6.06333">
        <ele>762</ele>
        <time>2020-07-23T03:02:25Z</time>
      </trkpt>
      <trkpt lat="45.00891" lon="6.06314">
        <ele>762</ele>
        <time>2020-07-23T03:03:00Z</time>
      </trkpt>
      <trkpt lat="45.00918" lon="6.06283">
        <ele>761</ele>
        <time>2020-07-23T03:03:46Z</time>
      </trkpt>
      <trkpt lat="45.00945" lon="6.0624">
        <ele>760</ele>
        <time>2020-07-23T03:04:41Z</time>
      </trkpt>
      <trkpt lat="45.00959" lon="6.06202">
        <ele>759</ele>
        <time>2020-07-23T03:05:21Z</time>
      </trkpt>
      <trkpt lat="45.00978" lon="6.06178">
        <ele>758</ele>
        <time>2020-07-23T03:05:55Z</time>
      </trkpt>
      <trkpt lat="45.01008" lon="6.06165">
        <ele>756</ele>
        <time>2020-07-23T03:06:37Z</time>
      </trkpt>
      <trkpt lat="45.01045" lon="6.06142">
        <ele>754</ele>
        <time>2020-07-23T03:07:31Z</time>
      </trkpt>
      <trkpt lat="45.01069" lon="6.06123">
        <ele>753</ele>
        <time>2020-07-23T03:08:08Z</time>
      </trkpt>
      <trkpt lat="45.01208" lon="6.06041">
        <ele>751</ele>
        <time>2020-07-23T03:11:29Z</time>
      </trkpt>
      <trkpt lat="45.01232" lon="6.06021">
        <ele>749</ele>
        <time>2020-07-23T03:12:06Z</time>
      </trkpt>
      <trkpt lat="45.013" lon="6.06021">
        <ele>748</ele>
        <time>2020-07-23T03:13:37Z</time>
      </trkpt>
      <trkpt lat="45.01324" lon="6.06004">
        <ele>748</ele>
        <time>2020-07-23T03:14:12Z</time>
      </trkpt>
      <trkpt lat="45.0135" lon="6.05993">
        <ele>748</ele>
        <time>2020-07-23T03:14:49Z</time>
      </trkpt>
      <trkpt lat="45.01378" lon="6.05985">
        <ele>748</ele>
        <time>2020-07-23T03:15:27Z</time>
      </trkpt>
      <trkpt lat="45.01405" lon="6.05973">
        <ele>749</ele>
        <time>2020-07-23T03:16:04Z</time>
      </trkpt>
      <trkpt lat="45.01419" lon="6.05914">
        <ele>751</ele>
        <time>2020-07-23T03:17:03Z</time>
      </trkpt>
      <trkpt lat="45.01418" lon="6.05896">
        <ele>753</ele>
        <time>2020-07-23T03:17:20Z</time>
      </trkpt>
      <trkpt lat="45.01413" lon="6.05875">
        <ele>755</ele>
        <time>2020-07-23T03:17:41Z</time>
      </trkpt>
      <trkpt lat="45.0141" lon="6.05854">
        <ele>757</ele>
        <time>2020-07-23T03:18:01Z</time>
      </trkpt>
      <trkpt lat="45.01409" lon="6.05838">
        <ele>758</ele>
        <time>2020-07-23T03:18:17Z</time>
      </trkpt>
      <trkpt lat="45.01412" lon="6.05796">
        <ele>763</ele>
        <time>2020-07-23T03:18:56Z</time>
      </trkpt>
      <trkpt lat="45.01423" lon="6.05759">
        <ele>766</ele>
        <time>2020-07-23T03:19:34Z</time>
      </trkpt>
      <trkpt lat="45.01429" lon="6.05749">
        <ele>766</ele>
        <time>2020-07-23T03:19:47Z</time>
      </trkpt>
      <trkpt lat="45.01456" lon="6.05729">
        <ele>767</ele>
        <time>2020-07-23T03:20:27Z</time>
      </trkpt>
      <trkpt lat="45.01476" lon="6.05707">
        <ele>769</ele>
        <time>2020-07-23T03:21:01Z</time>
      </trkpt>
      <trkpt lat="45.01497" lon="6.05683">
        <ele>771</ele>
        <time>2020-07-23T03:21:37Z</time>
      </trkpt>
      <trkpt lat="45.01505" lon="6.05669">
        <ele>772</ele>
        <time>2020-07-23T03:21:54Z</time>
      </trkpt>
      <trkpt lat="45.01517" lon="6.05634">
        <ele>779</ele>
        <time>2020-07-23T03:22:31Z</time>
      </trkpt>
      <trkpt lat="45.01548" lon="6.05574">
        <ele>791</ele>
        <time>2020-07-23T03:23:41Z</time>
      </trkpt>
      <trkpt lat="45.0156" lon="6.05566">
        <ele>793</ele>
        <time>2020-07-23T03:23:59Z</time>
      </trkpt>
      <trkpt lat="45.01569" lon="6.0556">
        <ele>795</ele>
        <time>2020-07-23T03:24:12Z</time>
      </trkpt>
      <trkpt lat="45.01581" lon="6.05554">
        <ele>796</ele>
        <time>2020-07-23T03:24:29Z</time>
      </trkpt>
      <trkpt lat="45.016" lon="6.0555">
        <ele>798</ele>
        <time>2020-07-23T03:24:54Z</time>
      </trkpt>
      <trkpt lat="45.01607" lon="6.05554">
        <ele>795</ele>
        <time>2020-07-23T03:25:05Z</time>
      </trkpt>
      <trkpt lat="45.01612" lon="6.05558">
        <ele>792</ele>
        <time>2020-07-23T03:25:12Z</time>
      </trkpt>
      <trkpt lat="45.01621" lon="6.05566">
        <ele>787</ele>
        <time>2020-07-23T03:25:26Z</time>
      </trkpt>
      <trkpt lat="45.01688" lon="6.05571">
        <ele>783</ele>
        <time>2020-07-23T03:26:56Z</time>
      </trkpt>
      <trkpt lat="45.01719" lon="6.05575">
        <ele>779</ele>
        <time>2020-07-23T03:27:37Z</time>
      </trkpt>
      <trkpt lat="45.0174" lon="6.0557">
        <ele>780</ele>
        <time>2020-07-23T03:28:06Z</time>
      </trkpt>
      <trkpt lat="45.01761" lon="6.05571">
        <ele>778</ele>
        <time>2020-07-23T03:28:34Z</time>
      </trkpt>
      <trkpt lat="45.01784" lon="6.05584">
        <ele>773</ele>
        <time>2020-07-23T03:29:07Z</time>
      </trkpt>
      <trkpt lat="45.01809" lon="6.05595">
        <ele>770</ele>
        <time>2020-07-23T03:29:42Z</time>
      </trkpt>
      <trkpt lat="45.0183" lon="6.05589">
        <ele>769</ele>
        <time>2020-07-23T03:30:10Z</time>
      </trkpt>
      <trkpt lat="45.01847" lon="6.05577">
        <ele>770</ele>
        <time>2020-07-23T03:30:36Z</time>
      </trkpt>
      <trkpt lat="45.01863" lon="6.05576">
        <ele>768</ele>
        <time>2020-07-23T03:30:57Z</time>
      </trkpt>
      <trkpt lat="45.01945" lon="6.05585">
        <ele>757</ele>
        <time>2020-07-23T03:32:47Z</time>
      </trkpt>
      <trkpt lat="45.01946" lon="6.05588">
        <ele>757</ele>
        <time>2020-07-23T03:32:50Z</time>
      </trkpt>
      <trkpt lat="45.01954" lon="6.05605">
        <ele>755</ele>
        <time>2020-07-23T03:33:09Z</time>
      </trkpt>
      <trkpt lat="45.01957" lon="6.05664">
        <ele>750</ele>
        <time>2020-07-23T03:34:05Z</time>
      </trkpt>
      <trkpt lat="45.01954" lon="6.05698">
        <ele>750</ele>
        <time>2020-07-23T03:34:37Z</time>
      </trkpt>
      <trkpt lat="45.01943" lon="6.0574">
        <ele>750</ele>
        <time>2020-07-23T03:35:20Z</time>
      </trkpt>
      <trkpt lat="45.01932" lon="6.05765">
        <ele>751</ele>
        <time>2020-07-23T03:35:48Z</time>
      </trkpt>
      <trkpt lat="45.01911" lon="6.058">
        <ele>752</ele>
        <time>2020-07-23T03:36:31Z</time>
      </trkpt>
      <trkpt lat="45.0193" lon="6.05801">
        <ele>751</ele>
        <time>2020-07-23T03:36:56Z</time>
      </trkpt>
      <trkpt lat="45.01965" lon="6.05824">
        <ele>749</ele>
        <time>2020-07-23T03:37:48Z</time>
      </trkpt>
      <trkpt lat="45.01995" lon="6.05831">
        <ele>747</ele>
        <time>2020-07-23T03:38:28Z</time>
      </trkpt>
      <trkpt lat="45.02011" lon="6.05828">
        <ele>747</ele>
        <time>2020-07-23T03:38:50Z</time>
      </trkpt>
      <trkpt lat="45.02033" lon="6.05815">
        <ele>747</ele>
        <time>2020-07-23T03:39:22Z</time>
      </trkpt>
      <trkpt lat="45.0205" lon="6.058">
        <ele>746</ele>
        <time>2020-07-23T03:39:48Z</time>
      </trkpt>
      <trkpt lat="45.02067" lon="6.05796">
        <ele>746</ele>
        <time>2020-07-23T03:40:11Z</time>
      </trkpt>
      <trkpt lat="45.0208" lon="6.058">
        <ele>745</ele>
        <time>2020-07-23T03:40:29Z</time>
      </trkpt>
      <trkpt lat="45.02093" lon="6.05808">
        <ele>746</ele>
        <time>2020-07-23T03:40:48Z</time>
      </trkpt>
      <trkpt lat="45.02104" lon="6.05809">
        <ele>746</ele>
        <time>2020-07-23T03:41:03Z</time>
      </trkpt>
      <trkpt lat="45.02138" lon="6.0578">
        <ele>745</ele>
        <time>2020-07-23T03:41:56Z</time>
      </trkpt>
      <trkpt lat="45.02181" lon="6.0575">
        <ele>744</ele>
        <time>2020-07-23T03:43:00Z</time>
      </trkpt>
      <trkpt lat="45.02213" lon="6.05735">
        <ele>744</ele>
        <time>2020-07-23T03:43:45Z</time>
      </trkpt>
      <trkpt lat="45.02228" lon="6.05723">
        <ele>744</ele>
        <time>2020-07-23T03:44:08Z</time>
      </trkpt>
      <trkpt lat="45.02243" lon="6.05707">
        <ele>744</ele>
        <time>2020-07-23T03:44:33Z</time>
      </trkpt>
      <trkpt lat="45.02254" lon="6.05688">
        <ele>744</ele>
        <time>2020-07-23T03:44:56Z</time>
      </trkpt>
      <trkpt lat="45.02266" lon="6.0563">
        <ele>743</ele>
        <time>2020-07-23T03:45:53Z</time>
      </trkpt>
      <trkpt lat="45.02267" lon="6.05613">
        <ele>742</ele>
        <time>2020-07-23T03:46:09Z</time>
      </trkpt>
      <trkpt lat="45.02264" lon="6.05605">
        <ele>742</ele>
        <time>2020-07-23T03:46:18Z</time>
      </trkpt>
      <trkpt lat="45.02264" lon="6.05592">
        <ele>741</ele>
        <time>2020-07-23T03:46:30Z</time>
      </trkpt>
      <trkpt lat="45.02266" lon="6.05555">
        <ele>741</ele>
        <time>2020-07-23T03:47:05Z</time>
      </trkpt>
      <trkpt lat="45.02267" lon="6.05546">
        <ele>741</ele>
        <time>2020-07-23T03:47:13Z</time>
      </trkpt>
      <trkpt lat="45.02274" lon="6.05542">
        <ele>741</ele>
        <time>2020-07-23T03:47:23Z</time>
      </trkpt>
      <trkpt lat="45.02307" lon="6.05533">
        <ele>741</ele>
        <time>2020-07-23T03:48:08Z</time>
      </trkpt>
      <trkpt lat="45.02318" lon="6.05522">
        <ele>741</ele>
        <time>2020-07-23T03:48:26Z</time>
      </trkpt>
      <trkpt lat="45.02395" lon="6.05412">
        <ele>741</ele>
        <time>2020-07-23T03:50:52Z</time>
      </trkpt>
      <trkpt lat="45.02404" lon="6.0539">
        <ele>740</ele>
        <time>2020-07-23T03:51:16Z</time>
      </trkpt>
      <trkpt lat="45.02413" lon="6.05378">
        <ele>740</ele>
        <time>2020-07-23T03:51:33Z</time>
      </trkpt>
      <trkpt lat="45.02437" lon="6.05356">
        <ele>739</ele>
        <time>2020-07-23T03:52:11Z</time>
      </trkpt>
      <trkpt lat="45.02473" lon="6.05333">
        <ele>738</ele>
        <time>2020-07-23T03:53:04Z</time>
      </trkpt>
      <trkpt lat="45.02495" lon="6.05293">
        <ele>738</ele>
        <time>2020-07-23T03:53:51Z</time>
      </trkpt>
      <trkpt lat="45.02513" lon="6.05255">
        <ele>736</ele>
        <time>2020-07-23T03:54:35Z</time>
      </trkpt>
      <trkpt lat="45.0253" lon="6.05229">
        <ele>748</ele>
        <time>2020-07-23T03:55:08Z</time>
      </trkpt>
      <trkpt lat="45.02557" lon="6.05207">
        <ele>753</ele>
        <time>2020-07-23T03:55:50Z</time>
      </trkpt>
      <trkpt lat="45.02568" lon="6.05204">
        <ele>750</ele>
        <time>2020-07-23T03:56:05Z</time>
      </trkpt>
      <trkpt lat="45.02585" lon="6.05208">
        <ele>744</ele>
        <time>2020-07-23T03:56:28Z</time>
      </trkpt>
      <trkpt lat="45.02612" lon="6.05217">
        <ele>742</ele>
        <time>2020-07-23T03:57:05Z</time>
      </trkpt>
      <trkpt lat="45.02623" lon="6.05217">
        <ele>742</ele>
        <time>2020-07-23T03:57:19Z</time>
      </trkpt>
      <trkpt lat="45.02653" lon="6.05206">
        <ele>743</ele>
        <time>2020-07-23T03:58:01Z</time>
      </trkpt>
      <trkpt lat="45.02668" lon="6.05196">
        <ele>743</ele>
        <time>2020-07-23T03:58:23Z</time>
      </trkpt>
      <trkpt lat="45.02699" lon="6.0516">
        <ele>745</ele>
        <time>2020-07-23T03:59:16Z</time>
      </trkpt>
      <trkpt lat="45.02737" lon="6.05135">
        <ele>745</ele>
        <time>2020-07-23T04:00:12Z</time>
      </trkpt>
      <trkpt lat="45.02762" lon="6.051">
        <ele>745</ele>
        <time>2020-07-23T04:00:59Z</time>
      </trkpt>
      <trkpt lat="45.0277" lon="6.05084">
        <ele>745</ele>
        <time>2020-07-23T04:01:18Z</time>
      </trkpt>
      <trkpt lat="45.02783" lon="6.05067">
        <ele>750</ele>
        <time>2020-07-23T04:01:41Z</time>
      </trkpt>
      <trkpt lat="45.02797" lon="6.05055">
        <ele>752</ele>
        <time>2020-07-23T04:02:03Z</time>
      </trkpt>
      <trkpt lat="45.02815" lon="6.05047">
        <ele>751</ele>
        <time>2020-07-23T04:02:28Z</time>
      </trkpt>
      <trkpt lat="45.02836" lon="6.05042">
        <ele>748</ele>
        <time>2020-07-23T04:02:57Z</time>
      </trkpt>
      <trkpt lat="45.02837" lon="6.05052">
        <ele>746</ele>
        <time>2020-07-23T04:03:06Z</time>
      </trkpt>
      <trkpt lat="45.02836" lon="6.05042">
        <ele>748</ele>
        <time>2020-07-23T04:03:16Z</time>
      </trkpt>
      <trkpt lat="45.02856" lon="6.05035">
        <ele>747</ele>
        <time>2020-07-23T04:03:43Z</time>
      </trkpt>
      <trkpt lat="45.02856" lon="6.05061">
        <ele>743</ele>
        <time>2020-07-23T04:04:08Z</time>
      </trkpt>
      <trkpt lat="45.02858" lon="6.05069">
        <ele>742</ele>
        <time>2020-07-23T04:04:16Z</time>
      </trkpt>
      <trkpt lat="45.02861" lon="6.05075">
        <ele>741</ele>
        <time>2020-07-23T04:04:23Z</time>
      </trkpt>
      <trkpt lat="45.02872" lon="6.05083">
        <ele>740</ele>
        <time>2020-07-23T04:04:39Z</time>
      </trkpt>
      <trkpt lat="45.02883" lon="6.05087">
        <ele>740</ele>
        <time>2020-07-23T04:04:54Z</time>
      </trkpt>
      <trkpt lat="45.02909" lon="6.05093">
        <ele>741</ele>
        <time>2020-07-23T04:05:29Z</time>
      </trkpt>
      <trkpt lat="45.02942" lon="6.05096">
        <ele>740</ele>
        <time>2020-07-23T04:06:14Z</time>
      </trkpt>
      <trkpt lat="45.03033" lon="6.05119">
        <ele>737</ele>
        <time>2020-07-23T04:08:17Z</time>
      </trkpt>
      <trkpt lat="45.03052" lon="6.05122">
        <ele>737</ele>
        <time>2020-07-23T04:08:42Z</time>
      </trkpt>
      <trkpt lat="45.03166" lon="6.05144">
        <ele>736</ele>
        <time>2020-07-23T04:11:16Z</time>
      </trkpt>
      <trkpt lat="45.03388" lon="6.05192">
        <ele>734</ele>
        <time>2020-07-23T04:16:16Z</time>
      </trkpt>
      <trkpt lat="45.03613" lon="6.05256">
        <ele>732</ele>
        <time>2020-07-23T04:21:22Z</time>
      </trkpt>
      <trkpt lat="45.03623" lon="6.05247">
        <ele>732</ele>
        <time>2020-07-23T04:21:38Z</time>
      </trkpt>
      <trkpt lat="45.03632" lon="6.05244">
        <ele>733</ele>
        <time>2020-07-23T04:21:50Z</time>
      </trkpt>
      <trkpt lat="45.03645" lon="6.05243">
        <ele>734</ele>
        <time>2020-07-23T04:22:07Z</time>
      </trkpt>
      <trkpt lat="45.0367" lon="6.05246">
        <ele>735</ele>
        <time>2020-07-23T04:22:41Z</time>
      </trkpt>
      <trkpt lat="45.03699" lon="6.05254">
        <ele>734</ele>
        <time>2020-07-23T04:23:20Z</time>
      </trkpt>
      <trkpt lat="45.03765" lon="6.05256">
        <ele>733</ele>
        <time>2020-07-23T04:24:48Z</time>
      </trkpt>
      <trkpt lat="45.03774" lon="6.05259">
        <ele>733</ele>
        <time>2020-07-23T04:25:01Z</time>
      </trkpt>
      <trkpt lat="45.03798" lon="6.05274">
        <ele>732</ele>
        <time>2020-07-23T04:25:36Z</time>
      </trkpt>
      <trkpt lat="45.03815" lon="6.05282">
        <ele>731</ele>
        <time>2020-07-23T04:26:00Z</time>
      </trkpt>
      <trkpt lat="45.03829" lon="6.05286">
        <ele>731</ele>
        <time>2020-07-23T04:26:19Z</time>
      </trkpt>
      <trkpt lat="45.03836" lon="6.05285">
        <ele>731</ele>
        <time>2020-07-23T04:26:28Z</time>
      </trkpt>
      <trkpt lat="45.03829" lon="6.05286">
        <ele>731</ele>
        <time>2020-07-23T04:26:38Z</time>
      </trkpt>
      <trkpt lat="45.03815" lon="6.05282">
        <ele>731</ele>
        <time>2020-07-23T04:26:57Z</time>
      </trkpt>
      <trkpt lat="45.03798" lon="6.05274">
        <ele>732</ele>
        <time>2020-07-23T04:27:21Z</time>
      </trkpt>
      <trkpt lat="45.03774" lon="6.05259">
        <ele>733</ele>
        <time>2020-07-23T04:27:56Z</time>
      </trkpt>
      <trkpt lat="45.03765" lon="6.05256">
        <ele>733</ele>
        <time>2020-07-23T04:28:08Z</time>
      </trkpt>
      <trkpt lat="45.03699" lon="6.05254">
        <ele>734</ele>
        <time>2020-07-23T04:29:36Z</time>
      </trkpt>
      <trkpt lat="45.0367" lon="6.05246">
        <ele>735</ele>
        <time>2020-07-23T04:30:15Z</time>
      </trkpt>
      <trkpt lat="45.03645" lon="6.05243">
        <ele>734</ele>
        <time>2020-07-23T04:30:49Z</time>
      </trkpt>
      <trkpt lat="45.03632" lon="6.05244">
        <ele>733</ele>
        <time>2020-07-23T04:31:06Z</time>
      </trkpt>
      <trkpt lat="45.03623" lon="6.05247">
        <ele>732</ele>
        <time>2020-07-23T04:31:19Z</time>
      </trkpt>
      <trkpt lat="45.03613" lon="6.05256">
        <ele>732</ele>
        <time>2020-07-23T04:31:34Z</time>
      </trkpt>
      <trkpt lat="45.03533" lon="6.05232">
        <ele>733</ele>
        <time>2020-07-23T04:33:24Z</time>
      </trkpt>
      <trkpt lat="45.03535" lon="6.05224">
        <ele>733</ele>
        <time>2020-07-23T04:33:32Z</time>
      </trkpt>
      <trkpt lat="45.03544" lon="6.05205">
        <ele>732</ele>
        <time>2020-07-23T04:33:53Z</time>
      </trkpt>
      <trkpt lat="45.03552" lon="6.05182">
        <ele>732</ele>
        <time>2020-07-23T04:34:17Z</time>
      </trkpt>
      <trkpt lat="45.03564" lon="6.05159">
        <ele>732</ele>
        <time>2020-07-23T04:34:44Z</time>
      </trkpt>
      <trkpt lat="45.03584" lon="6.05114">
        <ele>731</ele>
        <time>2020-07-23T04:35:34Z</time>
      </trkpt>
      <trkpt lat="45.03589" lon="6.05086">
        <ele>731</ele>
        <time>2020-07-23T04:36:02Z</time>
      </trkpt>
      <trkpt lat="45.03592" lon="6.05058">
        <ele>730</ele>
        <time>2020-07-23T04:36:28Z</time>
      </trkpt>
      <trkpt lat="45.03592" lon="6.05022">
        <ele>730</ele>
        <time>2020-07-23T04:37:02Z</time>
      </trkpt>
      <trkpt lat="45.03585" lon="6.05005">
        <ele>730</ele>
        <time>2020-07-23T04:37:21Z</time>
      </trkpt>
      <trkpt lat="45.03584" lon="6.04995">
        <ele>730</ele>
        <time>2020-07-23T04:37:30Z</time>
      </trkpt>
      <trkpt lat="45.03585" lon="6.04981">
        <ele>729</ele>
        <time>2020-07-23T04:37:44Z</time>
      </trkpt>
      <trkpt lat="45.03586" lon="6.04899">
        <ele>726</ele>
        <time>2020-07-23T04:39:01Z</time>
      </trkpt>
      <trkpt lat="45.03585" lon="6.04889">
        <ele>725</ele>
        <time>2020-07-23T04:39:11Z</time>
      </trkpt>
      <trkpt lat="45.03609" lon="6.04887">
        <ele>725</ele>
        <time>2020-07-23T04:39:43Z</time>
      </trkpt>
      <trkpt lat="45.03629" lon="6.04879">
        <ele>724</ele>
        <time>2020-07-23T04:40:10Z</time>
      </trkpt>
      <trkpt lat="45.03651" lon="6.04861">
        <ele>724</ele>
        <time>2020-07-23T04:40:44Z</time>
      </trkpt>
      <trkpt lat="45.03673" lon="6.04833">
        <ele>724</ele>
        <time>2020-07-23T04:41:24Z</time>
      </trkpt>
      <trkpt lat="45.03687" lon="6.04819">
        <ele>724</ele>
        <time>2020-07-23T04:41:47Z</time>
      </trkpt>
      <trkpt lat="45.03705" lon="6.04808">
        <ele>724</ele>
        <time>2020-07-23T04:42:13Z</time>
      </trkpt>
      <trkpt lat="45.03757" lon="6.04784">
        <ele>723</ele>
        <time>2020-07-23T04:43:26Z</time>
      </trkpt>
      <trkpt lat="45.03802" lon="6.04752">
        <ele>722</ele>
        <time>2020-07-23T04:44:33Z</time>
      </trkpt>
      <trkpt lat="45.03809" lon="6.04786">
        <ele>723</ele>
        <time>2020-07-23T04:45:06Z</time>
      </trkpt>
      <trkpt lat="45.03815" lon="6.04837">
        <ele>723</ele>
        <time>2020-07-23T04:45:55Z</time>
      </trkpt>
      <trkpt lat="45.03821" lon="6.04875">
        <ele>725</ele>
        <time>2020-07-23T04:46:32Z</time>
      </trkpt>
      <trkpt lat="45.03839" lon="6.05035">
        <ele>730</ele>
        <time>2020-07-23T04:49:05Z</time>
      </trkpt>
      <trkpt lat="45.0385" lon="6.05035">
        <ele>730</ele>
        <time>2020-07-23T04:49:19Z</time>
      </trkpt>
      <trkpt lat="45.03839" lon="6.05035">
        <ele>730</ele>
        <time>2020-07-23T04:49:34Z</time>
      </trkpt>
      <trkpt lat="45.03821" lon="6.04875">
        <ele>725</ele>
        <time>2020-07-23T04:52:07Z</time>
      </trkpt>
      <trkpt lat="45.03815" lon="6.04837">
        <ele>723</ele>
        <time>2020-07-23T04:52:43Z</time>
      </trkpt>
      <trkpt lat="45.03809" lon="6.04786">
        <ele>723</ele>
        <time>2020-07-23T04:53:32Z</time>
      </trkpt>
      <trkpt lat="45.03802" lon="6.04752">
        <ele>722</ele>
        <time>2020-07-23T04:54:06Z</time>
      </trkpt>
      <trkpt lat="45.03842" lon="6.0469">
        <ele>721</ele>
        <time>2020-07-23T04:55:25Z</time>
      </trkpt>
      <trkpt lat="45.03858" lon="6.04652">
        <ele>721</ele>
        <time>2020-07-23T04:56:06Z</time>
      </trkpt>
      <trkpt lat="45.03867" lon="6.04641">
        <ele>721</ele>
        <time>2020-07-23T04:56:22Z</time>
      </trkpt>
      <trkpt lat="45.03873" lon="6.04636">
        <ele>720</ele>
        <time>2020-07-23T04:56:32Z</time>
      </trkpt>
      <trkpt lat="45.03891" lon="6.0463">
        <ele>720</ele>
        <time>2020-07-23T04:56:56Z</time>
      </trkpt>
      <trkpt lat="45.03897" lon="6.04625">
        <ele>720</ele>
        <time>2020-07-23T04:57:06Z</time>
      </trkpt>
      <trkpt lat="45.03911" lon="6.04619">
        <ele>719</ele>
        <time>2020-07-23T04:57:25Z</time>
      </trkpt>
      <trkpt lat="45.03949" lon="6.04589">
        <ele>719</ele>
        <time>2020-07-23T04:58:23Z</time>
      </trkpt>
      <trkpt lat="45.03999" lon="6.04541">
        <ele>720</ele>
        <time>2020-07-23T04:59:44Z</time>
      </trkpt>
      <trkpt lat="45.04035" lon="6.04499">
        <ele>720</ele>
        <time>2020-07-23T05:00:46Z</time>
      </trkpt>
      <trkpt lat="45.04043" lon="6.0451">
        <ele>720</ele>
        <time>2020-07-23T05:01:01Z</time>
      </trkpt>
      <trkpt lat="45.04077" lon="6.04535">
        <ele>721</ele>
        <time>2020-07-23T05:01:52Z</time>
      </trkpt>
      <trkpt lat="45.0415" lon="6.04556">
        <ele>721</ele>
        <time>2020-07-23T05:03:32Z</time>
      </trkpt>
      <trkpt lat="45.04155" lon="6.04569">
        <ele>720</ele>
        <time>2020-07-23T05:03:45Z</time>
      </trkpt>
      <trkpt lat="45.0416" lon="6.04597">
        <ele>720</ele>
        <time>2020-07-23T05:04:13Z</time>
      </trkpt>
      <trkpt lat="45.04167" lon="6.04617">
        <ele>720</ele>
        <time>2020-07-23T05:04:34Z</time>
      </trkpt>
      <trkpt lat="45.04175" lon="6.04628">
        <ele>721</ele>
        <time>2020-07-23T05:04:49Z</time>
      </trkpt>
      <trkpt lat="45.04191" lon="6.04639">
        <ele>721</ele>
        <time>2020-07-23T05:05:12Z</time>
      </trkpt>
      <trkpt lat="45.04222" lon="6.04649">
        <ele>721</ele>
        <time>2020-07-23T05:05:55Z</time>
      </trkpt>
      <trkpt lat="45.04235" lon="6.0465">
        <ele>721</ele>
        <time>2020-07-23T05:06:12Z</time>
      </trkpt>
      <trkpt lat="45.04247" lon="6.04649">
        <ele>721</ele>
        <time>2020-07-23T05:06:28Z</time>
      </trkpt>
      <trkpt lat="45.04276" lon="6.04641">
        <ele>722</ele>
        <time>2020-07-23T05:07:08Z</time>
      </trkpt>
      <trkpt lat="45.04282" lon="6.04641">
        <ele>723</ele>
        <time>2020-07-23T05:07:16Z</time>
      </trkpt>
      <trkpt lat="45.04348" lon="6.04695">
        <ele>727</ele>
        <time>2020-07-23T05:08:57Z</time>
      </trkpt>
      <trkpt lat="45.04405" lon="6.04707">
        <ele>726</ele>
        <time>2020-07-23T05:10:14Z</time>
      </trkpt>
      <trkpt lat="45.04439" lon="6.04716">
        <ele>725</ele>
        <time>2020-07-23T05:11:00Z</time>
      </trkpt>
      <trkpt lat="45.04513" lon="6.04726">
        <ele>722</ele>
        <time>2020-07-23T05:12:40Z</time>
      </trkpt>
      <trkpt lat="45.04578" lon="6.04723">
        <ele>721</ele>
        <time>2020-07-23T05:14:06Z</time>
      </trkpt>
      <trkpt lat="45.04595" lon="6.04725">
        <ele>721</ele>
        <time>2020-07-23T05:14:29Z</time>
      </trkpt>
      <trkpt lat="45.04606" lon="6.04724">
        <ele>722</ele>
        <time>2020-07-23T05:14:44Z</time>
      </trkpt>
      <trkpt lat="45.04613" lon="6.04722">
        <ele>722</ele>
        <time>2020-07-23T05:14:53Z</time>
      </trkpt>
      <trkpt lat="45.04619" lon="6.04716">
        <ele>722</ele>
        <time>2020-07-23T05:15:03Z</time>
      </trkpt>
      <trkpt lat="45.0464" lon="6.04675">
        <ele>722</ele>
        <time>2020-07-23T05:15:51Z</time>
      </trkpt>
      <trkpt lat="45.04671" lon="6.04623">
        <ele>723</ele>
        <time>2020-07-23T05:16:55Z</time>
      </trkpt>
      <trkpt lat="45.04676" lon="6.0461">
        <ele>723</ele>
        <time>2020-07-23T05:17:09Z</time>
      </trkpt>
      <trkpt lat="45.04689" lon="6.04532">
        <ele>723</ele>
        <time>2020-07-23T05:18:25Z</time>
      </trkpt>
      <trkpt lat="45.04692" lon="6.04522">
        <ele>723</ele>
        <time>2020-07-23T05:18:35Z</time>
      </trkpt>
      <trkpt lat="45.04724" lon="6.04476">
        <ele>723</ele>
        <time>2020-07-23T05:19:36Z</time>
      </trkpt>
      <trkpt lat="45.04765" lon="6.04423">
        <ele>722</ele>
        <time>2020-07-23T05:20:50Z</time>
      </trkpt>
      <trkpt lat="45.04873" lon="6.0432">
        <ele>720</ele>
        <time>2020-07-23T05:23:44Z</time>
      </trkpt>
      <trkpt lat="45.04905" lon="6.04283">
        <ele>719</ele>
        <time>2020-07-23T05:24:39Z</time>
      </trkpt>
      <trkpt lat="45.04918" lon="6.04265">
        <ele>719</ele>
        <time>2020-07-23T05:25:03Z</time>
      </trkpt>
      <trkpt lat="45.04948" lon="6.04224">
        <ele>719</ele>
        <time>2020-07-23T05:25:59Z</time>
      </trkpt>
      <trkpt lat="45.04966" lon="6.04195">
        <ele>719</ele>
        <time>2020-07-23T05:26:35Z</time>
      </trkpt>
      <trkpt lat="45.04979" lon="6.04156">
        <ele>719</ele>
        <time>2020-07-23T05:27:16Z</time>
      </trkpt>
      <trkpt lat="45.04999" lon="6.04116">
        <ele>720</ele>
        <time>2020-07-23T05:28:02Z</time>
      </trkpt>
      <trkpt lat="45.0506" lon="6.04057">
        <ele>721</ele>
        <time>2020-07-23T05:29:41Z</time>
      </trkpt>
      <trkpt lat="45.05074" lon="6.04038">
        <ele>721</ele>
        <time>2020-07-23T05:30:06Z</time>
      </trkpt>
      <trkpt lat="45.05134" lon="6.03939">
        <ele>721</ele>
        <time>2020-07-23T05:32:09Z</time>
      </trkpt>
      <trkpt lat="45.0516" lon="6.03899">
        <ele>721</ele>
        <time>2020-07-23T05:33:01Z</time>
      </trkpt>
      <trkpt lat="45.05184" lon="6.03866">
        <ele>721</ele>
        <time>2020-07-23T05:33:45Z</time>
      </trkpt>
      <trkpt lat="45.05207" lon="6.03833">
        <ele>720</ele>
        <time>2020-07-23T05:34:29Z</time>
      </trkpt>
      <trkpt lat="45.05216" lon="6.03789">
        <ele>719</ele>
        <time>2020-07-23T05:35:12Z</time>
      </trkpt>
      <trkpt lat="45.05225" lon="6.03743">
        <ele>719</ele>
        <time>2020-07-23T05:35:57Z</time>
      </trkpt>
      <trkpt lat="45.05229" lon="6.03721">
        <ele>719</ele>
        <time>2020-07-23T05:36:19Z</time>
      </trkpt>
      <trkpt lat="45.0524" lon="6.03658">
        <ele>718</ele>
        <time>2020-07-23T05:37:20Z</time>
      </trkpt>
      <trkpt lat="45.05249" lon="6.03613">
        <ele>718</ele>
        <time>2020-07-23T05:38:04Z</time>
      </trkpt>
      <trkpt lat="45.05257" lon="6.03569">
        <ele>718</ele>
        <time>2020-07-23T05:38:47Z</time>
      </trkpt>
      <trkpt lat="45.05273" lon="6.03539">
        <ele>718</ele>
        <time>2020-07-23T05:39:22Z</time>
      </trkpt>
      <trkpt lat="45.0529" lon="6.03517">
        <ele>718</ele>
        <time>2020-07-23T05:39:53Z</time>
      </trkpt>
      <trkpt lat="45.05304" lon="6.03506">
        <ele>718</ele>
        <time>2020-07-23T05:40:14Z</time>
      </trkpt>
      <trkpt lat="45.05309" lon="6.03502">
        <ele>718</ele>
        <time>2020-07-23T05:40:22Z</time>
      </trkpt>
      <trkpt lat="45.05307" lon="6.03447">
        <ele>718</ele>
        <time>2020-07-23T05:41:14Z</time>
      </trkpt>
      <trkpt lat="45.05295" lon="6.03342">
        <ele>720</ele>
        <time>2020-07-23T05:42:54Z</time>
      </trkpt>
      <trkpt lat="45.05294" lon="6.03319">
        <ele>720</ele>
        <time>2020-07-23T05:43:16Z</time>
      </trkpt>
      <trkpt lat="45.05297" lon="6.03282">
        <ele>720</ele>
        <time>2020-07-23T05:43:51Z</time>
      </trkpt>
      <trkpt lat="45.05305" lon="6.03247">
        <ele>720</ele>
        <time>2020-07-23T05:44:26Z</time>
      </trkpt>
      <trkpt lat="45.05316" lon="6.03223">
        <ele>720</ele>
        <time>2020-07-23T05:44:53Z</time>
      </trkpt>
      <trkpt lat="45.05327" lon="6.03214">
        <ele>720</ele>
        <time>2020-07-23T05:45:10Z</time>
      </trkpt>
      <trkpt lat="45.05337" lon="6.03211">
        <ele>720</ele>
        <time>2020-07-23T05:45:23Z</time>
      </trkpt>
      <trkpt lat="45.05457" lon="6.03202">
        <ele>720</ele>
        <time>2020-07-23T05:48:04Z</time>
      </trkpt>
      <trkpt lat="45.05474" lon="6.03191">
        <ele>721</ele>
        <time>2020-07-23T05:48:28Z</time>
      </trkpt>
      <trkpt lat="45.05473" lon="6.03187">
        <ele>721</ele>
        <time>2020-07-23T05:48:32Z</time>
      </trkpt>
      <trkpt lat="45.05474" lon="6.03191">
        <ele>721</ele>
        <time>2020-07-23T05:48:36Z</time>
      </trkpt>
      <trkpt lat="45.05476" lon="6.03177">
        <ele>721</ele>
        <time>2020-07-23T05:48:50Z</time>
      </trkpt>
      <trkpt lat="45.0548" lon="6.03179">
        <ele>721</ele>
        <time>2020-07-23T05:48:56Z</time>
      </trkpt>
      <trkpt lat="45.05539" lon="6.03154">
        <ele>720</ele>
        <time>2020-07-23T05:50:18Z</time>
      </trkpt>
      <trkpt lat="45.0548" lon="6.03179">
        <ele>721</ele>
        <time>2020-07-23T05:51:40Z</time>
      </trkpt>
      <trkpt lat="45.05476" lon="6.03177">
        <ele>721</ele>
        <time>2020-07-23T05:51:46Z</time>
      </trkpt>
      <trkpt lat="45.05474" lon="6.03191">
        <ele>721</ele>
        <time>2020-07-23T05:51:59Z</time>
      </trkpt>
      <trkpt lat="45.05446" lon="6.03102">
        <ele>725</ele>
        <time>2020-07-23T05:53:31Z</time>
      </trkpt>
      <trkpt lat="45.05421" lon="6.03004">
        <ele>730</ele>
        <time>2020-07-23T05:55:09Z</time>
      </trkpt>
      <trkpt lat="45.05429" lon="6.03001">
        <ele>729</ele>
        <time>2020-07-23T05:55:20Z</time>
      </trkpt>
      <trkpt lat="45.05438" lon="6.02998">
        <ele>729</ele>
        <time>2020-07-23T05:55:33Z</time>
      </trkpt>
      <trkpt lat="45.05445" lon="6.02995">
        <ele>729</ele>
        <time>2020-07-23T05:55:42Z</time>
      </trkpt>
      <trkpt lat="45.05451" lon="6.02993">
        <ele>729</ele>
        <time>2020-07-23T05:55:51Z</time>
      </trkpt>
      <trkpt lat="45.05468" lon="6.02988">
        <ele>728</ele>
        <time>2020-07-23T05:56:14Z</time>
      </trkpt>
      <trkpt lat="45.0547" lon="6.02988">
        <ele>728</ele>
        <time>2020-07-23T05:56:16Z</time>
      </trkpt>
      <trkpt lat="45.05487" lon="6.02985">
        <ele>727</ele>
        <time>2020-07-23T05:56:39Z</time>
      </trkpt>
      <trkpt lat="45.05505" lon="6.02991">
        <ele>726</ele>
        <time>2020-07-23T05:57:04Z</time>
      </trkpt>
      <trkpt lat="45.05503" lon="6.02996">
        <ele>726</ele>
        <time>2020-07-23T05:57:09Z</time>
      </trkpt>
      <trkpt lat="45.05488" lon="6.03102">
        <ele>723</ele>
        <time>2020-07-23T05:58:51Z</time>
      </trkpt>
      <trkpt lat="45.05503" lon="6.02996">
        <ele>726</ele>
        <time>2020-07-23T06:00:33Z</time>
      </trkpt>
      <trkpt lat="45.05511" lon="6.02983">
        <ele>726</ele>
        <time>2020-07-23T06:00:49Z</time>
      </trkpt>
      <trkpt lat="45.05517" lon="6.02979">
        <ele>725</ele>
        <time>2020-07-23T06:00:58Z</time>
      </trkpt>
      <trkpt lat="45.05531" lon="6.02976">
        <ele>724</ele>
        <time>2020-07-23T06:01:17Z</time>
      </trkpt>
      <trkpt lat="45.05626" lon="6.02958">
        <ele>722</ele>
        <time>2020-07-23T06:03:25Z</time>
      </trkpt>
      <trkpt lat="45.05683" lon="6.02945">
        <ele>722</ele>
        <time>2020-07-23T06:04:42Z</time>
      </trkpt>
      <trkpt lat="45.05723" lon="6.02926">
        <ele>722</ele>
        <time>2020-07-23T06:05:38Z</time>
      </trkpt>
      <trkpt lat="45.05736" lon="6.02926">
        <ele>721</ele>
        <time>2020-07-23T06:05:56Z</time>
      </trkpt>
      <trkpt lat="45.05752" lon="6.02919">
        <ele>721</ele>
        <time>2020-07-23T06:06:18Z</time>
      </trkpt>
      <trkpt lat="45.0584" lon="6.02851">
        <ele>722</ele>
        <time>2020-07-23T06:08:32Z</time>
      </trkpt>
    </trkseg>
  </trk>
</gpx>